<?xml version='1.0' encoding='UTF-8'?><gpx version="1.1" creator="JPX - https://github.com/jenetics/jpx" xmlns="http://www.topografix.com/GPX/1/1"><trk><trkseg><trkpt lat="43.46336894440612" lon="11.430918745952399"><ele>347.0</ele><time>2026-03-28T11:24:54.999Z</time></trkpt><trkpt lat="43.46336390145944" lon="11.430825439226469"><ele>347.0</ele><time>2026-03-28T11:24:59.999Z</time></trkpt><trkpt lat="43.46337274238821" lon="11.430728374004282"><ele>347.0</ele><time>2026-03-28T11:25:04.999Z</time></trkpt><trkpt lat="43.46340361548002" lon="11.430625296926163"><ele>347.0</ele><time>2026-03-28T11:25:08.999Z</time></trkpt><trkpt lat="43.46333863267979" lon="11.430537460482125"><ele>347.0</ele><time>2026-03-28T11:25:09.999Z</time></trkpt><trkpt lat="43.46329807177872" lon="11.430463323462904"><ele>347.0</ele><time>2026-03-28T11:25:10.999Z</time></trkpt><trkpt lat="43.46323663468064" lon="11.430394738233232"><ele>348.20000000000005</ele><time>2026-03-28T11:25:11.999Z</time></trkpt><trkpt lat="43.463186468356305" lon="11.430310429705838"><ele>349.4</ele><time>2026-03-28T11:25:12.999Z</time></trkpt><trkpt lat="43.463135130318065" lon="11.430228446677113"><ele>350.6</ele><time>2026-03-28T11:25:13.999Z</time></trkpt><trkpt lat="43.46306898205668" lon="11.430112264551427"><ele>351.79999999999995</ele><time>2026-03-28T11:25:14.999Z</time></trkpt><trkpt lat="43.46300788880183" lon="11.430000101778267"><ele>353.0</ele><time>2026-03-28T11:25:15.999Z</time></trkpt><trkpt lat="43.46295658861938" lon="11.429893872724397"><ele>351.83333333333337</ele><time>2026-03-28T11:25:16.999Z</time></trkpt><trkpt lat="43.46290493680783" lon="11.429797847393903"><ele>350.6666666666667</ele><time>2026-03-28T11:25:17.999Z</time></trkpt><trkpt lat="43.46285183533639" lon="11.429708826520132"><ele>349.5</ele><time>2026-03-28T11:25:18.999Z</time></trkpt><trkpt lat="43.46279266462164" lon="11.429631186457238"><ele>348.3333333333333</ele><time>2026-03-28T11:25:19.999Z</time></trkpt><trkpt lat="43.4627315344732" lon="11.429566237696738"><ele>347.16666666666663</ele><time>2026-03-28T11:25:20.999Z</time></trkpt><trkpt lat="43.46266976860338" lon="11.42949360090503"><ele>346.0</ele><time>2026-03-28T11:25:21.999Z</time></trkpt><trkpt lat="43.46259743957655" lon="11.429404909380851"><ele>346.0</ele><time>2026-03-28T11:25:22.999Z</time></trkpt><trkpt lat="43.46252217635233" lon="11.429308421118472"><ele>346.0</ele><time>2026-03-28T11:25:23.999Z</time></trkpt><trkpt lat="43.46244714982961" lon="11.429211887620431"><ele>346.0</ele><time>2026-03-28T11:25:24.999Z</time></trkpt><trkpt lat="43.46237072790252" lon="11.429115839091928"><ele>346.0</ele><time>2026-03-28T11:25:25.999Z</time></trkpt><trkpt lat="43.46229472856777" lon="11.429021809245867"><ele>346.0</ele><time>2026-03-28T11:25:26.999Z</time></trkpt><trkpt lat="43.462217036788736" lon="11.428925335883026"><ele>346.0</ele><time>2026-03-28T11:25:27.999Z</time></trkpt><trkpt lat="43.46213612769088" lon="11.428830096290964"><ele>346.0</ele><time>2026-03-28T11:25:28.999Z</time></trkpt><trkpt lat="43.462053194157825" lon="11.428730492903115"><ele>346.0</ele><time>2026-03-28T11:25:29.999Z</time></trkpt><trkpt lat="43.46197092313092" lon="11.42862648785994"><ele>346.0</ele><time>2026-03-28T11:25:30.999Z</time></trkpt><trkpt lat="43.461887164632785" lon="11.428519960164664"><ele>346.0</ele><time>2026-03-28T11:25:31.999Z</time></trkpt><trkpt lat="43.461799471245314" lon="11.428418444601943"><ele>345.0</ele><time>2026-03-28T11:25:32.999Z</time></trkpt><trkpt lat="43.461706692528765" lon="11.428317420613162"><ele>344.0</ele><time>2026-03-28T11:25:33.999Z</time></trkpt><trkpt lat="43.461614291196696" lon="11.428224416323468"><ele>343.0</ele><time>2026-03-28T11:25:34.999Z</time></trkpt><trkpt lat="43.461523734616655" lon="11.42813357235572"><ele>342.0</ele><time>2026-03-28T11:25:35.999Z</time></trkpt><trkpt lat="43.46143266234271" lon="11.428043115959312"><ele>341.5</ele><time>2026-03-28T11:25:36.999Z</time></trkpt><trkpt lat="43.46134168805617" lon="11.4279457145869"><ele>341.0</ele><time>2026-03-28T11:25:37.999Z</time></trkpt><trkpt lat="43.46125213553379" lon="11.427854995261901"><ele>340.5</ele><time>2026-03-28T11:25:38.999Z</time></trkpt><trkpt lat="43.46116408449928" lon="11.42775844936791"><ele>340.0</ele><time>2026-03-28T11:25:39.999Z</time></trkpt><trkpt lat="43.461068305694226" lon="11.427657855254553"><ele>340.0</ele><time>2026-03-28T11:25:40.999Z</time></trkpt><trkpt lat="43.46096492095502" lon="11.427547343671295"><ele>340.0</ele><time>2026-03-28T11:25:41.999Z</time></trkpt><trkpt lat="43.460877947477435" lon="11.42744291480134"><ele>340.0</ele><time>2026-03-28T11:25:42.999Z</time></trkpt><trkpt lat="43.46079054539478" lon="11.427351101819546"><ele>340.0</ele><time>2026-03-28T11:25:43.999Z</time></trkpt><trkpt lat="43.46069654816302" lon="11.427266103659374"><ele>340.0</ele><time>2026-03-28T11:25:44.999Z</time></trkpt><trkpt lat="43.46058963138421" lon="11.42718620519773"><ele>340.0</ele><time>2026-03-28T11:25:45.999Z</time></trkpt><trkpt lat="43.46046257074995" lon="11.42710883183325"><ele>340.0</ele><time>2026-03-28T11:25:46.999Z</time></trkpt><trkpt lat="43.46032336244788" lon="11.427043233155816"><ele>340.0</ele><time>2026-03-28T11:25:47.999Z</time></trkpt><trkpt lat="43.46017656517247" lon="11.42698098944092"><ele>341.0</ele><time>2026-03-28T11:25:48.999Z</time></trkpt><trkpt lat="43.4600283938125" lon="11.426920416347741"><ele>342.0</ele><time>2026-03-28T11:25:49.999Z</time></trkpt><trkpt lat="43.459887201726445" lon="11.426859244852151"><ele>343.0</ele><time>2026-03-28T11:25:50.999Z</time></trkpt><trkpt lat="43.45974536131814" lon="11.42677345736697"><ele>341.66666666666663</ele><time>2026-03-28T11:25:51.999Z</time></trkpt><trkpt lat="43.45959266780888" lon="11.426728527240813"><ele>340.3333333333333</ele><time>2026-03-28T11:25:52.999Z</time></trkpt><trkpt lat="43.459439901579536" lon="11.42665883063503"><ele>339.0</ele><time>2026-03-28T11:25:53.999Z</time></trkpt><trkpt lat="43.4592936176961" lon="11.426584539263045"><ele>339.0</ele><time>2026-03-28T11:25:54.999Z</time></trkpt><trkpt lat="43.45914283924291" lon="11.426514952319158"><ele>339.0</ele><time>2026-03-28T11:25:55.999Z</time></trkpt><trkpt lat="43.458992420564364" lon="11.426450642633824"><ele>339.0</ele><time>2026-03-28T11:25:56.999Z</time></trkpt><trkpt lat="43.4588439159927" lon="11.426386029587169"><ele>338.3333333333333</ele><time>2026-03-28T11:25:57.999Z</time></trkpt><trkpt lat="43.458693472265935" lon="11.426320896334847"><ele>337.66666666666663</ele><time>2026-03-28T11:25:58.999Z</time></trkpt><trkpt lat="43.45854447757857" lon="11.426256007774649"><ele>337.0</ele><time>2026-03-28T11:25:59.999Z</time></trkpt><trkpt lat="43.45839251717442" lon="11.426189466210438"><ele>336.66666666666663</ele><time>2026-03-28T11:26:00.999Z</time></trkpt><trkpt lat="43.45824310137756" lon="11.426123147722008"><ele>336.3333333333333</ele><time>2026-03-28T11:26:01.999Z</time></trkpt><trkpt lat="43.45809125596936" lon="11.426053554510439"><ele>336.0</ele><time>2026-03-28T11:26:02.999Z</time></trkpt><trkpt lat="43.45793181749816" lon="11.425983945060668"><ele>336.0</ele><time>2026-03-28T11:26:03.999Z</time></trkpt><trkpt lat="43.45776979268482" lon="11.425914743348613"><ele>336.0</ele><time>2026-03-28T11:26:04.999Z</time></trkpt><trkpt lat="43.45761428386135" lon="11.425826432012755"><ele>336.0</ele><time>2026-03-28T11:26:05.999Z</time></trkpt><trkpt lat="43.457459050359866" lon="11.42576579442857"><ele>336.0</ele><time>2026-03-28T11:26:06.999Z</time></trkpt><trkpt lat="43.45730442024288" lon="11.425696584271924"><ele>336.0</ele><time>2026-03-28T11:26:07.999Z</time></trkpt><trkpt lat="43.4571503700139" lon="11.425639536863727"><ele>336.0</ele><time>2026-03-28T11:26:08.999Z</time></trkpt><trkpt lat="43.45698830113649" lon="11.42558433474476"><ele>338.0</ele><time>2026-03-28T11:26:09.999Z</time></trkpt><trkpt lat="43.45682993859998" lon="11.425545822269921"><ele>340.0</ele><time>2026-03-28T11:26:10.999Z</time></trkpt><trkpt lat="43.4566754720626" lon="11.42551991718005"><ele>342.0</ele><time>2026-03-28T11:26:11.999Z</time></trkpt><trkpt lat="43.45653330760032" lon="11.425507645011988"><ele>342.0</ele><time>2026-03-28T11:26:12.999Z</time></trkpt><trkpt lat="43.45638993728715" lon="11.425496976058154"><ele>342.0</ele><time>2026-03-28T11:26:13.999Z</time></trkpt><trkpt lat="43.456263758731126" lon="11.425472431113866"><ele>342.0</ele><time>2026-03-28T11:26:14.999Z</time></trkpt><trkpt lat="43.45615963051478" lon="11.425392980074037"><ele>342.0</ele><time>2026-03-28T11:26:15.999Z</time></trkpt><trkpt lat="43.45605198124943" lon="11.425301132882566"><ele>340.75</ele><time>2026-03-28T11:26:16.999Z</time></trkpt><trkpt lat="43.45594769478375" lon="11.42519408863931"><ele>339.5</ele><time>2026-03-28T11:26:17.999Z</time></trkpt><trkpt lat="43.455844855238794" lon="11.425087464594371"><ele>338.25</ele><time>2026-03-28T11:26:18.999Z</time></trkpt><trkpt lat="43.45574325850811" lon="11.424984645661787"><ele>337.0</ele><time>2026-03-28T11:26:19.999Z</time></trkpt><trkpt lat="43.45564004388617" lon="11.424883316905571"><ele>337.0</ele><time>2026-03-28T11:26:20.999Z</time></trkpt><trkpt lat="43.45552114005187" lon="11.424766159420681"><ele>337.0</ele><time>2026-03-28T11:26:21.999Z</time></trkpt><trkpt lat="43.455392030455826" lon="11.4246153178104"><ele>337.0</ele><time>2026-03-28T11:26:22.999Z</time></trkpt><trkpt lat="43.45525937406786" lon="11.42448142434051"><ele>336.0</ele><time>2026-03-28T11:26:23.999Z</time></trkpt><trkpt lat="43.455140062317895" lon="11.424354377901874"><ele>335.0</ele><time>2026-03-28T11:26:24.999Z</time></trkpt><trkpt lat="43.4550231924525" lon="11.424236070917967"><ele>334.0</ele><time>2026-03-28T11:26:25.999Z</time></trkpt><trkpt lat="43.45490777827942" lon="11.424114494680053"><ele>333.0</ele><time>2026-03-28T11:26:26.999Z</time></trkpt><trkpt lat="43.45479005027759" lon="11.423996688740672"><ele>333.0</ele><time>2026-03-28T11:26:27.999Z</time></trkpt><trkpt lat="43.454681119461426" lon="11.423883571987247"><ele>333.0</ele><time>2026-03-28T11:26:28.999Z</time></trkpt><trkpt lat="43.4545746232474" lon="11.423779431466075"><ele>333.0</ele><time>2026-03-28T11:26:29.999Z</time></trkpt><trkpt lat="43.4544709792878" lon="11.423680192238464"><ele>333.0</ele><time>2026-03-28T11:26:30.999Z</time></trkpt><trkpt lat="43.454374774106626" lon="11.423570037406314"><ele>332.5</ele><time>2026-03-28T11:26:31.999Z</time></trkpt><trkpt lat="43.45427849825924" lon="11.423444577938518"><ele>332.0</ele><time>2026-03-28T11:26:32.999Z</time></trkpt><trkpt lat="43.45417527689359" lon="11.423294091857757"><ele>331.5</ele><time>2026-03-28T11:26:33.999Z</time></trkpt><trkpt lat="43.454072089466365" lon="11.423125160603492"><ele>331.0</ele><time>2026-03-28T11:26:34.999Z</time></trkpt><trkpt lat="43.45396156649112" lon="11.422937872977315"><ele>332.3333333333333</ele><time>2026-03-28T11:26:35.999Z</time></trkpt><trkpt lat="43.45384828692557" lon="11.42275491274883"><ele>333.6666666666667</ele><time>2026-03-28T11:26:36.999Z</time></trkpt><trkpt lat="43.453732059571536" lon="11.42258321959033"><ele>335.0</ele><time>2026-03-28T11:26:37.999Z</time></trkpt><trkpt lat="43.45362527694654" lon="11.422403210703948"><ele>334.0</ele><time>2026-03-28T11:26:38.999Z</time></trkpt><trkpt lat="43.453513798262186" lon="11.422229655665836"><ele>333.0</ele><time>2026-03-28T11:26:39.999Z</time></trkpt><trkpt lat="43.45340422767832" lon="11.42205910175349"><ele>332.0</ele><time>2026-03-28T11:26:40.999Z</time></trkpt><trkpt lat="43.45329719977222" lon="11.421892671916005"><ele>332.0</ele><time>2026-03-28T11:26:41.999Z</time></trkpt><trkpt lat="43.45319567426473" lon="11.421737930902957"><ele>332.0</ele><time>2026-03-28T11:26:42.999Z</time></trkpt><trkpt lat="43.45309655345219" lon="11.421599679803572"><ele>332.0</ele><time>2026-03-28T11:26:43.999Z</time></trkpt><trkpt lat="43.452983976782" lon="11.421489397718991"><ele>332.0</ele><time>2026-03-28T11:26:44.999Z</time></trkpt><trkpt lat="43.45287456244478" lon="11.421388807598975"><ele>332.75</ele><time>2026-03-28T11:26:45.999Z</time></trkpt><trkpt lat="43.45275237889983" lon="11.421314834442626"><ele>333.5</ele><time>2026-03-28T11:26:46.999Z</time></trkpt><trkpt lat="43.45264287934487" lon="11.421216739577368"><ele>334.25</ele><time>2026-03-28T11:26:47.999Z</time></trkpt><trkpt lat="43.45253523997237" lon="11.421109834111123"><ele>335.0</ele><time>2026-03-28T11:26:48.999Z</time></trkpt><trkpt lat="43.45242881810342" lon="11.420979180882016"><ele>335.0</ele><time>2026-03-28T11:26:49.999Z</time></trkpt><trkpt lat="43.45232941154289" lon="11.420840337254404"><ele>335.0</ele><time>2026-03-28T11:26:50.999Z</time></trkpt><trkpt lat="43.45223236290026" lon="11.420694099802406"><ele>335.0</ele><time>2026-03-28T11:26:51.999Z</time></trkpt><trkpt lat="43.45214208729637" lon="11.420553707230338"><ele>335.0</ele><time>2026-03-28T11:26:52.999Z</time></trkpt><trkpt lat="43.452056794000484" lon="11.420419600785202"><ele>334.0</ele><time>2026-03-28T11:26:53.999Z</time></trkpt><trkpt lat="43.45195487640368" lon="11.420284776239958"><ele>333.0</ele><time>2026-03-28T11:26:54.999Z</time></trkpt><trkpt lat="43.4518877878992" lon="11.42011511458229"><ele>332.0</ele><time>2026-03-28T11:26:55.999Z</time></trkpt><trkpt lat="43.451775538585295" lon="11.41999895562719"><ele>331.0</ele><time>2026-03-28T11:26:56.999Z</time></trkpt><trkpt lat="43.45171169444134" lon="11.419865902670272"><ele>331.0</ele><time>2026-03-28T11:26:57.999Z</time></trkpt><trkpt lat="43.451636861882" lon="11.419744885925066"><ele>331.0</ele><time>2026-03-28T11:26:58.999Z</time></trkpt><trkpt lat="43.45154319018115" lon="11.419634207686572"><ele>331.0</ele><time>2026-03-28T11:26:59.999Z</time></trkpt><trkpt lat="43.45144731873667" lon="11.419515616160941"><ele>331.0</ele><time>2026-03-28T11:27:00.999Z</time></trkpt><trkpt lat="43.451355594566664" lon="11.419433579875745"><ele>330.0</ele><time>2026-03-28T11:27:01.999Z</time></trkpt><trkpt lat="43.45126925631844" lon="11.419340298982686"><ele>329.0</ele><time>2026-03-28T11:27:02.999Z</time></trkpt><trkpt lat="43.45117976879683" lon="11.419269420459553"><ele>328.0</ele><time>2026-03-28T11:27:03.999Z</time></trkpt><trkpt lat="43.45108333618337" lon="11.419196675923844"><ele>327.0</ele><time>2026-03-28T11:27:04.999Z</time></trkpt><trkpt lat="43.450981185705466" lon="11.419126517750502"><ele>326.0</ele><time>2026-03-28T11:27:05.999Z</time></trkpt><trkpt lat="43.45086364318034" lon="11.41908357249155"><ele>326.0</ele><time>2026-03-28T11:27:06.999Z</time></trkpt><trkpt lat="43.45074139999998" lon="11.419051978651648"><ele>326.0</ele><time>2026-03-28T11:27:07.999Z</time></trkpt><trkpt lat="43.45062157730579" lon="11.419027148756891"><ele>326.0</ele><time>2026-03-28T11:27:08.999Z</time></trkpt><trkpt lat="43.450492694469176" lon="11.418997290900128"><ele>326.0</ele><time>2026-03-28T11:27:09.999Z</time></trkpt><trkpt lat="43.45035906926804" lon="11.41897505172775"><ele>325.5</ele><time>2026-03-28T11:27:10.999Z</time></trkpt><trkpt lat="43.4502150234355" lon="11.418959708652062"><ele>325.0</ele><time>2026-03-28T11:27:11.999Z</time></trkpt><trkpt lat="43.450070317108775" lon="11.418929748736314"><ele>324.5</ele><time>2026-03-28T11:27:12.999Z</time></trkpt><trkpt lat="43.449939955583496" lon="11.418880900346718"><ele>324.0</ele><time>2026-03-28T11:27:13.999Z</time></trkpt><trkpt lat="43.44981205342183" lon="11.418826620359537"><ele>325.0</ele><time>2026-03-28T11:27:14.999Z</time></trkpt><trkpt lat="43.449695773211985" lon="11.418766383380174"><ele>326.0</ele><time>2026-03-28T11:27:15.999Z</time></trkpt><trkpt lat="43.449581655719186" lon="11.418717747056451"><ele>327.0</ele><time>2026-03-28T11:27:16.999Z</time></trkpt><trkpt lat="43.44945783100349" lon="11.418665387905351"><ele>328.0</ele><time>2026-03-28T11:27:17.999Z</time></trkpt><trkpt lat="43.449335184865205" lon="11.41862276880692"><ele>328.75</ele><time>2026-03-28T11:27:18.999Z</time></trkpt><trkpt lat="43.44921167257205" lon="11.418590292066229"><ele>329.5</ele><time>2026-03-28T11:27:19.999Z</time></trkpt><trkpt lat="43.449089206031736" lon="11.418570782405437"><ele>330.25</ele><time>2026-03-28T11:27:20.999Z</time></trkpt><trkpt lat="43.44897683913111" lon="11.418538814038744"><ele>331.0</ele><time>2026-03-28T11:27:21.999Z</time></trkpt><trkpt lat="43.448858145929215" lon="11.418535715968451"><ele>331.0</ele><time>2026-03-28T11:27:22.999Z</time></trkpt><trkpt lat="43.44874359603428" lon="11.418523913712534"><ele>331.0</ele><time>2026-03-28T11:27:23.999Z</time></trkpt><trkpt lat="43.44862731696728" lon="11.418517167049822"><ele>331.0</ele><time>2026-03-28T11:27:24.999Z</time></trkpt><trkpt lat="43.44850604976116" lon="11.418497413790352"><ele>331.0</ele><time>2026-03-28T11:27:25.999Z</time></trkpt><trkpt lat="43.44838367473163" lon="11.418459689786546"><ele>331.0</ele><time>2026-03-28T11:27:26.999Z</time></trkpt><trkpt lat="43.448264732553874" lon="11.418397469195831"><ele>331.0</ele><time>2026-03-28T11:27:27.999Z</time></trkpt><trkpt lat="43.44815747515449" lon="11.418314115984213"><ele>331.0</ele><time>2026-03-28T11:27:28.999Z</time></trkpt><trkpt lat="43.448046570976246" lon="11.418214942078471"><ele>331.0</ele><time>2026-03-28T11:27:29.999Z</time></trkpt><trkpt lat="43.447946479513355" lon="11.418090640684552"><ele>329.5</ele><time>2026-03-28T11:27:30.999Z</time></trkpt><trkpt lat="43.447834276309244" lon="11.417997980574805"><ele>328.0</ele><time>2026-03-28T11:27:31.999Z</time></trkpt><trkpt lat="43.44772472495581" lon="11.41789598700232"><ele>326.5</ele><time>2026-03-28T11:27:32.999Z</time></trkpt><trkpt lat="43.44760776901802" lon="11.417815169849218"><ele>325.0</ele><time>2026-03-28T11:27:33.999Z</time></trkpt><trkpt lat="43.44747699748555" lon="11.417763242155132"><ele>328.25</ele><time>2026-03-28T11:27:34.999Z</time></trkpt><trkpt lat="43.447326583202184" lon="11.417713516852029"><ele>331.5</ele><time>2026-03-28T11:27:35.999Z</time></trkpt><trkpt lat="43.44718030357053" lon="11.417684394682652"><ele>334.75</ele><time>2026-03-28T11:27:36.999Z</time></trkpt><trkpt lat="43.44704165581959" lon="11.417649290794868"><ele>338.0</ele><time>2026-03-28T11:27:37.999Z</time></trkpt><trkpt lat="43.44690735961708" lon="11.417608060704751"><ele>338.5</ele><time>2026-03-28T11:27:38.999Z</time></trkpt><trkpt lat="43.44678718285749" lon="11.417580522907812"><ele>339.0</ele><time>2026-03-28T11:27:39.999Z</time></trkpt><trkpt lat="43.44666651802742" lon="11.417551800196662"><ele>339.5</ele><time>2026-03-28T11:27:40.999Z</time></trkpt><trkpt lat="43.44655167037219" lon="11.41751890256866"><ele>340.0</ele><time>2026-03-28T11:27:41.999Z</time></trkpt><trkpt lat="43.44644878245951" lon="11.417481636134873"><ele>340.0</ele><time>2026-03-28T11:27:42.999Z</time></trkpt><trkpt lat="43.4463466032972" lon="11.41746366828547"><ele>340.0</ele><time>2026-03-28T11:27:43.999Z</time></trkpt><trkpt lat="43.44625352343999" lon="11.417458336927126"><ele>340.0</ele><time>2026-03-28T11:27:44.999Z</time></trkpt><trkpt lat="43.44616500888186" lon="11.417474414770462"><ele>340.0</ele><time>2026-03-28T11:27:45.999Z</time></trkpt><trkpt lat="43.44607124184808" lon="11.417519400429702"><ele>340.0</ele><time>2026-03-28T11:27:46.999Z</time></trkpt><trkpt lat="43.44599359936785" lon="11.417580941569875"><ele>340.4</ele><time>2026-03-28T11:27:47.999Z</time></trkpt><trkpt lat="43.44592753028885" lon="11.4176781412573"><ele>340.8</ele><time>2026-03-28T11:27:48.999Z</time></trkpt><trkpt lat="43.4458706907404" lon="11.417802260529156"><ele>341.20000000000005</ele><time>2026-03-28T11:27:49.999Z</time></trkpt><trkpt lat="43.44581398881462" lon="11.417938731104893"><ele>341.6</ele><time>2026-03-28T11:27:50.999Z</time></trkpt><trkpt lat="43.44576222321518" lon="11.418090597900555"><ele>342.0</ele><time>2026-03-28T11:27:51.999Z</time></trkpt><trkpt lat="43.4457120810573" lon="11.418244236483577"><ele>342.0</ele><time>2026-03-28T11:27:52.999Z</time></trkpt><trkpt lat="43.4456782521255" lon="11.418412442341907"><ele>342.0</ele><time>2026-03-28T11:27:53.999Z</time></trkpt><trkpt lat="43.445647896206985" lon="11.418576269836567"><ele>342.0</ele><time>2026-03-28T11:27:54.999Z</time></trkpt><trkpt lat="43.44563351912077" lon="11.418742241231659"><ele>342.0</ele><time>2026-03-28T11:27:55.999Z</time></trkpt><trkpt lat="43.445622926735545" lon="11.418900888856566"><ele>340.40000000000003</ele><time>2026-03-28T11:27:56.999Z</time></trkpt><trkpt lat="43.44561037415072" lon="11.419053623482604"><ele>338.8</ele><time>2026-03-28T11:27:57.999Z</time></trkpt><trkpt lat="43.445592277772526" lon="11.419193797920665"><ele>337.2</ele><time>2026-03-28T11:27:58.999Z</time></trkpt><trkpt lat="43.44557770431873" lon="11.419334254344934"><ele>335.6</ele><time>2026-03-28T11:27:59.999Z</time></trkpt><trkpt lat="43.445558284405145" lon="11.419473623900462"><ele>334.0</ele><time>2026-03-28T11:28:00.999Z</time></trkpt><trkpt lat="43.44548929358346" lon="11.419592277043675"><ele>335.66666666666663</ele><time>2026-03-28T11:28:01.999Z</time></trkpt><trkpt lat="43.44534338813387" lon="11.419697709312452"><ele>337.3333333333333</ele><time>2026-03-28T11:28:02.999Z</time></trkpt><trkpt lat="43.445195557532294" lon="11.419782931218773"><ele>339.0</ele><time>2026-03-28T11:28:03.999Z</time></trkpt><trkpt lat="43.44532606412463" lon="11.419794149800348"><ele>339.0</ele><time>2026-03-28T11:28:04.999Z</time></trkpt><trkpt lat="43.44521837564962" lon="11.419856532739132"><ele>339.0</ele><time>2026-03-28T11:28:05.999Z</time></trkpt><trkpt lat="43.4451069143508" lon="11.419922098153329"><ele>339.0</ele><time>2026-03-28T11:28:06.999Z</time></trkpt><trkpt lat="43.44500118996653" lon="11.419994525872214"><ele>339.0</ele><time>2026-03-28T11:28:07.999Z</time></trkpt><trkpt lat="43.444896048568474" lon="11.420057530898074"><ele>339.0</ele><time>2026-03-28T11:28:08.999Z</time></trkpt><trkpt lat="43.44478929063136" lon="11.420120714175548"><ele>339.0</ele><time>2026-03-28T11:28:09.999Z</time></trkpt><trkpt lat="43.44468221008725" lon="11.420183649907253"><ele>339.0</ele><time>2026-03-28T11:28:10.999Z</time></trkpt><trkpt lat="43.44458814220496" lon="11.420264404087808"><ele>339.0</ele><time>2026-03-28T11:28:11.999Z</time></trkpt><trkpt lat="43.444502162741074" lon="11.4203662857638"><ele>338.5</ele><time>2026-03-28T11:28:12.999Z</time></trkpt><trkpt lat="43.4444160194428" lon="11.42049514756085"><ele>338.0</ele><time>2026-03-28T11:28:13.999Z</time></trkpt><trkpt lat="43.4443342093388" lon="11.420627774319513"><ele>337.5</ele><time>2026-03-28T11:28:14.999Z</time></trkpt><trkpt lat="43.444252199937836" lon="11.420753729425467"><ele>337.0</ele><time>2026-03-28T11:28:15.999Z</time></trkpt><trkpt lat="43.44416063075882" lon="11.420869478676822"><ele>337.0</ele><time>2026-03-28T11:28:16.999Z</time></trkpt><trkpt lat="43.444049695413746" lon="11.420978403970336"><ele>337.0</ele><time>2026-03-28T11:28:17.999Z</time></trkpt><trkpt lat="43.443911130554575" lon="11.421062215603726"><ele>337.0</ele><time>2026-03-28T11:28:18.999Z</time></trkpt><trkpt lat="43.443785916694445" lon="11.42114976866767"><ele>337.0</ele><time>2026-03-28T11:28:19.999Z</time></trkpt><trkpt lat="43.443670166957226" lon="11.421231170019638"><ele>339.25</ele><time>2026-03-28T11:28:20.999Z</time></trkpt><trkpt lat="43.44356063282955" lon="11.421308053693766"><ele>341.5</ele><time>2026-03-28T11:28:21.999Z</time></trkpt><trkpt lat="43.44345350372773" lon="11.421382937026998"><ele>343.75</ele><time>2026-03-28T11:28:22.999Z</time></trkpt><trkpt lat="43.4433495993609" lon="11.421459705022196"><ele>346.0</ele><time>2026-03-28T11:28:23.999Z</time></trkpt><trkpt lat="43.44323980935699" lon="11.421530813688225"><ele>341.5</ele><time>2026-03-28T11:28:24.999Z</time></trkpt><trkpt lat="43.4431192661162" lon="11.421544036741118"><ele>337.0</ele><time>2026-03-28T11:28:25.999Z</time></trkpt><trkpt lat="43.44299567496083" lon="11.42155768595717"><ele>332.5</ele><time>2026-03-28T11:28:26.999Z</time></trkpt><trkpt lat="43.44286506085751" lon="11.421579347430441"><ele>328.0</ele><time>2026-03-28T11:28:27.999Z</time></trkpt><trkpt lat="43.44274381797988" lon="11.421569822427884"><ele>328.0</ele><time>2026-03-28T11:28:28.999Z</time></trkpt><trkpt lat="43.442635787830085" lon="11.421540644658746"><ele>328.0</ele><time>2026-03-28T11:28:29.999Z</time></trkpt><trkpt lat="43.44251015392067" lon="11.421548528816652"><ele>328.0</ele><time>2026-03-28T11:28:30.999Z</time></trkpt><trkpt lat="43.442376989316735" lon="11.421545970861724"><ele>328.0</ele><time>2026-03-28T11:28:31.999Z</time></trkpt><trkpt lat="43.442199495774624" lon="11.421512480645852"><ele>326.3333333333333</ele><time>2026-03-28T11:28:32.999Z</time></trkpt><trkpt lat="43.441979817610246" lon="11.42146981707383"><ele>324.6666666666667</ele><time>2026-03-28T11:28:33.999Z</time></trkpt><trkpt lat="43.44176034673505" lon="11.421440864087282"><ele>323.0</ele><time>2026-03-28T11:28:34.999Z</time></trkpt><trkpt lat="43.44152916756772" lon="11.421379006954702"><ele>323.0</ele><time>2026-03-28T11:28:35.999Z</time></trkpt><trkpt lat="43.44133104549544" lon="11.42135877563778"><ele>323.0</ele><time>2026-03-28T11:28:36.999Z</time></trkpt><trkpt lat="43.44115779047851" lon="11.42133542552191"><ele>323.0</ele><time>2026-03-28T11:28:37.999Z</time></trkpt><trkpt lat="43.441014763003054" lon="11.421238548751084"><ele>325.33333333333337</ele><time>2026-03-28T11:28:38.999Z</time></trkpt><trkpt lat="43.4408520125194" lon="11.421112586880897"><ele>327.6666666666667</ele><time>2026-03-28T11:28:39.999Z</time></trkpt><trkpt lat="43.44067220726586" lon="11.420977184064201"><ele>330.0</ele><time>2026-03-28T11:28:40.999Z</time></trkpt><trkpt lat="43.44051281480792" lon="11.42082524151836"><ele>329.6666666666667</ele><time>2026-03-28T11:28:41.999Z</time></trkpt><trkpt lat="43.44036059257476" lon="11.420691908068573"><ele>329.33333333333337</ele><time>2026-03-28T11:28:42.999Z</time></trkpt><trkpt lat="43.440203882256306" lon="11.420566865486423"><ele>329.0</ele><time>2026-03-28T11:28:43.999Z</time></trkpt><trkpt lat="43.44004937719212" lon="11.42044317015215"><ele>329.0</ele><time>2026-03-28T11:28:44.999Z</time></trkpt><trkpt lat="43.439898260244185" lon="11.42029713688093"><ele>329.0</ele><time>2026-03-28T11:28:45.999Z</time></trkpt><trkpt lat="43.43974417273094" lon="11.420168767996234"><ele>329.0</ele><time>2026-03-28T11:28:46.999Z</time></trkpt><trkpt lat="43.43959264594736" lon="11.420045023652179"><ele>325.33333333333337</ele><time>2026-03-28T11:28:47.999Z</time></trkpt><trkpt lat="43.439438317381246" lon="11.419939509911115"><ele>321.6666666666667</ele><time>2026-03-28T11:28:48.999Z</time></trkpt><trkpt lat="43.439289313014264" lon="11.419822627346544"><ele>318.0</ele><time>2026-03-28T11:28:49.999Z</time></trkpt><trkpt lat="43.43913117614052" lon="11.419727834615134"><ele>318.0</ele><time>2026-03-28T11:28:50.999Z</time></trkpt><trkpt lat="43.43895422808769" lon="11.419668193475324"><ele>318.0</ele><time>2026-03-28T11:28:51.999Z</time></trkpt><trkpt lat="43.4387716882147" lon="11.419629217669119"><ele>318.0</ele><time>2026-03-28T11:28:52.999Z</time></trkpt><trkpt lat="43.43857957857267" lon="11.419612322915238"><ele>321.3333333333333</ele><time>2026-03-28T11:28:53.999Z</time></trkpt><trkpt lat="43.43838903788171" lon="11.419607567773216"><ele>324.66666666666663</ele><time>2026-03-28T11:28:54.999Z</time></trkpt><trkpt lat="43.438202748828395" lon="11.419571058879512"><ele>328.0</ele><time>2026-03-28T11:28:55.999Z</time></trkpt><trkpt lat="43.43801579993261" lon="11.419566788007044"><ele>326.3333333333333</ele><time>2026-03-28T11:28:56.999Z</time></trkpt><trkpt lat="43.43782882452027" lon="11.419532692423283"><ele>324.6666666666667</ele><time>2026-03-28T11:28:57.999Z</time></trkpt><trkpt lat="43.437642394013686" lon="11.41946645767902"><ele>323.0</ele><time>2026-03-28T11:28:58.999Z</time></trkpt><trkpt lat="43.437457118610695" lon="11.419430187107118"><ele>323.0</ele><time>2026-03-28T11:28:59.999Z</time></trkpt><trkpt lat="43.437274683729754" lon="11.419397308362038"><ele>323.0</ele><time>2026-03-28T11:29:00.999Z</time></trkpt><trkpt lat="43.43709610902028" lon="11.419363788594497"><ele>323.0</ele><time>2026-03-28T11:29:01.999Z</time></trkpt><trkpt lat="43.43691706958812" lon="11.419330051439719"><ele>322.0</ele><time>2026-03-28T11:29:02.999Z</time></trkpt><trkpt lat="43.436737744448" lon="11.419301083326996"><ele>321.0</ele><time>2026-03-28T11:29:03.999Z</time></trkpt><trkpt lat="43.43655810594055" lon="11.419272024113955"><ele>320.0</ele><time>2026-03-28T11:29:04.999Z</time></trkpt><trkpt lat="43.43638019501044" lon="11.419238863356734"><ele>318.6666666666667</ele><time>2026-03-28T11:29:05.999Z</time></trkpt><trkpt lat="43.436207130276216" lon="11.41920794931938"><ele>317.3333333333333</ele><time>2026-03-28T11:29:06.999Z</time></trkpt><trkpt lat="43.436031579857094" lon="11.419174944487628"><ele>316.0</ele><time>2026-03-28T11:29:07.999Z</time></trkpt><trkpt lat="43.43586307324942" lon="11.419146233544787"><ele>316.0</ele><time>2026-03-28T11:29:08.999Z</time></trkpt><trkpt lat="43.43570527201462" lon="11.419116007937662"><ele>316.0</ele><time>2026-03-28T11:29:09.999Z</time></trkpt><trkpt lat="43.43554973795663" lon="11.4190845231076"><ele>316.0</ele><time>2026-03-28T11:29:10.999Z</time></trkpt><trkpt lat="43.43540792623792" lon="11.419069590744876"><ele>317.0</ele><time>2026-03-28T11:29:11.999Z</time></trkpt><trkpt lat="43.43525326187825" lon="11.419095205220003"><ele>318.0</ele><time>2026-03-28T11:29:12.999Z</time></trkpt><trkpt lat="43.435107472427454" lon="11.419160291076574"><ele>319.0</ele><time>2026-03-28T11:29:13.999Z</time></trkpt><trkpt lat="43.43495451629102" lon="11.41927099809306"><ele>319.0</ele><time>2026-03-28T11:29:14.999Z</time></trkpt><trkpt lat="43.43478968235757" lon="11.419393930756662"><ele>319.0</ele><time>2026-03-28T11:29:15.999Z</time></trkpt><trkpt lat="43.43463905962003" lon="11.41955081729546"><ele>319.0</ele><time>2026-03-28T11:29:16.999Z</time></trkpt><trkpt lat="43.43448923107588" lon="11.419685192453302"><ele>318.0</ele><time>2026-03-28T11:29:17.999Z</time></trkpt><trkpt lat="43.434361142281055" lon="11.419838885536407"><ele>317.0</ele><time>2026-03-28T11:29:18.999Z</time></trkpt><trkpt lat="43.434250862610085" lon="11.419997360758824"><ele>316.0</ele><time>2026-03-28T11:29:19.999Z</time></trkpt><trkpt lat="43.43413792960576" lon="11.420137697233116"><ele>316.0</ele><time>2026-03-28T11:29:20.999Z</time></trkpt><trkpt lat="43.43402491444596" lon="11.420265471888214"><ele>316.0</ele><time>2026-03-28T11:29:21.999Z</time></trkpt><trkpt lat="43.43391675194774" lon="11.420385561960739"><ele>316.0</ele><time>2026-03-28T11:29:22.999Z</time></trkpt><trkpt lat="43.43380947765898" lon="11.420497785710248"><ele>316.0</ele><time>2026-03-28T11:29:23.999Z</time></trkpt><trkpt lat="43.4337213119098" lon="11.42061724854313"><ele>313.40000000000003</ele><time>2026-03-28T11:29:24.999Z</time></trkpt><trkpt lat="43.433648040174546" lon="11.420738339745727"><ele>310.8</ele><time>2026-03-28T11:29:25.999Z</time></trkpt><trkpt lat="43.43356954646585" lon="11.420836108498541"><ele>308.20000000000005</ele><time>2026-03-28T11:29:26.999Z</time></trkpt><trkpt lat="43.43348635209129" lon="11.420881858979655"><ele>305.6</ele><time>2026-03-28T11:29:27.999Z</time></trkpt><trkpt lat="43.433383416468544" lon="11.420896841499728"><ele>303.0</ele><time>2026-03-28T11:29:28.999Z</time></trkpt><trkpt lat="43.4332827762095" lon="11.4208552174241"><ele>303.0</ele><time>2026-03-28T11:29:29.999Z</time></trkpt><trkpt lat="43.433143988886634" lon="11.420727281979186"><ele>303.0</ele><time>2026-03-28T11:29:30.999Z</time></trkpt><trkpt lat="43.43302808981305" lon="11.420524089483445"><ele>303.0</ele><time>2026-03-28T11:29:31.999Z</time></trkpt><trkpt lat="43.432958404749705" lon="11.420304579406615"><ele>303.3333333333333</ele><time>2026-03-28T11:29:32.999Z</time></trkpt><trkpt lat="43.4328869678858" lon="11.420073229153962"><ele>303.66666666666663</ele><time>2026-03-28T11:29:33.999Z</time></trkpt><trkpt lat="43.432798607875284" lon="11.419836562222352"><ele>304.0</ele><time>2026-03-28T11:29:34.999Z</time></trkpt><trkpt lat="43.4326964010575" lon="11.419626142006088"><ele>304.0</ele><time>2026-03-28T11:29:35.999Z</time></trkpt><trkpt lat="43.43258486175878" lon="11.419423137628415"><ele>304.0</ele><time>2026-03-28T11:29:36.999Z</time></trkpt><trkpt lat="43.43245897136422" lon="11.419241483892021"><ele>304.0</ele><time>2026-03-28T11:29:37.999Z</time></trkpt><trkpt lat="43.432336215512365" lon="11.419061450746335"><ele>304.0</ele><time>2026-03-28T11:29:38.999Z</time></trkpt><trkpt lat="43.4322149266228" lon="11.418885407521206"><ele>304.0</ele><time>2026-03-28T11:29:39.999Z</time></trkpt><trkpt lat="43.43210003805883" lon="11.418710546724032"><ele>304.0</ele><time>2026-03-28T11:29:40.999Z</time></trkpt><trkpt lat="43.43196689602155" lon="11.418539642501148"><ele>302.3333333333333</ele><time>2026-03-28T11:29:41.999Z</time></trkpt><trkpt lat="43.431843539971155" lon="11.418367716403129"><ele>300.6666666666667</ele><time>2026-03-28T11:29:42.999Z</time></trkpt><trkpt lat="43.43173103698639" lon="11.418203730351049"><ele>299.0</ele><time>2026-03-28T11:29:43.999Z</time></trkpt><trkpt lat="43.43162377828748" lon="11.418042106372736"><ele>302.6666666666667</ele><time>2026-03-28T11:29:44.999Z</time></trkpt><trkpt lat="43.431520895550825" lon="11.417876940202234"><ele>306.3333333333333</ele><time>2026-03-28T11:29:45.999Z</time></trkpt><trkpt lat="43.43141785023677" lon="11.417708787412291"><ele>310.0</ele><time>2026-03-28T11:29:46.999Z</time></trkpt><trkpt lat="43.431307474563134" lon="11.417541896885062"><ele>311.66666666666663</ele><time>2026-03-28T11:29:47.999Z</time></trkpt><trkpt lat="43.43119369114148" lon="11.417380203535984"><ele>313.3333333333333</ele><time>2026-03-28T11:29:48.999Z</time></trkpt><trkpt lat="43.431081835264166" lon="11.417217686589526"><ele>315.0</ele><time>2026-03-28T11:29:49.999Z</time></trkpt><trkpt lat="43.430961920278286" lon="11.417079381381152"><ele>315.0</ele><time>2026-03-28T11:29:50.999Z</time></trkpt><trkpt lat="43.43081381107957" lon="11.416977364364826"><ele>315.0</ele><time>2026-03-28T11:29:51.999Z</time></trkpt><trkpt lat="43.43065091554002" lon="11.416905748868212"><ele>315.0</ele><time>2026-03-28T11:29:52.999Z</time></trkpt><trkpt lat="43.43047715944634" lon="11.416850327209993"><ele>313.3333333333333</ele><time>2026-03-28T11:29:53.999Z</time></trkpt><trkpt lat="43.43031213134332" lon="11.416815898839172"><ele>311.66666666666663</ele><time>2026-03-28T11:29:54.999Z</time></trkpt><trkpt lat="43.43014541096705" lon="11.416806805578359"><ele>310.0</ele><time>2026-03-28T11:29:55.999Z</time></trkpt><trkpt lat="43.4299964387457" lon="11.416802947556167"><ele>310.0</ele><time>2026-03-28T11:29:56.999Z</time></trkpt><trkpt lat="43.42986259975052" lon="11.416782570892169"><ele>310.0</ele><time>2026-03-28T11:29:57.999Z</time></trkpt><trkpt lat="43.42974828666743" lon="11.416742080509632"><ele>310.0</ele><time>2026-03-28T11:29:58.999Z</time></trkpt><trkpt lat="43.4296484750596" lon="11.416607780994802"><ele>310.0</ele><time>2026-03-28T11:29:59.999Z</time></trkpt><trkpt lat="43.42956006013995" lon="11.416410490595672"><ele>307.0</ele><time>2026-03-28T11:30:00.999Z</time></trkpt><trkpt lat="43.4294874212226" lon="11.416222828596908"><ele>304.0</ele><time>2026-03-28T11:30:01.999Z</time></trkpt><trkpt lat="43.42947255558678" lon="11.416019336001861"><ele>301.0</ele><time>2026-03-28T11:30:02.999Z</time></trkpt><trkpt lat="43.42949678187995" lon="11.415835253957166"><ele>298.0</ele><time>2026-03-28T11:30:03.999Z</time></trkpt><trkpt lat="43.429552109775656" lon="11.41568719165611"><ele>299.0</ele><time>2026-03-28T11:30:04.999Z</time></trkpt><trkpt lat="43.429650556025194" lon="11.415549348861592"><ele>300.0</ele><time>2026-03-28T11:30:05.999Z</time></trkpt><trkpt lat="43.429789648579394" lon="11.415433123247086"><ele>301.0</ele><time>2026-03-28T11:30:06.999Z</time></trkpt><trkpt lat="43.42993580176931" lon="11.41532909994899"><ele>301.0</ele><time>2026-03-28T11:30:07.999Z</time></trkpt><trkpt lat="43.43010551099995" lon="11.415196555603078"><ele>301.0</ele><time>2026-03-28T11:30:08.999Z</time></trkpt><trkpt lat="43.43026255546584" lon="11.415044136495476"><ele>301.0</ele><time>2026-03-28T11:30:09.999Z</time></trkpt><trkpt lat="43.43039228492433" lon="11.414875388779514"><ele>301.66666666666663</ele><time>2026-03-28T11:30:10.999Z</time></trkpt><trkpt lat="43.43050542105487" lon="11.414687632355687"><ele>302.3333333333333</ele><time>2026-03-28T11:30:11.999Z</time></trkpt><trkpt lat="43.43061514650935" lon="11.414514803368569"><ele>303.0</ele><time>2026-03-28T11:30:12.999Z</time></trkpt><trkpt lat="43.43073163853505" lon="11.414376814952488"><ele>303.0</ele><time>2026-03-28T11:30:13.999Z</time></trkpt><trkpt lat="43.43087064248661" lon="11.414285649634133"><ele>303.0</ele><time>2026-03-28T11:30:14.999Z</time></trkpt><trkpt lat="43.431038487063205" lon="11.414262689474901"><ele>303.0</ele><time>2026-03-28T11:30:15.999Z</time></trkpt><trkpt lat="43.431215598612766" lon="11.414179033821863"><ele>306.3333333333333</ele><time>2026-03-28T11:30:16.999Z</time></trkpt><trkpt lat="43.43138031237059" lon="11.414117938289506"><ele>309.66666666666663</ele><time>2026-03-28T11:30:17.999Z</time></trkpt><trkpt lat="43.43152817132018" lon="11.41404767457976"><ele>313.0</ele><time>2026-03-28T11:30:18.999Z</time></trkpt><trkpt lat="43.43165289514008" lon="11.413935629251801"><ele>309.3333333333333</ele><time>2026-03-28T11:30:19.999Z</time></trkpt><trkpt lat="43.43174157648594" lon="11.413767055841852"><ele>305.6666666666667</ele><time>2026-03-28T11:30:20.999Z</time></trkpt><trkpt lat="43.43181034613205" lon="11.413565350144586"><ele>302.0</ele><time>2026-03-28T11:30:21.999Z</time></trkpt><trkpt lat="43.43185986218386" lon="11.41338258519332"><ele>302.0</ele><time>2026-03-28T11:30:22.999Z</time></trkpt><trkpt lat="43.43187607719887" lon="11.413195829865712"><ele>302.0</ele><time>2026-03-28T11:30:23.999Z</time></trkpt><trkpt lat="43.43187171652231" lon="11.413019137191423"><ele>302.0</ele><time>2026-03-28T11:30:24.999Z</time></trkpt><trkpt lat="43.43182440284654" lon="11.41285673292509"><ele>302.0</ele><time>2026-03-28T11:30:25.999Z</time></trkpt><trkpt lat="43.431751544806666" lon="11.4127286552845"><ele>302.5</ele><time>2026-03-28T11:30:26.999Z</time></trkpt><trkpt lat="43.43164398606532" lon="11.412627828210995"><ele>303.0</ele><time>2026-03-28T11:30:27.999Z</time></trkpt><trkpt lat="43.43151912383022" lon="11.412552644642973"><ele>303.5</ele><time>2026-03-28T11:30:28.999Z</time></trkpt><trkpt lat="43.431417781261835" lon="11.412459695097773"><ele>304.0</ele><time>2026-03-28T11:30:29.999Z</time></trkpt><trkpt lat="43.43134695179023" lon="11.41234309785115"><ele>301.0</ele><time>2026-03-28T11:30:30.999Z</time></trkpt><trkpt lat="43.431246817880265" lon="11.41217344346224"><ele>298.0</ele><time>2026-03-28T11:30:31.999Z</time></trkpt><trkpt lat="43.43111995543672" lon="11.412006432979398"><ele>295.0</ele><time>2026-03-28T11:30:32.999Z</time></trkpt><trkpt lat="43.43100053527946" lon="11.411852816307396"><ele>295.0</ele><time>2026-03-28T11:30:33.999Z</time></trkpt><trkpt lat="43.43091694097492" lon="11.411691812658773"><ele>295.0</ele><time>2026-03-28T11:30:34.999Z</time></trkpt><trkpt lat="43.43087596600264" lon="11.411529502663194"><ele>295.0</ele><time>2026-03-28T11:30:35.999Z</time></trkpt><trkpt lat="43.430827547189395" lon="11.411324226676259"><ele>295.0</ele><time>2026-03-28T11:30:36.999Z</time></trkpt><trkpt lat="43.43075951273806" lon="11.411094788289013"><ele>325.0</ele><time>2026-03-28T11:30:37.999Z</time></trkpt><trkpt lat="43.453732059571536" lon="11.42258321959033"><ele>325.0</ele><time>2026-03-28T11:26:37.999Z</time></trkpt><trkpt lat="43.45362527694654" lon="11.422403210703948"><ele>325.0</ele><time>2026-03-28T11:26:38.999Z</time></trkpt><trkpt lat="43.453513798262186" lon="11.422229655665836"><ele>325.0</ele><time>2026-03-28T11:26:39.999Z</time></trkpt><trkpt lat="43.45340422767832" lon="11.42205910175349"><ele>327.3333333333333</ele><time>2026-03-28T11:26:40.999Z</time></trkpt><trkpt lat="43.45329719977222" lon="11.421892671916005"><ele>329.6666666666667</ele><time>2026-03-28T11:26:41.999Z</time></trkpt><trkpt lat="43.45319567426473" lon="11.421737930902957"><ele>332.0</ele><time>2026-03-28T11:26:42.999Z</time></trkpt><trkpt lat="43.45309655345219" lon="11.421599679803572"><ele>332.0</ele><time>2026-03-28T11:26:43.999Z</time></trkpt><trkpt lat="43.452983976782" lon="11.421489397718991"><ele>332.0</ele><time>2026-03-28T11:26:44.999Z</time></trkpt><trkpt lat="43.45287456244478" lon="11.421388807598975"><ele>332.0</ele><time>2026-03-28T11:26:45.999Z</time></trkpt><trkpt lat="43.45275237889983" lon="11.421314834442626"><ele>332.0</ele><time>2026-03-28T11:26:46.999Z</time></trkpt><trkpt lat="43.45264287934487" lon="11.421216739577368"><ele>332.75</ele><time>2026-03-28T11:26:47.999Z</time></trkpt><trkpt lat="43.45253523997237" lon="11.421109834111123"><ele>333.5</ele><time>2026-03-28T11:26:48.999Z</time></trkpt><trkpt lat="43.45242881810342" lon="11.420979180882016"><ele>334.25</ele><time>2026-03-28T11:26:49.999Z</time></trkpt><trkpt lat="43.45232941154289" lon="11.420840337254404"><ele>335.0</ele><time>2026-03-28T11:26:50.999Z</time></trkpt><trkpt lat="43.45223236290026" lon="11.420694099802406"><ele>335.0</ele><time>2026-03-28T11:26:51.999Z</time></trkpt><trkpt lat="43.45214208729637" lon="11.420553707230338"><ele>335.0</ele><time>2026-03-28T11:26:52.999Z</time></trkpt><trkpt lat="43.452056794000484" lon="11.420419600785202"><ele>335.0</ele><time>2026-03-28T11:26:53.999Z</time></trkpt><trkpt lat="43.45195487640368" lon="11.420284776239958"><ele>335.0</ele><time>2026-03-28T11:26:54.999Z</time></trkpt><trkpt lat="43.4518877878992" lon="11.42011511458229"><ele>334.75</ele><time>2026-03-28T11:26:55.999Z</time></trkpt><trkpt lat="43.451775538585295" lon="11.41999895562719"><ele>334.5</ele><time>2026-03-28T11:26:56.999Z</time></trkpt><trkpt lat="43.45171169444134" lon="11.419865902670272"><ele>334.25</ele><time>2026-03-28T11:26:57.999Z</time></trkpt><trkpt lat="43.451636861882" lon="11.419744885925066"><ele>334.0</ele><time>2026-03-28T11:26:58.999Z</time></trkpt><trkpt lat="43.45154319018115" lon="11.419634207686572"><ele>334.0</ele><time>2026-03-28T11:26:59.999Z</time></trkpt><trkpt lat="43.45144731873667" lon="11.419515616160941"><ele>334.0</ele><time>2026-03-28T11:27:00.999Z</time></trkpt><trkpt lat="43.451355594566664" lon="11.419433579875745"><ele>334.0</ele><time>2026-03-28T11:27:01.999Z</time></trkpt><trkpt lat="43.45126925631844" lon="11.419340298982686"><ele>334.0</ele><time>2026-03-28T11:27:02.999Z</time></trkpt><trkpt lat="43.45117976879683" lon="11.419269420459553"><ele>332.0</ele><time>2026-03-28T11:27:03.999Z</time></trkpt><trkpt lat="43.45108333618337" lon="11.419196675923844"><ele>330.0</ele><time>2026-03-28T11:27:04.999Z</time></trkpt><trkpt lat="43.450981185705466" lon="11.419126517750502"><ele>328.0</ele><time>2026-03-28T11:27:05.999Z</time></trkpt><trkpt lat="43.45086364318034" lon="11.41908357249155"><ele>326.0</ele><time>2026-03-28T11:27:06.999Z</time></trkpt><trkpt lat="43.45074139999998" lon="11.419051978651648"><ele>326.0</ele><time>2026-03-28T11:27:07.999Z</time></trkpt><trkpt lat="43.45062157730579" lon="11.419027148756891"><ele>326.0</ele><time>2026-03-28T11:27:08.999Z</time></trkpt><trkpt lat="43.450492694469176" lon="11.418997290900128"><ele>326.0</ele><time>2026-03-28T11:27:09.999Z</time></trkpt><trkpt lat="43.45035906926804" lon="11.41897505172775"><ele>326.0</ele><time>2026-03-28T11:27:10.999Z</time></trkpt><trkpt lat="43.4502150234355" lon="11.418959708652062"><ele>325.5</ele><time>2026-03-28T11:27:11.999Z</time></trkpt><trkpt lat="43.450070317108775" lon="11.418929748736314"><ele>325.0</ele><time>2026-03-28T11:27:12.999Z</time></trkpt><trkpt lat="43.449939955583496" lon="11.418880900346718"><ele>324.5</ele><time>2026-03-28T11:27:13.999Z</time></trkpt><trkpt lat="43.44981205342183" lon="11.418826620359537"><ele>324.0</ele><time>2026-03-28T11:27:14.999Z</time></trkpt><trkpt lat="43.449695773211985" lon="11.418766383380174"><ele>325.75</ele><time>2026-03-28T11:27:15.999Z</time></trkpt><trkpt lat="43.449581655719186" lon="11.418717747056451"><ele>327.5</ele><time>2026-03-28T11:27:16.999Z</time></trkpt><trkpt lat="43.44945783100349" lon="11.418665387905351"><ele>329.25</ele><time>2026-03-28T11:27:17.999Z</time></trkpt><trkpt lat="43.449335184865205" lon="11.41862276880692"><ele>331.0</ele><time>2026-03-28T11:27:18.999Z</time></trkpt><trkpt lat="43.44921167257205" lon="11.418590292066229"><ele>331.0</ele><time>2026-03-28T11:27:19.999Z</time></trkpt><trkpt lat="43.449089206031736" lon="11.418570782405437"><ele>331.0</ele><time>2026-03-28T11:27:20.999Z</time></trkpt><trkpt lat="43.44897683913111" lon="11.418538814038744"><ele>331.0</ele><time>2026-03-28T11:27:21.999Z</time></trkpt><trkpt lat="43.448858145929215" lon="11.418535715968451"><ele>331.0</ele><time>2026-03-28T11:27:22.999Z</time></trkpt><trkpt lat="43.44874359603428" lon="11.418523913712534"><ele>331.0</ele><time>2026-03-28T11:27:23.999Z</time></trkpt><trkpt lat="43.44862731696728" lon="11.418517167049822"><ele>331.0</ele><time>2026-03-28T11:27:24.999Z</time></trkpt><trkpt lat="43.44850604976116" lon="11.418497413790352"><ele>331.0</ele><time>2026-03-28T11:27:25.999Z</time></trkpt><trkpt lat="43.44838367473163" lon="11.418459689786546"><ele>331.0</ele><time>2026-03-28T11:27:26.999Z</time></trkpt><trkpt lat="43.448264732553874" lon="11.418397469195831"><ele>331.0</ele><time>2026-03-28T11:27:27.999Z</time></trkpt><trkpt lat="43.44815747515449" lon="11.418314115984213"><ele>331.0</ele><time>2026-03-28T11:27:28.999Z</time></trkpt><trkpt lat="43.448046570976246" lon="11.418214942078471"><ele>331.0</ele><time>2026-03-28T11:27:29.999Z</time></trkpt><trkpt lat="43.447946479513355" lon="11.418090640684552"><ele>331.0</ele><time>2026-03-28T11:27:30.999Z</time></trkpt><trkpt lat="43.447834276309244" lon="11.417997980574805"><ele>332.75</ele><time>2026-03-28T11:27:31.999Z</time></trkpt><trkpt lat="43.44772472495581" lon="11.41789598700232"><ele>334.5</ele><time>2026-03-28T11:27:32.999Z</time></trkpt><trkpt lat="43.44760776901802" lon="11.417815169849218"><ele>336.25</ele><time>2026-03-28T11:27:33.999Z</time></trkpt><trkpt lat="43.44747699748555" lon="11.417763242155132"><ele>338.0</ele><time>2026-03-28T11:27:34.999Z</time></trkpt><trkpt lat="43.447326583202184" lon="11.417713516852029"><ele>338.0</ele><time>2026-03-28T11:27:35.999Z</time></trkpt><trkpt lat="43.44718030357053" lon="11.417684394682652"><ele>338.0</ele><time>2026-03-28T11:27:36.999Z</time></trkpt><trkpt lat="43.44704165581959" lon="11.417649290794868"><ele>338.0</ele><time>2026-03-28T11:27:37.999Z</time></trkpt><trkpt lat="43.44690735961708" lon="11.417608060704751"><ele>338.0</ele><time>2026-03-28T11:27:38.999Z</time></trkpt><trkpt lat="43.44678718285749" lon="11.417580522907812"><ele>338.4</ele><time>2026-03-28T11:27:39.999Z</time></trkpt><trkpt lat="43.44666651802742" lon="11.417551800196662"><ele>338.79999999999995</ele><time>2026-03-28T11:27:40.999Z</time></trkpt><trkpt lat="43.44655167037219" lon="11.41751890256866"><ele>339.2</ele><time>2026-03-28T11:27:41.999Z</time></trkpt><trkpt lat="43.44644878245951" lon="11.417481636134873"><ele>339.6</ele><time>2026-03-28T11:27:42.999Z</time></trkpt><trkpt lat="43.4463466032972" lon="11.41746366828547"><ele>340.0</ele><time>2026-03-28T11:27:43.999Z</time></trkpt><trkpt lat="43.44625352343999" lon="11.417458336927126"><ele>342.4</ele><time>2026-03-28T11:27:44.999Z</time></trkpt><trkpt lat="43.44616500888186" lon="11.417474414770462"><ele>344.8</ele><time>2026-03-28T11:27:45.999Z</time></trkpt><trkpt lat="43.44607124184808" lon="11.417519400429702"><ele>347.20000000000005</ele><time>2026-03-28T11:27:46.999Z</time></trkpt><trkpt lat="43.44599359936785" lon="11.417580941569875"><ele>349.6</ele><time>2026-03-28T11:27:47.999Z</time></trkpt><trkpt lat="43.44592753028885" lon="11.4176781412573"><ele>352.0</ele><time>2026-03-28T11:27:48.999Z</time></trkpt><trkpt lat="43.4458706907404" lon="11.417802260529156"><ele>352.0</ele><time>2026-03-28T11:27:49.999Z</time></trkpt><trkpt lat="43.44581398881462" lon="11.417938731104893"><ele>352.0</ele><time>2026-03-28T11:27:50.999Z</time></trkpt><trkpt lat="43.44576222321518" lon="11.418090597900555"><ele>352.0</ele><time>2026-03-28T11:27:51.999Z</time></trkpt><trkpt lat="43.4457120810573" lon="11.418244236483577"><ele>352.0</ele><time>2026-03-28T11:27:52.999Z</time></trkpt><trkpt lat="43.4456782521255" lon="11.418412442341907"><ele>349.5</ele><time>2026-03-28T11:27:53.999Z</time></trkpt><trkpt lat="43.445647896206985" lon="11.418576269836567"><ele>347.0</ele><time>2026-03-28T11:27:54.999Z</time></trkpt><trkpt lat="43.44563351912077" lon="11.418742241231659"><ele>344.5</ele><time>2026-03-28T11:27:55.999Z</time></trkpt><trkpt lat="43.445622926735545" lon="11.418900888856566"><ele>342.0</ele><time>2026-03-28T11:27:56.999Z</time></trkpt><trkpt lat="43.44561037415072" lon="11.419053623482604"><ele>341.40000000000003</ele><time>2026-03-28T11:27:57.999Z</time></trkpt><trkpt lat="43.445592277772526" lon="11.419193797920665"><ele>340.8</ele><time>2026-03-28T11:27:58.999Z</time></trkpt><trkpt lat="43.44557770431873" lon="11.419334254344934"><ele>340.2</ele><time>2026-03-28T11:27:59.999Z</time></trkpt><trkpt lat="43.445558284405145" lon="11.419473623900462"><ele>339.6</ele><time>2026-03-28T11:28:00.999Z</time></trkpt><trkpt lat="43.44548929358346" lon="11.419592277043675"><ele>339.0</ele><time>2026-03-28T11:28:01.999Z</time></trkpt><trkpt lat="43.44534338813387" lon="11.419697709312452"><ele>339.0</ele><time>2026-03-28T11:28:02.999Z</time></trkpt><trkpt lat="43.445195557532294" lon="11.419782931218773"><ele>339.0</ele><time>2026-03-28T11:28:03.999Z</time></trkpt><trkpt lat="43.44532606412463" lon="11.419794149800348"><ele>339.0</ele><time>2026-03-28T11:28:04.999Z</time></trkpt><trkpt lat="43.44521837564962" lon="11.419856532739132"><ele>339.0</ele><time>2026-03-28T11:28:05.999Z</time></trkpt><trkpt lat="43.4451069143508" lon="11.419922098153329"><ele>339.0</ele><time>2026-03-28T11:28:06.999Z</time></trkpt><trkpt lat="43.44500118996653" lon="11.419994525872214"><ele>339.0</ele><time>2026-03-28T11:28:07.999Z</time></trkpt><trkpt lat="43.444896048568474" lon="11.420057530898074"><ele>339.0</ele><time>2026-03-28T11:28:08.999Z</time></trkpt><trkpt lat="43.44478929063136" lon="11.420120714175548"><ele>339.0</ele><time>2026-03-28T11:28:09.999Z</time></trkpt><trkpt lat="43.44468221008725" lon="11.420183649907253"><ele>338.5</ele><time>2026-03-28T11:28:10.999Z</time></trkpt><trkpt lat="43.44458814220496" lon="11.420264404087808"><ele>338.0</ele><time>2026-03-28T11:28:11.999Z</time></trkpt><trkpt lat="43.444502162741074" lon="11.4203662857638"><ele>337.5</ele><time>2026-03-28T11:28:12.999Z</time></trkpt><trkpt lat="43.4444160194428" lon="11.42049514756085"><ele>337.0</ele><time>2026-03-28T11:28:13.999Z</time></trkpt><trkpt lat="43.4443342093388" lon="11.420627774319513"><ele>337.0</ele><time>2026-03-28T11:28:14.999Z</time></trkpt><trkpt lat="43.444252199937836" lon="11.420753729425467"><ele>337.0</ele><time>2026-03-28T11:28:15.999Z</time></trkpt><trkpt lat="43.44416063075882" lon="11.420869478676822"><ele>337.0</ele><time>2026-03-28T11:28:16.999Z</time></trkpt><trkpt lat="43.444049695413746" lon="11.420978403970336"><ele>337.0</ele><time>2026-03-28T11:28:17.999Z</time></trkpt><trkpt lat="43.443911130554575" lon="11.421062215603726"><ele>339.25</ele><time>2026-03-28T11:28:18.999Z</time></trkpt><trkpt lat="43.443785916694445" lon="11.42114976866767"><ele>341.5</ele><time>2026-03-28T11:28:19.999Z</time></trkpt><trkpt lat="43.443670166957226" lon="11.421231170019638"><ele>343.75</ele><time>2026-03-28T11:28:20.999Z</time></trkpt><trkpt lat="43.44356063282955" lon="11.421308053693766"><ele>346.0</ele><time>2026-03-28T11:28:21.999Z</time></trkpt><trkpt lat="43.44345350372773" lon="11.421382937026998"><ele>341.5</ele><time>2026-03-28T11:28:22.999Z</time></trkpt><trkpt lat="43.4433495993609" lon="11.421459705022196"><ele>337.0</ele><time>2026-03-28T11:28:23.999Z</time></trkpt><trkpt lat="43.44323980935699" lon="11.421530813688225"><ele>332.5</ele><time>2026-03-28T11:28:24.999Z</time></trkpt><trkpt lat="43.4431192661162" lon="11.421544036741118"><ele>328.0</ele><time>2026-03-28T11:28:25.999Z</time></trkpt><trkpt lat="43.44299567496083" lon="11.42155768595717"><ele>328.0</ele><time>2026-03-28T11:28:26.999Z</time></trkpt><trkpt lat="43.44286506085751" lon="11.421579347430441"><ele>328.0</ele><time>2026-03-28T11:28:27.999Z</time></trkpt><trkpt lat="43.44274381797988" lon="11.421569822427884"><ele>328.0</ele><time>2026-03-28T11:28:28.999Z</time></trkpt><trkpt lat="43.442635787830085" lon="11.421540644658746"><ele>328.0</ele><time>2026-03-28T11:28:29.999Z</time></trkpt><trkpt lat="43.44251015392067" lon="11.421548528816652"><ele>328.0</ele><time>2026-03-28T11:28:30.999Z</time></trkpt><trkpt lat="43.442376989316735" lon="11.421545970861724"><ele>328.0</ele><time>2026-03-28T11:28:31.999Z</time></trkpt><trkpt lat="43.442199495774624" lon="11.421512480645852"><ele>328.0</ele><time>2026-03-28T11:28:32.999Z</time></trkpt><trkpt lat="43.441979817610246" lon="11.42146981707383"><ele>325.5</ele><time>2026-03-28T11:28:33.999Z</time></trkpt><trkpt lat="43.44176034673505" lon="11.421440864087282"><ele>323.0</ele><time>2026-03-28T11:28:34.999Z</time></trkpt><trkpt lat="43.44152916756772" lon="11.421379006954702"><ele>323.0</ele><time>2026-03-28T11:28:35.999Z</time></trkpt><trkpt lat="43.44133104549544" lon="11.42135877563778"><ele>323.0</ele><time>2026-03-28T11:28:36.999Z</time></trkpt><trkpt lat="43.44115779047851" lon="11.42133542552191"><ele>323.0</ele><time>2026-03-28T11:28:37.999Z</time></trkpt><trkpt lat="43.441014763003054" lon="11.421238548751084"><ele>325.33333333333337</ele><time>2026-03-28T11:28:38.999Z</time></trkpt><trkpt lat="43.4408520125194" lon="11.421112586880897"><ele>327.6666666666667</ele><time>2026-03-28T11:28:39.999Z</time></trkpt><trkpt lat="43.44067220726586" lon="11.420977184064201"><ele>330.0</ele><time>2026-03-28T11:28:40.999Z</time></trkpt><trkpt lat="43.44051281480792" lon="11.42082524151836"><ele>329.6666666666667</ele><time>2026-03-28T11:28:41.999Z</time></trkpt><trkpt lat="43.44036059257476" lon="11.420691908068573"><ele>329.33333333333337</ele><time>2026-03-28T11:28:42.999Z</time></trkpt><trkpt lat="43.440203882256306" lon="11.420566865486423"><ele>329.0</ele><time>2026-03-28T11:28:43.999Z</time></trkpt><trkpt lat="43.44004937719212" lon="11.42044317015215"><ele>329.0</ele><time>2026-03-28T11:28:44.999Z</time></trkpt><trkpt lat="43.439898260244185" lon="11.42029713688093"><ele>329.0</ele><time>2026-03-28T11:28:45.999Z</time></trkpt><trkpt lat="43.43974417273094" lon="11.420168767996234"><ele>329.0</ele><time>2026-03-28T11:28:46.999Z</time></trkpt><trkpt lat="43.43959264594736" lon="11.420045023652179"><ele>325.33333333333337</ele><time>2026-03-28T11:28:47.999Z</time></trkpt><trkpt lat="43.439438317381246" lon="11.419939509911115"><ele>321.6666666666667</ele><time>2026-03-28T11:28:48.999Z</time></trkpt><trkpt lat="43.439289313014264" lon="11.419822627346544"><ele>318.0</ele><time>2026-03-28T11:28:49.999Z</time></trkpt><trkpt lat="43.43913117614052" lon="11.419727834615134"><ele>318.0</ele><time>2026-03-28T11:28:50.999Z</time></trkpt><trkpt lat="43.43895422808769" lon="11.419668193475324"><ele>318.0</ele><time>2026-03-28T11:28:51.999Z</time></trkpt><trkpt lat="43.4387716882147" lon="11.419629217669119"><ele>318.0</ele><time>2026-03-28T11:28:52.999Z</time></trkpt><trkpt lat="43.43857957857267" lon="11.419612322915238"><ele>321.3333333333333</ele><time>2026-03-28T11:28:53.999Z</time></trkpt><trkpt lat="43.43838903788171" lon="11.419607567773216"><ele>324.66666666666663</ele><time>2026-03-28T11:28:54.999Z</time></trkpt><trkpt lat="43.438202748828395" lon="11.419571058879512"><ele>328.0</ele><time>2026-03-28T11:28:55.999Z</time></trkpt><trkpt lat="43.43801579993261" lon="11.419566788007044"><ele>326.3333333333333</ele><time>2026-03-28T11:28:56.999Z</time></trkpt><trkpt lat="43.43782882452027" lon="11.419532692423283"><ele>324.6666666666667</ele><time>2026-03-28T11:28:57.999Z</time></trkpt><trkpt lat="43.437642394013686" lon="11.41946645767902"><ele>323.0</ele><time>2026-03-28T11:28:58.999Z</time></trkpt><trkpt lat="43.437457118610695" lon="11.419430187107118"><ele>323.0</ele><time>2026-03-28T11:28:59.999Z</time></trkpt><trkpt lat="43.437274683729754" lon="11.419397308362038"><ele>323.0</ele><time>2026-03-28T11:29:00.999Z</time></trkpt><trkpt lat="43.43709610902028" lon="11.419363788594497"><ele>323.0</ele><time>2026-03-28T11:29:01.999Z</time></trkpt><trkpt lat="43.43691706958812" lon="11.419330051439719"><ele>322.0</ele><time>2026-03-28T11:29:02.999Z</time></trkpt><trkpt lat="43.436737744448" lon="11.419301083326996"><ele>321.0</ele><time>2026-03-28T11:29:03.999Z</time></trkpt><trkpt lat="43.43655810594055" lon="11.419272024113955"><ele>320.0</ele><time>2026-03-28T11:29:04.999Z</time></trkpt><trkpt lat="43.43638019501044" lon="11.419238863356734"><ele>318.6666666666667</ele><time>2026-03-28T11:29:05.999Z</time></trkpt><trkpt lat="43.436207130276216" lon="11.41920794931938"><ele>317.3333333333333</ele><time>2026-03-28T11:29:06.999Z</time></trkpt><trkpt lat="43.436031579857094" lon="11.419174944487628"><ele>316.0</ele><time>2026-03-28T11:29:07.999Z</time></trkpt><trkpt lat="43.43586307324942" lon="11.419146233544787"><ele>316.0</ele><time>2026-03-28T11:29:08.999Z</time></trkpt><trkpt lat="43.43570527201462" lon="11.419116007937662"><ele>316.0</ele><time>2026-03-28T11:29:09.999Z</time></trkpt><trkpt lat="43.43554973795663" lon="11.4190845231076"><ele>316.0</ele><time>2026-03-28T11:29:10.999Z</time></trkpt><trkpt lat="43.43540792623792" lon="11.419069590744876"><ele>317.0</ele><time>2026-03-28T11:29:11.999Z</time></trkpt><trkpt lat="43.43525326187825" lon="11.419095205220003"><ele>318.0</ele><time>2026-03-28T11:29:12.999Z</time></trkpt><trkpt lat="43.435107472427454" lon="11.419160291076574"><ele>319.0</ele><time>2026-03-28T11:29:13.999Z</time></trkpt><trkpt lat="43.43495451629102" lon="11.41927099809306"><ele>319.0</ele><time>2026-03-28T11:29:14.999Z</time></trkpt><trkpt lat="43.43478968235757" lon="11.419393930756662"><ele>319.0</ele><time>2026-03-28T11:29:15.999Z</time></trkpt><trkpt lat="43.43463905962003" lon="11.41955081729546"><ele>319.0</ele><time>2026-03-28T11:29:16.999Z</time></trkpt><trkpt lat="43.43448923107588" lon="11.419685192453302"><ele>318.0</ele><time>2026-03-28T11:29:17.999Z</time></trkpt><trkpt lat="43.434361142281055" lon="11.419838885536407"><ele>317.0</ele><time>2026-03-28T11:29:18.999Z</time></trkpt><trkpt lat="43.434250862610085" lon="11.419997360758824"><ele>316.0</ele><time>2026-03-28T11:29:19.999Z</time></trkpt><trkpt lat="43.43413792960576" lon="11.420137697233116"><ele>316.0</ele><time>2026-03-28T11:29:20.999Z</time></trkpt><trkpt lat="43.43402491444596" lon="11.420265471888214"><ele>316.0</ele><time>2026-03-28T11:29:21.999Z</time></trkpt><trkpt lat="43.43391675194774" lon="11.420385561960739"><ele>316.0</ele><time>2026-03-28T11:29:22.999Z</time></trkpt><trkpt lat="43.43380947765898" lon="11.420497785710248"><ele>316.0</ele><time>2026-03-28T11:29:23.999Z</time></trkpt><trkpt lat="43.4337213119098" lon="11.42061724854313"><ele>313.40000000000003</ele><time>2026-03-28T11:29:24.999Z</time></trkpt><trkpt lat="43.433648040174546" lon="11.420738339745727"><ele>310.8</ele><time>2026-03-28T11:29:25.999Z</time></trkpt><trkpt lat="43.43356954646585" lon="11.420836108498541"><ele>308.20000000000005</ele><time>2026-03-28T11:29:26.999Z</time></trkpt><trkpt lat="43.43348635209129" lon="11.420881858979655"><ele>305.6</ele><time>2026-03-28T11:29:27.999Z</time></trkpt><trkpt lat="43.433383416468544" lon="11.420896841499728"><ele>303.0</ele><time>2026-03-28T11:29:28.999Z</time></trkpt><trkpt lat="43.4332827762095" lon="11.4208552174241"><ele>303.0</ele><time>2026-03-28T11:29:29.999Z</time></trkpt><trkpt lat="43.433143988886634" lon="11.420727281979186"><ele>303.0</ele><time>2026-03-28T11:29:30.999Z</time></trkpt><trkpt lat="43.43302808981305" lon="11.420524089483445"><ele>303.0</ele><time>2026-03-28T11:29:31.999Z</time></trkpt><trkpt lat="43.432958404749705" lon="11.420304579406615"><ele>303.3333333333333</ele><time>2026-03-28T11:29:32.999Z</time></trkpt><trkpt lat="43.4328869678858" lon="11.420073229153962"><ele>303.66666666666663</ele><time>2026-03-28T11:29:33.999Z</time></trkpt><trkpt lat="43.432798607875284" lon="11.419836562222352"><ele>304.0</ele><time>2026-03-28T11:29:34.999Z</time></trkpt><trkpt lat="43.4326964010575" lon="11.419626142006088"><ele>304.0</ele><time>2026-03-28T11:29:35.999Z</time></trkpt><trkpt lat="43.43258486175878" lon="11.419423137628415"><ele>304.0</ele><time>2026-03-28T11:29:36.999Z</time></trkpt><trkpt lat="43.43245897136422" lon="11.419241483892021"><ele>304.0</ele><time>2026-03-28T11:29:37.999Z</time></trkpt><trkpt lat="43.432336215512365" lon="11.419061450746335"><ele>304.0</ele><time>2026-03-28T11:29:38.999Z</time></trkpt><trkpt lat="43.4322149266228" lon="11.418885407521206"><ele>304.0</ele><time>2026-03-28T11:29:39.999Z</time></trkpt><trkpt lat="43.43210003805883" lon="11.418710546724032"><ele>304.0</ele><time>2026-03-28T11:29:40.999Z</time></trkpt><trkpt lat="43.43196689602155" lon="11.418539642501148"><ele>302.3333333333333</ele><time>2026-03-28T11:29:41.999Z</time></trkpt><trkpt lat="43.431843539971155" lon="11.418367716403129"><ele>300.6666666666667</ele><time>2026-03-28T11:29:42.999Z</time></trkpt><trkpt lat="43.43173103698639" lon="11.418203730351049"><ele>299.0</ele><time>2026-03-28T11:29:43.999Z</time></trkpt><trkpt lat="43.43162377828748" lon="11.418042106372736"><ele>302.6666666666667</ele><time>2026-03-28T11:29:44.999Z</time></trkpt><trkpt lat="43.431520895550825" lon="11.417876940202234"><ele>306.3333333333333</ele><time>2026-03-28T11:29:45.999Z</time></trkpt><trkpt lat="43.43141785023677" lon="11.417708787412291"><ele>310.0</ele><time>2026-03-28T11:29:46.999Z</time></trkpt><trkpt lat="43.431307474563134" lon="11.417541896885062"><ele>311.66666666666663</ele><time>2026-03-28T11:29:47.999Z</time></trkpt><trkpt lat="43.43119369114148" lon="11.417380203535984"><ele>313.3333333333333</ele><time>2026-03-28T11:29:48.999Z</time></trkpt><trkpt lat="43.431081835264166" lon="11.417217686589526"><ele>315.0</ele><time>2026-03-28T11:29:49.999Z</time></trkpt><trkpt lat="43.430961920278286" lon="11.417079381381152"><ele>315.0</ele><time>2026-03-28T11:29:50.999Z</time></trkpt><trkpt lat="43.43081381107957" lon="11.416977364364826"><ele>315.0</ele><time>2026-03-28T11:29:51.999Z</time></trkpt><trkpt lat="43.43065091554002" lon="11.416905748868212"><ele>315.0</ele><time>2026-03-28T11:29:52.999Z</time></trkpt><trkpt lat="43.43047715944634" lon="11.416850327209993"><ele>313.3333333333333</ele><time>2026-03-28T11:29:53.999Z</time></trkpt><trkpt lat="43.43031213134332" lon="11.416815898839172"><ele>311.66666666666663</ele><time>2026-03-28T11:29:54.999Z</time></trkpt><trkpt lat="43.43014541096705" lon="11.416806805578359"><ele>310.0</ele><time>2026-03-28T11:29:55.999Z</time></trkpt><trkpt lat="43.4299964387457" lon="11.416802947556167"><ele>310.0</ele><time>2026-03-28T11:29:56.999Z</time></trkpt><trkpt lat="43.42986259975052" lon="11.416782570892169"><ele>310.0</ele><time>2026-03-28T11:29:57.999Z</time></trkpt><trkpt lat="43.42974828666743" lon="11.416742080509632"><ele>310.0</ele><time>2026-03-28T11:29:58.999Z</time></trkpt><trkpt lat="43.4296484750596" lon="11.416607780994802"><ele>310.0</ele><time>2026-03-28T11:29:59.999Z</time></trkpt><trkpt lat="43.42956006013995" lon="11.416410490595672"><ele>307.0</ele><time>2026-03-28T11:30:00.999Z</time></trkpt><trkpt lat="43.4294874212226" lon="11.416222828596908"><ele>304.0</ele><time>2026-03-28T11:30:01.999Z</time></trkpt><trkpt lat="43.42947255558678" lon="11.416019336001861"><ele>301.0</ele><time>2026-03-28T11:30:02.999Z</time></trkpt><trkpt lat="43.42949678187995" lon="11.415835253957166"><ele>298.0</ele><time>2026-03-28T11:30:03.999Z</time></trkpt><trkpt lat="43.429552109775656" lon="11.41568719165611"><ele>299.0</ele><time>2026-03-28T11:30:04.999Z</time></trkpt><trkpt lat="43.429650556025194" lon="11.415549348861592"><ele>300.0</ele><time>2026-03-28T11:30:05.999Z</time></trkpt><trkpt lat="43.429789648579394" lon="11.415433123247086"><ele>301.0</ele><time>2026-03-28T11:30:06.999Z</time></trkpt><trkpt lat="43.42993580176931" lon="11.41532909994899"><ele>301.0</ele><time>2026-03-28T11:30:07.999Z</time></trkpt><trkpt lat="43.43010551099995" lon="11.415196555603078"><ele>301.0</ele><time>2026-03-28T11:30:08.999Z</time></trkpt><trkpt lat="43.43026255546584" lon="11.415044136495476"><ele>301.0</ele><time>2026-03-28T11:30:09.999Z</time></trkpt><trkpt lat="43.43039228492433" lon="11.414875388779514"><ele>301.66666666666663</ele><time>2026-03-28T11:30:10.999Z</time></trkpt><trkpt lat="43.43050542105487" lon="11.414687632355687"><ele>302.3333333333333</ele><time>2026-03-28T11:30:11.999Z</time></trkpt><trkpt lat="43.43061514650935" lon="11.414514803368569"><ele>303.0</ele><time>2026-03-28T11:30:12.999Z</time></trkpt><trkpt lat="43.43073163853505" lon="11.414376814952488"><ele>303.0</ele><time>2026-03-28T11:30:13.999Z</time></trkpt><trkpt lat="43.43087064248661" lon="11.414285649634133"><ele>303.0</ele><time>2026-03-28T11:30:14.999Z</time></trkpt><trkpt lat="43.431038487063205" lon="11.414262689474901"><ele>303.0</ele><time>2026-03-28T11:30:15.999Z</time></trkpt><trkpt lat="43.431215598612766" lon="11.414179033821863"><ele>306.3333333333333</ele><time>2026-03-28T11:30:16.999Z</time></trkpt><trkpt lat="43.43138031237059" lon="11.414117938289506"><ele>309.66666666666663</ele><time>2026-03-28T11:30:17.999Z</time></trkpt><trkpt lat="43.43152817132018" lon="11.41404767457976"><ele>313.0</ele><time>2026-03-28T11:30:18.999Z</time></trkpt><trkpt lat="43.43165289514008" lon="11.413935629251801"><ele>309.3333333333333</ele><time>2026-03-28T11:30:19.999Z</time></trkpt><trkpt lat="43.43174157648594" lon="11.413767055841852"><ele>305.6666666666667</ele><time>2026-03-28T11:30:20.999Z</time></trkpt><trkpt lat="43.43181034613205" lon="11.413565350144586"><ele>302.0</ele><time>2026-03-28T11:30:21.999Z</time></trkpt><trkpt lat="43.43185986218386" lon="11.41338258519332"><ele>302.0</ele><time>2026-03-28T11:30:22.999Z</time></trkpt><trkpt lat="43.43187607719887" lon="11.413195829865712"><ele>302.0</ele><time>2026-03-28T11:30:23.999Z</time></trkpt><trkpt lat="43.43187171652231" lon="11.413019137191423"><ele>302.0</ele><time>2026-03-28T11:30:24.999Z</time></trkpt><trkpt lat="43.43182440284654" lon="11.41285673292509"><ele>302.0</ele><time>2026-03-28T11:30:25.999Z</time></trkpt><trkpt lat="43.431751544806666" lon="11.4127286552845"><ele>302.5</ele><time>2026-03-28T11:30:26.999Z</time></trkpt><trkpt lat="43.43164398606532" lon="11.412627828210995"><ele>303.0</ele><time>2026-03-28T11:30:27.999Z</time></trkpt><trkpt lat="43.43151912383022" lon="11.412552644642973"><ele>303.5</ele><time>2026-03-28T11:30:28.999Z</time></trkpt><trkpt lat="43.431417781261835" lon="11.412459695097773"><ele>304.0</ele><time>2026-03-28T11:30:29.999Z</time></trkpt><trkpt lat="43.43134695179023" lon="11.41234309785115"><ele>301.0</ele><time>2026-03-28T11:30:30.999Z</time></trkpt><trkpt lat="43.431246817880265" lon="11.41217344346224"><ele>298.0</ele><time>2026-03-28T11:30:31.999Z</time></trkpt><trkpt lat="43.43111995543672" lon="11.412006432979398"><ele>295.0</ele><time>2026-03-28T11:30:32.999Z</time></trkpt><trkpt lat="43.43100053527946" lon="11.411852816307396"><ele>295.0</ele><time>2026-03-28T11:30:33.999Z</time></trkpt><trkpt lat="43.43091694097492" lon="11.411691812658773"><ele>295.0</ele><time>2026-03-28T11:30:34.999Z</time></trkpt><trkpt lat="43.43087596600264" lon="11.411529502663194"><ele>295.0</ele><time>2026-03-28T11:30:35.999Z</time></trkpt><trkpt lat="43.430827547189395" lon="11.411324226676259"><ele>295.0</ele><time>2026-03-28T11:30:36.999Z</time></trkpt><trkpt lat="43.43075951273806" lon="11.411094788289013"><ele>299.0</ele><time>2026-03-28T11:30:37.999Z</time></trkpt><trkpt lat="43.43067145442556" lon="11.410870542261918"><ele>303.0</ele><time>2026-03-28T11:30:38.999Z</time></trkpt><trkpt lat="43.430588445169136" lon="11.410695343330374"><ele>307.0</ele><time>2026-03-28T11:30:39.999Z</time></trkpt><trkpt lat="43.430491586021404" lon="11.410536322364017"><ele>304.66666666666663</ele><time>2026-03-28T11:30:40.999Z</time></trkpt><trkpt lat="43.430387897525314" lon="11.41038765271331"><ele>302.3333333333333</ele><time>2026-03-28T11:30:41.999Z</time></trkpt><trkpt lat="43.43026864444504" lon="11.410256175602106"><ele>300.0</ele><time>2026-03-28T11:30:42.999Z</time></trkpt><trkpt lat="43.430131684836624" lon="11.410148721478933"><ele>300.0</ele><time>2026-03-28T11:30:43.999Z</time></trkpt><trkpt lat="43.42999102001159" lon="11.410074664008322"><ele>300.0</ele><time>2026-03-28T11:30:44.999Z</time></trkpt><trkpt lat="43.429852863698116" lon="11.410002404664803"><ele>300.0</ele><time>2026-03-28T11:30:45.999Z</time></trkpt><trkpt lat="43.42972510894336" lon="11.409930885655807"><ele>300.0</ele><time>2026-03-28T11:30:46.999Z</time></trkpt><trkpt lat="43.42961107137233" lon="11.409844429286146"><ele>299.5</ele><time>2026-03-28T11:30:47.999Z</time></trkpt><trkpt lat="43.429496479102646" lon="11.409732992347164"><ele>299.0</ele><time>2026-03-28T11:30:48.999Z</time></trkpt><trkpt lat="43.42939523684104" lon="11.409607915529175"><ele>298.5</ele><time>2026-03-28T11:30:49.999Z</time></trkpt><trkpt lat="43.429312452414415" lon="11.40947544781398"><ele>298.0</ele><time>2026-03-28T11:30:50.999Z</time></trkpt><trkpt lat="43.42923740494498" lon="11.409336809384534"><ele>298.0</ele><time>2026-03-28T11:30:51.999Z</time></trkpt><trkpt lat="43.42915012179025" lon="11.409202864208329"><ele>298.0</ele><time>2026-03-28T11:30:52.999Z</time></trkpt><trkpt lat="43.42909131926788" lon="11.40904000333194"><ele>298.0</ele><time>2026-03-28T11:30:53.999Z</time></trkpt><trkpt lat="43.429013401553775" lon="11.40889567386491"><ele>298.0</ele><time>2026-03-28T11:30:54.999Z</time></trkpt><trkpt lat="43.428942483975064" lon="11.40875720275718"><ele>297.8</ele><time>2026-03-28T11:30:55.999Z</time></trkpt><trkpt lat="43.428870013634246" lon="11.408632709134652"><ele>297.6</ele><time>2026-03-28T11:30:56.999Z</time></trkpt><trkpt lat="43.42880148110287" lon="11.408536632583527"><ele>297.4</ele><time>2026-03-28T11:30:57.999Z</time></trkpt><trkpt lat="43.42873035100823" lon="11.40846712857499"><ele>297.2</ele><time>2026-03-28T11:30:58.999Z</time></trkpt><trkpt lat="43.428651606721274" lon="11.408404200900497"><ele>297.0</ele><time>2026-03-28T11:30:59.999Z</time></trkpt><trkpt lat="43.428534075012365" lon="11.408366826168884"><ele>297.0</ele><time>2026-03-28T11:31:00.999Z</time></trkpt><trkpt lat="43.42841003018528" lon="11.4083608528067"><ele>297.0</ele><time>2026-03-28T11:31:01.999Z</time></trkpt><trkpt lat="43.4282875824248" lon="11.408387766137789"><ele>297.0</ele><time>2026-03-28T11:31:02.999Z</time></trkpt><trkpt lat="43.4281745595034" lon="11.408390488474364"><ele>297.0</ele><time>2026-03-28T11:31:03.999Z</time></trkpt><trkpt lat="43.42806782796867" lon="11.408385193027106"><ele>295.0</ele><time>2026-03-28T11:31:04.999Z</time></trkpt><trkpt lat="43.427956391194115" lon="11.408337057550922"><ele>293.0</ele><time>2026-03-28T11:31:05.999Z</time></trkpt><trkpt lat="43.42784446927409" lon="11.40829230377039"><ele>291.0</ele><time>2026-03-28T11:31:06.999Z</time></trkpt><trkpt lat="43.42774136750834" lon="11.408236803062108"><ele>289.0</ele><time>2026-03-28T11:31:07.999Z</time></trkpt><trkpt lat="43.42762230661362" lon="11.408146917545938"><ele>289.0</ele><time>2026-03-28T11:31:08.999Z</time></trkpt><trkpt lat="43.42750596790037" lon="11.408027068614185"><ele>289.0</ele><time>2026-03-28T11:31:09.999Z</time></trkpt><trkpt lat="43.427381099983855" lon="11.407876623810955"><ele>289.0</ele><time>2026-03-28T11:31:10.999Z</time></trkpt><trkpt lat="43.4272624121404" lon="11.40774475537859"><ele>288.5</ele><time>2026-03-28T11:31:11.999Z</time></trkpt><trkpt lat="43.42715701265928" lon="11.407623461274733"><ele>288.0</ele><time>2026-03-28T11:31:12.999Z</time></trkpt><trkpt lat="43.42704392468498" lon="11.407532066963313"><ele>287.5</ele><time>2026-03-28T11:31:13.999Z</time></trkpt><trkpt lat="43.4269371317148" lon="11.407448750303743"><ele>287.0</ele><time>2026-03-28T11:31:14.999Z</time></trkpt><trkpt lat="43.42684134445607" lon="11.40736457325826"><ele>287.0</ele><time>2026-03-28T11:31:15.999Z</time></trkpt><trkpt lat="43.426764197364726" lon="11.40727075857882"><ele>287.0</ele><time>2026-03-28T11:31:16.999Z</time></trkpt><trkpt lat="43.4267112606511" lon="11.407154300882821"><ele>287.0</ele><time>2026-03-28T11:31:17.999Z</time></trkpt><trkpt lat="43.4266891975796" lon="11.407017517171639"><ele>287.0</ele><time>2026-03-28T11:31:18.999Z</time></trkpt><trkpt lat="43.426698455533646" lon="11.40685035932584"><ele>287.0</ele><time>2026-03-28T11:31:19.999Z</time></trkpt><trkpt lat="43.42671978397551" lon="11.40666614460682"><ele>287.0</ele><time>2026-03-28T11:31:20.999Z</time></trkpt><trkpt lat="43.42673653723141" lon="11.406484211666326"><ele>287.0</ele><time>2026-03-28T11:31:21.999Z</time></trkpt><trkpt lat="43.4267509652351" lon="11.406296996258213"><ele>287.0</ele><time>2026-03-28T11:31:22.999Z</time></trkpt><trkpt lat="43.42676010278537" lon="11.406109120817955"><ele>287.0</ele><time>2026-03-28T11:31:23.999Z</time></trkpt><trkpt lat="43.42675982551362" lon="11.405931157785044"><ele>287.5</ele><time>2026-03-28T11:31:24.999Z</time></trkpt><trkpt lat="43.42675425999686" lon="11.405760648140445"><ele>288.0</ele><time>2026-03-28T11:31:25.999Z</time></trkpt><trkpt lat="43.42673096728411" lon="11.40558959401797"><ele>288.5</ele><time>2026-03-28T11:31:26.999Z</time></trkpt><trkpt lat="43.4266864790513" lon="11.405429201648595"><ele>289.0</ele><time>2026-03-28T11:31:27.999Z</time></trkpt><trkpt lat="43.42662158494618" lon="11.405280969268722"><ele>291.5</ele><time>2026-03-28T11:31:28.999Z</time></trkpt><trkpt lat="43.42655273815414" lon="11.405136699403153"><ele>294.0</ele><time>2026-03-28T11:31:29.999Z</time></trkpt><trkpt lat="43.426491678215704" lon="11.405000274727945"><ele>296.5</ele><time>2026-03-28T11:31:30.999Z</time></trkpt><trkpt lat="43.42641875854173" lon="11.404871401413768"><ele>299.0</ele><time>2026-03-28T11:31:31.998Z</time></trkpt><trkpt lat="43.42631355946527" lon="11.404776284089861"><ele>298.33333333333337</ele><time>2026-03-28T11:31:32.998Z</time></trkpt><trkpt lat="43.42616450966596" lon="11.40470372835396"><ele>297.6666666666667</ele><time>2026-03-28T11:31:33.998Z</time></trkpt><trkpt lat="43.42600353366222" lon="11.40461111662695"><ele>297.0</ele><time>2026-03-28T11:31:34.998Z</time></trkpt><trkpt lat="43.42585723068396" lon="11.404545380833953"><ele>297.0</ele><time>2026-03-28T11:31:35.998Z</time></trkpt><trkpt lat="43.42571522444261" lon="11.404479833341224"><ele>297.0</ele><time>2026-03-28T11:31:36.998Z</time></trkpt><trkpt lat="43.425577264610226" lon="11.40441930706685"><ele>297.0</ele><time>2026-03-28T11:31:37.998Z</time></trkpt><trkpt lat="43.425445479962136" lon="11.404352107186632"><ele>297.0</ele><time>2026-03-28T11:31:38.998Z</time></trkpt><trkpt lat="43.42533307286669" lon="11.404265793597988"><ele>294.25</ele><time>2026-03-28T11:31:39.998Z</time></trkpt><trkpt lat="43.425232712583515" lon="11.404171983188274"><ele>291.5</ele><time>2026-03-28T11:31:40.998Z</time></trkpt><trkpt lat="43.4251092319164" lon="11.40410738923402"><ele>288.75</ele><time>2026-03-28T11:31:41.998Z</time></trkpt><trkpt lat="43.42497526680481" lon="11.404071112828532"><ele>286.0</ele><time>2026-03-28T11:31:42.998Z</time></trkpt><trkpt lat="43.4248423060542" lon="11.404076873189293"><ele>286.0</ele><time>2026-03-28T11:31:43.998Z</time></trkpt><trkpt lat="43.42472310605098" lon="11.404102960685748"><ele>286.0</ele><time>2026-03-28T11:31:44.998Z</time></trkpt><trkpt lat="43.424619478201095" lon="11.404099582287108"><ele>286.0</ele><time>2026-03-28T11:31:45.998Z</time></trkpt><trkpt lat="43.42451842748208" lon="11.404112753500584"><ele>286.0</ele><time>2026-03-28T11:31:46.998Z</time></trkpt><trkpt lat="43.42442001702766" lon="11.404125258440091"><ele>286.0</ele><time>2026-03-28T11:31:47.998Z</time></trkpt><trkpt lat="43.424312538382715" lon="11.404138476111296"><ele>285.5</ele><time>2026-03-28T11:31:48.998Z</time></trkpt><trkpt lat="43.42421142676428" lon="11.404141317716183"><ele>285.0</ele><time>2026-03-28T11:31:49.998Z</time></trkpt><trkpt lat="43.42414192106271" lon="11.404138021329185"><ele>284.5</ele><time>2026-03-28T11:31:50.998Z</time></trkpt><trkpt lat="43.42398343661476" lon="11.404107668558302"><ele>284.0</ele><time>2026-03-28T11:31:52.998Z</time></trkpt><trkpt lat="43.42385560379443" lon="11.404076294901845"><ele>286.0</ele><time>2026-03-28T11:31:53.998Z</time></trkpt><trkpt lat="43.423701505494144" lon="11.40403847514341"><ele>288.0</ele><time>2026-03-28T11:31:54.998Z</time></trkpt><trkpt lat="43.423565784776194" lon="11.40400516572732"><ele>290.0</ele><time>2026-03-28T11:31:55.998Z</time></trkpt><trkpt lat="43.42337916651042" lon="11.404207853022754"><ele>290.0</ele><time>2026-03-28T11:31:56.998Z</time></trkpt><trkpt lat="43.42322074582039" lon="11.404331250579691"><ele>290.0</ele><time>2026-03-28T11:31:57.998Z</time></trkpt><trkpt lat="43.423104993226936" lon="11.404514155836225"><ele>290.0</ele><time>2026-03-28T11:31:58.998Z</time></trkpt><trkpt lat="43.4230430536777" lon="11.404718493586454"><ele>289.0</ele><time>2026-03-28T11:31:59.998Z</time></trkpt><trkpt lat="43.42297888960214" lon="11.404860977251888"><ele>288.0</ele><time>2026-03-28T11:32:00.998Z</time></trkpt><trkpt lat="43.42290488184358" lon="11.404962911405182"><ele>287.0</ele><time>2026-03-28T11:32:01.998Z</time></trkpt><trkpt lat="43.42281369226952" lon="11.405016031287998"><ele>286.0</ele><time>2026-03-28T11:32:02.998Z</time></trkpt><trkpt lat="43.42267320024925" lon="11.405008335495964"><ele>286.0</ele><time>2026-03-28T11:32:03.998Z</time></trkpt><trkpt lat="43.42254117304071" lon="11.404959169152805"><ele>286.0</ele><time>2026-03-28T11:32:04.998Z</time></trkpt><trkpt lat="43.422388619093624" lon="11.404894059057273"><ele>286.0</ele><time>2026-03-28T11:32:05.998Z</time></trkpt><trkpt lat="43.42221366051397" lon="11.40479278398441"><ele>286.66666666666663</ele><time>2026-03-28T11:32:06.998Z</time></trkpt><trkpt lat="43.42206234465491" lon="11.404652274711145"><ele>287.3333333333333</ele><time>2026-03-28T11:32:07.998Z</time></trkpt><trkpt lat="43.42192683713532" lon="11.404460616680995"><ele>288.0</ele><time>2026-03-28T11:32:08.998Z</time></trkpt><trkpt lat="43.42179133946362" lon="11.404258189559588"><ele>288.0</ele><time>2026-03-28T11:32:09.998Z</time></trkpt><trkpt lat="43.42165640201005" lon="11.404080895616378"><ele>288.0</ele><time>2026-03-28T11:32:10.998Z</time></trkpt><trkpt lat="43.42152384696005" lon="11.403901824111173"><ele>288.0</ele><time>2026-03-28T11:32:11.998Z</time></trkpt><trkpt lat="43.42137241032935" lon="11.403730478609846"><ele>287.3333333333333</ele><time>2026-03-28T11:32:12.998Z</time></trkpt><trkpt lat="43.42122415301919" lon="11.403559079677715"><ele>286.66666666666663</ele><time>2026-03-28T11:32:13.998Z</time></trkpt><trkpt lat="43.42107328318698" lon="11.403387524855413"><ele>286.0</ele><time>2026-03-28T11:32:14.998Z</time></trkpt><trkpt lat="43.42092900792265" lon="11.403226033207499"><ele>286.0</ele><time>2026-03-28T11:32:15.998Z</time></trkpt><trkpt lat="43.42080114872386" lon="11.403051899050078"><ele>286.0</ele><time>2026-03-28T11:32:16.998Z</time></trkpt><trkpt lat="43.420648003173" lon="11.40290618756452"><ele>286.0</ele><time>2026-03-28T11:32:17.998Z</time></trkpt><trkpt lat="43.420476658619414" lon="11.402789995500992"><ele>285.0</ele><time>2026-03-28T11:32:18.998Z</time></trkpt><trkpt lat="43.42030691191554" lon="11.402698692035322"><ele>284.0</ele><time>2026-03-28T11:32:19.998Z</time></trkpt><trkpt lat="43.4201455172792" lon="11.402598498513514"><ele>283.0</ele><time>2026-03-28T11:32:20.998Z</time></trkpt><trkpt lat="43.419995237678314" lon="11.402486425594429"><ele>283.0</ele><time>2026-03-28T11:32:21.998Z</time></trkpt><trkpt lat="43.41986123317923" lon="11.402361744449253"><ele>283.0</ele><time>2026-03-28T11:32:22.998Z</time></trkpt><trkpt lat="43.41973493731531" lon="11.402210543875775"><ele>283.0</ele><time>2026-03-28T11:32:23.998Z</time></trkpt><trkpt lat="43.41963855324872" lon="11.402019460386436"><ele>280.66666666666663</ele><time>2026-03-28T11:32:24.998Z</time></trkpt><trkpt lat="43.4195440118443" lon="11.401779850403548"><ele>278.3333333333333</ele><time>2026-03-28T11:32:25.998Z</time></trkpt><trkpt lat="43.419440944282115" lon="11.40151374792655"><ele>276.0</ele><time>2026-03-28T11:32:26.998Z</time></trkpt><trkpt lat="43.419349713353995" lon="11.401235121789687"><ele>276.0</ele><time>2026-03-28T11:32:27.998Z</time></trkpt><trkpt lat="43.41925581484317" lon="11.400983477644465"><ele>276.0</ele><time>2026-03-28T11:32:28.998Z</time></trkpt><trkpt lat="43.41914996064729" lon="11.400749235291425"><ele>276.0</ele><time>2026-03-28T11:32:29.998Z</time></trkpt><trkpt lat="43.419034051316906" lon="11.40053212467941"><ele>275.3333333333333</ele><time>2026-03-28T11:32:30.998Z</time></trkpt><trkpt lat="43.41890937539187" lon="11.400330980772605"><ele>274.66666666666663</ele><time>2026-03-28T11:32:31.998Z</time></trkpt><trkpt lat="43.41877669829476" lon="11.40015175716294"><ele>274.0</ele><time>2026-03-28T11:32:32.998Z</time></trkpt><trkpt lat="43.41863667377477" lon="11.399985794839598"><ele>274.0</ele><time>2026-03-28T11:32:33.998Z</time></trkpt><trkpt lat="43.41849179125707" lon="11.399831967229014"><ele>274.0</ele><time>2026-03-28T11:32:34.998Z</time></trkpt><trkpt lat="43.418358036582376" lon="11.399643627197179"><ele>274.0</ele><time>2026-03-28T11:32:35.998Z</time></trkpt><trkpt lat="43.418213943112235" lon="11.399484940457944"><ele>274.0</ele><time>2026-03-28T11:32:36.998Z</time></trkpt><trkpt lat="43.4180967121783" lon="11.399317475073357"><ele>274.0</ele><time>2026-03-28T11:32:37.998Z</time></trkpt><trkpt lat="43.417992754129905" lon="11.399128767451755"><ele>274.0</ele><time>2026-03-28T11:32:38.998Z</time></trkpt><trkpt lat="43.4178988584089" lon="11.39893401835495"><ele>281.0</ele><time>2026-03-28T11:32:39.998Z</time></trkpt><trkpt lat="43.417796645617265" lon="11.398779951938337"><ele>288.0</ele><time>2026-03-28T11:32:40.998Z</time></trkpt><trkpt lat="43.41764487840509" lon="11.398663653012452"><ele>295.0</ele><time>2026-03-28T11:32:41.998Z</time></trkpt><trkpt lat="43.41747784591026" lon="11.398546844718345"><ele>295.0</ele><time>2026-03-28T11:32:42.998Z</time></trkpt><trkpt lat="43.41732049294753" lon="11.39845485922076"><ele>295.0</ele><time>2026-03-28T11:32:43.998Z</time></trkpt><trkpt lat="43.41715144257606" lon="11.398387055120633"><ele>295.0</ele><time>2026-03-28T11:32:44.998Z</time></trkpt><trkpt lat="43.41696578996537" lon="11.398364602676661"><ele>292.66666666666663</ele><time>2026-03-28T11:32:45.998Z</time></trkpt><trkpt lat="43.41677421693676" lon="11.398392740056238"><ele>290.3333333333333</ele><time>2026-03-28T11:32:46.998Z</time></trkpt><trkpt lat="43.416576578174016" lon="11.398462325031682"><ele>288.0</ele><time>2026-03-28T11:32:47.998Z</time></trkpt><trkpt lat="43.41637310012613" lon="11.398540405709948"><ele>290.3333333333333</ele><time>2026-03-28T11:32:48.998Z</time></trkpt><trkpt lat="43.4161583111428" lon="11.398629585267752"><ele>292.66666666666663</ele><time>2026-03-28T11:32:49.998Z</time></trkpt><trkpt lat="43.41594977956609" lon="11.398721979610482"><ele>295.0</ele><time>2026-03-28T11:32:50.998Z</time></trkpt><trkpt lat="43.415756564742885" lon="11.398814456788731"><ele>288.0</ele><time>2026-03-28T11:32:51.998Z</time></trkpt><trkpt lat="43.4155623424091" lon="11.398909468360477"><ele>281.0</ele><time>2026-03-28T11:32:52.998Z</time></trkpt><trkpt lat="43.41536782171732" lon="11.399004698408943"><ele>274.0</ele><time>2026-03-28T11:32:53.998Z</time></trkpt><trkpt lat="43.41518562799858" lon="11.399088452409146"><ele>274.0</ele><time>2026-03-28T11:32:54.998Z</time></trkpt><trkpt lat="43.41501372422403" lon="11.39914458206099"><ele>274.0</ele><time>2026-03-28T11:32:55.998Z</time></trkpt><trkpt lat="43.414823937476115" lon="11.399166749352139"><ele>274.0</ele><time>2026-03-28T11:32:56.998Z</time></trkpt><trkpt lat="43.41461536858722" lon="11.399159434240042"><ele>272.66666666666663</ele><time>2026-03-28T11:32:57.998Z</time></trkpt><trkpt lat="43.41439627129085" lon="11.399129946592963"><ele>271.3333333333333</ele><time>2026-03-28T11:32:58.998Z</time></trkpt><trkpt lat="43.41417473415916" lon="11.399100995100243"><ele>270.0</ele><time>2026-03-28T11:32:59.998Z</time></trkpt><trkpt lat="43.413943499800034" lon="11.399091692304566"><ele>269.3333333333333</ele><time>2026-03-28T11:33:00.998Z</time></trkpt><trkpt lat="43.41371731998712" lon="11.399056523267477"><ele>268.66666666666663</ele><time>2026-03-28T11:33:01.998Z</time></trkpt><trkpt lat="43.41349835546569" lon="11.399030734633179"><ele>268.0</ele><time>2026-03-28T11:33:02.998Z</time></trkpt><trkpt lat="43.41328564110589" lon="11.399001441229599"><ele>268.0</ele><time>2026-03-28T11:33:03.998Z</time></trkpt><trkpt lat="43.413076323577926" lon="11.398973103995178"><ele>268.0</ele><time>2026-03-28T11:33:04.998Z</time></trkpt><trkpt lat="43.41288297852608" lon="11.398943354030973"><ele>268.0</ele><time>2026-03-28T11:33:05.998Z</time></trkpt><trkpt lat="43.41270293221512" lon="11.398918634626941"><ele>267.66666666666663</ele><time>2026-03-28T11:33:06.998Z</time></trkpt><trkpt lat="43.412523591970555" lon="11.398905128050385"><ele>267.3333333333333</ele><time>2026-03-28T11:33:07.998Z</time></trkpt><trkpt lat="43.41233650752929" lon="11.39892072440394"><ele>267.0</ele><time>2026-03-28T11:33:08.998Z</time></trkpt><trkpt lat="43.41215393665794" lon="11.398996048289797"><ele>267.0</ele><time>2026-03-28T11:33:09.998Z</time></trkpt><trkpt lat="43.411980102403525" lon="11.399112221722312"><ele>267.0</ele><time>2026-03-28T11:33:10.998Z</time></trkpt><trkpt lat="43.411809962033516" lon="11.399268335511874"><ele>267.0</ele><time>2026-03-28T11:33:11.998Z</time></trkpt><trkpt lat="43.411650213644684" lon="11.39945719812599"><ele>266.6666666666667</ele><time>2026-03-28T11:33:12.998Z</time></trkpt><trkpt lat="43.41149997755993" lon="11.399671439077885"><ele>266.33333333333337</ele><time>2026-03-28T11:33:13.998Z</time></trkpt><trkpt lat="43.41134730098936" lon="11.399898819713455"><ele>266.0</ele><time>2026-03-28T11:33:14.998Z</time></trkpt><trkpt lat="43.41119098165844" lon="11.400118242331978"><ele>266.0</ele><time>2026-03-28T11:33:15.998Z</time></trkpt><trkpt lat="43.41103782887409" lon="11.400330662082641"><ele>266.0</ele><time>2026-03-28T11:33:16.998Z</time></trkpt><trkpt lat="43.410891123081626" lon="11.400542263579508"><ele>266.0</ele><time>2026-03-28T11:33:17.998Z</time></trkpt><trkpt lat="43.41075482043807" lon="11.400746885666324"><ele>266.33333333333337</ele><time>2026-03-28T11:33:18.998Z</time></trkpt><trkpt lat="43.41061414765214" lon="11.400953559187629"><ele>266.6666666666667</ele><time>2026-03-28T11:33:19.998Z</time></trkpt><trkpt lat="43.41046978241972" lon="11.401162791758116"><ele>267.0</ele><time>2026-03-28T11:33:20.998Z</time></trkpt><trkpt lat="43.410322422803894" lon="11.401377419310622"><ele>267.0</ele><time>2026-03-28T11:33:21.998Z</time></trkpt><trkpt lat="43.41017749907534" lon="11.401588833390749"><ele>267.0</ele><time>2026-03-28T11:33:22.998Z</time></trkpt><trkpt lat="43.41002598734762" lon="11.401790517407493"><ele>267.0</ele><time>2026-03-28T11:33:23.998Z</time></trkpt><trkpt lat="43.409883616599004" lon="11.401997338111553"><ele>266.6666666666667</ele><time>2026-03-28T11:33:24.998Z</time></trkpt><trkpt lat="43.40974459036509" lon="11.402202356505464"><ele>266.33333333333337</ele><time>2026-03-28T11:33:25.998Z</time></trkpt><trkpt lat="43.409603676194415" lon="11.402397354192324"><ele>266.0</ele><time>2026-03-28T11:33:26.998Z</time></trkpt><trkpt lat="43.409458880260026" lon="11.402594843296495"><ele>266.0</ele><time>2026-03-28T11:33:27.998Z</time></trkpt><trkpt lat="43.40931782915354" lon="11.402789129764589"><ele>266.0</ele><time>2026-03-28T11:33:28.998Z</time></trkpt><trkpt lat="43.40917633862517" lon="11.402984093806236"><ele>266.0</ele><time>2026-03-28T11:33:29.998Z</time></trkpt><trkpt lat="43.409047294481645" lon="11.403183054881131"><ele>265.6666666666667</ele><time>2026-03-28T11:33:30.998Z</time></trkpt><trkpt lat="43.40891188443993" lon="11.403382338752934"><ele>265.3333333333333</ele><time>2026-03-28T11:33:31.998Z</time></trkpt><trkpt lat="43.408798542489464" lon="11.403565353389245"><ele>265.0</ele><time>2026-03-28T11:33:32.998Z</time></trkpt><trkpt lat="43.40868762387045" lon="11.403711845891246"><ele>265.0</ele><time>2026-03-28T11:33:33.998Z</time></trkpt><trkpt lat="43.40857847021375" lon="11.40380744652751"><ele>265.0</ele><time>2026-03-28T11:33:34.998Z</time></trkpt><trkpt lat="43.40844727212255" lon="11.403852440924263"><ele>265.0</ele><time>2026-03-28T11:33:35.998Z</time></trkpt><trkpt lat="43.40827745390667" lon="11.403876664911175"><ele>265.0</ele><time>2026-03-28T11:33:36.998Z</time></trkpt><trkpt lat="43.408107518050066" lon="11.403879014603065"><ele>269.66666666666663</ele><time>2026-03-28T11:33:37.998Z</time></trkpt><trkpt lat="43.407901179267306" lon="11.40390716884367"><ele>274.3333333333333</ele><time>2026-03-28T11:33:38.998Z</time></trkpt><trkpt lat="43.407704850125285" lon="11.403969415250081"><ele>279.0</ele><time>2026-03-28T11:33:39.998Z</time></trkpt><trkpt lat="43.40750651966304" lon="11.404031103086199"><ele>279.0</ele><time>2026-03-28T11:33:40.998Z</time></trkpt><trkpt lat="43.407302659660324" lon="11.404120895320128"><ele>279.0</ele><time>2026-03-28T11:33:41.998Z</time></trkpt><trkpt lat="43.407092042412096" lon="11.404215055219142"><ele>279.0</ele><time>2026-03-28T11:33:42.998Z</time></trkpt><trkpt lat="43.406893928766" lon="11.404317138455419"><ele>275.3333333333333</ele><time>2026-03-28T11:33:43.998Z</time></trkpt><trkpt lat="43.40669888594119" lon="11.404414238750205"><ele>271.66666666666663</ele><time>2026-03-28T11:33:44.998Z</time></trkpt><trkpt lat="43.40652158484053" lon="11.404534815303144"><ele>268.0</ele><time>2026-03-28T11:33:45.998Z</time></trkpt><trkpt lat="43.406336329173854" lon="11.404631971618285"><ele>270.0</ele><time>2026-03-28T11:33:46.998Z</time></trkpt><trkpt lat="43.40614882473101" lon="11.404703679485289"><ele>272.0</ele><time>2026-03-28T11:33:47.998Z</time></trkpt><trkpt lat="43.40596214733191" lon="11.404769681798545"><ele>274.0</ele><time>2026-03-28T11:33:48.998Z</time></trkpt><trkpt lat="43.405772020306486" lon="11.404822965315534"><ele>274.0</ele><time>2026-03-28T11:33:49.998Z</time></trkpt><trkpt lat="43.405584000193564" lon="11.40485737605452"><ele>274.0</ele><time>2026-03-28T11:33:50.998Z</time></trkpt><trkpt lat="43.40539774403875" lon="11.404871814875376"><ele>274.0</ele><time>2026-03-28T11:33:51.998Z</time></trkpt><trkpt lat="43.40522456673275" lon="11.404868137088009"><ele>273.0</ele><time>2026-03-28T11:33:52.998Z</time></trkpt><trkpt lat="43.4050635346957" lon="11.404846391333972"><ele>272.0</ele><time>2026-03-28T11:33:53.998Z</time></trkpt><trkpt lat="43.40491550800863" lon="11.404825799109963"><ele>271.0</ele><time>2026-03-28T11:33:54.998Z</time></trkpt><trkpt lat="43.40476714751947" lon="11.404838544460551"><ele>269.3333333333333</ele><time>2026-03-28T11:33:55.998Z</time></trkpt><trkpt lat="43.40461934880383" lon="11.404912580169835"><ele>267.6666666666667</ele><time>2026-03-28T11:33:56.998Z</time></trkpt><trkpt lat="43.40446999381805" lon="11.405018911171403"><ele>266.0</ele><time>2026-03-28T11:33:57.998Z</time></trkpt><trkpt lat="43.40432446378768" lon="11.405146934448059"><ele>266.0</ele><time>2026-03-28T11:33:58.998Z</time></trkpt><trkpt lat="43.40415019244048" lon="11.405241071170549"><ele>266.0</ele><time>2026-03-28T11:33:59.998Z</time></trkpt><trkpt lat="43.40396383642607" lon="11.40532016186375"><ele>266.0</ele><time>2026-03-28T11:34:00.998Z</time></trkpt><trkpt lat="43.4037613924744" lon="11.405400882198185"><ele>263.6666666666667</ele><time>2026-03-28T11:34:01.998Z</time></trkpt><trkpt lat="43.40357031341939" lon="11.405486409985336"><ele>261.3333333333333</ele><time>2026-03-28T11:34:02.998Z</time></trkpt><trkpt lat="43.40339176704093" lon="11.40556416250906"><ele>259.0</ele><time>2026-03-28T11:34:03.998Z</time></trkpt><trkpt lat="43.40321380844174" lon="11.405633716219452"><ele>260.66666666666663</ele><time>2026-03-28T11:34:04.998Z</time></trkpt><trkpt lat="43.40304391829037" lon="11.40570166868656"><ele>262.3333333333333</ele><time>2026-03-28T11:34:05.998Z</time></trkpt><trkpt lat="43.40288486527419" lon="11.405777318478043"><ele>264.0</ele><time>2026-03-28T11:34:06.998Z</time></trkpt><trkpt lat="43.402739637112866" lon="11.405895541561692"><ele>264.0</ele><time>2026-03-28T11:34:07.998Z</time></trkpt><trkpt lat="43.40258659206056" lon="11.406045132694473"><ele>264.0</ele><time>2026-03-28T11:34:08.998Z</time></trkpt><trkpt lat="43.40244334777587" lon="11.406170990505943"><ele>264.0</ele><time>2026-03-28T11:34:09.998Z</time></trkpt><trkpt lat="43.40229637079149" lon="11.406225219207279"><ele>263.0</ele><time>2026-03-28T11:34:10.998Z</time></trkpt><trkpt lat="43.40215728330485" lon="11.406241009192673"><ele>262.0</ele><time>2026-03-28T11:34:11.998Z</time></trkpt><trkpt lat="43.40201337043665" lon="11.40617898692075"><ele>261.0</ele><time>2026-03-28T11:34:12.998Z</time></trkpt><trkpt lat="43.40186512649837" lon="11.406073364631125"><ele>261.0</ele><time>2026-03-28T11:34:13.998Z</time></trkpt><trkpt lat="43.401678515782294" lon="11.405952631530212"><ele>261.0</ele><time>2026-03-28T11:34:14.998Z</time></trkpt><trkpt lat="43.40149614440204" lon="11.405815837984555"><ele>261.0</ele><time>2026-03-28T11:34:15.998Z</time></trkpt><trkpt lat="43.4013323554057" lon="11.405690186763449"><ele>261.3333333333333</ele><time>2026-03-28T11:34:16.998Z</time></trkpt><trkpt lat="43.40117267170709" lon="11.405571159524841"><ele>261.66666666666663</ele><time>2026-03-28T11:34:17.998Z</time></trkpt><trkpt lat="43.40100798099809" lon="11.405459996934377"><ele>262.0</ele><time>2026-03-28T11:34:18.998Z</time></trkpt><trkpt lat="43.40084581098361" lon="11.40534105263948"><ele>262.0</ele><time>2026-03-28T11:34:19.998Z</time></trkpt><trkpt lat="43.40068027270338" lon="11.405218322771256"><ele>262.0</ele><time>2026-03-28T11:34:20.998Z</time></trkpt><trkpt lat="43.40051337955438" lon="11.40509849826905"><ele>262.0</ele><time>2026-03-28T11:34:21.998Z</time></trkpt><trkpt lat="43.40035470430714" lon="11.40498244188412"><ele>262.3333333333333</ele><time>2026-03-28T11:34:22.998Z</time></trkpt><trkpt lat="43.40020448509585" lon="11.404853608763807"><ele>262.6666666666667</ele><time>2026-03-28T11:34:23.998Z</time></trkpt><trkpt lat="43.40006776333407" lon="11.404691205107003"><ele>263.0</ele><time>2026-03-28T11:34:24.998Z</time></trkpt><trkpt lat="43.39994746841045" lon="11.404501779457648"><ele>263.0</ele><time>2026-03-28T11:34:25.998Z</time></trkpt><trkpt lat="43.39983590523079" lon="11.40430085676196"><ele>263.0</ele><time>2026-03-28T11:34:26.998Z</time></trkpt><trkpt lat="43.39973758232073" lon="11.404107552338017"><ele>263.0</ele><time>2026-03-28T11:34:27.998Z</time></trkpt><trkpt lat="43.39964498932312" lon="11.403926336597756"><ele>263.33333333333337</ele><time>2026-03-28T11:34:28.998Z</time></trkpt><trkpt lat="43.39954979311716" lon="11.403770086784856"><ele>263.6666666666667</ele><time>2026-03-28T11:34:29.998Z</time></trkpt><trkpt lat="43.399442708126585" lon="11.40363209230481"><ele>264.0</ele><time>2026-03-28T11:34:30.998Z</time></trkpt><trkpt lat="43.39931005336211" lon="11.403511524097777"><ele>264.0</ele><time>2026-03-28T11:34:31.998Z</time></trkpt><trkpt lat="43.39915757379481" lon="11.403415552665692"><ele>264.0</ele><time>2026-03-28T11:34:32.998Z</time></trkpt><trkpt lat="43.398989482566044" lon="11.403328678033837"><ele>264.0</ele><time>2026-03-28T11:34:33.998Z</time></trkpt><trkpt lat="43.39880734555828" lon="11.403253939999967"><ele>264.0</ele><time>2026-03-28T11:34:34.998Z</time></trkpt><trkpt lat="43.398635380433376" lon="11.403182659683164"><ele>264.0</ele><time>2026-03-28T11:34:35.998Z</time></trkpt><trkpt lat="43.39848032933566" lon="11.403126826584566"><ele>264.0</ele><time>2026-03-28T11:34:36.998Z</time></trkpt><trkpt lat="43.398335865891" lon="11.403105706861487"><ele>264.0</ele><time>2026-03-28T11:34:37.998Z</time></trkpt><trkpt lat="43.39818084162632" lon="11.403130469497906"><ele>264.0</ele><time>2026-03-28T11:34:38.998Z</time></trkpt><trkpt lat="43.398026398360855" lon="11.40321468217484"><ele>264.0</ele><time>2026-03-28T11:34:39.998Z</time></trkpt><trkpt lat="43.3978777187849" lon="11.40336896133834"><ele>264.0</ele><time>2026-03-28T11:34:40.998Z</time></trkpt><trkpt lat="43.397727634484305" lon="11.40353847806127"><ele>264.0</ele><time>2026-03-28T11:34:41.998Z</time></trkpt><trkpt lat="43.397572310224675" lon="11.403725691905116"><ele>264.0</ele><time>2026-03-28T11:34:42.998Z</time></trkpt><trkpt lat="43.39740147870958" lon="11.403918736825263"><ele>264.0</ele><time>2026-03-28T11:34:43.998Z</time></trkpt><trkpt lat="43.397227282190784" lon="11.404123103555621"><ele>264.0</ele><time>2026-03-28T11:34:44.998Z</time></trkpt><trkpt lat="43.397053381189274" lon="11.4043492518803"><ele>264.5</ele><time>2026-03-28T11:34:45.998Z</time></trkpt><trkpt lat="43.39687517532253" lon="11.404588776892124"><ele>265.0</ele><time>2026-03-28T11:34:46.998Z</time></trkpt><trkpt lat="43.39669200786523" lon="11.404824626091077"><ele>265.0</ele><time>2026-03-28T11:34:47.998Z</time></trkpt><trkpt lat="43.396501960691616" lon="11.405048392517424"><ele>265.0</ele><time>2026-03-28T11:34:48.998Z</time></trkpt><trkpt lat="43.39631132081131" lon="11.405253932403747"><ele>262.5</ele><time>2026-03-28T11:34:49.998Z</time></trkpt><trkpt lat="43.396127012803746" lon="11.405457682614804"><ele>260.0</ele><time>2026-03-28T11:34:50.998Z</time></trkpt><trkpt lat="43.39594710052543" lon="11.405660716861432"><ele>260.0</ele><time>2026-03-28T11:34:51.998Z</time></trkpt><trkpt lat="43.39576306105001" lon="11.405866063108295"><ele>260.0</ele><time>2026-03-28T11:34:52.998Z</time></trkpt><trkpt lat="43.395579841438895" lon="11.406066627771756"><ele>258.5</ele><time>2026-03-28T11:34:53.998Z</time></trkpt><trkpt lat="43.39539978370569" lon="11.406263223341957"><ele>257.0</ele><time>2026-03-28T11:34:54.998Z</time></trkpt><trkpt lat="43.39523499995116" lon="11.40647732317988"><ele>257.0</ele><time>2026-03-28T11:34:55.998Z</time></trkpt><trkpt lat="43.39508999809157" lon="11.406693992745076"><ele>257.0</ele><time>2026-03-28T11:34:56.998Z</time></trkpt><trkpt lat="43.3949543692446" lon="11.406906567511207"><ele>257.0</ele><time>2026-03-28T11:34:57.998Z</time></trkpt><trkpt lat="43.394816931115706" lon="11.407131300384538"><ele>258.5</ele><time>2026-03-28T11:34:58.998Z</time></trkpt><trkpt lat="43.394693879514556" lon="11.407395597530204"><ele>260.0</ele><time>2026-03-28T11:34:59.998Z</time></trkpt><trkpt lat="43.39457822622297" lon="11.407670613084916"><ele>258.33333333333337</ele><time>2026-03-28T11:35:00.998Z</time></trkpt><trkpt lat="43.39446843919089" lon="11.407935652480123"><ele>256.6666666666667</ele><time>2026-03-28T11:35:01.998Z</time></trkpt><trkpt lat="43.39435530883832" lon="11.408201679153986"><ele>255.0</ele><time>2026-03-28T11:35:02.998Z</time></trkpt><trkpt lat="43.39423788375671" lon="11.408454952416527"><ele>255.0</ele><time>2026-03-28T11:35:03.998Z</time></trkpt><trkpt lat="43.39412502453854" lon="11.408702214261213"><ele>255.0</ele><time>2026-03-28T11:35:04.998Z</time></trkpt><trkpt lat="43.39400889711702" lon="11.408951891471647"><ele>255.0</ele><time>2026-03-28T11:35:05.998Z</time></trkpt><trkpt lat="43.393904979913046" lon="11.409213809999878"><ele>253.0</ele><time>2026-03-28T11:35:06.998Z</time></trkpt><trkpt lat="43.39381344150125" lon="11.409493280957921"><ele>251.0</ele><time>2026-03-28T11:35:07.998Z</time></trkpt><trkpt lat="43.39373344375006" lon="11.409792660524257"><ele>251.0</ele><time>2026-03-28T11:35:08.998Z</time></trkpt><trkpt lat="43.39367111945709" lon="11.41007624949853"><ele>251.0</ele><time>2026-03-28T11:35:09.998Z</time></trkpt><trkpt lat="43.39362051061503" lon="11.410326224715712"><ele>251.0</ele><time>2026-03-28T11:35:10.998Z</time></trkpt><trkpt lat="43.39353800263109" lon="11.410553797836197"><ele>252.33333333333334</ele><time>2026-03-28T11:35:11.998Z</time></trkpt><trkpt lat="43.39343360793723" lon="11.410795913024742"><ele>253.66666666666669</ele><time>2026-03-28T11:35:12.998Z</time></trkpt><trkpt lat="43.3933269834377" lon="11.411029500850324"><ele>255.0</ele><time>2026-03-28T11:35:13.998Z</time></trkpt><trkpt lat="43.39321964152695" lon="11.411237151840005"><ele>256.0</ele><time>2026-03-28T11:35:14.998Z</time></trkpt><trkpt lat="43.3931115025653" lon="11.411455002636293"><ele>257.0</ele><time>2026-03-28T11:35:15.998Z</time></trkpt><trkpt lat="43.3929987266402" lon="11.411678242917633"><ele>258.0</ele><time>2026-03-28T11:35:16.998Z</time></trkpt><trkpt lat="43.39289210782407" lon="11.411903183474871"><ele>256.3333333333333</ele><time>2026-03-28T11:35:17.998Z</time></trkpt><trkpt lat="43.392793553550426" lon="11.412126487895344"><ele>254.66666666666666</ele><time>2026-03-28T11:35:18.998Z</time></trkpt><trkpt lat="43.39269474664298" lon="11.4123490465259"><ele>253.0</ele><time>2026-03-28T11:35:19.998Z</time></trkpt><trkpt lat="43.392595709230406" lon="11.412564769197763"><ele>253.0</ele><time>2026-03-28T11:35:20.998Z</time></trkpt><trkpt lat="43.39249971545462" lon="11.412777381129214"><ele>253.0</ele><time>2026-03-28T11:35:21.998Z</time></trkpt><trkpt lat="43.39241226126806" lon="11.412978482008684"><ele>253.0</ele><time>2026-03-28T11:35:22.998Z</time></trkpt><trkpt lat="43.3923105802072" lon="11.413162120470336"><ele>253.66666666666666</ele><time>2026-03-28T11:35:23.998Z</time></trkpt><trkpt lat="43.39219173593697" lon="11.413331333648161"><ele>254.33333333333331</ele><time>2026-03-28T11:35:24.998Z</time></trkpt><trkpt lat="43.39206044239875" lon="11.413488231660414"><ele>255.0</ele><time>2026-03-28T11:35:25.998Z</time></trkpt><trkpt lat="43.391924247011545" lon="11.41363286418866"><ele>255.33333333333331</ele><time>2026-03-28T11:35:26.998Z</time></trkpt><trkpt lat="43.39177802723544" lon="11.413753654783008"><ele>255.66666666666666</ele><time>2026-03-28T11:35:27.998Z</time></trkpt><trkpt lat="43.39163055419319" lon="11.41385471344103"><ele>256.0</ele><time>2026-03-28T11:35:28.998Z</time></trkpt><trkpt lat="43.391496859313726" lon="11.413941925988127"><ele>256.25</ele><time>2026-03-28T11:35:29.998Z</time></trkpt><trkpt lat="43.39136995518771" lon="11.414011631408139"><ele>256.5</ele><time>2026-03-28T11:35:30.998Z</time></trkpt><trkpt lat="43.391239874337366" lon="11.414071176672715"><ele>256.75</ele><time>2026-03-28T11:35:31.998Z</time></trkpt><trkpt lat="43.39110628454212" lon="11.414118777201018"><ele>257.0</ele><time>2026-03-28T11:35:32.998Z</time></trkpt><trkpt lat="43.3909905290371" lon="11.414146774010115"><ele>257.0</ele><time>2026-03-28T11:35:33.998Z</time></trkpt><trkpt lat="43.39088726235073" lon="11.414159759781928"><ele>257.0</ele><time>2026-03-28T11:35:34.998Z</time></trkpt><trkpt lat="43.39079101841176" lon="11.41413644126343"><ele>257.0</ele><time>2026-03-28T11:35:35.998Z</time></trkpt><trkpt lat="43.39072456731009" lon="11.414140860120828"><ele>257.0</ele><time>2026-03-28T11:35:36.998Z</time></trkpt><trkpt lat="43.39064355627023" lon="11.414148806988369"><ele>257.0</ele><time>2026-03-28T11:35:39.998Z</time></trkpt><trkpt lat="43.39073942095066" lon="11.414327281690108"><ele>257.0</ele><time>2026-03-28T11:35:44.998Z</time></trkpt><trkpt lat="43.39081192315881" lon="11.414336271121735"><ele>257.0</ele><time>2026-03-28T11:35:45.998Z</time></trkpt><trkpt lat="43.390881444867865" lon="11.414355908643172"><ele>257.0</ele><time>2026-03-28T11:35:46.998Z</time></trkpt><trkpt lat="43.3909731449293" lon="11.414381504512678"><ele>257.0</ele><time>2026-03-28T11:35:47.998Z</time></trkpt><trkpt lat="43.39107910055267" lon="11.4144214052202"><ele>257.0</ele><time>2026-03-28T11:35:48.998Z</time></trkpt><trkpt lat="43.39119328627692" lon="11.414470467623726"><ele>257.0</ele><time>2026-03-28T11:35:49.998Z</time></trkpt><trkpt lat="43.39132370776104" lon="11.41452279879331"><ele>257.0</ele><time>2026-03-28T11:35:50.998Z</time></trkpt><trkpt lat="43.39144262629445" lon="11.414569242447065"><ele>257.0</ele><time>2026-03-28T11:35:51.998Z</time></trkpt><trkpt lat="43.391538308973345" lon="11.414612954553837"><ele>257.0</ele><time>2026-03-28T11:35:52.998Z</time></trkpt><trkpt lat="43.391614411948794" lon="11.41466163786385"><ele>257.0</ele><time>2026-03-28T11:35:53.998Z</time></trkpt><trkpt lat="43.39170780942737" lon="11.414717832289353"><ele>261.75</ele><time>2026-03-28T11:35:54.998Z</time></trkpt><trkpt lat="43.39182866773221" lon="11.414791409691947"><ele>266.5</ele><time>2026-03-28T11:35:55.998Z</time></trkpt><trkpt lat="43.39194997302705" lon="11.414819395546079"><ele>271.25</ele><time>2026-03-28T11:35:56.998Z</time></trkpt><trkpt lat="43.39204997639866" lon="11.414819696685155"><ele>276.0</ele><time>2026-03-28T11:35:57.998Z</time></trkpt><trkpt lat="43.392150644702255" lon="11.414802680397624"><ele>275.3333333333333</ele><time>2026-03-28T11:35:58.998Z</time></trkpt><trkpt lat="43.39229859928656" lon="11.414863791343105"><ele>274.66666666666663</ele><time>2026-03-28T11:35:59.998Z</time></trkpt><trkpt lat="43.39247026620188" lon="11.415042731043402"><ele>274.0</ele><time>2026-03-28T11:36:00.998Z</time></trkpt><trkpt lat="43.39259315997255" lon="11.41528368553698"><ele>281.0</ele><time>2026-03-28T11:36:01.998Z</time></trkpt><trkpt lat="43.3926867856849" lon="11.415507074456329"><ele>288.0</ele><time>2026-03-28T11:36:02.998Z</time></trkpt><trkpt lat="43.392793281600625" lon="11.415749699163412"><ele>295.0</ele><time>2026-03-28T11:36:03.998Z</time></trkpt><trkpt lat="43.39288772472624" lon="11.415945992959902"><ele>295.0</ele><time>2026-03-28T11:36:04.998Z</time></trkpt><trkpt lat="43.392983745097204" lon="11.416138301608145"><ele>295.0</ele><time>2026-03-28T11:36:05.998Z</time></trkpt><trkpt lat="43.39307998185014" lon="11.416317926924139"><ele>295.0</ele><time>2026-03-28T11:36:06.998Z</time></trkpt><trkpt lat="43.3931941956538" lon="11.416480880821625"><ele>296.0</ele><time>2026-03-28T11:36:07.998Z</time></trkpt><trkpt lat="43.393331330686806" lon="11.416635253387737"><ele>297.0</ele><time>2026-03-28T11:36:08.998Z</time></trkpt><trkpt lat="43.393488878623494" lon="11.416790613233545"><ele>298.0</ele><time>2026-03-28T11:36:09.998Z</time></trkpt><trkpt lat="43.39363851735326" lon="11.416961034999714"><ele>298.0</ele><time>2026-03-28T11:36:10.998Z</time></trkpt><trkpt lat="43.39381368186117" lon="11.417101097222243"><ele>298.0</ele><time>2026-03-28T11:36:11.998Z</time></trkpt><trkpt lat="43.39398201125019" lon="11.417264405359088"><ele>298.0</ele><time>2026-03-28T11:36:12.998Z</time></trkpt><trkpt lat="43.394134621981934" lon="11.417427862809648"><ele>299.3333333333333</ele><time>2026-03-28T11:36:13.998Z</time></trkpt><trkpt lat="43.3942734326186" lon="11.417563261268091"><ele>300.6666666666667</ele><time>2026-03-28T11:36:14.998Z</time></trkpt><trkpt lat="43.3944037213553" lon="11.417726251494738"><ele>302.0</ele><time>2026-03-28T11:36:15.998Z</time></trkpt><trkpt lat="43.394516951722295" lon="11.417905661798594"><ele>302.0</ele><time>2026-03-28T11:36:16.998Z</time></trkpt><trkpt lat="43.39461178997789" lon="11.418091968807364"><ele>302.0</ele><time>2026-03-28T11:36:17.998Z</time></trkpt><trkpt lat="43.3946991010392" lon="11.418291919237063"><ele>302.0</ele><time>2026-03-28T11:36:18.998Z</time></trkpt><trkpt lat="43.394785467649534" lon="11.418472624748285"><ele>302.0</ele><time>2026-03-28T11:36:19.998Z</time></trkpt><trkpt lat="43.39492110651419" lon="11.418647499268188"><ele>302.0</ele><time>2026-03-28T11:36:20.998Z</time></trkpt><trkpt lat="43.3950900535916" lon="11.418798005080857"><ele>302.0</ele><time>2026-03-28T11:36:21.998Z</time></trkpt><trkpt lat="43.39524496498768" lon="11.418921197182737"><ele>304.6666666666667</ele><time>2026-03-28T11:36:22.998Z</time></trkpt><trkpt lat="43.39542437279107" lon="11.419059904311016"><ele>307.3333333333333</ele><time>2026-03-28T11:36:23.998Z</time></trkpt><trkpt lat="43.39560532092486" lon="11.419162336191937"><ele>310.0</ele><time>2026-03-28T11:36:24.998Z</time></trkpt><trkpt lat="43.395769341202545" lon="11.419286350494712"><ele>310.0</ele><time>2026-03-28T11:36:25.998Z</time></trkpt><trkpt lat="43.395918269246415" lon="11.419453638781986"><ele>310.0</ele><time>2026-03-28T11:36:26.998Z</time></trkpt><trkpt lat="43.39607018644502" lon="11.41957731039986"><ele>310.0</ele><time>2026-03-28T11:36:27.998Z</time></trkpt><trkpt lat="43.39619831702599" lon="11.419684510720616"><ele>310.0</ele><time>2026-03-28T11:36:28.998Z</time></trkpt><trkpt lat="43.39612285226603" lon="11.419593251074566"><ele>310.0</ele><time>2026-03-28T11:36:29.998Z</time></trkpt><trkpt lat="43.39623225591051" lon="11.41968870771736"><ele>310.0</ele><time>2026-03-28T11:36:30.998Z</time></trkpt><trkpt lat="43.396353263547454" lon="11.419761583131406"><ele>310.0</ele><time>2026-03-28T11:36:31.998Z</time></trkpt><trkpt lat="43.39647465550849" lon="11.419847665869337"><ele>312.6</ele><time>2026-03-28T11:36:32.998Z</time></trkpt><trkpt lat="43.39658839363992" lon="11.419932923166249"><ele>315.2</ele><time>2026-03-28T11:36:33.998Z</time></trkpt><trkpt lat="43.396675236435556" lon="11.41999691204546"><ele>317.79999999999995</ele><time>2026-03-28T11:36:34.998Z</time></trkpt><trkpt lat="43.39675783549675" lon="11.4200291658857"><ele>320.4</ele><time>2026-03-28T11:36:35.998Z</time></trkpt><trkpt lat="43.39681801413143" lon="11.420055626968185"><ele>323.0</ele><time>2026-03-28T11:36:36.998Z</time></trkpt><trkpt lat="43.39676384511857" lon="11.420146918968967"><ele>323.0</ele><time>2026-03-28T11:36:39.998Z</time></trkpt><trkpt lat="43.396674410454786" lon="11.420124705858411"><ele>323.0</ele><time>2026-03-28T11:36:41.998Z</time></trkpt><trkpt lat="43.39660338817225" lon="11.420074421621562"><ele>323.0</ele><time>2026-03-28T11:36:42.998Z</time></trkpt><trkpt lat="43.39652232642898" lon="11.42000844770773"><ele>323.0</ele><time>2026-03-28T11:36:43.998Z</time></trkpt><trkpt lat="43.39642808493134" lon="11.41993792480603"><ele>323.0</ele><time>2026-03-28T11:36:44.998Z</time></trkpt><trkpt lat="43.39631662582607" lon="11.419874645615366"><ele>322.79999999999995</ele><time>2026-03-28T11:36:45.998Z</time></trkpt><trkpt lat="43.39621689638833" lon="11.419810409370902"><ele>322.6</ele><time>2026-03-28T11:36:46.998Z</time></trkpt><trkpt lat="43.396118381227716" lon="11.419748733020137"><ele>322.4</ele><time>2026-03-28T11:36:47.998Z</time></trkpt><trkpt lat="43.396027540941816" lon="11.419681052680184"><ele>322.20000000000005</ele><time>2026-03-28T11:36:48.998Z</time></trkpt><trkpt lat="43.39594349303867" lon="11.41960659418854"><ele>322.0</ele><time>2026-03-28T11:36:49.998Z</time></trkpt><trkpt lat="43.39585555544366" lon="11.419529714219102"><ele>320.8</ele><time>2026-03-28T11:36:50.998Z</time></trkpt><trkpt lat="43.395761559798686" lon="11.419445570997606"><ele>319.6</ele><time>2026-03-28T11:36:51.998Z</time></trkpt><trkpt lat="43.3956551348237" lon="11.41935524433078"><ele>318.40000000000003</ele><time>2026-03-28T11:36:52.998Z</time></trkpt><trkpt lat="43.395560400904806" lon="11.419292117755885"><ele>317.20000000000005</ele><time>2026-03-28T11:36:53.998Z</time></trkpt><trkpt lat="43.39547181330416" lon="11.41925689075479"><ele>316.0</ele><time>2026-03-28T11:36:54.998Z</time></trkpt><trkpt lat="43.395390566429974" lon="11.419242211767816"><ele>316.0</ele><time>2026-03-28T11:36:55.998Z</time></trkpt><trkpt lat="43.39532079303428" lon="11.419230465847487"><ele>316.0</ele><time>2026-03-28T11:36:56.998Z</time></trkpt><trkpt lat="43.395237155779554" lon="11.419284965545433"><ele>316.0</ele><time>2026-03-28T11:36:57.998Z</time></trkpt><trkpt lat="43.39515769931309" lon="11.419382878937963"><ele>316.0</ele><time>2026-03-28T11:36:58.998Z</time></trkpt><trkpt lat="43.395092461084346" lon="11.419481475132894"><ele>316.0</ele><time>2026-03-28T11:36:59.998Z</time></trkpt><trkpt lat="43.39502976676488" lon="11.419583246203018"><ele>317.0</ele><time>2026-03-28T11:37:00.998Z</time></trkpt><trkpt lat="43.39496540665136" lon="11.419685939659985"><ele>318.0</ele><time>2026-03-28T11:37:01.998Z</time></trkpt><trkpt lat="43.39490301123059" lon="11.419793564427055"><ele>319.0</ele><time>2026-03-28T11:37:02.998Z</time></trkpt><trkpt lat="43.39484584721007" lon="11.41989365864113"><ele>320.0</ele><time>2026-03-28T11:37:03.998Z</time></trkpt><trkpt lat="43.3948003840673" lon="11.41999765619363"><ele>321.0</ele><time>2026-03-28T11:37:04.998Z</time></trkpt><trkpt lat="43.39473073126439" lon="11.420062971482569"><ele>321.5</ele><time>2026-03-28T11:37:05.998Z</time></trkpt><trkpt lat="43.394657532957005" lon="11.420103329637568"><ele>322.0</ele><time>2026-03-28T11:37:06.998Z</time></trkpt><trkpt lat="43.39456296653983" lon="11.420090129351351"><ele>322.5</ele><time>2026-03-28T11:37:07.998Z</time></trkpt><trkpt lat="43.39447815991467" lon="11.420106894717401"><ele>323.0</ele><time>2026-03-28T11:37:08.998Z</time></trkpt><trkpt lat="43.394389077074464" lon="11.420148207886905"><ele>323.5</ele><time>2026-03-28T11:37:09.998Z</time></trkpt><trkpt lat="43.394297665782126" lon="11.420153463039878"><ele>324.0</ele><time>2026-03-28T11:37:10.998Z</time></trkpt><trkpt lat="43.39421597606935" lon="11.420183406012972"><ele>324.0</ele><time>2026-03-28T11:37:11.998Z</time></trkpt><trkpt lat="43.39414408379652" lon="11.420218912015285"><ele>324.0</ele><time>2026-03-28T11:37:12.998Z</time></trkpt><trkpt lat="43.39406421157508" lon="11.420226268070799"><ele>324.0</ele><time>2026-03-28T11:37:13.998Z</time></trkpt><trkpt lat="43.39398521027637" lon="11.420258723448105"><ele>324.0</ele><time>2026-03-28T11:37:14.998Z</time></trkpt><trkpt lat="43.39390794595601" lon="11.420299335495006"><ele>324.0</ele><time>2026-03-28T11:37:15.998Z</time></trkpt><trkpt lat="43.39383872156744" lon="11.420348551248203"><ele>324.0</ele><time>2026-03-28T11:37:16.998Z</time></trkpt><trkpt lat="43.393777499598364" lon="11.420408284619604"><ele>324.1666666666667</ele><time>2026-03-28T11:37:17.998Z</time></trkpt><trkpt lat="43.39371763235832" lon="11.420499579140042"><ele>324.3333333333333</ele><time>2026-03-28T11:37:18.998Z</time></trkpt><trkpt lat="43.393684686152234" lon="11.420622484769002"><ele>324.5</ele><time>2026-03-28T11:37:19.998Z</time></trkpt><trkpt lat="43.39366980062913" lon="11.420726934859452"><ele>324.66666666666663</ele><time>2026-03-28T11:37:20.998Z</time></trkpt><trkpt lat="43.393659007201876" lon="11.420828518849246"><ele>324.8333333333333</ele><time>2026-03-28T11:37:21.998Z</time></trkpt><trkpt lat="43.393661075342244" lon="11.42096339682119"><ele>325.0</ele><time>2026-03-28T11:37:22.998Z</time></trkpt><trkpt lat="43.39363030092644" lon="11.421111850147296"><ele>325.0</ele><time>2026-03-28T11:37:23.998Z</time></trkpt><trkpt lat="43.39361610356236" lon="11.421251756546702"><ele>325.0</ele><time>2026-03-28T11:37:24.998Z</time></trkpt><trkpt lat="43.393600589596524" lon="11.421404020251297"><ele>325.0</ele><time>2026-03-28T11:37:25.998Z</time></trkpt><trkpt lat="43.39358189348064" lon="11.421564085188779"><ele>325.0</ele><time>2026-03-28T11:37:26.998Z</time></trkpt><trkpt lat="43.39356395677907" lon="11.421716437713368"><ele>325.0</ele><time>2026-03-28T11:37:27.998Z</time></trkpt><trkpt lat="43.3935548879919" lon="11.421883275075595"><ele>325.0</ele><time>2026-03-28T11:37:28.998Z</time></trkpt><trkpt lat="43.39352185244069" lon="11.422045126730486"><ele>325.0</ele><time>2026-03-28T11:37:29.998Z</time></trkpt><trkpt lat="43.393477012298334" lon="11.422193588427401"><ele>325.0</ele><time>2026-03-28T11:37:30.998Z</time></trkpt><trkpt lat="43.39343190755727" lon="11.422338899714468"><ele>325.0</ele><time>2026-03-28T11:37:31.998Z</time></trkpt><trkpt lat="43.39336942148626" lon="11.422473701410842"><ele>325.8</ele><time>2026-03-28T11:37:32.998Z</time></trkpt><trkpt lat="43.393278092819386" lon="11.422570164282977"><ele>326.6</ele><time>2026-03-28T11:37:33.998Z</time></trkpt><trkpt lat="43.393200816331685" lon="11.42267281695801"><ele>327.4</ele><time>2026-03-28T11:37:34.998Z</time></trkpt><trkpt lat="43.39309534752171" lon="11.422702683470973"><ele>328.2</ele><time>2026-03-28T11:37:35.998Z</time></trkpt><trkpt lat="43.39299876654667" lon="11.422732121955047"><ele>329.0</ele><time>2026-03-28T11:37:36.998Z</time></trkpt><trkpt lat="43.39290114768393" lon="11.422728174622764"><ele>329.0</ele><time>2026-03-28T11:37:37.998Z</time></trkpt><trkpt lat="43.392802242737005" lon="11.422722753526623"><ele>329.0</ele><time>2026-03-28T11:37:38.998Z</time></trkpt><trkpt lat="43.39269899397372" lon="11.422735781149283"><ele>329.0</ele><time>2026-03-28T11:37:39.998Z</time></trkpt><trkpt lat="43.39259814880529" lon="11.42273684579193"><ele>329.0</ele><time>2026-03-28T11:37:40.998Z</time></trkpt><trkpt lat="43.39249722561033" lon="11.42273081832688"><ele>329.0</ele><time>2026-03-28T11:37:41.998Z</time></trkpt><trkpt lat="43.392404706629144" lon="11.42280313363145"><ele>329.0</ele><time>2026-03-28T11:37:42.998Z</time></trkpt><trkpt lat="43.39231257287631" lon="11.422876078417366"><ele>329.0</ele><time>2026-03-28T11:37:43.998Z</time></trkpt><trkpt lat="43.392220879620886" lon="11.42296872311478"><ele>329.0</ele><time>2026-03-28T11:37:44.998Z</time></trkpt><trkpt lat="43.39213486602068" lon="11.42308118611615"><ele>329.0</ele><time>2026-03-28T11:37:45.998Z</time></trkpt><trkpt lat="43.392067631251976" lon="11.423173945829296"><ele>329.0</ele><time>2026-03-28T11:37:46.998Z</time></trkpt><trkpt lat="43.3920104794877" lon="11.423263777072455"><ele>329.2</ele><time>2026-03-28T11:37:47.998Z</time></trkpt><trkpt lat="43.39196314512519" lon="11.423370658212859"><ele>329.4</ele><time>2026-03-28T11:37:48.998Z</time></trkpt><trkpt lat="43.39193007951163" lon="11.4235027162642"><ele>329.6</ele><time>2026-03-28T11:37:49.998Z</time></trkpt><trkpt lat="43.39190667278605" lon="11.423655687835327"><ele>329.8</ele><time>2026-03-28T11:37:50.998Z</time></trkpt><trkpt lat="43.391877759963776" lon="11.423832149748542"><ele>330.0</ele><time>2026-03-28T11:37:51.998Z</time></trkpt><trkpt lat="43.391842917362396" lon="11.424020815856917"><ele>330.0</ele><time>2026-03-28T11:37:52.998Z</time></trkpt><trkpt lat="43.391813366437674" lon="11.424198045454517"><ele>330.0</ele><time>2026-03-28T11:37:53.998Z</time></trkpt><trkpt lat="43.391787101979965" lon="11.424356274048414"><ele>330.0</ele><time>2026-03-28T11:37:54.998Z</time></trkpt><trkpt lat="43.39176247221469" lon="11.424515854787147"><ele>330.0</ele><time>2026-03-28T11:37:55.998Z</time></trkpt><trkpt lat="43.391731491715596" lon="11.424658758753754"><ele>330.0</ele><time>2026-03-28T11:37:56.998Z</time></trkpt><trkpt lat="43.39169271273038" lon="11.424784447941647"><ele>330.0</ele><time>2026-03-28T11:37:57.998Z</time></trkpt><trkpt lat="43.391644031824626" lon="11.424882208004652"><ele>330.0</ele><time>2026-03-28T11:37:58.998Z</time></trkpt><trkpt lat="43.39156563944425" lon="11.424938908742506"><ele>330.0</ele><time>2026-03-28T11:37:59.998Z</time></trkpt><trkpt lat="43.391488873620006" lon="11.424996001230515"><ele>330.0</ele><time>2026-03-28T11:38:00.998Z</time></trkpt><trkpt lat="43.39139619230917" lon="11.425008902900155"><ele>328.2</ele><time>2026-03-28T11:38:01.998Z</time></trkpt><trkpt lat="43.39130179101258" lon="11.425049201493248"><ele>326.4</ele><time>2026-03-28T11:38:02.998Z</time></trkpt><trkpt lat="43.39121454190796" lon="11.425088180921467"><ele>324.6</ele><time>2026-03-28T11:38:03.998Z</time></trkpt><trkpt lat="43.391139581207746" lon="11.425133294897964"><ele>322.8</ele><time>2026-03-28T11:38:04.998Z</time></trkpt><trkpt lat="43.39108609734326" lon="11.425182434420009"><ele>321.0</ele><time>2026-03-28T11:38:05.998Z</time></trkpt><trkpt lat="43.39103622620423" lon="11.42534717716631"><ele>321.0</ele><time>2026-03-28T11:38:07.998Z</time></trkpt><trkpt lat="43.39100485661953" lon="11.425444096514937"><ele>321.0</ele><time>2026-03-28T11:38:08.998Z</time></trkpt><trkpt lat="43.390966012566615" lon="11.425523783938464"><ele>321.0</ele><time>2026-03-28T11:38:09.998Z</time></trkpt><trkpt lat="43.3909239095141" lon="11.425687320499703"><ele>321.0</ele><time>2026-03-28T11:38:11.998Z</time></trkpt><trkpt lat="43.390894510986385" lon="11.425774013714557"><ele>321.0</ele><time>2026-03-28T11:38:12.998Z</time></trkpt><trkpt lat="43.39085209481611" lon="11.425870741304488"><ele>321.0</ele><time>2026-03-28T11:38:13.998Z</time></trkpt><trkpt lat="43.39080422885209" lon="11.425967744273018"><ele>321.1666666666667</ele><time>2026-03-28T11:38:14.998Z</time></trkpt><trkpt lat="43.39077229447482" lon="11.426065557221015"><ele>321.3333333333333</ele><time>2026-03-28T11:38:15.998Z</time></trkpt><trkpt lat="43.390736680976" lon="11.426149352423307"><ele>321.5</ele><time>2026-03-28T11:38:16.998Z</time></trkpt><trkpt lat="43.3906909210386" lon="11.426216850891374"><ele>321.66666666666663</ele><time>2026-03-28T11:38:17.998Z</time></trkpt><trkpt lat="43.39067475554171" lon="11.426304429491465"><ele>321.8333333333333</ele><time>2026-03-28T11:38:18.998Z</time></trkpt><trkpt lat="43.39071178779946" lon="11.426464818964785"><ele>322.0</ele><time>2026-03-28T11:38:20.998Z</time></trkpt><trkpt lat="43.39078727303763" lon="11.426569894419345"><ele>320.5</ele><time>2026-03-28T11:38:22.998Z</time></trkpt><trkpt lat="43.39088439704751" lon="11.426656453722238"><ele>319.0</ele><time>2026-03-28T11:38:24.998Z</time></trkpt><trkpt lat="43.390985785016014" lon="11.426732132028421"><ele>317.5</ele><time>2026-03-28T11:38:26.998Z</time></trkpt><trkpt lat="43.39108881038634" lon="11.42681947208705"><ele>316.0</ele><time>2026-03-28T11:38:28.998Z</time></trkpt><trkpt lat="43.391143238325995" lon="11.426950741856059"><ele>316.0</ele><time>2026-03-28T11:38:30.998Z</time></trkpt><trkpt lat="43.39112415193969" lon="11.42712607184443"><ele>316.0</ele><time>2026-03-28T11:38:32.998Z</time></trkpt><trkpt lat="43.39107272931051" lon="11.427216527570714"><ele>316.0</ele><time>2026-03-28T11:38:33.998Z</time></trkpt><trkpt lat="43.39100647626892" lon="11.427292800644029"><ele>316.0</ele><time>2026-03-28T11:38:34.998Z</time></trkpt><trkpt lat="43.39093540983662" lon="11.427351262541132"><ele>316.0</ele><time>2026-03-28T11:38:35.998Z</time></trkpt><trkpt lat="43.39087816945443" lon="11.427406908539721"><ele>315.00000000000006</ele><time>2026-03-28T11:38:36.998Z</time></trkpt><trkpt lat="43.39083358079342" lon="11.427480832992378"><ele>314.0</ele><time>2026-03-28T11:38:37.998Z</time></trkpt><trkpt lat="43.39080119520134" lon="11.427568249418517"><ele>313.0</ele><time>2026-03-28T11:38:38.998Z</time></trkpt><trkpt lat="43.390775491180726" lon="11.427658485504416"><ele>312.0</ele><time>2026-03-28T11:38:39.998Z</time></trkpt><trkpt lat="43.39076776947952" lon="11.427758203019783"><ele>311.0</ele><time>2026-03-28T11:38:40.998Z</time></trkpt><trkpt lat="43.39077507513875" lon="11.427856617107544"><ele>310.00000000000006</ele><time>2026-03-28T11:38:41.998Z</time></trkpt><trkpt lat="43.39079790315853" lon="11.427966004948892"><ele>309.0</ele><time>2026-03-28T11:38:42.998Z</time></trkpt><trkpt lat="43.39082237724458" lon="11.428095476039704"><ele>307.4</ele><time>2026-03-28T11:38:43.998Z</time></trkpt><trkpt lat="43.390861586520806" lon="11.428226286960127"><ele>305.79999999999995</ele><time>2026-03-28T11:38:44.998Z</time></trkpt><trkpt lat="43.39089751912921" lon="11.428347104351738"><ele>304.20000000000005</ele><time>2026-03-28T11:38:45.998Z</time></trkpt><trkpt lat="43.390934894424575" lon="11.428449944756187"><ele>302.6</ele><time>2026-03-28T11:38:46.998Z</time></trkpt><trkpt lat="43.39097018366649" lon="11.42856314498624"><ele>301.0</ele><time>2026-03-28T11:38:47.998Z</time></trkpt><trkpt lat="43.391012492506206" lon="11.428670357598453"><ele>301.0</ele><time>2026-03-28T11:38:48.998Z</time></trkpt><trkpt lat="43.39105397981133" lon="11.428773009339906"><ele>301.0</ele><time>2026-03-28T11:38:49.998Z</time></trkpt><trkpt lat="43.39110435007859" lon="11.428863611777235"><ele>301.0</ele><time>2026-03-28T11:38:50.998Z</time></trkpt><trkpt lat="43.391161361853186" lon="11.42894533976654"><ele>301.0</ele><time>2026-03-28T11:38:51.998Z</time></trkpt><trkpt lat="43.391217672685215" lon="11.429027300471486"><ele>301.0</ele><time>2026-03-28T11:38:52.998Z</time></trkpt><trkpt lat="43.3912758796692" lon="11.429086570569693"><ele>301.0</ele><time>2026-03-28T11:38:53.998Z</time></trkpt><trkpt lat="43.39133712161964" lon="11.429146883094493"><ele>301.0</ele><time>2026-03-28T11:38:54.998Z</time></trkpt><trkpt lat="43.39141384948579" lon="11.429188687431726"><ele>301.0</ele><time>2026-03-28T11:38:55.998Z</time></trkpt><trkpt lat="43.391483417723364" lon="11.429248702058866"><ele>301.0</ele><time>2026-03-28T11:38:56.998Z</time></trkpt><trkpt lat="43.39153808397124" lon="11.429315357380037"><ele>301.0</ele><time>2026-03-28T11:38:57.998Z</time></trkpt><trkpt lat="43.391576375078564" lon="11.429477928832622"><ele>301.0</ele><time>2026-03-28T11:38:59.998Z</time></trkpt><trkpt lat="43.39157061583651" lon="11.429607640479864"><ele>300.0</ele><time>2026-03-28T11:39:00.998Z</time></trkpt><trkpt lat="43.391527247400575" lon="11.429772349436545"><ele>299.0</ele><time>2026-03-28T11:39:01.998Z</time></trkpt><trkpt lat="43.39147779312159" lon="11.429902021638256"><ele>298.0</ele><time>2026-03-28T11:39:02.998Z</time></trkpt><trkpt lat="43.391423902044465" lon="11.430001966725545"><ele>297.0</ele><time>2026-03-28T11:39:03.998Z</time></trkpt><trkpt lat="43.39136068111831" lon="11.430081104233189"><ele>296.0</ele><time>2026-03-28T11:39:04.998Z</time></trkpt><trkpt lat="43.39127929653303" lon="11.430134843824323"><ele>296.0</ele><time>2026-03-28T11:39:05.998Z</time></trkpt><trkpt lat="43.391175329063806" lon="11.430149000815097"><ele>296.0</ele><time>2026-03-28T11:39:06.998Z</time></trkpt><trkpt lat="43.39106471022141" lon="11.430157469502321"><ele>296.0</ele><time>2026-03-28T11:39:07.998Z</time></trkpt><trkpt lat="43.3909535747873" lon="11.430154538770008"><ele>296.0</ele><time>2026-03-28T11:39:08.998Z</time></trkpt><trkpt lat="43.39085218554829" lon="11.43014610379759"><ele>296.0</ele><time>2026-03-28T11:39:09.998Z</time></trkpt><trkpt lat="43.39073766854019" lon="11.430128602620364"><ele>296.0</ele><time>2026-03-28T11:39:10.998Z</time></trkpt><trkpt lat="43.39062069454265" lon="11.430093428569993"><ele>296.0</ele><time>2026-03-28T11:39:11.998Z</time></trkpt><trkpt lat="43.39050912519948" lon="11.430041222740611"><ele>296.0</ele><time>2026-03-28T11:39:12.998Z</time></trkpt><trkpt lat="43.39040006356949" lon="11.42996891223325"><ele>296.0</ele><time>2026-03-28T11:39:13.998Z</time></trkpt><trkpt lat="43.39029679820058" lon="11.429885344349069"><ele>295.6</ele><time>2026-03-28T11:39:14.998Z</time></trkpt><trkpt lat="43.39020629163838" lon="11.429812097321987"><ele>295.20000000000005</ele><time>2026-03-28T11:39:15.998Z</time></trkpt><trkpt lat="43.39012201043077" lon="11.429747883044818"><ele>294.79999999999995</ele><time>2026-03-28T11:39:16.998Z</time></trkpt><trkpt lat="43.39004200584693" lon="11.429686927079775"><ele>294.4</ele><time>2026-03-28T11:39:17.998Z</time></trkpt><trkpt lat="43.38996789662945" lon="11.429628119441608"><ele>294.0</ele><time>2026-03-28T11:39:18.998Z</time></trkpt><trkpt lat="43.38990204454796" lon="11.429580066578456"><ele>294.0</ele><time>2026-03-28T11:39:19.998Z</time></trkpt><trkpt lat="43.38984694920563" lon="11.429538006287256"><ele>294.0</ele><time>2026-03-28T11:39:20.998Z</time></trkpt><trkpt lat="43.389766479109156" lon="11.429462636307475"><ele>294.0</ele><time>2026-03-28T11:39:22.998Z</time></trkpt><trkpt lat="43.389706056603295" lon="11.42935687453991"><ele>294.0</ele><time>2026-03-28T11:39:24.998Z</time></trkpt><trkpt lat="43.38963938955198" lon="11.429258732560905"><ele>294.0</ele><time>2026-03-28T11:39:26.998Z</time></trkpt><trkpt lat="43.38957958216988" lon="11.42920317101464"><ele>294.0</ele><time>2026-03-28T11:39:27.998Z</time></trkpt><trkpt lat="43.38954829462026" lon="11.429105235473289"><ele>294.0</ele><time>2026-03-28T11:39:28.998Z</time></trkpt><trkpt lat="43.38948204662296" lon="11.429003308689285"><ele>294.0</ele><time>2026-03-28T11:39:29.998Z</time></trkpt><trkpt lat="43.38940779631454" lon="11.428897126543374"><ele>294.0</ele><time>2026-03-28T11:39:30.998Z</time></trkpt><trkpt lat="43.389336667725594" lon="11.428793992583099"><ele>294.0</ele><time>2026-03-28T11:39:31.998Z</time></trkpt><trkpt lat="43.389258966725706" lon="11.428728270434073"><ele>294.0</ele><time>2026-03-28T11:39:32.998Z</time></trkpt><trkpt lat="43.389190849676524" lon="11.428652785800711"><ele>294.0</ele><time>2026-03-28T11:39:33.998Z</time></trkpt><trkpt lat="43.389107114539264" lon="11.428612075012763"><ele>294.0</ele><time>2026-03-28T11:39:34.998Z</time></trkpt><trkpt lat="43.38901805162578" lon="11.428593452344806"><ele>294.0</ele><time>2026-03-28T11:39:35.998Z</time></trkpt><trkpt lat="43.3889044316109" lon="11.42859386757437"><ele>294.0</ele><time>2026-03-28T11:39:36.998Z</time></trkpt><trkpt lat="43.3887821255649" lon="11.42859681125675"><ele>294.0</ele><time>2026-03-28T11:39:37.998Z</time></trkpt><trkpt lat="43.388661941524134" lon="11.42861710202327"><ele>295.4</ele><time>2026-03-28T11:39:38.998Z</time></trkpt><trkpt lat="43.38855171799086" lon="11.42859132156018"><ele>296.79999999999995</ele><time>2026-03-28T11:39:39.998Z</time></trkpt><trkpt lat="43.388442928410306" lon="11.428546303508671"><ele>298.20000000000005</ele><time>2026-03-28T11:39:40.998Z</time></trkpt><trkpt lat="43.38833831851511" lon="11.428501698897518"><ele>299.6</ele><time>2026-03-28T11:39:41.998Z</time></trkpt><trkpt lat="43.38824982757683" lon="11.428452372040157"><ele>301.0</ele><time>2026-03-28T11:39:42.998Z</time></trkpt><trkpt lat="43.38814987334426" lon="11.428410931849365"><ele>301.0</ele><time>2026-03-28T11:39:43.998Z</time></trkpt><trkpt lat="43.38806690276584" lon="11.428380184939819"><ele>301.0</ele><time>2026-03-28T11:39:44.998Z</time></trkpt><trkpt lat="43.387989398291424" lon="11.428356349855125"><ele>301.0</ele><time>2026-03-28T11:39:45.998Z</time></trkpt><trkpt lat="43.38788934916735" lon="11.428350482012812"><ele>301.0</ele><time>2026-03-28T11:39:46.998Z</time></trkpt><trkpt lat="43.38779272006195" lon="11.428365261604892"><ele>301.0</ele><time>2026-03-28T11:39:47.998Z</time></trkpt><trkpt lat="43.38768661763608" lon="11.42838253387309"><ele>301.75</ele><time>2026-03-28T11:39:48.998Z</time></trkpt><trkpt lat="43.38757633201699" lon="11.428412641552823"><ele>302.5</ele><time>2026-03-28T11:39:49.998Z</time></trkpt><trkpt lat="43.38745695300811" lon="11.428457306858684"><ele>303.25</ele><time>2026-03-28T11:39:50.998Z</time></trkpt><trkpt lat="43.38733606499247" lon="11.42849867188921"><ele>304.0</ele><time>2026-03-28T11:39:51.998Z</time></trkpt><trkpt lat="43.38722252438073" lon="11.428534602963216"><ele>302.59999999999997</ele><time>2026-03-28T11:39:52.998Z</time></trkpt><trkpt lat="43.38711891281871" lon="11.428567260493823"><ele>301.2</ele><time>2026-03-28T11:39:53.998Z</time></trkpt><trkpt lat="43.38701557053786" lon="11.428600125736203"><ele>299.79999999999995</ele><time>2026-03-28T11:39:54.998Z</time></trkpt><trkpt lat="43.38691511255469" lon="11.428652726477551"><ele>298.4</ele><time>2026-03-28T11:39:55.998Z</time></trkpt><trkpt lat="43.38679684529299" lon="11.428669908246286"><ele>297.0</ele><time>2026-03-28T11:39:56.998Z</time></trkpt><trkpt lat="43.38669145916368" lon="11.428710983595535"><ele>297.0</ele><time>2026-03-28T11:39:57.998Z</time></trkpt><trkpt lat="43.38657983815638" lon="11.428746459050593"><ele>297.0</ele><time>2026-03-28T11:39:58.998Z</time></trkpt><trkpt lat="43.386466728984054" lon="11.428778798438591"><ele>297.0</ele><time>2026-03-28T11:39:59.998Z</time></trkpt><trkpt lat="43.38635401334631" lon="11.428814692649786"><ele>297.0</ele><time>2026-03-28T11:40:00.998Z</time></trkpt><trkpt lat="43.38624330503098" lon="11.428848246048869"><ele>296.0</ele><time>2026-03-28T11:40:01.998Z</time></trkpt><trkpt lat="43.386131219586375" lon="11.428882337739273"><ele>295.0</ele><time>2026-03-28T11:40:02.998Z</time></trkpt><trkpt lat="43.38601824657225" lon="11.428914935173225"><ele>294.0</ele><time>2026-03-28T11:40:03.998Z</time></trkpt><trkpt lat="43.3859126363611" lon="11.42894608643943"><ele>293.0</ele><time>2026-03-28T11:40:04.998Z</time></trkpt><trkpt lat="43.3858091308981" lon="11.428981930356002"><ele>292.0</ele><time>2026-03-28T11:40:05.998Z</time></trkpt><trkpt lat="43.3857059196907" lon="11.42901684041061"><ele>292.0</ele><time>2026-03-28T11:40:06.998Z</time></trkpt><trkpt lat="43.385601637183406" lon="11.429044354583935"><ele>292.0</ele><time>2026-03-28T11:40:07.998Z</time></trkpt><trkpt lat="43.385502111173174" lon="11.429075734554004"><ele>292.0</ele><time>2026-03-28T11:40:08.998Z</time></trkpt><trkpt lat="43.38540847277046" lon="11.429108049128585"><ele>292.0</ele><time>2026-03-28T11:40:09.998Z</time></trkpt><trkpt lat="43.38531857891738" lon="11.429131822001361"><ele>292.0</ele><time>2026-03-28T11:40:10.998Z</time></trkpt><trkpt lat="43.38522749177786" lon="11.429156316926544"><ele>290.5</ele><time>2026-03-28T11:40:11.998Z</time></trkpt><trkpt lat="43.38514295445716" lon="11.429184266733092"><ele>289.0</ele><time>2026-03-28T11:40:12.998Z</time></trkpt><trkpt lat="43.385074279804904" lon="11.429199892509901"><ele>287.5</ele><time>2026-03-28T11:40:13.998Z</time></trkpt><trkpt lat="43.38500814897877" lon="11.429215990746325"><ele>286.0</ele><time>2026-03-28T11:40:14.997Z</time></trkpt><trkpt lat="43.38490731412999" lon="11.429258519774711"><ele>284.5</ele><time>2026-03-28T11:40:16.997Z</time></trkpt><trkpt lat="43.38485982218322" lon="11.429354031549709"><ele>283.0</ele><time>2026-03-28T11:40:19.997Z</time></trkpt><trkpt lat="43.38483012467689" lon="11.42949339289297"><ele>283.2</ele><time>2026-03-28T11:40:21.997Z</time></trkpt><trkpt lat="43.384826370328355" lon="11.429662403921341"><ele>283.4</ele><time>2026-03-28T11:40:23.997Z</time></trkpt><trkpt lat="43.384827329841066" lon="11.429828746384453"><ele>283.59999999999997</ele><time>2026-03-28T11:40:25.997Z</time></trkpt><trkpt lat="43.384819789115134" lon="11.429929011787113"><ele>283.8</ele><time>2026-03-28T11:40:26.997Z</time></trkpt><trkpt lat="43.38479279293563" lon="11.430026948954024"><ele>284.0</ele><time>2026-03-28T11:40:27.997Z</time></trkpt><trkpt lat="43.384768486223116" lon="11.430124849530783"><ele>284.0</ele><time>2026-03-28T11:40:28.997Z</time></trkpt><trkpt lat="43.384741319209134" lon="11.430232223609313"><ele>284.0</ele><time>2026-03-28T11:40:29.997Z</time></trkpt><trkpt lat="43.38472406107983" lon="11.43033868264981"><ele>284.0</ele><time>2026-03-28T11:40:30.997Z</time></trkpt><trkpt lat="43.384695752535855" lon="11.43044534053159"><ele>284.0</ele><time>2026-03-28T11:40:31.997Z</time></trkpt><trkpt lat="43.38469242869893" lon="11.430572466976585"><ele>284.0</ele><time>2026-03-28T11:40:32.997Z</time></trkpt><trkpt lat="43.384701306758856" lon="11.430701909525851"><ele>284.0</ele><time>2026-03-28T11:40:33.997Z</time></trkpt><trkpt lat="43.3847160262531" lon="11.430828339271864"><ele>284.0</ele><time>2026-03-28T11:40:34.997Z</time></trkpt><trkpt lat="43.384735158618746" lon="11.43094114896037"><ele>284.0</ele><time>2026-03-28T11:40:35.997Z</time></trkpt><trkpt lat="43.38475846697688" lon="11.431038042021028"><ele>284.0</ele><time>2026-03-28T11:40:36.997Z</time></trkpt><trkpt lat="43.384758314067874" lon="11.431206195288706"><ele>284.0</ele><time>2026-03-28T11:40:38.997Z</time></trkpt><trkpt lat="43.38474389033834" lon="11.431310817123242"><ele>284.0</ele><time>2026-03-28T11:40:39.997Z</time></trkpt><trkpt lat="43.38469567786936" lon="11.431385389044344"><ele>284.0</ele><time>2026-03-28T11:40:40.997Z</time></trkpt><trkpt lat="43.38464690996798" lon="11.431441423337974"><ele>283.0</ele><time>2026-03-28T11:40:41.997Z</time></trkpt><trkpt lat="43.38457982691863" lon="11.431462019998346"><ele>282.0</ele><time>2026-03-28T11:40:42.997Z</time></trkpt><trkpt lat="43.38451161114383" lon="11.4314603862125"><ele>281.0</ele><time>2026-03-28T11:40:43.997Z</time></trkpt><trkpt lat="43.3844465580793" lon="11.431413872491415"><ele>280.0</ele><time>2026-03-28T11:40:44.997Z</time></trkpt><trkpt lat="43.38436152810843" lon="11.431314893914697"><ele>279.0</ele><time>2026-03-28T11:40:45.997Z</time></trkpt><trkpt lat="43.38427647952113" lon="11.431195921046934"><ele>278.0</ele><time>2026-03-28T11:40:46.997Z</time></trkpt><trkpt lat="43.384173126780226" lon="11.43106973741468"><ele>278.0</ele><time>2026-03-28T11:40:47.997Z</time></trkpt><trkpt lat="43.384057629192135" lon="11.430936134456987"><ele>278.0</ele><time>2026-03-28T11:40:48.997Z</time></trkpt><trkpt lat="43.38394928198778" lon="11.430814934795254"><ele>278.0</ele><time>2026-03-28T11:40:49.997Z</time></trkpt><trkpt lat="43.38384462415955" lon="11.430700841655698"><ele>278.0</ele><time>2026-03-28T11:40:50.997Z</time></trkpt><trkpt lat="43.38376146814856" lon="11.430592334509253"><ele>277.4</ele><time>2026-03-28T11:40:51.997Z</time></trkpt><trkpt lat="43.383687350770295" lon="11.430491025341219"><ele>276.8</ele><time>2026-03-28T11:40:52.997Z</time></trkpt><trkpt lat="43.38362496882146" lon="11.430395274973758"><ele>276.2</ele><time>2026-03-28T11:40:53.997Z</time></trkpt><trkpt lat="43.383574984907185" lon="11.430328622757534"><ele>275.6</ele><time>2026-03-28T11:40:54.997Z</time></trkpt><trkpt lat="43.383471234377616" lon="11.430227075684328"><ele>275.0</ele><time>2026-03-28T11:40:56.997Z</time></trkpt><trkpt lat="43.383404163151376" lon="11.430210125634659"><ele>275.0</ele><time>2026-03-28T11:40:57.997Z</time></trkpt><trkpt lat="43.383322923912" lon="11.430216286200276"><ele>275.0</ele><time>2026-03-28T11:40:58.997Z</time></trkpt><trkpt lat="43.38322900818413" lon="11.430259416874081"><ele>275.0</ele><time>2026-03-28T11:40:59.997Z</time></trkpt><trkpt lat="43.38314736447079" lon="11.430332652013885"><ele>275.0</ele><time>2026-03-28T11:41:00.997Z</time></trkpt><trkpt lat="43.38307954728044" lon="11.4304188895091"><ele>275.0</ele><time>2026-03-28T11:41:01.997Z</time></trkpt><trkpt lat="43.38302299654293" lon="11.43051715179443"><ele>276.6666666666667</ele><time>2026-03-28T11:41:02.997Z</time></trkpt><trkpt lat="43.38299227582156" lon="11.430616615807752"><ele>278.33333333333337</ele><time>2026-03-28T11:41:03.997Z</time></trkpt><trkpt lat="43.382980123928895" lon="11.430708719745327"><ele>280.0</ele><time>2026-03-28T11:41:04.997Z</time></trkpt><trkpt lat="43.38298674911822" lon="11.430809782176572"><ele>281.6666666666667</ele><time>2026-03-28T11:41:05.997Z</time></trkpt><trkpt lat="43.38309417534851" lon="11.430919716190095"><ele>283.3333333333333</ele><time>2026-03-28T11:41:07.997Z</time></trkpt><trkpt lat="43.38317259570894" lon="11.430916999022607"><ele>285.0</ele><time>2026-03-28T11:41:08.997Z</time></trkpt><trkpt lat="43.38329707551939" lon="11.430925881585903"><ele>285.4</ele><time>2026-03-28T11:41:10.997Z</time></trkpt><trkpt lat="43.383363495178344" lon="11.43092052293669"><ele>285.8</ele><time>2026-03-28T11:41:11.997Z</time></trkpt><trkpt lat="43.38343134615194" lon="11.430946214482784"><ele>286.2</ele><time>2026-03-28T11:41:12.997Z</time></trkpt><trkpt lat="43.383492613550715" lon="11.431071803709818"><ele>286.6</ele><time>2026-03-28T11:41:14.997Z</time></trkpt><trkpt lat="43.38348353768179" lon="11.431170630794808"><ele>287.0</ele><time>2026-03-28T11:41:15.997Z</time></trkpt><trkpt lat="43.383409831808095" lon="11.431347773231913"><ele>288.6</ele><time>2026-03-28T11:41:17.997Z</time></trkpt><trkpt lat="43.3833482434008" lon="11.431433345771891"><ele>290.2</ele><time>2026-03-28T11:41:18.997Z</time></trkpt><trkpt lat="43.383276157620486" lon="11.431528339821101"><ele>291.8</ele><time>2026-03-28T11:41:19.997Z</time></trkpt><trkpt lat="43.38320062841327" lon="11.4316075852686"><ele>293.4</ele><time>2026-03-28T11:41:20.997Z</time></trkpt><trkpt lat="43.38311814500151" lon="11.431649991058334"><ele>295.0</ele><time>2026-03-28T11:41:21.997Z</time></trkpt><trkpt lat="43.38301142693756" lon="11.431684074680957"><ele>295.0</ele><time>2026-03-28T11:41:22.997Z</time></trkpt><trkpt lat="43.38288477604153" lon="11.431719912998988"><ele>295.0</ele><time>2026-03-28T11:41:23.997Z</time></trkpt><trkpt lat="43.38275423040477" lon="11.431760933865949"><ele>295.0</ele><time>2026-03-28T11:41:24.997Z</time></trkpt><trkpt lat="43.38264195977934" lon="11.431806584868168"><ele>295.0</ele><time>2026-03-28T11:41:25.997Z</time></trkpt><trkpt lat="43.38253868236266" lon="11.431849734734515"><ele>295.0</ele><time>2026-03-28T11:41:26.997Z</time></trkpt><trkpt lat="43.38241395908487" lon="11.431856637707238"><ele>295.0</ele><time>2026-03-28T11:41:27.997Z</time></trkpt><trkpt lat="43.3822876207134" lon="11.431894050391085"><ele>295.0</ele><time>2026-03-28T11:41:28.997Z</time></trkpt><trkpt lat="43.38216661624719" lon="11.431936300766504"><ele>295.0</ele><time>2026-03-28T11:41:29.997Z</time></trkpt><trkpt lat="43.38205842630885" lon="11.431967976678731"><ele>296.0</ele><time>2026-03-28T11:41:30.997Z</time></trkpt><trkpt lat="43.38196027453991" lon="11.432005700657669"><ele>297.0</ele><time>2026-03-28T11:41:31.997Z</time></trkpt><trkpt lat="43.38185608024001" lon="11.432042936035932"><ele>298.0</ele><time>2026-03-28T11:41:32.997Z</time></trkpt><trkpt lat="43.38176036224907" lon="11.432073024395818"><ele>299.0</ele><time>2026-03-28T11:41:33.997Z</time></trkpt><trkpt lat="43.38168770088435" lon="11.432077267191772"><ele>300.0</ele><time>2026-03-28T11:41:34.997Z</time></trkpt><trkpt lat="43.381610111860596" lon="11.43205582975211"><ele>300.0</ele><time>2026-03-28T11:41:35.997Z</time></trkpt><trkpt lat="43.38153580583605" lon="11.43202273871986"><ele>300.0</ele><time>2026-03-28T11:41:36.997Z</time></trkpt><trkpt lat="43.38145594960573" lon="11.431902562220925"><ele>300.0</ele><time>2026-03-28T11:41:38.997Z</time></trkpt><trkpt lat="43.38139943316934" lon="11.431712265307386"><ele>300.0</ele><time>2026-03-28T11:41:40.997Z</time></trkpt><trkpt lat="43.38135805527096" lon="11.43157846479455"><ele>303.5</ele><time>2026-03-28T11:41:41.997Z</time></trkpt><trkpt lat="43.38130435785121" lon="11.431444444168315"><ele>307.0</ele><time>2026-03-28T11:41:42.997Z</time></trkpt><trkpt lat="43.38125657304961" lon="11.43127701805985"><ele>310.5</ele><time>2026-03-28T11:41:43.997Z</time></trkpt><trkpt lat="43.381197344956114" lon="11.431112865285893"><ele>314.0</ele><time>2026-03-28T11:41:44.997Z</time></trkpt><trkpt lat="43.38113761904814" lon="11.43095543560653"><ele>314.0</ele><time>2026-03-28T11:41:45.997Z</time></trkpt><trkpt lat="43.38111278984666" lon="11.430809655757537"><ele>314.0</ele><time>2026-03-28T11:41:46.997Z</time></trkpt><trkpt lat="43.38107143030537" lon="11.430706104653968"><ele>314.0</ele><time>2026-03-28T11:41:47.997Z</time></trkpt><trkpt lat="43.38103774976999" lon="11.430626158511974"><ele>314.0</ele><time>2026-03-28T11:41:48.997Z</time></trkpt><trkpt lat="43.38099660167276" lon="11.430546516622005"><ele>314.0</ele><time>2026-03-28T11:41:49.997Z</time></trkpt><trkpt lat="43.38092285064019" lon="11.43044769041459"><ele>314.0</ele><time>2026-03-28T11:41:51.997Z</time></trkpt><trkpt lat="43.380844552588385" lon="11.43041469192631"><ele>314.0</ele><time>2026-03-28T11:41:54.997Z</time></trkpt><trkpt lat="43.38077852389015" lon="11.430390213971606"><ele>314.0</ele><time>2026-03-28T11:42:11.997Z</time></trkpt><trkpt lat="43.38073402661377" lon="11.430517014146075"><ele>314.0</ele><time>2026-03-28T11:42:13.997Z</time></trkpt><trkpt lat="43.380665335776804" lon="11.430664906630641"><ele>314.0</ele><time>2026-03-28T11:42:15.997Z</time></trkpt><trkpt lat="43.380615822196276" lon="11.430761848899143"><ele>314.0</ele><time>2026-03-28T11:42:16.997Z</time></trkpt><trkpt lat="43.380550509389025" lon="11.430870789239663"><ele>313.4</ele><time>2026-03-28T11:42:17.997Z</time></trkpt><trkpt lat="43.38049105133032" lon="11.430977927568243"><ele>312.79999999999995</ele><time>2026-03-28T11:42:18.997Z</time></trkpt><trkpt lat="43.38042973335899" lon="11.431065095469958"><ele>312.20000000000005</ele><time>2026-03-28T11:42:19.997Z</time></trkpt><trkpt lat="43.3803642559719" lon="11.431158594229695"><ele>311.6</ele><time>2026-03-28T11:42:20.997Z</time></trkpt><trkpt lat="43.38028958594067" lon="11.43126022659618"><ele>311.0</ele><time>2026-03-28T11:42:21.997Z</time></trkpt><trkpt lat="43.38022042832095" lon="11.431364924305644"><ele>313.20000000000005</ele><time>2026-03-28T11:42:22.997Z</time></trkpt><trkpt lat="43.38015497691184" lon="11.431462736376872"><ele>315.40000000000003</ele><time>2026-03-28T11:42:23.997Z</time></trkpt><trkpt lat="43.38009110043275" lon="11.431557388777028"><ele>317.6</ele><time>2026-03-28T11:42:24.997Z</time></trkpt><trkpt lat="43.38003779278138" lon="11.431666396720722"><ele>319.8</ele><time>2026-03-28T11:42:25.998Z</time></trkpt><trkpt lat="43.380006783855464" lon="11.43177235112075"><ele>322.0</ele><time>2026-03-28T11:42:26.998Z</time></trkpt><trkpt lat="43.3799853783535" lon="11.431900897927871"><ele>322.0</ele><time>2026-03-28T11:42:27.998Z</time></trkpt><trkpt lat="43.37998950676341" lon="11.432024515631717"><ele>322.0</ele><time>2026-03-28T11:42:28.998Z</time></trkpt><trkpt lat="43.38000854893705" lon="11.432140690694718"><ele>322.0</ele><time>2026-03-28T11:42:29.998Z</time></trkpt><trkpt lat="43.38003045645802" lon="11.432254020746951"><ele>322.0</ele><time>2026-03-28T11:42:30.998Z</time></trkpt><trkpt lat="43.38004997448009" lon="11.432354497027838"><ele>322.0</ele><time>2026-03-28T11:42:31.998Z</time></trkpt><trkpt lat="43.38006228379292" lon="11.432495806445619"><ele>322.0</ele><time>2026-03-28T11:42:33.998Z</time></trkpt><trkpt lat="43.380000030746274" lon="11.432610164008604"><ele>321.8</ele><time>2026-03-28T11:42:36.998Z</time></trkpt><trkpt lat="43.37992561141545" lon="11.432595527817364"><ele>321.6</ele><time>2026-03-28T11:42:37.998Z</time></trkpt><trkpt lat="43.37983498022421" lon="11.43258711619605"><ele>321.40000000000003</ele><time>2026-03-28T11:42:38.998Z</time></trkpt><trkpt lat="43.37972939376712" lon="11.43256968760059"><ele>321.20000000000005</ele><time>2026-03-28T11:42:39.998Z</time></trkpt><trkpt lat="43.379610710446855" lon="11.432534759439308"><ele>321.0</ele><time>2026-03-28T11:42:40.998Z</time></trkpt><trkpt lat="43.379480429202594" lon="11.432478073900139"><ele>320.0</ele><time>2026-03-28T11:42:41.998Z</time></trkpt><trkpt lat="43.379348443877404" lon="11.432385412479263"><ele>319.0</ele><time>2026-03-28T11:42:42.998Z</time></trkpt><trkpt lat="43.379195481771696" lon="11.432318547496727"><ele>318.0</ele><time>2026-03-28T11:42:43.998Z</time></trkpt><trkpt lat="43.37904217194029" lon="11.432248624541783"><ele>318.0</ele><time>2026-03-28T11:42:44.998Z</time></trkpt><trkpt lat="43.3788849310729" lon="11.432172529576743"><ele>318.0</ele><time>2026-03-28T11:42:45.998Z</time></trkpt><trkpt lat="43.37872455964478" lon="11.43209276883408"><ele>318.0</ele><time>2026-03-28T11:42:46.998Z</time></trkpt><trkpt lat="43.37856463874811" lon="11.432012098056907"><ele>317.6666666666667</ele><time>2026-03-28T11:42:47.998Z</time></trkpt><trkpt lat="43.37840373127514" lon="11.431928385332876"><ele>317.33333333333337</ele><time>2026-03-28T11:42:48.998Z</time></trkpt><trkpt lat="43.378243455801005" lon="11.43184526203573"><ele>317.0</ele><time>2026-03-28T11:42:49.998Z</time></trkpt><trkpt lat="43.37808327865454" lon="11.431764973992328"><ele>317.6666666666667</ele><time>2026-03-28T11:42:50.998Z</time></trkpt><trkpt lat="43.37791714863284" lon="11.431704851252276"><ele>318.3333333333333</ele><time>2026-03-28T11:42:51.998Z</time></trkpt><trkpt lat="43.377762291675914" lon="11.431626068548786"><ele>319.0</ele><time>2026-03-28T11:42:52.998Z</time></trkpt><trkpt lat="43.37761166030058" lon="11.43154663383184"><ele>319.0</ele><time>2026-03-28T11:42:53.998Z</time></trkpt><trkpt lat="43.377458447137805" lon="11.431451506846546"><ele>319.0</ele><time>2026-03-28T11:42:54.998Z</time></trkpt><trkpt lat="43.377290892442794" lon="11.431389480529987"><ele>319.0</ele><time>2026-03-28T11:42:55.998Z</time></trkpt><trkpt lat="43.377113637746724" lon="11.431349670566888"><ele>318.0</ele><time>2026-03-28T11:42:56.998Z</time></trkpt><trkpt lat="43.37694747484266" lon="11.431327197921053"><ele>317.0</ele><time>2026-03-28T11:42:57.998Z</time></trkpt><trkpt lat="43.37678842646056" lon="11.431329239730378"><ele>316.0</ele><time>2026-03-28T11:42:58.998Z</time></trkpt><trkpt lat="43.37663289937269" lon="11.43129267983557"><ele>315.0</ele><time>2026-03-28T11:42:59.998Z</time></trkpt><trkpt lat="43.37648343377074" lon="11.431271362517982"><ele>314.0</ele><time>2026-03-28T11:43:00.998Z</time></trkpt><trkpt lat="43.37633086926936" lon="11.431250993921203"><ele>313.0</ele><time>2026-03-28T11:43:01.998Z</time></trkpt><trkpt lat="43.3761826762945" lon="11.431226763397001"><ele>313.0</ele><time>2026-03-28T11:43:02.998Z</time></trkpt><trkpt lat="43.37603989966189" lon="11.431195384683095"><ele>313.0</ele><time>2026-03-28T11:43:03.998Z</time></trkpt><trkpt lat="43.37590021053963" lon="11.431147835027062"><ele>313.0</ele><time>2026-03-28T11:43:04.998Z</time></trkpt><trkpt lat="43.37575089487383" lon="11.431088045143783"><ele>313.0</ele><time>2026-03-28T11:43:05.998Z</time></trkpt><trkpt lat="43.37561341886338" lon="11.43100178104675"><ele>310.0</ele><time>2026-03-28T11:43:06.998Z</time></trkpt><trkpt lat="43.37545870048398" lon="11.43087920599888"><ele>307.0</ele><time>2026-03-28T11:43:07.998Z</time></trkpt><trkpt lat="43.37530214638334" lon="11.43075623646904"><ele>304.0</ele><time>2026-03-28T11:43:08.998Z</time></trkpt><trkpt lat="43.3751362593903" lon="11.430630664344687"><ele>304.0</ele><time>2026-03-28T11:43:09.998Z</time></trkpt><trkpt lat="43.374959347872334" lon="11.430550014906467"><ele>304.0</ele><time>2026-03-28T11:43:10.998Z</time></trkpt><trkpt lat="43.374786671283346" lon="11.430480046948967"><ele>304.0</ele><time>2026-03-28T11:43:11.998Z</time></trkpt><trkpt lat="43.374629844045565" lon="11.430425549411014"><ele>304.3333333333333</ele><time>2026-03-28T11:43:12.998Z</time></trkpt><trkpt lat="43.37448018331758" lon="11.430377284910238"><ele>304.6666666666667</ele><time>2026-03-28T11:43:13.998Z</time></trkpt><trkpt lat="43.374333157249055" lon="11.430329432628607"><ele>305.0</ele><time>2026-03-28T11:43:14.998Z</time></trkpt><trkpt lat="43.37418756470721" lon="11.430287299477735"><ele>305.0</ele><time>2026-03-28T11:43:15.998Z</time></trkpt><trkpt lat="43.3740374149981" lon="11.43023935519608"><ele>305.0</ele><time>2026-03-28T11:43:16.998Z</time></trkpt><trkpt lat="43.37388624262219" lon="11.430186266540524"><ele>305.0</ele><time>2026-03-28T11:43:17.998Z</time></trkpt><trkpt lat="43.373737054717814" lon="11.430125348015894"><ele>304.6666666666667</ele><time>2026-03-28T11:43:18.998Z</time></trkpt><trkpt lat="43.37359433625856" lon="11.43006041321039"><ele>304.3333333333333</ele><time>2026-03-28T11:43:19.998Z</time></trkpt><trkpt lat="43.373449473658546" lon="11.429980839816896"><ele>304.0</ele><time>2026-03-28T11:43:20.998Z</time></trkpt><trkpt lat="43.37329853415255" lon="11.429896655149987"><ele>304.0</ele><time>2026-03-28T11:43:21.998Z</time></trkpt><trkpt lat="43.373135495594966" lon="11.42980083816979"><ele>304.0</ele><time>2026-03-28T11:43:22.999Z</time></trkpt><trkpt lat="43.37297236094153" lon="11.42970156905201"><ele>304.0</ele><time>2026-03-28T11:43:23.998Z</time></trkpt><trkpt lat="43.37281094383449" lon="11.42960564520324"><ele>301.66666666666663</ele><time>2026-03-28T11:43:24.998Z</time></trkpt><trkpt lat="43.37264799928389" lon="11.42951713768463"><ele>299.3333333333333</ele><time>2026-03-28T11:43:25.998Z</time></trkpt><trkpt lat="43.37247635981832" lon="11.42942230263633"><ele>297.0</ele><time>2026-03-28T11:43:26.998Z</time></trkpt><trkpt lat="43.37231272963201" lon="11.42930632123619"><ele>295.6666666666667</ele><time>2026-03-28T11:43:27.998Z</time></trkpt><trkpt lat="43.37213996974504" lon="11.429209097015152"><ele>294.33333333333337</ele><time>2026-03-28T11:43:28.999Z</time></trkpt><trkpt lat="43.371966698049036" lon="11.429112351221525"><ele>293.0</ele><time>2026-03-28T11:43:29.999Z</time></trkpt><trkpt lat="43.371793796577954" lon="11.42901716184919"><ele>293.0</ele><time>2026-03-28T11:43:30.999Z</time></trkpt><trkpt lat="43.371619255118574" lon="11.428941127485228"><ele>293.0</ele><time>2026-03-28T11:43:31.999Z</time></trkpt><trkpt lat="43.37145362998369" lon="11.428843268477188"><ele>293.0</ele><time>2026-03-28T11:43:32.998Z</time></trkpt><trkpt lat="43.3712835809607" lon="11.428774457124408"><ele>293.33333333333337</ele><time>2026-03-28T11:43:33.998Z</time></trkpt><trkpt lat="43.37111352191995" lon="11.428721144274334"><ele>293.6666666666667</ele><time>2026-03-28T11:43:34.998Z</time></trkpt><trkpt lat="43.37094443896766" lon="11.428693100289676"><ele>294.0</ele><time>2026-03-28T11:43:35.998Z</time></trkpt><trkpt lat="43.37077779750694" lon="11.428664266100705"><ele>294.0</ele><time>2026-03-28T11:43:36.998Z</time></trkpt><trkpt lat="43.37061259059344" lon="11.428638537228519"><ele>294.0</ele><time>2026-03-28T11:43:37.998Z</time></trkpt><trkpt lat="43.37044369853531" lon="11.4286114466263"><ele>294.0</ele><time>2026-03-28T11:43:38.998Z</time></trkpt><trkpt lat="43.37027391876231" lon="11.428589726300268"><ele>291.6666666666667</ele><time>2026-03-28T11:43:39.998Z</time></trkpt><trkpt lat="43.37010750019936" lon="11.428567097498183"><ele>289.33333333333337</ele><time>2026-03-28T11:43:40.998Z</time></trkpt><trkpt lat="43.36993940002546" lon="11.428543272531641"><ele>287.0</ele><time>2026-03-28T11:43:41.998Z</time></trkpt><trkpt lat="43.369770576008634" lon="11.428522636533666"><ele>285.33333333333337</ele><time>2026-03-28T11:43:42.998Z</time></trkpt><trkpt lat="43.36960238189724" lon="11.428506344343509"><ele>283.6666666666667</ele><time>2026-03-28T11:43:43.998Z</time></trkpt><trkpt lat="43.36943311027329" lon="11.428493012664157"><ele>282.0</ele><time>2026-03-28T11:43:44.998Z</time></trkpt><trkpt lat="43.369265948952105" lon="11.42848424897069"><ele>282.0</ele><time>2026-03-28T11:43:45.998Z</time></trkpt><trkpt lat="43.36910289987497" lon="11.428480933612224"><ele>282.0</ele><time>2026-03-28T11:43:46.998Z</time></trkpt><trkpt lat="43.36895087543021" lon="11.428477571224128"><ele>282.0</ele><time>2026-03-28T11:43:47.998Z</time></trkpt><trkpt lat="43.36881443558131" lon="11.428460470110341"><ele>282.5</ele><time>2026-03-28T11:43:48.998Z</time></trkpt><trkpt lat="43.368684477544754" lon="11.428400565168275"><ele>283.0</ele><time>2026-03-28T11:43:49.998Z</time></trkpt><trkpt lat="43.36855139787074" lon="11.428307278804214"><ele>283.5</ele><time>2026-03-28T11:43:50.998Z</time></trkpt><trkpt lat="43.36841531229251" lon="11.428190931074719"><ele>284.0</ele><time>2026-03-28T11:43:51.998Z</time></trkpt><trkpt lat="43.36828993049718" lon="11.428060930918777"><ele>282.6666666666667</ele><time>2026-03-28T11:43:52.998Z</time></trkpt><trkpt lat="43.36818052779635" lon="11.427908888655523"><ele>281.3333333333333</ele><time>2026-03-28T11:43:53.998Z</time></trkpt><trkpt lat="43.36809880027257" lon="11.427726167782138"><ele>280.0</ele><time>2026-03-28T11:43:54.998Z</time></trkpt><trkpt lat="43.36803478358183" lon="11.427519171459576"><ele>280.75</ele><time>2026-03-28T11:43:55.998Z</time></trkpt><trkpt lat="43.367983455814546" lon="11.427322448303155"><ele>281.5</ele><time>2026-03-28T11:43:56.998Z</time></trkpt><trkpt lat="43.36792580926183" lon="11.427136366324376"><ele>282.25</ele><time>2026-03-28T11:43:57.998Z</time></trkpt><trkpt lat="43.36785197271603" lon="11.426969832148606"><ele>283.0</ele><time>2026-03-28T11:43:58.998Z</time></trkpt><trkpt lat="43.367750635885564" lon="11.4268390952946"><ele>283.3333333333333</ele><time>2026-03-28T11:43:59.998Z</time></trkpt><trkpt lat="43.367624198101915" lon="11.426744060705529"><ele>283.6666666666667</ele><time>2026-03-28T11:44:00.998Z</time></trkpt><trkpt lat="43.36748044523492" lon="11.4266837333062"><ele>284.0</ele><time>2026-03-28T11:44:01.998Z</time></trkpt><trkpt lat="43.36732849146075" lon="11.426634123020134"><ele>285.6666666666667</ele><time>2026-03-28T11:44:02.998Z</time></trkpt><trkpt lat="43.36717552586612" lon="11.42658147933652"><ele>287.3333333333333</ele><time>2026-03-28T11:44:03.998Z</time></trkpt><trkpt lat="43.367022295933516" lon="11.426520995812593"><ele>289.0</ele><time>2026-03-28T11:44:04.998Z</time></trkpt><trkpt lat="43.366866803377945" lon="11.426451640219636"><ele>289.0</ele><time>2026-03-28T11:44:05.998Z</time></trkpt><trkpt lat="43.366719660981026" lon="11.426387205371404"><ele>289.0</ele><time>2026-03-28T11:44:06.998Z</time></trkpt><trkpt lat="43.36657872988403" lon="11.42634668938626"><ele>289.0</ele><time>2026-03-28T11:44:07.998Z</time></trkpt><trkpt lat="43.36642482392058" lon="11.426334227173367"><ele>288.5</ele><time>2026-03-28T11:44:08.998Z</time></trkpt><trkpt lat="43.366275815491456" lon="11.426358039411179"><ele>288.0</ele><time>2026-03-28T11:44:09.998Z</time></trkpt><trkpt lat="43.366138456482936" lon="11.426387079513217"><ele>287.5</ele><time>2026-03-28T11:44:10.998Z</time></trkpt><trkpt lat="43.36600398631835" lon="11.426386412249181"><ele>287.0</ele><time>2026-03-28T11:44:11.998Z</time></trkpt><trkpt lat="43.36587920133218" lon="11.426339649500884"><ele>287.75</ele><time>2026-03-28T11:44:12.998Z</time></trkpt><trkpt lat="43.365769901640554" lon="11.426231696148998"><ele>288.5</ele><time>2026-03-28T11:44:13.998Z</time></trkpt><trkpt lat="43.36566710335493" lon="11.426081314584879"><ele>289.25</ele><time>2026-03-28T11:44:14.998Z</time></trkpt><trkpt lat="43.36556395597149" lon="11.425912927191346"><ele>290.0</ele><time>2026-03-28T11:44:15.998Z</time></trkpt><trkpt lat="43.36545437097952" lon="11.425750959968711"><ele>287.33333333333337</ele><time>2026-03-28T11:44:16.998Z</time></trkpt><trkpt lat="43.365357868351246" lon="11.425566265896007"><ele>284.6666666666667</ele><time>2026-03-28T11:44:17.998Z</time></trkpt><trkpt lat="43.36524490474873" lon="11.425384260454212"><ele>282.0</ele><time>2026-03-28T11:44:18.998Z</time></trkpt><trkpt lat="43.365135918774854" lon="11.425211406707469"><ele>281.6666666666667</ele><time>2026-03-28T11:44:19.998Z</time></trkpt><trkpt lat="43.36503101374026" lon="11.42504979329512"><ele>281.33333333333337</ele><time>2026-03-28T11:44:20.998Z</time></trkpt><trkpt lat="43.364921512027905" lon="11.424873423390224"><ele>281.0</ele><time>2026-03-28T11:44:21.998Z</time></trkpt><trkpt lat="43.36482291629724" lon="11.424680855378867"><ele>280.33333333333337</ele><time>2026-03-28T11:44:22.998Z</time></trkpt><trkpt lat="43.364725665897424" lon="11.424459566171771"><ele>279.6666666666667</ele><time>2026-03-28T11:44:23.998Z</time></trkpt><trkpt lat="43.36464881919421" lon="11.424226503447676"><ele>279.0</ele><time>2026-03-28T11:44:24.998Z</time></trkpt><trkpt lat="43.364595617861724" lon="11.424003045054805"><ele>277.0</ele><time>2026-03-28T11:44:25.998Z</time></trkpt><trkpt lat="43.36456357123979" lon="11.423812058140609"><ele>275.0</ele><time>2026-03-28T11:44:26.998Z</time></trkpt><trkpt lat="43.364546951962204" lon="11.42361856315247"><ele>273.0</ele><time>2026-03-28T11:44:27.998Z</time></trkpt><trkpt lat="43.36453911510805" lon="11.423440926979387"><ele>271.0</ele><time>2026-03-28T11:44:28.998Z</time></trkpt><trkpt lat="43.36452749405423" lon="11.42321399629216"><ele>268.66666666666663</ele><time>2026-03-28T11:44:29.998Z</time></trkpt><trkpt lat="43.3645138388453" lon="11.422974441905641"><ele>266.3333333333333</ele><time>2026-03-28T11:44:30.998Z</time></trkpt><trkpt lat="43.36449829686303" lon="11.422700040825056"><ele>264.0</ele><time>2026-03-28T11:44:31.998Z</time></trkpt><trkpt lat="43.36448474154599" lon="11.422415946444406"><ele>264.0</ele><time>2026-03-28T11:44:32.998Z</time></trkpt><trkpt lat="43.36447196168694" lon="11.42214890372226"><ele>264.0</ele><time>2026-03-28T11:44:33.998Z</time></trkpt><trkpt lat="43.36445883209337" lon="11.421890618744722"><ele>264.0</ele><time>2026-03-28T11:44:34.998Z</time></trkpt><trkpt lat="43.364443929930914" lon="11.42165994544191"><ele>262.25</ele><time>2026-03-28T11:44:35.998Z</time></trkpt><trkpt lat="43.364423948722674" lon="11.421465675620276"><ele>260.5</ele><time>2026-03-28T11:44:36.998Z</time></trkpt><trkpt lat="43.36437875774125" lon="11.421283891990447"><ele>258.75</ele><time>2026-03-28T11:44:37.998Z</time></trkpt><trkpt lat="43.36434596753345" lon="11.42109770805099"><ele>257.0</ele><time>2026-03-28T11:44:38.998Z</time></trkpt><trkpt lat="43.3642839946537" lon="11.420913926659802"><ele>256.75</ele><time>2026-03-28T11:44:39.998Z</time></trkpt><trkpt lat="43.364228467061125" lon="11.42071704857152"><ele>256.5</ele><time>2026-03-28T11:44:40.998Z</time></trkpt><trkpt lat="43.364170300273095" lon="11.420524315294044"><ele>256.25</ele><time>2026-03-28T11:44:41.998Z</time></trkpt><trkpt lat="43.364127369726226" lon="11.420341761511144"><ele>256.0</ele><time>2026-03-28T11:44:42.998Z</time></trkpt><trkpt lat="43.3641026960865" lon="11.420175675847336"><ele>255.5</ele><time>2026-03-28T11:44:43.998Z</time></trkpt><trkpt lat="43.36408045276509" lon="11.420000665487715"><ele>255.0</ele><time>2026-03-28T11:44:44.998Z</time></trkpt><trkpt lat="43.364073090259566" lon="11.419785661147701"><ele>254.5</ele><time>2026-03-28T11:44:45.998Z</time></trkpt><trkpt lat="43.364049182928945" lon="11.419581622148991"><ele>254.0</ele><time>2026-03-28T11:44:46.998Z</time></trkpt><trkpt lat="43.36403034457314" lon="11.419378930475208"><ele>253.2</ele><time>2026-03-28T11:44:47.998Z</time></trkpt><trkpt lat="43.364024286065565" lon="11.41919181405235"><ele>252.39999999999998</ele><time>2026-03-28T11:44:48.998Z</time></trkpt><trkpt lat="43.36402413473836" lon="11.419035108898909"><ele>251.6</ele><time>2026-03-28T11:44:49.998Z</time></trkpt><trkpt lat="43.36402359369021" lon="11.418906800768086"><ele>250.8</ele><time>2026-03-28T11:44:50.998Z</time></trkpt><trkpt lat="43.36402292358959" lon="11.418810400710214"><ele>250.0</ele><time>2026-03-28T11:44:51.998Z</time></trkpt><trkpt lat="43.3640395382849" lon="11.418698750348552"><ele>248.8</ele><time>2026-03-28T11:44:53.998Z</time></trkpt><trkpt lat="43.36392677353684" lon="11.418630807395262"><ele>247.6</ele><time>2026-03-28T11:44:54.998Z</time></trkpt><trkpt lat="43.36385764400967" lon="11.418612610859311"><ele>246.39999999999998</ele><time>2026-03-28T11:44:55.998Z</time></trkpt><trkpt lat="43.363791778361815" lon="11.41858480437024"><ele>245.2</ele><time>2026-03-28T11:44:56.998Z</time></trkpt><trkpt lat="43.36372304234994" lon="11.4185260500203"><ele>244.0</ele><time>2026-03-28T11:45:04.998Z</time></trkpt><trkpt lat="43.3636225039771" lon="11.418448694653923"><ele>243.2</ele><time>2026-03-28T11:45:06.998Z</time></trkpt><trkpt lat="43.363539798691285" lon="11.418450102407576"><ele>242.39999999999998</ele><time>2026-03-28T11:45:07.998Z</time></trkpt><trkpt lat="43.36344008895649" lon="11.418450413029928"><ele>241.6</ele><time>2026-03-28T11:45:08.998Z</time></trkpt><trkpt lat="43.36332086710777" lon="11.418468628390972"><ele>240.8</ele><time>2026-03-28T11:45:09.998Z</time></trkpt><trkpt lat="43.36318328707687" lon="11.418453967180756"><ele>240.0</ele><time>2026-03-28T11:45:10.998Z</time></trkpt><trkpt lat="43.363044965496066" lon="11.418436441151984"><ele>239.25</ele><time>2026-03-28T11:45:11.998Z</time></trkpt><trkpt lat="43.362900597842916" lon="11.41840796369725"><ele>238.5</ele><time>2026-03-28T11:45:12.998Z</time></trkpt><trkpt lat="43.362758530585495" lon="11.418361483041963"><ele>237.75</ele><time>2026-03-28T11:45:13.998Z</time></trkpt><trkpt lat="43.36262117461713" lon="11.418316045430188"><ele>237.0</ele><time>2026-03-28T11:45:14.998Z</time></trkpt><trkpt lat="43.36248966342819" lon="11.418249302208196"><ele>237.0</ele><time>2026-03-28T11:45:15.998Z</time></trkpt><trkpt lat="43.36234933924131" lon="11.418223906496925"><ele>237.0</ele><time>2026-03-28T11:45:16.998Z</time></trkpt><trkpt lat="43.362204454874465" lon="11.418272809540632"><ele>237.0</ele><time>2026-03-28T11:45:17.998Z</time></trkpt><trkpt lat="43.36207235648952" lon="11.418376628495785"><ele>237.0</ele><time>2026-03-28T11:45:18.998Z</time></trkpt><trkpt lat="43.361953110131786" lon="11.418525873049397"><ele>237.33333333333331</ele><time>2026-03-28T11:45:19.998Z</time></trkpt><trkpt lat="43.36184623932737" lon="11.418698779409716"><ele>237.66666666666666</ele><time>2026-03-28T11:45:20.998Z</time></trkpt><trkpt lat="43.36174710256223" lon="11.418874689414585"><ele>238.0</ele><time>2026-03-28T11:45:21.998Z</time></trkpt><trkpt lat="43.36164658393619" lon="11.419041310542074"><ele>238.0</ele><time>2026-03-28T11:45:22.998Z</time></trkpt><trkpt lat="43.361487028837374" lon="11.419127657420567"><ele>238.0</ele><time>2026-03-28T11:45:23.998Z</time></trkpt><trkpt lat="43.36131202813233" lon="11.419194332473504"><ele>238.0</ele><time>2026-03-28T11:45:24.998Z</time></trkpt><trkpt lat="43.361132689751194" lon="11.419258829838343"><ele>236.0</ele><time>2026-03-28T11:45:25.998Z</time></trkpt><trkpt lat="43.36092326354458" lon="11.419335267056873"><ele>234.0</ele><time>2026-03-28T11:45:26.998Z</time></trkpt><trkpt lat="43.360712971933815" lon="11.41941202013118"><ele>232.0</ele><time>2026-03-28T11:45:27.998Z</time></trkpt><trkpt lat="43.36052442024676" lon="11.419498329444297"><ele>232.0</ele><time>2026-03-28T11:45:28.998Z</time></trkpt><trkpt lat="43.36032894778036" lon="11.41955764275096"><ele>232.0</ele><time>2026-03-28T11:45:29.998Z</time></trkpt><trkpt lat="43.360141680395834" lon="11.419631126682528"><ele>232.0</ele><time>2026-03-28T11:45:30.998Z</time></trkpt><trkpt lat="43.35996168342121" lon="11.419698381151814"><ele>232.0</ele><time>2026-03-28T11:45:31.998Z</time></trkpt><trkpt lat="43.35979621199174" lon="11.419755348593714"><ele>232.0</ele><time>2026-03-28T11:45:32.999Z</time></trkpt><trkpt lat="43.3596328629253" lon="11.419816304903843"><ele>232.0</ele><time>2026-03-28T11:45:33.999Z</time></trkpt><trkpt lat="43.3594743721325" lon="11.419875082774293"><ele>231.0</ele><time>2026-03-28T11:45:34.998Z</time></trkpt><trkpt lat="43.35933147667925" lon="11.4199305994747"><ele>230.0</ele><time>2026-03-28T11:45:35.998Z</time></trkpt><trkpt lat="43.35920828844419" lon="11.419958385052341"><ele>229.0</ele><time>2026-03-28T11:45:36.998Z</time></trkpt><trkpt lat="43.359093349024995" lon="11.419944506404663"><ele>228.0</ele><time>2026-03-28T11:45:37.998Z</time></trkpt><trkpt lat="43.358993355143674" lon="11.419865169492827"><ele>228.0</ele><time>2026-03-28T11:45:38.998Z</time></trkpt><trkpt lat="43.358893007548964" lon="11.419733318949513"><ele>228.0</ele><time>2026-03-28T11:45:39.998Z</time></trkpt><trkpt lat="43.35878538264734" lon="11.419554531438905"><ele>228.0</ele><time>2026-03-28T11:45:40.998Z</time></trkpt><trkpt lat="43.35867221200524" lon="11.419387784341179"><ele>226.0</ele><time>2026-03-28T11:45:41.998Z</time></trkpt><trkpt lat="43.358556378721545" lon="11.419222026576394"><ele>224.0</ele><time>2026-03-28T11:45:42.998Z</time></trkpt><trkpt lat="43.358433870132096" lon="11.419050322894726"><ele>222.0</ele><time>2026-03-28T11:45:43.998Z</time></trkpt><trkpt lat="43.35831830945993" lon="11.418877568289833"><ele>221.66666666666669</ele><time>2026-03-28T11:45:44.998Z</time></trkpt><trkpt lat="43.35820195858758" lon="11.41869662684125"><ele>221.33333333333334</ele><time>2026-03-28T11:45:45.998Z</time></trkpt><trkpt lat="43.35807906049634" lon="11.418514294167128"><ele>221.0</ele><time>2026-03-28T11:45:46.998Z</time></trkpt><trkpt lat="43.357954950476554" lon="11.41832974635121"><ele>220.66666666666669</ele><time>2026-03-28T11:45:47.998Z</time></trkpt><trkpt lat="43.35784090549619" lon="11.418153246711622"><ele>220.33333333333331</ele><time>2026-03-28T11:45:48.998Z</time></trkpt><trkpt lat="43.35772797957149" lon="11.417978870589451"><ele>220.0</ele><time>2026-03-28T11:45:49.998Z</time></trkpt><trkpt lat="43.35761651941304" lon="11.417808897537222"><ele>220.0</ele><time>2026-03-28T11:45:50.998Z</time></trkpt><trkpt lat="43.35750824333616" lon="11.417639408051615"><ele>220.0</ele><time>2026-03-28T11:45:51.998Z</time></trkpt><trkpt lat="43.357403576111324" lon="11.417476686342122"><ele>220.0</ele><time>2026-03-28T11:45:52.998Z</time></trkpt><trkpt lat="43.35730597923613" lon="11.417324245674271"><ele>220.0</ele><time>2026-03-28T11:45:53.998Z</time></trkpt><trkpt lat="43.357207973619296" lon="11.41718198632632"><ele>220.0</ele><time>2026-03-28T11:45:54.998Z</time></trkpt><trkpt lat="43.357127325967134" lon="11.417019133790385"><ele>220.0</ele><time>2026-03-28T11:45:55.998Z</time></trkpt><trkpt lat="43.35703391409832" lon="11.416887796727751"><ele>220.0</ele><time>2026-03-28T11:45:56.998Z</time></trkpt><trkpt lat="43.35694082917131" lon="11.41675515176918"><ele>219.75</ele><time>2026-03-28T11:45:57.998Z</time></trkpt><trkpt lat="43.35685418286486" lon="11.416618199917174"><ele>219.5</ele><time>2026-03-28T11:45:58.998Z</time></trkpt><trkpt lat="43.35676554191257" lon="11.416494848650977"><ele>219.25</ele><time>2026-03-28T11:45:59.998Z</time></trkpt><trkpt lat="43.35669069261285" lon="11.416374645793082"><ele>219.0</ele><time>2026-03-28T11:46:00.998Z</time></trkpt><trkpt lat="43.3566125849752" lon="11.416241650575827"><ele>219.5</ele><time>2026-03-28T11:46:01.998Z</time></trkpt><trkpt lat="43.356532782070886" lon="11.416109885861818"><ele>220.0</ele><time>2026-03-28T11:46:02.998Z</time></trkpt><trkpt lat="43.35644791221785" lon="11.41598165161681"><ele>220.5</ele><time>2026-03-28T11:46:03.998Z</time></trkpt><trkpt lat="43.3563622971117" lon="11.415873565194127"><ele>221.0</ele><time>2026-03-28T11:46:04.998Z</time></trkpt><trkpt lat="43.356260687928234" lon="11.415797305389175"><ele>221.25</ele><time>2026-03-28T11:46:05.998Z</time></trkpt><trkpt lat="43.35614145923473" lon="11.41575221974308"><ele>221.5</ele><time>2026-03-28T11:46:06.998Z</time></trkpt><trkpt lat="43.3560215288282" lon="11.415798676663831"><ele>221.75</ele><time>2026-03-28T11:46:07.998Z</time></trkpt><trkpt lat="43.35585488711186" lon="11.41578933151188"><ele>222.0</ele><time>2026-03-28T11:46:08.998Z</time></trkpt><trkpt lat="43.35570852598832" lon="11.415834834048844"><ele>222.0</ele><time>2026-03-28T11:46:09.998Z</time></trkpt><trkpt lat="43.35559094370874" lon="11.415876943467318"><ele>222.0</ele><time>2026-03-28T11:46:10.998Z</time></trkpt><trkpt lat="43.355476965682314" lon="11.415932597538186"><ele>222.0</ele><time>2026-03-28T11:46:11.998Z</time></trkpt><trkpt lat="43.35538086838819" lon="11.415999293077709"><ele>222.0</ele><time>2026-03-28T11:46:12.998Z</time></trkpt><trkpt lat="43.35530538894581" lon="11.416156635821904"><ele>223.0</ele><time>2026-03-28T11:46:13.998Z</time></trkpt><trkpt lat="43.35523413210895" lon="11.41615074044731"><ele>224.0</ele><time>2026-03-28T11:46:14.998Z</time></trkpt><trkpt lat="43.35514118840432" lon="11.416121819060617"><ele>225.0</ele><time>2026-03-28T11:46:16.998Z</time></trkpt><trkpt lat="43.35507498671037" lon="11.416132513435581"><ele>226.0</ele><time>2026-03-28T11:46:17.998Z</time></trkpt><trkpt lat="43.35496587143811" lon="11.41611120666358"><ele>227.0</ele><time>2026-03-28T11:46:19.998Z</time></trkpt><trkpt lat="43.35513022747745" lon="11.415862303955912"><ele>227.0</ele><time>2026-03-28T11:46:21.998Z</time></trkpt><trkpt lat="43.3551140476158" lon="11.415742018354587"><ele>227.0</ele><time>2026-03-28T11:46:23.998Z</time></trkpt><trkpt lat="43.355101215501996" lon="11.415646622017753"><ele>227.0</ele><time>2026-03-28T11:46:24.998Z</time></trkpt><trkpt lat="43.35504145240735" lon="11.415505348056055"><ele>227.0</ele><time>2026-03-28T11:46:25.998Z</time></trkpt><trkpt lat="43.35502226343016" lon="11.415382461606589"><ele>227.0</ele><time>2026-03-28T11:46:26.998Z</time></trkpt><trkpt lat="43.35498384130929" lon="11.415199070813625"><ele>225.0</ele><time>2026-03-28T11:46:27.998Z</time></trkpt><trkpt lat="43.353888959380384" lon="11.41608726449758"><ele>224.5</ele><time>2026-03-28T11:46:28.998Z</time></trkpt><trkpt lat="43.35376681915447" lon="11.416071817417272"><ele>224.0</ele><time>2026-03-28T11:46:29.998Z</time></trkpt><trkpt lat="43.35364402586325" lon="11.41605268643395"><ele>223.5</ele><time>2026-03-28T11:46:30.998Z</time></trkpt><trkpt lat="43.35352285618076" lon="11.416027851293368"><ele>223.0</ele><time>2026-03-28T11:46:31.998Z</time></trkpt><trkpt lat="43.353394840507654" lon="11.415983339052376"><ele>223.0</ele><time>2026-03-28T11:46:32.998Z</time></trkpt><trkpt lat="43.35327115605064" lon="11.41594159429233"><ele>223.0</ele><time>2026-03-28T11:46:33.998Z</time></trkpt><trkpt lat="43.35315145055085" lon="11.41589923638136"><ele>223.0</ele><time>2026-03-28T11:46:34.998Z</time></trkpt><trkpt lat="43.35303743558638" lon="11.415861321081193"><ele>223.0</ele><time>2026-03-28T11:46:35.998Z</time></trkpt><trkpt lat="43.352924163967025" lon="11.415829759432123"><ele>223.0</ele><time>2026-03-28T11:46:36.998Z</time></trkpt><trkpt lat="43.35281212832547" lon="11.415799494682087"><ele>223.0</ele><time>2026-03-28T11:46:37.998Z</time></trkpt><trkpt lat="43.35270197163931" lon="11.415766874434743"><ele>223.0</ele><time>2026-03-28T11:46:38.998Z</time></trkpt><trkpt lat="43.35259170654389" lon="11.415740752313882"><ele>223.0</ele><time>2026-03-28T11:46:39.998Z</time></trkpt><trkpt lat="43.35247597497801" lon="11.415705584485597"><ele>223.0</ele><time>2026-03-28T11:46:40.998Z</time></trkpt><trkpt lat="43.35236596807232" lon="11.415678538980018"><ele>223.0</ele><time>2026-03-28T11:46:41.998Z</time></trkpt><trkpt lat="43.352268117356616" lon="11.415626713684587"><ele>223.0</ele><time>2026-03-28T11:46:42.998Z</time></trkpt><trkpt lat="43.35217311676058" lon="11.41559879654269"><ele>223.0</ele><time>2026-03-28T11:46:43.998Z</time></trkpt><trkpt lat="43.35208725305728" lon="11.415575073425549"><ele>223.0</ele><time>2026-03-28T11:46:44.998Z</time></trkpt><trkpt lat="43.35199746139362" lon="11.415568303082646"><ele>222.60000000000002</ele><time>2026-03-28T11:46:45.998Z</time></trkpt><trkpt lat="43.351903770351534" lon="11.415539311270216"><ele>222.20000000000002</ele><time>2026-03-28T11:46:46.998Z</time></trkpt><trkpt lat="43.351815797134584" lon="11.415513452712768"><ele>221.8</ele><time>2026-03-28T11:46:47.998Z</time></trkpt><trkpt lat="43.351714106698644" lon="11.415477442712753"><ele>221.4</ele><time>2026-03-28T11:46:48.998Z</time></trkpt><trkpt lat="43.35161212632423" lon="11.415451961955785"><ele>221.0</ele><time>2026-03-28T11:46:49.998Z</time></trkpt><trkpt lat="43.35151032198775" lon="11.415418514840484"><ele>221.0</ele><time>2026-03-28T11:46:50.998Z</time></trkpt><trkpt lat="43.351405231598896" lon="11.415388688931072"><ele>221.0</ele><time>2026-03-28T11:46:51.998Z</time></trkpt><trkpt lat="43.35130087924689" lon="11.415363356605624"><ele>221.0</ele><time>2026-03-28T11:46:52.998Z</time></trkpt><trkpt lat="43.3511845232482" lon="11.415329466037536"><ele>221.0</ele><time>2026-03-28T11:46:53.998Z</time></trkpt><trkpt lat="43.35105650327781" lon="11.415296067376412"><ele>220.66666666666669</ele><time>2026-03-28T11:46:54.998Z</time></trkpt><trkpt lat="43.35092132907757" lon="11.415256803252916"><ele>220.33333333333331</ele><time>2026-03-28T11:46:55.998Z</time></trkpt><trkpt lat="43.350772399402985" lon="11.415215967993381"><ele>220.0</ele><time>2026-03-28T11:46:56.998Z</time></trkpt><trkpt lat="43.35060309085958" lon="11.415169914131244"><ele>221.5</ele><time>2026-03-28T11:46:57.998Z</time></trkpt><trkpt lat="43.35044959405028" lon="11.415103959660845"><ele>223.0</ele><time>2026-03-28T11:46:58.998Z</time></trkpt><trkpt lat="43.35031449582364" lon="11.415066892399693"><ele>224.5</ele><time>2026-03-28T11:46:59.998Z</time></trkpt><trkpt lat="43.35018418908333" lon="11.41501909666715"><ele>226.0</ele><time>2026-03-28T11:47:00.998Z</time></trkpt><trkpt lat="43.350077995029714" lon="11.414899822294066"><ele>226.0</ele><time>2026-03-28T11:47:01.998Z</time></trkpt><trkpt lat="43.34999462643754" lon="11.414770878048227"><ele>226.0</ele><time>2026-03-28T11:47:02.998Z</time></trkpt><trkpt lat="43.34991259468114" lon="11.414624355046167"><ele>226.0</ele><time>2026-03-28T11:47:03.998Z</time></trkpt><trkpt lat="43.34981399648177" lon="11.414446829275883"><ele>226.0</ele><time>2026-03-28T11:47:04.998Z</time></trkpt><trkpt lat="43.34970598545008" lon="11.414248302868417"><ele>226.33333333333331</ele><time>2026-03-28T11:47:05.998Z</time></trkpt><trkpt lat="43.349608915691896" lon="11.414057763287085"><ele>226.66666666666669</ele><time>2026-03-28T11:47:06.998Z</time></trkpt><trkpt lat="43.34953363701134" lon="11.413881034610803"><ele>227.0</ele><time>2026-03-28T11:47:07.998Z</time></trkpt><trkpt lat="43.34946651169093" lon="11.413691735801883"><ele>227.0</ele><time>2026-03-28T11:47:08.998Z</time></trkpt><trkpt lat="43.349400897692966" lon="11.413500777547897"><ele>227.0</ele><time>2026-03-28T11:47:09.998Z</time></trkpt><trkpt lat="43.34932456734285" lon="11.413304951566541"><ele>227.0</ele><time>2026-03-28T11:47:10.998Z</time></trkpt><trkpt lat="43.34920413035647" lon="11.413118477261065"><ele>226.33333333333334</ele><time>2026-03-28T11:47:11.998Z</time></trkpt><trkpt lat="43.34907270800866" lon="11.412926113799704"><ele>225.66666666666669</ele><time>2026-03-28T11:47:12.998Z</time></trkpt><trkpt lat="43.34891960321545" lon="11.412722556789953"><ele>225.0</ele><time>2026-03-28T11:47:13.998Z</time></trkpt><trkpt lat="43.34881674137831" lon="11.412511844465264"><ele>227.33333333333331</ele><time>2026-03-28T11:47:14.998Z</time></trkpt><trkpt lat="43.34872630723067" lon="11.412307177930106"><ele>229.66666666666666</ele><time>2026-03-28T11:47:15.998Z</time></trkpt><trkpt lat="43.34865016176257" lon="11.412083709191583"><ele>232.0</ele><time>2026-03-28T11:47:16.998Z</time></trkpt><trkpt lat="43.34858284252131" lon="11.411842141118237"><ele>232.0</ele><time>2026-03-28T11:47:17.998Z</time></trkpt><trkpt lat="43.348549205431574" lon="11.411583931495485"><ele>232.0</ele><time>2026-03-28T11:47:18.998Z</time></trkpt><trkpt lat="43.348531360139496" lon="11.411298361820402"><ele>232.0</ele><time>2026-03-28T11:47:19.998Z</time></trkpt><trkpt lat="43.34851141980548" lon="11.411018056954786"><ele>234.0</ele><time>2026-03-28T11:47:20.998Z</time></trkpt><trkpt lat="43.34846063525001" lon="11.410736292457855"><ele>236.0</ele><time>2026-03-28T11:47:21.998Z</time></trkpt><trkpt lat="43.34841134335347" lon="11.410455021227232"><ele>238.0</ele><time>2026-03-28T11:47:22.998Z</time></trkpt><trkpt lat="43.34833915565034" lon="11.410175305376764"><ele>239.0</ele><time>2026-03-28T11:47:23.998Z</time></trkpt><trkpt lat="43.348262137645236" lon="11.409880752993326"><ele>240.0</ele><time>2026-03-28T11:47:24.998Z</time></trkpt><trkpt lat="43.34818537823881" lon="11.40958419452028"><ele>240.0</ele><time>2026-03-28T11:47:25.998Z</time></trkpt><trkpt lat="43.348130316633316" lon="11.409295002949777"><ele>240.0</ele><time>2026-03-28T11:47:26.998Z</time></trkpt><trkpt lat="43.348075395165196" lon="11.409035223300627"><ele>240.0</ele><time>2026-03-28T11:47:27.998Z</time></trkpt><trkpt lat="43.348049397958924" lon="11.408780537710436"><ele>248.0</ele><time>2026-03-28T11:47:28.998Z</time></trkpt><trkpt lat="43.348037163401656" lon="11.408511320897036"><ele>256.0</ele><time>2026-03-28T11:47:29.998Z</time></trkpt><trkpt lat="43.34803046229935" lon="11.408242521745052"><ele>264.0</ele><time>2026-03-28T11:47:30.998Z</time></trkpt><trkpt lat="43.348029645893035" lon="11.407968136040578"><ele>266.0</ele><time>2026-03-28T11:47:31.998Z</time></trkpt><trkpt lat="43.348036473313364" lon="11.407689061050045"><ele>268.0</ele><time>2026-03-28T11:47:32.998Z</time></trkpt><trkpt lat="43.34804757864744" lon="11.407414319988057"><ele>270.0</ele><time>2026-03-28T11:47:33.998Z</time></trkpt><trkpt lat="43.348061776434555" lon="11.407140494475398"><ele>263.0</ele><time>2026-03-28T11:47:34.998Z</time></trkpt><trkpt lat="43.34807828434446" lon="11.406860744082019"><ele>256.0</ele><time>2026-03-28T11:47:35.998Z</time></trkpt><trkpt lat="43.34810619537818" lon="11.40659466413367"><ele>249.0</ele><time>2026-03-28T11:47:36.998Z</time></trkpt><trkpt lat="43.34815641947603" lon="11.406344704445852"><ele>251.33333333333331</ele><time>2026-03-28T11:47:37.998Z</time></trkpt><trkpt lat="43.348224309732316" lon="11.406109839652466"><ele>253.66666666666666</ele><time>2026-03-28T11:47:38.998Z</time></trkpt><trkpt lat="43.34830423970983" lon="11.405854951041421"><ele>256.0</ele><time>2026-03-28T11:47:39.998Z</time></trkpt><trkpt lat="43.34837084431726" lon="11.405599705547383"><ele>259.66666666666663</ele><time>2026-03-28T11:47:40.999Z</time></trkpt><trkpt lat="43.34842168296301" lon="11.40534546936646"><ele>263.3333333333333</ele><time>2026-03-28T11:47:41.999Z</time></trkpt><trkpt lat="43.34845231158464" lon="11.405069044847039"><ele>267.0</ele><time>2026-03-28T11:47:42.998Z</time></trkpt><trkpt lat="43.34847854807145" lon="11.404814948248443"><ele>267.6666666666667</ele><time>2026-03-28T11:47:43.999Z</time></trkpt><trkpt lat="43.348522091662836" lon="11.404584336146844"><ele>268.33333333333337</ele><time>2026-03-28T11:47:44.999Z</time></trkpt><trkpt lat="43.348585322016405" lon="11.404388136764053"><ele>269.0</ele><time>2026-03-28T11:47:45.998Z</time></trkpt><trkpt lat="43.348660828730765" lon="11.404229539294805"><ele>269.0</ele><time>2026-03-28T11:47:46.998Z</time></trkpt><trkpt lat="43.348759043010375" lon="11.404078485362131"><ele>269.0</ele><time>2026-03-28T11:47:47.998Z</time></trkpt><trkpt lat="43.348869688787424" lon="11.403917457467488"><ele>269.0</ele><time>2026-03-28T11:47:48.998Z</time></trkpt><trkpt lat="43.34897351650364" lon="11.403754185344846"><ele>270.0</ele><time>2026-03-28T11:47:49.998Z</time></trkpt><trkpt lat="43.34906506937843" lon="11.403547867912804"><ele>271.0</ele><time>2026-03-28T11:47:50.998Z</time></trkpt><trkpt lat="43.3491112502172" lon="11.403336154886835"><ele>272.0</ele><time>2026-03-28T11:47:51.998Z</time></trkpt><trkpt lat="43.34913500040376" lon="11.403104524753948"><ele>274.33333333333337</ele><time>2026-03-28T11:47:52.998Z</time></trkpt><trkpt lat="43.349155450943414" lon="11.402863038326462"><ele>276.6666666666667</ele><time>2026-03-28T11:47:53.998Z</time></trkpt><trkpt lat="43.349176114417034" lon="11.402606279990064"><ele>279.0</ele><time>2026-03-28T11:47:54.998Z</time></trkpt><trkpt lat="43.3491989239709" lon="11.402350649354993"><ele>281.0</ele><time>2026-03-28T11:47:55.998Z</time></trkpt><trkpt lat="43.34922384781623" lon="11.402120412090309"><ele>283.0</ele><time>2026-03-28T11:47:56.998Z</time></trkpt><trkpt lat="43.34925940009849" lon="11.401930643336362"><ele>285.0</ele><time>2026-03-28T11:47:57.998Z</time></trkpt><trkpt lat="43.34930925311224" lon="11.401774891539"><ele>287.0</ele><time>2026-03-28T11:47:58.998Z</time></trkpt><trkpt lat="43.34936996578858" lon="11.401652338704366"><ele>287.0</ele><time>2026-03-28T11:47:59.998Z</time></trkpt><trkpt lat="43.34945695737565" lon="11.401547320315167"><ele>287.0</ele><time>2026-03-28T11:48:00.998Z</time></trkpt><trkpt lat="43.349576654605926" lon="11.401515895081104"><ele>287.0</ele><time>2026-03-28T11:48:01.998Z</time></trkpt><trkpt lat="43.34970548452859" lon="11.401533761125837"><ele>287.0</ele><time>2026-03-28T11:48:02.998Z</time></trkpt><trkpt lat="43.349841788778164" lon="11.401596510878429"><ele>285.75</ele><time>2026-03-28T11:48:03.998Z</time></trkpt><trkpt lat="43.349948701380875" lon="11.40166996480577"><ele>284.5</ele><time>2026-03-28T11:48:04.998Z</time></trkpt><trkpt lat="43.350063773644635" lon="11.401665342170098"><ele>283.25</ele><time>2026-03-28T11:48:05.998Z</time></trkpt><trkpt lat="43.350166676064774" lon="11.401587894291035"><ele>282.0</ele><time>2026-03-28T11:48:06.998Z</time></trkpt><trkpt lat="43.350246936799124" lon="11.401506362003898"><ele>284.5</ele><time>2026-03-28T11:48:07.998Z</time></trkpt><trkpt lat="43.35025346430002" lon="11.401272722620538"><ele>287.0</ele><time>2026-03-28T11:48:08.998Z</time></trkpt><trkpt lat="43.35017995193971" lon="11.401107868448081"><ele>289.5</ele><time>2026-03-28T11:48:09.998Z</time></trkpt><trkpt lat="43.350070870396316" lon="11.401001940631895"><ele>292.0</ele><time>2026-03-28T11:48:10.998Z</time></trkpt><trkpt lat="43.349971327988804" lon="11.40084670578306"><ele>292.0</ele><time>2026-03-28T11:48:11.998Z</time></trkpt><trkpt lat="43.34984399186771" lon="11.400717146098208"><ele>292.0</ele><time>2026-03-28T11:48:12.998Z</time></trkpt><trkpt lat="43.34968975625047" lon="11.400638343640953"><ele>292.0</ele><time>2026-03-28T11:48:13.998Z</time></trkpt><trkpt lat="43.34952820048207" lon="11.400597774472544"><ele>292.66666666666663</ele><time>2026-03-28T11:48:14.998Z</time></trkpt><trkpt lat="43.34937363317074" lon="11.400642819214271"><ele>293.3333333333333</ele><time>2026-03-28T11:48:15.998Z</time></trkpt><trkpt lat="43.34921429838783" lon="11.400747228082704"><ele>294.0</ele><time>2026-03-28T11:48:16.998Z</time></trkpt><trkpt lat="43.34905476815851" lon="11.40086949916621"><ele>294.0</ele><time>2026-03-28T11:48:17.998Z</time></trkpt><trkpt lat="43.348897651866885" lon="11.40097329897217"><ele>294.0</ele><time>2026-03-28T11:48:18.998Z</time></trkpt><trkpt lat="43.34876107569729" lon="11.401058479523085"><ele>294.0</ele><time>2026-03-28T11:48:19.998Z</time></trkpt><trkpt lat="43.34864467190319" lon="11.40107060945228"><ele>294.0</ele><time>2026-03-28T11:48:20.998Z</time></trkpt><trkpt lat="43.348562933155094" lon="11.401025105790511"><ele>295.5</ele><time>2026-03-28T11:48:21.998Z</time></trkpt><trkpt lat="43.348487945938075" lon="11.400943909131772"><ele>297.0</ele><time>2026-03-28T11:48:22.998Z</time></trkpt><trkpt lat="43.34839052650862" lon="11.40081807366568"><ele>298.5</ele><time>2026-03-28T11:48:23.998Z</time></trkpt><trkpt lat="43.348266791064106" lon="11.400672044382313"><ele>300.0</ele><time>2026-03-28T11:48:24.998Z</time></trkpt><trkpt lat="43.348128879860006" lon="11.400525014407267"><ele>302.3333333333333</ele><time>2026-03-28T11:48:25.998Z</time></trkpt><trkpt lat="43.34798075619451" lon="11.400399008198773"><ele>304.66666666666663</ele><time>2026-03-28T11:48:26.998Z</time></trkpt><trkpt lat="43.34780990047094" lon="11.400315552124354"><ele>307.0</ele><time>2026-03-28T11:48:27.998Z</time></trkpt><trkpt lat="43.34767141384154" lon="11.40023145414324"><ele>307.0</ele><time>2026-03-28T11:48:28.998Z</time></trkpt><trkpt lat="43.34755710691529" lon="11.400142957743519"><ele>307.0</ele><time>2026-03-28T11:48:29.998Z</time></trkpt><trkpt lat="43.347495079297765" lon="11.400038442905657"><ele>307.0</ele><time>2026-03-28T11:48:30.998Z</time></trkpt><trkpt lat="43.347441810838724" lon="11.399937645932901"><ele>307.0</ele><time>2026-03-28T11:48:31.998Z</time></trkpt><trkpt lat="43.34741629874298" lon="11.399825787129377"><ele>307.0</ele><time>2026-03-28T11:48:32.998Z</time></trkpt><trkpt lat="43.34741239888294" lon="11.399708007509842"><ele>307.2</ele><time>2026-03-28T11:48:33.998Z</time></trkpt><trkpt lat="43.347424293485254" lon="11.399581632642882"><ele>307.4</ele><time>2026-03-28T11:48:34.998Z</time></trkpt><trkpt lat="43.347495739349945" lon="11.399505416576874"><ele>307.6</ele><time>2026-03-28T11:48:35.998Z</time></trkpt><trkpt lat="43.34756214440829" lon="11.39940283259845"><ele>307.8</ele><time>2026-03-28T11:48:36.998Z</time></trkpt><trkpt lat="43.34764699333334" lon="11.39931169495872"><ele>308.0</ele><time>2026-03-28T11:48:37.998Z</time></trkpt><trkpt lat="43.34773788974554" lon="11.39923689348544"><ele>308.0</ele><time>2026-03-28T11:48:38.998Z</time></trkpt><trkpt lat="43.34784005639936" lon="11.399166681458816"><ele>308.0</ele><time>2026-03-28T11:48:39.998Z</time></trkpt><trkpt lat="43.347947630912444" lon="11.399106306942718"><ele>308.0</ele><time>2026-03-28T11:48:40.998Z</time></trkpt><trkpt lat="43.34806487370784" lon="11.399065198784923"><ele>308.0</ele><time>2026-03-28T11:48:41.998Z</time></trkpt><trkpt lat="43.3481752838169" lon="11.399030806521031"><ele>308.4</ele><time>2026-03-28T11:48:42.998Z</time></trkpt><trkpt lat="43.348269140822325" lon="11.39901238698431"><ele>308.8</ele><time>2026-03-28T11:48:43.998Z</time></trkpt><trkpt lat="43.34834702133252" lon="11.398994847994057"><ele>309.2</ele><time>2026-03-28T11:48:44.998Z</time></trkpt><trkpt lat="43.348441135765874" lon="11.398963048295467"><ele>309.6</ele><time>2026-03-28T11:48:46.998Z</time></trkpt><trkpt lat="43.348391850843264" lon="11.398799834301245"><ele>310.0</ele><time>2026-03-28T11:48:49.998Z</time></trkpt><trkpt lat="43.34835634213088" lon="11.398709735644035"><ele>309.16666666666663</ele><time>2026-03-28T11:48:50.998Z</time></trkpt><trkpt lat="43.348305927350154" lon="11.398605143219793"><ele>308.3333333333333</ele><time>2026-03-28T11:48:51.998Z</time></trkpt><trkpt lat="43.34824849385601" lon="11.398517687103103"><ele>307.5</ele><time>2026-03-28T11:48:52.998Z</time></trkpt><trkpt lat="43.348184263670774" lon="11.398460044318936"><ele>306.6666666666667</ele><time>2026-03-28T11:48:53.998Z</time></trkpt><trkpt lat="43.34809815295004" lon="11.398447136105244"><ele>305.83333333333337</ele><time>2026-03-28T11:48:54.998Z</time></trkpt><trkpt lat="43.347996877500954" lon="11.398495936006068"><ele>305.0</ele><time>2026-03-28T11:48:55.998Z</time></trkpt><trkpt lat="43.347901935739635" lon="11.398552795533057"><ele>303.5</ele><time>2026-03-28T11:48:56.998Z</time></trkpt><trkpt lat="43.347802973355826" lon="11.39860979524081"><ele>302.0</ele><time>2026-03-28T11:48:57.998Z</time></trkpt><trkpt lat="43.34768083150086" lon="11.398629544677584"><ele>300.5</ele><time>2026-03-28T11:48:58.998Z</time></trkpt><trkpt lat="43.34755055379563" lon="11.398652613244943"><ele>299.0</ele><time>2026-03-28T11:48:59.998Z</time></trkpt><trkpt lat="43.34740671259007" lon="11.398675292437222"><ele>299.0</ele><time>2026-03-28T11:49:00.998Z</time></trkpt><trkpt lat="43.347274053369546" lon="11.398697914783579"><ele>299.0</ele><time>2026-03-28T11:49:01.998Z</time></trkpt><trkpt lat="43.34714349764545" lon="11.39872903482513"><ele>299.0</ele><time>2026-03-28T11:49:02.998Z</time></trkpt><trkpt lat="43.34702644614537" lon="11.398760886314534"><ele>299.0</ele><time>2026-03-28T11:49:03.998Z</time></trkpt><trkpt lat="43.34691156571392" lon="11.398806678418511"><ele>299.75</ele><time>2026-03-28T11:49:04.998Z</time></trkpt><trkpt lat="43.34681846664937" lon="11.39888006036101"><ele>300.5</ele><time>2026-03-28T11:49:05.998Z</time></trkpt><trkpt lat="43.34672769650079" lon="11.398974915123521"><ele>301.25</ele><time>2026-03-28T11:49:06.998Z</time></trkpt><trkpt lat="43.34664017076961" lon="11.399092951108283"><ele>302.0</ele><time>2026-03-28T11:49:07.998Z</time></trkpt><trkpt lat="43.34655284367111" lon="11.399221132820609"><ele>302.0</ele><time>2026-03-28T11:49:08.998Z</time></trkpt><trkpt lat="43.34645316188945" lon="11.399374168481327"><ele>302.0</ele><time>2026-03-28T11:49:09.998Z</time></trkpt><trkpt lat="43.3463600382469" lon="11.399523375097594"><ele>302.0</ele><time>2026-03-28T11:49:10.998Z</time></trkpt><trkpt lat="43.34626658791546" lon="11.399673115182846"><ele>302.0</ele><time>2026-03-28T11:49:11.998Z</time></trkpt><trkpt lat="43.3461783823013" lon="11.39981622258059"><ele>301.25</ele><time>2026-03-28T11:49:12.998Z</time></trkpt><trkpt lat="43.34608795813098" lon="11.39996404134599"><ele>300.5</ele><time>2026-03-28T11:49:13.998Z</time></trkpt><trkpt lat="43.34599862215578" lon="11.400111216199006"><ele>299.75</ele><time>2026-03-28T11:49:14.998Z</time></trkpt><trkpt lat="43.34590679785479" lon="11.400251523643298"><ele>299.0</ele><time>2026-03-28T11:49:15.998Z</time></trkpt><trkpt lat="43.345819243597674" lon="11.400380822546108"><ele>299.0</ele><time>2026-03-28T11:49:16.998Z</time></trkpt><trkpt lat="43.34573623663185" lon="11.40050658556403"><ele>299.0</ele><time>2026-03-28T11:49:17.998Z</time></trkpt><trkpt lat="43.345656817352705" lon="11.400617374800015"><ele>299.0</ele><time>2026-03-28T11:49:18.998Z</time></trkpt><trkpt lat="43.34558782184011" lon="11.400721497585831"><ele>299.0</ele><time>2026-03-28T11:49:19.998Z</time></trkpt><trkpt lat="43.345524170050865" lon="11.400830691009254"><ele>299.0</ele><time>2026-03-28T11:49:20.998Z</time></trkpt><trkpt lat="43.345466090600965" lon="11.40092344648828"><ele>299.0</ele><time>2026-03-28T11:49:21.998Z</time></trkpt><trkpt lat="43.345406404287196" lon="11.40101055323416"><ele>299.0</ele><time>2026-03-28T11:49:22.998Z</time></trkpt><trkpt lat="43.345322266133856" lon="11.401063850176998"><ele>299.0</ele><time>2026-03-28T11:49:23.998Z</time></trkpt><trkpt lat="43.34521320673662" lon="11.401127857715966"><ele>299.0</ele><time>2026-03-28T11:49:24.998Z</time></trkpt><trkpt lat="43.3450997323573" lon="11.401199076560944"><ele>299.0</ele><time>2026-03-28T11:49:25.998Z</time></trkpt><trkpt lat="43.34497440315043" lon="11.401249067630019"><ele>299.0</ele><time>2026-03-28T11:49:26.998Z</time></trkpt><trkpt lat="43.34485571739537" lon="11.401289355267924"><ele>299.0</ele><time>2026-03-28T11:49:27.998Z</time></trkpt><trkpt lat="43.344733044950374" lon="11.401300996577366"><ele>299.0</ele><time>2026-03-28T11:49:28.998Z</time></trkpt><trkpt lat="43.34461279628753" lon="11.401310357966176"><ele>299.0</ele><time>2026-03-28T11:49:29.998Z</time></trkpt><trkpt lat="43.34448604856937" lon="11.4013066558553"><ele>298.5</ele><time>2026-03-28T11:49:30.998Z</time></trkpt><trkpt lat="43.34435985203486" lon="11.401316785041644"><ele>298.0</ele><time>2026-03-28T11:49:31.998Z</time></trkpt><trkpt lat="43.34423931126992" lon="11.40133919630153"><ele>297.5</ele><time>2026-03-28T11:49:32.998Z</time></trkpt><trkpt lat="43.344106939232645" lon="11.401355804726615"><ele>297.0</ele><time>2026-03-28T11:49:33.998Z</time></trkpt><trkpt lat="43.343986115816854" lon="11.401399475073363"><ele>295.75</ele><time>2026-03-28T11:49:34.998Z</time></trkpt><trkpt lat="43.343872764793396" lon="11.401467800072473"><ele>294.5</ele><time>2026-03-28T11:49:35.998Z</time></trkpt><trkpt lat="43.3437554719307" lon="11.40152949820712"><ele>293.25</ele><time>2026-03-28T11:49:36.998Z</time></trkpt><trkpt lat="43.343630461665704" lon="11.401597463278405"><ele>292.0</ele><time>2026-03-28T11:49:37.998Z</time></trkpt><trkpt lat="43.34351690842104" lon="11.401666676135065"><ele>292.0</ele><time>2026-03-28T11:49:38.998Z</time></trkpt><trkpt lat="43.34342328736733" lon="11.401736425684494"><ele>292.0</ele><time>2026-03-28T11:49:39.999Z</time></trkpt><trkpt lat="43.34333606777665" lon="11.401821751430248"><ele>292.0</ele><time>2026-03-28T11:49:40.998Z</time></trkpt><trkpt lat="43.34325282022043" lon="11.40194239511814"><ele>292.0</ele><time>2026-03-28T11:49:41.998Z</time></trkpt><trkpt lat="43.34317590663559" lon="11.402068987673056"><ele>291.25</ele><time>2026-03-28T11:49:42.998Z</time></trkpt><trkpt lat="43.343119572023305" lon="11.402220880160977"><ele>290.5</ele><time>2026-03-28T11:49:43.998Z</time></trkpt><trkpt lat="43.34308262786489" lon="11.402382818659484"><ele>289.75</ele><time>2026-03-28T11:49:44.998Z</time></trkpt><trkpt lat="43.34306256517672" lon="11.40254123451676"><ele>289.0</ele><time>2026-03-28T11:49:45.998Z</time></trkpt><trkpt lat="43.3430539620021" lon="11.402703744575094"><ele>289.0</ele><time>2026-03-28T11:49:46.998Z</time></trkpt><trkpt lat="43.343045750809225" lon="11.402861188862472"><ele>289.0</ele><time>2026-03-28T11:49:47.998Z</time></trkpt><trkpt lat="43.34302453671677" lon="11.403005282894277"><ele>289.0</ele><time>2026-03-28T11:49:48.998Z</time></trkpt><trkpt lat="43.342973949125394" lon="11.403138632447856"><ele>289.0</ele><time>2026-03-28T11:49:49.998Z</time></trkpt><trkpt lat="43.342893048509374" lon="11.40323263537129"><ele>289.0</ele><time>2026-03-28T11:49:50.998Z</time></trkpt><trkpt lat="43.34279802401832" lon="11.403303644223437"><ele>289.0</ele><time>2026-03-28T11:49:51.998Z</time></trkpt><trkpt lat="43.342697143196666" lon="11.403295431635538"><ele>289.0</ele><time>2026-03-28T11:49:52.998Z</time></trkpt><trkpt lat="43.342580298872754" lon="11.403311927093673"><ele>289.0</ele><time>2026-03-28T11:49:53.998Z</time></trkpt><trkpt lat="43.34245762313932" lon="11.403353589645075"><ele>289.0</ele><time>2026-03-28T11:49:54.998Z</time></trkpt><trkpt lat="43.34234417953141" lon="11.403401532879029"><ele>289.0</ele><time>2026-03-28T11:49:55.998Z</time></trkpt><trkpt lat="43.34227719476913" lon="11.403470342482372"><ele>289.0</ele><time>2026-03-28T11:49:56.998Z</time></trkpt><trkpt lat="43.34222227093578" lon="11.403523317814031"><ele>289.0</ele><time>2026-03-28T11:49:57.998Z</time></trkpt><trkpt lat="43.342157630959704" lon="11.403595164841816"><ele>289.0</ele><time>2026-03-28T11:49:59.998Z</time></trkpt><trkpt lat="43.34209484092449" lon="11.403673600645345"><ele>289.0</ele><time>2026-03-28T11:50:01.998Z</time></trkpt><trkpt lat="43.34202839032452" lon="11.40375223177637"><ele>289.0</ele><time>2026-03-28T11:50:03.998Z</time></trkpt><trkpt lat="43.34194731804042" lon="11.403844941311977"><ele>288.0</ele><time>2026-03-28T11:50:05.998Z</time></trkpt><trkpt lat="43.34188904008713" lon="11.403910940238752"><ele>287.0</ele><time>2026-03-28T11:50:06.998Z</time></trkpt><trkpt lat="43.341811923461435" lon="11.404002583835211"><ele>286.0</ele><time>2026-03-28T11:50:07.998Z</time></trkpt><trkpt lat="43.341727047801626" lon="11.404112282462986"><ele>285.0</ele><time>2026-03-28T11:50:08.998Z</time></trkpt><trkpt lat="43.34163481225839" lon="11.404216816975026"><ele>284.0</ele><time>2026-03-28T11:50:09.998Z</time></trkpt><trkpt lat="43.341542022369865" lon="11.40432410397337"><ele>284.0</ele><time>2026-03-28T11:50:10.998Z</time></trkpt><trkpt lat="43.341451846936764" lon="11.40442976251071"><ele>284.0</ele><time>2026-03-28T11:50:11.998Z</time></trkpt><trkpt lat="43.3413648289354" lon="11.404541866608545"><ele>284.0</ele><time>2026-03-28T11:50:12.998Z</time></trkpt><trkpt lat="43.34127785464223" lon="11.404669353969973"><ele>284.0</ele><time>2026-03-28T11:50:13.998Z</time></trkpt><trkpt lat="43.34118632488407" lon="11.404792043896569"><ele>285.5</ele><time>2026-03-28T11:50:14.998Z</time></trkpt><trkpt lat="43.34110364063184" lon="11.40492792400043"><ele>287.0</ele><time>2026-03-28T11:50:15.998Z</time></trkpt><trkpt lat="43.34102955758852" lon="11.40504329034928"><ele>288.5</ele><time>2026-03-28T11:50:16.998Z</time></trkpt><trkpt lat="43.34095230125977" lon="11.405144416878937"><ele>290.0</ele><time>2026-03-28T11:50:17.998Z</time></trkpt><trkpt lat="43.34086272484632" lon="11.405240382131831"><ele>290.0</ele><time>2026-03-28T11:50:18.998Z</time></trkpt><trkpt lat="43.34075199976439" lon="11.40532775175318"><ele>290.0</ele><time>2026-03-28T11:50:19.998Z</time></trkpt><trkpt lat="43.340629794221464" lon="11.405409614049814"><ele>290.0</ele><time>2026-03-28T11:50:20.998Z</time></trkpt><trkpt lat="43.34048278680497" lon="11.40549833204535"><ele>290.0</ele><time>2026-03-28T11:50:21.998Z</time></trkpt><trkpt lat="43.34032863168566" lon="11.405592797028877"><ele>290.0</ele><time>2026-03-28T11:50:22.998Z</time></trkpt><trkpt lat="43.34019364134357" lon="11.405682616383139"><ele>290.0</ele><time>2026-03-28T11:50:23.998Z</time></trkpt><trkpt lat="43.34007221485535" lon="11.405763950312377"><ele>290.0</ele><time>2026-03-28T11:50:24.998Z</time></trkpt><trkpt lat="43.3399590229836" lon="11.405838536478171"><ele>290.0</ele><time>2026-03-28T11:50:25.998Z</time></trkpt><trkpt lat="43.33985555715526" lon="11.405902273948849"><ele>290.0</ele><time>2026-03-28T11:50:26.998Z</time></trkpt><trkpt lat="43.33976637545139" lon="11.405959996529699"><ele>290.0</ele><time>2026-03-28T11:50:27.998Z</time></trkpt><trkpt lat="43.33967915783733" lon="11.406019123097794"><ele>290.0</ele><time>2026-03-28T11:50:28.998Z</time></trkpt><trkpt lat="43.33960625437718" lon="11.4060838725586"><ele>290.0</ele><time>2026-03-28T11:50:29.998Z</time></trkpt><trkpt lat="43.33955100511184" lon="11.406163591084905"><ele>290.0</ele><time>2026-03-28T11:50:30.998Z</time></trkpt><trkpt lat="43.339504142489986" lon="11.406281303248441"><ele>289.25</ele><time>2026-03-28T11:50:31.998Z</time></trkpt><trkpt lat="43.33945345724804" lon="11.406425765951045"><ele>288.5</ele><time>2026-03-28T11:50:32.998Z</time></trkpt><trkpt lat="43.33938709185813" lon="11.406559574947305"><ele>287.75</ele><time>2026-03-28T11:50:33.998Z</time></trkpt><trkpt lat="43.33929628677198" lon="11.406697871646706"><ele>287.0</ele><time>2026-03-28T11:50:34.998Z</time></trkpt><trkpt lat="43.339176309237324" lon="11.406850683762134"><ele>287.0</ele><time>2026-03-28T11:50:35.998Z</time></trkpt><trkpt lat="43.339051649291655" lon="11.406997942387854"><ele>287.0</ele><time>2026-03-28T11:50:36.998Z</time></trkpt><trkpt lat="43.338938424326685" lon="11.407140133687422"><ele>287.0</ele><time>2026-03-28T11:50:37.998Z</time></trkpt><trkpt lat="43.33883376452951" lon="11.407273870239312"><ele>287.5</ele><time>2026-03-28T11:50:38.998Z</time></trkpt><trkpt lat="43.33872501251348" lon="11.407403456501132"><ele>288.0</ele><time>2026-03-28T11:50:39.998Z</time></trkpt><trkpt lat="43.338611055149656" lon="11.4075211737301"><ele>288.5</ele><time>2026-03-28T11:50:40.998Z</time></trkpt><trkpt lat="43.338491464025275" lon="11.407626292027869"><ele>289.0</ele><time>2026-03-28T11:50:41.998Z</time></trkpt><trkpt lat="43.338368735160415" lon="11.407716460699316"><ele>289.0</ele><time>2026-03-28T11:50:42.998Z</time></trkpt><trkpt lat="43.338258276835205" lon="11.407793025259343"><ele>289.0</ele><time>2026-03-28T11:50:43.998Z</time></trkpt><trkpt lat="43.338162036781945" lon="11.407809058727217"><ele>289.0</ele><time>2026-03-28T11:50:44.998Z</time></trkpt><trkpt lat="43.33808263260893" lon="11.40781302480018"><ele>289.0</ele><time>2026-03-28T11:50:45.998Z</time></trkpt><trkpt lat="43.33800875981802" lon="11.407776637737765"><ele>289.0</ele><time>2026-03-28T11:50:46.998Z</time></trkpt><trkpt lat="43.33793613446416" lon="11.407698442176066"><ele>289.5</ele><time>2026-03-28T11:50:47.998Z</time></trkpt><trkpt lat="43.33783760987782" lon="11.407597211515666"><ele>290.0</ele><time>2026-03-28T11:50:48.998Z</time></trkpt><trkpt lat="43.33772027237538" lon="11.407479993700461"><ele>290.5</ele><time>2026-03-28T11:50:49.998Z</time></trkpt><trkpt lat="43.33760196521634" lon="11.407364489204344"><ele>291.0</ele><time>2026-03-28T11:50:50.998Z</time></trkpt><trkpt lat="43.33747902603653" lon="11.407247498056629"><ele>291.0</ele><time>2026-03-28T11:50:51.998Z</time></trkpt><trkpt lat="43.33736134306548" lon="11.407166975139342"><ele>291.0</ele><time>2026-03-28T11:50:52.998Z</time></trkpt><trkpt lat="43.33727035318903" lon="11.40706283062499"><ele>291.0</ele><time>2026-03-28T11:50:53.998Z</time></trkpt><trkpt lat="43.33717114709879" lon="11.406989782639815"><ele>291.0</ele><time>2026-03-28T11:50:54.998Z</time></trkpt><trkpt lat="43.33705043576265" lon="11.406936730330358"><ele>291.25</ele><time>2026-03-28T11:50:55.998Z</time></trkpt><trkpt lat="43.33691126132967" lon="11.406878455187504"><ele>291.5</ele><time>2026-03-28T11:50:56.998Z</time></trkpt><trkpt lat="43.33677380039319" lon="11.406797725338505"><ele>291.75</ele><time>2026-03-28T11:50:57.998Z</time></trkpt><trkpt lat="43.336640185050726" lon="11.406743778641015"><ele>292.0</ele><time>2026-03-28T11:50:58.998Z</time></trkpt><trkpt lat="43.336518389852664" lon="11.406696309445726"><ele>292.0</ele><time>2026-03-28T11:50:59.998Z</time></trkpt><trkpt lat="43.3364014363072" lon="11.406659018349364"><ele>292.0</ele><time>2026-03-28T11:51:00.998Z</time></trkpt><trkpt lat="43.336301038705194" lon="11.406635504791009"><ele>292.0</ele><time>2026-03-28T11:51:01.998Z</time></trkpt><trkpt lat="43.33622124747359" lon="11.406635240281052"><ele>292.0</ele><time>2026-03-28T11:51:02.998Z</time></trkpt><trkpt lat="43.3361553282296" lon="11.40665096261372"><ele>292.0</ele><time>2026-03-28T11:51:03.998Z</time></trkpt><trkpt lat="43.336091582359046" lon="11.40667712975301"><ele>292.0</ele><time>2026-03-28T11:51:04.998Z</time></trkpt><trkpt lat="43.3360269252768" lon="11.406713002172557"><ele>293.16666666666663</ele><time>2026-03-28T11:51:05.998Z</time></trkpt><trkpt lat="43.33596376625991" lon="11.40677308804442"><ele>294.3333333333333</ele><time>2026-03-28T11:51:07.997Z</time></trkpt><trkpt lat="43.33589494120777" lon="11.406852660871502"><ele>295.5</ele><time>2026-03-28T11:51:11.997Z</time></trkpt><trkpt lat="43.335821750230146" lon="11.406939255888092"><ele>296.6666666666667</ele><time>2026-03-28T11:51:14.997Z</time></trkpt><trkpt lat="43.335758189004295" lon="11.40698053687362"><ele>297.83333333333337</ele><time>2026-03-28T11:51:16.997Z</time></trkpt><trkpt lat="43.33570468310789" lon="11.407039337049257"><ele>299.0</ele><time>2026-03-28T11:51:18.997Z</time></trkpt><trkpt lat="43.3356608072085" lon="11.40710382042208"><ele>298.6666666666667</ele><time>2026-03-28T11:51:20.997Z</time></trkpt><trkpt lat="43.33560416835699" lon="11.407165344158733"><ele>298.33333333333337</ele><time>2026-03-28T11:51:23.997Z</time></trkpt><trkpt lat="43.33554377759467" lon="11.40722927581051"><ele>298.0</ele><time>2026-03-28T11:51:26.997Z</time></trkpt><trkpt lat="43.33546153317868" lon="11.40729537948671"><ele>297.6666666666667</ele><time>2026-03-28T11:51:29.997Z</time></trkpt><trkpt lat="43.335382926144256" lon="11.407327281218103"><ele>297.3333333333333</ele><time>2026-03-28T11:51:31.997Z</time></trkpt><trkpt lat="43.3353202049797" lon="11.407341523884677"><ele>297.0</ele><time>2026-03-28T11:51:33.997Z</time></trkpt><trkpt lat="43.3352356824254" lon="11.407368906323885"><ele>297.0</ele><time>2026-03-28T11:51:35.997Z</time></trkpt><trkpt lat="43.335130242535634" lon="11.407391079423757"><ele>297.0</ele><time>2026-03-28T11:51:37.997Z</time></trkpt><trkpt lat="43.335036164058636" lon="11.407418683928274"><ele>297.0</ele><time>2026-03-28T11:51:39.997Z</time></trkpt><trkpt lat="43.33495370401411" lon="11.407442079072156"><ele>297.0</ele><time>2026-03-28T11:51:41.997Z</time></trkpt><trkpt lat="43.33486718073116" lon="11.407453911674912"><ele>297.0</ele><time>2026-03-28T11:51:43.997Z</time></trkpt><trkpt lat="43.33477683480087" lon="11.40746448680722"><ele>295.8333333333333</ele><time>2026-03-28T11:51:45.998Z</time></trkpt><trkpt lat="43.334690306306854" lon="11.407481051623888"><ele>294.6666666666667</ele><time>2026-03-28T11:51:47.999Z</time></trkpt><trkpt lat="43.33459000615744" lon="11.407457617530104"><ele>293.5</ele><time>2026-03-28T11:51:49.998Z</time></trkpt><trkpt lat="43.334506872378356" lon="11.407455522600417"><ele>292.33333333333337</ele><time>2026-03-28T11:51:51.998Z</time></trkpt><trkpt lat="43.334428192367625" lon="11.407450335104219"><ele>291.1666666666667</ele><time>2026-03-28T11:51:53.998Z</time></trkpt><trkpt lat="43.33434780689137" lon="11.407444293014944"><ele>290.0</ele><time>2026-03-28T11:51:55.998Z</time></trkpt><trkpt lat="43.334281464836224" lon="11.407372740832871"><ele>290.0</ele><time>2026-03-28T11:51:57.998Z</time></trkpt><trkpt lat="43.33423883223994" lon="11.407256205160943"><ele>290.0</ele><time>2026-03-28T11:51:59.998Z</time></trkpt><trkpt lat="43.33421862686771" lon="11.407120162144329"><ele>290.0</ele><time>2026-03-28T11:52:01.998Z</time></trkpt><trkpt lat="43.3342111284421" lon="11.407027992740446"><ele>290.0</ele><time>2026-03-28T11:52:02.998Z</time></trkpt><trkpt lat="43.33420299763413" lon="11.406902503718472"><ele>290.0</ele><time>2026-03-28T11:52:03.998Z</time></trkpt><trkpt lat="43.334180259925056" lon="11.406733481495566"><ele>289.75</ele><time>2026-03-28T11:52:04.998Z</time></trkpt><trkpt lat="43.334160969222445" lon="11.406550698296197"><ele>289.5</ele><time>2026-03-28T11:52:05.998Z</time></trkpt><trkpt lat="43.334134242381936" lon="11.406368179343973"><ele>289.25</ele><time>2026-03-28T11:52:06.998Z</time></trkpt><trkpt lat="43.33411340580877" lon="11.406197006419351"><ele>289.0</ele><time>2026-03-28T11:52:07.998Z</time></trkpt><trkpt lat="43.334092294019094" lon="11.406043251116593"><ele>288.25</ele><time>2026-03-28T11:52:08.998Z</time></trkpt><trkpt lat="43.33408257422902" lon="11.405893764532893"><ele>287.5</ele><time>2026-03-28T11:52:09.998Z</time></trkpt><trkpt lat="43.33409089228716" lon="11.405718215045345"><ele>286.75</ele><time>2026-03-28T11:52:10.998Z</time></trkpt><trkpt lat="43.334112752522266" lon="11.405509206923368"><ele>286.0</ele><time>2026-03-28T11:52:11.998Z</time></trkpt><trkpt lat="43.3341322840093" lon="11.405269722105698"><ele>284.66666666666663</ele><time>2026-03-28T11:52:12.998Z</time></trkpt><trkpt lat="43.33415424863756" lon="11.405036309440458"><ele>283.3333333333333</ele><time>2026-03-28T11:52:13.998Z</time></trkpt><trkpt lat="43.33417118247628" lon="11.404822943135983"><ele>282.0</ele><time>2026-03-28T11:52:14.998Z</time></trkpt><trkpt lat="43.334187840703855" lon="11.404628858701981"><ele>282.0</ele><time>2026-03-28T11:52:15.998Z</time></trkpt><trkpt lat="43.334201640615035" lon="11.404455685920464"><ele>282.0</ele><time>2026-03-28T11:52:16.998Z</time></trkpt><trkpt lat="43.33420931791835" lon="11.404311561168258"><ele>282.0</ele><time>2026-03-28T11:52:17.998Z</time></trkpt><trkpt lat="43.33421669254424" lon="11.404198450885323"><ele>282.0</ele><time>2026-03-28T11:52:18.998Z</time></trkpt><trkpt lat="43.33418337677276" lon="11.404057335655205"><ele>282.0</ele><time>2026-03-28T11:52:20.998Z</time></trkpt><trkpt lat="43.33408959411752" lon="11.403974137317796"><ele>282.0</ele><time>2026-03-28T11:52:22.998Z</time></trkpt><trkpt lat="43.33399798724578" lon="11.403982253055425"><ele>282.0</ele><time>2026-03-28T11:52:23.998Z</time></trkpt><trkpt lat="43.33391779537068" lon="11.404089131575141"><ele>282.0</ele><time>2026-03-28T11:52:24.998Z</time></trkpt><trkpt lat="43.333809785544716" lon="11.404124171232187"><ele>282.0</ele><time>2026-03-28T11:52:25.998Z</time></trkpt><trkpt lat="43.33368820359948" lon="11.404186063103136"><ele>282.0</ele><time>2026-03-28T11:52:26.998Z</time></trkpt><trkpt lat="43.33354463009788" lon="11.404259181951153"><ele>281.75</ele><time>2026-03-28T11:52:27.998Z</time></trkpt><trkpt lat="43.33340955502171" lon="11.404327689454142"><ele>281.5</ele><time>2026-03-28T11:52:28.998Z</time></trkpt><trkpt lat="43.333288001483744" lon="11.404387353729097"><ele>281.25</ele><time>2026-03-28T11:52:29.998Z</time></trkpt><trkpt lat="43.33316807840829" lon="11.404446035449435"><ele>281.0</ele><time>2026-03-28T11:52:30.998Z</time></trkpt><trkpt lat="43.3330528491471" lon="11.404530423300704"><ele>281.0</ele><time>2026-03-28T11:52:31.998Z</time></trkpt><trkpt lat="43.33292608149027" lon="11.404575133212008"><ele>281.0</ele><time>2026-03-28T11:52:32.998Z</time></trkpt><trkpt lat="43.33280043811641" lon="11.404643435148104"><ele>281.0</ele><time>2026-03-28T11:52:33.998Z</time></trkpt><trkpt lat="43.332677535075554" lon="11.404716151115787"><ele>281.0</ele><time>2026-03-28T11:52:34.998Z</time></trkpt><trkpt lat="43.33254994275907" lon="11.404780237869437"><ele>280.25</ele><time>2026-03-28T11:52:35.998Z</time></trkpt><trkpt lat="43.33242508685192" lon="11.404847739126652"><ele>279.5</ele><time>2026-03-28T11:52:36.998Z</time></trkpt><trkpt lat="43.332302848453566" lon="11.404913832597188"><ele>278.75</ele><time>2026-03-28T11:52:37.998Z</time></trkpt><trkpt lat="43.33218450756295" lon="11.404967602469894"><ele>278.0</ele><time>2026-03-28T11:52:38.998Z</time></trkpt><trkpt lat="43.33207531380228" lon="11.405014231360854"><ele>278.0</ele><time>2026-03-28T11:52:39.998Z</time></trkpt><trkpt lat="43.33197702335719" lon="11.40506380579429"><ele>278.0</ele><time>2026-03-28T11:52:40.998Z</time></trkpt><trkpt lat="43.33187368640699" lon="11.405120895541696"><ele>278.0</ele><time>2026-03-28T11:52:41.998Z</time></trkpt><trkpt lat="43.33175924184269" lon="11.405181226345018"><ele>278.0</ele><time>2026-03-28T11:52:42.998Z</time></trkpt><trkpt lat="43.33162466527414" lon="11.405224845931277"><ele>278.0</ele><time>2026-03-28T11:52:43.998Z</time></trkpt><trkpt lat="43.33148844254543" lon="11.40527289760994"><ele>278.0</ele><time>2026-03-28T11:52:44.998Z</time></trkpt><trkpt lat="43.33133539226266" lon="11.4052932368936"><ele>278.0</ele><time>2026-03-28T11:52:45.998Z</time></trkpt><trkpt lat="43.33119161186537" lon="11.405329986502887"><ele>278.0</ele><time>2026-03-28T11:52:46.998Z</time></trkpt><trkpt lat="43.33105830695936" lon="11.405373661503926"><ele>276.5</ele><time>2026-03-28T11:52:47.998Z</time></trkpt><trkpt lat="43.33092077084423" lon="11.4054040578661"><ele>275.0</ele><time>2026-03-28T11:52:48.998Z</time></trkpt><trkpt lat="43.330788855557564" lon="11.405447680650289"><ele>273.5</ele><time>2026-03-28T11:52:49.998Z</time></trkpt><trkpt lat="43.330659010474996" lon="11.405486683087899"><ele>272.0</ele><time>2026-03-28T11:52:50.998Z</time></trkpt><trkpt lat="43.33054339063175" lon="11.405527231940908"><ele>270.0</ele><time>2026-03-28T11:52:51.998Z</time></trkpt><trkpt lat="43.330419086367726" lon="11.405573242927954"><ele>268.0</ele><time>2026-03-28T11:52:52.998Z</time></trkpt><trkpt lat="43.33029084667719" lon="11.405634146755556"><ele>266.0</ele><time>2026-03-28T11:52:53.998Z</time></trkpt><trkpt lat="43.33015800166776" lon="11.405695173985986"><ele>264.0</ele><time>2026-03-28T11:52:54.998Z</time></trkpt><trkpt lat="43.330028949347955" lon="11.405766194638469"><ele>264.0</ele><time>2026-03-28T11:52:55.998Z</time></trkpt><trkpt lat="43.329903994967644" lon="11.405841099734701"><ele>264.0</ele><time>2026-03-28T11:52:56.998Z</time></trkpt><trkpt lat="43.329775329369795" lon="11.405924960240608"><ele>264.0</ele><time>2026-03-28T11:52:57.998Z</time></trkpt><trkpt lat="43.3296529901189" lon="11.406021617338311"><ele>264.0</ele><time>2026-03-28T11:52:58.998Z</time></trkpt><trkpt lat="43.32953294944808" lon="11.406129613130112"><ele>262.3333333333333</ele><time>2026-03-28T11:52:59.998Z</time></trkpt><trkpt lat="43.329413507944345" lon="11.406265371577367"><ele>260.66666666666663</ele><time>2026-03-28T11:53:00.998Z</time></trkpt><trkpt lat="43.329289257835725" lon="11.406422534100079"><ele>259.0</ele><time>2026-03-28T11:53:01.998Z</time></trkpt><trkpt lat="43.32916420011628" lon="11.406581256511132"><ele>258.66666666666663</ele><time>2026-03-28T11:53:02.998Z</time></trkpt><trkpt lat="43.329044182466205" lon="11.406735659615098"><ele>258.3333333333333</ele><time>2026-03-28T11:53:03.998Z</time></trkpt><trkpt lat="43.32891152554103" lon="11.406870054360311"><ele>258.0</ele><time>2026-03-28T11:53:04.998Z</time></trkpt><trkpt lat="43.32880131076919" lon="11.40703033584031"><ele>256.3333333333333</ele><time>2026-03-28T11:53:05.998Z</time></trkpt><trkpt lat="43.32867787528627" lon="11.407173991983562"><ele>254.66666666666666</ele><time>2026-03-28T11:53:06.998Z</time></trkpt><trkpt lat="43.328554181179534" lon="11.407318083188782"><ele>253.0</ele><time>2026-03-28T11:53:07.998Z</time></trkpt><trkpt lat="43.32842631439042" lon="11.407470815669289"><ele>253.0</ele><time>2026-03-28T11:53:08.998Z</time></trkpt><trkpt lat="43.32829470442496" lon="11.407605614294942"><ele>253.0</ele><time>2026-03-28T11:53:09.998Z</time></trkpt><trkpt lat="43.32817021904575" lon="11.407754325107865"><ele>253.0</ele><time>2026-03-28T11:53:10.998Z</time></trkpt><trkpt lat="43.32804221674551" lon="11.40790802804836"><ele>253.0</ele><time>2026-03-28T11:53:11.998Z</time></trkpt><trkpt lat="43.3279237722623" lon="11.408050253914404"><ele>253.0</ele><time>2026-03-28T11:53:12.998Z</time></trkpt><trkpt lat="43.32781532468892" lon="11.40817777386365"><ele>253.0</ele><time>2026-03-28T11:53:13.998Z</time></trkpt><trkpt lat="43.32770522763617" lon="11.408304353133115"><ele>253.0</ele><time>2026-03-28T11:53:14.998Z</time></trkpt><trkpt lat="43.32759093725211" lon="11.408433344208717"><ele>253.0</ele><time>2026-03-28T11:53:15.998Z</time></trkpt><trkpt lat="43.327475676911796" lon="11.408563920467222"><ele>253.0</ele><time>2026-03-28T11:53:16.998Z</time></trkpt><trkpt lat="43.32736324572574" lon="11.408691841770976"><ele>253.0</ele><time>2026-03-28T11:53:17.998Z</time></trkpt><trkpt lat="43.32725778796811" lon="11.408811828585126"><ele>253.0</ele><time>2026-03-28T11:53:18.998Z</time></trkpt><trkpt lat="43.32716591183073" lon="11.40891700183921"><ele>251.25</ele><time>2026-03-28T11:53:19.998Z</time></trkpt><trkpt lat="43.32708124571493" lon="11.409021644448028"><ele>249.5</ele><time>2026-03-28T11:53:20.998Z</time></trkpt><trkpt lat="43.32700990176882" lon="11.409151591923619"><ele>247.75</ele><time>2026-03-28T11:53:21.998Z</time></trkpt><trkpt lat="43.326914477682536" lon="11.409248294589688"><ele>246.0</ele><time>2026-03-28T11:53:22.998Z</time></trkpt><trkpt lat="43.32683335402838" lon="11.409385371912448"><ele>246.0</ele><time>2026-03-28T11:53:23.998Z</time></trkpt><trkpt lat="43.32676192198197" lon="11.409531735850624"><ele>246.0</ele><time>2026-03-28T11:53:24.998Z</time></trkpt><trkpt lat="43.326673244609005" lon="11.40966471670462"><ele>246.0</ele><time>2026-03-28T11:53:25.998Z</time></trkpt><trkpt lat="43.326566829747506" lon="11.409778134274783"><ele>246.0</ele><time>2026-03-28T11:53:26.998Z</time></trkpt><trkpt lat="43.32646317927269" lon="11.40988633126785"><ele>245.4</ele><time>2026-03-28T11:53:27.998Z</time></trkpt><trkpt lat="43.32636738085175" lon="11.409985899473192"><ele>244.8</ele><time>2026-03-28T11:53:28.998Z</time></trkpt><trkpt lat="43.326276976018974" lon="11.410078934634445"><ele>244.20000000000002</ele><time>2026-03-28T11:53:29.998Z</time></trkpt><trkpt lat="43.32620672863908" lon="11.41017181606553"><ele>243.60000000000002</ele><time>2026-03-28T11:53:30.998Z</time></trkpt><trkpt lat="43.3261360805246" lon="11.410246085495807"><ele>243.0</ele><time>2026-03-28T11:53:31.998Z</time></trkpt><trkpt lat="43.32607774735255" lon="11.410318213791687"><ele>243.0</ele><time>2026-03-28T11:53:32.998Z</time></trkpt><trkpt lat="43.32602207060028" lon="11.41036171182304"><ele>243.0</ele><time>2026-03-28T11:53:33.998Z</time></trkpt><trkpt lat="43.3259165924948" lon="11.410186064761463"><ele>243.0</ele><time>2026-03-28T11:53:36.998Z</time></trkpt><trkpt lat="43.32587452207674" lon="11.410071376841993"><ele>243.0</ele><time>2026-03-28T11:53:37.998Z</time></trkpt><trkpt lat="43.325822721670875" lon="11.409954451910348"><ele>243.0</ele><time>2026-03-28T11:53:38.998Z</time></trkpt><trkpt lat="43.325799266029364" lon="11.409832115267697"><ele>243.0</ele><time>2026-03-28T11:53:39.998Z</time></trkpt><trkpt lat="43.32579646886658" lon="11.409730919005444"><ele>243.0</ele><time>2026-03-28T11:53:40.998Z</time></trkpt><trkpt lat="43.32580705338577" lon="11.409645292510112"><ele>243.0</ele><time>2026-03-28T11:53:41.998Z</time></trkpt><trkpt lat="43.32582085571691" lon="11.409501725389184"><ele>243.0</ele><time>2026-03-28T11:53:43.998Z</time></trkpt><trkpt lat="43.325846103063704" lon="11.409341501312829"><ele>243.0</ele><time>2026-03-28T11:53:45.998Z</time></trkpt><trkpt lat="43.3258513839007" lon="11.4092321405131"><ele>243.0</ele><time>2026-03-28T11:53:46.998Z</time></trkpt><trkpt lat="43.32584624096286" lon="11.409068700297068"><ele>240.33333333333331</ele><time>2026-03-28T11:53:47.998Z</time></trkpt><trkpt lat="43.325812755721486" lon="11.408843057902805"><ele>237.66666666666666</ele><time>2026-03-28T11:53:48.998Z</time></trkpt><trkpt lat="43.32578329666761" lon="11.408587444183732"><ele>235.0</ele><time>2026-03-28T11:53:49.998Z</time></trkpt><trkpt lat="43.32575394888541" lon="11.408319337313017"><ele>233.66666666666666</ele><time>2026-03-28T11:53:50.998Z</time></trkpt><trkpt lat="43.32572081834342" lon="11.408037440913178"><ele>232.33333333333331</ele><time>2026-03-28T11:53:51.998Z</time></trkpt><trkpt lat="43.32570593878532" lon="11.407745266235418"><ele>231.0</ele><time>2026-03-28T11:53:52.998Z</time></trkpt><trkpt lat="43.32565982774246" lon="11.407467290070239"><ele>229.66666666666669</ele><time>2026-03-28T11:53:53.998Z</time></trkpt><trkpt lat="43.325629685361726" lon="11.407196718351857"><ele>228.33333333333334</ele><time>2026-03-28T11:53:54.998Z</time></trkpt><trkpt lat="43.32561577685246" lon="11.40694673586071"><ele>227.0</ele><time>2026-03-28T11:53:55.997Z</time></trkpt><trkpt lat="43.32556243056919" lon="11.406721643134716"><ele>225.66666666666669</ele><time>2026-03-28T11:53:56.997Z</time></trkpt><trkpt lat="43.325463412260866" lon="11.406513095467334"><ele>224.33333333333331</ele><time>2026-03-28T11:53:57.998Z</time></trkpt><trkpt lat="43.32535517166384" lon="11.406273633271796"><ele>223.0</ele><time>2026-03-28T11:53:58.998Z</time></trkpt><trkpt lat="43.325246730332374" lon="11.406047847392905"><ele>221.0</ele><time>2026-03-28T11:53:59.998Z</time></trkpt><trkpt lat="43.32517041688727" lon="11.405828951503006"><ele>219.0</ele><time>2026-03-28T11:54:00.998Z</time></trkpt><trkpt lat="43.32510103899017" lon="11.405590211553616"><ele>217.0</ele><time>2026-03-28T11:54:01.998Z</time></trkpt><trkpt lat="43.32504284275368" lon="11.405355150794826"><ele>216.33333333333331</ele><time>2026-03-28T11:54:02.998Z</time></trkpt><trkpt lat="43.32499532496155" lon="11.40511235403297"><ele>215.66666666666669</ele><time>2026-03-28T11:54:03.998Z</time></trkpt><trkpt lat="43.32495633068341" lon="11.404866501620534"><ele>215.0</ele><time>2026-03-28T11:54:04.998Z</time></trkpt><trkpt lat="43.32494826231651" lon="11.40461368657009"><ele>214.66666666666669</ele><time>2026-03-28T11:54:05.998Z</time></trkpt><trkpt lat="43.32494673984265" lon="11.404378810793903"><ele>214.33333333333331</ele><time>2026-03-28T11:54:06.998Z</time></trkpt><trkpt lat="43.324946236077196" lon="11.404173089188095"><ele>214.0</ele><time>2026-03-28T11:54:07.998Z</time></trkpt><trkpt lat="43.32493573269505" lon="11.403992835733467"><ele>214.0</ele><time>2026-03-28T11:54:08.998Z</time></trkpt><trkpt lat="43.32495562222986" lon="11.403833659146136"><ele>214.0</ele><time>2026-03-28T11:54:09.998Z</time></trkpt><trkpt lat="43.32494720217625" lon="11.403666458751898"><ele>214.0</ele><time>2026-03-28T11:54:10.998Z</time></trkpt><trkpt lat="43.324958842379814" lon="11.403495181631207"><ele>214.0</ele><time>2026-03-28T11:54:11.998Z</time></trkpt><trkpt lat="43.32496968954585" lon="11.403318373646497"><ele>213.33333333333331</ele><time>2026-03-28T11:54:12.998Z</time></trkpt><trkpt lat="43.32498657067191" lon="11.403128716410903"><ele>212.66666666666669</ele><time>2026-03-28T11:54:13.998Z</time></trkpt><trkpt lat="43.32501497547529" lon="11.40291631788717"><ele>212.0</ele><time>2026-03-28T11:54:14.998Z</time></trkpt><trkpt lat="43.32503455325885" lon="11.402668994845115"><ele>213.33333333333334</ele><time>2026-03-28T11:54:15.998Z</time></trkpt><trkpt lat="43.32505383923202" lon="11.402413313252714"><ele>214.66666666666669</ele><time>2026-03-28T11:54:16.998Z</time></trkpt><trkpt lat="43.32507680678742" lon="11.402161175642698"><ele>216.0</ele><time>2026-03-28T11:54:17.998Z</time></trkpt><trkpt lat="43.325090446263424" lon="11.401900005545434"><ele>219.33333333333331</ele><time>2026-03-28T11:54:18.998Z</time></trkpt><trkpt lat="43.32509424541067" lon="11.401633942416499"><ele>222.66666666666666</ele><time>2026-03-28T11:54:19.998Z</time></trkpt><trkpt lat="43.325088746374625" lon="11.401377306956974"><ele>226.0</ele><time>2026-03-28T11:54:20.998Z</time></trkpt><trkpt lat="43.32507965557743" lon="11.401153452318262"><ele>227.25</ele><time>2026-03-28T11:54:21.998Z</time></trkpt><trkpt lat="43.32507061326063" lon="11.400966744277715"><ele>228.5</ele><time>2026-03-28T11:54:22.998Z</time></trkpt><trkpt lat="43.32507425504068" lon="11.400792199105668"><ele>229.75</ele><time>2026-03-28T11:54:23.998Z</time></trkpt><trkpt lat="43.3250944302652" lon="11.40063647261364"><ele>231.0</ele><time>2026-03-28T11:54:24.998Z</time></trkpt><trkpt lat="43.32511879457005" lon="11.40047083759998"><ele>232.25</ele><time>2026-03-28T11:54:25.998Z</time></trkpt><trkpt lat="43.325145578339296" lon="11.40029080723922"><ele>233.5</ele><time>2026-03-28T11:54:26.998Z</time></trkpt><trkpt lat="43.325167094520616" lon="11.400099844347967"><ele>234.75</ele><time>2026-03-28T11:54:27.998Z</time></trkpt><trkpt lat="43.325171738085814" lon="11.399902038519222"><ele>236.0</ele><time>2026-03-28T11:54:28.998Z</time></trkpt><trkpt lat="43.32516023158011" lon="11.399695821438034"><ele>237.66666666666669</ele><time>2026-03-28T11:54:29.998Z</time></trkpt><trkpt lat="43.325137689008464" lon="11.399486296941376"><ele>239.33333333333331</ele><time>2026-03-28T11:54:30.998Z</time></trkpt><trkpt lat="43.32514147019241" lon="11.39928210168273"><ele>241.0</ele><time>2026-03-28T11:54:31.998Z</time></trkpt><trkpt lat="43.32512896498034" lon="11.399079945179604"><ele>241.0</ele><time>2026-03-28T11:54:32.998Z</time></trkpt><trkpt lat="43.32511681206122" lon="11.398883483776727"><ele>241.0</ele><time>2026-03-28T11:54:33.998Z</time></trkpt><trkpt lat="43.32510516965023" lon="11.398686704862758"><ele>241.0</ele><time>2026-03-28T11:54:34.998Z</time></trkpt><trkpt lat="43.32508922898593" lon="11.398496103712075"><ele>241.0</ele><time>2026-03-28T11:54:35.998Z</time></trkpt><trkpt lat="43.32507801474057" lon="11.39830652573256"><ele>242.5</ele><time>2026-03-28T11:54:36.998Z</time></trkpt><trkpt lat="43.325071500444416" lon="11.398113583415352"><ele>244.0</ele><time>2026-03-28T11:54:37.998Z</time></trkpt><trkpt lat="43.32507609690476" lon="11.397927392634776"><ele>245.5</ele><time>2026-03-28T11:54:38.998Z</time></trkpt><trkpt lat="43.32510352715388" lon="11.397758642806679"><ele>247.0</ele><time>2026-03-28T11:54:39.998Z</time></trkpt><trkpt lat="43.32514865331221" lon="11.397591121633555"><ele>247.0</ele><time>2026-03-28T11:54:40.998Z</time></trkpt><trkpt lat="43.32522486144578" lon="11.397442740766536"><ele>247.0</ele><time>2026-03-28T11:54:41.998Z</time></trkpt><trkpt lat="43.3252927580525" lon="11.397259069510344"><ele>247.0</ele><time>2026-03-28T11:54:42.998Z</time></trkpt><trkpt lat="43.32534946566019" lon="11.3970300766433"><ele>247.0</ele><time>2026-03-28T11:54:43.998Z</time></trkpt><trkpt lat="43.3254169614642" lon="11.396802418647724"><ele>247.0</ele><time>2026-03-28T11:54:44.998Z</time></trkpt><trkpt lat="43.325476600230054" lon="11.396603364121061"><ele>247.0</ele><time>2026-03-28T11:54:45.998Z</time></trkpt><trkpt lat="43.32553456035742" lon="11.396398774327555"><ele>248.0</ele><time>2026-03-28T11:54:46.998Z</time></trkpt><trkpt lat="43.3256070951136" lon="11.396210877814896"><ele>249.0</ele><time>2026-03-28T11:54:47.998Z</time></trkpt><trkpt lat="43.325662502742695" lon="11.39600907375843"><ele>250.0</ele><time>2026-03-28T11:54:48.998Z</time></trkpt><trkpt lat="43.32570484618186" lon="11.395781532911057"><ele>250.0</ele><time>2026-03-28T11:54:49.998Z</time></trkpt><trkpt lat="43.325711878692374" lon="11.395550348228486"><ele>250.0</ele><time>2026-03-28T11:54:50.998Z</time></trkpt><trkpt lat="43.325705999269815" lon="11.39531450729535"><ele>250.0</ele><time>2026-03-28T11:54:51.998Z</time></trkpt><trkpt lat="43.3257005903356" lon="11.39509918995929"><ele>250.66666666666666</ele><time>2026-03-28T11:54:52.998Z</time></trkpt><trkpt lat="43.32569979122785" lon="11.394890224066257"><ele>251.33333333333331</ele><time>2026-03-28T11:54:53.998Z</time></trkpt><trkpt lat="43.3256929727298" lon="11.394678775627428"><ele>252.0</ele><time>2026-03-28T11:54:54.998Z</time></trkpt><trkpt lat="43.32565675829029" lon="11.394439921740528"><ele>253.0</ele><time>2026-03-28T11:54:55.998Z</time></trkpt><trkpt lat="43.32559796026407" lon="11.394214400721816"><ele>254.0</ele><time>2026-03-28T11:54:56.998Z</time></trkpt><trkpt lat="43.32551517942981" lon="11.393998960010626"><ele>255.0</ele><time>2026-03-28T11:54:57.998Z</time></trkpt><trkpt lat="43.325451764468795" lon="11.39376724019505"><ele>256.6666666666667</ele><time>2026-03-28T11:54:58.998Z</time></trkpt><trkpt lat="43.32538274911698" lon="11.393529881492674"><ele>258.33333333333337</ele><time>2026-03-28T11:54:59.998Z</time></trkpt><trkpt lat="43.325318570985" lon="11.393315889990667"><ele>260.0</ele><time>2026-03-28T11:55:00.998Z</time></trkpt><trkpt lat="43.32525424215375" lon="11.393118180528244"><ele>261.0</ele><time>2026-03-28T11:55:01.998Z</time></trkpt><trkpt lat="43.32519574995796" lon="11.392941716795116"><ele>262.0</ele><time>2026-03-28T11:55:02.998Z</time></trkpt><trkpt lat="43.32514663794678" lon="11.392789960925686"><ele>263.0</ele><time>2026-03-28T11:55:03.998Z</time></trkpt><trkpt lat="43.32510240799006" lon="11.392656374782096"><ele>264.0</ele><time>2026-03-28T11:55:04.998Z</time></trkpt><trkpt lat="43.325042737621715" lon="11.392559835119089"><ele>264.0</ele><time>2026-03-28T11:55:05.998Z</time></trkpt><trkpt lat="43.32496344004846" lon="11.3924892481791"><ele>264.0</ele><time>2026-03-28T11:55:06.998Z</time></trkpt><trkpt lat="43.32483165819409" lon="11.392501246934769"><ele>264.0</ele><time>2026-03-28T11:55:07.998Z</time></trkpt><trkpt lat="43.3246993057364" lon="11.392555238357257"><ele>264.0</ele><time>2026-03-28T11:55:08.998Z</time></trkpt><trkpt lat="43.32455133409664" lon="11.392547292633052"><ele>264.25</ele><time>2026-03-28T11:55:09.998Z</time></trkpt><trkpt lat="43.32443269816366" lon="11.392522905489303"><ele>264.5</ele><time>2026-03-28T11:55:10.998Z</time></trkpt><trkpt lat="43.32430573265551" lon="11.392453003335838"><ele>264.75</ele><time>2026-03-28T11:55:11.998Z</time></trkpt><trkpt lat="43.32418288325993" lon="11.392395148869905"><ele>265.0</ele><time>2026-03-28T11:55:12.998Z</time></trkpt><trkpt lat="43.32406209340978" lon="11.392367605850987"><ele>265.0</ele><time>2026-03-28T11:55:13.998Z</time></trkpt><trkpt lat="43.32394508972472" lon="11.392318726386039"><ele>265.0</ele><time>2026-03-28T11:55:14.998Z</time></trkpt><trkpt lat="43.323811275473965" lon="11.392275593923861"><ele>265.0</ele><time>2026-03-28T11:55:15.998Z</time></trkpt><trkpt lat="43.32366258276582" lon="11.392221214751059"><ele>265.0</ele><time>2026-03-28T11:55:16.998Z</time></trkpt><trkpt lat="43.32351674798918" lon="11.392168335068758"><ele>263.0</ele><time>2026-03-28T11:55:17.998Z</time></trkpt><trkpt lat="43.32338158629563" lon="11.392127013956024"><ele>261.0</ele><time>2026-03-28T11:55:18.998Z</time></trkpt><trkpt lat="43.32324270654343" lon="11.392100214520305"><ele>259.0</ele><time>2026-03-28T11:55:19.998Z</time></trkpt><trkpt lat="43.323113851081025" lon="11.392086880364099"><ele>257.0</ele><time>2026-03-28T11:55:20.998Z</time></trkpt><trkpt lat="43.32300180750282" lon="11.392041565326506"><ele>257.0</ele><time>2026-03-28T11:55:21.998Z</time></trkpt><trkpt lat="43.322877238412104" lon="11.392019277118646"><ele>257.0</ele><time>2026-03-28T11:55:22.998Z</time></trkpt><trkpt lat="43.32275576712506" lon="11.391991997786842"><ele>257.0</ele><time>2026-03-28T11:55:23.998Z</time></trkpt><trkpt lat="43.32263150723917" lon="11.391969289653707"><ele>257.0</ele><time>2026-03-28T11:55:24.998Z</time></trkpt><trkpt lat="43.32250511611625" lon="11.391942818009868"><ele>257.0</ele><time>2026-03-28T11:55:25.998Z</time></trkpt><trkpt lat="43.322377947314784" lon="11.391903376882674"><ele>257.0</ele><time>2026-03-28T11:55:26.998Z</time></trkpt><trkpt lat="43.32224901705056" lon="11.391867824927644"><ele>257.0</ele><time>2026-03-28T11:55:27.998Z</time></trkpt><trkpt lat="43.32211072750019" lon="11.39182897178504"><ele>257.0</ele><time>2026-03-28T11:55:28.998Z</time></trkpt><trkpt lat="43.3219694670631" lon="11.39178789204578"><ele>256.0</ele><time>2026-03-28T11:55:29.998Z</time></trkpt><trkpt lat="43.32183606286637" lon="11.39175514763209"><ele>255.0</ele><time>2026-03-28T11:55:30.998Z</time></trkpt><trkpt lat="43.321697821631815" lon="11.391707012043108"><ele>254.0</ele><time>2026-03-28T11:55:31.998Z</time></trkpt><trkpt lat="43.321554221666794" lon="11.39165473928296"><ele>253.0</ele><time>2026-03-28T11:55:32.998Z</time></trkpt><trkpt lat="43.32142424343205" lon="11.391583252132168"><ele>252.0</ele><time>2026-03-28T11:55:33.998Z</time></trkpt><trkpt lat="43.3212989914121" lon="11.3914939681117"><ele>251.0</ele><time>2026-03-28T11:55:34.998Z</time></trkpt><trkpt lat="43.32117868449762" lon="11.391381463721105"><ele>250.0</ele><time>2026-03-28T11:55:35.998Z</time></trkpt><trkpt lat="43.32105160327005" lon="11.391287388806578"><ele>249.0</ele><time>2026-03-28T11:55:36.998Z</time></trkpt><trkpt lat="43.32092207209221" lon="11.391195474390477"><ele>249.0</ele><time>2026-03-28T11:55:37.998Z</time></trkpt><trkpt lat="43.32079119545202" lon="11.391112158625875"><ele>249.0</ele><time>2026-03-28T11:55:38.998Z</time></trkpt><trkpt lat="43.32066511671401" lon="11.391040069633235"><ele>249.0</ele><time>2026-03-28T11:55:39.998Z</time></trkpt><trkpt lat="43.320528702073744" lon="11.39097347383282"><ele>249.0</ele><time>2026-03-28T11:55:40.998Z</time></trkpt><trkpt lat="43.320412755538186" lon="11.390923192039295"><ele>249.0</ele><time>2026-03-28T11:55:41.998Z</time></trkpt><trkpt lat="43.32030058106314" lon="11.390895973878424"><ele>248.99999999999997</ele><time>2026-03-28T11:55:42.998Z</time></trkpt><trkpt lat="43.32020077383686" lon="11.390888897651893"><ele>248.99999999999997</ele><time>2026-03-28T11:55:43.998Z</time></trkpt><trkpt lat="43.3201218850613" lon="11.390858857506995"><ele>249.0</ele><time>2026-03-28T11:55:44.998Z</time></trkpt><trkpt lat="43.32008920123184" lon="11.390753180188506"><ele>249.0</ele><time>2026-03-28T11:55:45.998Z</time></trkpt><trkpt lat="43.320090019079025" lon="11.39063998848026"><ele>248.6</ele><time>2026-03-28T11:55:46.998Z</time></trkpt><trkpt lat="43.32006787346831" lon="11.39049072138883"><ele>248.2</ele><time>2026-03-28T11:55:47.998Z</time></trkpt><trkpt lat="43.32004419878245" lon="11.390337925496961"><ele>247.79999999999998</ele><time>2026-03-28T11:55:48.998Z</time></trkpt><trkpt lat="43.32002066376552" lon="11.390192616875764"><ele>247.39999999999998</ele><time>2026-03-28T11:55:49.998Z</time></trkpt><trkpt lat="43.319994089101876" lon="11.390039465751215"><ele>247.0</ele><time>2026-03-28T11:55:50.998Z</time></trkpt><trkpt lat="43.319964348449105" lon="11.389880383304241"><ele>247.0</ele><time>2026-03-28T11:55:51.998Z</time></trkpt><trkpt lat="43.31991511751871" lon="11.389720401636355"><ele>247.0</ele><time>2026-03-28T11:55:52.998Z</time></trkpt><trkpt lat="43.31986701285624" lon="11.389555154998662"><ele>247.0</ele><time>2026-03-28T11:55:53.998Z</time></trkpt><trkpt lat="43.31980964135874" lon="11.389370274411371"><ele>247.0</ele><time>2026-03-28T11:55:54.998Z</time></trkpt><trkpt lat="43.31975865443936" lon="11.389173897977447"><ele>242.66666666666666</ele><time>2026-03-28T11:55:55.998Z</time></trkpt><trkpt lat="43.31971029638113" lon="11.388984315308946"><ele>238.33333333333331</ele><time>2026-03-28T11:55:56.998Z</time></trkpt><trkpt lat="43.31966736486242" lon="11.388791067775067"><ele>234.0</ele><time>2026-03-28T11:55:57.998Z</time></trkpt><trkpt lat="43.319630670223034" lon="11.388578420795099"><ele>232.75</ele><time>2026-03-28T11:55:58.998Z</time></trkpt><trkpt lat="43.319591175149796" lon="11.388378100748906"><ele>231.5</ele><time>2026-03-28T11:55:59.998Z</time></trkpt><trkpt lat="43.319554048928985" lon="11.388186783678334"><ele>230.25</ele><time>2026-03-28T11:56:00.998Z</time></trkpt><trkpt lat="43.31951825122289" lon="11.387998162106538"><ele>229.0</ele><time>2026-03-28T11:56:01.998Z</time></trkpt><trkpt lat="43.31948664237203" lon="11.387814809746267"><ele>229.0</ele><time>2026-03-28T11:56:02.998Z</time></trkpt><trkpt lat="43.31945474851079" lon="11.387632993884134"><ele>229.0</ele><time>2026-03-28T11:56:03.998Z</time></trkpt><trkpt lat="43.319402008248645" lon="11.387491981926626"><ele>229.0</ele><time>2026-03-28T11:56:04.998Z</time></trkpt><trkpt lat="43.319304176210274" lon="11.387385937251631"><ele>229.0</ele><time>2026-03-28T11:56:05.998Z</time></trkpt><trkpt lat="43.31918742670907" lon="11.387338374168351"><ele>229.0</ele><time>2026-03-28T11:56:06.998Z</time></trkpt><trkpt lat="43.31907818411261" lon="11.38728596036477"><ele>228.99999999999997</ele><time>2026-03-28T11:56:07.998Z</time></trkpt><trkpt lat="43.31900822323162" lon="11.387194068870029"><ele>228.99999999999997</ele><time>2026-03-28T11:56:08.998Z</time></trkpt><trkpt lat="43.319000463788285" lon="11.38706927451924"><ele>229.0</ele><time>2026-03-28T11:56:09.998Z</time></trkpt><trkpt lat="43.31904371272524" lon="11.386960456419166"><ele>229.0</ele><time>2026-03-28T11:56:10.998Z</time></trkpt><trkpt lat="43.31907692330133" lon="11.38680635734977"><ele>228.5</ele><time>2026-03-28T11:56:11.998Z</time></trkpt><trkpt lat="43.31911914101225" lon="11.386648992771706"><ele>228.0</ele><time>2026-03-28T11:56:12.998Z</time></trkpt><trkpt lat="43.31919368540077" lon="11.386538409524222"><ele>227.5</ele><time>2026-03-28T11:56:13.998Z</time></trkpt><trkpt lat="43.31928787012128" lon="11.386453894960837"><ele>227.0</ele><time>2026-03-28T11:56:14.998Z</time></trkpt><trkpt lat="43.319405314388604" lon="11.386377091713547"><ele>226.0</ele><time>2026-03-28T11:56:15.998Z</time></trkpt><trkpt lat="43.31953292880448" lon="11.386305777622738"><ele>225.0</ele><time>2026-03-28T11:56:16.998Z</time></trkpt><trkpt lat="43.319654813962316" lon="11.38623569789392"><ele>224.0</ele><time>2026-03-28T11:56:17.998Z</time></trkpt><trkpt lat="43.31976616349697" lon="11.3861748917032"><ele>223.0</ele><time>2026-03-28T11:56:18.998Z</time></trkpt><trkpt lat="43.31986182943715" lon="11.386125881253836"><ele>222.8</ele><time>2026-03-28T11:56:19.998Z</time></trkpt><trkpt lat="43.31995328843422" lon="11.38605837534955"><ele>222.60000000000002</ele><time>2026-03-28T11:56:20.998Z</time></trkpt><trkpt lat="43.32003302797132" lon="11.38595021760199"><ele>222.39999999999998</ele><time>2026-03-28T11:56:21.998Z</time></trkpt><trkpt lat="43.32009588913637" lon="11.385821404810411"><ele>222.2</ele><time>2026-03-28T11:56:22.998Z</time></trkpt><trkpt lat="43.320117960866526" lon="11.385666254119043"><ele>222.0</ele><time>2026-03-28T11:56:23.998Z</time></trkpt><trkpt lat="43.32011284963092" lon="11.385513690822979"><ele>221.0</ele><time>2026-03-28T11:56:24.998Z</time></trkpt><trkpt lat="43.32010662522299" lon="11.385358990963255"><ele>220.0</ele><time>2026-03-28T11:56:25.998Z</time></trkpt><trkpt lat="43.32010430234749" lon="11.385209189718166"><ele>219.0</ele><time>2026-03-28T11:56:26.998Z</time></trkpt><trkpt lat="43.32011726586839" lon="11.385056415274208"><ele>218.0</ele><time>2026-03-28T11:56:27.998Z</time></trkpt><trkpt lat="43.320182750095334" lon="11.38492828671765"><ele>217.0</ele><time>2026-03-28T11:56:28.998Z</time></trkpt><trkpt lat="43.32022461539812" lon="11.384783820042498"><ele>217.0</ele><time>2026-03-28T11:56:29.998Z</time></trkpt><trkpt lat="43.320327184980854" lon="11.384696409618218"><ele>217.0</ele><time>2026-03-28T11:56:30.998Z</time></trkpt><trkpt lat="43.32042935021429" lon="11.38457231822836"><ele>217.0</ele><time>2026-03-28T11:56:31.998Z</time></trkpt><trkpt lat="43.32052773455632" lon="11.384458072545153"><ele>217.0</ele><time>2026-03-28T11:56:32.998Z</time></trkpt><trkpt lat="43.32062097359688" lon="11.384350373618803"><ele>215.6</ele><time>2026-03-28T11:56:33.998Z</time></trkpt><trkpt lat="43.32070029870996" lon="11.384238888849454"><ele>214.2</ele><time>2026-03-28T11:56:34.998Z</time></trkpt><trkpt lat="43.320748663756795" lon="11.384100628599194"><ele>212.8</ele><time>2026-03-28T11:56:35.998Z</time></trkpt><trkpt lat="43.320778229292905" lon="11.383960035527132"><ele>211.4</ele><time>2026-03-28T11:56:36.998Z</time></trkpt><trkpt lat="43.32077285692559" lon="11.383819131061873"><ele>210.0</ele><time>2026-03-28T11:56:37.998Z</time></trkpt><trkpt lat="43.32073653119283" lon="11.383673441492009"><ele>208.0</ele><time>2026-03-28T11:56:38.998Z</time></trkpt><trkpt lat="43.32069147161059" lon="11.383521846648897"><ele>206.0</ele><time>2026-03-28T11:56:39.998Z</time></trkpt><trkpt lat="43.320653653959404" lon="11.3833400964696"><ele>204.0</ele><time>2026-03-28T11:56:40.998Z</time></trkpt><trkpt lat="43.32061621753417" lon="11.383145653797062"><ele>202.0</ele><time>2026-03-28T11:56:41.998Z</time></trkpt><trkpt lat="43.32059478501698" lon="11.382927613355386"><ele>201.0</ele><time>2026-03-28T11:56:42.998Z</time></trkpt><trkpt lat="43.32055730345514" lon="11.382701286982863"><ele>200.0</ele><time>2026-03-28T11:56:43.998Z</time></trkpt><trkpt lat="43.32053232782836" lon="11.382488641970502"><ele>199.0</ele><time>2026-03-28T11:56:44.998Z</time></trkpt><trkpt lat="43.32050288982314" lon="11.382284556770555"><ele>198.75</ele><time>2026-03-28T11:56:45.998Z</time></trkpt><trkpt lat="43.32048747231029" lon="11.38208122354433"><ele>198.5</ele><time>2026-03-28T11:56:46.998Z</time></trkpt><trkpt lat="43.32045483320755" lon="11.381880606723326"><ele>198.25</ele><time>2026-03-28T11:56:47.998Z</time></trkpt><trkpt lat="43.32040533324262" lon="11.381684599610367"><ele>198.0</ele><time>2026-03-28T11:56:48.998Z</time></trkpt><trkpt lat="43.32037196330273" lon="11.381484719551304"><ele>197.66666666666669</ele><time>2026-03-28T11:56:49.998Z</time></trkpt><trkpt lat="43.32035469379105" lon="11.381272787375606"><ele>197.33333333333334</ele><time>2026-03-28T11:56:50.998Z</time></trkpt><trkpt lat="43.32032547233567" lon="11.381067600703574"><ele>197.0</ele><time>2026-03-28T11:56:51.998Z</time></trkpt><trkpt lat="43.32031279410602" lon="11.380857038007392"><ele>197.0</ele><time>2026-03-28T11:56:52.998Z</time></trkpt><trkpt lat="43.320338476883954" lon="11.380654395901187"><ele>197.0</ele><time>2026-03-28T11:56:53.998Z</time></trkpt><trkpt lat="43.3203671930715" lon="11.38045334105278"><ele>197.0</ele><time>2026-03-28T11:56:54.998Z</time></trkpt><trkpt lat="43.32039315574145" lon="11.380275369732441"><ele>197.0</ele><time>2026-03-28T11:56:55.998Z</time></trkpt><trkpt lat="43.32041640301564" lon="11.38010676628034"><ele>197.0</ele><time>2026-03-28T11:56:56.998Z</time></trkpt><trkpt lat="43.320439852996536" lon="11.379928302655422"><ele>197.0</ele><time>2026-03-28T11:56:57.998Z</time></trkpt><trkpt lat="43.320446721802526" lon="11.379754069484715"><ele>197.0</ele><time>2026-03-28T11:56:58.998Z</time></trkpt><trkpt lat="43.32047848914058" lon="11.379578969580594"><ele>197.0</ele><time>2026-03-28T11:56:59.998Z</time></trkpt><trkpt lat="43.32049618124986" lon="11.379402419776543"><ele>197.5</ele><time>2026-03-28T11:57:00.998Z</time></trkpt><trkpt lat="43.32051826282092" lon="11.379212424791245"><ele>198.0</ele><time>2026-03-28T11:57:01.998Z</time></trkpt><trkpt lat="43.32054025312702" lon="11.379040913638411"><ele>198.5</ele><time>2026-03-28T11:57:02.998Z</time></trkpt><trkpt lat="43.32056662693543" lon="11.378869180760692"><ele>199.0</ele><time>2026-03-28T11:57:03.998Z</time></trkpt><trkpt lat="43.32058850549381" lon="11.378690830183515"><ele>200.75</ele><time>2026-03-28T11:57:04.998Z</time></trkpt><trkpt lat="43.32059753105684" lon="11.378506906458634"><ele>202.5</ele><time>2026-03-28T11:57:05.998Z</time></trkpt><trkpt lat="43.32058741206824" lon="11.378310441567082"><ele>204.25</ele><time>2026-03-28T11:57:06.998Z</time></trkpt><trkpt lat="43.32056698140354" lon="11.378119585545868"><ele>206.0</ele><time>2026-03-28T11:57:07.998Z</time></trkpt><trkpt lat="43.32054490207308" lon="11.377928777980584"><ele>208.0</ele><time>2026-03-28T11:57:08.998Z</time></trkpt><trkpt lat="43.320525596861785" lon="11.377730726958568"><ele>210.0</ele><time>2026-03-28T11:57:09.998Z</time></trkpt><trkpt lat="43.32050392724953" lon="11.37753332368486"><ele>212.0</ele><time>2026-03-28T11:57:10.998Z</time></trkpt><trkpt lat="43.320477066760134" lon="11.377320131897662"><ele>214.0</ele><time>2026-03-28T11:57:11.998Z</time></trkpt><trkpt lat="43.320456149578604" lon="11.377101253722143"><ele>217.33333333333331</ele><time>2026-03-28T11:57:12.998Z</time></trkpt><trkpt lat="43.320434774770575" lon="11.376871094404796"><ele>220.66666666666669</ele><time>2026-03-28T11:57:13.998Z</time></trkpt><trkpt lat="43.32043788174776" lon="11.37664009785362"><ele>224.0</ele><time>2026-03-28T11:57:14.998Z</time></trkpt><trkpt lat="43.320460324569744" lon="11.376397781752791"><ele>223.0</ele><time>2026-03-28T11:57:15.998Z</time></trkpt><trkpt lat="43.32049090247395" lon="11.376137976309813"><ele>222.0</ele><time>2026-03-28T11:57:16.998Z</time></trkpt><trkpt lat="43.320513129653754" lon="11.375891641130533"><ele>221.0</ele><time>2026-03-28T11:57:17.998Z</time></trkpt><trkpt lat="43.32050822728749" lon="11.375701507976304"><ele>221.0</ele><time>2026-03-28T11:57:18.997Z</time></trkpt><trkpt lat="43.320514243304956" lon="11.375525884593223"><ele>221.0</ele><time>2026-03-28T11:57:19.997Z</time></trkpt><trkpt lat="43.320462722421986" lon="11.375402461898757"><ele>221.0</ele><time>2026-03-28T11:57:20.997Z</time></trkpt><trkpt lat="43.32036638108688" lon="11.375304814483366"><ele>221.0</ele><time>2026-03-28T11:57:21.997Z</time></trkpt><trkpt lat="43.32027926500195" lon="11.375184198996338"><ele>221.0</ele><time>2026-03-28T11:57:22.997Z</time></trkpt><trkpt lat="43.32022970689002" lon="11.375045550563929"><ele>221.0</ele><time>2026-03-28T11:57:23.997Z</time></trkpt><trkpt lat="43.320222533791416" lon="11.374926451783587"><ele>221.0</ele><time>2026-03-28T11:57:24.997Z</time></trkpt><trkpt lat="43.32026160448305" lon="11.374763510124408"><ele>221.0</ele><time>2026-03-28T11:57:25.997Z</time></trkpt><trkpt lat="43.320307033047946" lon="11.374582281439979"><ele>221.0</ele><time>2026-03-28T11:57:26.997Z</time></trkpt><trkpt lat="43.32035871425164" lon="11.374353508434524"><ele>221.0</ele><time>2026-03-28T11:57:27.997Z</time></trkpt><trkpt lat="43.32041488224855" lon="11.37411266903342"><ele>221.0</ele><time>2026-03-28T11:57:28.997Z</time></trkpt><trkpt lat="43.320482949647236" lon="11.373889929319835"><ele>222.5</ele><time>2026-03-28T11:57:29.997Z</time></trkpt><trkpt lat="43.32055521330505" lon="11.373700588725093"><ele>224.0</ele><time>2026-03-28T11:57:30.997Z</time></trkpt><trkpt lat="43.32062483217649" lon="11.373531884656758"><ele>225.5</ele><time>2026-03-28T11:57:31.997Z</time></trkpt><trkpt lat="43.320694142502674" lon="11.373378710737029"><ele>227.0</ele><time>2026-03-28T11:57:32.997Z</time></trkpt><trkpt lat="43.320766557613595" lon="11.373225197313962"><ele>227.5</ele><time>2026-03-28T11:57:33.997Z</time></trkpt><trkpt lat="43.32083658782176" lon="11.373076333377544"><ele>228.0</ele><time>2026-03-28T11:57:34.997Z</time></trkpt><trkpt lat="43.32090635395383" lon="11.372934128140166"><ele>228.5</ele><time>2026-03-28T11:57:35.997Z</time></trkpt><trkpt lat="43.32097520415443" lon="11.37279095685939"><ele>229.0</ele><time>2026-03-28T11:57:36.997Z</time></trkpt><trkpt lat="43.32102621800988" lon="11.372636537484059"><ele>231.25</ele><time>2026-03-28T11:57:37.997Z</time></trkpt><trkpt lat="43.321054103284425" lon="11.372453610300386"><ele>233.5</ele><time>2026-03-28T11:57:38.997Z</time></trkpt><trkpt lat="43.321074578509105" lon="11.372257730499767"><ele>235.75</ele><time>2026-03-28T11:57:39.997Z</time></trkpt><trkpt lat="43.321101302550794" lon="11.372065506922327"><ele>238.0</ele><time>2026-03-28T11:57:40.997Z</time></trkpt><trkpt lat="43.32115433994718" lon="11.371866424249609"><ele>240.25</ele><time>2026-03-28T11:57:41.997Z</time></trkpt><trkpt lat="43.32117583156757" lon="11.371675885259554"><ele>242.5</ele><time>2026-03-28T11:57:42.997Z</time></trkpt><trkpt lat="43.32120535077638" lon="11.371496142915449"><ele>244.75</ele><time>2026-03-28T11:57:43.997Z</time></trkpt><trkpt lat="43.32121727460048" lon="11.371296946701086"><ele>247.0</ele><time>2026-03-28T11:57:44.997Z</time></trkpt><trkpt lat="43.32123530872091" lon="11.371111389416422"><ele>248.25</ele><time>2026-03-28T11:57:45.997Z</time></trkpt><trkpt lat="43.32126956520849" lon="11.370947482381652"><ele>249.5</ele><time>2026-03-28T11:57:46.997Z</time></trkpt><trkpt lat="43.32131268319195" lon="11.370797359440672"><ele>250.75</ele><time>2026-03-28T11:57:47.997Z</time></trkpt><trkpt lat="43.32137793544982" lon="11.370632911881412"><ele>252.0</ele><time>2026-03-28T11:57:48.997Z</time></trkpt><trkpt lat="43.321435905956065" lon="11.370457488691489"><ele>252.0</ele><time>2026-03-28T11:57:49.997Z</time></trkpt><trkpt lat="43.32152478293819" lon="11.370310636890087"><ele>252.0</ele><time>2026-03-28T11:57:50.997Z</time></trkpt><trkpt lat="43.32157791905789" lon="11.37014796328821"><ele>252.0</ele><time>2026-03-28T11:57:51.997Z</time></trkpt><trkpt lat="43.3216311024902" lon="11.36997161390438"><ele>252.0</ele><time>2026-03-28T11:57:52.997Z</time></trkpt><trkpt lat="43.321694467204885" lon="11.36982134513025"><ele>254.25</ele><time>2026-03-28T11:57:53.997Z</time></trkpt><trkpt lat="43.321777620568696" lon="11.369677243270665"><ele>256.5</ele><time>2026-03-28T11:57:54.997Z</time></trkpt><trkpt lat="43.32185312117181" lon="11.369528044128037"><ele>258.75</ele><time>2026-03-28T11:57:55.997Z</time></trkpt><trkpt lat="43.32191307540276" lon="11.369394164636313"><ele>261.0</ele><time>2026-03-28T11:57:56.997Z</time></trkpt><trkpt lat="43.321956763785494" lon="11.369282721840266"><ele>261.0</ele><time>2026-03-28T11:57:57.997Z</time></trkpt><trkpt lat="43.321938173426005" lon="11.369145673011497"><ele>261.0</ele><time>2026-03-28T11:57:59.997Z</time></trkpt><trkpt lat="43.32179961027395" lon="11.369130449691012"><ele>261.0</ele><time>2026-03-28T11:58:01.997Z</time></trkpt><trkpt lat="43.32171906331316" lon="11.36919383704899"><ele>261.0</ele><time>2026-03-28T11:58:02.997Z</time></trkpt><trkpt lat="43.3216412040674" lon="11.369275307047321"><ele>261.0</ele><time>2026-03-28T11:58:03.998Z</time></trkpt><trkpt lat="43.32155494028928" lon="11.369370631318432"><ele>261.0</ele><time>2026-03-28T11:58:04.998Z</time></trkpt><trkpt lat="43.32147368294391" lon="11.36943539020282"><ele>261.0</ele><time>2026-03-28T11:58:05.997Z</time></trkpt><trkpt lat="43.32139352694713" lon="11.369434627438347"><ele>261.0</ele><time>2026-03-28T11:58:06.998Z</time></trkpt><trkpt lat="43.32130304142377" lon="11.36938543262873"><ele>261.0</ele><time>2026-03-28T11:58:07.998Z</time></trkpt><trkpt lat="43.32121729175176" lon="11.369278757559494"><ele>261.0</ele><time>2026-03-28T11:58:08.998Z</time></trkpt><trkpt lat="43.321114552933444" lon="11.369146501049903"><ele>261.3333333333333</ele><time>2026-03-28T11:58:09.998Z</time></trkpt><trkpt lat="43.32102171855201" lon="11.36903674965345"><ele>261.6666666666667</ele><time>2026-03-28T11:58:10.997Z</time></trkpt><trkpt lat="43.3209609406769" lon="11.36893806619279"><ele>262.0</ele><time>2026-03-28T11:58:11.997Z</time></trkpt><trkpt lat="43.32091983615001" lon="11.368862992401404"><ele>262.33333333333337</ele><time>2026-03-28T11:58:12.997Z</time></trkpt><trkpt lat="43.32091548520016" lon="11.368766779774484"><ele>262.6666666666667</ele><time>2026-03-28T11:58:14.997Z</time></trkpt><trkpt lat="43.32095314054018" lon="11.368688695056182"><ele>263.0</ele><time>2026-03-28T11:58:15.997Z</time></trkpt><trkpt lat="43.32099113384271" lon="11.368579239469563"><ele>263.0</ele><time>2026-03-28T11:58:16.997Z</time></trkpt><trkpt lat="43.32101435833784" lon="11.368465136950542"><ele>263.0</ele><time>2026-03-28T11:58:17.997Z</time></trkpt><trkpt lat="43.32104389218224" lon="11.36829259481884"><ele>263.0</ele><time>2026-03-28T11:58:18.997Z</time></trkpt><trkpt lat="43.32106358612325" lon="11.3681224961614"><ele>263.0</ele><time>2026-03-28T11:58:19.997Z</time></trkpt><trkpt lat="43.32107152961693" lon="11.367947691545426"><ele>264.0</ele><time>2026-03-28T11:58:20.997Z</time></trkpt><trkpt lat="43.32107611460408" lon="11.367757862532894"><ele>265.0</ele><time>2026-03-28T11:58:21.997Z</time></trkpt><trkpt lat="43.321079288826816" lon="11.367570946719125"><ele>266.0</ele><time>2026-03-28T11:58:22.997Z</time></trkpt><trkpt lat="43.321086412871715" lon="11.36737069817281"><ele>267.0</ele><time>2026-03-28T11:58:23.997Z</time></trkpt><trkpt lat="43.32109304109155" lon="11.367155462697008"><ele>268.0</ele><time>2026-03-28T11:58:24.997Z</time></trkpt><trkpt lat="43.32109982903382" lon="11.366939159180031"><ele>269.0</ele><time>2026-03-28T11:58:25.997Z</time></trkpt><trkpt lat="43.32109577775337" lon="11.366737699871607"><ele>270.0</ele><time>2026-03-28T11:58:26.997Z</time></trkpt><trkpt lat="43.32109474804736" lon="11.366552899693282"><ele>271.0</ele><time>2026-03-28T11:58:27.997Z</time></trkpt><trkpt lat="43.321069600075354" lon="11.366412468244539"><ele>271.0</ele><time>2026-03-28T11:58:28.997Z</time></trkpt><trkpt lat="43.32104694919831" lon="11.366261109197938"><ele>271.0</ele><time>2026-03-28T11:58:29.997Z</time></trkpt><trkpt lat="43.32102616561074" lon="11.366132911436827"><ele>271.0</ele><time>2026-03-28T11:58:30.997Z</time></trkpt><trkpt lat="43.32102678047538" lon="11.366010947036237"><ele>271.0</ele><time>2026-03-28T11:58:31.997Z</time></trkpt><trkpt lat="43.321011615472656" lon="11.365888900135289"><ele>271.0</ele><time>2026-03-28T11:58:32.997Z</time></trkpt><trkpt lat="43.32099249864428" lon="11.365751502900252"><ele>271.0</ele><time>2026-03-28T11:58:33.997Z</time></trkpt><trkpt lat="43.32094466501857" lon="11.365618536476727"><ele>271.0</ele><time>2026-03-28T11:58:34.997Z</time></trkpt><trkpt lat="43.32088717027088" lon="11.365483416256955"><ele>271.0</ele><time>2026-03-28T11:58:35.997Z</time></trkpt><trkpt lat="43.32082765340837" lon="11.365332542436397"><ele>271.0</ele><time>2026-03-28T11:58:36.997Z</time></trkpt><trkpt lat="43.320758229119406" lon="11.365168944083136"><ele>271.25</ele><time>2026-03-28T11:58:37.997Z</time></trkpt><trkpt lat="43.32069485616394" lon="11.364999639368369"><ele>271.5</ele><time>2026-03-28T11:58:38.997Z</time></trkpt><trkpt lat="43.3206227736456" lon="11.364841795621635"><ele>271.75</ele><time>2026-03-28T11:58:39.997Z</time></trkpt><trkpt lat="43.32055243755045" lon="11.364707198824043"><ele>272.0</ele><time>2026-03-28T11:58:40.997Z</time></trkpt><trkpt lat="43.32049590902585" lon="11.364589749114623"><ele>272.33333333333337</ele><time>2026-03-28T11:58:41.997Z</time></trkpt><trkpt lat="43.320445254051165" lon="11.364488510450343"><ele>272.6666666666667</ele><time>2026-03-28T11:58:42.997Z</time></trkpt><trkpt lat="43.32040732166352" lon="11.364411478500301"><ele>273.0</ele><time>2026-03-28T11:58:43.997Z</time></trkpt><trkpt lat="43.32035271626687" lon="11.364319683354958"><ele>273.3333333333333</ele><time>2026-03-28T11:58:58.997Z</time></trkpt><trkpt lat="43.320281843899885" lon="11.364203707677985"><ele>273.66666666666663</ele><time>2026-03-28T11:59:00.997Z</time></trkpt><trkpt lat="43.32023234643883" lon="11.364126053250056"><ele>274.0</ele><time>2026-03-28T11:59:01.997Z</time></trkpt><trkpt lat="43.32018332207777" lon="11.36404320997873"><ele>274.0</ele><time>2026-03-28T11:59:02.997Z</time></trkpt><trkpt lat="43.32012835341908" lon="11.363949526761274"><ele>274.0</ele><time>2026-03-28T11:59:03.997Z</time></trkpt><trkpt lat="43.32005516664683" lon="11.363855681383198"><ele>274.0</ele><time>2026-03-28T11:59:04.997Z</time></trkpt><trkpt lat="43.319981731918915" lon="11.363740010815365"><ele>274.0</ele><time>2026-03-28T11:59:05.997Z</time></trkpt><trkpt lat="43.31989641951388" lon="11.36362313595211"><ele>274.0</ele><time>2026-03-28T11:59:06.997Z</time></trkpt><trkpt lat="43.31981287122128" lon="11.3635147515868"><ele>274.59999999999997</ele><time>2026-03-28T11:59:07.997Z</time></trkpt><trkpt lat="43.319738381317464" lon="11.363414842495574"><ele>275.2</ele><time>2026-03-28T11:59:08.997Z</time></trkpt><trkpt lat="43.31966096907464" lon="11.363320262926655"><ele>275.79999999999995</ele><time>2026-03-28T11:59:09.997Z</time></trkpt><trkpt lat="43.319590407931095" lon="11.36323446971351"><ele>276.4</ele><time>2026-03-28T11:59:10.997Z</time></trkpt><trkpt lat="43.31954029508313" lon="11.36312603291877"><ele>277.0</ele><time>2026-03-28T11:59:11.997Z</time></trkpt><trkpt lat="43.31948767620582" lon="11.363003791160075"><ele>275.6</ele><time>2026-03-28T11:59:12.997Z</time></trkpt><trkpt lat="43.31944871999408" lon="11.362878656924408"><ele>274.2</ele><time>2026-03-28T11:59:13.997Z</time></trkpt><trkpt lat="43.31942152834187" lon="11.362722151217229"><ele>272.8</ele><time>2026-03-28T11:59:14.997Z</time></trkpt><trkpt lat="43.319361365218185" lon="11.362585357099634"><ele>271.4</ele><time>2026-03-28T11:59:15.997Z</time></trkpt><trkpt lat="43.319295731060656" lon="11.362475953337048"><ele>270.0</ele><time>2026-03-28T11:59:16.997Z</time></trkpt><trkpt lat="43.31924018036065" lon="11.362389704032303"><ele>270.0</ele><time>2026-03-28T11:59:17.997Z</time></trkpt><trkpt lat="43.319185777688496" lon="11.362304820683997"><ele>270.0</ele><time>2026-03-28T11:59:18.997Z</time></trkpt><trkpt lat="43.31912147336571" lon="11.362205150320959"><ele>270.0</ele><time>2026-03-28T11:59:19.997Z</time></trkpt><trkpt lat="43.31902372846236" lon="11.362131139787389"><ele>270.0</ele><time>2026-03-28T11:59:20.997Z</time></trkpt><trkpt lat="43.31895680938193" lon="11.36200865169043"><ele>270.0</ele><time>2026-03-28T11:59:21.997Z</time></trkpt><trkpt lat="43.31889591550146" lon="11.361882852041244"><ele>269.0</ele><time>2026-03-28T11:59:22.997Z</time></trkpt><trkpt lat="43.31881831881675" lon="11.361769965437617"><ele>268.0</ele><time>2026-03-28T11:59:23.997Z</time></trkpt><trkpt lat="43.318761672291075" lon="11.361649822448966"><ele>267.0</ele><time>2026-03-28T11:59:24.997Z</time></trkpt><trkpt lat="43.31869562895893" lon="11.36150772817912"><ele>266.0</ele><time>2026-03-28T11:59:25.997Z</time></trkpt><trkpt lat="43.3186418440901" lon="11.361353057769664"><ele>264.0</ele><time>2026-03-28T11:59:26.997Z</time></trkpt><trkpt lat="43.31860158818361" lon="11.361189226369977"><ele>262.0</ele><time>2026-03-28T11:59:27.997Z</time></trkpt><trkpt lat="43.318565437817995" lon="11.361027841680231"><ele>260.0</ele><time>2026-03-28T11:59:28.997Z</time></trkpt><trkpt lat="43.31852681246089" lon="11.36088097347587"><ele>258.0</ele><time>2026-03-28T11:59:29.997Z</time></trkpt><trkpt lat="43.31846811711401" lon="11.360768932674937"><ele>258.0</ele><time>2026-03-28T11:59:30.996Z</time></trkpt><trkpt lat="43.31841514178307" lon="11.36065805923878"><ele>258.0</ele><time>2026-03-28T11:59:31.996Z</time></trkpt><trkpt lat="43.31836660324357" lon="11.360527954821219"><ele>258.0</ele><time>2026-03-28T11:59:32.996Z</time></trkpt><trkpt lat="43.31830241771322" lon="11.360403343690324"><ele>258.0</ele><time>2026-03-28T11:59:33.996Z</time></trkpt><trkpt lat="43.318247356151595" lon="11.360276186695343"><ele>258.0</ele><time>2026-03-28T11:59:34.996Z</time></trkpt><trkpt lat="43.318187459104614" lon="11.360160158364446"><ele>256.25</ele><time>2026-03-28T11:59:35.996Z</time></trkpt><trkpt lat="43.31812980663461" lon="11.360063993018692"><ele>254.5</ele><time>2026-03-28T11:59:36.996Z</time></trkpt><trkpt lat="43.31805728677732" lon="11.359957217379655"><ele>252.75</ele><time>2026-03-28T11:59:37.996Z</time></trkpt><trkpt lat="43.31797411147526" lon="11.359824854633827"><ele>251.0</ele><time>2026-03-28T11:59:38.996Z</time></trkpt><trkpt lat="43.31790513196746" lon="11.359670239057387"><ele>248.5</ele><time>2026-03-28T11:59:39.996Z</time></trkpt><trkpt lat="43.317838628892176" lon="11.359497978072474"><ele>246.0</ele><time>2026-03-28T11:59:40.996Z</time></trkpt><trkpt lat="43.3177907183573" lon="11.35931830137237"><ele>243.5</ele><time>2026-03-28T11:59:41.996Z</time></trkpt><trkpt lat="43.31776529272081" lon="11.359117987385126"><ele>241.0</ele><time>2026-03-28T11:59:42.996Z</time></trkpt><trkpt lat="43.31773815694587" lon="11.358932814884014"><ele>240.0</ele><time>2026-03-28T11:59:43.996Z</time></trkpt><trkpt lat="43.31769365887082" lon="11.358778301332256"><ele>239.0</ele><time>2026-03-28T11:59:44.996Z</time></trkpt><trkpt lat="43.31762130658945" lon="11.358633074837565"><ele>238.0</ele><time>2026-03-28T11:59:45.996Z</time></trkpt><trkpt lat="43.31752323925473" lon="11.358507984046836"><ele>237.0</ele><time>2026-03-28T11:59:46.996Z</time></trkpt><trkpt lat="43.31741107977537" lon="11.358414119951545"><ele>237.0</ele><time>2026-03-28T11:59:47.996Z</time></trkpt><trkpt lat="43.31728220180027" lon="11.358344786036973"><ele>237.0</ele><time>2026-03-28T11:59:48.996Z</time></trkpt><trkpt lat="43.31714464716353" lon="11.358306656796485"><ele>237.0</ele><time>2026-03-28T11:59:49.996Z</time></trkpt><trkpt lat="43.3170056002573" lon="11.358294131696116"><ele>237.0</ele><time>2026-03-28T11:59:50.996Z</time></trkpt><trkpt lat="43.316868495999046" lon="11.358292997631002"><ele>235.75</ele><time>2026-03-28T11:59:51.996Z</time></trkpt><trkpt lat="43.31674239817675" lon="11.35823919459396"><ele>234.5</ele><time>2026-03-28T11:59:52.996Z</time></trkpt><trkpt lat="43.31664279471392" lon="11.358144720694623"><ele>233.25</ele><time>2026-03-28T11:59:53.996Z</time></trkpt><trkpt lat="43.316558847792926" lon="11.358019788775255"><ele>232.0</ele><time>2026-03-28T11:59:54.996Z</time></trkpt><trkpt lat="43.3164759517378" lon="11.35788113549069"><ele>230.75</ele><time>2026-03-28T11:59:55.996Z</time></trkpt><trkpt lat="43.316397171079245" lon="11.357743199054879"><ele>229.5</ele><time>2026-03-28T11:59:56.996Z</time></trkpt><trkpt lat="43.31630285313198" lon="11.357613915136502"><ele>228.25</ele><time>2026-03-28T11:59:57.996Z</time></trkpt><trkpt lat="43.31622593643433" lon="11.357490176615128"><ele>227.0</ele><time>2026-03-28T11:59:58.996Z</time></trkpt><trkpt lat="43.31615338903209" lon="11.357369466655388"><ele>227.0</ele><time>2026-03-28T11:59:59.996Z</time></trkpt><trkpt lat="43.31610453609483" lon="11.357242260822648"><ele>227.0</ele><time>2026-03-28T12:00:00.996Z</time></trkpt><trkpt lat="43.31607596446418" lon="11.357089044879514"><ele>227.0</ele><time>2026-03-28T12:00:01.996Z</time></trkpt><trkpt lat="43.31605862837677" lon="11.356945431582284"><ele>227.0</ele><time>2026-03-28T12:00:02.996Z</time></trkpt><trkpt lat="43.316050460519115" lon="11.356814103815411"><ele>227.0</ele><time>2026-03-28T12:00:03.996Z</time></trkpt><trkpt lat="43.31604692540173" lon="11.356688364165045"><ele>226.83333333333334</ele><time>2026-03-28T12:00:04.996Z</time></trkpt><trkpt lat="43.31604662400832" lon="11.3565682076223"><ele>226.66666666666669</ele><time>2026-03-28T12:00:05.996Z</time></trkpt><trkpt lat="43.31603821082441" lon="11.35645773380225"><ele>226.5</ele><time>2026-03-28T12:00:06.996Z</time></trkpt><trkpt lat="43.31602721089943" lon="11.356357836258727"><ele>226.33333333333331</ele><time>2026-03-28T12:00:07.996Z</time></trkpt><trkpt lat="43.3160151921652" lon="11.356271641214748"><ele>226.16666666666666</ele><time>2026-03-28T12:00:08.996Z</time></trkpt><trkpt lat="43.316026534269696" lon="11.356185151989736"><ele>226.0</ele><time>2026-03-28T12:00:13.997Z</time></trkpt><trkpt lat="43.316045653861316" lon="11.356055565975039"><ele>225.8</ele><time>2026-03-28T12:00:17.997Z</time></trkpt><trkpt lat="43.31611610585928" lon="11.355955190078781"><ele>225.60000000000002</ele><time>2026-03-28T12:00:19.997Z</time></trkpt><trkpt lat="43.31620067948006" lon="11.355860913329613"><ele>225.4</ele><time>2026-03-28T12:00:21.997Z</time></trkpt><trkpt lat="43.31626956031203" lon="11.355701866594613"><ele>225.2</ele><time>2026-03-28T12:00:23.996Z</time></trkpt><trkpt lat="43.31633233697664" lon="11.355676464616783"><ele>225.0</ele><time>2026-03-28T12:00:24.996Z</time></trkpt><trkpt lat="43.31636232976247" lon="11.355557977420366"><ele>225.33333333333334</ele><time>2026-03-28T12:00:25.996Z</time></trkpt><trkpt lat="43.316387720161686" lon="11.35546198626433"><ele>225.66666666666669</ele><time>2026-03-28T12:00:26.996Z</time></trkpt><trkpt lat="43.31639852844103" lon="11.355376178100004"><ele>226.0</ele><time>2026-03-28T12:00:27.996Z</time></trkpt><trkpt lat="43.31630822719846" lon="11.355250972741587"><ele>226.33333333333334</ele><time>2026-03-28T12:00:28.996Z</time></trkpt><trkpt lat="43.316227940192356" lon="11.355236080427735"><ele>226.66666666666669</ele><time>2026-03-28T12:00:29.996Z</time></trkpt><trkpt lat="43.31615730364809" lon="11.355207848475366"><ele>227.0</ele><time>2026-03-28T12:00:30.996Z</time></trkpt><trkpt lat="43.316083642910804" lon="11.355201759238895"><ele>227.0</ele><time>2026-03-28T12:00:31.996Z</time></trkpt><trkpt lat="43.31601997402738" lon="11.355116367829426"><ele>227.0</ele><time>2026-03-28T12:00:32.996Z</time></trkpt><trkpt lat="43.3159735287799" lon="11.355025277237248"><ele>227.0</ele><time>2026-03-28T12:00:33.996Z</time></trkpt><trkpt lat="43.31594154766092" lon="11.354905850540742"><ele>227.0</ele><time>2026-03-28T12:00:34.996Z</time></trkpt><trkpt lat="43.31591136995707" lon="11.354766167032741"><ele>227.0</ele><time>2026-03-28T12:00:35.996Z</time></trkpt><trkpt lat="43.3158739071538" lon="11.354624494148318"><ele>228.0</ele><time>2026-03-28T12:00:36.996Z</time></trkpt><trkpt lat="43.315835699326385" lon="11.354476716195599"><ele>229.0</ele><time>2026-03-28T12:00:37.996Z</time></trkpt><trkpt lat="43.315795080143744" lon="11.354333331400076"><ele>230.0</ele><time>2026-03-28T12:00:38.996Z</time></trkpt><trkpt lat="43.315752487380394" lon="11.354184078426677"><ele>231.0</ele><time>2026-03-28T12:00:39.996Z</time></trkpt><trkpt lat="43.315707609789506" lon="11.35403616823239"><ele>231.0</ele><time>2026-03-28T12:00:40.996Z</time></trkpt><trkpt lat="43.3156703021484" lon="11.353879598890355"><ele>231.0</ele><time>2026-03-28T12:00:41.996Z</time></trkpt><trkpt lat="43.31563483082774" lon="11.35372687950807"><ele>231.0</ele><time>2026-03-28T12:00:42.996Z</time></trkpt><trkpt lat="43.315594409641434" lon="11.353578707296727"><ele>231.0</ele><time>2026-03-28T12:00:43.996Z</time></trkpt><trkpt lat="43.31555363798436" lon="11.353432634868456"><ele>231.60000000000002</ele><time>2026-03-28T12:00:44.996Z</time></trkpt><trkpt lat="43.315510892319345" lon="11.353287862745407"><ele>232.20000000000002</ele><time>2026-03-28T12:00:45.996Z</time></trkpt><trkpt lat="43.31547244722385" lon="11.35314733552401"><ele>232.79999999999998</ele><time>2026-03-28T12:00:46.996Z</time></trkpt><trkpt lat="43.31544169941855" lon="11.352996521294632"><ele>233.39999999999998</ele><time>2026-03-28T12:00:47.996Z</time></trkpt><trkpt lat="43.31540579283981" lon="11.352849830055904"><ele>234.0</ele><time>2026-03-28T12:00:48.996Z</time></trkpt><trkpt lat="43.3153622056858" lon="11.352699042693668"><ele>234.75</ele><time>2026-03-28T12:00:49.996Z</time></trkpt><trkpt lat="43.31532088143683" lon="11.352546780690922"><ele>235.5</ele><time>2026-03-28T12:00:50.996Z</time></trkpt><trkpt lat="43.31527934480508" lon="11.352399505379259"><ele>236.25</ele><time>2026-03-28T12:00:51.996Z</time></trkpt><trkpt lat="43.315240474702584" lon="11.352248922414555"><ele>237.0</ele><time>2026-03-28T12:00:52.996Z</time></trkpt><trkpt lat="43.315202553216174" lon="11.352100274222222"><ele>238.75</ele><time>2026-03-28T12:00:53.996Z</time></trkpt><trkpt lat="43.315163957720905" lon="11.351950263163467"><ele>240.5</ele><time>2026-03-28T12:00:54.996Z</time></trkpt><trkpt lat="43.315113557397794" lon="11.351785819776893"><ele>242.25</ele><time>2026-03-28T12:00:55.996Z</time></trkpt><trkpt lat="43.31505027349587" lon="11.351618455247369"><ele>244.0</ele><time>2026-03-28T12:00:56.996Z</time></trkpt><trkpt lat="43.314974817993786" lon="11.351454045574311"><ele>243.75</ele><time>2026-03-28T12:00:57.996Z</time></trkpt><trkpt lat="43.314898516676344" lon="11.351304949413093"><ele>243.5</ele><time>2026-03-28T12:00:58.996Z</time></trkpt><trkpt lat="43.31482968007754" lon="11.351170400162935"><ele>243.25</ele><time>2026-03-28T12:00:59.996Z</time></trkpt><trkpt lat="43.314749803576376" lon="11.351042837177376"><ele>243.0</ele><time>2026-03-28T12:01:00.996Z</time></trkpt><trkpt lat="43.31467188473809" lon="11.35092166864519"><ele>243.0</ele><time>2026-03-28T12:01:01.996Z</time></trkpt><trkpt lat="43.31459162577813" lon="11.350797102489723"><ele>243.0</ele><time>2026-03-28T12:01:02.996Z</time></trkpt><trkpt lat="43.31450965155402" lon="11.350686264828255"><ele>243.0</ele><time>2026-03-28T12:01:03.996Z</time></trkpt><trkpt lat="43.31443376767024" lon="11.350558765287676"><ele>243.0</ele><time>2026-03-28T12:01:04.996Z</time></trkpt><trkpt lat="43.31437930603639" lon="11.350441010046612"><ele>243.60000000000002</ele><time>2026-03-28T12:01:05.996Z</time></trkpt><trkpt lat="43.314385089227514" lon="11.350291610696491"><ele>244.20000000000002</ele><time>2026-03-28T12:01:06.996Z</time></trkpt><trkpt lat="43.31439893790077" lon="11.350138290530378"><ele>244.8</ele><time>2026-03-28T12:01:07.996Z</time></trkpt><trkpt lat="43.314449575042204" lon="11.349996648421447"><ele>245.4</ele><time>2026-03-28T12:01:08.996Z</time></trkpt><trkpt lat="43.31453753693707" lon="11.349909729729585"><ele>246.0</ele><time>2026-03-28T12:01:09.996Z</time></trkpt><trkpt lat="43.31464761488297" lon="11.349908017936608"><ele>249.0</ele><time>2026-03-28T12:01:10.996Z</time></trkpt><trkpt lat="43.314746414310704" lon="11.349887741954895"><ele>252.00000000000003</ele><time>2026-03-28T12:01:11.996Z</time></trkpt><trkpt lat="43.314858453511235" lon="11.349868929636436"><ele>255.00000000000003</ele><time>2026-03-28T12:01:12.996Z</time></trkpt><trkpt lat="43.31497036581399" lon="11.34981925933075"><ele>258.0</ele><time>2026-03-28T12:01:13.996Z</time></trkpt><trkpt lat="43.315059890267705" lon="11.34971448936618"><ele>261.0</ele><time>2026-03-28T12:01:14.996Z</time></trkpt><trkpt lat="43.315120014683025" lon="11.349575045958382"><ele>261.75</ele><time>2026-03-28T12:01:15.996Z</time></trkpt><trkpt lat="43.31514264391323" lon="11.349415884847234"><ele>262.5</ele><time>2026-03-28T12:01:16.996Z</time></trkpt><trkpt lat="43.31510829257067" lon="11.349248681209689"><ele>263.25</ele><time>2026-03-28T12:01:17.996Z</time></trkpt><trkpt lat="43.315032490809116" lon="11.349108606436056"><ele>264.0</ele><time>2026-03-28T12:01:18.996Z</time></trkpt><trkpt lat="43.314925321362345" lon="11.349008524130712"><ele>264.0</ele><time>2026-03-28T12:01:19.996Z</time></trkpt><trkpt lat="43.31480319910001" lon="11.348931530942243"><ele>264.0</ele><time>2026-03-28T12:01:20.996Z</time></trkpt><trkpt lat="43.31468697118437" lon="11.348856539403116"><ele>264.0</ele><time>2026-03-28T12:01:21.996Z</time></trkpt><trkpt lat="43.31460276019211" lon="11.34876171922463"><ele>264.0</ele><time>2026-03-28T12:01:22.996Z</time></trkpt><trkpt lat="43.314553093286655" lon="11.348632238032126"><ele>261.75</ele><time>2026-03-28T12:01:23.996Z</time></trkpt><trkpt lat="43.314542809326866" lon="11.348468643695332"><ele>259.5</ele><time>2026-03-28T12:01:24.996Z</time></trkpt><trkpt lat="43.3145794612886" lon="11.34829290420219"><ele>257.25</ele><time>2026-03-28T12:01:25.996Z</time></trkpt><trkpt lat="43.3146281193172" lon="11.348140948384412"><ele>255.0</ele><time>2026-03-28T12:01:26.996Z</time></trkpt><trkpt lat="43.314682384443245" lon="11.348001743237297"><ele>259.0</ele><time>2026-03-28T12:01:27.996Z</time></trkpt><trkpt lat="43.31474973858062" lon="11.347850235538262"><ele>263.0</ele><time>2026-03-28T12:01:28.996Z</time></trkpt><trkpt lat="43.314841769145815" lon="11.34771372258059"><ele>267.0</ele><time>2026-03-28T12:01:29.996Z</time></trkpt><trkpt lat="43.31491808483581" lon="11.347574854884165"><ele>271.0</ele><time>2026-03-28T12:01:30.996Z</time></trkpt><trkpt lat="43.31500551994083" lon="11.347431306921571"><ele>271.0</ele><time>2026-03-28T12:01:31.996Z</time></trkpt><trkpt lat="43.315101933897274" lon="11.347299853173832"><ele>271.0</ele><time>2026-03-28T12:01:32.996Z</time></trkpt><trkpt lat="43.31517787514654" lon="11.347146472200825"><ele>271.0</ele><time>2026-03-28T12:01:33.996Z</time></trkpt><trkpt lat="43.315274453834355" lon="11.347020751710675"><ele>271.0</ele><time>2026-03-28T12:01:34.996Z</time></trkpt><trkpt lat="43.315346193990116" lon="11.346868338723514"><ele>270.25</ele><time>2026-03-28T12:01:35.996Z</time></trkpt><trkpt lat="43.31543650087393" lon="11.346742631652779"><ele>269.5</ele><time>2026-03-28T12:01:36.996Z</time></trkpt><trkpt lat="43.315520973788864" lon="11.346612844135361"><ele>268.75</ele><time>2026-03-28T12:01:37.996Z</time></trkpt><trkpt lat="43.31558679791399" lon="11.346470646033945"><ele>268.0</ele><time>2026-03-28T12:01:38.996Z</time></trkpt><trkpt lat="43.315669875862454" lon="11.346348527222137"><ele>271.0</ele><time>2026-03-28T12:01:39.996Z</time></trkpt><trkpt lat="43.31575315897389" lon="11.346214168808443"><ele>274.0</ele><time>2026-03-28T12:01:40.996Z</time></trkpt><trkpt lat="43.315834408178425" lon="11.346082288784727"><ele>277.0</ele><time>2026-03-28T12:01:41.996Z</time></trkpt><trkpt lat="43.31591602886189" lon="11.345947097180492"><ele>280.0</ele><time>2026-03-28T12:01:42.996Z</time></trkpt><trkpt lat="43.31600172923192" lon="11.34581129439637"><ele>280.0</ele><time>2026-03-28T12:01:43.996Z</time></trkpt><trkpt lat="43.31608386859517" lon="11.34567632681317"><ele>280.0</ele><time>2026-03-28T12:01:44.996Z</time></trkpt><trkpt lat="43.31616814353991" lon="11.345538909027535"><ele>280.0</ele><time>2026-03-28T12:01:45.996Z</time></trkpt><trkpt lat="43.31624943684391" lon="11.345400960199164"><ele>280.0</ele><time>2026-03-28T12:01:46.996Z</time></trkpt><trkpt lat="43.316331422609366" lon="11.345261994865394"><ele>281.0</ele><time>2026-03-28T12:01:47.996Z</time></trkpt><trkpt lat="43.31641368054463" lon="11.345119157402909"><ele>282.0</ele><time>2026-03-28T12:01:48.996Z</time></trkpt><trkpt lat="43.316497774052465" lon="11.344981283882726"><ele>283.0</ele><time>2026-03-28T12:01:49.996Z</time></trkpt><trkpt lat="43.3165858027786" lon="11.34484343275192"><ele>284.0</ele><time>2026-03-28T12:01:50.996Z</time></trkpt><trkpt lat="43.31666739238807" lon="11.34470560376412"><ele>284.0</ele><time>2026-03-28T12:01:51.996Z</time></trkpt><trkpt lat="43.3167328478483" lon="11.344574038021694"><ele>284.0</ele><time>2026-03-28T12:01:52.996Z</time></trkpt><trkpt lat="43.3167876747261" lon="11.344454031333944"><ele>284.0</ele><time>2026-03-28T12:01:53.996Z</time></trkpt><trkpt lat="43.31682592947381" lon="11.344366294895055"><ele>284.0</ele><time>2026-03-28T12:01:54.996Z</time></trkpt><trkpt lat="43.3168638085923" lon="11.344272164293658"><ele>284.0</ele><time>2026-03-28T12:01:56.996Z</time></trkpt><trkpt lat="43.316897163457256" lon="11.344188035203679"><ele>284.0</ele><time>2026-03-28T12:02:05.996Z</time></trkpt><trkpt lat="43.316735863841814" lon="11.34409537853254"><ele>284.0</ele><time>2026-03-28T12:02:09.996Z</time></trkpt><trkpt lat="43.316656943384515" lon="11.344013138227636"><ele>284.0</ele><time>2026-03-28T12:02:11.996Z</time></trkpt><trkpt lat="43.31663034904203" lon="11.34388724562248"><ele>284.0</ele><time>2026-03-28T12:02:13.996Z</time></trkpt><trkpt lat="43.31665660204415" lon="11.34376000749071"><ele>284.0</ele><time>2026-03-28T12:02:15.996Z</time></trkpt><trkpt lat="43.3167411678067" lon="11.343605626314696"><ele>284.0</ele><time>2026-03-28T12:02:17.997Z</time></trkpt><trkpt lat="43.316771142762825" lon="11.343485592452772"><ele>283.5</ele><time>2026-03-28T12:02:18.996Z</time></trkpt><trkpt lat="43.31678749160276" lon="11.343339896209628"><ele>283.0</ele><time>2026-03-28T12:02:19.996Z</time></trkpt><trkpt lat="43.31681274568073" lon="11.34317311516579"><ele>282.5</ele><time>2026-03-28T12:02:20.996Z</time></trkpt><trkpt lat="43.31683882954487" lon="11.34302263239871"><ele>282.0</ele><time>2026-03-28T12:02:21.997Z</time></trkpt><trkpt lat="43.31686254578924" lon="11.342877997200489"><ele>281.2</ele><time>2026-03-28T12:02:22.997Z</time></trkpt><trkpt lat="43.31688732424247" lon="11.3427413538025"><ele>280.4</ele><time>2026-03-28T12:02:23.997Z</time></trkpt><trkpt lat="43.31690121420399" lon="11.342613345899215"><ele>279.6</ele><time>2026-03-28T12:02:24.997Z</time></trkpt><trkpt lat="43.31688146967731" lon="11.3424977922579"><ele>278.8</ele><time>2026-03-28T12:02:25.997Z</time></trkpt><trkpt lat="43.316837230349535" lon="11.342395508000598"><ele>278.0</ele><time>2026-03-28T12:02:26.997Z</time></trkpt><trkpt lat="43.316751988511065" lon="11.342325923722617"><ele>278.0</ele><time>2026-03-28T12:02:27.997Z</time></trkpt><trkpt lat="43.316622894434516" lon="11.342289709580081"><ele>278.0</ele><time>2026-03-28T12:02:28.997Z</time></trkpt><trkpt lat="43.31646220235594" lon="11.342255762615077"><ele>278.0</ele><time>2026-03-28T12:02:29.997Z</time></trkpt><trkpt lat="43.31628119029555" lon="11.342183902543526"><ele>278.75</ele><time>2026-03-28T12:02:30.997Z</time></trkpt><trkpt lat="43.316123306387716" lon="11.342130175886288"><ele>279.5</ele><time>2026-03-28T12:02:31.997Z</time></trkpt><trkpt lat="43.31598008425212" lon="11.342087863157706"><ele>280.25</ele><time>2026-03-28T12:02:32.997Z</time></trkpt><trkpt lat="43.31585156985013" lon="11.342059219181454"><ele>281.0</ele><time>2026-03-28T12:02:33.997Z</time></trkpt><trkpt lat="43.31572419843635" lon="11.342065210767268"><ele>281.0</ele><time>2026-03-28T12:02:34.997Z</time></trkpt><trkpt lat="43.31559524898139" lon="11.34211999214581"><ele>281.0</ele><time>2026-03-28T12:02:35.997Z</time></trkpt><trkpt lat="43.315456101501816" lon="11.342195298954426"><ele>281.0</ele><time>2026-03-28T12:02:36.997Z</time></trkpt><trkpt lat="43.31532478432716" lon="11.34229266143472"><ele>281.0</ele><time>2026-03-28T12:02:37.997Z</time></trkpt><trkpt lat="43.31521462828491" lon="11.342382468682878"><ele>280.5</ele><time>2026-03-28T12:02:38.997Z</time></trkpt><trkpt lat="43.31510682150057" lon="11.342470982778226"><ele>280.0</ele><time>2026-03-28T12:02:39.997Z</time></trkpt><trkpt lat="43.31500580051076" lon="11.342555454270784"><ele>279.5</ele><time>2026-03-28T12:02:40.997Z</time></trkpt><trkpt lat="43.3149010816079" lon="11.342631879290217"><ele>279.0</ele><time>2026-03-28T12:02:41.997Z</time></trkpt><trkpt lat="43.314800957530025" lon="11.342713505200605"><ele>278.2</ele><time>2026-03-28T12:02:42.997Z</time></trkpt><trkpt lat="43.3147050208956" lon="11.342777718498773"><ele>277.4</ele><time>2026-03-28T12:02:43.997Z</time></trkpt><trkpt lat="43.31461814567104" lon="11.342839279614699"><ele>276.6</ele><time>2026-03-28T12:02:44.997Z</time></trkpt><trkpt lat="43.314532054224344" lon="11.342839017625646"><ele>275.8</ele><time>2026-03-28T12:02:45.997Z</time></trkpt><trkpt lat="43.314460600433094" lon="11.34278135334813"><ele>275.0</ele><time>2026-03-28T12:02:46.997Z</time></trkpt><trkpt lat="43.31441330728003" lon="11.342670774371262"><ele>275.0</ele><time>2026-03-28T12:02:47.997Z</time></trkpt><trkpt lat="43.31438069717061" lon="11.342560301385298"><ele>275.0</ele><time>2026-03-28T12:02:48.997Z</time></trkpt><trkpt lat="43.314362082118826" lon="11.34241531198157"><ele>275.0</ele><time>2026-03-28T12:02:49.997Z</time></trkpt><trkpt lat="43.314340229220086" lon="11.342263527940206"><ele>275.0</ele><time>2026-03-28T12:02:50.997Z</time></trkpt><trkpt lat="43.314315884100225" lon="11.342111663968108"><ele>275.0</ele><time>2026-03-28T12:02:51.997Z</time></trkpt><trkpt lat="43.31427570430715" lon="11.341984920582018"><ele>275.4</ele><time>2026-03-28T12:02:52.997Z</time></trkpt><trkpt lat="43.314215379473666" lon="11.341889321005315"><ele>275.8</ele><time>2026-03-28T12:02:53.997Z</time></trkpt><trkpt lat="43.31412156342359" lon="11.341822213890243"><ele>276.2</ele><time>2026-03-28T12:02:54.997Z</time></trkpt><trkpt lat="43.31401840785212" lon="11.34177324396411"><ele>276.6</ele><time>2026-03-28T12:02:55.997Z</time></trkpt><trkpt lat="43.31390396813644" lon="11.341745411357605"><ele>277.0</ele><time>2026-03-28T12:02:56.997Z</time></trkpt><trkpt lat="43.31379561789064" lon="11.341712332232031"><ele>277.0</ele><time>2026-03-28T12:02:57.997Z</time></trkpt><trkpt lat="43.31369682265626" lon="11.341680081637355"><ele>277.0</ele><time>2026-03-28T12:02:58.997Z</time></trkpt><trkpt lat="43.313596069366724" lon="11.341623869055065"><ele>277.0</ele><time>2026-03-28T12:02:59.997Z</time></trkpt><trkpt lat="43.31349058069462" lon="11.341588581904047"><ele>277.0</ele><time>2026-03-28T12:03:00.997Z</time></trkpt><trkpt lat="43.313384867836305" lon="11.341553219770887"><ele>277.0</ele><time>2026-03-28T12:03:01.997Z</time></trkpt><trkpt lat="43.313282627312425" lon="11.341509844839916"><ele>277.0</ele><time>2026-03-28T12:03:02.997Z</time></trkpt><trkpt lat="43.31317858871844" lon="11.341479473487935"><ele>277.0</ele><time>2026-03-28T12:03:03.997Z</time></trkpt><trkpt lat="43.313074371785646" lon="11.341448688785357"><ele>277.0</ele><time>2026-03-28T12:03:04.997Z</time></trkpt><trkpt lat="43.31296734562047" lon="11.341415320517104"><ele>277.0</ele><time>2026-03-28T12:03:05.997Z</time></trkpt><trkpt lat="43.31286432679297" lon="11.341385230372829"><ele>277.0</ele><time>2026-03-28T12:03:06.997Z</time></trkpt><trkpt lat="43.31277366022096" lon="11.34134695321854"><ele>278.4</ele><time>2026-03-28T12:03:07.997Z</time></trkpt><trkpt lat="43.312692231488825" lon="11.341307470091591"><ele>279.79999999999995</ele><time>2026-03-28T12:03:08.997Z</time></trkpt><trkpt lat="43.31261750821991" lon="11.341259696025647"><ele>281.2</ele><time>2026-03-28T12:03:09.997Z</time></trkpt><trkpt lat="43.31256257948659" lon="11.341205192640253"><ele>282.59999999999997</ele><time>2026-03-28T12:03:10.997Z</time></trkpt><trkpt lat="43.312536107942755" lon="11.341006173065635"><ele>284.0</ele><time>2026-03-28T12:03:12.997Z</time></trkpt><trkpt lat="43.31249956455622" lon="11.34087735726172"><ele>284.0</ele><time>2026-03-28T12:03:13.997Z</time></trkpt><trkpt lat="43.312430331282144" lon="11.34074011104902"><ele>284.0</ele><time>2026-03-28T12:03:14.997Z</time></trkpt><trkpt lat="43.31233296850251" lon="11.340612114837914"><ele>284.0</ele><time>2026-03-28T12:03:15.997Z</time></trkpt><trkpt lat="43.312220515887745" lon="11.340526332698143"><ele>284.0</ele><time>2026-03-28T12:03:16.997Z</time></trkpt><trkpt lat="43.312103572721036" lon="11.340458544823452"><ele>284.5</ele><time>2026-03-28T12:03:17.997Z</time></trkpt><trkpt lat="43.31202118094666" lon="11.340371887833179"><ele>285.0</ele><time>2026-03-28T12:03:18.997Z</time></trkpt><trkpt lat="43.31195228383996" lon="11.340302413420918"><ele>285.5</ele><time>2026-03-28T12:03:19.997Z</time></trkpt><trkpt lat="43.311893377954846" lon="11.340227937721838"><ele>286.0</ele><time>2026-03-28T12:03:20.997Z</time></trkpt><trkpt lat="43.31183942555938" lon="11.340111268883826"><ele>286.5</ele><time>2026-03-28T12:03:22.997Z</time></trkpt><trkpt lat="43.31180889356423" lon="11.340033338507643"><ele>287.0</ele><time>2026-03-28T12:03:26.997Z</time></trkpt><trkpt lat="43.31177115997465" lon="11.339947626801251"><ele>287.0</ele><time>2026-03-28T12:03:28.997Z</time></trkpt><trkpt lat="43.31175827054717" lon="11.339848974626069"><ele>287.0</ele><time>2026-03-28T12:03:31.997Z</time></trkpt><trkpt lat="43.31174763342368" lon="11.339754176799612"><ele>287.0</ele><time>2026-03-28T12:03:33.997Z</time></trkpt><trkpt lat="43.311739770122216" lon="11.339594325487996"><ele>287.0</ele><time>2026-03-28T12:03:35.997Z</time></trkpt><trkpt lat="43.31175791045743" lon="11.339476878715764"><ele>287.0</ele><time>2026-03-28T12:03:37.997Z</time></trkpt><trkpt lat="43.31172887656596" lon="11.339375844372295"><ele>287.0</ele><time>2026-03-28T12:03:40.997Z</time></trkpt><trkpt lat="43.31155882747391" lon="11.339331072410264"><ele>287.0</ele><time>2026-03-28T12:03:41.996Z</time></trkpt><trkpt lat="43.311456684300786" lon="11.339327756372677"><ele>287.0</ele><time>2026-03-28T12:03:42.996Z</time></trkpt><trkpt lat="43.31134463143912" lon="11.339324118609989"><ele>287.0</ele><time>2026-03-28T12:03:43.996Z</time></trkpt><trkpt lat="43.31124588526004" lon="11.33930124849521"><ele>287.0</ele><time>2026-03-28T12:03:44.996Z</time></trkpt><trkpt lat="43.31114520783925" lon="11.339301451569778"><ele>287.0</ele><time>2026-03-28T12:03:45.996Z</time></trkpt><trkpt lat="43.31104091754883" lon="11.339300305253976"><ele>287.0</ele><time>2026-03-28T12:03:46.996Z</time></trkpt><trkpt lat="43.31093162752314" lon="11.339303627361293"><ele>287.0</ele><time>2026-03-28T12:03:47.996Z</time></trkpt><trkpt lat="43.31082211416968" lon="11.339299370425998"><ele>287.0</ele><time>2026-03-28T12:03:48.996Z</time></trkpt><trkpt lat="43.310709681297986" lon="11.339291921060939"><ele>287.0</ele><time>2026-03-28T12:03:49.996Z</time></trkpt><trkpt lat="43.310589349476686" lon="11.339283197418936"><ele>286.25</ele><time>2026-03-28T12:03:50.996Z</time></trkpt><trkpt lat="43.31046959679404" lon="11.339266459445748"><ele>285.5</ele><time>2026-03-28T12:03:51.996Z</time></trkpt><trkpt lat="43.31034645611322" lon="11.339247412378063"><ele>284.75</ele><time>2026-03-28T12:03:52.996Z</time></trkpt><trkpt lat="43.31022109907855" lon="11.339229928273294"><ele>284.0</ele><time>2026-03-28T12:03:53.996Z</time></trkpt><trkpt lat="43.310097360617945" lon="11.339210087284354"><ele>284.0</ele><time>2026-03-28T12:03:54.996Z</time></trkpt><trkpt lat="43.30997361267533" lon="11.33916262631002"><ele>284.0</ele><time>2026-03-28T12:03:55.996Z</time></trkpt><trkpt lat="43.30984919654376" lon="11.339137072255129"><ele>284.0</ele><time>2026-03-28T12:03:56.996Z</time></trkpt><trkpt lat="43.30971921175905" lon="11.339114932223788"><ele>284.0</ele><time>2026-03-28T12:03:57.996Z</time></trkpt><trkpt lat="43.309590991134385" lon="11.339095472665951"><ele>283.25</ele><time>2026-03-28T12:03:58.996Z</time></trkpt><trkpt lat="43.30946636871871" lon="11.33907760101068"><ele>282.5</ele><time>2026-03-28T12:03:59.996Z</time></trkpt><trkpt lat="43.30935290766202" lon="11.339051829786191"><ele>281.75</ele><time>2026-03-28T12:04:00.996Z</time></trkpt><trkpt lat="43.309237190976546" lon="11.339034476527637"><ele>281.0</ele><time>2026-03-28T12:04:01.996Z</time></trkpt><trkpt lat="43.30912580860847" lon="11.339018976526184"><ele>281.0</ele><time>2026-03-28T12:04:02.996Z</time></trkpt><trkpt lat="43.3090191233796" lon="11.338995711462664"><ele>281.0</ele><time>2026-03-28T12:04:03.996Z</time></trkpt><trkpt lat="43.30890823106787" lon="11.338971646861218"><ele>281.0</ele><time>2026-03-28T12:04:04.996Z</time></trkpt><trkpt lat="43.308799452566156" lon="11.338950640724654"><ele>281.0</ele><time>2026-03-28T12:04:05.996Z</time></trkpt><trkpt lat="43.30868125544623" lon="11.338929904983106"><ele>281.0</ele><time>2026-03-28T12:04:06.996Z</time></trkpt><trkpt lat="43.30856906192129" lon="11.33892262930087"><ele>281.2</ele><time>2026-03-28T12:04:07.996Z</time></trkpt><trkpt lat="43.30846598531408" lon="11.338927587161628"><ele>281.40000000000003</ele><time>2026-03-28T12:04:08.996Z</time></trkpt><trkpt lat="43.30835863034211" lon="11.338916149965543"><ele>281.6</ele><time>2026-03-28T12:04:09.996Z</time></trkpt><trkpt lat="43.30824507420521" lon="11.33892583797072"><ele>281.8</ele><time>2026-03-28T12:04:10.996Z</time></trkpt><trkpt lat="43.30812852526097" lon="11.338937925455221"><ele>282.0</ele><time>2026-03-28T12:04:11.996Z</time></trkpt><trkpt lat="43.308009056700236" lon="11.338953200820923"><ele>282.0</ele><time>2026-03-28T12:04:12.996Z</time></trkpt><trkpt lat="43.30788393333464" lon="11.338973567371628"><ele>282.0</ele><time>2026-03-28T12:04:13.996Z</time></trkpt><trkpt lat="43.30776022051251" lon="11.338993809489185"><ele>282.0</ele><time>2026-03-28T12:04:14.996Z</time></trkpt><trkpt lat="43.30764120718531" lon="11.339008416817391"><ele>282.0</ele><time>2026-03-28T12:04:15.996Z</time></trkpt><trkpt lat="43.30752084707958" lon="11.339019957221366"><ele>282.0</ele><time>2026-03-28T12:04:16.996Z</time></trkpt><trkpt lat="43.30739987756129" lon="11.339064564700518"><ele>282.0</ele><time>2026-03-28T12:04:17.996Z</time></trkpt><trkpt lat="43.30728394649945" lon="11.339088072942248"><ele>282.0</ele><time>2026-03-28T12:04:18.996Z</time></trkpt><trkpt lat="43.307161319779006" lon="11.33910723840002"><ele>282.0</ele><time>2026-03-28T12:04:19.996Z</time></trkpt><trkpt lat="43.30703547784235" lon="11.339144410484355"><ele>281.75</ele><time>2026-03-28T12:04:20.996Z</time></trkpt><trkpt lat="43.30690960036562" lon="11.339171708312907"><ele>281.5</ele><time>2026-03-28T12:04:21.997Z</time></trkpt><trkpt lat="43.306782363366835" lon="11.339164646790108"><ele>281.25</ele><time>2026-03-28T12:04:22.997Z</time></trkpt><trkpt lat="43.306655336939386" lon="11.339133619803592"><ele>281.0</ele><time>2026-03-28T12:04:23.997Z</time></trkpt><trkpt lat="43.30653722981767" lon="11.339108688597085"><ele>281.0</ele><time>2026-03-28T12:04:24.997Z</time></trkpt><trkpt lat="43.30642371712003" lon="11.339042376752761"><ele>281.0</ele><time>2026-03-28T12:04:25.996Z</time></trkpt><trkpt lat="43.30629807350375" lon="11.338987102557924"><ele>281.0</ele><time>2026-03-28T12:04:26.996Z</time></trkpt><trkpt lat="43.30618486376008" lon="11.338897385717267"><ele>281.0</ele><time>2026-03-28T12:04:27.997Z</time></trkpt><trkpt lat="43.30609619489394" lon="11.338774781425943"><ele>280.75</ele><time>2026-03-28T12:04:28.997Z</time></trkpt><trkpt lat="43.30599944868672" lon="11.338675730403967"><ele>280.5</ele><time>2026-03-28T12:04:29.997Z</time></trkpt><trkpt lat="43.30591163700116" lon="11.33854961636752"><ele>280.25</ele><time>2026-03-28T12:04:30.997Z</time></trkpt><trkpt lat="43.30581413712418" lon="11.338416407662748"><ele>280.0</ele><time>2026-03-28T12:04:31.997Z</time></trkpt><trkpt lat="43.30571745256724" lon="11.338272740580141"><ele>280.0</ele><time>2026-03-28T12:04:32.997Z</time></trkpt><trkpt lat="43.30561499834475" lon="11.338144526479171"><ele>280.0</ele><time>2026-03-28T12:04:33.997Z</time></trkpt><trkpt lat="43.305534876763474" lon="11.337990511534654"><ele>280.0</ele><time>2026-03-28T12:04:34.996Z</time></trkpt><trkpt lat="43.30544819036849" lon="11.33786010072203"><ele>280.0</ele><time>2026-03-28T12:04:35.996Z</time></trkpt><trkpt lat="43.30536312193062" lon="11.337728681960428"><ele>279.75</ele><time>2026-03-28T12:04:36.996Z</time></trkpt><trkpt lat="43.30525023758374" lon="11.337609901312915"><ele>279.5</ele><time>2026-03-28T12:04:37.996Z</time></trkpt><trkpt lat="43.30512546695383" lon="11.337496702401753"><ele>279.25</ele><time>2026-03-28T12:04:38.996Z</time></trkpt><trkpt lat="43.304986009634575" lon="11.337419000761823"><ele>279.0</ele><time>2026-03-28T12:04:39.996Z</time></trkpt><trkpt lat="43.3048528976669" lon="11.337348242210211"><ele>277.5</ele><time>2026-03-28T12:04:40.996Z</time></trkpt><trkpt lat="43.30473047769831" lon="11.337274107154107"><ele>276.0</ele><time>2026-03-28T12:04:41.996Z</time></trkpt><trkpt lat="43.30461703880673" lon="11.33719937976849"><ele>274.5</ele><time>2026-03-28T12:04:42.996Z</time></trkpt><trkpt lat="43.30450504877033" lon="11.337126626036296"><ele>273.0</ele><time>2026-03-28T12:04:43.996Z</time></trkpt><trkpt lat="43.304398034127274" lon="11.337057461193647"><ele>272.5</ele><time>2026-03-28T12:04:44.996Z</time></trkpt><trkpt lat="43.30428613420203" lon="11.336993503782692"><ele>272.0</ele><time>2026-03-28T12:04:45.996Z</time></trkpt><trkpt lat="43.304156659216346" lon="11.336973516059675"><ele>271.5</ele><time>2026-03-28T12:04:46.996Z</time></trkpt><trkpt lat="43.30402027213508" lon="11.336978718254704"><ele>271.0</ele><time>2026-03-28T12:04:47.996Z</time></trkpt><trkpt lat="43.3038783668522" lon="11.337026683081683"><ele>270.75</ele><time>2026-03-28T12:04:48.996Z</time></trkpt><trkpt lat="43.30373320067906" lon="11.337091046071404"><ele>270.5</ele><time>2026-03-28T12:04:49.996Z</time></trkpt><trkpt lat="43.30359966391142" lon="11.337150315901974"><ele>270.25</ele><time>2026-03-28T12:04:50.996Z</time></trkpt><trkpt lat="43.30346600187195" lon="11.337211512318202"><ele>270.0</ele><time>2026-03-28T12:04:51.996Z</time></trkpt><trkpt lat="43.303341584502625" lon="11.337274843915917"><ele>270.0</ele><time>2026-03-28T12:04:52.996Z</time></trkpt><trkpt lat="43.303218681639926" lon="11.337338375047036"><ele>270.0</ele><time>2026-03-28T12:04:53.996Z</time></trkpt><trkpt lat="43.303100850645876" lon="11.337398425993214"><ele>270.0</ele><time>2026-03-28T12:04:54.996Z</time></trkpt><trkpt lat="43.30298590861271" lon="11.337471836942143"><ele>270.0</ele><time>2026-03-28T12:04:55.996Z</time></trkpt><trkpt lat="43.30287152840269" lon="11.337549135406315"><ele>269.5</ele><time>2026-03-28T12:04:56.996Z</time></trkpt><trkpt lat="43.30275202564076" lon="11.337627022198875"><ele>269.0</ele><time>2026-03-28T12:04:57.996Z</time></trkpt><trkpt lat="43.30262939943132" lon="11.337709516415858"><ele>268.5</ele><time>2026-03-28T12:04:58.996Z</time></trkpt><trkpt lat="43.30250324648066" lon="11.337791520652328"><ele>268.0</ele><time>2026-03-28T12:04:59.996Z</time></trkpt><trkpt lat="43.302375058817596" lon="11.337858468335273"><ele>264.0</ele><time>2026-03-28T12:05:00.996Z</time></trkpt><trkpt lat="43.3022403815852" lon="11.337920769286026"><ele>260.0</ele><time>2026-03-28T12:05:01.996Z</time></trkpt><trkpt lat="43.30208292584932" lon="11.337963758434407"><ele>256.0</ele><time>2026-03-28T12:05:02.996Z</time></trkpt><trkpt lat="43.30192865093251" lon="11.33799155704916"><ele>256.0</ele><time>2026-03-28T12:05:03.996Z</time></trkpt><trkpt lat="43.30178136194002" lon="11.33802066171439"><ele>256.0</ele><time>2026-03-28T12:05:04.996Z</time></trkpt><trkpt lat="43.30164143536147" lon="11.338028467885136"><ele>256.0</ele><time>2026-03-28T12:05:05.996Z</time></trkpt><trkpt lat="43.30149995358649" lon="11.338004442931435"><ele>256.0</ele><time>2026-03-28T12:05:06.996Z</time></trkpt><trkpt lat="43.30135953908734" lon="11.337935996854116"><ele>255.25</ele><time>2026-03-28T12:05:07.996Z</time></trkpt><trkpt lat="43.30121857669705" lon="11.337869212088473"><ele>254.5</ele><time>2026-03-28T12:05:08.996Z</time></trkpt><trkpt lat="43.30108963157848" lon="11.337781795432344"><ele>253.75</ele><time>2026-03-28T12:05:09.996Z</time></trkpt><trkpt lat="43.30096654757236" lon="11.337681730298723"><ele>253.0</ele><time>2026-03-28T12:05:10.996Z</time></trkpt><trkpt lat="43.300846067047715" lon="11.337562937402517"><ele>253.0</ele><time>2026-03-28T12:05:11.996Z</time></trkpt><trkpt lat="43.30073683024013" lon="11.337467392821598"><ele>253.0</ele><time>2026-03-28T12:05:12.996Z</time></trkpt><trkpt lat="43.30062603702943" lon="11.337388155012711"><ele>253.0</ele><time>2026-03-28T12:05:13.996Z</time></trkpt><trkpt lat="43.30051730515445" lon="11.337326871871248"><ele>253.0</ele><time>2026-03-28T12:05:14.996Z</time></trkpt><trkpt lat="43.300398302690205" lon="11.337280536093433"><ele>253.25</ele><time>2026-03-28T12:05:15.996Z</time></trkpt><trkpt lat="43.30026695758962" lon="11.337246387839887"><ele>253.5</ele><time>2026-03-28T12:05:16.996Z</time></trkpt><trkpt lat="43.30013933112598" lon="11.337221312446694"><ele>253.75</ele><time>2026-03-28T12:05:17.996Z</time></trkpt><trkpt lat="43.300019038915885" lon="11.337195182640688"><ele>254.0</ele><time>2026-03-28T12:05:18.996Z</time></trkpt><trkpt lat="43.29990275120335" lon="11.337171039629709"><ele>252.79999999999998</ele><time>2026-03-28T12:05:19.996Z</time></trkpt><trkpt lat="43.29978845295412" lon="11.337150366354031"><ele>251.59999999999997</ele><time>2026-03-28T12:05:20.996Z</time></trkpt><trkpt lat="43.29967103599644" lon="11.337133482615094"><ele>250.4</ele><time>2026-03-28T12:05:21.996Z</time></trkpt><trkpt lat="43.29956736852862" lon="11.3371255517252"><ele>249.2</ele><time>2026-03-28T12:05:22.996Z</time></trkpt><trkpt lat="43.29945992120159" lon="11.337137075982373"><ele>248.0</ele><time>2026-03-28T12:05:23.996Z</time></trkpt><trkpt lat="43.299331918753225" lon="11.337167219982522"><ele>248.0</ele><time>2026-03-28T12:05:24.996Z</time></trkpt><trkpt lat="43.29920003681723" lon="11.3372161892425"><ele>248.0</ele><time>2026-03-28T12:05:25.996Z</time></trkpt><trkpt lat="43.29906407359158" lon="11.337225102175607"><ele>248.0</ele><time>2026-03-28T12:05:26.996Z</time></trkpt><trkpt lat="43.2989390302072" lon="11.337267510699448"><ele>248.0</ele><time>2026-03-28T12:05:27.996Z</time></trkpt><trkpt lat="43.29881960665975" lon="11.337319271361672"><ele>247.0</ele><time>2026-03-28T12:05:28.996Z</time></trkpt><trkpt lat="43.298699062794896" lon="11.337378132705489"><ele>246.0</ele><time>2026-03-28T12:05:29.996Z</time></trkpt><trkpt lat="43.29858138598599" lon="11.3374526267233"><ele>245.0</ele><time>2026-03-28T12:05:30.996Z</time></trkpt><trkpt lat="43.298465134789275" lon="11.337538314534248"><ele>244.0</ele><time>2026-03-28T12:05:31.996Z</time></trkpt><trkpt lat="43.29835012844546" lon="11.337633138743179"><ele>244.0</ele><time>2026-03-28T12:05:32.996Z</time></trkpt><trkpt lat="43.2982381266542" lon="11.337739335812865"><ele>244.0</ele><time>2026-03-28T12:05:33.996Z</time></trkpt><trkpt lat="43.298127901811114" lon="11.337861292617696"><ele>244.0</ele><time>2026-03-28T12:05:34.996Z</time></trkpt><trkpt lat="43.298021665955574" lon="11.338007844630098"><ele>244.0</ele><time>2026-03-28T12:05:35.996Z</time></trkpt><trkpt lat="43.29791942941438" lon="11.338158752665848"><ele>243.25</ele><time>2026-03-28T12:05:36.996Z</time></trkpt><trkpt lat="43.297829088515954" lon="11.338297833864669"><ele>242.5</ele><time>2026-03-28T12:05:37.996Z</time></trkpt><trkpt lat="43.29774210484786" lon="11.338434724185198"><ele>241.75</ele><time>2026-03-28T12:05:38.996Z</time></trkpt><trkpt lat="43.297647883964075" lon="11.338555089247809"><ele>241.0</ele><time>2026-03-28T12:05:39.996Z</time></trkpt><trkpt lat="43.297562466767026" lon="11.338676534112173"><ele>241.0</ele><time>2026-03-28T12:05:40.996Z</time></trkpt><trkpt lat="43.29746741266069" lon="11.338812563166359"><ele>241.0</ele><time>2026-03-28T12:05:41.996Z</time></trkpt><trkpt lat="43.29736622234375" lon="11.338952480534873"><ele>241.0</ele><time>2026-03-28T12:05:42.996Z</time></trkpt><trkpt lat="43.29726604998675" lon="11.339084202296478"><ele>241.0</ele><time>2026-03-28T12:05:43.996Z</time></trkpt><trkpt lat="43.29715783542451" lon="11.339214085430811"><ele>240.75</ele><time>2026-03-28T12:05:44.996Z</time></trkpt><trkpt lat="43.29706022267165" lon="11.339334948421149"><ele>240.5</ele><time>2026-03-28T12:05:45.996Z</time></trkpt><trkpt lat="43.296958557593385" lon="11.339472821993086"><ele>240.25</ele><time>2026-03-28T12:05:46.996Z</time></trkpt><trkpt lat="43.29686543790393" lon="11.33960683064126"><ele>240.0</ele><time>2026-03-28T12:05:47.996Z</time></trkpt><trkpt lat="43.29677370543113" lon="11.339751456335769"><ele>240.5</ele><time>2026-03-28T12:05:48.996Z</time></trkpt><trkpt lat="43.29668572239533" lon="11.339890866207043"><ele>241.0</ele><time>2026-03-28T12:05:49.996Z</time></trkpt><trkpt lat="43.29659830586009" lon="11.340023651909931"><ele>241.5</ele><time>2026-03-28T12:05:50.996Z</time></trkpt><trkpt lat="43.296517069075456" lon="11.340168450287184"><ele>242.0</ele><time>2026-03-28T12:05:51.996Z</time></trkpt><trkpt lat="43.29644502696654" lon="11.340303296074225"><ele>242.39999999999998</ele><time>2026-03-28T12:05:52.996Z</time></trkpt><trkpt lat="43.29638184881102" lon="11.340440090706949"><ele>242.79999999999998</ele><time>2026-03-28T12:05:53.996Z</time></trkpt><trkpt lat="43.29632469477277" lon="11.3405721801758"><ele>243.2</ele><time>2026-03-28T12:05:54.996Z</time></trkpt><trkpt lat="43.29627626744596" lon="11.340697226521495"><ele>243.6</ele><time>2026-03-28T12:05:55.996Z</time></trkpt><trkpt lat="43.29623015899826" lon="11.34080746161049"><ele>244.0</ele><time>2026-03-28T12:05:56.996Z</time></trkpt><trkpt lat="43.29618417923575" lon="11.340907565571237"><ele>244.16666666666666</ele><time>2026-03-28T12:05:57.996Z</time></trkpt><trkpt lat="43.29614597184564" lon="11.341002290179928"><ele>244.33333333333331</ele><time>2026-03-28T12:05:58.996Z</time></trkpt><trkpt lat="43.296112289968704" lon="11.341080009227301"><ele>244.5</ele><time>2026-03-28T12:05:59.996Z</time></trkpt><trkpt lat="43.29608141336259" lon="11.341155572303544"><ele>244.66666666666669</ele><time>2026-03-28T12:06:00.996Z</time></trkpt><trkpt lat="43.296030215209285" lon="11.341263864524983"><ele>244.83333333333334</ele><time>2026-03-28T12:06:02.996Z</time></trkpt><trkpt lat="43.29599822899437" lon="11.341342803186906"><ele>245.0</ele><time>2026-03-28T12:06:05.996Z</time></trkpt><trkpt lat="43.29593402544614" lon="11.341475422475533"><ele>245.0</ele><time>2026-03-28T12:06:10.996Z</time></trkpt><trkpt lat="43.29589428043592" lon="11.341568243059474"><ele>245.0</ele><time>2026-03-28T12:06:11.996Z</time></trkpt><trkpt lat="43.295848330134696" lon="11.341693656799523"><ele>245.0</ele><time>2026-03-28T12:06:12.996Z</time></trkpt><trkpt lat="43.29579047049025" lon="11.341827801047113"><ele>245.0</ele><time>2026-03-28T12:06:13.996Z</time></trkpt><trkpt lat="43.29570749804685" lon="11.341957413070682"><ele>245.0</ele><time>2026-03-28T12:06:14.996Z</time></trkpt><trkpt lat="43.295602978394285" lon="11.342080625108913"><ele>245.0</ele><time>2026-03-28T12:06:15.996Z</time></trkpt><trkpt lat="43.29549271265006" lon="11.342199422019707"><ele>245.0</ele><time>2026-03-28T12:06:16.996Z</time></trkpt><trkpt lat="43.295386885561285" lon="11.342292014856442"><ele>245.0</ele><time>2026-03-28T12:06:17.996Z</time></trkpt><trkpt lat="43.2952864534863" lon="11.34237839820986"><ele>245.0</ele><time>2026-03-28T12:06:18.996Z</time></trkpt><trkpt lat="43.295174867170964" lon="11.3424537219176"><ele>245.0</ele><time>2026-03-28T12:06:19.996Z</time></trkpt><trkpt lat="43.29506790800552" lon="11.342521371578806"><ele>245.0</ele><time>2026-03-28T12:06:20.996Z</time></trkpt><trkpt lat="43.29495558979407" lon="11.342587492532024"><ele>245.0</ele><time>2026-03-28T12:06:21.996Z</time></trkpt><trkpt lat="43.29484001891473" lon="11.342666096303285"><ele>245.0</ele><time>2026-03-28T12:06:22.996Z</time></trkpt><trkpt lat="43.29472194572904" lon="11.342747458212173"><ele>244.0</ele><time>2026-03-28T12:06:23.996Z</time></trkpt><trkpt lat="43.29460255785688" lon="11.342813911982768"><ele>243.0</ele><time>2026-03-28T12:06:24.996Z</time></trkpt><trkpt lat="43.29448464096966" lon="11.34287783687676"><ele>242.0</ele><time>2026-03-28T12:06:25.996Z</time></trkpt><trkpt lat="43.29436464754085" lon="11.342947071062648"><ele>241.0</ele><time>2026-03-28T12:06:26.996Z</time></trkpt><trkpt lat="43.29424371560713" lon="11.343003428969173"><ele>241.5</ele><time>2026-03-28T12:06:27.997Z</time></trkpt><trkpt lat="43.29411918484302" lon="11.343049947480857"><ele>242.0</ele><time>2026-03-28T12:06:28.997Z</time></trkpt><trkpt lat="43.29399424111004" lon="11.343090437592581"><ele>242.5</ele><time>2026-03-28T12:06:29.997Z</time></trkpt><trkpt lat="43.29386398047545" lon="11.343125887275502"><ele>243.0</ele><time>2026-03-28T12:06:30.997Z</time></trkpt><trkpt lat="43.29373582305062" lon="11.343160238767114"><ele>243.0</ele><time>2026-03-28T12:06:31.997Z</time></trkpt><trkpt lat="43.29360819747948" lon="11.343193909554863"><ele>243.0</ele><time>2026-03-28T12:06:32.997Z</time></trkpt><trkpt lat="43.29346861827344" lon="11.343218632754919"><ele>243.0</ele><time>2026-03-28T12:06:33.997Z</time></trkpt><trkpt lat="43.29333954628318" lon="11.343249337140431"><ele>243.0</ele><time>2026-03-28T12:06:34.996Z</time></trkpt><trkpt lat="43.293211726318795" lon="11.343287018790557"><ele>243.0</ele><time>2026-03-28T12:06:35.996Z</time></trkpt><trkpt lat="43.29309033425497" lon="11.343327314700097"><ele>243.0</ele><time>2026-03-28T12:06:36.997Z</time></trkpt><trkpt lat="43.29297218190919" lon="11.343369970992729"><ele>243.0</ele><time>2026-03-28T12:06:37.997Z</time></trkpt><trkpt lat="43.29285265657551" lon="11.343417261163873"><ele>243.0</ele><time>2026-03-28T12:06:38.997Z</time></trkpt><trkpt lat="43.292722496766046" lon="11.343468815757372"><ele>243.25</ele><time>2026-03-28T12:06:39.997Z</time></trkpt><trkpt lat="43.2925898358958" lon="11.343521821914763"><ele>243.5</ele><time>2026-03-28T12:06:40.997Z</time></trkpt><trkpt lat="43.29245303939838" lon="11.343570047363306"><ele>243.75</ele><time>2026-03-28T12:06:41.997Z</time></trkpt><trkpt lat="43.29232165749434" lon="11.34362612756355"><ele>244.0</ele><time>2026-03-28T12:06:42.997Z</time></trkpt><trkpt lat="43.29219371660425" lon="11.343677700801816"><ele>244.0</ele><time>2026-03-28T12:06:43.997Z</time></trkpt><trkpt lat="43.29206739781417" lon="11.343728817748744"><ele>244.0</ele><time>2026-03-28T12:06:44.997Z</time></trkpt><trkpt lat="43.29194234908408" lon="11.343775160707821"><ele>244.0</ele><time>2026-03-28T12:06:45.997Z</time></trkpt><trkpt lat="43.291812176653245" lon="11.343807816017346"><ele>244.0</ele><time>2026-03-28T12:06:46.997Z</time></trkpt><trkpt lat="43.291681042962615" lon="11.34383792746381"><ele>244.0</ele><time>2026-03-28T12:06:47.997Z</time></trkpt><trkpt lat="43.29155436702255" lon="11.343864037553233"><ele>244.0</ele><time>2026-03-28T12:06:48.997Z</time></trkpt><trkpt lat="43.29142716771685" lon="11.343882909998477"><ele>244.0</ele><time>2026-03-28T12:06:49.997Z</time></trkpt><trkpt lat="43.291292208618465" lon="11.343897143902725"><ele>244.0</ele><time>2026-03-28T12:06:50.997Z</time></trkpt><trkpt lat="43.29115593647172" lon="11.343909275015436"><ele>244.0</ele><time>2026-03-28T12:06:51.997Z</time></trkpt><trkpt lat="43.29102236693656" lon="11.343916403053026"><ele>244.0</ele><time>2026-03-28T12:06:52.997Z</time></trkpt><trkpt lat="43.2908872770275" lon="11.34392021489993"><ele>244.0</ele><time>2026-03-28T12:06:53.997Z</time></trkpt><trkpt lat="43.290751459845126" lon="11.343922352981297"><ele>244.0</ele><time>2026-03-28T12:06:54.997Z</time></trkpt><trkpt lat="43.290615737357435" lon="11.343918978439284"><ele>244.75</ele><time>2026-03-28T12:06:55.997Z</time></trkpt><trkpt lat="43.29048206108557" lon="11.343912511890212"><ele>245.5</ele><time>2026-03-28T12:06:56.997Z</time></trkpt><trkpt lat="43.29034757097949" lon="11.343891589330585"><ele>246.25</ele><time>2026-03-28T12:06:57.997Z</time></trkpt><trkpt lat="43.29021439605112" lon="11.343859982826858"><ele>247.0</ele><time>2026-03-28T12:06:58.997Z</time></trkpt><trkpt lat="43.2900821147075" lon="11.343819153696197"><ele>247.0</ele><time>2026-03-28T12:06:59.997Z</time></trkpt><trkpt lat="43.289951321322995" lon="11.34377770741566"><ele>247.0</ele><time>2026-03-28T12:07:00.997Z</time></trkpt><trkpt lat="43.289818878894046" lon="11.343742194256341"><ele>247.0</ele><time>2026-03-28T12:07:01.997Z</time></trkpt><trkpt lat="43.28968569544924" lon="11.343719363775351"><ele>247.0</ele><time>2026-03-28T12:07:02.997Z</time></trkpt><trkpt lat="43.289550934819786" lon="11.343709331731324"><ele>247.25</ele><time>2026-03-28T12:07:03.997Z</time></trkpt><trkpt lat="43.28941840698793" lon="11.343730916006162"><ele>247.5</ele><time>2026-03-28T12:07:04.997Z</time></trkpt><trkpt lat="43.28928884072298" lon="11.343766188071552"><ele>247.75</ele><time>2026-03-28T12:07:05.997Z</time></trkpt><trkpt lat="43.28916887600132" lon="11.343796435975557"><ele>248.0</ele><time>2026-03-28T12:07:06.997Z</time></trkpt><trkpt lat="43.28904733425192" lon="11.343810655310445"><ele>248.0</ele><time>2026-03-28T12:07:07.997Z</time></trkpt><trkpt lat="43.28893800791442" lon="11.343821175049198"><ele>248.0</ele><time>2026-03-28T12:07:08.997Z</time></trkpt><trkpt lat="43.28882654024175" lon="11.343835777526163"><ele>248.0</ele><time>2026-03-28T12:07:09.997Z</time></trkpt><trkpt lat="43.288704803629244" lon="11.34386668769335"><ele>248.0</ele><time>2026-03-28T12:07:10.997Z</time></trkpt><trkpt lat="43.28857323167548" lon="11.343906492142585"><ele>248.0</ele><time>2026-03-28T12:07:11.997Z</time></trkpt><trkpt lat="43.288442533265474" lon="11.343943407328865"><ele>248.0</ele><time>2026-03-28T12:07:12.997Z</time></trkpt><trkpt lat="43.28831069840985" lon="11.343985164490812"><ele>248.0</ele><time>2026-03-28T12:07:13.997Z</time></trkpt><trkpt lat="43.28818541405994" lon="11.344022300716235"><ele>248.0</ele><time>2026-03-28T12:07:14.997Z</time></trkpt><trkpt lat="43.288067652583905" lon="11.34406163045899"><ele>248.0</ele><time>2026-03-28T12:07:15.997Z</time></trkpt><trkpt lat="43.28794964557657" lon="11.34412234089385"><ele>248.0</ele><time>2026-03-28T12:07:16.997Z</time></trkpt><trkpt lat="43.28783319851383" lon="11.344197246883569"><ele>248.0</ele><time>2026-03-28T12:07:17.997Z</time></trkpt><trkpt lat="43.28771363321792" lon="11.344312394281857"><ele>248.0</ele><time>2026-03-28T12:07:18.997Z</time></trkpt><trkpt lat="43.28759338421358" lon="11.344444200797708"><ele>248.0</ele><time>2026-03-28T12:07:19.997Z</time></trkpt><trkpt lat="43.287482072776854" lon="11.344612658226437"><ele>248.0</ele><time>2026-03-28T12:07:20.997Z</time></trkpt><trkpt lat="43.28735235012524" lon="11.344757925888542"><ele>248.0</ele><time>2026-03-28T12:07:21.997Z</time></trkpt><trkpt lat="43.287239975697624" lon="11.344922403108924"><ele>247.0</ele><time>2026-03-28T12:07:22.997Z</time></trkpt><trkpt lat="43.2871474387827" lon="11.345093640341286"><ele>246.0</ele><time>2026-03-28T12:07:23.997Z</time></trkpt><trkpt lat="43.287054985097654" lon="11.345250170655344"><ele>245.0</ele><time>2026-03-28T12:07:24.997Z</time></trkpt><trkpt lat="43.286978538096044" lon="11.345411131480395"><ele>244.0</ele><time>2026-03-28T12:07:25.997Z</time></trkpt><trkpt lat="43.286916233222" lon="11.345540137789426"><ele>244.25</ele><time>2026-03-28T12:07:26.997Z</time></trkpt><trkpt lat="43.286855675101314" lon="11.345683771951299"><ele>244.5</ele><time>2026-03-28T12:07:27.997Z</time></trkpt><trkpt lat="43.2868010338306" lon="11.345860415761969"><ele>244.75</ele><time>2026-03-28T12:07:28.997Z</time></trkpt><trkpt lat="43.28676291474371" lon="11.346046594026655"><ele>245.0</ele><time>2026-03-28T12:07:29.997Z</time></trkpt><trkpt lat="43.28673391772576" lon="11.346239844689945"><ele>244.0</ele><time>2026-03-28T12:07:30.997Z</time></trkpt><trkpt lat="43.28670382739089" lon="11.346439098794761"><ele>243.0</ele><time>2026-03-28T12:07:31.997Z</time></trkpt><trkpt lat="43.286685796820265" lon="11.346637055341533"><ele>242.0</ele><time>2026-03-28T12:07:32.997Z</time></trkpt><trkpt lat="43.28667476457693" lon="11.34682021799795"><ele>241.0</ele><time>2026-03-28T12:07:33.997Z</time></trkpt><trkpt lat="43.286657505579825" lon="11.346999677657585"><ele>241.0</ele><time>2026-03-28T12:07:34.997Z</time></trkpt><trkpt lat="43.28663727875028" lon="11.347184584316018"><ele>241.0</ele><time>2026-03-28T12:07:35.997Z</time></trkpt><trkpt lat="43.28660680343532" lon="11.347384455281007"><ele>241.0</ele><time>2026-03-28T12:07:36.997Z</time></trkpt><trkpt lat="43.286568065319535" lon="11.34757409284815"><ele>241.0</ele><time>2026-03-28T12:07:37.997Z</time></trkpt><trkpt lat="43.286524634820246" lon="11.347753754967595"><ele>241.0</ele><time>2026-03-28T12:07:38.997Z</time></trkpt><trkpt lat="43.28647185926957" lon="11.347922453408337"><ele>241.0</ele><time>2026-03-28T12:07:39.997Z</time></trkpt><trkpt lat="43.28642314463785" lon="11.348101328937723"><ele>241.0</ele><time>2026-03-28T12:07:40.997Z</time></trkpt><trkpt lat="43.28637220967935" lon="11.348281625895778"><ele>241.0</ele><time>2026-03-28T12:07:41.997Z</time></trkpt><trkpt lat="43.28631120659866" lon="11.34845280605542"><ele>239.25</ele><time>2026-03-28T12:07:42.997Z</time></trkpt><trkpt lat="43.28624278524212" lon="11.348621413824514"><ele>237.5</ele><time>2026-03-28T12:07:43.997Z</time></trkpt><trkpt lat="43.286171964585776" lon="11.348790506247584"><ele>235.75</ele><time>2026-03-28T12:07:44.997Z</time></trkpt><trkpt lat="43.28610180188678" lon="11.348956153076022"><ele>234.0</ele><time>2026-03-28T12:07:45.997Z</time></trkpt><trkpt lat="43.28603310420776" lon="11.349122374650745"><ele>234.0</ele><time>2026-03-28T12:07:46.997Z</time></trkpt><trkpt lat="43.28596326874795" lon="11.349292198836393"><ele>234.0</ele><time>2026-03-28T12:07:47.997Z</time></trkpt><trkpt lat="43.285891994025896" lon="11.349468492132157"><ele>234.0</ele><time>2026-03-28T12:07:48.997Z</time></trkpt><trkpt lat="43.28581791232132" lon="11.349652958862054"><ele>234.0</ele><time>2026-03-28T12:07:49.997Z</time></trkpt><trkpt lat="43.28574278255832" lon="11.34984901577974"><ele>234.33333333333331</ele><time>2026-03-28T12:07:50.997Z</time></trkpt><trkpt lat="43.285672847002566" lon="11.35004473028395"><ele>234.66666666666666</ele><time>2026-03-28T12:07:51.997Z</time></trkpt><trkpt lat="43.28560826655384" lon="11.350248618345894"><ele>235.0</ele><time>2026-03-28T12:07:52.997Z</time></trkpt><trkpt lat="43.285544683017015" lon="11.35045883602328"><ele>236.0</ele><time>2026-03-28T12:07:53.997Z</time></trkpt><trkpt lat="43.285474673794916" lon="11.350672920924387"><ele>237.0</ele><time>2026-03-28T12:07:54.997Z</time></trkpt><trkpt lat="43.2854035471405" lon="11.350888687765996"><ele>238.0</ele><time>2026-03-28T12:07:55.997Z</time></trkpt><trkpt lat="43.285335572577715" lon="11.35110620613362"><ele>238.0</ele><time>2026-03-28T12:07:56.997Z</time></trkpt><trkpt lat="43.28526718670864" lon="11.351327149411237"><ele>238.0</ele><time>2026-03-28T12:07:57.997Z</time></trkpt><trkpt lat="43.28520100715797" lon="11.351548417994415"><ele>238.0</ele><time>2026-03-28T12:07:58.997Z</time></trkpt><trkpt lat="43.28513020422088" lon="11.351773598258312"><ele>238.0</ele><time>2026-03-28T12:07:59.997Z</time></trkpt><trkpt lat="43.2850580794992" lon="11.351996932981914"><ele>238.0</ele><time>2026-03-28T12:08:00.997Z</time></trkpt><trkpt lat="43.28498314686266" lon="11.352219800812598"><ele>238.0</ele><time>2026-03-28T12:08:01.997Z</time></trkpt><trkpt lat="43.284902652794926" lon="11.352438301506288"><ele>238.0</ele><time>2026-03-28T12:08:02.997Z</time></trkpt><trkpt lat="43.284815053815585" lon="11.352639729311104"><ele>238.0</ele><time>2026-03-28T12:08:03.997Z</time></trkpt><trkpt lat="43.28472453492365" lon="11.352818575642383"><ele>238.0</ele><time>2026-03-28T12:08:04.997Z</time></trkpt><trkpt lat="43.28463600989794" lon="11.35296876533821"><ele>237.5</ele><time>2026-03-28T12:08:05.997Z</time></trkpt><trkpt lat="43.28453402239658" lon="11.353100147263314"><ele>237.0</ele><time>2026-03-28T12:08:06.997Z</time></trkpt><trkpt lat="43.28442435638798" lon="11.353212376497764"><ele>236.5</ele><time>2026-03-28T12:08:07.997Z</time></trkpt><trkpt lat="43.284307896446194" lon="11.353323030979563"><ele>236.0</ele><time>2026-03-28T12:08:08.997Z</time></trkpt><trkpt lat="43.284182739165296" lon="11.353417140151024"><ele>236.0</ele><time>2026-03-28T12:08:09.997Z</time></trkpt><trkpt lat="43.28405364257164" lon="11.353496377712089"><ele>236.0</ele><time>2026-03-28T12:08:10.997Z</time></trkpt><trkpt lat="43.283915258280956" lon="11.353556272166829"><ele>236.0</ele><time>2026-03-28T12:08:11.997Z</time></trkpt><trkpt lat="43.28376872779801" lon="11.353606664885708"><ele>236.0</ele><time>2026-03-28T12:08:12.997Z</time></trkpt><trkpt lat="43.28361796549334" lon="11.353646582030608"><ele>236.66666666666669</ele><time>2026-03-28T12:08:13.997Z</time></trkpt><trkpt lat="43.28346802705273" lon="11.353644684462747"><ele>237.33333333333331</ele><time>2026-03-28T12:08:14.997Z</time></trkpt><trkpt lat="43.283316491307176" lon="11.353611879899033"><ele>238.0</ele><time>2026-03-28T12:08:15.997Z</time></trkpt><trkpt lat="43.28315745510992" lon="11.35356132359235"><ele>238.0</ele><time>2026-03-28T12:08:16.997Z</time></trkpt><trkpt lat="43.2829980608044" lon="11.353533624337906"><ele>238.0</ele><time>2026-03-28T12:08:17.997Z</time></trkpt><trkpt lat="43.282831021938385" lon="11.35353152595816"><ele>238.0</ele><time>2026-03-28T12:08:18.997Z</time></trkpt><trkpt lat="43.28267703482818" lon="11.353511219605224"><ele>238.0</ele><time>2026-03-28T12:08:19.997Z</time></trkpt><trkpt lat="43.28253118307226" lon="11.35349079853719"><ele>238.0</ele><time>2026-03-28T12:08:20.997Z</time></trkpt><trkpt lat="43.28239065622605" lon="11.353470194123174"><ele>238.0</ele><time>2026-03-28T12:08:21.997Z</time></trkpt><trkpt lat="43.282252594361125" lon="11.353442559624998"><ele>238.0</ele><time>2026-03-28T12:08:22.997Z</time></trkpt><trkpt lat="43.28211379547687" lon="11.353413942044162"><ele>238.0</ele><time>2026-03-28T12:08:23.997Z</time></trkpt><trkpt lat="43.281972684012715" lon="11.353388834325576"><ele>238.0</ele><time>2026-03-28T12:08:24.997Z</time></trkpt><trkpt lat="43.28182949303951" lon="11.353366419027033"><ele>238.0</ele><time>2026-03-28T12:08:25.997Z</time></trkpt><trkpt lat="43.28168458049581" lon="11.353335467737846"><ele>238.0</ele><time>2026-03-28T12:08:26.997Z</time></trkpt><trkpt lat="43.28153662789999" lon="11.353304148529016"><ele>238.0</ele><time>2026-03-28T12:08:27.997Z</time></trkpt><trkpt lat="43.281387590867865" lon="11.353265129059876"><ele>238.0</ele><time>2026-03-28T12:08:28.997Z</time></trkpt><trkpt lat="43.28123689951419" lon="11.35322575372247"><ele>238.0</ele><time>2026-03-28T12:08:29.997Z</time></trkpt><trkpt lat="43.28108635394849" lon="11.353180692135743"><ele>238.0</ele><time>2026-03-28T12:08:30.997Z</time></trkpt><trkpt lat="43.28093409290245" lon="11.35313036195255"><ele>238.0</ele><time>2026-03-28T12:08:31.997Z</time></trkpt><trkpt lat="43.28078165426139" lon="11.353075343033556"><ele>238.0</ele><time>2026-03-28T12:08:32.997Z</time></trkpt><trkpt lat="43.28062283233972" lon="11.353023115001308"><ele>235.33333333333331</ele><time>2026-03-28T12:08:33.997Z</time></trkpt><trkpt lat="43.280463317801974" lon="11.352971787155717"><ele>232.66666666666669</ele><time>2026-03-28T12:08:34.996Z</time></trkpt><trkpt lat="43.28030526617582" lon="11.35291648109068"><ele>230.0</ele><time>2026-03-28T12:08:35.996Z</time></trkpt><trkpt lat="43.280146172678904" lon="11.352862592407018"><ele>230.0</ele><time>2026-03-28T12:08:36.996Z</time></trkpt><trkpt lat="43.27998641398987" lon="11.352809849670235"><ele>230.0</ele><time>2026-03-28T12:08:37.996Z</time></trkpt><trkpt lat="43.27982452806306" lon="11.352761001985996"><ele>230.0</ele><time>2026-03-28T12:08:38.996Z</time></trkpt><trkpt lat="43.279660800762194" lon="11.35272188520012"><ele>229.0</ele><time>2026-03-28T12:08:39.996Z</time></trkpt><trkpt lat="43.27949648852008" lon="11.352689405351926"><ele>228.0</ele><time>2026-03-28T12:08:40.996Z</time></trkpt><trkpt lat="43.279334409917325" lon="11.352662935111992"><ele>227.0</ele><time>2026-03-28T12:08:41.996Z</time></trkpt><trkpt lat="43.279177821012084" lon="11.352624767306995"><ele>227.0</ele><time>2026-03-28T12:08:42.996Z</time></trkpt><trkpt lat="43.27902140346575" lon="11.35261788347978"><ele>227.0</ele><time>2026-03-28T12:08:43.997Z</time></trkpt><trkpt lat="43.27886753211388" lon="11.352648291225803"><ele>227.0</ele><time>2026-03-28T12:08:44.997Z</time></trkpt><trkpt lat="43.27871800729653" lon="11.352692153745512"><ele>227.0</ele><time>2026-03-28T12:08:45.997Z</time></trkpt><trkpt lat="43.27857413649994" lon="11.352752572999284"><ele>227.0</ele><time>2026-03-28T12:08:46.996Z</time></trkpt><trkpt lat="43.2784329387246" lon="11.35283952701315"><ele>227.0</ele><time>2026-03-28T12:08:47.996Z</time></trkpt><trkpt lat="43.27829196842015" lon="11.352931287393787"><ele>227.0</ele><time>2026-03-28T12:08:48.996Z</time></trkpt><trkpt lat="43.27814660044" lon="11.353013764835085"><ele>227.0</ele><time>2026-03-28T12:08:49.996Z</time></trkpt><trkpt lat="43.278000589998" lon="11.353095345088585"><ele>227.0</ele><time>2026-03-28T12:08:50.996Z</time></trkpt><trkpt lat="43.27785732811778" lon="11.353178260706386"><ele>228.33333333333334</ele><time>2026-03-28T12:08:51.996Z</time></trkpt><trkpt lat="43.27771393007547" lon="11.353269986694496"><ele>229.66666666666669</ele><time>2026-03-28T12:08:52.996Z</time></trkpt><trkpt lat="43.27756718468649" lon="11.353356282446121"><ele>231.0</ele><time>2026-03-28T12:08:53.996Z</time></trkpt><trkpt lat="43.277418371601044" lon="11.353445772516885"><ele>231.33333333333331</ele><time>2026-03-28T12:08:54.996Z</time></trkpt><trkpt lat="43.27726169826296" lon="11.353532348354534"><ele>231.66666666666666</ele><time>2026-03-28T12:08:55.996Z</time></trkpt><trkpt lat="43.27710122176451" lon="11.353601002419865"><ele>232.0</ele><time>2026-03-28T12:08:56.996Z</time></trkpt><trkpt lat="43.27693143212867" lon="11.35365524050138"><ele>232.0</ele><time>2026-03-28T12:08:57.996Z</time></trkpt><trkpt lat="43.276745986886034" lon="11.353705112606493"><ele>232.0</ele><time>2026-03-28T12:08:58.996Z</time></trkpt><trkpt lat="43.276550298988305" lon="11.35374829533656"><ele>232.0</ele><time>2026-03-28T12:08:59.996Z</time></trkpt><trkpt lat="43.2763520508139" lon="11.35378747663199"><ele>230.33333333333331</ele><time>2026-03-28T12:09:00.996Z</time></trkpt><trkpt lat="43.27615482663144" lon="11.353827211609806"><ele>228.66666666666669</ele><time>2026-03-28T12:09:01.996Z</time></trkpt><trkpt lat="43.27596264522575" lon="11.35386534140914"><ele>227.0</ele><time>2026-03-28T12:09:02.996Z</time></trkpt><trkpt lat="43.27577138815399" lon="11.35390461428615"><ele>225.33333333333334</ele><time>2026-03-28T12:09:03.996Z</time></trkpt><trkpt lat="43.275584129003754" lon="11.353943218463455"><ele>223.66666666666669</ele><time>2026-03-28T12:09:04.996Z</time></trkpt><trkpt lat="43.27539890364608" lon="11.353982358799671"><ele>222.0</ele><time>2026-03-28T12:09:05.996Z</time></trkpt><trkpt lat="43.27522093308777" lon="11.354015322007813"><ele>222.0</ele><time>2026-03-28T12:09:06.996Z</time></trkpt><trkpt lat="43.27505078644829" lon="11.354048357580414"><ele>222.0</ele><time>2026-03-28T12:09:07.996Z</time></trkpt><trkpt lat="43.27488314496585" lon="11.354093553268402"><ele>222.0</ele><time>2026-03-28T12:09:08.996Z</time></trkpt><trkpt lat="43.27471746092327" lon="11.354159652621574"><ele>223.0</ele><time>2026-03-28T12:09:09.996Z</time></trkpt><trkpt lat="43.274560120159514" lon="11.354261441899467"><ele>224.0</ele><time>2026-03-28T12:09:10.996Z</time></trkpt><trkpt lat="43.274414714151575" lon="11.354408423016505"><ele>225.0</ele><time>2026-03-28T12:09:11.996Z</time></trkpt><trkpt lat="43.2742856117262" lon="11.354592959376836"><ele>224.0</ele><time>2026-03-28T12:09:12.996Z</time></trkpt><trkpt lat="43.27416608874344" lon="11.354779135970603"><ele>223.0</ele><time>2026-03-28T12:09:13.996Z</time></trkpt><trkpt lat="43.27404857337491" lon="11.354951364288443"><ele>222.0</ele><time>2026-03-28T12:09:14.996Z</time></trkpt><trkpt lat="43.27393340650354" lon="11.355108122133888"><ele>220.33333333333331</ele><time>2026-03-28T12:09:15.996Z</time></trkpt><trkpt lat="43.27381573592599" lon="11.35524511952652"><ele>218.66666666666666</ele><time>2026-03-28T12:09:16.996Z</time></trkpt><trkpt lat="43.27369738043249" lon="11.355367891457457"><ele>217.0</ele><time>2026-03-28T12:09:17.996Z</time></trkpt><trkpt lat="43.273576827930135" lon="11.355492253327206"><ele>218.5</ele><time>2026-03-28T12:09:18.996Z</time></trkpt><trkpt lat="43.27346887673401" lon="11.355611845992115"><ele>220.0</ele><time>2026-03-28T12:09:19.996Z</time></trkpt><trkpt lat="43.273368697174526" lon="11.355724365933238"><ele>221.5</ele><time>2026-03-28T12:09:20.996Z</time></trkpt><trkpt lat="43.27326679932846" lon="11.355837411543812"><ele>223.0</ele><time>2026-03-28T12:09:21.996Z</time></trkpt><trkpt lat="43.273163342059995" lon="11.355951790911492"><ele>224.0</ele><time>2026-03-28T12:09:22.996Z</time></trkpt><trkpt lat="43.27305611778772" lon="11.356070698957147"><ele>225.0</ele><time>2026-03-28T12:09:23.996Z</time></trkpt><trkpt lat="43.27294590440323" lon="11.356215632292166"><ele>226.0</ele><time>2026-03-28T12:09:24.996Z</time></trkpt><trkpt lat="43.27283186389329" lon="11.356358117190549"><ele>227.0</ele><time>2026-03-28T12:09:25.996Z</time></trkpt><trkpt lat="43.27271344785911" lon="11.35649747364074"><ele>227.0</ele><time>2026-03-28T12:09:26.996Z</time></trkpt><trkpt lat="43.272586642308646" lon="11.35661357500684"><ele>227.0</ele><time>2026-03-28T12:09:27.996Z</time></trkpt><trkpt lat="43.27246801418949" lon="11.356760695251024"><ele>227.0</ele><time>2026-03-28T12:09:28.996Z</time></trkpt><trkpt lat="43.272349146410406" lon="11.356902838018991"><ele>226.0</ele><time>2026-03-28T12:09:29.996Z</time></trkpt><trkpt lat="43.2722250198127" lon="11.357019120968229"><ele>225.0</ele><time>2026-03-28T12:09:30.996Z</time></trkpt><trkpt lat="43.272120485058494" lon="11.357135859778872"><ele>224.0</ele><time>2026-03-28T12:09:31.996Z</time></trkpt><trkpt lat="43.27202522194691" lon="11.35724227149254"><ele>223.0</ele><time>2026-03-28T12:09:32.996Z</time></trkpt><trkpt lat="43.27194303569322" lon="11.35733408921608"><ele>223.0</ele><time>2026-03-28T12:09:33.996Z</time></trkpt><trkpt lat="43.27186213744217" lon="11.357420167694947"><ele>223.0</ele><time>2026-03-28T12:09:35.996Z</time></trkpt><trkpt lat="43.271787790967075" lon="11.357383212440444"><ele>223.0</ele><time>2026-03-28T12:09:36.996Z</time></trkpt><trkpt lat="43.27170715798627" lon="11.357317567746799"><ele>223.0</ele><time>2026-03-28T12:09:37.996Z</time></trkpt><trkpt lat="43.27162533659397" lon="11.357232602274944"><ele>223.0</ele><time>2026-03-28T12:09:38.996Z</time></trkpt><trkpt lat="43.271534590699055" lon="11.35713186656396"><ele>223.0</ele><time>2026-03-28T12:09:39.996Z</time></trkpt><trkpt lat="43.27144697333328" lon="11.357039466766786"><ele>223.0</ele><time>2026-03-28T12:09:40.996Z</time></trkpt><trkpt lat="43.27135379144626" lon="11.35694090415572"><ele>223.0</ele><time>2026-03-28T12:09:41.996Z</time></trkpt><trkpt lat="43.27125979202099" lon="11.356838985698245"><ele>223.0</ele><time>2026-03-28T12:09:42.996Z</time></trkpt><trkpt lat="43.271180468032874" lon="11.356729917289302"><ele>222.8</ele><time>2026-03-28T12:09:43.996Z</time></trkpt><trkpt lat="43.271098309086156" lon="11.3566343394381"><ele>222.60000000000002</ele><time>2026-03-28T12:09:44.996Z</time></trkpt><trkpt lat="43.27101744244692" lon="11.356541952098613"><ele>222.39999999999998</ele><time>2026-03-28T12:09:45.996Z</time></trkpt><trkpt lat="43.270932286260425" lon="11.356450552324189"><ele>222.2</ele><time>2026-03-28T12:09:46.996Z</time></trkpt><trkpt lat="43.270842103070954" lon="11.356360138477797"><ele>222.0</ele><time>2026-03-28T12:09:47.996Z</time></trkpt><trkpt lat="43.27075918898675" lon="11.356280910717203"><ele>220.0</ele><time>2026-03-28T12:09:48.996Z</time></trkpt><trkpt lat="43.27068091279782" lon="11.35619832604324"><ele>218.0</ele><time>2026-03-28T12:09:49.996Z</time></trkpt><trkpt lat="43.27060542405642" lon="11.35611688776014"><ele>216.0</ele><time>2026-03-28T12:09:50.996Z</time></trkpt><trkpt lat="43.27052701700197" lon="11.356044428213098"><ele>214.0</ele><time>2026-03-28T12:09:51.996Z</time></trkpt><trkpt lat="43.27045176852716" lon="11.355980207947864"><ele>212.0</ele><time>2026-03-28T12:09:52.996Z</time></trkpt><trkpt lat="43.27037468774728" lon="11.355934046945551"><ele>211.6</ele><time>2026-03-28T12:09:53.996Z</time></trkpt><trkpt lat="43.27028682342025" lon="11.355904844182412"><ele>211.2</ele><time>2026-03-28T12:09:54.996Z</time></trkpt><trkpt lat="43.27017997436781" lon="11.355892458927217"><ele>210.8</ele><time>2026-03-28T12:09:55.996Z</time></trkpt><trkpt lat="43.270070090865346" lon="11.355891762264456"><ele>210.4</ele><time>2026-03-28T12:09:56.996Z</time></trkpt><trkpt lat="43.26996819479613" lon="11.355904790778146"><ele>210.0</ele><time>2026-03-28T12:09:57.996Z</time></trkpt><trkpt lat="43.26986518939731" lon="11.355915985977282"><ele>207.0</ele><time>2026-03-28T12:09:58.996Z</time></trkpt><trkpt lat="43.26976284176263" lon="11.355944028392477"><ele>204.0</ele><time>2026-03-28T12:09:59.996Z</time></trkpt><trkpt lat="43.269662014228324" lon="11.35599229969591"><ele>201.0</ele><time>2026-03-28T12:10:00.996Z</time></trkpt><trkpt lat="43.269552700896504" lon="11.356064412947504"><ele>198.0</ele><time>2026-03-28T12:10:01.996Z</time></trkpt><trkpt lat="43.269447032614785" lon="11.356157208756409"><ele>198.0</ele><time>2026-03-28T12:10:02.996Z</time></trkpt><trkpt lat="43.269341924137976" lon="11.356239517947925"><ele>198.0</ele><time>2026-03-28T12:10:03.996Z</time></trkpt><trkpt lat="43.2692661157456" lon="11.356362304848641"><ele>198.0</ele><time>2026-03-28T12:10:04.996Z</time></trkpt><trkpt lat="43.26917482055701" lon="11.356461443769135"><ele>198.0</ele><time>2026-03-28T12:10:05.996Z</time></trkpt><trkpt lat="43.26910105864106" lon="11.356604686810844"><ele>199.0</ele><time>2026-03-28T12:10:06.996Z</time></trkpt><trkpt lat="43.2690351784897" lon="11.356766594531813"><ele>200.0</ele><time>2026-03-28T12:10:07.996Z</time></trkpt><trkpt lat="43.26898123686485" lon="11.356926084628821"><ele>201.0</ele><time>2026-03-28T12:10:08.996Z</time></trkpt><trkpt lat="43.26894814913355" lon="11.357088969038792"><ele>202.0</ele><time>2026-03-28T12:10:09.996Z</time></trkpt><trkpt lat="43.26894553005484" lon="11.357255289553658"><ele>198.75</ele><time>2026-03-28T12:10:10.996Z</time></trkpt><trkpt lat="43.26893893169141" lon="11.357431590497795"><ele>195.5</ele><time>2026-03-28T12:10:11.996Z</time></trkpt><trkpt lat="43.268931269091915" lon="11.357605636318214"><ele>192.25</ele><time>2026-03-28T12:10:12.996Z</time></trkpt><trkpt lat="43.26893066140286" lon="11.357774707594357"><ele>189.0</ele><time>2026-03-28T12:10:13.996Z</time></trkpt><trkpt lat="43.2689295306607" lon="11.357951304647766"><ele>189.0</ele><time>2026-03-28T12:10:14.996Z</time></trkpt><trkpt lat="43.268929058101115" lon="11.358129480860656"><ele>189.0</ele><time>2026-03-28T12:10:15.996Z</time></trkpt><trkpt lat="43.268897753230924" lon="11.358307997022642"><ele>189.0</ele><time>2026-03-28T12:10:16.996Z</time></trkpt><trkpt lat="43.268886547844886" lon="11.358493629484158"><ele>189.0</ele><time>2026-03-28T12:10:17.996Z</time></trkpt><trkpt lat="43.268842234445145" lon="11.358662843830421"><ele>189.0</ele><time>2026-03-28T12:10:18.996Z</time></trkpt><trkpt lat="43.26877748213034" lon="11.358827182169888"><ele>189.0</ele><time>2026-03-28T12:10:19.996Z</time></trkpt><trkpt lat="43.268679942028506" lon="11.358968180459557"><ele>189.0</ele><time>2026-03-28T12:10:20.996Z</time></trkpt><trkpt lat="43.268584184936046" lon="11.359097561431273"><ele>189.0</ele><time>2026-03-28T12:10:21.996Z</time></trkpt><trkpt lat="43.26847037367594" lon="11.359207169693864"><ele>189.25</ele><time>2026-03-28T12:10:22.996Z</time></trkpt><trkpt lat="43.26834253720456" lon="11.359289744142089"><ele>189.5</ele><time>2026-03-28T12:10:23.996Z</time></trkpt><trkpt lat="43.26820281372138" lon="11.359352262560106"><ele>189.75</ele><time>2026-03-28T12:10:24.996Z</time></trkpt><trkpt lat="43.26806376095588" lon="11.35938995887753"><ele>190.0</ele><time>2026-03-28T12:10:25.996Z</time></trkpt><trkpt lat="43.267921889626145" lon="11.359382820237393"><ele>188.66666666666669</ele><time>2026-03-28T12:10:26.996Z</time></trkpt><trkpt lat="43.2677724964872" lon="11.35934566069107"><ele>187.33333333333334</ele><time>2026-03-28T12:10:27.996Z</time></trkpt><trkpt lat="43.267616517784596" lon="11.359292762442708"><ele>186.0</ele><time>2026-03-28T12:10:28.996Z</time></trkpt><trkpt lat="43.26745027740013" lon="11.359229724070397"><ele>186.0</ele><time>2026-03-28T12:10:29.996Z</time></trkpt><trkpt lat="43.26727898438209" lon="11.35917436758254"><ele>186.0</ele><time>2026-03-28T12:10:30.996Z</time></trkpt><trkpt lat="43.26710788559819" lon="11.359078425641483"><ele>186.0</ele><time>2026-03-28T12:10:31.996Z</time></trkpt><trkpt lat="43.26693793819791" lon="11.359009286468773"><ele>185.66666666666666</ele><time>2026-03-28T12:10:32.996Z</time></trkpt><trkpt lat="43.266783260223825" lon="11.3589463592745"><ele>185.33333333333331</ele><time>2026-03-28T12:10:33.996Z</time></trkpt><trkpt lat="43.2666377737854" lon="11.358909211795753"><ele>185.0</ele><time>2026-03-28T12:10:34.996Z</time></trkpt><trkpt lat="43.266509313753936" lon="11.358827506141253"><ele>185.0</ele><time>2026-03-28T12:10:35.996Z</time></trkpt><trkpt lat="43.26637380010125" lon="11.358767259848014"><ele>185.0</ele><time>2026-03-28T12:10:36.996Z</time></trkpt><trkpt lat="43.26623928155959" lon="11.358711373397796"><ele>185.0</ele><time>2026-03-28T12:10:37.996Z</time></trkpt><trkpt lat="43.2661020349378" lon="11.358658831562346"><ele>185.0</ele><time>2026-03-28T12:10:38.996Z</time></trkpt><trkpt lat="43.265958647294084" lon="11.358605559716013"><ele>185.0</ele><time>2026-03-28T12:10:39.997Z</time></trkpt><trkpt lat="43.2658152501089" lon="11.35854454657538"><ele>185.0</ele><time>2026-03-28T12:10:40.997Z</time></trkpt><trkpt lat="43.26567644083219" lon="11.358486109112036"><ele>185.0</ele><time>2026-03-28T12:10:41.997Z</time></trkpt><trkpt lat="43.265546721694854" lon="11.358428330856682"><ele>185.0</ele><time>2026-03-28T12:10:42.996Z</time></trkpt><trkpt lat="43.26540832385617" lon="11.358367812474818"><ele>184.75</ele><time>2026-03-28T12:10:43.996Z</time></trkpt><trkpt lat="43.265270669691944" lon="11.358313005032915"><ele>184.5</ele><time>2026-03-28T12:10:44.996Z</time></trkpt><trkpt lat="43.2651532951743" lon="11.358263400061917"><ele>184.25</ele><time>2026-03-28T12:10:45.996Z</time></trkpt><trkpt lat="43.26505007059269" lon="11.35822371707544"><ele>184.0</ele><time>2026-03-28T12:10:46.997Z</time></trkpt><trkpt lat="43.26495691595627" lon="11.358192823149402"><ele>184.0</ele><time>2026-03-28T12:10:47.997Z</time></trkpt><trkpt lat="43.26486538037275" lon="11.358190588944172"><ele>184.0</ele><time>2026-03-28T12:10:48.997Z</time></trkpt><trkpt lat="43.26477104810948" lon="11.358218998270486"><ele>184.0</ele><time>2026-03-28T12:10:49.997Z</time></trkpt><trkpt lat="43.264668721904854" lon="11.358258204522922"><ele>184.0</ele><time>2026-03-28T12:10:50.997Z</time></trkpt><trkpt lat="43.264580071671396" lon="11.358361001628674"><ele>184.0</ele><time>2026-03-28T12:10:51.996Z</time></trkpt><trkpt lat="43.26451582618533" lon="11.35850400249933"><ele>184.0</ele><time>2026-03-28T12:10:52.997Z</time></trkpt><trkpt lat="43.26444490595667" lon="11.358641180899765"><ele>184.0</ele><time>2026-03-28T12:10:53.997Z</time></trkpt><trkpt lat="43.26436167352342" lon="11.358797351374486"><ele>184.0</ele><time>2026-03-28T12:10:54.997Z</time></trkpt><trkpt lat="43.2642560655089" lon="11.358945411033766"><ele>184.0</ele><time>2026-03-28T12:10:55.997Z</time></trkpt><trkpt lat="43.264164308287285" lon="11.359088057976424"><ele>184.0</ele><time>2026-03-28T12:10:56.997Z</time></trkpt><trkpt lat="43.26406072688615" lon="11.359206809846334"><ele>184.0</ele><time>2026-03-28T12:10:57.997Z</time></trkpt><trkpt lat="43.26392786824757" lon="11.35930239013234"><ele>184.0</ele><time>2026-03-28T12:10:58.997Z</time></trkpt><trkpt lat="43.26378564342904" lon="11.359402171877448"><ele>184.0</ele><time>2026-03-28T12:10:59.997Z</time></trkpt><trkpt lat="43.263633558799" lon="11.359499452659756"><ele>183.66666666666669</ele><time>2026-03-28T12:11:00.997Z</time></trkpt><trkpt lat="43.26347864254435" lon="11.359618345232201"><ele>183.33333333333334</ele><time>2026-03-28T12:11:01.997Z</time></trkpt><trkpt lat="43.26333889865284" lon="11.359764818570932"><ele>183.0</ele><time>2026-03-28T12:11:02.997Z</time></trkpt><trkpt lat="43.26318805721559" lon="11.359913778339378"><ele>184.0</ele><time>2026-03-28T12:11:03.997Z</time></trkpt><trkpt lat="43.26304381770574" lon="11.36007305545649"><ele>185.0</ele><time>2026-03-28T12:11:04.997Z</time></trkpt><trkpt lat="43.262901691657156" lon="11.360237140733766"><ele>186.0</ele><time>2026-03-28T12:11:05.997Z</time></trkpt><trkpt lat="43.262752044467184" lon="11.360381406491978"><ele>185.0</ele><time>2026-03-28T12:11:06.997Z</time></trkpt><trkpt lat="43.26261015482864" lon="11.360545036062835"><ele>184.0</ele><time>2026-03-28T12:11:07.997Z</time></trkpt><trkpt lat="43.26248073821439" lon="11.360708061001883"><ele>183.0</ele><time>2026-03-28T12:11:08.997Z</time></trkpt><trkpt lat="43.26237152139535" lon="11.360861980752933"><ele>182.75</ele><time>2026-03-28T12:11:09.997Z</time></trkpt><trkpt lat="43.26226358353586" lon="11.361000550158346"><ele>182.5</ele><time>2026-03-28T12:11:10.997Z</time></trkpt><trkpt lat="43.26216284947437" lon="11.361135819390885"><ele>182.25</ele><time>2026-03-28T12:11:11.997Z</time></trkpt><trkpt lat="43.26204863072212" lon="11.36126702537433"><ele>182.0</ele><time>2026-03-28T12:11:12.997Z</time></trkpt><trkpt lat="43.26192231522464" lon="11.361383255949601"><ele>182.0</ele><time>2026-03-28T12:11:13.997Z</time></trkpt><trkpt lat="43.26178340119581" lon="11.361505977030342"><ele>182.0</ele><time>2026-03-28T12:11:14.997Z</time></trkpt><trkpt lat="43.26162928424371" lon="11.361603693961758"><ele>182.0</ele><time>2026-03-28T12:11:15.997Z</time></trkpt><trkpt lat="43.26148517243902" lon="11.361693025221996"><ele>182.0</ele><time>2026-03-28T12:11:16.997Z</time></trkpt><trkpt lat="43.261337021952464" lon="11.361772027197736"><ele>182.0</ele><time>2026-03-28T12:11:17.997Z</time></trkpt><trkpt lat="43.261187156927704" lon="11.361843951232556"><ele>182.0</ele><time>2026-03-28T12:11:18.997Z</time></trkpt><trkpt lat="43.26103796666492" lon="11.361900332155834"><ele>182.0</ele><time>2026-03-28T12:11:19.997Z</time></trkpt><trkpt lat="43.26088439337097" lon="11.361934642796394"><ele>182.0</ele><time>2026-03-28T12:11:20.997Z</time></trkpt><trkpt lat="43.26072875547859" lon="11.36194563668828"><ele>182.0</ele><time>2026-03-28T12:11:21.997Z</time></trkpt><trkpt lat="43.26057202440762" lon="11.361934292398038"><ele>183.0</ele><time>2026-03-28T12:11:22.997Z</time></trkpt><trkpt lat="43.26040249262356" lon="11.361905099706"><ele>184.0</ele><time>2026-03-28T12:11:23.997Z</time></trkpt><trkpt lat="43.260217251749275" lon="11.361858674511605"><ele>185.0</ele><time>2026-03-28T12:11:24.997Z</time></trkpt><trkpt lat="43.260031814776994" lon="11.361803452162016"><ele>185.0</ele><time>2026-03-28T12:11:25.997Z</time></trkpt><trkpt lat="43.259846569392884" lon="11.361744484242765"><ele>185.0</ele><time>2026-03-28T12:11:26.997Z</time></trkpt><trkpt lat="43.25966532693044" lon="11.361674724366429"><ele>185.0</ele><time>2026-03-28T12:11:27.997Z</time></trkpt><trkpt lat="43.25948658128159" lon="11.361593971496045"><ele>185.0</ele><time>2026-03-28T12:11:28.997Z</time></trkpt><trkpt lat="43.25931231810068" lon="11.361504222537956"><ele>185.0</ele><time>2026-03-28T12:11:29.997Z</time></trkpt><trkpt lat="43.2591406048098" lon="11.361412667845473"><ele>185.0</ele><time>2026-03-28T12:11:30.997Z</time></trkpt><trkpt lat="43.258977721613256" lon="11.361319218059073"><ele>188.33333333333331</ele><time>2026-03-28T12:11:31.997Z</time></trkpt><trkpt lat="43.25880826397047" lon="11.361225435529256"><ele>191.66666666666666</ele><time>2026-03-28T12:11:32.997Z</time></trkpt><trkpt lat="43.25866710054641" lon="11.36107721782193"><ele>195.0</ele><time>2026-03-28T12:11:33.997Z</time></trkpt><trkpt lat="43.25851803761333" lon="11.360941089389438"><ele>195.0</ele><time>2026-03-28T12:11:34.997Z</time></trkpt><trkpt lat="43.25837732198981" lon="11.360810005139781"><ele>195.0</ele><time>2026-03-28T12:11:35.997Z</time></trkpt><trkpt lat="43.25825583480828" lon="11.360691233338626"><ele>195.0</ele><time>2026-03-28T12:11:36.997Z</time></trkpt><trkpt lat="43.25812640195105" lon="11.36059667265779"><ele>195.0</ele><time>2026-03-28T12:11:37.997Z</time></trkpt><trkpt lat="43.25801500101558" lon="11.360490130239176"><ele>195.0</ele><time>2026-03-28T12:11:38.997Z</time></trkpt><trkpt lat="43.257905304225325" lon="11.360407253505517"><ele>195.0</ele><time>2026-03-28T12:11:39.997Z</time></trkpt><trkpt lat="43.257776726320984" lon="11.360346606925585"><ele>195.0</ele><time>2026-03-28T12:11:40.997Z</time></trkpt><trkpt lat="43.25762993465987" lon="11.360282544659146"><ele>195.0</ele><time>2026-03-28T12:11:41.997Z</time></trkpt><trkpt lat="43.25748326615443" lon="11.360198264629679"><ele>195.0</ele><time>2026-03-28T12:11:42.997Z</time></trkpt><trkpt lat="43.257352112913615" lon="11.360138098609617"><ele>195.0</ele><time>2026-03-28T12:11:43.997Z</time></trkpt><trkpt lat="43.257218949922915" lon="11.360089699213772"><ele>195.0</ele><time>2026-03-28T12:11:44.997Z</time></trkpt><trkpt lat="43.25707779007321" lon="11.36006532200875"><ele>196.33333333333331</ele><time>2026-03-28T12:11:45.997Z</time></trkpt><trkpt lat="43.256931012408046" lon="11.360056132655302"><ele>197.66666666666666</ele><time>2026-03-28T12:11:46.997Z</time></trkpt><trkpt lat="43.25677742717699" lon="11.360069430640252"><ele>199.0</ele><time>2026-03-28T12:11:47.997Z</time></trkpt><trkpt lat="43.25662039175272" lon="11.360095782587944"><ele>199.0</ele><time>2026-03-28T12:11:48.997Z</time></trkpt><trkpt lat="43.25646841657439" lon="11.360120890079187"><ele>199.0</ele><time>2026-03-28T12:11:49.997Z</time></trkpt><trkpt lat="43.25632247281815" lon="11.360151608442365"><ele>199.0</ele><time>2026-03-28T12:11:50.997Z</time></trkpt><trkpt lat="43.25617626534514" lon="11.360199538661055"><ele>200.33333333333331</ele><time>2026-03-28T12:11:51.997Z</time></trkpt><trkpt lat="43.25603283716328" lon="11.360270614906577"><ele>201.66666666666669</ele><time>2026-03-28T12:11:52.997Z</time></trkpt><trkpt lat="43.255889267952114" lon="11.360374185897905"><ele>203.0</ele><time>2026-03-28T12:11:53.997Z</time></trkpt><trkpt lat="43.25574673494601" lon="11.360487271309998"><ele>206.66666666666669</ele><time>2026-03-28T12:11:54.997Z</time></trkpt><trkpt lat="43.25558944558239" lon="11.360576585309383"><ele>210.33333333333331</ele><time>2026-03-28T12:11:55.997Z</time></trkpt><trkpt lat="43.25545453606005" lon="11.360689513856284"><ele>214.0</ele><time>2026-03-28T12:11:56.997Z</time></trkpt><trkpt lat="43.25532048655087" lon="11.360790589925708"><ele>214.0</ele><time>2026-03-28T12:11:57.997Z</time></trkpt><trkpt lat="43.255196329917986" lon="11.360925868892227"><ele>214.0</ele><time>2026-03-28T12:11:58.997Z</time></trkpt><trkpt lat="43.25508951525008" lon="11.361092874619395"><ele>214.0</ele><time>2026-03-28T12:11:59.997Z</time></trkpt><trkpt lat="43.25499131699316" lon="11.361276233814442"><ele>214.0</ele><time>2026-03-28T12:12:00.997Z</time></trkpt><trkpt lat="43.254886408889334" lon="11.361463621324178"><ele>214.0</ele><time>2026-03-28T12:12:01.997Z</time></trkpt><trkpt lat="43.25479351807857" lon="11.361646802401975"><ele>214.0</ele><time>2026-03-28T12:12:02.997Z</time></trkpt><trkpt lat="43.254704321658835" lon="11.361827475578531"><ele>215.5</ele><time>2026-03-28T12:12:03.997Z</time></trkpt><trkpt lat="43.2546114010411" lon="11.361981605895263"><ele>217.0</ele><time>2026-03-28T12:12:04.997Z</time></trkpt><trkpt lat="43.25449135091279" lon="11.362082595323074"><ele>218.5</ele><time>2026-03-28T12:12:05.997Z</time></trkpt><trkpt lat="43.254368972504416" lon="11.36217678950852"><ele>220.0</ele><time>2026-03-28T12:12:06.997Z</time></trkpt><trkpt lat="43.25424575033758" lon="11.362253649316186"><ele>220.0</ele><time>2026-03-28T12:12:07.997Z</time></trkpt><trkpt lat="43.25411337293304" lon="11.362316220461171"><ele>220.0</ele><time>2026-03-28T12:12:08.997Z</time></trkpt><trkpt lat="43.25396160198168" lon="11.362370491340286"><ele>220.0</ele><time>2026-03-28T12:12:09.997Z</time></trkpt><trkpt lat="43.253793009734274" lon="11.362392090240007"><ele>221.66666666666666</ele><time>2026-03-28T12:12:10.997Z</time></trkpt><trkpt lat="43.253606496473616" lon="11.362420556757828"><ele>223.33333333333331</ele><time>2026-03-28T12:12:11.997Z</time></trkpt><trkpt lat="43.25342388613052" lon="11.362457332073362"><ele>225.0</ele><time>2026-03-28T12:12:12.997Z</time></trkpt><trkpt lat="43.25324689016521" lon="11.362511268806731"><ele>226.0</ele><time>2026-03-28T12:12:13.997Z</time></trkpt><trkpt lat="43.2530658156376" lon="11.362557628052496"><ele>227.0</ele><time>2026-03-28T12:12:14.997Z</time></trkpt><trkpt lat="43.25290891994294" lon="11.362635843962742"><ele>228.0</ele><time>2026-03-28T12:12:15.997Z</time></trkpt><trkpt lat="43.2527607987037" lon="11.36272241810905"><ele>228.0</ele><time>2026-03-28T12:12:16.997Z</time></trkpt><trkpt lat="43.25262213263396" lon="11.362809053936374"><ele>228.0</ele><time>2026-03-28T12:12:17.997Z</time></trkpt><trkpt lat="43.25249396969544" lon="11.362900188602648"><ele>228.0</ele><time>2026-03-28T12:12:18.997Z</time></trkpt><trkpt lat="43.25237271511857" lon="11.363002841656488"><ele>228.0</ele><time>2026-03-28T12:12:19.997Z</time></trkpt><trkpt lat="43.25226196530916" lon="11.363126388450228"><ele>229.25</ele><time>2026-03-28T12:12:20.997Z</time></trkpt><trkpt lat="43.25215085807858" lon="11.363259237185055"><ele>230.5</ele><time>2026-03-28T12:12:21.997Z</time></trkpt><trkpt lat="43.252042173811105" lon="11.363380377148339"><ele>231.75</ele><time>2026-03-28T12:12:22.997Z</time></trkpt><trkpt lat="43.2519374478823" lon="11.363480847215397"><ele>233.0</ele><time>2026-03-28T12:12:23.997Z</time></trkpt><trkpt lat="43.25182373546871" lon="11.36355431799543"><ele>233.0</ele><time>2026-03-28T12:12:24.997Z</time></trkpt><trkpt lat="43.25168615627148" lon="11.363607875622426"><ele>233.0</ele><time>2026-03-28T12:12:25.997Z</time></trkpt><trkpt lat="43.25154078362342" lon="11.363602639316657"><ele>233.0</ele><time>2026-03-28T12:12:26.997Z</time></trkpt><trkpt lat="43.25139372767793" lon="11.363583406442592"><ele>233.0</ele><time>2026-03-28T12:12:27.997Z</time></trkpt><trkpt lat="43.25123871086394" lon="11.363536100019012"><ele>230.33333333333334</ele><time>2026-03-28T12:12:28.997Z</time></trkpt><trkpt lat="43.251081768533474" lon="11.363464895577117"><ele>227.66666666666669</ele><time>2026-03-28T12:12:29.997Z</time></trkpt><trkpt lat="43.250924310287026" lon="11.363396476753397"><ele>225.0</ele><time>2026-03-28T12:12:30.997Z</time></trkpt><trkpt lat="43.2507578395914" lon="11.363333361394384"><ele>224.33333333333331</ele><time>2026-03-28T12:12:31.997Z</time></trkpt><trkpt lat="43.25059218058134" lon="11.363297013047388"><ele>223.66666666666666</ele><time>2026-03-28T12:12:32.997Z</time></trkpt><trkpt lat="43.25043218131693" lon="11.363248481210599"><ele>223.0</ele><time>2026-03-28T12:12:33.997Z</time></trkpt><trkpt lat="43.250262822490136" lon="11.363205544484229"><ele>223.0</ele><time>2026-03-28T12:12:34.997Z</time></trkpt><trkpt lat="43.2500989338075" lon="11.363163015438541"><ele>223.0</ele><time>2026-03-28T12:12:35.997Z</time></trkpt><trkpt lat="43.24994920757871" lon="11.36311603874672"><ele>223.0</ele><time>2026-03-28T12:12:36.997Z</time></trkpt><trkpt lat="43.249804524558286" lon="11.363064992088518"><ele>224.25</ele><time>2026-03-28T12:12:37.997Z</time></trkpt><trkpt lat="43.24966026709298" lon="11.363039111293151"><ele>225.5</ele><time>2026-03-28T12:12:38.997Z</time></trkpt><trkpt lat="43.24951690290248" lon="11.363045547311492"><ele>226.75</ele><time>2026-03-28T12:12:39.997Z</time></trkpt><trkpt lat="43.249376211768386" lon="11.363093300102186"><ele>228.0</ele><time>2026-03-28T12:12:40.997Z</time></trkpt><trkpt lat="43.24924934537615" lon="11.363170330910135"><ele>228.0</ele><time>2026-03-28T12:12:41.997Z</time></trkpt><trkpt lat="43.24912536188329" lon="11.363265724048372"><ele>228.0</ele><time>2026-03-28T12:12:42.997Z</time></trkpt><trkpt lat="43.24900594635408" lon="11.363380514543378"><ele>228.0</ele><time>2026-03-28T12:12:43.997Z</time></trkpt><trkpt lat="43.2489000875498" lon="11.363514874407274"><ele>228.0</ele><time>2026-03-28T12:12:44.997Z</time></trkpt><trkpt lat="43.24880986353989" lon="11.363641041371805"><ele>228.0</ele><time>2026-03-28T12:12:45.996Z</time></trkpt><trkpt lat="43.24873117977098" lon="11.363765911903256"><ele>228.0</ele><time>2026-03-28T12:12:46.996Z</time></trkpt><trkpt lat="43.24864981459896" lon="11.363884251423165"><ele>228.0</ele><time>2026-03-28T12:12:47.996Z</time></trkpt><trkpt lat="43.248566751319544" lon="11.364002478286867"><ele>228.0</ele><time>2026-03-28T12:12:48.997Z</time></trkpt><trkpt lat="43.248483740453956" lon="11.364119752583454"><ele>227.8</ele><time>2026-03-28T12:12:49.996Z</time></trkpt><trkpt lat="43.24840422062811" lon="11.364231447154076"><ele>227.60000000000002</ele><time>2026-03-28T12:12:50.996Z</time></trkpt><trkpt lat="43.24833753361529" lon="11.364337360574748"><ele>227.39999999999998</ele><time>2026-03-28T12:12:51.997Z</time></trkpt><trkpt lat="43.24828945164717" lon="11.36445240594287"><ele>227.2</ele><time>2026-03-28T12:12:52.997Z</time></trkpt><trkpt lat="43.24825577025101" lon="11.364578058509837"><ele>227.0</ele><time>2026-03-28T12:12:53.997Z</time></trkpt><trkpt lat="43.2482398129952" lon="11.364729036186795"><ele>226.5</ele><time>2026-03-28T12:12:54.996Z</time></trkpt><trkpt lat="43.24824317653774" lon="11.364905069992648"><ele>226.0</ele><time>2026-03-28T12:12:55.997Z</time></trkpt><trkpt lat="43.24825215830699" lon="11.365078678159264"><ele>225.5</ele><time>2026-03-28T12:12:56.997Z</time></trkpt><trkpt lat="43.248244226673926" lon="11.365249615675669"><ele>225.0</ele><time>2026-03-28T12:12:57.996Z</time></trkpt><trkpt lat="43.24820467256889" lon="11.365406168232681"><ele>224.5</ele><time>2026-03-28T12:12:58.996Z</time></trkpt><trkpt lat="43.24811968146552" lon="11.365539083099996"><ele>224.0</ele><time>2026-03-28T12:12:59.996Z</time></trkpt><trkpt lat="43.24803452039232" lon="11.365674583661308"><ele>223.5</ele><time>2026-03-28T12:13:00.996Z</time></trkpt><trkpt lat="43.247938356209445" lon="11.365823862255233"><ele>223.0</ele><time>2026-03-28T12:13:01.996Z</time></trkpt><trkpt lat="43.24783010977032" lon="11.3659404883711"><ele>223.0</ele><time>2026-03-28T12:13:02.996Z</time></trkpt><trkpt lat="43.247699945962005" lon="11.366001514914108"><ele>223.0</ele><time>2026-03-28T12:13:03.996Z</time></trkpt><trkpt lat="43.24755544198446" lon="11.366038028196717"><ele>223.0</ele><time>2026-03-28T12:13:04.996Z</time></trkpt><trkpt lat="43.24737991545766" lon="11.366071267835823"><ele>222.33333333333331</ele><time>2026-03-28T12:13:05.996Z</time></trkpt><trkpt lat="43.24718614392645" lon="11.366114120520063"><ele>221.66666666666669</ele><time>2026-03-28T12:13:06.996Z</time></trkpt><trkpt lat="43.24700461622839" lon="11.366175919031733"><ele>221.0</ele><time>2026-03-28T12:13:07.996Z</time></trkpt><trkpt lat="43.24684284191123" lon="11.366234344808538"><ele>221.0</ele><time>2026-03-28T12:13:08.996Z</time></trkpt><trkpt lat="43.24669340655395" lon="11.366294652631597"><ele>221.0</ele><time>2026-03-28T12:13:09.996Z</time></trkpt><trkpt lat="43.24655694391813" lon="11.366359923855459"><ele>221.0</ele><time>2026-03-28T12:13:10.996Z</time></trkpt><trkpt lat="43.246436157185855" lon="11.366448650024111"><ele>221.0</ele><time>2026-03-28T12:13:11.996Z</time></trkpt><trkpt lat="43.2463193697395" lon="11.36652398658499"><ele>221.60000000000002</ele><time>2026-03-28T12:13:12.996Z</time></trkpt><trkpt lat="43.246215183474455" lon="11.366604743950344"><ele>222.20000000000002</ele><time>2026-03-28T12:13:13.996Z</time></trkpt><trkpt lat="43.24612387458005" lon="11.366687561855382"><ele>222.79999999999998</ele><time>2026-03-28T12:13:14.996Z</time></trkpt><trkpt lat="43.24602750272458" lon="11.366763040414492"><ele>223.39999999999998</ele><time>2026-03-28T12:13:15.996Z</time></trkpt><trkpt lat="43.24594861079069" lon="11.366862484492046"><ele>224.0</ele><time>2026-03-28T12:13:16.996Z</time></trkpt><trkpt lat="43.245852821671896" lon="11.366973779346894"><ele>224.0</ele><time>2026-03-28T12:13:17.996Z</time></trkpt><trkpt lat="43.24573846205079" lon="11.367089725933418"><ele>224.0</ele><time>2026-03-28T12:13:18.996Z</time></trkpt><trkpt lat="43.24561180381087" lon="11.367202389190169"><ele>224.0</ele><time>2026-03-28T12:13:19.996Z</time></trkpt><trkpt lat="43.24547148420231" lon="11.367299395495182"><ele>222.66666666666669</ele><time>2026-03-28T12:13:20.996Z</time></trkpt><trkpt lat="43.24532154925179" lon="11.367377334875572"><ele>221.33333333333331</ele><time>2026-03-28T12:13:21.996Z</time></trkpt><trkpt lat="43.24515254612961" lon="11.367446214744415"><ele>220.0</ele><time>2026-03-28T12:13:22.996Z</time></trkpt><trkpt lat="43.2449706113067" lon="11.367505122867342"><ele>221.0</ele><time>2026-03-28T12:13:23.996Z</time></trkpt><trkpt lat="43.24478311872852" lon="11.367564966358511"><ele>222.0</ele><time>2026-03-28T12:13:24.996Z</time></trkpt><trkpt lat="43.24459860210465" lon="11.367619930795316"><ele>223.0</ele><time>2026-03-28T12:13:25.996Z</time></trkpt><trkpt lat="43.24442582494753" lon="11.367673210187077"><ele>223.0</ele><time>2026-03-28T12:13:26.996Z</time></trkpt><trkpt lat="43.24425801238161" lon="11.367725751535158"><ele>223.0</ele><time>2026-03-28T12:13:27.996Z</time></trkpt><trkpt lat="43.24409440972453" lon="11.367782693152778"><ele>223.0</ele><time>2026-03-28T12:13:28.996Z</time></trkpt><trkpt lat="43.24393446677441" lon="11.367837744005548"><ele>223.75</ele><time>2026-03-28T12:13:29.996Z</time></trkpt><trkpt lat="43.24378747608362" lon="11.36788517905167"><ele>224.5</ele><time>2026-03-28T12:13:30.996Z</time></trkpt><trkpt lat="43.243652479749336" lon="11.36791806474361"><ele>225.25</ele><time>2026-03-28T12:13:31.996Z</time></trkpt><trkpt lat="43.24351811301787" lon="11.367954017521232"><ele>226.0</ele><time>2026-03-28T12:13:32.996Z</time></trkpt><trkpt lat="43.24338199400598" lon="11.367984735124994"><ele>226.0</ele><time>2026-03-28T12:13:33.996Z</time></trkpt><trkpt lat="43.243248849107786" lon="11.368007833080819"><ele>226.0</ele><time>2026-03-28T12:13:34.996Z</time></trkpt><trkpt lat="43.24311437027818" lon="11.368036386768297"><ele>226.0</ele><time>2026-03-28T12:13:35.996Z</time></trkpt><trkpt lat="43.2429729531119" lon="11.368095051901491"><ele>226.0</ele><time>2026-03-28T12:13:36.996Z</time></trkpt><trkpt lat="43.242838230176936" lon="11.368168211342468"><ele>224.66666666666666</ele><time>2026-03-28T12:13:37.996Z</time></trkpt><trkpt lat="43.24270149544173" lon="11.368234485655607"><ele>223.33333333333331</ele><time>2026-03-28T12:13:38.996Z</time></trkpt><trkpt lat="43.24256699872728" lon="11.36836148959546"><ele>222.0</ele><time>2026-03-28T12:13:39.996Z</time></trkpt><trkpt lat="43.24243727281719" lon="11.368512763360377"><ele>222.33333333333331</ele><time>2026-03-28T12:13:40.996Z</time></trkpt><trkpt lat="43.242297442500785" lon="11.368688431396853"><ele>222.66666666666666</ele><time>2026-03-28T12:13:41.996Z</time></trkpt><trkpt lat="43.242161067523426" lon="11.368866227273688"><ele>223.0</ele><time>2026-03-28T12:13:42.996Z</time></trkpt><trkpt lat="43.24202788762044" lon="11.369041920269687"><ele>222.0</ele><time>2026-03-28T12:13:43.996Z</time></trkpt><trkpt lat="43.24189663279184" lon="11.369214876380877"><ele>221.0</ele><time>2026-03-28T12:13:44.996Z</time></trkpt><trkpt lat="43.241771067312015" lon="11.369377334765108"><ele>220.0</ele><time>2026-03-28T12:13:45.996Z</time></trkpt><trkpt lat="43.24163973641684" lon="11.36953769196261"><ele>219.0</ele><time>2026-03-28T12:13:46.996Z</time></trkpt><trkpt lat="43.24149576122527" lon="11.369706050835333"><ele>218.0</ele><time>2026-03-28T12:13:47.996Z</time></trkpt><trkpt lat="43.24134106013705" lon="11.36987392800381"><ele>217.0</ele><time>2026-03-28T12:13:48.996Z</time></trkpt><trkpt lat="43.2411935378358" lon="11.370045030082144"><ele>216.33333333333331</ele><time>2026-03-28T12:13:49.996Z</time></trkpt><trkpt lat="43.241037369174734" lon="11.370190495888194"><ele>215.66666666666669</ele><time>2026-03-28T12:13:50.996Z</time></trkpt><trkpt lat="43.24087925693949" lon="11.370303043439712"><ele>215.0</ele><time>2026-03-28T12:13:51.996Z</time></trkpt><trkpt lat="43.24073687151056" lon="11.370453811703202"><ele>215.66666666666669</ele><time>2026-03-28T12:13:52.996Z</time></trkpt><trkpt lat="43.240596484340955" lon="11.370585639839414"><ele>216.33333333333331</ele><time>2026-03-28T12:13:53.996Z</time></trkpt><trkpt lat="43.24047167108674" lon="11.370743134765931"><ele>217.0</ele><time>2026-03-28T12:13:54.996Z</time></trkpt><trkpt lat="43.24035911644394" lon="11.370932662177744"><ele>217.0</ele><time>2026-03-28T12:13:55.996Z</time></trkpt><trkpt lat="43.24024470964263" lon="11.371142716244178"><ele>217.0</ele><time>2026-03-28T12:13:56.996Z</time></trkpt><trkpt lat="43.24012972494362" lon="11.37134136314734"><ele>217.0</ele><time>2026-03-28T12:13:57.996Z</time></trkpt><trkpt lat="43.240026363633575" lon="11.37153217842923"><ele>216.0</ele><time>2026-03-28T12:13:58.996Z</time></trkpt><trkpt lat="43.239934520790484" lon="11.371712042066413"><ele>215.0</ele><time>2026-03-28T12:13:59.996Z</time></trkpt><trkpt lat="43.23984726530509" lon="11.371881408539661"><ele>214.0</ele><time>2026-03-28T12:14:00.996Z</time></trkpt><trkpt lat="43.23977363476813" lon="11.372049106533458"><ele>213.75</ele><time>2026-03-28T12:14:01.996Z</time></trkpt><trkpt lat="43.23968332104794" lon="11.372202974998359"><ele>213.5</ele><time>2026-03-28T12:14:02.996Z</time></trkpt><trkpt lat="43.23961662448291" lon="11.372364466719239"><ele>213.25</ele><time>2026-03-28T12:14:03.996Z</time></trkpt><trkpt lat="43.23955208428425" lon="11.37249186970593"><ele>213.0</ele><time>2026-03-28T12:14:04.996Z</time></trkpt><trkpt lat="43.239480538591394" lon="11.37258973108038"><ele>213.0</ele><time>2026-03-28T12:14:05.996Z</time></trkpt><trkpt lat="43.239391132212745" lon="11.372653520439075"><ele>213.0</ele><time>2026-03-28T12:14:06.996Z</time></trkpt><trkpt lat="43.23927595211181" lon="11.372692499984074"><ele>213.0</ele><time>2026-03-28T12:14:07.996Z</time></trkpt><trkpt lat="43.23915760589744" lon="11.372692832240368"><ele>213.0</ele><time>2026-03-28T12:14:08.996Z</time></trkpt><trkpt lat="43.23907442052974" lon="11.372686547639224"><ele>213.0</ele><time>2026-03-28T12:14:09.996Z</time></trkpt><trkpt lat="43.23898630458113" lon="11.372688446369445"><ele>213.0</ele><time>2026-03-28T12:14:11.996Z</time></trkpt><trkpt lat="43.238886209357176" lon="11.372680421667797"><ele>213.0</ele><time>2026-03-28T12:14:13.996Z</time></trkpt><trkpt lat="43.238769081297356" lon="11.372682286002458"><ele>213.0</ele><time>2026-03-28T12:14:15.996Z</time></trkpt><trkpt lat="43.238650231360744" lon="11.37272725289825"><ele>213.0</ele><time>2026-03-28T12:14:17.996Z</time></trkpt><trkpt lat="43.23853358358964" lon="11.372789801494946"><ele>213.0</ele><time>2026-03-28T12:14:19.996Z</time></trkpt><trkpt lat="43.238420995251346" lon="11.372867315455375"><ele>213.0</ele><time>2026-03-28T12:14:21.996Z</time></trkpt><trkpt lat="43.238366076159586" lon="11.372910183564022"><ele>213.0</ele><time>2026-03-28T12:14:22.996Z</time></trkpt><trkpt lat="43.238279762330166" lon="11.373016834613832"><ele>213.0</ele><time>2026-03-28T12:14:24.996Z</time></trkpt><trkpt lat="43.23821470908516" lon="11.373154448199616"><ele>213.0</ele><time>2026-03-28T12:14:26.996Z</time></trkpt><trkpt lat="43.23819541235698" lon="11.3733339690851"><ele>211.4</ele><time>2026-03-28T12:14:28.996Z</time></trkpt><trkpt lat="43.23819939517901" lon="11.373447377955552"><ele>209.8</ele><time>2026-03-28T12:14:29.996Z</time></trkpt><trkpt lat="43.238217003771986" lon="11.37355324858162"><ele>208.2</ele><time>2026-03-28T12:14:30.996Z</time></trkpt><trkpt lat="43.23822798019348" lon="11.373675387777313"><ele>206.6</ele><time>2026-03-28T12:14:31.996Z</time></trkpt><trkpt lat="43.23822568236972" lon="11.373836441348244"><ele>205.0</ele><time>2026-03-28T12:14:32.996Z</time></trkpt><trkpt lat="43.23824255560927" lon="11.374048457517134"><ele>204.75</ele><time>2026-03-28T12:14:33.996Z</time></trkpt><trkpt lat="43.238260209707846" lon="11.374249719412285"><ele>204.5</ele><time>2026-03-28T12:14:34.996Z</time></trkpt><trkpt lat="43.23827533693533" lon="11.374437131033892"><ele>204.25</ele><time>2026-03-28T12:14:35.996Z</time></trkpt><trkpt lat="43.238286208892006" lon="11.37461313289848"><ele>204.0</ele><time>2026-03-28T12:14:36.996Z</time></trkpt><trkpt lat="43.23828552201273" lon="11.374769985448914"><ele>204.0</ele><time>2026-03-28T12:14:37.996Z</time></trkpt><trkpt lat="43.23826762855649" lon="11.37491266205858"><ele>204.0</ele><time>2026-03-28T12:14:38.996Z</time></trkpt><trkpt lat="43.23821157868387" lon="11.375024719030325"><ele>204.0</ele><time>2026-03-28T12:14:39.996Z</time></trkpt><trkpt lat="43.23814788966164" lon="11.375108834914538"><ele>204.0</ele><time>2026-03-28T12:14:40.996Z</time></trkpt><trkpt lat="43.23805710946216" lon="11.375189184267557"><ele>204.0</ele><time>2026-03-28T12:14:41.996Z</time></trkpt><trkpt lat="43.23794132986773" lon="11.375292145622547"><ele>204.0</ele><time>2026-03-28T12:14:42.996Z</time></trkpt><trkpt lat="43.23781401110123" lon="11.375404931428093"><ele>204.0</ele><time>2026-03-28T12:14:43.996Z</time></trkpt><trkpt lat="43.23769524097046" lon="11.375542737661164"><ele>204.0</ele><time>2026-03-28T12:14:44.996Z</time></trkpt><trkpt lat="43.237574581598125" lon="11.37566944430457"><ele>202.75</ele><time>2026-03-28T12:14:45.996Z</time></trkpt><trkpt lat="43.237452418122686" lon="11.37578308097101"><ele>201.5</ele><time>2026-03-28T12:14:46.996Z</time></trkpt><trkpt lat="43.23734524376997" lon="11.375902344353808"><ele>200.25</ele><time>2026-03-28T12:14:47.996Z</time></trkpt><trkpt lat="43.237243921961536" lon="11.376015094982408"><ele>199.0</ele><time>2026-03-28T12:14:48.996Z</time></trkpt><trkpt lat="43.237147201867124" lon="11.37612264160104"><ele>198.25</ele><time>2026-03-28T12:14:49.996Z</time></trkpt><trkpt lat="43.23705453416265" lon="11.376222711780658"><ele>197.5</ele><time>2026-03-28T12:14:50.996Z</time></trkpt><trkpt lat="43.23697146724801" lon="11.37631864504557"><ele>196.75</ele><time>2026-03-28T12:14:51.997Z</time></trkpt><trkpt lat="43.23686943360677" lon="11.376368655226226"><ele>196.0</ele><time>2026-03-28T12:14:52.997Z</time></trkpt><trkpt lat="43.2367419726587" lon="11.376368192329966"><ele>196.0</ele><time>2026-03-28T12:14:53.997Z</time></trkpt><trkpt lat="43.23660591086219" lon="11.376352296921942"><ele>196.0</ele><time>2026-03-28T12:14:54.996Z</time></trkpt><trkpt lat="43.236481459448214" lon="11.376336749494703"><ele>196.0</ele><time>2026-03-28T12:14:55.997Z</time></trkpt><trkpt lat="43.23638117840377" lon="11.37624066367788"><ele>196.0</ele><time>2026-03-28T12:14:56.997Z</time></trkpt><trkpt lat="43.236312483723644" lon="11.376122140011644"><ele>193.5</ele><time>2026-03-28T12:14:57.997Z</time></trkpt><trkpt lat="43.236255347537764" lon="11.375993526887617"><ele>191.0</ele><time>2026-03-28T12:14:58.997Z</time></trkpt><trkpt lat="43.236223412490176" lon="11.375840555601796"><ele>188.5</ele><time>2026-03-28T12:14:59.997Z</time></trkpt><trkpt lat="43.23619842181545" lon="11.37565777722555"><ele>186.0</ele><time>2026-03-28T12:15:00.996Z</time></trkpt><trkpt lat="43.23618076098065" lon="11.37546852990309"><ele>185.0</ele><time>2026-03-28T12:15:01.996Z</time></trkpt><trkpt lat="43.2361984566592" lon="11.375295047907763"><ele>184.0</ele><time>2026-03-28T12:15:02.996Z</time></trkpt><trkpt lat="43.23627487667825" lon="11.375165007217223"><ele>183.0</ele><time>2026-03-28T12:15:03.996Z</time></trkpt><trkpt lat="43.236335148468555" lon="11.375019577399259"><ele>182.0</ele><time>2026-03-28T12:15:04.996Z</time></trkpt><trkpt lat="43.23639188649294" lon="11.374871684462727"><ele>182.0</ele><time>2026-03-28T12:15:05.996Z</time></trkpt><trkpt lat="43.23645543278405" lon="11.374734861703189"><ele>182.0</ele><time>2026-03-28T12:15:06.996Z</time></trkpt><trkpt lat="43.23649511792404" lon="11.374568479469312"><ele>182.0</ele><time>2026-03-28T12:15:07.996Z</time></trkpt><trkpt lat="43.2365429629737" lon="11.374403931656206"><ele>182.0</ele><time>2026-03-28T12:15:08.996Z</time></trkpt><trkpt lat="43.23656791014153" lon="11.374239646248439"><ele>183.0</ele><time>2026-03-28T12:15:09.996Z</time></trkpt><trkpt lat="43.23658326075953" lon="11.374101169955756"><ele>184.0</ele><time>2026-03-28T12:15:10.996Z</time></trkpt><trkpt lat="43.23659122922317" lon="11.373963696482733"><ele>185.0</ele><time>2026-03-28T12:15:11.996Z</time></trkpt><trkpt lat="43.236582841285404" lon="11.37382761654571"><ele>186.0</ele><time>2026-03-28T12:15:12.996Z</time></trkpt><trkpt lat="43.23654677918638" lon="11.373683932305095"><ele>187.0</ele><time>2026-03-28T12:15:13.996Z</time></trkpt><trkpt lat="43.23648447162789" lon="11.373555338245765"><ele>185.75</ele><time>2026-03-28T12:15:14.996Z</time></trkpt><trkpt lat="43.23638260008497" lon="11.373445387332783"><ele>184.5</ele><time>2026-03-28T12:15:15.996Z</time></trkpt><trkpt lat="43.23626038882268" lon="11.373384836198081"><ele>183.25</ele><time>2026-03-28T12:15:16.996Z</time></trkpt><trkpt lat="43.23613990150651" lon="11.373389297705419"><ele>182.0</ele><time>2026-03-28T12:15:17.996Z</time></trkpt><trkpt lat="43.23600097884878" lon="11.373401330080943"><ele>182.0</ele><time>2026-03-28T12:15:18.996Z</time></trkpt><trkpt lat="43.235852603169306" lon="11.373413176117909"><ele>182.0</ele><time>2026-03-28T12:15:19.996Z</time></trkpt><trkpt lat="43.23569100323447" lon="11.37341584152713"><ele>182.0</ele><time>2026-03-28T12:15:20.996Z</time></trkpt><trkpt lat="43.23550802226292" lon="11.373444219872791"><ele>180.33333333333331</ele><time>2026-03-28T12:15:21.996Z</time></trkpt><trkpt lat="43.235311393868365" lon="11.37346665196701"><ele>178.66666666666666</ele><time>2026-03-28T12:15:22.996Z</time></trkpt><trkpt lat="43.23510962785319" lon="11.373484350476929"><ele>177.0</ele><time>2026-03-28T12:15:23.996Z</time></trkpt><trkpt lat="43.234908553648104" lon="11.373505037621523"><ele>177.33333333333334</ele><time>2026-03-28T12:15:24.996Z</time></trkpt><trkpt lat="43.23470565598282" lon="11.373523305169725"><ele>177.66666666666669</ele><time>2026-03-28T12:15:25.996Z</time></trkpt><trkpt lat="43.23450298751243" lon="11.373537817451735"><ele>178.0</ele><time>2026-03-28T12:15:26.996Z</time></trkpt><trkpt lat="43.23430884282846" lon="11.373553610833644"><ele>178.0</ele><time>2026-03-28T12:15:27.996Z</time></trkpt><trkpt lat="43.23413176612484" lon="11.373568429474757"><ele>178.0</ele><time>2026-03-28T12:15:28.996Z</time></trkpt><trkpt lat="43.233963974042496" lon="11.373580949940942"><ele>178.0</ele><time>2026-03-28T12:15:29.996Z</time></trkpt><trkpt lat="43.23381543066918" lon="11.373602771569189"><ele>178.33333333333334</ele><time>2026-03-28T12:15:30.996Z</time></trkpt><trkpt lat="43.23366901926177" lon="11.373639258355327"><ele>178.66666666666666</ele><time>2026-03-28T12:15:31.996Z</time></trkpt><trkpt lat="43.233509677173444" lon="11.373724513472165"><ele>179.0</ele><time>2026-03-28T12:15:32.996Z</time></trkpt><trkpt lat="43.23333937726648" lon="11.373856228681868"><ele>179.0</ele><time>2026-03-28T12:15:33.996Z</time></trkpt><trkpt lat="43.233153704762685" lon="11.37398905401368"><ele>179.0</ele><time>2026-03-28T12:15:34.996Z</time></trkpt><trkpt lat="43.232942764689845" lon="11.37414366252272"><ele>179.0</ele><time>2026-03-28T12:15:35.996Z</time></trkpt><trkpt lat="43.23271692297356" lon="11.374311811737165"><ele>179.0</ele><time>2026-03-28T12:15:36.996Z</time></trkpt><trkpt lat="43.23247261735271" lon="11.37447860332457"><ele>179.0</ele><time>2026-03-28T12:15:37.996Z</time></trkpt><trkpt lat="43.23223143588446" lon="11.374649652001022"><ele>179.0</ele><time>2026-03-28T12:15:38.996Z</time></trkpt><trkpt lat="43.23201121443545" lon="11.374802797776862"><ele>179.0</ele><time>2026-03-28T12:15:39.996Z</time></trkpt><trkpt lat="43.23180504335993" lon="11.374950760380626"><ele>179.0</ele><time>2026-03-28T12:15:40.996Z</time></trkpt><trkpt lat="43.231603427674756" lon="11.375096196577223"><ele>179.0</ele><time>2026-03-28T12:15:41.996Z</time></trkpt><trkpt lat="43.231397890797226" lon="11.37523759654511"><ele>179.0</ele><time>2026-03-28T12:15:42.996Z</time></trkpt><trkpt lat="43.23119463086998" lon="11.375385443194272"><ele>179.0</ele><time>2026-03-28T12:15:43.996Z</time></trkpt><trkpt lat="43.23100353833912" lon="11.375524059703794"><ele>179.0</ele><time>2026-03-28T12:15:44.996Z</time></trkpt><trkpt lat="43.23082431852231" lon="11.375652593676953"><ele>179.0</ele><time>2026-03-28T12:15:45.996Z</time></trkpt><trkpt lat="43.23065936531724" lon="11.375768436041284"><ele>179.0</ele><time>2026-03-28T12:15:46.996Z</time></trkpt><trkpt lat="43.23049640241652" lon="11.375884800505798"><ele>179.0</ele><time>2026-03-28T12:15:47.996Z</time></trkpt><trkpt lat="43.23033398868299" lon="11.375998755771857"><ele>180.66666666666666</ele><time>2026-03-28T12:15:48.996Z</time></trkpt><trkpt lat="43.23017305145851" lon="11.376113334965071"><ele>182.33333333333334</ele><time>2026-03-28T12:15:49.996Z</time></trkpt><trkpt lat="43.230018131943105" lon="11.376224534734414"><ele>184.0</ele><time>2026-03-28T12:15:50.996Z</time></trkpt><trkpt lat="43.22986352808897" lon="11.376343463815273"><ele>184.66666666666669</ele><time>2026-03-28T12:15:51.996Z</time></trkpt><trkpt lat="43.22971593341379" lon="11.37645976412074"><ele>185.33333333333334</ele><time>2026-03-28T12:15:52.996Z</time></trkpt><trkpt lat="43.22957553702515" lon="11.376572717109113"><ele>186.0</ele><time>2026-03-28T12:15:53.996Z</time></trkpt><trkpt lat="43.229442287055704" lon="11.376683086911525"><ele>186.0</ele><time>2026-03-28T12:15:54.996Z</time></trkpt><trkpt lat="43.22931804410705" lon="11.37678980060469"><ele>186.0</ele><time>2026-03-28T12:15:55.996Z</time></trkpt><trkpt lat="43.22919088204182" lon="11.37689711682763"><ele>186.0</ele><time>2026-03-28T12:15:56.996Z</time></trkpt><trkpt lat="43.229055631016664" lon="11.377009050563144"><ele>187.0</ele><time>2026-03-28T12:15:57.996Z</time></trkpt><trkpt lat="43.22891731382808" lon="11.377094579752116"><ele>188.0</ele><time>2026-03-28T12:15:58.996Z</time></trkpt><trkpt lat="43.228794235282145" lon="11.377150264023346"><ele>189.0</ele><time>2026-03-28T12:15:59.996Z</time></trkpt><trkpt lat="43.2286906655811" lon="11.377181235565383"><ele>190.0</ele><time>2026-03-28T12:16:00.996Z</time></trkpt><trkpt lat="43.22858658339231" lon="11.377219798487099"><ele>187.0</ele><time>2026-03-28T12:16:01.996Z</time></trkpt><trkpt lat="43.22847162466733" lon="11.37724887744282"><ele>184.0</ele><time>2026-03-28T12:16:02.996Z</time></trkpt><trkpt lat="43.228347815360976" lon="11.377256290865338"><ele>181.0</ele><time>2026-03-28T12:16:03.996Z</time></trkpt><trkpt lat="43.2282292861453" lon="11.37725471963156"><ele>178.0</ele><time>2026-03-28T12:16:04.996Z</time></trkpt><trkpt lat="43.22812633056964" lon="11.377261163983992"><ele>178.0</ele><time>2026-03-28T12:16:05.996Z</time></trkpt><trkpt lat="43.22802703452458" lon="11.377268077416643"><ele>178.0</ele><time>2026-03-28T12:16:06.996Z</time></trkpt><trkpt lat="43.227917385775754" lon="11.37727969610825"><ele>178.0</ele><time>2026-03-28T12:16:07.996Z</time></trkpt><trkpt lat="43.22780379669819" lon="11.377288788596143"><ele>178.0</ele><time>2026-03-28T12:16:08.996Z</time></trkpt><trkpt lat="43.22769064039546" lon="11.377296301203069"><ele>178.0</ele><time>2026-03-28T12:16:09.996Z</time></trkpt><trkpt lat="43.2275838185982" lon="11.377298499451825"><ele>178.0</ele><time>2026-03-28T12:16:10.996Z</time></trkpt><trkpt lat="43.227482187911406" lon="11.377297920286802"><ele>178.0</ele><time>2026-03-28T12:16:11.996Z</time></trkpt><trkpt lat="43.22738593161493" lon="11.377290551053282"><ele>178.0</ele><time>2026-03-28T12:16:12.996Z</time></trkpt><trkpt lat="43.227277738987766" lon="11.377274854857474"><ele>178.0</ele><time>2026-03-28T12:16:13.996Z</time></trkpt><trkpt lat="43.22715515375633" lon="11.377237335549465"><ele>178.0</ele><time>2026-03-28T12:16:14.996Z</time></trkpt><trkpt lat="43.22703184348478" lon="11.377170815298149"><ele>178.75</ele><time>2026-03-28T12:16:15.996Z</time></trkpt><trkpt lat="43.226896641778815" lon="11.3770887105063"><ele>179.5</ele><time>2026-03-28T12:16:16.996Z</time></trkpt><trkpt lat="43.226767552867194" lon="11.37699248851558"><ele>180.25</ele><time>2026-03-28T12:16:17.996Z</time></trkpt><trkpt lat="43.22664990863613" lon="11.376888395362739"><ele>181.0</ele><time>2026-03-28T12:16:18.996Z</time></trkpt><trkpt lat="43.22654006076825" lon="11.376779470633513"><ele>180.5</ele><time>2026-03-28T12:16:19.996Z</time></trkpt><trkpt lat="43.226427331799485" lon="11.376656503287863"><ele>180.0</ele><time>2026-03-28T12:16:20.996Z</time></trkpt><trkpt lat="43.22633572219724" lon="11.376498990306361"><ele>179.5</ele><time>2026-03-28T12:16:21.996Z</time></trkpt><trkpt lat="43.22624306892852" lon="11.376324882202942"><ele>179.0</ele><time>2026-03-28T12:16:22.996Z</time></trkpt><trkpt lat="43.22614508070908" lon="11.376146845035867"><ele>179.0</ele><time>2026-03-28T12:16:23.996Z</time></trkpt><trkpt lat="43.22608038915967" lon="11.375935863310344"><ele>179.0</ele><time>2026-03-28T12:16:24.996Z</time></trkpt><trkpt lat="43.22603453113819" lon="11.375726529015537"><ele>179.0</ele><time>2026-03-28T12:16:25.996Z</time></trkpt><trkpt lat="43.22601290280124" lon="11.37552578528443"><ele>178.75</ele><time>2026-03-28T12:16:26.996Z</time></trkpt><trkpt lat="43.22602788423357" lon="11.375326576140258"><ele>178.5</ele><time>2026-03-28T12:16:27.996Z</time></trkpt><trkpt lat="43.22603124952139" lon="11.375132792604271"><ele>178.25</ele><time>2026-03-28T12:16:28.996Z</time></trkpt><trkpt lat="43.22606112267019" lon="11.37496492330159"><ele>178.0</ele><time>2026-03-28T12:16:29.996Z</time></trkpt><trkpt lat="43.2260755068064" lon="11.37483678138266"><ele>178.0</ele><time>2026-03-28T12:16:30.996Z</time></trkpt><trkpt lat="43.22608529819606" lon="11.374741469193895"><ele>178.0</ele><time>2026-03-28T12:16:31.996Z</time></trkpt><trkpt lat="43.22610177722324" lon="11.374547689631129"><ele>178.0</ele><time>2026-03-28T12:16:33.996Z</time></trkpt><trkpt lat="43.22610768348855" lon="11.37443138572562"><ele>178.0</ele><time>2026-03-28T12:16:34.996Z</time></trkpt><trkpt lat="43.22611701079133" lon="11.374306725710102"><ele>178.0</ele><time>2026-03-28T12:16:35.996Z</time></trkpt><trkpt lat="43.226126407286664" lon="11.374164521306966"><ele>178.0</ele><time>2026-03-28T12:16:36.996Z</time></trkpt><trkpt lat="43.22615304663104" lon="11.374016917879565"><ele>178.0</ele><time>2026-03-28T12:16:37.996Z</time></trkpt><trkpt lat="43.226151098196716" lon="11.373874172575569"><ele>178.0</ele><time>2026-03-28T12:16:38.996Z</time></trkpt><trkpt lat="43.22613792472759" lon="11.373744423755584"><ele>178.0</ele><time>2026-03-28T12:16:39.996Z</time></trkpt><trkpt lat="43.22611707917317" lon="11.373620183346455"><ele>178.0</ele><time>2026-03-28T12:16:40.996Z</time></trkpt><trkpt lat="43.226083784815486" lon="11.373477133959454"><ele>178.0</ele><time>2026-03-28T12:16:41.996Z</time></trkpt><trkpt lat="43.22603892252028" lon="11.373321241325252"><ele>178.0</ele><time>2026-03-28T12:16:42.996Z</time></trkpt><trkpt lat="43.22599850130726" lon="11.373146303899818"><ele>178.0</ele><time>2026-03-28T12:16:43.996Z</time></trkpt><trkpt lat="43.225942228332066" lon="11.372973087333541"><ele>178.0</ele><time>2026-03-28T12:16:44.996Z</time></trkpt><trkpt lat="43.225884982937124" lon="11.372790964540496"><ele>178.8</ele><time>2026-03-28T12:16:45.996Z</time></trkpt><trkpt lat="43.22583091605264" lon="11.372620392007063"><ele>179.60000000000002</ele><time>2026-03-28T12:16:46.996Z</time></trkpt><trkpt lat="43.22578826108221" lon="11.372471214951862"><ele>180.39999999999998</ele><time>2026-03-28T12:16:47.996Z</time></trkpt><trkpt lat="43.22574947442727" lon="11.372358132127257"><ele>181.2</ele><time>2026-03-28T12:16:48.996Z</time></trkpt><trkpt lat="43.2257095778782" lon="11.3722705264595"><ele>182.0</ele><time>2026-03-28T12:16:49.996Z</time></trkpt><trkpt lat="43.22565671223882" lon="11.372205119106503"><ele>181.8</ele><time>2026-03-28T12:16:50.996Z</time></trkpt><trkpt lat="43.22557904576105" lon="11.372158409966703"><ele>181.6</ele><time>2026-03-28T12:16:51.996Z</time></trkpt><trkpt lat="43.22549412238615" lon="11.372120141871411"><ele>181.4</ele><time>2026-03-28T12:16:52.996Z</time></trkpt><trkpt lat="43.22540456520947" lon="11.37219772732572"><ele>181.20000000000002</ele><time>2026-03-28T12:16:53.996Z</time></trkpt><trkpt lat="43.22533239182496" lon="11.372264327836303"><ele>181.0</ele><time>2026-03-28T12:16:54.996Z</time></trkpt><trkpt lat="43.225263730952086" lon="11.372364762771927"><ele>180.75</ele><time>2026-03-28T12:16:55.996Z</time></trkpt><trkpt lat="43.22520985065841" lon="11.372507551021842"><ele>180.5</ele><time>2026-03-28T12:16:56.996Z</time></trkpt><trkpt lat="43.22514236699716" lon="11.372708401355299"><ele>180.25</ele><time>2026-03-28T12:16:57.996Z</time></trkpt><trkpt lat="43.2250710590875" lon="11.3728983451556"><ele>180.0</ele><time>2026-03-28T12:16:58.997Z</time></trkpt><trkpt lat="43.224996212994654" lon="11.373061859673221"><ele>180.0</ele><time>2026-03-28T12:16:59.997Z</time></trkpt><trkpt lat="43.22492243767297" lon="11.373203747382266"><ele>180.0</ele><time>2026-03-28T12:17:00.997Z</time></trkpt><trkpt lat="43.22484148457641" lon="11.373317299502117"><ele>180.0</ele><time>2026-03-28T12:17:01.997Z</time></trkpt><trkpt lat="43.22474494846465" lon="11.373397804222698"><ele>180.0</ele><time>2026-03-28T12:17:02.997Z</time></trkpt><trkpt lat="43.22465002394004" lon="11.373452088287141"><ele>182.0</ele><time>2026-03-28T12:17:03.996Z</time></trkpt><trkpt lat="43.2245369024492" lon="11.373501584243739"><ele>184.0</ele><time>2026-03-28T12:17:04.997Z</time></trkpt><trkpt lat="43.22440480874684" lon="11.373544913474888"><ele>186.0</ele><time>2026-03-28T12:17:05.997Z</time></trkpt><trkpt lat="43.22427312841223" lon="11.373532844163396"><ele>188.0</ele><time>2026-03-28T12:17:06.996Z</time></trkpt><trkpt lat="43.224142876490646" lon="11.373489705028907"><ele>188.0</ele><time>2026-03-28T12:17:07.997Z</time></trkpt><trkpt lat="43.22401941691169" lon="11.373421477455011"><ele>188.0</ele><time>2026-03-28T12:17:08.997Z</time></trkpt><trkpt lat="43.22390537332574" lon="11.373313160437243"><ele>188.0</ele><time>2026-03-28T12:17:09.997Z</time></trkpt><trkpt lat="43.22380037645257" lon="11.373206276086286"><ele>188.0</ele><time>2026-03-28T12:17:10.996Z</time></trkpt><trkpt lat="43.22371722954861" lon="11.373087621441124"><ele>191.60000000000002</ele><time>2026-03-28T12:17:11.996Z</time></trkpt><trkpt lat="43.223653786691" lon="11.372944182102458"><ele>195.20000000000002</ele><time>2026-03-28T12:17:12.996Z</time></trkpt><trkpt lat="43.22361323192155" lon="11.372796594100627"><ele>198.8</ele><time>2026-03-28T12:17:13.996Z</time></trkpt><trkpt lat="43.223586202435285" lon="11.372652034204759"><ele>202.4</ele><time>2026-03-28T12:17:14.996Z</time></trkpt><trkpt lat="43.22359933797041" lon="11.372513384332493"><ele>206.0</ele><time>2026-03-28T12:17:15.996Z</time></trkpt><trkpt lat="43.223612894996926" lon="11.372335964109629"><ele>206.0</ele><time>2026-03-28T12:17:16.996Z</time></trkpt><trkpt lat="43.223650014784425" lon="11.372147379819506"><ele>206.0</ele><time>2026-03-28T12:17:17.996Z</time></trkpt><trkpt lat="43.22366247243586" lon="11.371978717971981"><ele>206.0</ele><time>2026-03-28T12:17:18.996Z</time></trkpt><trkpt lat="43.223650448801905" lon="11.371825923006138"><ele>206.0</ele><time>2026-03-28T12:17:19.996Z</time></trkpt><trkpt lat="43.223638762890694" lon="11.371687998037995"><ele>206.0</ele><time>2026-03-28T12:17:20.996Z</time></trkpt><trkpt lat="43.223573997388485" lon="11.371537784458281"><ele>206.0</ele><time>2026-03-28T12:17:21.996Z</time></trkpt><trkpt lat="43.223496896856666" lon="11.37140132245661"><ele>206.0</ele><time>2026-03-28T12:17:22.996Z</time></trkpt><trkpt lat="43.22340495168762" lon="11.371278157031384"><ele>206.0</ele><time>2026-03-28T12:17:23.996Z</time></trkpt><trkpt lat="43.22331871382081" lon="11.371191045118506"><ele>206.4</ele><time>2026-03-28T12:17:24.996Z</time></trkpt><trkpt lat="43.223229933351426" lon="11.371143794580064"><ele>206.8</ele><time>2026-03-28T12:17:25.996Z</time></trkpt><trkpt lat="43.22313609677895" lon="11.371142893482741"><ele>207.20000000000002</ele><time>2026-03-28T12:17:26.996Z</time></trkpt><trkpt lat="43.223049728395814" lon="11.371174079797246"><ele>207.60000000000002</ele><time>2026-03-28T12:17:27.996Z</time></trkpt><trkpt lat="43.222944651075004" lon="11.371260405469092"><ele>208.0</ele><time>2026-03-28T12:17:28.996Z</time></trkpt><trkpt lat="43.22286292285271" lon="11.371363862834654"><ele>208.0</ele><time>2026-03-28T12:17:29.996Z</time></trkpt><trkpt lat="43.222781708215166" lon="11.371503514363376"><ele>208.0</ele><time>2026-03-28T12:17:30.996Z</time></trkpt><trkpt lat="43.222694235110005" lon="11.37167619215442"><ele>208.0</ele><time>2026-03-28T12:17:31.996Z</time></trkpt><trkpt lat="43.22260178259496" lon="11.371884968336094"><ele>208.0</ele><time>2026-03-28T12:17:32.996Z</time></trkpt><trkpt lat="43.222462393869876" lon="11.372068418075164"><ele>208.0</ele><time>2026-03-28T12:17:33.996Z</time></trkpt><trkpt lat="43.222324832263816" lon="11.372232719862334"><ele>208.0</ele><time>2026-03-28T12:17:34.996Z</time></trkpt><trkpt lat="43.22218560294008" lon="11.372382241252991"><ele>212.33333333333331</ele><time>2026-03-28T12:17:35.996Z</time></trkpt><trkpt lat="43.22204902947064" lon="11.372507151017547"><ele>216.66666666666669</ele><time>2026-03-28T12:17:36.996Z</time></trkpt><trkpt lat="43.22191709569337" lon="11.372586896055125"><ele>221.0</ele><time>2026-03-28T12:17:37.996Z</time></trkpt><trkpt lat="43.22177425172869" lon="11.372634257498317"><ele>221.0</ele><time>2026-03-28T12:17:38.996Z</time></trkpt><trkpt lat="43.22161750367067" lon="11.372673044040708"><ele>221.0</ele><time>2026-03-28T12:17:39.996Z</time></trkpt><trkpt lat="43.221446303016165" lon="11.372713280950672"><ele>221.0</ele><time>2026-03-28T12:17:40.996Z</time></trkpt><trkpt lat="43.22126913894284" lon="11.372750412708449"><ele>223.0</ele><time>2026-03-28T12:17:41.996Z</time></trkpt><trkpt lat="43.221088087142206" lon="11.372808938176732"><ele>225.0</ele><time>2026-03-28T12:17:42.996Z</time></trkpt><trkpt lat="43.220895069897985" lon="11.372827431189977"><ele>227.0</ele><time>2026-03-28T12:17:43.996Z</time></trkpt><trkpt lat="43.2206803496181" lon="11.372872733271683"><ele>229.66666666666669</ele><time>2026-03-28T12:17:44.996Z</time></trkpt><trkpt lat="43.220461154174245" lon="11.372939699724666"><ele>232.33333333333331</ele><time>2026-03-28T12:17:45.996Z</time></trkpt><trkpt lat="43.22025554783222" lon="11.37296398656744"><ele>235.0</ele><time>2026-03-28T12:17:46.996Z</time></trkpt><trkpt lat="43.22008299909191" lon="11.373021130766997"><ele>234.0</ele><time>2026-03-28T12:17:47.996Z</time></trkpt><trkpt lat="43.21992550787826" lon="11.373029553853153"><ele>233.0</ele><time>2026-03-28T12:17:48.996Z</time></trkpt><trkpt lat="43.2197821618782" lon="11.3730504686706"><ele>232.0</ele><time>2026-03-28T12:17:49.996Z</time></trkpt><trkpt lat="43.21966239940949" lon="11.37306633373827"><ele>231.0</ele><time>2026-03-28T12:17:50.996Z</time></trkpt><trkpt lat="43.21955618252148" lon="11.37307373098058"><ele>233.60000000000002</ele><time>2026-03-28T12:17:51.996Z</time></trkpt><trkpt lat="43.2194650548609" lon="11.373072171979736"><ele>236.20000000000002</ele><time>2026-03-28T12:17:52.996Z</time></trkpt><trkpt lat="43.21937469725027" lon="11.373057887926759"><ele>238.79999999999998</ele><time>2026-03-28T12:17:53.996Z</time></trkpt><trkpt lat="43.219272670923026" lon="11.373047814789105"><ele>241.39999999999998</ele><time>2026-03-28T12:17:54.996Z</time></trkpt><trkpt lat="43.219182279017964" lon="11.373031697025441"><ele>244.0</ele><time>2026-03-28T12:17:55.996Z</time></trkpt><trkpt lat="43.21908156786738" lon="11.373032786386018"><ele>245.6</ele><time>2026-03-28T12:17:56.996Z</time></trkpt><trkpt lat="43.218988141603354" lon="11.37298829899516"><ele>247.2</ele><time>2026-03-28T12:17:57.996Z</time></trkpt><trkpt lat="43.218895413432996" lon="11.372949636423817"><ele>248.79999999999998</ele><time>2026-03-28T12:17:58.996Z</time></trkpt><trkpt lat="43.21880348536385" lon="11.372908449653968"><ele>250.39999999999998</ele><time>2026-03-28T12:17:59.996Z</time></trkpt><trkpt lat="43.218712412703624" lon="11.372866796267518"><ele>252.0</ele><time>2026-03-28T12:18:00.996Z</time></trkpt><trkpt lat="43.21861601915399" lon="11.3728431810186"><ele>252.0</ele><time>2026-03-28T12:18:01.996Z</time></trkpt><trkpt lat="43.218536551514006" lon="11.372774277431345"><ele>252.0</ele><time>2026-03-28T12:18:02.996Z</time></trkpt><trkpt lat="43.21845433564493" lon="11.372733700743584"><ele>252.0</ele><time>2026-03-28T12:18:03.996Z</time></trkpt><trkpt lat="43.218369892359654" lon="11.372697402649056"><ele>252.0</ele><time>2026-03-28T12:18:04.996Z</time></trkpt><trkpt lat="43.21828888318123" lon="11.372656093666217"><ele>252.0</ele><time>2026-03-28T12:18:05.996Z</time></trkpt><trkpt lat="43.218208826438556" lon="11.37261587101874"><ele>252.0</ele><time>2026-03-28T12:18:06.996Z</time></trkpt><trkpt lat="43.21812958751935" lon="11.372571693690935"><ele>250.33333333333334</ele><time>2026-03-28T12:18:07.996Z</time></trkpt><trkpt lat="43.218042729278615" lon="11.37253751083765"><ele>248.66666666666669</ele><time>2026-03-28T12:18:08.996Z</time></trkpt><trkpt lat="43.21796048833258" lon="11.372491283568024"><ele>247.0</ele><time>2026-03-28T12:18:09.996Z</time></trkpt><trkpt lat="43.217880770613306" lon="11.372451036764133"><ele>245.33333333333334</ele><time>2026-03-28T12:18:10.996Z</time></trkpt><trkpt lat="43.21780596750479" lon="11.37240624758891"><ele>243.66666666666669</ele><time>2026-03-28T12:18:11.996Z</time></trkpt><trkpt lat="43.21773421076655" lon="11.372375903500927"><ele>242.0</ele><time>2026-03-28T12:18:12.996Z</time></trkpt><trkpt lat="43.21767054127231" lon="11.372343451935174"><ele>242.0</ele><time>2026-03-28T12:18:13.996Z</time></trkpt><trkpt lat="43.217603253979746" lon="11.372313620962446"><ele>241.99999999999997</ele><time>2026-03-28T12:18:14.996Z</time></trkpt><trkpt lat="43.21753957795574" lon="11.372281123562884"><ele>242.0</ele><time>2026-03-28T12:18:15.996Z</time></trkpt><trkpt lat="43.217469637771835" lon="11.372263984234062"><ele>242.0</ele><time>2026-03-28T12:18:16.996Z</time></trkpt><trkpt lat="43.21737717278673" lon="11.372216902744716"><ele>241.99999999999997</ele><time>2026-03-28T12:18:18.996Z</time></trkpt><trkpt lat="43.21731647802904" lon="11.372187329727174"><ele>242.0</ele><time>2026-03-28T12:18:20.996Z</time></trkpt><trkpt lat="43.21725820492691" lon="11.37214150804949"><ele>242.0</ele><time>2026-03-28T12:18:23.996Z</time></trkpt><trkpt lat="43.21716698553675" lon="11.372084626640625"><ele>241.2</ele><time>2026-03-28T12:18:25.996Z</time></trkpt><trkpt lat="43.217096221343056" lon="11.372049946286278"><ele>240.39999999999998</ele><time>2026-03-28T12:18:26.996Z</time></trkpt><trkpt lat="43.21701014169724" lon="11.372007760073236"><ele>239.60000000000002</ele><time>2026-03-28T12:18:27.996Z</time></trkpt><trkpt lat="43.21690967513937" lon="11.371957272753217"><ele>238.8</ele><time>2026-03-28T12:18:28.996Z</time></trkpt><trkpt lat="43.216812551115225" lon="11.371907592764563"><ele>238.0</ele><time>2026-03-28T12:18:29.996Z</time></trkpt><trkpt lat="43.216714056245166" lon="11.371857211580759"><ele>238.0</ele><time>2026-03-28T12:18:30.996Z</time></trkpt><trkpt lat="43.21661007258188" lon="11.371804022812562"><ele>238.0</ele><time>2026-03-28T12:18:31.996Z</time></trkpt><trkpt lat="43.21651694023497" lon="11.371756384613482"><ele>238.0</ele><time>2026-03-28T12:18:32.996Z</time></trkpt><trkpt lat="43.216421416630396" lon="11.371707523258115"><ele>238.0</ele><time>2026-03-28T12:18:33.996Z</time></trkpt><trkpt lat="43.21632447828706" lon="11.371657938251312"><ele>238.0</ele><time>2026-03-28T12:18:34.996Z</time></trkpt><trkpt lat="43.21621525562133" lon="11.371605038248212"><ele>238.4</ele><time>2026-03-28T12:18:35.996Z</time></trkpt><trkpt lat="43.21612143824382" lon="11.371561883275502"><ele>238.8</ele><time>2026-03-28T12:18:36.996Z</time></trkpt><trkpt lat="43.216029336588534" lon="11.37151393498612"><ele>239.2</ele><time>2026-03-28T12:18:37.996Z</time></trkpt><trkpt lat="43.21594620557644" lon="11.371460783544148"><ele>239.6</ele><time>2026-03-28T12:18:38.996Z</time></trkpt><trkpt lat="43.215862535825686" lon="11.371422293260473"><ele>240.0</ele><time>2026-03-28T12:18:39.996Z</time></trkpt><trkpt lat="43.215798946397314" lon="11.371345176235984"><ele>240.0</ele><time>2026-03-28T12:18:40.996Z</time></trkpt><trkpt lat="43.21574753625747" lon="11.371246716186409"><ele>240.0</ele><time>2026-03-28T12:18:41.996Z</time></trkpt><trkpt lat="43.21567119379719" lon="11.37113012123133"><ele>240.0</ele><time>2026-03-28T12:18:42.996Z</time></trkpt><trkpt lat="43.21557518879938" lon="11.371018534161857"><ele>240.0</ele><time>2026-03-28T12:18:43.996Z</time></trkpt><trkpt lat="43.215478369136065" lon="11.370927581153898"><ele>240.0</ele><time>2026-03-28T12:18:44.996Z</time></trkpt><trkpt lat="43.21539222385531" lon="11.370854645406954"><ele>240.0</ele><time>2026-03-28T12:18:45.996Z</time></trkpt><trkpt lat="43.21529768198676" lon="11.370786279585573"><ele>240.0</ele><time>2026-03-28T12:18:46.996Z</time></trkpt><trkpt lat="43.21519848815241" lon="11.370733299334212"><ele>240.0</ele><time>2026-03-28T12:18:47.996Z</time></trkpt><trkpt lat="43.215077005442055" lon="11.370723720385895"><ele>240.0</ele><time>2026-03-28T12:18:48.996Z</time></trkpt><trkpt lat="43.21495207324866" lon="11.370683483605966"><ele>240.0</ele><time>2026-03-28T12:18:49.996Z</time></trkpt><trkpt lat="43.214830785899984" lon="11.370664519499236"><ele>240.0</ele><time>2026-03-28T12:18:50.996Z</time></trkpt><trkpt lat="43.214688642703486" lon="11.370689267015063"><ele>240.0</ele><time>2026-03-28T12:18:51.996Z</time></trkpt><trkpt lat="43.214560197969405" lon="11.370752560793086"><ele>240.0</ele><time>2026-03-28T12:18:52.996Z</time></trkpt><trkpt lat="43.21443020963961" lon="11.37083027384339"><ele>236.0</ele><time>2026-03-28T12:18:53.996Z</time></trkpt><trkpt lat="43.21429551778621" lon="11.37093858615696"><ele>232.0</ele><time>2026-03-28T12:18:54.996Z</time></trkpt><trkpt lat="43.21414577748819" lon="11.371010534367628"><ele>228.0</ele><time>2026-03-28T12:18:55.996Z</time></trkpt><trkpt lat="43.214009133935626" lon="11.371102638447578"><ele>226.5</ele><time>2026-03-28T12:18:56.996Z</time></trkpt><trkpt lat="43.21387141426876" lon="11.371202170964143"><ele>225.0</ele><time>2026-03-28T12:18:57.996Z</time></trkpt><trkpt lat="43.21373499101341" lon="11.371291914044123"><ele>223.5</ele><time>2026-03-28T12:18:58.996Z</time></trkpt><trkpt lat="43.21360984320584" lon="11.371356322988703"><ele>222.0</ele><time>2026-03-28T12:18:59.996Z</time></trkpt><trkpt lat="43.21349431933254" lon="11.371384710314889"><ele>222.0</ele><time>2026-03-28T12:19:00.996Z</time></trkpt><trkpt lat="43.213388270636635" lon="11.37136213430303"><ele>222.0</ele><time>2026-03-28T12:19:01.996Z</time></trkpt><trkpt lat="43.21330202711143" lon="11.371288225919015"><ele>222.0</ele><time>2026-03-28T12:19:02.996Z</time></trkpt><trkpt lat="43.2132165148775" lon="11.371167221125425"><ele>222.0</ele><time>2026-03-28T12:19:03.996Z</time></trkpt><trkpt lat="43.21313266426778" lon="11.371028474239205"><ele>222.0</ele><time>2026-03-28T12:19:04.996Z</time></trkpt><trkpt lat="43.213063771288674" lon="11.370866922548073"><ele>222.0</ele><time>2026-03-28T12:19:05.996Z</time></trkpt><trkpt lat="43.21298649703449" lon="11.370701416014944"><ele>222.0</ele><time>2026-03-28T12:19:06.997Z</time></trkpt><trkpt lat="43.21290759353603" lon="11.370535354255106"><ele>222.0</ele><time>2026-03-28T12:19:07.996Z</time></trkpt><trkpt lat="43.21282543253335" lon="11.370375584024101"><ele>223.25</ele><time>2026-03-28T12:19:08.996Z</time></trkpt><trkpt lat="43.212745720940696" lon="11.370219037561956"><ele>224.5</ele><time>2026-03-28T12:19:09.997Z</time></trkpt><trkpt lat="43.21266305999612" lon="11.370061731668379"><ele>225.75</ele><time>2026-03-28T12:19:10.997Z</time></trkpt><trkpt lat="43.212577109018035" lon="11.369905797716594"><ele>227.0</ele><time>2026-03-28T12:19:11.997Z</time></trkpt><trkpt lat="43.21248313055349" lon="11.369749108184708"><ele>226.5</ele><time>2026-03-28T12:19:12.997Z</time></trkpt><trkpt lat="43.21238455876338" lon="11.369603256695777"><ele>226.0</ele><time>2026-03-28T12:19:13.996Z</time></trkpt><trkpt lat="43.212295949921234" lon="11.369468983522578"><ele>225.5</ele><time>2026-03-28T12:19:14.996Z</time></trkpt><trkpt lat="43.21221545104179" lon="11.36934876932366"><ele>225.0</ele><time>2026-03-28T12:19:15.997Z</time></trkpt><trkpt lat="43.212134866768054" lon="11.369235298868508"><ele>227.25</ele><time>2026-03-28T12:19:16.997Z</time></trkpt><trkpt lat="43.212039806943075" lon="11.36912790755597"><ele>229.5</ele><time>2026-03-28T12:19:17.997Z</time></trkpt><trkpt lat="43.21192554581601" lon="11.369038720479699"><ele>231.75</ele><time>2026-03-28T12:19:18.997Z</time></trkpt><trkpt lat="43.211802813547244" lon="11.368954956814818"><ele>234.0</ele><time>2026-03-28T12:19:19.997Z</time></trkpt><trkpt lat="43.2116811709932" lon="11.368867986309226"><ele>233.75</ele><time>2026-03-28T12:19:20.997Z</time></trkpt><trkpt lat="43.211553130780004" lon="11.368792238817944"><ele>233.5</ele><time>2026-03-28T12:19:21.997Z</time></trkpt><trkpt lat="43.21141419149139" lon="11.368732994517481"><ele>233.25</ele><time>2026-03-28T12:19:22.997Z</time></trkpt><trkpt lat="43.211269117895824" lon="11.368678117245318"><ele>233.0</ele><time>2026-03-28T12:19:23.997Z</time></trkpt><trkpt lat="43.21111993463183" lon="11.368632602615328"><ele>233.0</ele><time>2026-03-28T12:19:24.997Z</time></trkpt><trkpt lat="43.21096419580878" lon="11.368583822332592"><ele>233.0</ele><time>2026-03-28T12:19:25.997Z</time></trkpt><trkpt lat="43.210808857829356" lon="11.36853073548981"><ele>233.0</ele><time>2026-03-28T12:19:26.997Z</time></trkpt><trkpt lat="43.210655719814824" lon="11.368482121251592"><ele>232.5</ele><time>2026-03-28T12:19:27.997Z</time></trkpt><trkpt lat="43.21051120867036" lon="11.368436265128981"><ele>232.0</ele><time>2026-03-28T12:19:28.997Z</time></trkpt><trkpt lat="43.21038156449839" lon="11.368389357729159"><ele>231.5</ele><time>2026-03-28T12:19:29.997Z</time></trkpt><trkpt lat="43.210258932701315" lon="11.368339284334105"><ele>231.0</ele><time>2026-03-28T12:19:30.997Z</time></trkpt><trkpt lat="43.210133417251534" lon="11.368292893804895"><ele>231.0</ele><time>2026-03-28T12:19:31.997Z</time></trkpt><trkpt lat="43.210013479989854" lon="11.368253045440273"><ele>231.00000000000003</ele><time>2026-03-28T12:19:32.997Z</time></trkpt><trkpt lat="43.20991773132448" lon="11.36821743243376"><ele>231.00000000000003</ele><time>2026-03-28T12:19:33.997Z</time></trkpt><trkpt lat="43.20982399305579" lon="11.368190945544836"><ele>231.0</ele><time>2026-03-28T12:19:34.997Z</time></trkpt><trkpt lat="43.20973975138051" lon="11.368197537811488"><ele>231.0</ele><time>2026-03-28T12:19:35.997Z</time></trkpt><trkpt lat="43.209655015566554" lon="11.36823226904956"><ele>234.5</ele><time>2026-03-28T12:19:36.997Z</time></trkpt><trkpt lat="43.2095681069346" lon="11.368278254628715"><ele>238.0</ele><time>2026-03-28T12:19:37.997Z</time></trkpt><trkpt lat="43.2094827022139" lon="11.36839564470495"><ele>241.5</ele><time>2026-03-28T12:19:38.997Z</time></trkpt><trkpt lat="43.20939048454447" lon="11.368540734428393"><ele>245.0</ele><time>2026-03-28T12:19:39.997Z</time></trkpt><trkpt lat="43.20929823447406" lon="11.368722886399386"><ele>243.0</ele><time>2026-03-28T12:19:40.997Z</time></trkpt><trkpt lat="43.2091671883472" lon="11.36890480433078"><ele>241.0</ele><time>2026-03-28T12:19:41.997Z</time></trkpt><trkpt lat="43.209049695193606" lon="11.36909597250006"><ele>239.0</ele><time>2026-03-28T12:19:42.997Z</time></trkpt><trkpt lat="43.208924434294616" lon="11.369273289619114"><ele>243.66666666666669</ele><time>2026-03-28T12:19:43.997Z</time></trkpt><trkpt lat="43.20879033828577" lon="11.369450094419124"><ele>248.33333333333331</ele><time>2026-03-28T12:19:44.997Z</time></trkpt><trkpt lat="43.20866145705016" lon="11.369626821356887"><ele>253.0</ele><time>2026-03-28T12:19:45.997Z</time></trkpt><trkpt lat="43.208526273011785" lon="11.369788485764158"><ele>253.0</ele><time>2026-03-28T12:19:46.997Z</time></trkpt><trkpt lat="43.208395228233634" lon="11.369964697660732"><ele>253.0</ele><time>2026-03-28T12:19:47.997Z</time></trkpt><trkpt lat="43.2082667040695" lon="11.370141308866751"><ele>253.0</ele><time>2026-03-28T12:19:48.997Z</time></trkpt><trkpt lat="43.20816065390835" lon="11.370319612691471"><ele>258.66666666666663</ele><time>2026-03-28T12:19:49.997Z</time></trkpt><trkpt lat="43.20805579797895" lon="11.370465793317779"><ele>264.3333333333333</ele><time>2026-03-28T12:19:50.997Z</time></trkpt><trkpt lat="43.207932325816344" lon="11.370607955562587"><ele>270.0</ele><time>2026-03-28T12:19:51.997Z</time></trkpt><trkpt lat="43.207823744696526" lon="11.370759306890037"><ele>270.0</ele><time>2026-03-28T12:19:52.997Z</time></trkpt><trkpt lat="43.20771394914831" lon="11.37091219247413"><ele>270.0</ele><time>2026-03-28T12:19:53.997Z</time></trkpt><trkpt lat="43.207603606617" lon="11.371064453085213"><ele>270.0</ele><time>2026-03-28T12:19:54.997Z</time></trkpt><trkpt lat="43.20750197341799" lon="11.37120235560177"><ele>267.25</ele><time>2026-03-28T12:19:55.997Z</time></trkpt><trkpt lat="43.20740915706466" lon="11.371357577113136"><ele>264.5</ele><time>2026-03-28T12:19:56.997Z</time></trkpt><trkpt lat="43.20730707579918" lon="11.371469145164552"><ele>261.75</ele><time>2026-03-28T12:19:57.997Z</time></trkpt><trkpt lat="43.20722164079889" lon="11.371598484633218"><ele>259.0</ele><time>2026-03-28T12:19:58.997Z</time></trkpt><trkpt lat="43.2071522718805" lon="11.371715233876817"><ele>262.0</ele><time>2026-03-28T12:19:59.997Z</time></trkpt><trkpt lat="43.20708056162007" lon="11.371848648053694"><ele>265.0</ele><time>2026-03-28T12:20:00.997Z</time></trkpt><trkpt lat="43.20701113173174" lon="11.371995627530792"><ele>268.0</ele><time>2026-03-28T12:20:01.997Z</time></trkpt><trkpt lat="43.206947265438544" lon="11.372128425231457"><ele>271.0</ele><time>2026-03-28T12:20:02.997Z</time></trkpt><trkpt lat="43.20687984316211" lon="11.372254806255437"><ele>271.0</ele><time>2026-03-28T12:20:03.997Z</time></trkpt><trkpt lat="43.20680783844185" lon="11.372367520566314"><ele>271.0</ele><time>2026-03-28T12:20:04.997Z</time></trkpt><trkpt lat="43.206739118605334" lon="11.372491531145053"><ele>271.0</ele><time>2026-03-28T12:20:05.997Z</time></trkpt><trkpt lat="43.20665820251948" lon="11.372606022396127"><ele>271.0</ele><time>2026-03-28T12:20:06.997Z</time></trkpt><trkpt lat="43.206547694951055" lon="11.37272768109289"><ele>270.0</ele><time>2026-03-28T12:20:07.997Z</time></trkpt><trkpt lat="43.206424528582154" lon="11.372822381071378"><ele>269.0</ele><time>2026-03-28T12:20:08.997Z</time></trkpt><trkpt lat="43.20629640586388" lon="11.372919254761838"><ele>268.0</ele><time>2026-03-28T12:20:09.997Z</time></trkpt><trkpt lat="43.20616669416065" lon="11.373019034565885"><ele>267.0</ele><time>2026-03-28T12:20:10.997Z</time></trkpt><trkpt lat="43.20602876683735" lon="11.37312471210611"><ele>267.0</ele><time>2026-03-28T12:20:11.997Z</time></trkpt><trkpt lat="43.2058950170051" lon="11.373213209347071"><ele>267.0</ele><time>2026-03-28T12:20:12.997Z</time></trkpt><trkpt lat="43.20577236399576" lon="11.373315995656174"><ele>267.0</ele><time>2026-03-28T12:20:13.997Z</time></trkpt><trkpt lat="43.20565485860731" lon="11.373424558485505"><ele>267.0</ele><time>2026-03-28T12:20:14.997Z</time></trkpt><trkpt lat="43.20554963727439" lon="11.373523536817315"><ele>267.25</ele><time>2026-03-28T12:20:15.997Z</time></trkpt><trkpt lat="43.20545007476923" lon="11.373630696347684"><ele>267.5</ele><time>2026-03-28T12:20:16.997Z</time></trkpt><trkpt lat="43.20534308109272" lon="11.373709600938447"><ele>267.75</ele><time>2026-03-28T12:20:17.997Z</time></trkpt><trkpt lat="43.205233432612296" lon="11.37374555425365"><ele>268.0</ele><time>2026-03-28T12:20:18.997Z</time></trkpt><trkpt lat="43.20511694186349" lon="11.373736876725973"><ele>268.0</ele><time>2026-03-28T12:20:19.997Z</time></trkpt><trkpt lat="43.20499248354176" lon="11.373737332135347"><ele>268.0</ele><time>2026-03-28T12:20:20.997Z</time></trkpt><trkpt lat="43.204847121016975" lon="11.373741577111042"><ele>268.0</ele><time>2026-03-28T12:20:21.997Z</time></trkpt><trkpt lat="43.20471263464463" lon="11.373737629463573"><ele>268.0</ele><time>2026-03-28T12:20:22.997Z</time></trkpt><trkpt lat="43.20458414801404" lon="11.373762051722023"><ele>267.66666666666663</ele><time>2026-03-28T12:20:23.997Z</time></trkpt><trkpt lat="43.20444715897629" lon="11.373798037088479"><ele>267.3333333333333</ele><time>2026-03-28T12:20:24.997Z</time></trkpt><trkpt lat="43.20429645609779" lon="11.37384813374896"><ele>267.0</ele><time>2026-03-28T12:20:25.997Z</time></trkpt><trkpt lat="43.20414496692713" lon="11.373899791132953"><ele>264.75</ele><time>2026-03-28T12:20:26.997Z</time></trkpt><trkpt lat="43.20400136170202" lon="11.373956449977118"><ele>262.5</ele><time>2026-03-28T12:20:27.997Z</time></trkpt><trkpt lat="43.20386467338791" lon="11.374020502710945"><ele>260.25</ele><time>2026-03-28T12:20:28.997Z</time></trkpt><trkpt lat="43.20373502322739" lon="11.374076395093304"><ele>258.0</ele><time>2026-03-28T12:20:29.997Z</time></trkpt><trkpt lat="43.20360305704699" lon="11.374146189148487"><ele>258.0</ele><time>2026-03-28T12:20:30.997Z</time></trkpt><trkpt lat="43.20348638446075" lon="11.374246679033245"><ele>258.0</ele><time>2026-03-28T12:20:31.997Z</time></trkpt><trkpt lat="43.203367541391245" lon="11.374359467984233"><ele>258.0</ele><time>2026-03-28T12:20:32.997Z</time></trkpt><trkpt lat="43.203243288368974" lon="11.374457146624007"><ele>258.0</ele><time>2026-03-28T12:20:33.997Z</time></trkpt><trkpt lat="43.20311265128887" lon="11.37452363307548"><ele>259.75</ele><time>2026-03-28T12:20:34.997Z</time></trkpt><trkpt lat="43.20297406340722" lon="11.37456640742304"><ele>261.5</ele><time>2026-03-28T12:20:35.997Z</time></trkpt><trkpt lat="43.20282899482891" lon="11.374603268508654"><ele>263.25</ele><time>2026-03-28T12:20:36.997Z</time></trkpt><trkpt lat="43.20267702628348" lon="11.374637436570167"><ele>265.0</ele><time>2026-03-28T12:20:37.997Z</time></trkpt><trkpt lat="43.202536010820204" lon="11.374667506021924"><ele>265.25</ele><time>2026-03-28T12:20:38.997Z</time></trkpt><trkpt lat="43.20239232789773" lon="11.374700930792486"><ele>265.5</ele><time>2026-03-28T12:20:39.997Z</time></trkpt><trkpt lat="43.20225285463014" lon="11.374744133355748"><ele>265.75</ele><time>2026-03-28T12:20:40.997Z</time></trkpt><trkpt lat="43.20212260319995" lon="11.374784445402566"><ele>266.0</ele><time>2026-03-28T12:20:41.997Z</time></trkpt><trkpt lat="43.20198339754326" lon="11.374823916312312"><ele>266.0</ele><time>2026-03-28T12:20:42.997Z</time></trkpt><trkpt lat="43.20184344331927" lon="11.374882909295904"><ele>266.0</ele><time>2026-03-28T12:20:43.997Z</time></trkpt><trkpt lat="43.20170812329762" lon="11.374953777714227"><ele>266.0</ele><time>2026-03-28T12:20:44.997Z</time></trkpt><trkpt lat="43.201581213835674" lon="11.375035715042186"><ele>266.0</ele><time>2026-03-28T12:20:45.997Z</time></trkpt><trkpt lat="43.20145558370915" lon="11.37512108358466"><ele>267.0</ele><time>2026-03-28T12:20:46.997Z</time></trkpt><trkpt lat="43.201334284225204" lon="11.375204313762643"><ele>268.0</ele><time>2026-03-28T12:20:47.997Z</time></trkpt><trkpt lat="43.2012372600562" lon="11.375279947953157"><ele>269.0</ele><time>2026-03-28T12:20:48.997Z</time></trkpt><trkpt lat="43.20115850734383" lon="11.375334106549921"><ele>270.0</ele><time>2026-03-28T12:20:49.997Z</time></trkpt><trkpt lat="43.20108382185213" lon="11.375370815218542"><ele>271.0</ele><time>2026-03-28T12:20:50.997Z</time></trkpt><trkpt lat="43.2009723100418" lon="11.375378039620847"><ele>271.0</ele><time>2026-03-28T12:20:52.997Z</time></trkpt><trkpt lat="43.20087339211631" lon="11.375348316350491"><ele>271.0</ele><time>2026-03-28T12:20:54.997Z</time></trkpt><trkpt lat="43.20080832451651" lon="11.375327067882292"><ele>271.0</ele><time>2026-03-28T12:20:55.997Z</time></trkpt><trkpt lat="43.20072371087156" lon="11.375284823383288"><ele>271.0</ele><time>2026-03-28T12:20:56.997Z</time></trkpt><trkpt lat="43.200640407163164" lon="11.375214820943587"><ele>271.0</ele><time>2026-03-28T12:20:57.997Z</time></trkpt><trkpt lat="43.200549413317155" lon="11.375160691061039"><ele>268.5</ele><time>2026-03-28T12:20:58.997Z</time></trkpt><trkpt lat="43.2004625363709" lon="11.375112489876079"><ele>266.0</ele><time>2026-03-28T12:20:59.997Z</time></trkpt><trkpt lat="43.20038080526613" lon="11.375070438460174"><ele>263.5</ele><time>2026-03-28T12:21:00.997Z</time></trkpt><trkpt lat="43.200307546671546" lon="11.375024092338473"><ele>261.0</ele><time>2026-03-28T12:21:01.997Z</time></trkpt><trkpt lat="43.20023812722273" lon="11.374990640403526"><ele>258.5</ele><time>2026-03-28T12:21:02.997Z</time></trkpt><trkpt lat="43.20016638506945" lon="11.374975556205735"><ele>256.0</ele><time>2026-03-28T12:21:03.997Z</time></trkpt><trkpt lat="43.20004152355983" lon="11.375017056443"><ele>255.99999999999997</ele><time>2026-03-28T12:21:05.997Z</time></trkpt><trkpt lat="43.199989694485154" lon="11.375088031459276"><ele>256.0</ele><time>2026-03-28T12:21:06.997Z</time></trkpt><trkpt lat="43.19994514250317" lon="11.37517321354162"><ele>256.0</ele><time>2026-03-28T12:21:07.997Z</time></trkpt><trkpt lat="43.19990926701317" lon="11.375278311592366"><ele>256.0</ele><time>2026-03-28T12:21:08.997Z</time></trkpt><trkpt lat="43.19986268318597" lon="11.37539033049465"><ele>255.99999999999997</ele><time>2026-03-28T12:21:09.997Z</time></trkpt><trkpt lat="43.19979044710307" lon="11.37551099266372"><ele>256.0</ele><time>2026-03-28T12:21:10.996Z</time></trkpt><trkpt lat="43.19969720926291" lon="11.375638574967363"><ele>253.0</ele><time>2026-03-28T12:21:11.996Z</time></trkpt><trkpt lat="43.19960459297156" lon="11.375744602789851"><ele>250.0</ele><time>2026-03-28T12:21:12.997Z</time></trkpt><trkpt lat="43.19951714418021" lon="11.375835997694407"><ele>247.0</ele><time>2026-03-28T12:21:13.997Z</time></trkpt><trkpt lat="43.19943254330697" lon="11.375934917460109"><ele>244.0</ele><time>2026-03-28T12:21:14.997Z</time></trkpt><trkpt lat="43.19934517247414" lon="11.376034909152297"><ele>244.0</ele><time>2026-03-28T12:21:15.996Z</time></trkpt><trkpt lat="43.19925695027669" lon="11.376119900541273"><ele>244.0</ele><time>2026-03-28T12:21:16.996Z</time></trkpt><trkpt lat="43.19913736662249" lon="11.376162828826748"><ele>244.0</ele><time>2026-03-28T12:21:17.996Z</time></trkpt><trkpt lat="43.199013142604954" lon="11.376198290577355"><ele>244.0</ele><time>2026-03-28T12:21:18.997Z</time></trkpt><trkpt lat="43.19889977459115" lon="11.376241941400243"><ele>242.0</ele><time>2026-03-28T12:21:19.996Z</time></trkpt><trkpt lat="43.19878772831104" lon="11.376260637856783"><ele>240.0</ele><time>2026-03-28T12:21:20.996Z</time></trkpt><trkpt lat="43.19867517647393" lon="11.376286239848632"><ele>238.0</ele><time>2026-03-28T12:21:21.997Z</time></trkpt><trkpt lat="43.198554522377094" lon="11.376299893353853"><ele>236.0</ele><time>2026-03-28T12:21:22.996Z</time></trkpt><trkpt lat="43.19844283100576" lon="11.376345735405476"><ele>236.0</ele><time>2026-03-28T12:21:23.996Z</time></trkpt><trkpt lat="43.19834221557028" lon="11.376410898664497"><ele>236.0</ele><time>2026-03-28T12:21:24.996Z</time></trkpt><trkpt lat="43.198253958898505" lon="11.376523482446926"><ele>236.0</ele><time>2026-03-28T12:21:25.996Z</time></trkpt><trkpt lat="43.19816654809854" lon="11.37661523969788"><ele>236.0</ele><time>2026-03-28T12:21:26.996Z</time></trkpt><trkpt lat="43.19806722867702" lon="11.376690792663604"><ele>236.0</ele><time>2026-03-28T12:21:27.996Z</time></trkpt><trkpt lat="43.19797776499804" lon="11.376789555172486"><ele>236.0</ele><time>2026-03-28T12:21:28.996Z</time></trkpt><trkpt lat="43.197873425307996" lon="11.376899014750778"><ele>236.0</ele><time>2026-03-28T12:21:29.996Z</time></trkpt><trkpt lat="43.197763757824355" lon="11.376996614788506"><ele>236.0</ele><time>2026-03-28T12:21:30.996Z</time></trkpt><trkpt lat="43.19765645147343" lon="11.377084606992948"><ele>236.0</ele><time>2026-03-28T12:21:31.996Z</time></trkpt><trkpt lat="43.19754112848247" lon="11.377170284596824"><ele>236.0</ele><time>2026-03-28T12:21:32.996Z</time></trkpt><trkpt lat="43.19741686557164" lon="11.377254948159072"><ele>236.0</ele><time>2026-03-28T12:21:33.996Z</time></trkpt><trkpt lat="43.19728674911789" lon="11.377336085714871"><ele>236.0</ele><time>2026-03-28T12:21:34.996Z</time></trkpt><trkpt lat="43.19715721522894" lon="11.37741724748351"><ele>235.0</ele><time>2026-03-28T12:21:35.996Z</time></trkpt><trkpt lat="43.197040791997594" lon="11.377505061294388"><ele>234.0</ele><time>2026-03-28T12:21:36.996Z</time></trkpt><trkpt lat="43.19691154514448" lon="11.377593516430613"><ele>233.0</ele><time>2026-03-28T12:21:37.996Z</time></trkpt><trkpt lat="43.19678278268816" lon="11.37767502659156"><ele>232.0</ele><time>2026-03-28T12:21:38.996Z</time></trkpt><trkpt lat="43.19666423837718" lon="11.377759306109123"><ele>232.0</ele><time>2026-03-28T12:21:39.996Z</time></trkpt><trkpt lat="43.19654110370143" lon="11.377851391163976"><ele>232.0</ele><time>2026-03-28T12:21:40.996Z</time></trkpt><trkpt lat="43.196407327621806" lon="11.377946979653355"><ele>232.0</ele><time>2026-03-28T12:21:41.996Z</time></trkpt><trkpt lat="43.19626803963929" lon="11.378037339319853"><ele>232.0</ele><time>2026-03-28T12:21:42.996Z</time></trkpt><trkpt lat="43.19612376562373" lon="11.378139200507961"><ele>232.66666666666666</ele><time>2026-03-28T12:21:43.996Z</time></trkpt><trkpt lat="43.19597558653491" lon="11.378240699462554"><ele>233.33333333333331</ele><time>2026-03-28T12:21:44.996Z</time></trkpt><trkpt lat="43.195833096453406" lon="11.378313846029359"><ele>234.0</ele><time>2026-03-28T12:21:45.996Z</time></trkpt><trkpt lat="43.19568907282844" lon="11.37837258307603"><ele>233.0</ele><time>2026-03-28T12:21:46.996Z</time></trkpt><trkpt lat="43.19555419174159" lon="11.378432567049332"><ele>232.0</ele><time>2026-03-28T12:21:47.996Z</time></trkpt><trkpt lat="43.19543285318504" lon="11.378494130935636"><ele>231.0</ele><time>2026-03-28T12:21:48.996Z</time></trkpt><trkpt lat="43.19531964355477" lon="11.378554319481815"><ele>230.0</ele><time>2026-03-28T12:21:49.996Z</time></trkpt><trkpt lat="43.195225435392054" lon="11.37862852655403"><ele>230.0</ele><time>2026-03-28T12:21:50.996Z</time></trkpt><trkpt lat="43.19513410182598" lon="11.378729827296583"><ele>230.0</ele><time>2026-03-28T12:21:51.996Z</time></trkpt><trkpt lat="43.195048588093115" lon="11.37884291231449"><ele>230.0</ele><time>2026-03-28T12:21:52.996Z</time></trkpt><trkpt lat="43.19495201274804" lon="11.378950004577808"><ele>230.0</ele><time>2026-03-28T12:21:53.996Z</time></trkpt><trkpt lat="43.194870810791734" lon="11.379074939319922"><ele>229.25</ele><time>2026-03-28T12:21:54.996Z</time></trkpt><trkpt lat="43.194795883386426" lon="11.379204073259524"><ele>228.5</ele><time>2026-03-28T12:21:55.996Z</time></trkpt><trkpt lat="43.19474604394712" lon="11.379344071909925"><ele>227.75</ele><time>2026-03-28T12:21:56.996Z</time></trkpt><trkpt lat="43.194686672096005" lon="11.37948579438137"><ele>227.0</ele><time>2026-03-28T12:21:57.996Z</time></trkpt><trkpt lat="43.19461692459135" lon="11.37964432358745"><ele>227.0</ele><time>2026-03-28T12:21:58.996Z</time></trkpt><trkpt lat="43.19456461769726" lon="11.379831776143572"><ele>227.0</ele><time>2026-03-28T12:21:59.996Z</time></trkpt><trkpt lat="43.194539211943955" lon="11.38002853869556"><ele>227.0</ele><time>2026-03-28T12:22:00.996Z</time></trkpt><trkpt lat="43.19452162169075" lon="11.380211357252714"><ele>227.0</ele><time>2026-03-28T12:22:01.996Z</time></trkpt><trkpt lat="43.194508101328495" lon="11.380395834984187"><ele>227.25</ele><time>2026-03-28T12:22:02.996Z</time></trkpt><trkpt lat="43.19449407827554" lon="11.380572551043489"><ele>227.5</ele><time>2026-03-28T12:22:03.996Z</time></trkpt><trkpt lat="43.19447805529827" lon="11.38075409261685"><ele>227.75</ele><time>2026-03-28T12:22:04.996Z</time></trkpt><trkpt lat="43.19444296923626" lon="11.380948543051588"><ele>228.0</ele><time>2026-03-28T12:22:05.996Z</time></trkpt><trkpt lat="43.1943799522498" lon="11.381152167128574"><ele>228.0</ele><time>2026-03-28T12:22:06.996Z</time></trkpt><trkpt lat="43.19430597740612" lon="11.38136853492911"><ele>228.0</ele><time>2026-03-28T12:22:07.996Z</time></trkpt><trkpt lat="43.19423525085257" lon="11.381571145804228"><ele>228.0</ele><time>2026-03-28T12:22:08.996Z</time></trkpt><trkpt lat="43.19416772165273" lon="11.381762913711041"><ele>228.0</ele><time>2026-03-28T12:22:09.996Z</time></trkpt><trkpt lat="43.19410081318865" lon="11.381953482962203"><ele>228.0</ele><time>2026-03-28T12:22:10.996Z</time></trkpt><trkpt lat="43.19402982719247" lon="11.382155963144344"><ele>228.0</ele><time>2026-03-28T12:22:11.996Z</time></trkpt><trkpt lat="43.19395662463652" lon="11.38236476602249"><ele>225.66666666666669</ele><time>2026-03-28T12:22:12.996Z</time></trkpt><trkpt lat="43.19388204944147" lon="11.38257680862063"><ele>223.33333333333334</ele><time>2026-03-28T12:22:13.996Z</time></trkpt><trkpt lat="43.19381363771554" lon="11.382770805745986"><ele>221.0</ele><time>2026-03-28T12:22:14.996Z</time></trkpt><trkpt lat="43.19375032955476" lon="11.382950330757224"><ele>222.0</ele><time>2026-03-28T12:22:15.996Z</time></trkpt><trkpt lat="43.193691294939896" lon="11.383113460248683"><ele>223.00000000000003</ele><time>2026-03-28T12:22:16.996Z</time></trkpt><trkpt lat="43.1936290532717" lon="11.38323678346816"><ele>224.00000000000003</ele><time>2026-03-28T12:22:17.996Z</time></trkpt><trkpt lat="43.193562052975224" lon="11.383336522742756"><ele>225.0</ele><time>2026-03-28T12:22:18.996Z</time></trkpt><trkpt lat="43.193487206475844" lon="11.383407062542531"><ele>226.0</ele><time>2026-03-28T12:22:19.996Z</time></trkpt><trkpt lat="43.193401005004645" lon="11.383466136219859"><ele>226.0</ele><time>2026-03-28T12:22:20.996Z</time></trkpt><trkpt lat="43.193291088021134" lon="11.383526414463073"><ele>226.0</ele><time>2026-03-28T12:22:21.996Z</time></trkpt><trkpt lat="43.19316948068945" lon="11.383574624689455"><ele>226.0</ele><time>2026-03-28T12:22:22.996Z</time></trkpt><trkpt lat="43.19303373786795" lon="11.383634054484652"><ele>226.0</ele><time>2026-03-28T12:22:23.996Z</time></trkpt><trkpt lat="43.19291548844209" lon="11.383713188031923"><ele>225.5</ele><time>2026-03-28T12:22:24.996Z</time></trkpt><trkpt lat="43.19280406159204" lon="11.383757257483394"><ele>225.0</ele><time>2026-03-28T12:22:25.996Z</time></trkpt><trkpt lat="43.19269179428069" lon="11.383806988143641"><ele>224.5</ele><time>2026-03-28T12:22:26.996Z</time></trkpt><trkpt lat="43.192584685878444" lon="11.383858665935795"><ele>224.0</ele><time>2026-03-28T12:22:27.996Z</time></trkpt><trkpt lat="43.192467169115815" lon="11.383907298779642"><ele>224.25</ele><time>2026-03-28T12:22:28.996Z</time></trkpt><trkpt lat="43.1923302549696" lon="11.383953888173847"><ele>224.5</ele><time>2026-03-28T12:22:29.996Z</time></trkpt><trkpt lat="43.19219994006911" lon="11.383938590881193"><ele>224.75</ele><time>2026-03-28T12:22:30.996Z</time></trkpt><trkpt lat="43.192075913318796" lon="11.383931016084828"><ele>225.0</ele><time>2026-03-28T12:22:31.996Z</time></trkpt><trkpt lat="43.19196117249178" lon="11.383940793694354"><ele>225.0</ele><time>2026-03-28T12:22:32.996Z</time></trkpt><trkpt lat="43.19185496076813" lon="11.383953368544349"><ele>225.0</ele><time>2026-03-28T12:22:33.996Z</time></trkpt><trkpt lat="43.19176167494278" lon="11.38400553339215"><ele>225.0</ele><time>2026-03-28T12:22:34.996Z</time></trkpt><trkpt lat="43.19167014182059" lon="11.384084259382659"><ele>225.0</ele><time>2026-03-28T12:22:35.996Z</time></trkpt><trkpt lat="43.19157776502757" lon="11.384186944253075"><ele>225.0</ele><time>2026-03-28T12:22:36.996Z</time></trkpt><trkpt lat="43.19148478277712" lon="11.384294700095772"><ele>225.75</ele><time>2026-03-28T12:22:37.996Z</time></trkpt><trkpt lat="43.19141486120758" lon="11.384428073214742"><ele>226.5</ele><time>2026-03-28T12:22:38.996Z</time></trkpt><trkpt lat="43.19132272787376" lon="11.384542514363693"><ele>227.25</ele><time>2026-03-28T12:22:39.996Z</time></trkpt><trkpt lat="43.191254627222285" lon="11.384653135861878"><ele>228.0</ele><time>2026-03-28T12:22:40.996Z</time></trkpt><trkpt lat="43.19117129738941" lon="11.384762689231959"><ele>228.0</ele><time>2026-03-28T12:22:41.996Z</time></trkpt><trkpt lat="43.191077899054285" lon="11.38487066758902"><ele>228.0</ele><time>2026-03-28T12:22:42.996Z</time></trkpt><trkpt lat="43.19098227832717" lon="11.38497872940706"><ele>228.0</ele><time>2026-03-28T12:22:43.996Z</time></trkpt><trkpt lat="43.19088463765419" lon="11.385084324723309"><ele>228.0</ele><time>2026-03-28T12:22:44.996Z</time></trkpt><trkpt lat="43.19078072005975" lon="11.385181824729138"><ele>229.0</ele><time>2026-03-28T12:22:45.996Z</time></trkpt><trkpt lat="43.19066071051498" lon="11.385265981012669"><ele>230.0</ele><time>2026-03-28T12:22:46.996Z</time></trkpt><trkpt lat="43.190532187726966" lon="11.385350556041047"><ele>231.0</ele><time>2026-03-28T12:22:47.996Z</time></trkpt><trkpt lat="43.190404628508226" lon="11.38542997841478"><ele>232.0</ele><time>2026-03-28T12:22:48.996Z</time></trkpt><trkpt lat="43.190276184011466" lon="11.385490514808945"><ele>228.66666666666666</ele><time>2026-03-28T12:22:49.996Z</time></trkpt><trkpt lat="43.1901425571902" lon="11.385550216365719"><ele>225.33333333333331</ele><time>2026-03-28T12:22:50.996Z</time></trkpt><trkpt lat="43.18998573221121" lon="11.3856066600464"><ele>222.0</ele><time>2026-03-28T12:22:51.996Z</time></trkpt><trkpt lat="43.18978820689353" lon="11.385652898541998"><ele>221.0</ele><time>2026-03-28T12:22:52.996Z</time></trkpt><trkpt lat="43.18959038969155" lon="11.385694708558841"><ele>220.0</ele><time>2026-03-28T12:22:53.996Z</time></trkpt><trkpt lat="43.18938133877715" lon="11.385765639776004"><ele>219.0</ele><time>2026-03-28T12:22:54.996Z</time></trkpt><trkpt lat="43.18920604510152" lon="11.385804912963986"><ele>219.0</ele><time>2026-03-28T12:22:55.996Z</time></trkpt><trkpt lat="43.18903962478186" lon="11.385841357228845"><ele>219.0</ele><time>2026-03-28T12:22:56.996Z</time></trkpt><trkpt lat="43.188884551151254" lon="11.385891296923772"><ele>219.0</ele><time>2026-03-28T12:22:57.996Z</time></trkpt><trkpt lat="43.18874982447756" lon="11.385925839436641"><ele>220.75</ele><time>2026-03-28T12:22:58.996Z</time></trkpt><trkpt lat="43.18863837452182" lon="11.38595140490224"><ele>222.5</ele><time>2026-03-28T12:22:59.996Z</time></trkpt><trkpt lat="43.188534906173544" lon="11.385921901349532"><ele>224.25</ele><time>2026-03-28T12:23:00.996Z</time></trkpt><trkpt lat="43.18843386461603" lon="11.385870097348974"><ele>226.0</ele><time>2026-03-28T12:23:01.996Z</time></trkpt><trkpt lat="43.18832265773705" lon="11.385783370565633"><ele>226.0</ele><time>2026-03-28T12:23:02.996Z</time></trkpt><trkpt lat="43.18820212931771" lon="11.385676007203413"><ele>226.0</ele><time>2026-03-28T12:23:03.996Z</time></trkpt><trkpt lat="43.188075167281674" lon="11.385562229885608"><ele>226.0</ele><time>2026-03-28T12:23:04.996Z</time></trkpt><trkpt lat="43.187956658931455" lon="11.385464391987709"><ele>226.0</ele><time>2026-03-28T12:23:05.996Z</time></trkpt><trkpt lat="43.18782255214818" lon="11.385393387430547"><ele>228.8</ele><time>2026-03-28T12:23:06.996Z</time></trkpt><trkpt lat="43.18769213104562" lon="11.385339985467537"><ele>231.60000000000002</ele><time>2026-03-28T12:23:07.996Z</time></trkpt><trkpt lat="43.18759032588626" lon="11.385295499798865"><ele>234.4</ele><time>2026-03-28T12:23:08.996Z</time></trkpt><trkpt lat="43.18751687175389" lon="11.385268454002448"><ele>237.2</ele><time>2026-03-28T12:23:09.996Z</time></trkpt><trkpt lat="43.18745165728515" lon="11.385251941795818"><ele>240.0</ele><time>2026-03-28T12:23:10.996Z</time></trkpt><trkpt lat="43.1873809966346" lon="11.385245562425922"><ele>241.33333333333334</ele><time>2026-03-28T12:23:11.996Z</time></trkpt><trkpt lat="43.18730600808338" lon="11.385252657753014"><ele>242.66666666666669</ele><time>2026-03-28T12:23:12.996Z</time></trkpt><trkpt lat="43.1872297562456" lon="11.385229342820045"><ele>244.0</ele><time>2026-03-28T12:23:13.996Z</time></trkpt><trkpt lat="43.18714650460745" lon="11.385235893989039"><ele>245.33333333333334</ele><time>2026-03-28T12:23:14.996Z</time></trkpt><trkpt lat="43.18706388104784" lon="11.385269765776332"><ele>246.66666666666669</ele><time>2026-03-28T12:23:15.996Z</time></trkpt><trkpt lat="43.18698288616364" lon="11.385272010569675"><ele>248.0</ele><time>2026-03-28T12:23:16.996Z</time></trkpt><trkpt lat="43.18690543421017" lon="11.385295563518003"><ele>248.00000000000003</ele><time>2026-03-28T12:23:17.996Z</time></trkpt><trkpt lat="43.186829395437734" lon="11.385316271191801"><ele>248.0</ele><time>2026-03-28T12:23:18.997Z</time></trkpt><trkpt lat="43.186752192211515" lon="11.385334216026001"><ele>248.0</ele><time>2026-03-28T12:23:19.997Z</time></trkpt><trkpt lat="43.186665449690494" lon="11.385338984298825"><ele>248.0</ele><time>2026-03-28T12:23:20.997Z</time></trkpt><trkpt lat="43.18657834016536" lon="11.385357160909166"><ele>248.00000000000003</ele><time>2026-03-28T12:23:21.996Z</time></trkpt><trkpt lat="43.18649353995817" lon="11.385366517621902"><ele>248.0</ele><time>2026-03-28T12:23:22.997Z</time></trkpt><trkpt lat="43.186397906415394" lon="11.38538191977897"><ele>249.33333333333334</ele><time>2026-03-28T12:23:23.997Z</time></trkpt><trkpt lat="43.18630737136315" lon="11.385400346879479"><ele>250.66666666666669</ele><time>2026-03-28T12:23:24.997Z</time></trkpt><trkpt lat="43.18622744896304" lon="11.385409737041272"><ele>252.0</ele><time>2026-03-28T12:23:25.996Z</time></trkpt><trkpt lat="43.18614992415054" lon="11.38541013254779"><ele>253.33333333333331</ele><time>2026-03-28T12:23:26.996Z</time></trkpt><trkpt lat="43.186068421476506" lon="11.385410178324737"><ele>254.66666666666666</ele><time>2026-03-28T12:23:27.997Z</time></trkpt><trkpt lat="43.18599691983515" lon="11.38541331541332"><ele>256.0</ele><time>2026-03-28T12:23:28.997Z</time></trkpt><trkpt lat="43.1859193739767" lon="11.385420007954094"><ele>255.99999999999997</ele><time>2026-03-28T12:23:29.997Z</time></trkpt><trkpt lat="43.185841734291685" lon="11.385424970050103"><ele>256.0</ele><time>2026-03-28T12:23:30.997Z</time></trkpt><trkpt lat="43.185766654059655" lon="11.385405142862977"><ele>256.0</ele><time>2026-03-28T12:23:31.997Z</time></trkpt><trkpt lat="43.18569484583837" lon="11.385404328704531"><ele>256.0</ele><time>2026-03-28T12:23:32.997Z</time></trkpt><trkpt lat="43.18562286687801" lon="11.385422705238428"><ele>255.99999999999997</ele><time>2026-03-28T12:23:33.997Z</time></trkpt><trkpt lat="43.18553625058095" lon="11.38539919161026"><ele>256.0</ele><time>2026-03-28T12:23:34.997Z</time></trkpt><trkpt lat="43.185455124710195" lon="11.385374890496731"><ele>258.2</ele><time>2026-03-28T12:23:35.997Z</time></trkpt><trkpt lat="43.185377177102104" lon="11.385323068814"><ele>260.40000000000003</ele><time>2026-03-28T12:23:36.997Z</time></trkpt><trkpt lat="43.185294242023254" lon="11.385246445583325"><ele>262.6</ele><time>2026-03-28T12:23:37.997Z</time></trkpt><trkpt lat="43.18523270900831" lon="11.385146197721125"><ele>264.8</ele><time>2026-03-28T12:23:38.997Z</time></trkpt><trkpt lat="43.18515760647513" lon="11.38504361788393"><ele>267.0</ele><time>2026-03-28T12:23:39.997Z</time></trkpt><trkpt lat="43.18508452931196" lon="11.384936318135319"><ele>267.0</ele><time>2026-03-28T12:23:40.997Z</time></trkpt><trkpt lat="43.18500892606169" lon="11.384822251796445"><ele>267.0</ele><time>2026-03-28T12:23:41.997Z</time></trkpt><trkpt lat="43.18493403071261" lon="11.384715849720525"><ele>267.0</ele><time>2026-03-28T12:23:42.997Z</time></trkpt><trkpt lat="43.18485910235617" lon="11.384607530387802"><ele>267.0</ele><time>2026-03-28T12:23:43.997Z</time></trkpt><trkpt lat="43.184775002193604" lon="11.384499788359333"><ele>267.0</ele><time>2026-03-28T12:23:44.997Z</time></trkpt><trkpt lat="43.18467805933617" lon="11.384394481491944"><ele>269.0</ele><time>2026-03-28T12:23:45.997Z</time></trkpt><trkpt lat="43.18458883654043" lon="11.384275068956715"><ele>271.0</ele><time>2026-03-28T12:23:46.997Z</time></trkpt><trkpt lat="43.184491914096036" lon="11.384179869676903"><ele>273.0</ele><time>2026-03-28T12:23:47.997Z</time></trkpt><trkpt lat="43.1843886683719" lon="11.384085904652846"><ele>275.0</ele><time>2026-03-28T12:23:48.997Z</time></trkpt><trkpt lat="43.18427287530421" lon="11.384011050005716"><ele>275.0</ele><time>2026-03-28T12:23:49.997Z</time></trkpt><trkpt lat="43.18417306248409" lon="11.38394335765655"><ele>275.0</ele><time>2026-03-28T12:23:50.997Z</time></trkpt><trkpt lat="43.1840788654887" lon="11.383870209750565"><ele>275.0</ele><time>2026-03-28T12:23:51.997Z</time></trkpt><trkpt lat="43.18396992364797" lon="11.383824401821954"><ele>275.0</ele><time>2026-03-28T12:23:52.997Z</time></trkpt><trkpt lat="43.18385549357764" lon="11.383808212195218"><ele>275.0</ele><time>2026-03-28T12:23:53.997Z</time></trkpt><trkpt lat="43.18374487784684" lon="11.383756403150539"><ele>274.75</ele><time>2026-03-28T12:23:54.997Z</time></trkpt><trkpt lat="43.18363262613186" lon="11.383716547076588"><ele>274.5</ele><time>2026-03-28T12:23:55.997Z</time></trkpt><trkpt lat="43.1835218810507" lon="11.383674453933937"><ele>274.25</ele><time>2026-03-28T12:23:56.997Z</time></trkpt><trkpt lat="43.18341518111062" lon="11.383635839440917"><ele>274.0</ele><time>2026-03-28T12:23:57.997Z</time></trkpt><trkpt lat="43.183302218728926" lon="11.383592638021943"><ele>274.0</ele><time>2026-03-28T12:23:58.997Z</time></trkpt><trkpt lat="43.18318099772165" lon="11.383535440043111"><ele>274.0</ele><time>2026-03-28T12:23:59.997Z</time></trkpt><trkpt lat="43.18305873768198" lon="11.383475379928935"><ele>274.0</ele><time>2026-03-28T12:24:00.997Z</time></trkpt><trkpt lat="43.18292509679993" lon="11.383415312197771"><ele>274.0</ele><time>2026-03-28T12:24:01.997Z</time></trkpt><trkpt lat="43.18278013452185" lon="11.3833531038202"><ele>273.0</ele><time>2026-03-28T12:24:02.997Z</time></trkpt><trkpt lat="43.18263964959035" lon="11.383287551407276"><ele>272.0</ele><time>2026-03-28T12:24:03.997Z</time></trkpt><trkpt lat="43.18249491556824" lon="11.383224256234785"><ele>271.0</ele><time>2026-03-28T12:24:04.997Z</time></trkpt><trkpt lat="43.182350699089234" lon="11.383158282519615"><ele>270.3333333333333</ele><time>2026-03-28T12:24:05.997Z</time></trkpt><trkpt lat="43.182194505562045" lon="11.383112607319173"><ele>269.6666666666667</ele><time>2026-03-28T12:24:06.997Z</time></trkpt><trkpt lat="43.182031435113984" lon="11.383074187854893"><ele>269.0</ele><time>2026-03-28T12:24:07.997Z</time></trkpt><trkpt lat="43.18187650556942" lon="11.3830412822698"><ele>268.25</ele><time>2026-03-28T12:24:08.997Z</time></trkpt><trkpt lat="43.1817397436445" lon="11.383005924431723"><ele>267.5</ele><time>2026-03-28T12:24:09.997Z</time></trkpt><trkpt lat="43.18161270277978" lon="11.382978973704883"><ele>266.75</ele><time>2026-03-28T12:24:10.997Z</time></trkpt><trkpt lat="43.18149684798414" lon="11.382955487607251"><ele>266.0</ele><time>2026-03-28T12:24:11.997Z</time></trkpt><trkpt lat="43.18139080312459" lon="11.382934708450009"><ele>266.0</ele><time>2026-03-28T12:24:12.997Z</time></trkpt><trkpt lat="43.18130363406851" lon="11.382892648700368"><ele>266.0</ele><time>2026-03-28T12:24:13.997Z</time></trkpt><trkpt lat="43.18122134276031" lon="11.382883107117788"><ele>266.0</ele><time>2026-03-28T12:24:14.997Z</time></trkpt><trkpt lat="43.181152201038536" lon="11.382846479873892"><ele>266.0</ele><time>2026-03-28T12:24:15.997Z</time></trkpt><trkpt lat="43.181088416254745" lon="11.382812560790317"><ele>266.0</ele><time>2026-03-28T12:24:16.997Z</time></trkpt><trkpt lat="43.181029194279944" lon="11.382780086793478"><ele>266.0</ele><time>2026-03-28T12:24:17.997Z</time></trkpt><trkpt lat="43.180917416782435" lon="11.382703254545316"><ele>266.0</ele><time>2026-03-28T12:24:19.997Z</time></trkpt><trkpt lat="43.18084714930536" lon="11.382670260524444"><ele>266.0</ele><time>2026-03-28T12:24:29.997Z</time></trkpt><trkpt lat="43.18076441282177" lon="11.382681316967606"><ele>266.0</ele><time>2026-03-28T12:24:31.997Z</time></trkpt><trkpt lat="43.18071287851027" lon="11.382743987569317"><ele>266.0</ele><time>2026-03-28T12:24:32.997Z</time></trkpt><trkpt lat="43.180650831167966" lon="11.382823403527688"><ele>266.0</ele><time>2026-03-28T12:24:33.997Z</time></trkpt><trkpt lat="43.180568822666054" lon="11.382905236063202"><ele>266.0</ele><time>2026-03-28T12:24:34.997Z</time></trkpt><trkpt lat="43.1804841110629" lon="11.382990337002584"><ele>266.0</ele><time>2026-03-28T12:24:35.997Z</time></trkpt><trkpt lat="43.1803974004733" lon="11.383074760199909"><ele>266.0</ele><time>2026-03-28T12:24:36.997Z</time></trkpt><trkpt lat="43.180312520652244" lon="11.383163148964796"><ele>266.0</ele><time>2026-03-28T12:24:37.997Z</time></trkpt><trkpt lat="43.18022138597391" lon="11.383246964665776"><ele>266.0</ele><time>2026-03-28T12:24:38.997Z</time></trkpt><trkpt lat="43.18012880402991" lon="11.38331998992035"><ele>266.0</ele><time>2026-03-28T12:24:39.997Z</time></trkpt><trkpt lat="43.18003425179763" lon="11.383384289738494"><ele>266.0</ele><time>2026-03-28T12:24:40.997Z</time></trkpt><trkpt lat="43.17994001442994" lon="11.38344361862966"><ele>266.0</ele><time>2026-03-28T12:24:41.997Z</time></trkpt><trkpt lat="43.17984183022732" lon="11.383500702049806"><ele>266.0</ele><time>2026-03-28T12:24:42.997Z</time></trkpt><trkpt lat="43.179738702652685" lon="11.383555831121818"><ele>266.0</ele><time>2026-03-28T12:24:43.997Z</time></trkpt><trkpt lat="43.179632096426666" lon="11.383611665206779"><ele>266.0</ele><time>2026-03-28T12:24:44.997Z</time></trkpt><trkpt lat="43.179528805643955" lon="11.383670534806454"><ele>265.25</ele><time>2026-03-28T12:24:45.997Z</time></trkpt><trkpt lat="43.17941737939428" lon="11.383728088797593"><ele>264.5</ele><time>2026-03-28T12:24:46.997Z</time></trkpt><trkpt lat="43.17930219440228" lon="11.383775813894653"><ele>263.75</ele><time>2026-03-28T12:24:47.997Z</time></trkpt><trkpt lat="43.179183799391716" lon="11.383832060428466"><ele>263.0</ele><time>2026-03-28T12:24:48.997Z</time></trkpt><trkpt lat="43.17906657794282" lon="11.383892077220635"><ele>264.5</ele><time>2026-03-28T12:24:49.997Z</time></trkpt><trkpt lat="43.17895159733109" lon="11.383963966945155"><ele>266.0</ele><time>2026-03-28T12:24:50.997Z</time></trkpt><trkpt lat="43.178838376900366" lon="11.384050062776653"><ele>267.5</ele><time>2026-03-28T12:24:51.997Z</time></trkpt><trkpt lat="43.17872772222318" lon="11.384157865034123"><ele>269.0</ele><time>2026-03-28T12:24:52.997Z</time></trkpt><trkpt lat="43.17861666348192" lon="11.384276587409492"><ele>269.0</ele><time>2026-03-28T12:24:53.997Z</time></trkpt><trkpt lat="43.17851326623732" lon="11.384418833087146"><ele>269.0</ele><time>2026-03-28T12:24:54.997Z</time></trkpt><trkpt lat="43.17840478852714" lon="11.384569725332291"><ele>269.0</ele><time>2026-03-28T12:24:55.997Z</time></trkpt><trkpt lat="43.17828371329229" lon="11.384721679411227"><ele>269.0</ele><time>2026-03-28T12:24:56.997Z</time></trkpt><trkpt lat="43.17814503444554" lon="11.38486245843265"><ele>269.0</ele><time>2026-03-28T12:24:57.997Z</time></trkpt><trkpt lat="43.177995508196425" lon="11.384993472869086"><ele>269.0</ele><time>2026-03-28T12:24:58.997Z</time></trkpt><trkpt lat="43.177842074450176" lon="11.385112991198232"><ele>269.0</ele><time>2026-03-28T12:24:59.997Z</time></trkpt><trkpt lat="43.17769611514362" lon="11.38522147973176"><ele>269.0</ele><time>2026-03-28T12:25:00.997Z</time></trkpt><trkpt lat="43.177563382428126" lon="11.38533654484407"><ele>269.0</ele><time>2026-03-28T12:25:01.997Z</time></trkpt><trkpt lat="43.17744435876425" lon="11.38546292141705"><ele>270.25</ele><time>2026-03-28T12:25:02.997Z</time></trkpt><trkpt lat="43.177339431058385" lon="11.385613308457424"><ele>271.5</ele><time>2026-03-28T12:25:03.997Z</time></trkpt><trkpt lat="43.177242538904494" lon="11.385760573459505"><ele>272.75</ele><time>2026-03-28T12:25:04.997Z</time></trkpt><trkpt lat="43.17716817633007" lon="11.385930093447922"><ele>274.0</ele><time>2026-03-28T12:25:05.997Z</time></trkpt><trkpt lat="43.17709803008076" lon="11.386100814414414"><ele>274.0</ele><time>2026-03-28T12:25:06.997Z</time></trkpt><trkpt lat="43.17702326653717" lon="11.386275027858144"><ele>274.0</ele><time>2026-03-28T12:25:07.997Z</time></trkpt><trkpt lat="43.17695613836585" lon="11.386441266025711"><ele>274.0</ele><time>2026-03-28T12:25:08.997Z</time></trkpt><trkpt lat="43.1768877928363" lon="11.38661245126873"><ele>274.0</ele><time>2026-03-28T12:25:09.997Z</time></trkpt><trkpt lat="43.176816553399114" lon="11.38679822262621"><ele>273.3333333333333</ele><time>2026-03-28T12:25:10.997Z</time></trkpt><trkpt lat="43.17673939723257" lon="11.386980211349076"><ele>272.6666666666667</ele><time>2026-03-28T12:25:11.997Z</time></trkpt><trkpt lat="43.17666162538574" lon="11.387167089652603"><ele>272.0</ele><time>2026-03-28T12:25:12.997Z</time></trkpt><trkpt lat="43.1765808114166" lon="11.38735939790004"><ele>274.0</ele><time>2026-03-28T12:25:13.997Z</time></trkpt><trkpt lat="43.17650101596495" lon="11.387555692531464"><ele>276.0</ele><time>2026-03-28T12:25:14.997Z</time></trkpt><trkpt lat="43.176412102984344" lon="11.387743931615466"><ele>278.0</ele><time>2026-03-28T12:25:15.997Z</time></trkpt><trkpt lat="43.176310323764675" lon="11.387915236799367"><ele>276.6666666666667</ele><time>2026-03-28T12:25:16.997Z</time></trkpt><trkpt lat="43.17617967775686" lon="11.3880528299304"><ele>275.3333333333333</ele><time>2026-03-28T12:25:17.997Z</time></trkpt><trkpt lat="43.17605619083397" lon="11.388203102562894"><ele>274.0</ele><time>2026-03-28T12:25:18.997Z</time></trkpt><trkpt lat="43.17591112002351" lon="11.388308049658168"><ele>274.0</ele><time>2026-03-28T12:25:19.997Z</time></trkpt><trkpt lat="43.17575621204379" lon="11.388396769574053"><ele>274.0</ele><time>2026-03-28T12:25:20.997Z</time></trkpt><trkpt lat="43.175595933444676" lon="11.388468991810466"><ele>274.0</ele><time>2026-03-28T12:25:21.997Z</time></trkpt><trkpt lat="43.1754297067498" lon="11.388515495362189"><ele>273.66666666666663</ele><time>2026-03-28T12:25:22.997Z</time></trkpt><trkpt lat="43.17526626529773" lon="11.388588935261573"><ele>273.3333333333333</ele><time>2026-03-28T12:25:23.997Z</time></trkpt><trkpt lat="43.17510186421669" lon="11.388673776068865"><ele>273.0</ele><time>2026-03-28T12:25:24.997Z</time></trkpt><trkpt lat="43.1749372043737" lon="11.388742364060858"><ele>272.6666666666667</ele><time>2026-03-28T12:25:25.997Z</time></trkpt><trkpt lat="43.17477104016254" lon="11.388816022029728"><ele>272.33333333333337</ele><time>2026-03-28T12:25:26.997Z</time></trkpt><trkpt lat="43.174602731855465" lon="11.388892900097296"><ele>272.0</ele><time>2026-03-28T12:25:27.996Z</time></trkpt><trkpt lat="43.17442934757805" lon="11.388971055863735"><ele>274.33333333333337</ele><time>2026-03-28T12:25:28.997Z</time></trkpt><trkpt lat="43.17425895776602" lon="11.389046274368802"><ele>276.6666666666667</ele><time>2026-03-28T12:25:29.997Z</time></trkpt><trkpt lat="43.17410717563283" lon="11.389123106640044"><ele>279.0</ele><time>2026-03-28T12:25:30.997Z</time></trkpt><trkpt lat="43.17397527413808" lon="11.389221572553947"><ele>280.75</ele><time>2026-03-28T12:25:31.997Z</time></trkpt><trkpt lat="43.17385990820023" lon="11.389340704222205"><ele>282.5</ele><time>2026-03-28T12:25:32.997Z</time></trkpt><trkpt lat="43.17375545024494" lon="11.389476923118213"><ele>284.25</ele><time>2026-03-28T12:25:33.997Z</time></trkpt><trkpt lat="43.173665954580244" lon="11.389614696253995"><ele>286.0</ele><time>2026-03-28T12:25:34.997Z</time></trkpt><trkpt lat="43.17358668592242" lon="11.389752829082262"><ele>286.0</ele><time>2026-03-28T12:25:35.997Z</time></trkpt><trkpt lat="43.17351137374612" lon="11.389884683653674"><ele>286.0</ele><time>2026-03-28T12:25:36.997Z</time></trkpt><trkpt lat="43.173464467757114" lon="11.39001517231507"><ele>286.0</ele><time>2026-03-28T12:25:37.997Z</time></trkpt><trkpt lat="43.17337413162239" lon="11.39011803692463"><ele>286.0</ele><time>2026-03-28T12:25:38.997Z</time></trkpt><trkpt lat="43.173313765999204" lon="11.390213586907274"><ele>286.0</ele><time>2026-03-28T12:25:39.997Z</time></trkpt><trkpt lat="43.17325832604241" lon="11.390301962865639"><ele>286.0</ele><time>2026-03-28T12:25:40.997Z</time></trkpt><trkpt lat="43.17320955898949" lon="11.390384784472923"><ele>286.0</ele><time>2026-03-28T12:25:41.997Z</time></trkpt><trkpt lat="43.173144046361784" lon="11.390443001385751"><ele>286.0</ele><time>2026-03-28T12:25:42.997Z</time></trkpt><trkpt lat="43.17308635619242" lon="11.390516601140435"><ele>286.0</ele><time>2026-03-28T12:25:43.997Z</time></trkpt><trkpt lat="43.173032344496484" lon="11.390604383803952"><ele>286.0</ele><time>2026-03-28T12:25:44.997Z</time></trkpt><trkpt lat="43.172961375154536" lon="11.390664218830214"><ele>286.0</ele><time>2026-03-28T12:25:45.997Z</time></trkpt><trkpt lat="43.17288204714442" lon="11.390716222875463"><ele>288.40000000000003</ele><time>2026-03-28T12:25:46.997Z</time></trkpt><trkpt lat="43.172797418149635" lon="11.390757496715498"><ele>290.8</ele><time>2026-03-28T12:25:47.997Z</time></trkpt><trkpt lat="43.17270859358922" lon="11.39079122323597"><ele>293.20000000000005</ele><time>2026-03-28T12:25:48.997Z</time></trkpt><trkpt lat="43.17262187748314" lon="11.390830306193143"><ele>295.6</ele><time>2026-03-28T12:25:49.997Z</time></trkpt><trkpt lat="43.17253527494778" lon="11.390873760555774"><ele>298.0</ele><time>2026-03-28T12:25:50.997Z</time></trkpt><trkpt lat="43.172445848370444" lon="11.39091602441597"><ele>298.0</ele><time>2026-03-28T12:25:51.997Z</time></trkpt><trkpt lat="43.17235710969131" lon="11.390958801474836"><ele>298.0</ele><time>2026-03-28T12:25:52.997Z</time></trkpt><trkpt lat="43.172266384433605" lon="11.391018147298883"><ele>298.0</ele><time>2026-03-28T12:25:53.997Z</time></trkpt><trkpt lat="43.17217370655173" lon="11.391066933551619"><ele>298.0</ele><time>2026-03-28T12:25:54.997Z</time></trkpt><trkpt lat="43.17207934064382" lon="11.391110178679275"><ele>298.0</ele><time>2026-03-28T12:25:55.997Z</time></trkpt><trkpt lat="43.171986020078975" lon="11.391149125745805"><ele>298.8</ele><time>2026-03-28T12:25:56.997Z</time></trkpt><trkpt lat="43.17189555975562" lon="11.391191872934925"><ele>299.6</ele><time>2026-03-28T12:25:57.997Z</time></trkpt><trkpt lat="43.17179655005202" lon="11.39123375768343"><ele>300.4</ele><time>2026-03-28T12:25:58.997Z</time></trkpt><trkpt lat="43.17168794984828" lon="11.391263975364117"><ele>301.2</ele><time>2026-03-28T12:25:59.997Z</time></trkpt><trkpt lat="43.17158700214009" lon="11.39128882534909"><ele>302.0</ele><time>2026-03-28T12:26:00.997Z</time></trkpt><trkpt lat="43.17148448120846" lon="11.391298894757954"><ele>302.0</ele><time>2026-03-28T12:26:01.997Z</time></trkpt><trkpt lat="43.17137852906867" lon="11.391302636762639"><ele>302.0</ele><time>2026-03-28T12:26:02.997Z</time></trkpt><trkpt lat="43.17127766813557" lon="11.391288780633332"><ele>302.0</ele><time>2026-03-28T12:26:03.997Z</time></trkpt><trkpt lat="43.171172664129365" lon="11.391264987557449"><ele>302.0</ele><time>2026-03-28T12:26:04.997Z</time></trkpt><trkpt lat="43.17107068902176" lon="11.391216725953846"><ele>302.0</ele><time>2026-03-28T12:26:05.997Z</time></trkpt><trkpt lat="43.17097334511378" lon="11.39115576528137"><ele>302.0</ele><time>2026-03-28T12:26:06.997Z</time></trkpt><trkpt lat="43.170872684737304" lon="11.391094775204355"><ele>302.0</ele><time>2026-03-28T12:26:07.997Z</time></trkpt><trkpt lat="43.17077125156419" lon="11.391035475737574"><ele>302.0</ele><time>2026-03-28T12:26:08.997Z</time></trkpt><trkpt lat="43.1706654124416" lon="11.39096371095088"><ele>302.0</ele><time>2026-03-28T12:26:09.997Z</time></trkpt><trkpt lat="43.17056676103088" lon="11.390913335617245"><ele>302.0</ele><time>2026-03-28T12:26:10.997Z</time></trkpt><trkpt lat="43.17047649260943" lon="11.390851254423161"><ele>302.0</ele><time>2026-03-28T12:26:11.997Z</time></trkpt><trkpt lat="43.170380727011896" lon="11.390805657195493"><ele>302.0</ele><time>2026-03-28T12:26:12.997Z</time></trkpt><trkpt lat="43.170278623285064" lon="11.39072926422945"><ele>302.0</ele><time>2026-03-28T12:26:13.997Z</time></trkpt><trkpt lat="43.17017770497426" lon="11.390646875883355"><ele>302.0</ele><time>2026-03-28T12:26:14.997Z</time></trkpt><trkpt lat="43.170079353318464" lon="11.390565331046044"><ele>301.8</ele><time>2026-03-28T12:26:15.997Z</time></trkpt><trkpt lat="43.169985676555896" lon="11.390486693905906"><ele>301.6</ele><time>2026-03-28T12:26:16.997Z</time></trkpt><trkpt lat="43.16989151388615" lon="11.39041284179637"><ele>301.40000000000003</ele><time>2026-03-28T12:26:17.997Z</time></trkpt><trkpt lat="43.16979705611463" lon="11.390340514558467"><ele>301.2</ele><time>2026-03-28T12:26:18.997Z</time></trkpt><trkpt lat="43.16969763866069" lon="11.390264617347643"><ele>301.0</ele><time>2026-03-28T12:26:19.997Z</time></trkpt><trkpt lat="43.16959042502078" lon="11.390197919367559"><ele>298.25</ele><time>2026-03-28T12:26:20.997Z</time></trkpt><trkpt lat="43.16948076845068" lon="11.39013393772663"><ele>295.5</ele><time>2026-03-28T12:26:21.997Z</time></trkpt><trkpt lat="43.16937078472538" lon="11.390082760413945"><ele>292.75</ele><time>2026-03-28T12:26:22.997Z</time></trkpt><trkpt lat="43.16926117341849" lon="11.390044698258553"><ele>290.0</ele><time>2026-03-28T12:26:23.997Z</time></trkpt><trkpt lat="43.16915278862897" lon="11.390025989182254"><ele>290.0</ele><time>2026-03-28T12:26:24.997Z</time></trkpt><trkpt lat="43.16904199616043" lon="11.390009927285682"><ele>290.0</ele><time>2026-03-28T12:26:25.997Z</time></trkpt><trkpt lat="43.16893247521514" lon="11.389996809429974"><ele>290.0</ele><time>2026-03-28T12:26:26.997Z</time></trkpt><trkpt lat="43.16882342901194" lon="11.389986198308662"><ele>290.0</ele><time>2026-03-28T12:26:27.997Z</time></trkpt><trkpt lat="43.16871450063732" lon="11.389974695732901"><ele>290.0</ele><time>2026-03-28T12:26:28.997Z</time></trkpt><trkpt lat="43.168600069795545" lon="11.389966789005364"><ele>287.25</ele><time>2026-03-28T12:26:29.997Z</time></trkpt><trkpt lat="43.168484989291045" lon="11.389949508221143"><ele>284.5</ele><time>2026-03-28T12:26:30.997Z</time></trkpt><trkpt lat="43.16836151991754" lon="11.38993910549712"><ele>281.75</ele><time>2026-03-28T12:26:31.997Z</time></trkpt><trkpt lat="43.16823683693155" lon="11.389926566295685"><ele>279.0</ele><time>2026-03-28T12:26:32.997Z</time></trkpt><trkpt lat="43.16810125604398" lon="11.389915901357586"><ele>277.5</ele><time>2026-03-28T12:26:33.997Z</time></trkpt><trkpt lat="43.1679623016693" lon="11.389906511610056"><ele>276.0</ele><time>2026-03-28T12:26:34.997Z</time></trkpt><trkpt lat="43.16782142696566" lon="11.389897569474773"><ele>274.5</ele><time>2026-03-28T12:26:35.997Z</time></trkpt><trkpt lat="43.16767760694727" lon="11.389885702402857"><ele>273.0</ele><time>2026-03-28T12:26:36.997Z</time></trkpt><trkpt lat="43.16753156139435" lon="11.389872306844069"><ele>273.0</ele><time>2026-03-28T12:26:37.997Z</time></trkpt><trkpt lat="43.16738563840203" lon="11.389860123134326"><ele>273.0</ele><time>2026-03-28T12:26:38.997Z</time></trkpt><trkpt lat="43.167239723172926" lon="11.389852663639706"><ele>273.0</ele><time>2026-03-28T12:26:39.997Z</time></trkpt><trkpt lat="43.167100362153064" lon="11.389852506906848"><ele>273.0</ele><time>2026-03-28T12:26:40.997Z</time></trkpt><trkpt lat="43.166966926446435" lon="11.389869786244237"><ele>273.25</ele><time>2026-03-28T12:26:41.997Z</time></trkpt><trkpt lat="43.166836997704465" lon="11.389910394156457"><ele>273.5</ele><time>2026-03-28T12:26:42.997Z</time></trkpt><trkpt lat="43.166701138525404" lon="11.389961307190854"><ele>273.75</ele><time>2026-03-28T12:26:43.997Z</time></trkpt><trkpt lat="43.166590133528906" lon="11.390081807023565"><ele>274.0</ele><time>2026-03-28T12:26:44.997Z</time></trkpt><trkpt lat="43.16648964170238" lon="11.390190209254841"><ele>274.59999999999997</ele><time>2026-03-28T12:26:45.997Z</time></trkpt><trkpt lat="43.16640417114749" lon="11.390309600985074"><ele>275.2</ele><time>2026-03-28T12:26:46.997Z</time></trkpt><trkpt lat="43.166327254951504" lon="11.39042724260724"><ele>275.79999999999995</ele><time>2026-03-28T12:26:47.997Z</time></trkpt><trkpt lat="43.16625695643672" lon="11.390524767800839"><ele>276.4</ele><time>2026-03-28T12:26:48.997Z</time></trkpt><trkpt lat="43.16618438724988" lon="11.390600111649936"><ele>277.0</ele><time>2026-03-28T12:26:49.997Z</time></trkpt><trkpt lat="43.16610370025315" lon="11.39065366156192"><ele>276.4</ele><time>2026-03-28T12:26:50.997Z</time></trkpt><trkpt lat="43.166021393844225" lon="11.390705579937958"><ele>275.79999999999995</ele><time>2026-03-28T12:26:51.997Z</time></trkpt><trkpt lat="43.1659318725977" lon="11.390758039902483"><ele>275.2</ele><time>2026-03-28T12:26:52.997Z</time></trkpt><trkpt lat="43.16583371907315" lon="11.390795434538072"><ele>274.59999999999997</ele><time>2026-03-28T12:26:53.997Z</time></trkpt><trkpt lat="43.16572439879761" lon="11.390823691661913"><ele>274.0</ele><time>2026-03-28T12:26:54.997Z</time></trkpt><trkpt lat="43.16560692277749" lon="11.390859503170612"><ele>274.0</ele><time>2026-03-28T12:26:55.997Z</time></trkpt><trkpt lat="43.16548112792562" lon="11.390899457788356"><ele>274.0</ele><time>2026-03-28T12:26:56.997Z</time></trkpt><trkpt lat="43.165345964992724" lon="11.390935797789009"><ele>274.0</ele><time>2026-03-28T12:26:57.997Z</time></trkpt><trkpt lat="43.16520474979682" lon="11.390972565174616"><ele>274.0</ele><time>2026-03-28T12:26:58.997Z</time></trkpt><trkpt lat="43.165056586878805" lon="11.3910150608169"><ele>274.0</ele><time>2026-03-28T12:26:59.997Z</time></trkpt><trkpt lat="43.16490398849474" lon="11.391055668172562"><ele>274.0</ele><time>2026-03-28T12:27:00.997Z</time></trkpt><trkpt lat="43.16474792946311" lon="11.391094843277545"><ele>274.0</ele><time>2026-03-28T12:27:01.997Z</time></trkpt><trkpt lat="43.164595409890005" lon="11.3911290056064"><ele>274.3333333333333</ele><time>2026-03-28T12:27:02.997Z</time></trkpt><trkpt lat="43.16444391236106" lon="11.39116827348597"><ele>274.6666666666667</ele><time>2026-03-28T12:27:03.997Z</time></trkpt><trkpt lat="43.16429007212579" lon="11.391210006714374"><ele>275.0</ele><time>2026-03-28T12:27:04.997Z</time></trkpt><trkpt lat="43.164132141095735" lon="11.391256240846811"><ele>275.6666666666667</ele><time>2026-03-28T12:27:05.997Z</time></trkpt><trkpt lat="43.163966159356015" lon="11.391296217171044"><ele>276.3333333333333</ele><time>2026-03-28T12:27:06.997Z</time></trkpt><trkpt lat="43.163800573534594" lon="11.391333111925462"><ele>277.0</ele><time>2026-03-28T12:27:07.997Z</time></trkpt><trkpt lat="43.163635603525606" lon="11.391375334282301"><ele>277.0</ele><time>2026-03-28T12:27:08.997Z</time></trkpt><trkpt lat="43.16347275353175" lon="11.391419341733299"><ele>277.0</ele><time>2026-03-28T12:27:09.997Z</time></trkpt><trkpt lat="43.16330947867844" lon="11.391463116847609"><ele>277.0</ele><time>2026-03-28T12:27:10.997Z</time></trkpt><trkpt lat="43.163151771007215" lon="11.391501221388795"><ele>278.66666666666663</ele><time>2026-03-28T12:27:11.997Z</time></trkpt><trkpt lat="43.16299563127283" lon="11.391534234082195"><ele>280.3333333333333</ele><time>2026-03-28T12:27:12.997Z</time></trkpt><trkpt lat="43.16283785158566" lon="11.391569176796766"><ele>282.0</ele><time>2026-03-28T12:27:13.997Z</time></trkpt><trkpt lat="43.162677175689026" lon="11.39159854341272"><ele>282.0</ele><time>2026-03-28T12:27:14.997Z</time></trkpt><trkpt lat="43.162517772140134" lon="11.391621744087693"><ele>282.0</ele><time>2026-03-28T12:27:15.997Z</time></trkpt><trkpt lat="43.16235911639522" lon="11.391642018864419"><ele>282.0</ele><time>2026-03-28T12:27:16.997Z</time></trkpt><trkpt lat="43.16221074493038" lon="11.391660266740669"><ele>283.0</ele><time>2026-03-28T12:27:17.997Z</time></trkpt><trkpt lat="43.16208274979322" lon="11.391680208159437"><ele>284.0</ele><time>2026-03-28T12:27:18.997Z</time></trkpt><trkpt lat="43.16196715604729" lon="11.39172141370322"><ele>285.0</ele><time>2026-03-28T12:27:19.997Z</time></trkpt><trkpt lat="43.16186582316748" lon="11.39180116095274"><ele>286.0</ele><time>2026-03-28T12:27:20.997Z</time></trkpt><trkpt lat="43.161765287556165" lon="11.391904710423916"><ele>286.0</ele><time>2026-03-28T12:27:21.997Z</time></trkpt><trkpt lat="43.16170397595556" lon="11.39207277317404"><ele>286.0</ele><time>2026-03-28T12:27:22.996Z</time></trkpt><trkpt lat="43.16164094446404" lon="11.392260084872836"><ele>286.0</ele><time>2026-03-28T12:27:23.996Z</time></trkpt><trkpt lat="43.16157167698679" lon="11.39246918992169"><ele>283.66666666666663</ele><time>2026-03-28T12:27:24.996Z</time></trkpt><trkpt lat="43.16150853282755" lon="11.392660316522775"><ele>281.3333333333333</ele><time>2026-03-28T12:27:25.996Z</time></trkpt><trkpt lat="43.16142392289849" lon="11.392835310159345"><ele>279.0</ele><time>2026-03-28T12:27:26.996Z</time></trkpt><trkpt lat="43.161293941913414" lon="11.392979678467306"><ele>279.0</ele><time>2026-03-28T12:27:27.996Z</time></trkpt><trkpt lat="43.161144000618904" lon="11.393092741036757"><ele>279.0</ele><time>2026-03-28T12:27:28.996Z</time></trkpt><trkpt lat="43.16096516703543" lon="11.393177098575519"><ele>279.0</ele><time>2026-03-28T12:27:29.996Z</time></trkpt><trkpt lat="43.160772233471754" lon="11.393254622436617"><ele>278.3333333333333</ele><time>2026-03-28T12:27:30.996Z</time></trkpt><trkpt lat="43.16057482628152" lon="11.393337913564206"><ele>277.66666666666663</ele><time>2026-03-28T12:27:31.997Z</time></trkpt><trkpt lat="43.16037607356633" lon="11.393421608296702"><ele>277.0</ele><time>2026-03-28T12:27:32.997Z</time></trkpt><trkpt lat="43.16018021211682" lon="11.393505498912027"><ele>277.0</ele><time>2026-03-28T12:27:33.997Z</time></trkpt><trkpt lat="43.15999605085162" lon="11.393594729245695"><ele>277.0</ele><time>2026-03-28T12:27:34.996Z</time></trkpt><trkpt lat="43.15981737260839" lon="11.393685329984853"><ele>277.0</ele><time>2026-03-28T12:27:35.996Z</time></trkpt><trkpt lat="43.15964632695358" lon="11.39378956193565"><ele>276.66666666666663</ele><time>2026-03-28T12:27:36.996Z</time></trkpt><trkpt lat="43.15948189769372" lon="11.39392258971091"><ele>276.3333333333333</ele><time>2026-03-28T12:27:37.997Z</time></trkpt><trkpt lat="43.15932347824106" lon="11.394086181698922"><ele>276.0</ele><time>2026-03-28T12:27:38.997Z</time></trkpt><trkpt lat="43.1591745994697" lon="11.394270428472494"><ele>276.0</ele><time>2026-03-28T12:27:39.997Z</time></trkpt><trkpt lat="43.159036979877406" lon="11.394473610643296"><ele>276.0</ele><time>2026-03-28T12:27:40.997Z</time></trkpt><trkpt lat="43.158915186087484" lon="11.394677519714467"><ele>276.0</ele><time>2026-03-28T12:27:41.997Z</time></trkpt><trkpt lat="43.15881350509857" lon="11.394885763585272"><ele>277.0</ele><time>2026-03-28T12:27:42.997Z</time></trkpt><trkpt lat="43.15873339522038" lon="11.395067581984247"><ele>278.0</ele><time>2026-03-28T12:27:43.997Z</time></trkpt><trkpt lat="43.1586802810992" lon="11.395325745414139"><ele>279.0</ele><time>2026-03-28T12:27:44.997Z</time></trkpt><trkpt lat="43.15865155326843" lon="11.395600415545902"><ele>279.0</ele><time>2026-03-28T12:27:45.997Z</time></trkpt><trkpt lat="43.15863884013593" lon="11.395882232658739"><ele>279.0</ele><time>2026-03-28T12:27:46.997Z</time></trkpt><trkpt lat="43.15863722736687" lon="11.396174453124159"><ele>279.0</ele><time>2026-03-28T12:27:47.997Z</time></trkpt><trkpt lat="43.15863743140532" lon="11.396463155470803"><ele>279.3333333333333</ele><time>2026-03-28T12:27:48.997Z</time></trkpt><trkpt lat="43.15863840616024" lon="11.39676079795965"><ele>279.66666666666663</ele><time>2026-03-28T12:27:49.997Z</time></trkpt><trkpt lat="43.15863458838089" lon="11.397062848228318"><ele>280.0</ele><time>2026-03-28T12:27:50.997Z</time></trkpt><trkpt lat="43.15863155079279" lon="11.397367263623504"><ele>280.0</ele><time>2026-03-28T12:27:51.997Z</time></trkpt><trkpt lat="43.158633386374085" lon="11.39767201313838"><ele>280.0</ele><time>2026-03-28T12:27:52.997Z</time></trkpt><trkpt lat="43.15865050788961" lon="11.397973354720271"><ele>280.0</ele><time>2026-03-28T12:27:53.997Z</time></trkpt><trkpt lat="43.15870277259829" lon="11.398266003089386"><ele>280.66666666666663</ele><time>2026-03-28T12:27:54.997Z</time></trkpt><trkpt lat="43.15877329965813" lon="11.398547009381671"><ele>281.3333333333333</ele><time>2026-03-28T12:27:55.997Z</time></trkpt><trkpt lat="43.158844563533144" lon="11.398783324851927"><ele>282.0</ele><time>2026-03-28T12:27:56.997Z</time></trkpt><trkpt lat="43.15890628942257" lon="11.399002327436765"><ele>282.5</ele><time>2026-03-28T12:27:57.997Z</time></trkpt><trkpt lat="43.15891304844218" lon="11.399223226971394"><ele>283.0</ele><time>2026-03-28T12:27:58.997Z</time></trkpt><trkpt lat="43.15888683197733" lon="11.399418313112049"><ele>283.5</ele><time>2026-03-28T12:27:59.997Z</time></trkpt><trkpt lat="43.158824149772286" lon="11.399558187936083"><ele>284.0</ele><time>2026-03-28T12:28:00.997Z</time></trkpt><trkpt lat="43.158747543885546" lon="11.39961293979472"><ele>284.0</ele><time>2026-03-28T12:28:01.997Z</time></trkpt><trkpt lat="43.15866965683159" lon="11.399677641042297"><ele>284.0</ele><time>2026-03-28T12:28:02.997Z</time></trkpt><trkpt lat="43.15858424605484" lon="11.399652328186693"><ele>284.0</ele><time>2026-03-28T12:28:03.997Z</time></trkpt><trkpt lat="43.15846652659669" lon="11.399621199552767"><ele>284.0</ele><time>2026-03-28T12:28:04.997Z</time></trkpt><trkpt lat="43.158300155451606" lon="11.399605983396082"><ele>286.0</ele><time>2026-03-28T12:28:05.997Z</time></trkpt><trkpt lat="43.15808609123458" lon="11.399640488049549"><ele>288.0</ele><time>2026-03-28T12:28:06.997Z</time></trkpt><trkpt lat="43.15791779901916" lon="11.399718316944705"><ele>290.0</ele><time>2026-03-28T12:28:07.997Z</time></trkpt><trkpt lat="43.157757561313595" lon="11.399841885955611"><ele>290.0</ele><time>2026-03-28T12:28:08.997Z</time></trkpt><trkpt lat="43.15761071248814" lon="11.399995793161866"><ele>290.0</ele><time>2026-03-28T12:28:09.997Z</time></trkpt><trkpt lat="43.15745128667398" lon="11.40010737234454"><ele>290.0</ele><time>2026-03-28T12:28:10.997Z</time></trkpt><trkpt lat="43.15729521036188" lon="11.400164481923124"><ele>291.33333333333337</ele><time>2026-03-28T12:28:11.997Z</time></trkpt><trkpt lat="43.15714787596108" lon="11.400177853853688"><ele>292.6666666666667</ele><time>2026-03-28T12:28:12.997Z</time></trkpt><trkpt lat="43.15699064292575" lon="11.400132018139269"><ele>294.0</ele><time>2026-03-28T12:28:13.997Z</time></trkpt><trkpt lat="43.15682603113268" lon="11.400067217451362"><ele>294.0</ele><time>2026-03-28T12:28:14.997Z</time></trkpt><trkpt lat="43.15667096185265" lon="11.400027271832496"><ele>294.0</ele><time>2026-03-28T12:28:15.997Z</time></trkpt><trkpt lat="43.156549992140455" lon="11.399985782247755"><ele>294.0</ele><time>2026-03-28T12:28:16.997Z</time></trkpt><trkpt lat="43.156444615728304" lon="11.400004652220849"><ele>294.0</ele><time>2026-03-28T12:28:17.997Z</time></trkpt><trkpt lat="43.15635695113734" lon="11.400064968424157"><ele>297.25</ele><time>2026-03-28T12:28:18.997Z</time></trkpt><trkpt lat="43.156283668522434" lon="11.40016889794477"><ele>300.5</ele><time>2026-03-28T12:28:19.997Z</time></trkpt><trkpt lat="43.15625266130593" lon="11.400314527906763"><ele>303.75</ele><time>2026-03-28T12:28:20.997Z</time></trkpt><trkpt lat="43.156265357859866" lon="11.400498497812372"><ele>307.0</ele><time>2026-03-28T12:28:21.997Z</time></trkpt><trkpt lat="43.15631959938278" lon="11.400675537735923"><ele>307.3333333333333</ele><time>2026-03-28T12:28:22.997Z</time></trkpt><trkpt lat="43.15641772375439" lon="11.400865276244835"><ele>307.6666666666667</ele><time>2026-03-28T12:28:23.997Z</time></trkpt><trkpt lat="43.156518417743015" lon="11.401039703968936"><ele>308.0</ele><time>2026-03-28T12:28:24.997Z</time></trkpt><trkpt lat="43.15661335412121" lon="11.401233518549985"><ele>300.33333333333337</ele><time>2026-03-28T12:28:25.997Z</time></trkpt><trkpt lat="43.15667392736051" lon="11.401433765836023"><ele>292.6666666666667</ele><time>2026-03-28T12:28:26.997Z</time></trkpt><trkpt lat="43.156703664803366" lon="11.401631513111395"><ele>285.0</ele><time>2026-03-28T12:28:27.997Z</time></trkpt><trkpt lat="43.15668774597723" lon="11.401838512807908"><ele>285.0</ele><time>2026-03-28T12:28:28.997Z</time></trkpt><trkpt lat="43.15665319481175" lon="11.402081969994613"><ele>285.0</ele><time>2026-03-28T12:28:29.997Z</time></trkpt><trkpt lat="43.156599248080134" lon="11.402336221622637"><ele>285.0</ele><time>2026-03-28T12:28:30.997Z</time></trkpt><trkpt lat="43.156554867932655" lon="11.40261865794322"><ele>289.3333333333333</ele><time>2026-03-28T12:28:31.997Z</time></trkpt><trkpt lat="43.156507116942926" lon="11.402919441942407"><ele>293.66666666666663</ele><time>2026-03-28T12:28:32.997Z</time></trkpt><trkpt lat="43.15643611713418" lon="11.403205143100852"><ele>298.0</ele><time>2026-03-28T12:28:33.997Z</time></trkpt><trkpt lat="43.15640697996548" lon="11.403474177284558"><ele>298.0</ele><time>2026-03-28T12:28:34.997Z</time></trkpt><trkpt lat="43.15639065584097" lon="11.403723889405446"><ele>298.0</ele><time>2026-03-28T12:28:35.997Z</time></trkpt><trkpt lat="43.15638483993593" lon="11.403946301574294"><ele>298.0</ele><time>2026-03-28T12:28:36.997Z</time></trkpt><trkpt lat="43.156371827049476" lon="11.404142411234593"><ele>296.0</ele><time>2026-03-28T12:28:37.997Z</time></trkpt><trkpt lat="43.15631690509411" lon="11.404310769810703"><ele>294.0</ele><time>2026-03-28T12:28:38.997Z</time></trkpt><trkpt lat="43.15621851549787" lon="11.404471832110014"><ele>292.0</ele><time>2026-03-28T12:28:39.997Z</time></trkpt><trkpt lat="43.15609145535399" lon="11.40461180836397"><ele>289.66666666666663</ele><time>2026-03-28T12:28:40.997Z</time></trkpt><trkpt lat="43.15593941733334" lon="11.404735159126702"><ele>287.3333333333333</ele><time>2026-03-28T12:28:41.997Z</time></trkpt><trkpt lat="43.15578253081955" lon="11.404839031737694"><ele>285.0</ele><time>2026-03-28T12:28:42.997Z</time></trkpt><trkpt lat="43.1556082969317" lon="11.404878086034907"><ele>285.0</ele><time>2026-03-28T12:28:43.997Z</time></trkpt><trkpt lat="43.155403872784284" lon="11.404894780957333"><ele>285.0</ele><time>2026-03-28T12:28:44.997Z</time></trkpt><trkpt lat="43.15518901820623" lon="11.404950237449823"><ele>285.0</ele><time>2026-03-28T12:28:45.997Z</time></trkpt><trkpt lat="43.15497337770122" lon="11.405037995181889"><ele>288.0</ele><time>2026-03-28T12:28:46.997Z</time></trkpt><trkpt lat="43.154779663299855" lon="11.405124224163322"><ele>291.0</ele><time>2026-03-28T12:28:47.997Z</time></trkpt><trkpt lat="43.154602691637514" lon="11.405226415386545"><ele>294.0</ele><time>2026-03-28T12:28:48.997Z</time></trkpt><trkpt lat="43.154426090038896" lon="11.405322483544673"><ele>294.0</ele><time>2026-03-28T12:28:49.997Z</time></trkpt><trkpt lat="43.154273760247555" lon="11.405430109699788"><ele>294.0</ele><time>2026-03-28T12:28:50.997Z</time></trkpt><trkpt lat="43.15414149060986" lon="11.405543342066977"><ele>294.0</ele><time>2026-03-28T12:28:51.997Z</time></trkpt><trkpt lat="43.154004356028445" lon="11.405621717476333"><ele>291.3333333333333</ele><time>2026-03-28T12:28:52.997Z</time></trkpt><trkpt lat="43.15384593693141" lon="11.40566235583444"><ele>288.66666666666663</ele><time>2026-03-28T12:28:53.997Z</time></trkpt><trkpt lat="43.153659592256666" lon="11.405674233562923"><ele>286.0</ele><time>2026-03-28T12:28:54.997Z</time></trkpt><trkpt lat="43.153472283182005" lon="11.40571160677286"><ele>286.0</ele><time>2026-03-28T12:28:55.997Z</time></trkpt><trkpt lat="43.15329877818052" lon="11.405766639741545"><ele>286.0</ele><time>2026-03-28T12:28:56.997Z</time></trkpt><trkpt lat="43.153133083044324" lon="11.405870075458926"><ele>286.0</ele><time>2026-03-28T12:28:57.997Z</time></trkpt><trkpt lat="43.15297768144334" lon="11.406035229999066"><ele>285.0</ele><time>2026-03-28T12:28:58.997Z</time></trkpt><trkpt lat="43.15282509796302" lon="11.406214985451635"><ele>284.0</ele><time>2026-03-28T12:28:59.997Z</time></trkpt><trkpt lat="43.15265782238222" lon="11.406370449641052"><ele>283.0</ele><time>2026-03-28T12:29:00.997Z</time></trkpt><trkpt lat="43.15249193293664" lon="11.406480438460262"><ele>283.0</ele><time>2026-03-28T12:29:01.997Z</time></trkpt><trkpt lat="43.15231192009665" lon="11.406530363014184"><ele>283.0</ele><time>2026-03-28T12:29:02.997Z</time></trkpt><trkpt lat="43.15213802116929" lon="11.406582636539012"><ele>283.0</ele><time>2026-03-28T12:29:03.997Z</time></trkpt><trkpt lat="43.15194402554679" lon="11.406603693170728"><ele>283.0</ele><time>2026-03-28T12:29:04.997Z</time></trkpt><trkpt lat="43.15174603149471" lon="11.406627150237576"><ele>283.0</ele><time>2026-03-28T12:29:05.997Z</time></trkpt><trkpt lat="43.15155171468632" lon="11.406640223162384"><ele>283.0</ele><time>2026-03-28T12:29:06.997Z</time></trkpt><trkpt lat="43.151365790419774" lon="11.406669042800793"><ele>284.0</ele><time>2026-03-28T12:29:07.997Z</time></trkpt><trkpt lat="43.15118372353762" lon="11.406727627686122"><ele>285.0</ele><time>2026-03-28T12:29:08.997Z</time></trkpt><trkpt lat="43.15100626796238" lon="11.406782686677468"><ele>286.0</ele><time>2026-03-28T12:29:09.997Z</time></trkpt><trkpt lat="43.15082792989266" lon="11.406816485595408"><ele>284.3333333333333</ele><time>2026-03-28T12:29:10.997Z</time></trkpt><trkpt lat="43.150635283044984" lon="11.406790632904057"><ele>282.6666666666667</ele><time>2026-03-28T12:29:11.997Z</time></trkpt><trkpt lat="43.15045752871986" lon="11.40677460712019"><ele>281.0</ele><time>2026-03-28T12:29:12.997Z</time></trkpt><trkpt lat="43.15029417695482" lon="11.406706207104945"><ele>281.0</ele><time>2026-03-28T12:29:13.996Z</time></trkpt><trkpt lat="43.150149963382624" lon="11.406617161394708"><ele>281.0</ele><time>2026-03-28T12:29:14.995Z</time></trkpt><trkpt lat="43.150046076270655" lon="11.40647182732353"><ele>281.0</ele><time>2026-03-28T12:29:15.995Z</time></trkpt><trkpt lat="43.14994586810661" lon="11.40634338136209"><ele>281.0</ele><time>2026-03-28T12:29:16.994Z</time></trkpt><trkpt lat="43.1498545347092" lon="11.406223482557337"><ele>282.0</ele><time>2026-03-28T12:29:17.993Z</time></trkpt><trkpt lat="43.14973435713783" lon="11.406158682670434"><ele>283.0</ele><time>2026-03-28T12:29:18.992Z</time></trkpt><trkpt lat="43.14959483251289" lon="11.40615780997767"><ele>284.0</ele><time>2026-03-28T12:29:19.992Z</time></trkpt><trkpt lat="43.14945016333572" lon="11.406267584201823"><ele>285.0</ele><time>2026-03-28T12:29:20.991Z</time></trkpt><trkpt lat="43.149334125237075" lon="11.406432034509216"><ele>285.0</ele><time>2026-03-28T12:29:21.99Z</time></trkpt><trkpt lat="43.149224289838266" lon="11.406603541595208"><ele>285.0</ele><time>2026-03-28T12:29:22.99Z</time></trkpt><trkpt lat="43.14910161114787" lon="11.406702380375666"><ele>285.0</ele><time>2026-03-28T12:29:23.989Z</time></trkpt><trkpt lat="43.148961650041244" lon="11.406730801485773"><ele>286.3333333333333</ele><time>2026-03-28T12:29:24.989Z</time></trkpt><trkpt lat="43.148787131677764" lon="11.40675006577859"><ele>287.66666666666663</ele><time>2026-03-28T12:29:25.988Z</time></trkpt><trkpt lat="43.14861617642345" lon="11.406809205753095"><ele>289.0</ele><time>2026-03-28T12:29:26.988Z</time></trkpt><trkpt lat="43.14847056057002" lon="11.40689667794389"><ele>289.0</ele><time>2026-03-28T12:29:27.987Z</time></trkpt><trkpt lat="43.14833940846099" lon="11.40702623473238"><ele>289.0</ele><time>2026-03-28T12:29:28.987Z</time></trkpt><trkpt lat="43.1482410385918" lon="11.407244357386888"><ele>289.0</ele><time>2026-03-28T12:29:29.987Z</time></trkpt><trkpt lat="43.148152247632545" lon="11.407489544319652"><ele>290.0</ele><time>2026-03-28T12:29:30.986Z</time></trkpt><trkpt lat="43.14805749682583" lon="11.407710192719891"><ele>291.0</ele><time>2026-03-28T12:29:31.986Z</time></trkpt><trkpt lat="43.147975048951245" lon="11.407928323279945"><ele>292.0</ele><time>2026-03-28T12:29:32.986Z</time></trkpt><trkpt lat="43.14791094080045" lon="11.408130985575804"><ele>290.0</ele><time>2026-03-28T12:29:33.985Z</time></trkpt><trkpt lat="43.14788272582795" lon="11.408381788737561"><ele>288.0</ele><time>2026-03-28T12:29:34.985Z</time></trkpt><trkpt lat="43.14786124553999" lon="11.40864572255355"><ele>286.0</ele><time>2026-03-28T12:29:35.985Z</time></trkpt><trkpt lat="43.147841244026" lon="11.40891694869037"><ele>284.0</ele><time>2026-03-28T12:29:36.985Z</time></trkpt><trkpt lat="43.14779480559947" lon="11.409179381459436"><ele>282.0</ele><time>2026-03-28T12:29:37.985Z</time></trkpt><trkpt lat="43.147754926065986" lon="11.409431287055698"><ele>280.0</ele><time>2026-03-28T12:29:38.985Z</time></trkpt><trkpt lat="43.14771470941119" lon="11.409669388713086"><ele>277.66666666666663</ele><time>2026-03-28T12:29:39.984Z</time></trkpt><trkpt lat="43.14767522908312" lon="11.409887566774476"><ele>275.3333333333333</ele><time>2026-03-28T12:29:40.984Z</time></trkpt><trkpt lat="43.14763084214721" lon="11.410086835204169"><ele>273.0</ele><time>2026-03-28T12:29:41.984Z</time></trkpt><trkpt lat="43.14756356097173" lon="11.410251815933783"><ele>273.0</ele><time>2026-03-28T12:29:42.984Z</time></trkpt><trkpt lat="43.14747287134671" lon="11.41040125841892"><ele>273.0</ele><time>2026-03-28T12:29:43.983Z</time></trkpt><trkpt lat="43.14734819760184" lon="11.41053628454557"><ele>273.0</ele><time>2026-03-28T12:29:44.983Z</time></trkpt><trkpt lat="43.14719818910976" lon="11.410642281934198"><ele>270.6666666666667</ele><time>2026-03-28T12:29:45.983Z</time></trkpt><trkpt lat="43.14704157866505" lon="11.41073675131395"><ele>268.33333333333337</ele><time>2026-03-28T12:29:46.983Z</time></trkpt><trkpt lat="43.14688109231687" lon="11.410847166268935"><ele>266.0</ele><time>2026-03-28T12:29:47.983Z</time></trkpt><trkpt lat="43.14673657375158" lon="11.411006693676478"><ele>266.0</ele><time>2026-03-28T12:29:48.983Z</time></trkpt><trkpt lat="43.14660331964536" lon="11.41117684835269"><ele>266.0</ele><time>2026-03-28T12:29:49.983Z</time></trkpt><trkpt lat="43.14648480352655" lon="11.411387798509908"><ele>266.0</ele><time>2026-03-28T12:29:50.983Z</time></trkpt><trkpt lat="43.14636371894569" lon="11.411599289076904"><ele>264.33333333333337</ele><time>2026-03-28T12:29:51.983Z</time></trkpt><trkpt lat="43.1462337368153" lon="11.411785914479422"><ele>262.6666666666667</ele><time>2026-03-28T12:29:52.983Z</time></trkpt><trkpt lat="43.146138728740056" lon="11.411995416488145"><ele>261.0</ele><time>2026-03-28T12:29:53.983Z</time></trkpt><trkpt lat="43.1460273177455" lon="11.412202272754783"><ele>258.3333333333333</ele><time>2026-03-28T12:29:54.983Z</time></trkpt><trkpt lat="43.145925209083835" lon="11.412438680909224"><ele>255.66666666666666</ele><time>2026-03-28T12:29:55.983Z</time></trkpt><trkpt lat="43.14587056368563" lon="11.41268801311952"><ele>253.0</ele><time>2026-03-28T12:29:56.982Z</time></trkpt><trkpt lat="43.145821719930886" lon="11.412930573310815"><ele>252.66666666666666</ele><time>2026-03-28T12:29:57.982Z</time></trkpt><trkpt lat="43.1457648227256" lon="11.413146893894188"><ele>252.33333333333331</ele><time>2026-03-28T12:29:58.982Z</time></trkpt><trkpt lat="43.14570009511352" lon="11.413366599904935"><ele>252.0</ele><time>2026-03-28T12:29:59.982Z</time></trkpt><trkpt lat="43.14557535001049" lon="11.413570185157882"><ele>250.0</ele><time>2026-03-28T12:30:00.982Z</time></trkpt><trkpt lat="43.145440919189966" lon="11.413750379121916"><ele>248.0</ele><time>2026-03-28T12:30:01.982Z</time></trkpt><trkpt lat="43.14533359806656" lon="11.413923066887817"><ele>246.0</ele><time>2026-03-28T12:30:02.982Z</time></trkpt><trkpt lat="43.145242082051894" lon="11.414053657441874"><ele>245.0</ele><time>2026-03-28T12:30:03.982Z</time></trkpt><trkpt lat="43.14517916761051" lon="11.414210567406771"><ele>244.0</ele><time>2026-03-28T12:30:04.982Z</time></trkpt><trkpt lat="43.14516739151607" lon="11.414420702388986"><ele>243.0</ele><time>2026-03-28T12:30:05.982Z</time></trkpt><trkpt lat="43.14519611777561" lon="11.414626816785104"><ele>242.0</ele><time>2026-03-28T12:30:06.982Z</time></trkpt><trkpt lat="43.145261872199676" lon="11.414813556230493"><ele>240.0</ele><time>2026-03-28T12:30:07.982Z</time></trkpt><trkpt lat="43.14536675954705" lon="11.414983385961312"><ele>238.0</ele><time>2026-03-28T12:30:08.982Z</time></trkpt><trkpt lat="43.14550255529659" lon="11.415129866342413"><ele>236.0</ele><time>2026-03-28T12:30:09.982Z</time></trkpt><trkpt lat="43.14560902011542" lon="11.415286357537004"><ele>236.0</ele><time>2026-03-28T12:30:10.982Z</time></trkpt><trkpt lat="43.14569402475766" lon="11.415454049720706"><ele>236.0</ele><time>2026-03-28T12:30:11.982Z</time></trkpt><trkpt lat="43.14576050498162" lon="11.415646193831392"><ele>236.0</ele><time>2026-03-28T12:30:12.982Z</time></trkpt><trkpt lat="43.14578968849441" lon="11.415857761552603"><ele>236.0</ele><time>2026-03-28T12:30:13.982Z</time></trkpt><trkpt lat="43.1457682694102" lon="11.416086637535296"><ele>236.0</ele><time>2026-03-28T12:30:14.982Z</time></trkpt><trkpt lat="43.14574826027675" lon="11.41633730515639"><ele>236.0</ele><time>2026-03-28T12:30:15.982Z</time></trkpt><trkpt lat="43.14572060800872" lon="11.41661294649703"><ele>231.33333333333334</ele><time>2026-03-28T12:30:16.982Z</time></trkpt><trkpt lat="43.14568789517602" lon="11.416868802507073"><ele>226.66666666666669</ele><time>2026-03-28T12:30:17.982Z</time></trkpt><trkpt lat="43.14565106196102" lon="11.417114118631112"><ele>222.0</ele><time>2026-03-28T12:30:18.982Z</time></trkpt><trkpt lat="43.14559410770226" lon="11.417349270588122"><ele>220.33333333333331</ele><time>2026-03-28T12:30:19.982Z</time></trkpt><trkpt lat="43.14551974674238" lon="11.417594787568861"><ele>218.66666666666666</ele><time>2026-03-28T12:30:20.982Z</time></trkpt><trkpt lat="43.145442331504086" lon="11.417837628302072"><ele>217.0</ele><time>2026-03-28T12:30:21.982Z</time></trkpt><trkpt lat="43.145379195171905" lon="11.418071910992374"><ele>216.0</ele><time>2026-03-28T12:30:22.982Z</time></trkpt><trkpt lat="43.14535424852425" lon="11.418320488119083"><ele>215.0</ele><time>2026-03-28T12:30:23.982Z</time></trkpt><trkpt lat="43.1453437971926" lon="11.418581936111107"><ele>214.0</ele><time>2026-03-28T12:30:24.982Z</time></trkpt><trkpt lat="43.14534117150107" lon="11.418840423859692"><ele>213.66666666666666</ele><time>2026-03-28T12:30:25.981Z</time></trkpt><trkpt lat="43.14532963179798" lon="11.41908802918227"><ele>213.33333333333331</ele><time>2026-03-28T12:30:26.981Z</time></trkpt><trkpt lat="43.14530811180556" lon="11.419327442844892"><ele>213.0</ele><time>2026-03-28T12:30:27.981Z</time></trkpt><trkpt lat="43.14525052292329" lon="11.419552652239133"><ele>212.0</ele><time>2026-03-28T12:30:28.981Z</time></trkpt><trkpt lat="43.145194458308964" lon="11.41978610800437"><ele>211.0</ele><time>2026-03-28T12:30:29.981Z</time></trkpt><trkpt lat="43.1451486210567" lon="11.420024983274448"><ele>210.0</ele><time>2026-03-28T12:30:30.981Z</time></trkpt><trkpt lat="43.14514700199551" lon="11.420267609192905"><ele>209.25</ele><time>2026-03-28T12:30:31.981Z</time></trkpt><trkpt lat="43.14514328946247" lon="11.420494629732005"><ele>208.5</ele><time>2026-03-28T12:30:32.981Z</time></trkpt><trkpt lat="43.145147310977144" lon="11.42069627115821"><ele>207.75</ele><time>2026-03-28T12:30:33.981Z</time></trkpt><trkpt lat="43.14514548066212" lon="11.4208712525521"><ele>207.0</ele><time>2026-03-28T12:30:34.981Z</time></trkpt><trkpt lat="43.14513666668001" lon="11.421040953546608"><ele>207.0</ele><time>2026-03-28T12:30:35.981Z</time></trkpt><trkpt lat="43.145108287283065" lon="11.42120459342"><ele>207.0</ele><time>2026-03-28T12:30:36.981Z</time></trkpt><trkpt lat="43.14503502086068" lon="11.421335627629608"><ele>207.0</ele><time>2026-03-28T12:30:37.981Z</time></trkpt><trkpt lat="43.14495995263694" lon="11.421444754407414"><ele>207.0</ele><time>2026-03-28T12:30:38.981Z</time></trkpt><trkpt lat="43.144876614338315" lon="11.421537170079887"><ele>206.0</ele><time>2026-03-28T12:30:39.981Z</time></trkpt><trkpt lat="43.14478104518286" lon="11.421606721173386"><ele>205.0</ele><time>2026-03-28T12:30:40.981Z</time></trkpt><trkpt lat="43.144678997278845" lon="11.421669786159075"><ele>204.0</ele><time>2026-03-28T12:30:41.981Z</time></trkpt><trkpt lat="43.14457081624021" lon="11.421738383951883"><ele>203.0</ele><time>2026-03-28T12:30:42.981Z</time></trkpt><trkpt lat="43.14444928383044" lon="11.421772848503805"><ele>203.0</ele><time>2026-03-28T12:30:43.981Z</time></trkpt><trkpt lat="43.14432121189938" lon="11.421802442014405"><ele>203.0</ele><time>2026-03-28T12:30:44.981Z</time></trkpt><trkpt lat="43.14418560215018" lon="11.421803075755832"><ele>203.0</ele><time>2026-03-28T12:30:45.981Z</time></trkpt><trkpt lat="43.144048120784085" lon="11.421818982148709"><ele>203.0</ele><time>2026-03-28T12:30:46.981Z</time></trkpt><trkpt lat="43.143909421443304" lon="11.42182922566644"><ele>201.66666666666669</ele><time>2026-03-28T12:30:47.981Z</time></trkpt><trkpt lat="43.14375393792494" lon="11.421819226005418"><ele>200.33333333333331</ele><time>2026-03-28T12:30:48.981Z</time></trkpt><trkpt lat="43.14357985356228" lon="11.421772616932087"><ele>199.0</ele><time>2026-03-28T12:30:49.981Z</time></trkpt><trkpt lat="43.14338474008337" lon="11.421709877695932"><ele>198.66666666666666</ele><time>2026-03-28T12:30:50.981Z</time></trkpt><trkpt lat="43.14318476524275" lon="11.421635048201319"><ele>198.33333333333331</ele><time>2026-03-28T12:30:51.981Z</time></trkpt><trkpt lat="43.142996874871734" lon="11.421574077881555"><ele>198.0</ele><time>2026-03-28T12:30:52.981Z</time></trkpt><trkpt lat="43.14281626094895" lon="11.421513325879648"><ele>198.0</ele><time>2026-03-28T12:30:53.981Z</time></trkpt><trkpt lat="43.14265874015587" lon="11.421455235683078"><ele>198.0</ele><time>2026-03-28T12:30:54.981Z</time></trkpt><trkpt lat="43.142507748552326" lon="11.421411780196733"><ele>198.0</ele><time>2026-03-28T12:30:55.981Z</time></trkpt><trkpt lat="43.14236063667281" lon="11.421397733727206"><ele>196.33333333333331</ele><time>2026-03-28T12:30:56.981Z</time></trkpt><trkpt lat="43.14219334144938" lon="11.421433485917413"><ele>194.66666666666666</ele><time>2026-03-28T12:30:57.981Z</time></trkpt><trkpt lat="43.14199996772068" lon="11.421504827666528"><ele>193.0</ele><time>2026-03-28T12:30:58.981Z</time></trkpt><trkpt lat="43.141815821097545" lon="11.421588211210596"><ele>193.0</ele><time>2026-03-28T12:30:59.981Z</time></trkpt><trkpt lat="43.14163910558912" lon="11.42164044922589"><ele>193.0</ele><time>2026-03-28T12:31:00.981Z</time></trkpt><trkpt lat="43.14147474833535" lon="11.421647763945257"><ele>193.0</ele><time>2026-03-28T12:31:01.981Z</time></trkpt><trkpt lat="43.141321396162894" lon="11.421605159930742"><ele>191.66666666666666</ele><time>2026-03-28T12:31:02.981Z</time></trkpt><trkpt lat="43.14117805052953" lon="11.421510122386163"><ele>190.33333333333331</ele><time>2026-03-28T12:31:03.981Z</time></trkpt><trkpt lat="43.14104980893063" lon="11.421374315957523"><ele>189.0</ele><time>2026-03-28T12:31:04.981Z</time></trkpt><trkpt lat="43.14091604649059" lon="11.421246947530415"><ele>189.0</ele><time>2026-03-28T12:31:05.981Z</time></trkpt><trkpt lat="43.140794280742924" lon="11.421085625691324"><ele>189.0</ele><time>2026-03-28T12:31:06.981Z</time></trkpt><trkpt lat="43.14065261655997" lon="11.420935166859428"><ele>189.0</ele><time>2026-03-28T12:31:07.981Z</time></trkpt><trkpt lat="43.14050009764203" lon="11.420820493103873"><ele>192.33333333333331</ele><time>2026-03-28T12:31:08.981Z</time></trkpt><trkpt lat="43.14033454340768" lon="11.420741286886088"><ele>195.66666666666666</ele><time>2026-03-28T12:31:09.981Z</time></trkpt><trkpt lat="43.14016119141624" lon="11.420701696246368"><ele>199.0</ele><time>2026-03-28T12:31:10.981Z</time></trkpt><trkpt lat="43.139972693663516" lon="11.420695035497113"><ele>199.33333333333331</ele><time>2026-03-28T12:31:11.981Z</time></trkpt><trkpt lat="43.139781732798184" lon="11.420720850389177"><ele>199.66666666666669</ele><time>2026-03-28T12:31:12.981Z</time></trkpt><trkpt lat="43.13959487899225" lon="11.420765403241303"><ele>200.0</ele><time>2026-03-28T12:31:13.981Z</time></trkpt><trkpt lat="43.13940487089846" lon="11.420848387526346"><ele>200.0</ele><time>2026-03-28T12:31:14.981Z</time></trkpt><trkpt lat="43.139205874506445" lon="11.420959132552193"><ele>200.0</ele><time>2026-03-28T12:31:15.981Z</time></trkpt><trkpt lat="43.13900220394674" lon="11.421087020097968"><ele>200.0</ele><time>2026-03-28T12:31:16.981Z</time></trkpt><trkpt lat="43.13880550647373" lon="11.421177174934016"><ele>200.33333333333334</ele><time>2026-03-28T12:31:17.981Z</time></trkpt><trkpt lat="43.13860061754209" lon="11.421254675128234"><ele>200.66666666666669</ele><time>2026-03-28T12:31:18.981Z</time></trkpt><trkpt lat="43.13840738517261" lon="11.421334715674401"><ele>201.0</ele><time>2026-03-28T12:31:19.981Z</time></trkpt><trkpt lat="43.138244401611416" lon="11.421449549622363"><ele>201.0</ele><time>2026-03-28T12:31:20.981Z</time></trkpt><trkpt lat="43.13811477139556" lon="11.421592288725893"><ele>201.0</ele><time>2026-03-28T12:31:21.981Z</time></trkpt><trkpt lat="43.138013792102974" lon="11.421777269560359"><ele>201.0</ele><time>2026-03-28T12:31:22.981Z</time></trkpt><trkpt lat="43.13792139182178" lon="11.422002388836217"><ele>203.33333333333331</ele><time>2026-03-28T12:31:23.981Z</time></trkpt><trkpt lat="43.13780598616561" lon="11.422212952750753"><ele>205.66666666666666</ele><time>2026-03-28T12:31:24.981Z</time></trkpt><trkpt lat="43.1376407221284" lon="11.422369403501937"><ele>208.0</ele><time>2026-03-28T12:31:25.981Z</time></trkpt><trkpt lat="43.1374713229095" lon="11.42250864005161"><ele>208.0</ele><time>2026-03-28T12:31:26.981Z</time></trkpt><trkpt lat="43.13726420541538" lon="11.422571674922592"><ele>208.0</ele><time>2026-03-28T12:31:27.981Z</time></trkpt><trkpt lat="43.13705741060162" lon="11.422630769082636"><ele>208.0</ele><time>2026-03-28T12:31:28.981Z</time></trkpt><trkpt lat="43.13688398463617" lon="11.42269221393434"><ele>208.0</ele><time>2026-03-28T12:31:29.981Z</time></trkpt><trkpt lat="43.13672703186791" lon="11.422788501724645"><ele>208.0</ele><time>2026-03-28T12:31:30.981Z</time></trkpt><trkpt lat="43.13660009096263" lon="11.422934906251506"><ele>208.0</ele><time>2026-03-28T12:31:31.981Z</time></trkpt><trkpt lat="43.1364823470553" lon="11.423087513443628"><ele>208.33333333333331</ele><time>2026-03-28T12:31:32.981Z</time></trkpt><trkpt lat="43.13639320600376" lon="11.423291491624672"><ele>208.66666666666669</ele><time>2026-03-28T12:31:33.981Z</time></trkpt><trkpt lat="43.13631299349396" lon="11.423509816341898"><ele>209.0</ele><time>2026-03-28T12:31:34.981Z</time></trkpt><trkpt lat="43.13622016086743" lon="11.423721991625133"><ele>211.0</ele><time>2026-03-28T12:31:35.981Z</time></trkpt><trkpt lat="43.13610080974414" lon="11.423934355999927"><ele>213.0</ele><time>2026-03-28T12:31:36.981Z</time></trkpt><trkpt lat="43.13596003472213" lon="11.424107724685923"><ele>215.0</ele><time>2026-03-28T12:31:37.981Z</time></trkpt><trkpt lat="43.13579119921053" lon="11.42426039530903"><ele>216.33333333333334</ele><time>2026-03-28T12:31:38.981Z</time></trkpt><trkpt lat="43.13562578198782" lon="11.42443468046051"><ele>217.66666666666669</ele><time>2026-03-28T12:31:39.981Z</time></trkpt><trkpt lat="43.135458738770446" lon="11.424610678936178"><ele>219.0</ele><time>2026-03-28T12:31:40.981Z</time></trkpt><trkpt lat="43.135297513050126" lon="11.42478074262915"><ele>221.33333333333331</ele><time>2026-03-28T12:31:41.981Z</time></trkpt><trkpt lat="43.135139461099875" lon="11.424969172250611"><ele>223.66666666666666</ele><time>2026-03-28T12:31:42.98Z</time></trkpt><trkpt lat="43.134977207674595" lon="11.425142043126685"><ele>226.0</ele><time>2026-03-28T12:31:43.981Z</time></trkpt><trkpt lat="43.134806511377185" lon="11.425298889218642"><ele>232.0</ele><time>2026-03-28T12:31:44.981Z</time></trkpt><trkpt lat="43.13464746238099" lon="11.425466731482176"><ele>238.0</ele><time>2026-03-28T12:31:45.981Z</time></trkpt><trkpt lat="43.13449085284715" lon="11.425631999156385"><ele>244.0</ele><time>2026-03-28T12:31:46.98Z</time></trkpt><trkpt lat="43.13433683271772" lon="11.425795100927052"><ele>244.0</ele><time>2026-03-28T12:31:47.98Z</time></trkpt><trkpt lat="43.13418313725615" lon="11.42596022616275"><ele>244.0</ele><time>2026-03-28T12:31:48.981Z</time></trkpt><trkpt lat="43.13403845034255" lon="11.42611567301664"><ele>244.0</ele><time>2026-03-28T12:31:49.981Z</time></trkpt><trkpt lat="43.13390342552846" lon="11.426251825878913"><ele>245.66666666666666</ele><time>2026-03-28T12:31:50.981Z</time></trkpt><trkpt lat="43.13376565346981" lon="11.42637854087566"><ele>247.33333333333331</ele><time>2026-03-28T12:31:51.981Z</time></trkpt><trkpt lat="43.13361486236238" lon="11.426440384054246"><ele>249.0</ele><time>2026-03-28T12:31:52.98Z</time></trkpt><trkpt lat="43.133467495508484" lon="11.426470872099381"><ele>249.0</ele><time>2026-03-28T12:31:53.98Z</time></trkpt><trkpt lat="43.13330684416984" lon="11.426479926475547"><ele>249.0</ele><time>2026-03-28T12:31:54.98Z</time></trkpt><trkpt lat="43.13313401937583" lon="11.426493862315589"><ele>249.0</ele><time>2026-03-28T12:31:55.98Z</time></trkpt><trkpt lat="43.13294666992039" lon="11.42650714733004"><ele>249.0</ele><time>2026-03-28T12:31:56.98Z</time></trkpt><trkpt lat="43.13275644492446" lon="11.42652634944234"><ele>249.0</ele><time>2026-03-28T12:31:57.98Z</time></trkpt><trkpt lat="43.132566866010684" lon="11.42654060253059"><ele>249.0</ele><time>2026-03-28T12:31:58.98Z</time></trkpt><trkpt lat="43.132378940301265" lon="11.426524323286223"><ele>249.0</ele><time>2026-03-28T12:31:59.98Z</time></trkpt><trkpt lat="43.13220591875235" lon="11.426534764042827"><ele>249.0</ele><time>2026-03-28T12:32:00.98Z</time></trkpt><trkpt lat="43.13203725769039" lon="11.426552271049843"><ele>249.0</ele><time>2026-03-28T12:32:01.98Z</time></trkpt><trkpt lat="43.1318669550974" lon="11.426562435670341"><ele>249.0</ele><time>2026-03-28T12:32:02.98Z</time></trkpt><trkpt lat="43.13170576823607" lon="11.426572286156118"><ele>249.0</ele><time>2026-03-28T12:32:03.98Z</time></trkpt><trkpt lat="43.131551493168736" lon="11.426575692551062"><ele>249.0</ele><time>2026-03-28T12:32:04.98Z</time></trkpt><trkpt lat="43.13140576541067" lon="11.42657950624175"><ele>249.25</ele><time>2026-03-28T12:32:05.98Z</time></trkpt><trkpt lat="43.13128388601625" lon="11.426597676843558"><ele>249.5</ele><time>2026-03-28T12:32:06.98Z</time></trkpt><trkpt lat="43.13115830358203" lon="11.42666152991327"><ele>249.75</ele><time>2026-03-28T12:32:07.98Z</time></trkpt><trkpt lat="43.131034656367575" lon="11.426753908286026"><ele>250.0</ele><time>2026-03-28T12:32:08.98Z</time></trkpt><trkpt lat="43.13090514626396" lon="11.426860689950438"><ele>250.0</ele><time>2026-03-28T12:32:09.98Z</time></trkpt><trkpt lat="43.13078222496584" lon="11.427026540313225"><ele>250.0</ele><time>2026-03-28T12:32:10.98Z</time></trkpt><trkpt lat="43.13064483981304" lon="11.427176698481297"><ele>250.0</ele><time>2026-03-28T12:32:11.98Z</time></trkpt><trkpt lat="43.130508979805754" lon="11.42733198089637"><ele>249.0</ele><time>2026-03-28T12:32:12.98Z</time></trkpt><trkpt lat="43.13037644786045" lon="11.42748686092244"><ele>248.0</ele><time>2026-03-28T12:32:13.98Z</time></trkpt><trkpt lat="43.13024326417164" lon="11.427644874498727"><ele>247.0</ele><time>2026-03-28T12:32:14.98Z</time></trkpt><trkpt lat="43.13010799157378" lon="11.42780557546507"><ele>247.0</ele><time>2026-03-28T12:32:15.98Z</time></trkpt><trkpt lat="43.12997382923966" lon="11.427966472876834"><ele>247.0</ele><time>2026-03-28T12:32:16.98Z</time></trkpt><trkpt lat="43.12983978566676" lon="11.428125655400688"><ele>247.0</ele><time>2026-03-28T12:32:17.98Z</time></trkpt><trkpt lat="43.129706408902045" lon="11.42828930469974"><ele>247.0</ele><time>2026-03-28T12:32:18.98Z</time></trkpt><trkpt lat="43.12959329764496" lon="11.428474304470154"><ele>247.0</ele><time>2026-03-28T12:32:19.98Z</time></trkpt><trkpt lat="43.129497389528076" lon="11.428697157907358"><ele>247.0</ele><time>2026-03-28T12:32:20.98Z</time></trkpt><trkpt lat="43.12940282051774" lon="11.42893204869699"><ele>247.0</ele><time>2026-03-28T12:32:21.98Z</time></trkpt><trkpt lat="43.1293244649438" lon="11.429199017140954"><ele>247.0</ele><time>2026-03-28T12:32:22.98Z</time></trkpt><trkpt lat="43.129243910427945" lon="11.429478331194801"><ele>247.0</ele><time>2026-03-28T12:32:23.98Z</time></trkpt><trkpt lat="43.129166651079345" lon="11.429757191097659"><ele>247.0</ele><time>2026-03-28T12:32:24.98Z</time></trkpt><trkpt lat="43.12908996559996" lon="11.430028228448169"><ele>247.0</ele><time>2026-03-28T12:32:25.98Z</time></trkpt><trkpt lat="43.12902804842044" lon="11.430308967444942"><ele>247.0</ele><time>2026-03-28T12:32:26.98Z</time></trkpt><trkpt lat="43.128942772589895" lon="11.430567489848935"><ele>250.33333333333331</ele><time>2026-03-28T12:32:27.98Z</time></trkpt><trkpt lat="43.12886624856959" lon="11.430827130430856"><ele>253.66666666666669</ele><time>2026-03-28T12:32:28.98Z</time></trkpt><trkpt lat="43.1287885290355" lon="11.431092980470279"><ele>257.0</ele><time>2026-03-28T12:32:29.98Z</time></trkpt><trkpt lat="43.12873124827466" lon="11.431347817562148"><ele>258.33333333333337</ele><time>2026-03-28T12:32:30.98Z</time></trkpt><trkpt lat="43.12868294552391" lon="11.431577784194333"><ele>259.6666666666667</ele><time>2026-03-28T12:32:31.98Z</time></trkpt><trkpt lat="43.128633604433766" lon="11.431794279291063"><ele>261.0</ele><time>2026-03-28T12:32:32.98Z</time></trkpt><trkpt lat="43.128592102893045" lon="11.432005652422832"><ele>261.0</ele><time>2026-03-28T12:32:33.98Z</time></trkpt><trkpt lat="43.12857128556233" lon="11.432193948478073"><ele>261.0</ele><time>2026-03-28T12:32:34.98Z</time></trkpt><trkpt lat="43.1285643528644" lon="11.432397222139281"><ele>261.0</ele><time>2026-03-28T12:32:35.98Z</time></trkpt><trkpt lat="43.128581056229194" lon="11.432613517217911"><ele>261.0</ele><time>2026-03-28T12:32:36.98Z</time></trkpt><trkpt lat="43.12860442467829" lon="11.432828953282838"><ele>261.3333333333333</ele><time>2026-03-28T12:32:37.98Z</time></trkpt><trkpt lat="43.12862922144761" lon="11.433061957056639"><ele>261.66666666666663</ele><time>2026-03-28T12:32:38.98Z</time></trkpt><trkpt lat="43.12865307572857" lon="11.433309125886584"><ele>262.0</ele><time>2026-03-28T12:32:39.98Z</time></trkpt><trkpt lat="43.12867400146877" lon="11.433536041834444"><ele>262.0</ele><time>2026-03-28T12:32:40.98Z</time></trkpt><trkpt lat="43.128707644759835" lon="11.433749629550585"><ele>262.0</ele><time>2026-03-28T12:32:41.98Z</time></trkpt><trkpt lat="43.128746685580666" lon="11.433943036283075"><ele>262.0</ele><time>2026-03-28T12:32:42.98Z</time></trkpt><trkpt lat="43.12881022441052" lon="11.434114661995253"><ele>262.0</ele><time>2026-03-28T12:32:43.98Z</time></trkpt><trkpt lat="43.128886478331914" lon="11.434274429444327"><ele>261.66666666666663</ele><time>2026-03-28T12:32:44.98Z</time></trkpt><trkpt lat="43.1289829428812" lon="11.434447859103315"><ele>261.3333333333333</ele><time>2026-03-28T12:32:45.98Z</time></trkpt><trkpt lat="43.12908193307877" lon="11.434631764916181"><ele>261.0</ele><time>2026-03-28T12:32:46.98Z</time></trkpt><trkpt lat="43.12918339881945" lon="11.434820357181172"><ele>259.0</ele><time>2026-03-28T12:32:47.98Z</time></trkpt><trkpt lat="43.12929505813852" lon="11.435018274791434"><ele>257.0</ele><time>2026-03-28T12:32:48.98Z</time></trkpt><trkpt lat="43.12940657122023" lon="11.435236241713776"><ele>255.0</ele><time>2026-03-28T12:32:49.98Z</time></trkpt><trkpt lat="43.1295119446901" lon="11.435454947111847"><ele>253.66666666666669</ele><time>2026-03-28T12:32:50.98Z</time></trkpt><trkpt lat="43.12962178411902" lon="11.435670744656846"><ele>252.33333333333334</ele><time>2026-03-28T12:32:51.98Z</time></trkpt><trkpt lat="43.129730740734786" lon="11.435886047210852"><ele>251.0</ele><time>2026-03-28T12:32:52.98Z</time></trkpt><trkpt lat="43.12983119173771" lon="11.436113402603668"><ele>250.0</ele><time>2026-03-28T12:32:53.98Z</time></trkpt><trkpt lat="43.12989019924722" lon="11.436371109603787"><ele>249.0</ele><time>2026-03-28T12:32:54.98Z</time></trkpt><trkpt lat="43.12994300974952" lon="11.436636913144847"><ele>248.0</ele><time>2026-03-28T12:32:55.98Z</time></trkpt><trkpt lat="43.12995928396132" lon="11.43692876347671"><ele>246.66666666666669</ele><time>2026-03-28T12:32:56.98Z</time></trkpt><trkpt lat="43.12996272647684" lon="11.43723073431284"><ele>245.33333333333331</ele><time>2026-03-28T12:32:57.98Z</time></trkpt><trkpt lat="43.1299691979792" lon="11.437532877584486"><ele>244.0</ele><time>2026-03-28T12:32:58.98Z</time></trkpt><trkpt lat="43.12996603508239" lon="11.43782345598073"><ele>245.0</ele><time>2026-03-28T12:32:59.98Z</time></trkpt><trkpt lat="43.12995651527731" lon="11.43808122325018"><ele>246.0</ele><time>2026-03-28T12:33:00.98Z</time></trkpt><trkpt lat="43.129946011327114" lon="11.438332278784417"><ele>247.0</ele><time>2026-03-28T12:33:01.98Z</time></trkpt><trkpt lat="43.12993974632369" lon="11.438590497572294"><ele>247.66666666666666</ele><time>2026-03-28T12:33:02.98Z</time></trkpt><trkpt lat="43.12995022879601" lon="11.43884930775719"><ele>248.33333333333331</ele><time>2026-03-28T12:33:03.98Z</time></trkpt><trkpt lat="43.129961895663925" lon="11.439105899491597"><ele>249.0</ele><time>2026-03-28T12:33:04.98Z</time></trkpt><trkpt lat="43.129974276534746" lon="11.439360477362149"><ele>249.0</ele><time>2026-03-28T12:33:05.98Z</time></trkpt><trkpt lat="43.12998976366547" lon="11.439607529265507"><ele>249.0</ele><time>2026-03-28T12:33:06.98Z</time></trkpt><trkpt lat="43.130018443192185" lon="11.439886744948481"><ele>249.0</ele><time>2026-03-28T12:33:07.98Z</time></trkpt><trkpt lat="43.13006182766903" lon="11.440147887155609"><ele>250.0</ele><time>2026-03-28T12:33:08.98Z</time></trkpt><trkpt lat="43.13008658300162" lon="11.440399870358926"><ele>251.0</ele><time>2026-03-28T12:33:09.98Z</time></trkpt><trkpt lat="43.13010277133292" lon="11.440643713909493"><ele>252.0</ele><time>2026-03-28T12:33:10.98Z</time></trkpt><trkpt lat="43.130110371774364" lon="11.440869019973732"><ele>252.0</ele><time>2026-03-28T12:33:11.98Z</time></trkpt><trkpt lat="43.130118458066285" lon="11.441078194990853"><ele>252.0</ele><time>2026-03-28T12:33:12.98Z</time></trkpt><trkpt lat="43.13012687186716" lon="11.441277706684993"><ele>252.0</ele><time>2026-03-28T12:33:13.98Z</time></trkpt><trkpt lat="43.13012938909273" lon="11.441468547698499"><ele>252.0</ele><time>2026-03-28T12:33:14.98Z</time></trkpt><trkpt lat="43.13011024881516" lon="11.441670766083131"><ele>252.0</ele><time>2026-03-28T12:33:15.98Z</time></trkpt><trkpt lat="43.130060612446144" lon="11.441874577381395"><ele>252.0</ele><time>2026-03-28T12:33:16.98Z</time></trkpt><trkpt lat="43.129979911862534" lon="11.442063185402915"><ele>252.0</ele><time>2026-03-28T12:33:17.98Z</time></trkpt><trkpt lat="43.12986847238129" lon="11.44223958965247"><ele>251.33333333333331</ele><time>2026-03-28T12:33:18.98Z</time></trkpt><trkpt lat="43.12973230359166" lon="11.442438730675473"><ele>250.66666666666666</ele><time>2026-03-28T12:33:19.98Z</time></trkpt><trkpt lat="43.12957765563991" lon="11.442641118368496"><ele>250.0</ele><time>2026-03-28T12:33:20.98Z</time></trkpt><trkpt lat="43.12942122890959" lon="11.442832385853436"><ele>250.0</ele><time>2026-03-28T12:33:21.98Z</time></trkpt><trkpt lat="43.129273255664096" lon="11.443011726812612"><ele>250.0</ele><time>2026-03-28T12:33:22.98Z</time></trkpt><trkpt lat="43.12913919521222" lon="11.443195772320832"><ele>250.0</ele><time>2026-03-28T12:33:23.98Z</time></trkpt><trkpt lat="43.12900443622851" lon="11.443362698038234"><ele>250.0</ele><time>2026-03-28T12:33:24.98Z</time></trkpt><trkpt lat="43.128864441700195" lon="11.443524328985"><ele>250.0</ele><time>2026-03-28T12:33:25.98Z</time></trkpt><trkpt lat="43.12872228369675" lon="11.44368088350232"><ele>250.0</ele><time>2026-03-28T12:33:26.98Z</time></trkpt><trkpt lat="43.12857739204368" lon="11.44382499094256"><ele>250.0</ele><time>2026-03-28T12:33:27.98Z</time></trkpt><trkpt lat="43.12842845494157" lon="11.443966800343524"><ele>250.0</ele><time>2026-03-28T12:33:28.98Z</time></trkpt><trkpt lat="43.12827899472782" lon="11.444106905626947"><ele>250.0</ele><time>2026-03-28T12:33:29.98Z</time></trkpt><trkpt lat="43.12813611791292" lon="11.444240066606724"><ele>248.66666666666666</ele><time>2026-03-28T12:33:30.98Z</time></trkpt><trkpt lat="43.12799897706359" lon="11.44437405388847"><ele>247.33333333333331</ele><time>2026-03-28T12:33:31.98Z</time></trkpt><trkpt lat="43.12785648042445" lon="11.444514194865416"><ele>246.0</ele><time>2026-03-28T12:33:32.98Z</time></trkpt><trkpt lat="43.127712716742465" lon="11.444652506653664"><ele>245.0</ele><time>2026-03-28T12:33:33.98Z</time></trkpt><trkpt lat="43.12757315001656" lon="11.444792895840742"><ele>244.0</ele><time>2026-03-28T12:33:34.98Z</time></trkpt><trkpt lat="43.12743573319093" lon="11.444921483016504"><ele>243.0</ele><time>2026-03-28T12:33:35.98Z</time></trkpt><trkpt lat="43.12730081638075" lon="11.445051181154165"><ele>243.0</ele><time>2026-03-28T12:33:36.98Z</time></trkpt><trkpt lat="43.12717950723309" lon="11.445198277784607"><ele>243.0</ele><time>2026-03-28T12:33:37.98Z</time></trkpt><trkpt lat="43.12708573948451" lon="11.445380268714919"><ele>243.0</ele><time>2026-03-28T12:33:38.98Z</time></trkpt><trkpt lat="43.12701648677959" lon="11.445607157075681"><ele>242.66666666666669</ele><time>2026-03-28T12:33:39.98Z</time></trkpt><trkpt lat="43.126972710213465" lon="11.445846559564258"><ele>242.33333333333334</ele><time>2026-03-28T12:33:40.98Z</time></trkpt><trkpt lat="43.126920358494424" lon="11.446059413652812"><ele>242.0</ele><time>2026-03-28T12:33:41.979Z</time></trkpt><trkpt lat="43.126846368702395" lon="11.446250345281909"><ele>240.33333333333334</ele><time>2026-03-28T12:33:42.979Z</time></trkpt><trkpt lat="43.12674878111081" lon="11.446433809115277"><ele>238.66666666666669</ele><time>2026-03-28T12:33:43.979Z</time></trkpt><trkpt lat="43.12662609956545" lon="11.446604545510926"><ele>237.0</ele><time>2026-03-28T12:33:44.979Z</time></trkpt><trkpt lat="43.126482131998536" lon="11.446765010166548"><ele>236.33333333333331</ele><time>2026-03-28T12:33:45.98Z</time></trkpt><trkpt lat="43.126327515143295" lon="11.446927113150583"><ele>235.66666666666666</ele><time>2026-03-28T12:33:46.981Z</time></trkpt><trkpt lat="43.126176337141544" lon="11.447083466209758"><ele>235.0</ele><time>2026-03-28T12:33:47.981Z</time></trkpt><trkpt lat="43.12603634178725" lon="11.447241961287316"><ele>235.0</ele><time>2026-03-28T12:33:48.98Z</time></trkpt><trkpt lat="43.12590392442874" lon="11.447389711526133"><ele>235.0</ele><time>2026-03-28T12:33:49.98Z</time></trkpt><trkpt lat="43.12577153770808" lon="11.447535888103076"><ele>235.0</ele><time>2026-03-28T12:33:50.98Z</time></trkpt><trkpt lat="43.125636036565254" lon="11.447678970742796"><ele>234.66666666666666</ele><time>2026-03-28T12:33:51.98Z</time></trkpt><trkpt lat="43.125500222640014" lon="11.447823235534429"><ele>234.33333333333331</ele><time>2026-03-28T12:33:52.98Z</time></trkpt><trkpt lat="43.12536508526815" lon="11.44796556821717"><ele>234.0</ele><time>2026-03-28T12:33:53.98Z</time></trkpt><trkpt lat="43.12523606666647" lon="11.448099208227841"><ele>235.25</ele><time>2026-03-28T12:33:54.98Z</time></trkpt><trkpt lat="43.12511704181654" lon="11.448221976851896"><ele>236.5</ele><time>2026-03-28T12:33:55.98Z</time></trkpt><trkpt lat="43.12500401721808" lon="11.448339776743264"><ele>237.75</ele><time>2026-03-28T12:33:56.98Z</time></trkpt><trkpt lat="43.124904825173985" lon="11.448462777738929"><ele>239.0</ele><time>2026-03-28T12:33:57.98Z</time></trkpt><trkpt lat="43.12481327110949" lon="11.448571337970433"><ele>239.2</ele><time>2026-03-28T12:33:58.98Z</time></trkpt><trkpt lat="43.12474136796207" lon="11.448652690286721"><ele>239.39999999999998</ele><time>2026-03-28T12:33:59.98Z</time></trkpt><trkpt lat="43.12466725734351" lon="11.448736374963147"><ele>239.6</ele><time>2026-03-28T12:34:01.98Z</time></trkpt><trkpt lat="43.12458599441641" lon="11.448846758103258"><ele>239.8</ele><time>2026-03-28T12:34:03.98Z</time></trkpt><trkpt lat="43.12450511888339" lon="11.448897607663348"><ele>240.0</ele><time>2026-03-28T12:34:04.98Z</time></trkpt><trkpt lat="43.124439308400895" lon="11.448996624038601"><ele>239.4</ele><time>2026-03-28T12:34:05.98Z</time></trkpt><trkpt lat="43.12437183378719" lon="11.449098143888932"><ele>238.8</ele><time>2026-03-28T12:34:06.98Z</time></trkpt><trkpt lat="43.12429882185688" lon="11.449181223712875"><ele>238.2</ele><time>2026-03-28T12:34:07.98Z</time></trkpt><trkpt lat="43.12421294320694" lon="11.44923207383073"><ele>237.6</ele><time>2026-03-28T12:34:08.98Z</time></trkpt><trkpt lat="43.124125686427845" lon="11.449246434420905"><ele>237.0</ele><time>2026-03-28T12:34:09.98Z</time></trkpt><trkpt lat="43.12403308015446" lon="11.449236188190884"><ele>236.25</ele><time>2026-03-28T12:34:10.98Z</time></trkpt><trkpt lat="43.12392721739289" lon="11.449223511018548"><ele>235.5</ele><time>2026-03-28T12:34:11.98Z</time></trkpt><trkpt lat="43.12381572214978" lon="11.449171341962668"><ele>234.75</ele><time>2026-03-28T12:34:12.98Z</time></trkpt><trkpt lat="43.12369986295364" lon="11.449102645481801"><ele>234.0</ele><time>2026-03-28T12:34:13.98Z</time></trkpt><trkpt lat="43.1235823181201" lon="11.449059650087356"><ele>234.0</ele><time>2026-03-28T12:34:14.98Z</time></trkpt><trkpt lat="43.12346043582659" lon="11.449016111773084"><ele>234.0</ele><time>2026-03-28T12:34:15.98Z</time></trkpt><trkpt lat="43.12334418983883" lon="11.448974284955819"><ele>234.0</ele><time>2026-03-28T12:34:16.98Z</time></trkpt><trkpt lat="43.123225701903564" lon="11.448935063899023"><ele>234.0</ele><time>2026-03-28T12:34:17.98Z</time></trkpt><trkpt lat="43.12310156783578" lon="11.448896957119716"><ele>233.25</ele><time>2026-03-28T12:34:18.98Z</time></trkpt><trkpt lat="43.12297162205306" lon="11.448857336021696"><ele>232.5</ele><time>2026-03-28T12:34:19.98Z</time></trkpt><trkpt lat="43.122843900249876" lon="11.448819133975071"><ele>231.75</ele><time>2026-03-28T12:34:20.98Z</time></trkpt><trkpt lat="43.122722897680866" lon="11.448775980958153"><ele>231.0</ele><time>2026-03-28T12:34:21.979Z</time></trkpt><trkpt lat="43.12260799909719" lon="11.448734092444571"><ele>230.75</ele><time>2026-03-28T12:34:22.979Z</time></trkpt><trkpt lat="43.122502693331406" lon="11.448694101271546"><ele>230.5</ele><time>2026-03-28T12:34:23.979Z</time></trkpt><trkpt lat="43.12239184752422" lon="11.448667399209363"><ele>230.25</ele><time>2026-03-28T12:34:24.979Z</time></trkpt><trkpt lat="43.12227012362607" lon="11.44862963350563"><ele>230.0</ele><time>2026-03-28T12:34:25.979Z</time></trkpt><trkpt lat="43.122141216211716" lon="11.448587569279379"><ele>228.5</ele><time>2026-03-28T12:34:26.979Z</time></trkpt><trkpt lat="43.12201226880345" lon="11.44854507362114"><ele>227.0</ele><time>2026-03-28T12:34:27.979Z</time></trkpt><trkpt lat="43.12188069027067" lon="11.448500300776614"><ele>225.5</ele><time>2026-03-28T12:34:28.979Z</time></trkpt><trkpt lat="43.121751447767885" lon="11.44845419622886"><ele>224.0</ele><time>2026-03-28T12:34:29.979Z</time></trkpt><trkpt lat="43.12162708351492" lon="11.448406572917158"><ele>222.25</ele><time>2026-03-28T12:34:30.979Z</time></trkpt><trkpt lat="43.12151451662544" lon="11.448343672828914"><ele>220.5</ele><time>2026-03-28T12:34:31.979Z</time></trkpt><trkpt lat="43.121422893030676" lon="11.448225364021194"><ele>218.75</ele><time>2026-03-28T12:34:32.979Z</time></trkpt><trkpt lat="43.12133880849212" lon="11.448082663629512"><ele>217.0</ele><time>2026-03-28T12:34:33.979Z</time></trkpt><trkpt lat="43.12126603737381" lon="11.4478927421696"><ele>217.0</ele><time>2026-03-28T12:34:34.979Z</time></trkpt><trkpt lat="43.12119431809005" lon="11.447686319686877"><ele>217.0</ele><time>2026-03-28T12:34:35.979Z</time></trkpt><trkpt lat="43.12112951900098" lon="11.447491716565537"><ele>217.0</ele><time>2026-03-28T12:34:36.979Z</time></trkpt><trkpt lat="43.12107109291708" lon="11.447304698571816"><ele>216.0</ele><time>2026-03-28T12:34:37.979Z</time></trkpt><trkpt lat="43.12101463498417" lon="11.447126131360964"><ele>215.0</ele><time>2026-03-28T12:34:38.979Z</time></trkpt><trkpt lat="43.120956854629554" lon="11.446952553184442"><ele>214.0</ele><time>2026-03-28T12:34:39.979Z</time></trkpt><trkpt lat="43.12090123507765" lon="11.446789262343751"><ele>213.0</ele><time>2026-03-28T12:34:40.979Z</time></trkpt><trkpt lat="43.120847947792036" lon="11.4466360796863"><ele>213.0</ele><time>2026-03-28T12:34:41.979Z</time></trkpt><trkpt lat="43.12080284494023" lon="11.446478140068715"><ele>213.0</ele><time>2026-03-28T12:34:42.979Z</time></trkpt><trkpt lat="43.12075244994839" lon="11.446321707395354"><ele>213.0</ele><time>2026-03-28T12:34:43.979Z</time></trkpt><trkpt lat="43.12071049489996" lon="11.446188375880864"><ele>213.0</ele><time>2026-03-28T12:34:44.979Z</time></trkpt><trkpt lat="43.12070249456856" lon="11.446060227393739"><ele>213.0</ele><time>2026-03-28T12:34:45.979Z</time></trkpt><trkpt lat="43.1206822013507" lon="11.445931013011567"><ele>212.60000000000002</ele><time>2026-03-28T12:34:46.979Z</time></trkpt><trkpt lat="43.12070737185597" lon="11.445786548104778"><ele>212.20000000000002</ele><time>2026-03-28T12:34:47.979Z</time></trkpt><trkpt lat="43.12074552091346" lon="11.44565359479231"><ele>211.8</ele><time>2026-03-28T12:34:48.979Z</time></trkpt><trkpt lat="43.12078974076513" lon="11.445513850264991"><ele>211.4</ele><time>2026-03-28T12:34:49.979Z</time></trkpt><trkpt lat="43.12083491870269" lon="11.445368585512643"><ele>211.0</ele><time>2026-03-28T12:34:50.979Z</time></trkpt><trkpt lat="43.1208730717984" lon="11.445224311963626"><ele>211.0</ele><time>2026-03-28T12:34:51.979Z</time></trkpt><trkpt lat="43.12089490775391" lon="11.445083346993659"><ele>211.0</ele><time>2026-03-28T12:34:52.979Z</time></trkpt><trkpt lat="43.12089634549831" lon="11.444939214237943"><ele>211.0</ele><time>2026-03-28T12:34:53.979Z</time></trkpt><trkpt lat="43.12086322958711" lon="11.444817362287221"><ele>211.0</ele><time>2026-03-28T12:34:54.979Z</time></trkpt><trkpt lat="43.120800669079244" lon="11.444700873932712"><ele>211.0</ele><time>2026-03-28T12:34:55.979Z</time></trkpt><trkpt lat="43.12071668381302" lon="11.444601192868104"><ele>208.66666666666666</ele><time>2026-03-28T12:34:56.979Z</time></trkpt><trkpt lat="43.12062075951453" lon="11.444484563341463"><ele>206.33333333333331</ele><time>2026-03-28T12:34:57.979Z</time></trkpt><trkpt lat="43.120481348307194" lon="11.444383898827759"><ele>204.0</ele><time>2026-03-28T12:34:58.979Z</time></trkpt><trkpt lat="43.120329758045074" lon="11.44428080122658"><ele>204.0</ele><time>2026-03-28T12:34:59.979Z</time></trkpt><trkpt lat="43.1201764177495" lon="11.444174217381867"><ele>204.0</ele><time>2026-03-28T12:35:00.979Z</time></trkpt><trkpt lat="43.12002867019975" lon="11.444072957754623"><ele>204.0</ele><time>2026-03-28T12:35:01.979Z</time></trkpt><trkpt lat="43.1198843881578" lon="11.443976347963883"><ele>201.33333333333331</ele><time>2026-03-28T12:35:02.979Z</time></trkpt><trkpt lat="43.119747767037964" lon="11.443885626985358"><ele>198.66666666666666</ele><time>2026-03-28T12:35:03.979Z</time></trkpt><trkpt lat="43.119607049228605" lon="11.443790569655715"><ele>196.0</ele><time>2026-03-28T12:35:04.979Z</time></trkpt><trkpt lat="43.11947294362808" lon="11.443698952292"><ele>194.75</ele><time>2026-03-28T12:35:05.979Z</time></trkpt><trkpt lat="43.119341708181075" lon="11.443603791366387"><ele>193.5</ele><time>2026-03-28T12:35:06.979Z</time></trkpt><trkpt lat="43.119212325157505" lon="11.443503008003692"><ele>192.25</ele><time>2026-03-28T12:35:07.979Z</time></trkpt><trkpt lat="43.11908189168052" lon="11.443398531655959"><ele>191.0</ele><time>2026-03-28T12:35:08.979Z</time></trkpt><trkpt lat="43.11895533975779" lon="11.443275144670123"><ele>190.0</ele><time>2026-03-28T12:35:09.979Z</time></trkpt><trkpt lat="43.11884714088623" lon="11.443138810145788"><ele>189.0</ele><time>2026-03-28T12:35:10.979Z</time></trkpt><trkpt lat="43.118747046565076" lon="11.442999006087962"><ele>188.0</ele><time>2026-03-28T12:35:11.979Z</time></trkpt><trkpt lat="43.11865767665109" lon="11.442889616056025"><ele>187.0</ele><time>2026-03-28T12:35:12.979Z</time></trkpt><trkpt lat="43.11857614593022" lon="11.442797352728789"><ele>184.8</ele><time>2026-03-28T12:35:13.979Z</time></trkpt><trkpt lat="43.11848855802967" lon="11.44270584818938"><ele>182.6</ele><time>2026-03-28T12:35:14.979Z</time></trkpt><trkpt lat="43.11840496598698" lon="11.442620155560112"><ele>180.4</ele><time>2026-03-28T12:35:15.979Z</time></trkpt><trkpt lat="43.11832043873128" lon="11.442547605879597"><ele>178.20000000000002</ele><time>2026-03-28T12:35:16.979Z</time></trkpt><trkpt lat="43.11823053294086" lon="11.4424798942186"><ele>176.0</ele><time>2026-03-28T12:35:17.979Z</time></trkpt><trkpt lat="43.11813240154303" lon="11.44241293463613"><ele>176.0</ele><time>2026-03-28T12:35:18.979Z</time></trkpt><trkpt lat="43.11804309694143" lon="11.442308870713315"><ele>176.0</ele><time>2026-03-28T12:35:19.979Z</time></trkpt><trkpt lat="43.117951393492476" lon="11.442236474883588"><ele>176.0</ele><time>2026-03-28T12:35:20.979Z</time></trkpt><trkpt lat="43.11786280612512" lon="11.442169028595337"><ele>176.0</ele><time>2026-03-28T12:35:21.979Z</time></trkpt><trkpt lat="43.117777189331925" lon="11.442110985155194"><ele>176.0</ele><time>2026-03-28T12:35:22.979Z</time></trkpt><trkpt lat="43.117696318613525" lon="11.442049217804557"><ele>173.8</ele><time>2026-03-28T12:35:23.979Z</time></trkpt><trkpt lat="43.1176145856432" lon="11.44200704454874"><ele>171.60000000000002</ele><time>2026-03-28T12:35:24.979Z</time></trkpt><trkpt lat="43.11752801174387" lon="11.44193823598569"><ele>169.4</ele><time>2026-03-28T12:35:25.979Z</time></trkpt><trkpt lat="43.11741985190778" lon="11.44194287738833"><ele>167.2</ele><time>2026-03-28T12:35:26.979Z</time></trkpt><trkpt lat="43.11731206235771" lon="11.441973157016761"><ele>165.0</ele><time>2026-03-28T12:35:27.979Z</time></trkpt><trkpt lat="43.11719422941782" lon="11.44201287656103"><ele>165.6</ele><time>2026-03-28T12:35:28.979Z</time></trkpt><trkpt lat="43.11708494875017" lon="11.442088992350078"><ele>166.2</ele><time>2026-03-28T12:35:29.979Z</time></trkpt><trkpt lat="43.11698347000347" lon="11.442148436830218"><ele>166.8</ele><time>2026-03-28T12:35:30.979Z</time></trkpt><trkpt lat="43.11688459733552" lon="11.44220200340433"><ele>167.4</ele><time>2026-03-28T12:35:31.979Z</time></trkpt><trkpt lat="43.11680054698035" lon="11.442242610958276"><ele>168.0</ele><time>2026-03-28T12:35:32.979Z</time></trkpt><trkpt lat="43.116722296479" lon="11.442258128880843"><ele>168.0</ele><time>2026-03-28T12:35:33.979Z</time></trkpt><trkpt lat="43.11663932647375" lon="11.442250207042216"><ele>168.0</ele><time>2026-03-28T12:35:34.979Z</time></trkpt><trkpt lat="43.116555484026236" lon="11.442227452825083"><ele>168.0</ele><time>2026-03-28T12:35:35.979Z</time></trkpt><trkpt lat="43.11647227832569" lon="11.442158831074263"><ele>168.0</ele><time>2026-03-28T12:35:36.979Z</time></trkpt><trkpt lat="43.11640222855326" lon="11.442061038235632"><ele>168.0</ele><time>2026-03-28T12:35:37.979Z</time></trkpt><trkpt lat="43.11628913887708" lon="11.44193603091128"><ele>165.0</ele><time>2026-03-28T12:35:38.979Z</time></trkpt><trkpt lat="43.11618554807813" lon="11.441759564297723"><ele>162.0</ele><time>2026-03-28T12:35:39.979Z</time></trkpt><trkpt lat="43.11605853786114" lon="11.441615629182932"><ele>159.0</ele><time>2026-03-28T12:35:40.979Z</time></trkpt><trkpt lat="43.11595115430042" lon="11.44148915882615"><ele>159.0</ele><time>2026-03-28T12:35:41.979Z</time></trkpt><trkpt lat="43.115851623360626" lon="11.441382329522927"><ele>159.0</ele><time>2026-03-28T12:35:42.979Z</time></trkpt><trkpt lat="43.11575899297636" lon="11.441292241408975"><ele>159.0</ele><time>2026-03-28T12:35:43.979Z</time></trkpt><trkpt lat="43.115680200361766" lon="11.441220354674332"><ele>159.0</ele><time>2026-03-28T12:35:44.979Z</time></trkpt><trkpt lat="43.115602012276725" lon="11.441185294323908"><ele>159.0</ele><time>2026-03-28T12:35:45.979Z</time></trkpt><trkpt lat="43.11551370676236" lon="11.44117965888239"><ele>156.0</ele><time>2026-03-28T12:35:46.979Z</time></trkpt><trkpt lat="43.11540902567615" lon="11.441204577181184"><ele>153.0</ele><time>2026-03-28T12:35:47.979Z</time></trkpt><trkpt lat="43.115291539015296" lon="11.441242523602302"><ele>150.0</ele><time>2026-03-28T12:35:48.979Z</time></trkpt><trkpt lat="43.11514983963841" lon="11.441243049392215"><ele>147.0</ele><time>2026-03-28T12:35:49.979Z</time></trkpt><trkpt lat="43.11500847727947" lon="11.441273589911138"><ele>145.33333333333334</ele><time>2026-03-28T12:35:50.979Z</time></trkpt><trkpt lat="43.114852982532554" lon="11.441292513094332"><ele>143.66666666666669</ele><time>2026-03-28T12:35:51.979Z</time></trkpt><trkpt lat="43.11468989946908" lon="11.441303705327087"><ele>142.0</ele><time>2026-03-28T12:35:52.979Z</time></trkpt><trkpt lat="43.114524152880726" lon="11.441311865799486"><ele>141.66666666666669</ele><time>2026-03-28T12:35:53.979Z</time></trkpt><trkpt lat="43.11436576807129" lon="11.441323855449326"><ele>141.33333333333334</ele><time>2026-03-28T12:35:54.979Z</time></trkpt><trkpt lat="43.11420565343107" lon="11.441344595920707"><ele>141.0</ele><time>2026-03-28T12:35:55.98Z</time></trkpt><trkpt lat="43.11404901501455" lon="11.441361929960488"><ele>140.25</ele><time>2026-03-28T12:35:56.98Z</time></trkpt><trkpt lat="43.113900995630196" lon="11.441376687592262"><ele>139.5</ele><time>2026-03-28T12:35:57.979Z</time></trkpt><trkpt lat="43.1137598782679" lon="11.441390434454746"><ele>138.75</ele><time>2026-03-28T12:35:58.98Z</time></trkpt><trkpt lat="43.11362002489905" lon="11.441408662944946"><ele>138.0</ele><time>2026-03-28T12:35:59.98Z</time></trkpt><trkpt lat="43.113476079074076" lon="11.441425705481219"><ele>138.0</ele><time>2026-03-28T12:36:00.979Z</time></trkpt><trkpt lat="43.11332906950305" lon="11.441441390932942"><ele>138.0</ele><time>2026-03-28T12:36:01.98Z</time></trkpt><trkpt lat="43.11317579478937" lon="11.441455048649987"><ele>138.0</ele><time>2026-03-28T12:36:02.98Z</time></trkpt><trkpt lat="43.11301650312583" lon="11.441468308086955"><ele>137.66666666666666</ele><time>2026-03-28T12:36:03.98Z</time></trkpt><trkpt lat="43.11285187326181" lon="11.441483002781904"><ele>137.33333333333331</ele><time>2026-03-28T12:36:04.979Z</time></trkpt><trkpt lat="43.112683439848574" lon="11.441500654102231"><ele>137.0</ele><time>2026-03-28T12:36:05.979Z</time></trkpt><trkpt lat="43.11250851604603" lon="11.441518016040261"><ele>136.66666666666666</ele><time>2026-03-28T12:36:06.979Z</time></trkpt><trkpt lat="43.11234046448374" lon="11.441535541893746"><ele>136.33333333333334</ele><time>2026-03-28T12:36:07.979Z</time></trkpt><trkpt lat="43.11218020078824" lon="11.441552573453624"><ele>136.0</ele><time>2026-03-28T12:36:08.979Z</time></trkpt><trkpt lat="43.11201719017877" lon="11.44157271855095"><ele>136.0</ele><time>2026-03-28T12:36:09.979Z</time></trkpt><trkpt lat="43.11186226718741" lon="11.441589106853181"><ele>136.0</ele><time>2026-03-28T12:36:10.979Z</time></trkpt><trkpt lat="43.11171966125923" lon="11.441575758730332"><ele>136.0</ele><time>2026-03-28T12:36:11.979Z</time></trkpt><trkpt lat="43.111589592488784" lon="11.441587506299099"><ele>136.0</ele><time>2026-03-28T12:36:12.979Z</time></trkpt><trkpt lat="43.111468657312436" lon="11.44160277971318"><ele>135.75</ele><time>2026-03-28T12:36:13.979Z</time></trkpt><trkpt lat="43.111329872479644" lon="11.441635724669638"><ele>135.5</ele><time>2026-03-28T12:36:14.979Z</time></trkpt><trkpt lat="43.1111889412043" lon="11.441655028122206"><ele>135.25</ele><time>2026-03-28T12:36:15.979Z</time></trkpt><trkpt lat="43.11104850247853" lon="11.44167753215135"><ele>135.0</ele><time>2026-03-28T12:36:16.979Z</time></trkpt><trkpt lat="43.11090442114309" lon="11.44169902910816"><ele>135.0</ele><time>2026-03-28T12:36:17.979Z</time></trkpt><trkpt lat="43.11076001794394" lon="11.441707895684381"><ele>135.0</ele><time>2026-03-28T12:36:18.979Z</time></trkpt><trkpt lat="43.11060901655718" lon="11.441712985035275"><ele>135.0</ele><time>2026-03-28T12:36:19.979Z</time></trkpt><trkpt lat="43.110453033634414" lon="11.441718524265822"><ele>134.33333333333334</ele><time>2026-03-28T12:36:20.979Z</time></trkpt><trkpt lat="43.11029653536106" lon="11.441734630866256"><ele>133.66666666666669</ele><time>2026-03-28T12:36:21.979Z</time></trkpt><trkpt lat="43.11013781041371" lon="11.441770873427599"><ele>133.0</ele><time>2026-03-28T12:36:22.979Z</time></trkpt><trkpt lat="43.10996902247904" lon="11.441802901859285"><ele>133.0</ele><time>2026-03-28T12:36:23.979Z</time></trkpt><trkpt lat="43.10981113655709" lon="11.441890698793546"><ele>133.0</ele><time>2026-03-28T12:36:24.979Z</time></trkpt><trkpt lat="43.109643122348906" lon="11.441958178312252"><ele>133.0</ele><time>2026-03-28T12:36:25.979Z</time></trkpt><trkpt lat="43.10947372426051" lon="11.442033290462378"><ele>133.0</ele><time>2026-03-28T12:36:26.979Z</time></trkpt><trkpt lat="43.10930237451042" lon="11.442100904890863"><ele>133.0</ele><time>2026-03-28T12:36:27.979Z</time></trkpt><trkpt lat="43.10912406124677" lon="11.442156218171746"><ele>133.0</ele><time>2026-03-28T12:36:28.979Z</time></trkpt><trkpt lat="43.10895093097079" lon="11.442201669400921"><ele>133.0</ele><time>2026-03-28T12:36:29.979Z</time></trkpt><trkpt lat="43.10877983203933" lon="11.442244483895218"><ele>133.0</ele><time>2026-03-28T12:36:30.979Z</time></trkpt><trkpt lat="43.10861121860863" lon="11.442279867573843"><ele>133.0</ele><time>2026-03-28T12:36:31.979Z</time></trkpt><trkpt lat="43.10843966473209" lon="11.442316526079875"><ele>133.0</ele><time>2026-03-28T12:36:32.979Z</time></trkpt><trkpt lat="43.108270574567555" lon="11.442349963797177"><ele>133.0</ele><time>2026-03-28T12:36:33.979Z</time></trkpt><trkpt lat="43.10811167000897" lon="11.442379492160276"><ele>133.0</ele><time>2026-03-28T12:36:34.979Z</time></trkpt><trkpt lat="43.10796192558359" lon="11.442409909296801"><ele>133.25</ele><time>2026-03-28T12:36:35.979Z</time></trkpt><trkpt lat="43.10783368347654" lon="11.442441672123609"><ele>133.5</ele><time>2026-03-28T12:36:36.979Z</time></trkpt><trkpt lat="43.10772921739221" lon="11.442461946833658"><ele>133.75</ele><time>2026-03-28T12:36:37.979Z</time></trkpt><trkpt lat="43.107624397629316" lon="11.442467798713292"><ele>134.0</ele><time>2026-03-28T12:36:38.979Z</time></trkpt><trkpt lat="43.107508299420424" lon="11.442442839859217"><ele>133.25</ele><time>2026-03-28T12:36:39.979Z</time></trkpt><trkpt lat="43.107404726194275" lon="11.442356428845317"><ele>132.5</ele><time>2026-03-28T12:36:40.979Z</time></trkpt><trkpt lat="43.10731216533091" lon="11.44224923080732"><ele>131.75</ele><time>2026-03-28T12:36:41.979Z</time></trkpt><trkpt lat="43.10723365518098" lon="11.442115680214165"><ele>131.0</ele><time>2026-03-28T12:36:42.979Z</time></trkpt><trkpt lat="43.10714513482898" lon="11.44198478542001"><ele>131.0</ele><time>2026-03-28T12:36:43.979Z</time></trkpt><trkpt lat="43.10704420534642" lon="11.441868327347374"><ele>131.0</ele><time>2026-03-28T12:36:44.979Z</time></trkpt><trkpt lat="43.10696051810429" lon="11.44173097146112"><ele>131.0</ele><time>2026-03-28T12:36:45.979Z</time></trkpt><trkpt lat="43.10686559260123" lon="11.441614722178512"><ele>131.0</ele><time>2026-03-28T12:36:46.979Z</time></trkpt><trkpt lat="43.1067802032149" lon="11.441482507360133"><ele>131.0</ele><time>2026-03-28T12:36:47.979Z</time></trkpt><trkpt lat="43.10668701441865" lon="11.441360804723297"><ele>131.0</ele><time>2026-03-28T12:36:48.979Z</time></trkpt><trkpt lat="43.10659470754022" lon="11.441236947385141"><ele>131.0</ele><time>2026-03-28T12:36:49.979Z</time></trkpt><trkpt lat="43.10651241945778" lon="11.441096770141666"><ele>131.0</ele><time>2026-03-28T12:36:50.979Z</time></trkpt><trkpt lat="43.10641527309101" lon="11.44096641220226"><ele>131.0</ele><time>2026-03-28T12:36:51.979Z</time></trkpt><trkpt lat="43.106320671838965" lon="11.440829521645144"><ele>131.0</ele><time>2026-03-28T12:36:52.979Z</time></trkpt><trkpt lat="43.106224988807156" lon="11.44068457894028"><ele>131.0</ele><time>2026-03-28T12:36:53.979Z</time></trkpt><trkpt lat="43.10612090865328" lon="11.440527557738767"><ele>131.0</ele><time>2026-03-28T12:36:54.979Z</time></trkpt><trkpt lat="43.106005837551315" lon="11.440365976738542"><ele>131.0</ele><time>2026-03-28T12:36:55.979Z</time></trkpt><trkpt lat="43.105886108734936" lon="11.440202822730946"><ele>131.0</ele><time>2026-03-28T12:36:56.979Z</time></trkpt><trkpt lat="43.10576501654737" lon="11.440048932701783"><ele>131.0</ele><time>2026-03-28T12:36:57.979Z</time></trkpt><trkpt lat="43.10564654975039" lon="11.439906731641106"><ele>130.75</ele><time>2026-03-28T12:36:58.979Z</time></trkpt><trkpt lat="43.10553464519893" lon="11.439768012351594"><ele>130.5</ele><time>2026-03-28T12:36:59.979Z</time></trkpt><trkpt lat="43.10542768016918" lon="11.439636970317048"><ele>130.25</ele><time>2026-03-28T12:37:00.979Z</time></trkpt><trkpt lat="43.105322288456705" lon="11.43949271476523"><ele>130.0</ele><time>2026-03-28T12:37:01.979Z</time></trkpt><trkpt lat="43.105228896649386" lon="11.439339290846988"><ele>129.75</ele><time>2026-03-28T12:37:02.979Z</time></trkpt><trkpt lat="43.105137709398754" lon="11.439177117601234"><ele>129.5</ele><time>2026-03-28T12:37:03.979Z</time></trkpt><trkpt lat="43.10504428383835" lon="11.43901622345531"><ele>129.25</ele><time>2026-03-28T12:37:04.979Z</time></trkpt><trkpt lat="43.10495113463291" lon="11.438860630814554"><ele>129.0</ele><time>2026-03-28T12:37:05.979Z</time></trkpt><trkpt lat="43.104853193284725" lon="11.43870748181009"><ele>129.66666666666666</ele><time>2026-03-28T12:37:06.979Z</time></trkpt><trkpt lat="43.10474789259081" lon="11.438553226796028"><ele>130.33333333333331</ele><time>2026-03-28T12:37:07.979Z</time></trkpt><trkpt lat="43.1046333944225" lon="11.438400785925785"><ele>131.0</ele><time>2026-03-28T12:37:08.978Z</time></trkpt><trkpt lat="43.104513515230956" lon="11.438236457214568"><ele>131.0</ele><time>2026-03-28T12:37:09.978Z</time></trkpt><trkpt lat="43.10439388495677" lon="11.438077017065384"><ele>131.0</ele><time>2026-03-28T12:37:10.978Z</time></trkpt><trkpt lat="43.10428241531301" lon="11.43793115805292"><ele>131.0</ele><time>2026-03-28T12:37:11.978Z</time></trkpt><trkpt lat="43.104186885833" lon="11.437795808497613"><ele>131.0</ele><time>2026-03-28T12:37:12.978Z</time></trkpt><trkpt lat="43.104098806374836" lon="11.437671777401908"><ele>131.0</ele><time>2026-03-28T12:37:13.978Z</time></trkpt><trkpt lat="43.10401725427836" lon="11.437555722411712"><ele>131.0</ele><time>2026-03-28T12:37:14.978Z</time></trkpt><trkpt lat="43.10394621475632" lon="11.437451887262542"><ele>131.0</ele><time>2026-03-28T12:37:15.978Z</time></trkpt><trkpt lat="43.10387050431774" lon="11.437347339686971"><ele>131.2</ele><time>2026-03-28T12:37:16.978Z</time></trkpt><trkpt lat="43.10379450103941" lon="11.437245046790766"><ele>131.39999999999998</ele><time>2026-03-28T12:37:17.978Z</time></trkpt><trkpt lat="43.10371576746964" lon="11.437142361542254"><ele>131.6</ele><time>2026-03-28T12:37:18.978Z</time></trkpt><trkpt lat="43.103648981084085" lon="11.437024025878724"><ele>131.79999999999998</ele><time>2026-03-28T12:37:19.978Z</time></trkpt><trkpt lat="43.103568379433206" lon="11.436913946195082"><ele>132.0</ele><time>2026-03-28T12:37:20.978Z</time></trkpt><trkpt lat="43.103487754277864" lon="11.436801704480576"><ele>132.4</ele><time>2026-03-28T12:37:21.978Z</time></trkpt><trkpt lat="43.1034092887072" lon="11.436692809163045"><ele>132.79999999999998</ele><time>2026-03-28T12:37:22.978Z</time></trkpt><trkpt lat="43.10333235370906" lon="11.43658298133919"><ele>133.2</ele><time>2026-03-28T12:37:23.978Z</time></trkpt><trkpt lat="43.103259983154366" lon="11.436469867544224"><ele>133.6</ele><time>2026-03-28T12:37:24.978Z</time></trkpt><trkpt lat="43.103180550460486" lon="11.436358845323621"><ele>134.0</ele><time>2026-03-28T12:37:25.978Z</time></trkpt><trkpt lat="43.103091543190715" lon="11.436242800720136"><ele>134.5</ele><time>2026-03-28T12:37:26.978Z</time></trkpt><trkpt lat="43.10299895677019" lon="11.436122821007482"><ele>135.0</ele><time>2026-03-28T12:37:27.978Z</time></trkpt><trkpt lat="43.10290834577318" lon="11.43600140701217"><ele>135.5</ele><time>2026-03-28T12:37:28.978Z</time></trkpt><trkpt lat="43.1028161645816" lon="11.435874590230267"><ele>136.0</ele><time>2026-03-28T12:37:29.978Z</time></trkpt><trkpt lat="43.102721547784334" lon="11.435742306355435"><ele>136.0</ele><time>2026-03-28T12:37:30.978Z</time></trkpt><trkpt lat="43.10262678574631" lon="11.43560893525452"><ele>136.0</ele><time>2026-03-28T12:37:31.978Z</time></trkpt><trkpt lat="43.10253446442252" lon="11.43547766563119"><ele>136.0</ele><time>2026-03-28T12:37:32.978Z</time></trkpt><trkpt lat="43.102442437604005" lon="11.435342139172795"><ele>136.0</ele><time>2026-03-28T12:37:33.978Z</time></trkpt><trkpt lat="43.10236702811486" lon="11.435215611743663"><ele>136.6</ele><time>2026-03-28T12:37:34.978Z</time></trkpt><trkpt lat="43.10230266857501" lon="11.435095546090823"><ele>137.2</ele><time>2026-03-28T12:37:35.978Z</time></trkpt><trkpt lat="43.10224589665496" lon="11.434977596127993"><ele>137.8</ele><time>2026-03-28T12:37:36.978Z</time></trkpt><trkpt lat="43.102200850210245" lon="11.43484407260961"><ele>138.4</ele><time>2026-03-28T12:37:37.978Z</time></trkpt><trkpt lat="43.102202093907145" lon="11.434692096204499"><ele>139.0</ele><time>2026-03-28T12:37:38.978Z</time></trkpt><trkpt lat="43.102210022717756" lon="11.43453547833316"><ele>140.5</ele><time>2026-03-28T12:37:39.978Z</time></trkpt><trkpt lat="43.102237633736706" lon="11.434373649685147"><ele>142.0</ele><time>2026-03-28T12:37:40.978Z</time></trkpt><trkpt lat="43.102263734737036" lon="11.434186150944164"><ele>143.5</ele><time>2026-03-28T12:37:41.978Z</time></trkpt><trkpt lat="43.102295650115835" lon="11.434015212538425"><ele>145.0</ele><time>2026-03-28T12:37:42.978Z</time></trkpt><trkpt lat="43.10232215163511" lon="11.43385614284766"><ele>146.25</ele><time>2026-03-28T12:37:43.978Z</time></trkpt><trkpt lat="43.10234337104904" lon="11.433702430449374"><ele>147.5</ele><time>2026-03-28T12:37:44.978Z</time></trkpt><trkpt lat="43.102348260729784" lon="11.43354881067171"><ele>148.75</ele><time>2026-03-28T12:37:45.978Z</time></trkpt><trkpt lat="43.10234097793605" lon="11.433390952067485"><ele>150.0</ele><time>2026-03-28T12:37:46.978Z</time></trkpt><trkpt lat="43.102327126307486" lon="11.433228262615737"><ele>150.0</ele><time>2026-03-28T12:37:47.978Z</time></trkpt><trkpt lat="43.10229414991303" lon="11.43306595646254"><ele>150.0</ele><time>2026-03-28T12:37:48.978Z</time></trkpt><trkpt lat="43.102263947970656" lon="11.432925874499423"><ele>150.0</ele><time>2026-03-28T12:37:49.978Z</time></trkpt><trkpt lat="43.10222964552484" lon="11.432795465958106"><ele>150.0</ele><time>2026-03-28T12:37:50.978Z</time></trkpt><trkpt lat="43.102154231064034" lon="11.43268929821464"><ele>150.0</ele><time>2026-03-28T12:37:51.978Z</time></trkpt><trkpt lat="43.1020804586367" lon="11.432597672863254"><ele>149.0</ele><time>2026-03-28T12:37:52.978Z</time></trkpt><trkpt lat="43.10198698921355" lon="11.432509657390177"><ele>148.0</ele><time>2026-03-28T12:37:53.978Z</time></trkpt><trkpt lat="43.1018735972934" lon="11.432465622940414"><ele>147.0</ele><time>2026-03-28T12:37:54.978Z</time></trkpt><trkpt lat="43.10175464512206" lon="11.432445461157702"><ele>146.0</ele><time>2026-03-28T12:37:55.978Z</time></trkpt><trkpt lat="43.10164138527554" lon="11.432425751077748"><ele>147.5</ele><time>2026-03-28T12:37:56.978Z</time></trkpt><trkpt lat="43.101516998080065" lon="11.432411560047893"><ele>149.0</ele><time>2026-03-28T12:37:57.979Z</time></trkpt><trkpt lat="43.10138750689523" lon="11.43239796132085"><ele>150.5</ele><time>2026-03-28T12:37:58.979Z</time></trkpt><trkpt lat="43.101266585457296" lon="11.432387315150331"><ele>152.0</ele><time>2026-03-28T12:37:59.979Z</time></trkpt><trkpt lat="43.101151872586975" lon="11.432377383303766"><ele>152.0</ele><time>2026-03-28T12:38:00.979Z</time></trkpt><trkpt lat="43.101024695166664" lon="11.432366505594702"><ele>152.0</ele><time>2026-03-28T12:38:01.979Z</time></trkpt><trkpt lat="43.100907021919255" lon="11.432379432331118"><ele>152.0</ele><time>2026-03-28T12:38:02.979Z</time></trkpt><trkpt lat="43.10078395817497" lon="11.432353399639505"><ele>152.0</ele><time>2026-03-28T12:38:03.979Z</time></trkpt><trkpt lat="43.10066659366213" lon="11.432348213980486"><ele>153.5</ele><time>2026-03-28T12:38:04.979Z</time></trkpt><trkpt lat="43.100543183383465" lon="11.432338604751044"><ele>155.0</ele><time>2026-03-28T12:38:05.979Z</time></trkpt><trkpt lat="43.10040759236496" lon="11.4323294012458"><ele>156.5</ele><time>2026-03-28T12:38:06.979Z</time></trkpt><trkpt lat="43.10028820232957" lon="11.432315371320724"><ele>158.0</ele><time>2026-03-28T12:38:07.979Z</time></trkpt><trkpt lat="43.100164131641236" lon="11.432302628697448"><ele>158.0</ele><time>2026-03-28T12:38:08.979Z</time></trkpt><trkpt lat="43.100040734286786" lon="11.432291442223995"><ele>158.0</ele><time>2026-03-28T12:38:09.979Z</time></trkpt><trkpt lat="43.09991781803597" lon="11.432265444117709"><ele>158.0</ele><time>2026-03-28T12:38:10.979Z</time></trkpt><trkpt lat="43.09978272669515" lon="11.432258343408556"><ele>158.0</ele><time>2026-03-28T12:38:11.979Z</time></trkpt><trkpt lat="43.09965517841589" lon="11.432245869101918"><ele>158.75</ele><time>2026-03-28T12:38:12.979Z</time></trkpt><trkpt lat="43.09953039920758" lon="11.432238199764813"><ele>159.5</ele><time>2026-03-28T12:38:13.979Z</time></trkpt><trkpt lat="43.09940680235349" lon="11.432229288508688"><ele>160.25</ele><time>2026-03-28T12:38:14.979Z</time></trkpt><trkpt lat="43.09928251877424" lon="11.43221646769856"><ele>161.0</ele><time>2026-03-28T12:38:15.979Z</time></trkpt><trkpt lat="43.09916275432728" lon="11.432207428157637"><ele>160.0</ele><time>2026-03-28T12:38:16.979Z</time></trkpt><trkpt lat="43.09903521677781" lon="11.432201047922291"><ele>159.0</ele><time>2026-03-28T12:38:17.979Z</time></trkpt><trkpt lat="43.098919895968734" lon="11.432171227708777"><ele>158.0</ele><time>2026-03-28T12:38:18.979Z</time></trkpt><trkpt lat="43.09879561856812" lon="11.432151294573636"><ele>157.0</ele><time>2026-03-28T12:38:19.979Z</time></trkpt><trkpt lat="43.09866375304966" lon="11.43211530803842"><ele>158.5</ele><time>2026-03-28T12:38:20.979Z</time></trkpt><trkpt lat="43.09855440413075" lon="11.432055385313086"><ele>160.0</ele><time>2026-03-28T12:38:21.979Z</time></trkpt><trkpt lat="43.09843333133652" lon="11.431965440985357"><ele>161.5</ele><time>2026-03-28T12:38:22.979Z</time></trkpt><trkpt lat="43.09831113670279" lon="11.431863234156173"><ele>163.0</ele><time>2026-03-28T12:38:23.979Z</time></trkpt><trkpt lat="43.098195761783956" lon="11.43176296070634"><ele>163.0</ele><time>2026-03-28T12:38:24.979Z</time></trkpt><trkpt lat="43.09809909493882" lon="11.431678946537984"><ele>163.0</ele><time>2026-03-28T12:38:25.979Z</time></trkpt><trkpt lat="43.098003324510174" lon="11.431599641969585"><ele>163.0</ele><time>2026-03-28T12:38:26.979Z</time></trkpt><trkpt lat="43.09789699687075" lon="11.431515360270563"><ele>163.0</ele><time>2026-03-28T12:38:27.979Z</time></trkpt><trkpt lat="43.09780068368713" lon="11.431438643871934"><ele>163.0</ele><time>2026-03-28T12:38:28.979Z</time></trkpt><trkpt lat="43.0977010347782" lon="11.431356494612483"><ele>163.0</ele><time>2026-03-28T12:38:29.979Z</time></trkpt><trkpt lat="43.09760476134353" lon="11.431274249650615"><ele>163.0</ele><time>2026-03-28T12:38:30.979Z</time></trkpt><trkpt lat="43.0975093493353" lon="11.431190277188303"><ele>163.0</ele><time>2026-03-28T12:38:31.979Z</time></trkpt><trkpt lat="43.09741191510226" lon="11.431103881702917"><ele>164.0</ele><time>2026-03-28T12:38:32.979Z</time></trkpt><trkpt lat="43.097302421149074" lon="11.431013389175929"><ele>165.0</ele><time>2026-03-28T12:38:33.979Z</time></trkpt><trkpt lat="43.09718613520571" lon="11.430935791582971"><ele>166.0</ele><time>2026-03-28T12:38:34.979Z</time></trkpt><trkpt lat="43.09707646730016" lon="11.430849237949655"><ele>167.0</ele><time>2026-03-28T12:38:35.979Z</time></trkpt><trkpt lat="43.09696905067332" lon="11.430769777022634"><ele>167.0</ele><time>2026-03-28T12:38:36.979Z</time></trkpt><trkpt lat="43.09686924196109" lon="11.43069660535226"><ele>167.0</ele><time>2026-03-28T12:38:37.979Z</time></trkpt><trkpt lat="43.0967836168749" lon="11.430583274340448"><ele>167.0</ele><time>2026-03-28T12:38:38.979Z</time></trkpt><trkpt lat="43.09668628340262" lon="11.430478715736001"><ele>167.0</ele><time>2026-03-28T12:38:39.979Z</time></trkpt><trkpt lat="43.09658935835639" lon="11.430377643674422"><ele>168.0</ele><time>2026-03-28T12:38:40.979Z</time></trkpt><trkpt lat="43.09650141038684" lon="11.430261395029099"><ele>169.0</ele><time>2026-03-28T12:38:41.979Z</time></trkpt><trkpt lat="43.096409277934214" lon="11.43013933801011"><ele>170.0</ele><time>2026-03-28T12:38:42.979Z</time></trkpt><trkpt lat="43.096313597555074" lon="11.430020600688794"><ele>171.0</ele><time>2026-03-28T12:38:43.979Z</time></trkpt><trkpt lat="43.09622573938912" lon="11.429899757811445"><ele>171.0</ele><time>2026-03-28T12:38:44.979Z</time></trkpt><trkpt lat="43.09612814407207" lon="11.429785807442684"><ele>171.0</ele><time>2026-03-28T12:38:45.979Z</time></trkpt><trkpt lat="43.09602810159457" lon="11.429676961644962"><ele>171.0</ele><time>2026-03-28T12:38:46.979Z</time></trkpt><trkpt lat="43.0959362072529" lon="11.429562461763384"><ele>171.0</ele><time>2026-03-28T12:38:47.979Z</time></trkpt><trkpt lat="43.09582859522905" lon="11.429486003030568"><ele>173.0</ele><time>2026-03-28T12:38:48.979Z</time></trkpt><trkpt lat="43.095704313121445" lon="11.429405356730596"><ele>175.0</ele><time>2026-03-28T12:38:49.979Z</time></trkpt><trkpt lat="43.09558190550306" lon="11.429334195146266"><ele>177.0</ele><time>2026-03-28T12:38:50.979Z</time></trkpt><trkpt lat="43.095469611497094" lon="11.429248947985206"><ele>179.0</ele><time>2026-03-28T12:38:51.979Z</time></trkpt><trkpt lat="43.09534943414719" lon="11.429157014928949"><ele>179.0</ele><time>2026-03-28T12:38:52.979Z</time></trkpt><trkpt lat="43.09521665818338" lon="11.429062005059874"><ele>179.0</ele><time>2026-03-28T12:38:53.979Z</time></trkpt><trkpt lat="43.095094826994256" lon="11.428972657476708"><ele>179.0</ele><time>2026-03-28T12:38:54.979Z</time></trkpt><trkpt lat="43.09497866522845" lon="11.428885963442553"><ele>179.0</ele><time>2026-03-28T12:38:55.979Z</time></trkpt><trkpt lat="43.09486333160264" lon="11.428806961822222"><ele>180.75</ele><time>2026-03-28T12:38:56.979Z</time></trkpt><trkpt lat="43.09474632600942" lon="11.428717205500366"><ele>182.5</ele><time>2026-03-28T12:38:57.979Z</time></trkpt><trkpt lat="43.094621574191684" lon="11.42863278836617"><ele>184.25</ele><time>2026-03-28T12:38:58.979Z</time></trkpt><trkpt lat="43.094505897565895" lon="11.428551532471731"><ele>186.0</ele><time>2026-03-28T12:38:59.979Z</time></trkpt><trkpt lat="43.09439843507056" lon="11.428480705866418"><ele>186.0</ele><time>2026-03-28T12:39:00.979Z</time></trkpt><trkpt lat="43.094290032394824" lon="11.428403899037004"><ele>186.0</ele><time>2026-03-28T12:39:01.979Z</time></trkpt><trkpt lat="43.09417985699281" lon="11.428328530801998"><ele>186.0</ele><time>2026-03-28T12:39:02.979Z</time></trkpt><trkpt lat="43.094083114031136" lon="11.428232168884053"><ele>186.0</ele><time>2026-03-28T12:39:03.979Z</time></trkpt><trkpt lat="43.093971918803966" lon="11.428176625807232"><ele>186.5</ele><time>2026-03-28T12:39:04.979Z</time></trkpt><trkpt lat="43.09387275961246" lon="11.428081660320549"><ele>187.0</ele><time>2026-03-28T12:39:05.979Z</time></trkpt><trkpt lat="43.093764735407746" lon="11.428006084175705"><ele>187.5</ele><time>2026-03-28T12:39:06.979Z</time></trkpt><trkpt lat="43.093661035468564" lon="11.427941788737588"><ele>188.0</ele><time>2026-03-28T12:39:07.979Z</time></trkpt><trkpt lat="43.093564896967884" lon="11.427869467669671"><ele>188.75</ele><time>2026-03-28T12:39:08.979Z</time></trkpt><trkpt lat="43.093462480011155" lon="11.427794239336619"><ele>189.5</ele><time>2026-03-28T12:39:09.979Z</time></trkpt><trkpt lat="43.093360756938324" lon="11.427725742760298"><ele>190.25</ele><time>2026-03-28T12:39:10.979Z</time></trkpt><trkpt lat="43.093256625608504" lon="11.427652128074515"><ele>191.0</ele><time>2026-03-28T12:39:11.979Z</time></trkpt><trkpt lat="43.09315728779927" lon="11.427580869361826"><ele>191.75</ele><time>2026-03-28T12:39:12.979Z</time></trkpt><trkpt lat="43.093054011650295" lon="11.427507287860706"><ele>192.5</ele><time>2026-03-28T12:39:13.979Z</time></trkpt><trkpt lat="43.09295208365781" lon="11.427434035042499"><ele>193.25</ele><time>2026-03-28T12:39:14.979Z</time></trkpt><trkpt lat="43.09285866187431" lon="11.427349190452631"><ele>194.0</ele><time>2026-03-28T12:39:15.979Z</time></trkpt><trkpt lat="43.092755030652796" lon="11.427272806380271"><ele>194.0</ele><time>2026-03-28T12:39:16.979Z</time></trkpt><trkpt lat="43.09264824286628" lon="11.42719744619907"><ele>194.0</ele><time>2026-03-28T12:39:17.979Z</time></trkpt><trkpt lat="43.09253734989423" lon="11.427125598369047"><ele>194.0</ele><time>2026-03-28T12:39:18.979Z</time></trkpt><trkpt lat="43.092428623406136" lon="11.427049256489768"><ele>194.0</ele><time>2026-03-28T12:39:19.979Z</time></trkpt><trkpt lat="43.09231931081169" lon="11.426970663689833"><ele>195.5</ele><time>2026-03-28T12:39:20.979Z</time></trkpt><trkpt lat="43.09220533901638" lon="11.426888253475022"><ele>197.0</ele><time>2026-03-28T12:39:21.979Z</time></trkpt><trkpt lat="43.09209832995615" lon="11.426797115691528"><ele>198.5</ele><time>2026-03-28T12:39:22.979Z</time></trkpt><trkpt lat="43.09198141433907" lon="11.426718240440161"><ele>200.0</ele><time>2026-03-28T12:39:23.979Z</time></trkpt><trkpt lat="43.09186850548865" lon="11.426642311623096"><ele>200.0</ele><time>2026-03-28T12:39:24.979Z</time></trkpt><trkpt lat="43.091762333935485" lon="11.42654539851712"><ele>200.0</ele><time>2026-03-28T12:39:25.979Z</time></trkpt><trkpt lat="43.09165792956044" lon="11.426463433148683"><ele>200.0</ele><time>2026-03-28T12:39:26.979Z</time></trkpt><trkpt lat="43.091549536740864" lon="11.42637857113882"><ele>200.0</ele><time>2026-03-28T12:39:27.979Z</time></trkpt><trkpt lat="43.09144457856734" lon="11.426295681167279"><ele>200.75</ele><time>2026-03-28T12:39:28.979Z</time></trkpt><trkpt lat="43.09133065913596" lon="11.42622995658708"><ele>201.5</ele><time>2026-03-28T12:39:29.979Z</time></trkpt><trkpt lat="43.09122310658007" lon="11.426134072702704"><ele>202.25</ele><time>2026-03-28T12:39:30.979Z</time></trkpt><trkpt lat="43.09110864930689" lon="11.426047500701003"><ele>203.0</ele><time>2026-03-28T12:39:31.979Z</time></trkpt><trkpt lat="43.090977175796176" lon="11.425980444146566"><ele>203.0</ele><time>2026-03-28T12:39:32.979Z</time></trkpt><trkpt lat="43.09083990034823" lon="11.425931379698786"><ele>203.0</ele><time>2026-03-28T12:39:33.979Z</time></trkpt><trkpt lat="43.09068563735713" lon="11.425893095479735"><ele>203.0</ele><time>2026-03-28T12:39:34.979Z</time></trkpt><trkpt lat="43.09053806867641" lon="11.425851757828752"><ele>203.0</ele><time>2026-03-28T12:39:35.979Z</time></trkpt><trkpt lat="43.09039337746192" lon="11.42581916182607"><ele>204.5</ele><time>2026-03-28T12:39:36.979Z</time></trkpt><trkpt lat="43.090250104556794" lon="11.425779389931767"><ele>206.0</ele><time>2026-03-28T12:39:37.979Z</time></trkpt><trkpt lat="43.09010240744632" lon="11.425742996275817"><ele>207.5</ele><time>2026-03-28T12:39:38.978Z</time></trkpt><trkpt lat="43.0899645242853" lon="11.425700729293467"><ele>209.0</ele><time>2026-03-28T12:39:39.978Z</time></trkpt><trkpt lat="43.08982391939496" lon="11.425659845351282"><ele>210.25</ele><time>2026-03-28T12:39:40.978Z</time></trkpt><trkpt lat="43.089694335541886" lon="11.425614256366464"><ele>211.5</ele><time>2026-03-28T12:39:41.978Z</time></trkpt><trkpt lat="43.08955449175802" lon="11.425590566436052"><ele>212.75</ele><time>2026-03-28T12:39:42.978Z</time></trkpt><trkpt lat="43.08943965312978" lon="11.425564707356182"><ele>214.0</ele><time>2026-03-28T12:39:43.978Z</time></trkpt><trkpt lat="43.089335062701046" lon="11.425536434130308"><ele>214.0</ele><time>2026-03-28T12:39:44.978Z</time></trkpt><trkpt lat="43.089235360889674" lon="11.425490376967561"><ele>213.99999999999997</ele><time>2026-03-28T12:39:45.978Z</time></trkpt><trkpt lat="43.08914278904096" lon="11.425453336727184"><ele>213.99999999999997</ele><time>2026-03-28T12:39:46.978Z</time></trkpt><trkpt lat="43.08905871885726" lon="11.425403852124902"><ele>214.0</ele><time>2026-03-28T12:39:47.978Z</time></trkpt><trkpt lat="43.08899506040499" lon="11.425317697483596"><ele>214.0</ele><time>2026-03-28T12:39:48.978Z</time></trkpt><trkpt lat="43.088951226983795" lon="11.42520762333183"><ele>219.2</ele><time>2026-03-28T12:39:49.978Z</time></trkpt><trkpt lat="43.08894476910765" lon="11.425085080671181"><ele>224.39999999999998</ele><time>2026-03-28T12:39:50.978Z</time></trkpt><trkpt lat="43.08893923507137" lon="11.424945005427258"><ele>229.6</ele><time>2026-03-28T12:39:51.978Z</time></trkpt><trkpt lat="43.08896747479277" lon="11.424814905086567"><ele>234.8</ele><time>2026-03-28T12:39:52.978Z</time></trkpt><trkpt lat="43.08899255879829" lon="11.424656066932764"><ele>240.0</ele><time>2026-03-28T12:39:53.978Z</time></trkpt><trkpt lat="43.0890240640868" lon="11.424500588396114"><ele>237.75</ele><time>2026-03-28T12:39:54.978Z</time></trkpt><trkpt lat="43.089059294785294" lon="11.424336158651629"><ele>235.5</ele><time>2026-03-28T12:39:55.978Z</time></trkpt><trkpt lat="43.089086963820336" lon="11.424176703830433"><ele>233.25</ele><time>2026-03-28T12:39:56.978Z</time></trkpt><trkpt lat="43.08910879508984" lon="11.424022171579274"><ele>231.0</ele><time>2026-03-28T12:39:57.978Z</time></trkpt><trkpt lat="43.089136930755316" lon="11.423879111826501"><ele>232.4</ele><time>2026-03-28T12:39:58.978Z</time></trkpt><trkpt lat="43.08916149672007" lon="11.42373099371779"><ele>233.8</ele><time>2026-03-28T12:39:59.978Z</time></trkpt><trkpt lat="43.08918065011555" lon="11.423585182176996"><ele>235.20000000000002</ele><time>2026-03-28T12:40:00.978Z</time></trkpt><trkpt lat="43.0891763608418" lon="11.42343361475803"><ele>236.60000000000002</ele><time>2026-03-28T12:40:01.978Z</time></trkpt><trkpt lat="43.089176289941435" lon="11.423294484756626"><ele>238.0</ele><time>2026-03-28T12:40:02.978Z</time></trkpt><trkpt lat="43.08914760628727" lon="11.423168472241095"><ele>244.0</ele><time>2026-03-28T12:40:03.979Z</time></trkpt><trkpt lat="43.08909198630473" lon="11.42301648213238"><ele>250.0</ele><time>2026-03-28T12:40:04.978Z</time></trkpt><trkpt lat="43.08903280084643" lon="11.422861301512343"><ele>256.0</ele><time>2026-03-28T12:40:05.978Z</time></trkpt><trkpt lat="43.08897038925651" lon="11.422697325438994"><ele>262.0</ele><time>2026-03-28T12:40:06.978Z</time></trkpt><trkpt lat="43.088914123633145" lon="11.422545777746247"><ele>262.2</ele><time>2026-03-28T12:40:07.978Z</time></trkpt><trkpt lat="43.08885967351195" lon="11.422400971311752"><ele>262.4</ele><time>2026-03-28T12:40:08.978Z</time></trkpt><trkpt lat="43.08880894490889" lon="11.42226684622939"><ele>262.6</ele><time>2026-03-28T12:40:09.978Z</time></trkpt><trkpt lat="43.08875954196186" lon="11.422147593705589"><ele>262.8</ele><time>2026-03-28T12:40:10.978Z</time></trkpt><trkpt lat="43.08871286977746" lon="11.422035937782901"><ele>263.0</ele><time>2026-03-28T12:40:11.978Z</time></trkpt><trkpt lat="43.08866735970723" lon="11.421940973451843"><ele>262.0</ele><time>2026-03-28T12:40:12.978Z</time></trkpt><trkpt lat="43.08861968491817" lon="11.421855945400734"><ele>261.0</ele><time>2026-03-28T12:40:13.978Z</time></trkpt><trkpt lat="43.08856625480557" lon="11.421796673843295"><ele>260.0</ele><time>2026-03-28T12:40:14.978Z</time></trkpt><trkpt lat="43.088518515327806" lon="11.42172216353605"><ele>259.0</ele><time>2026-03-28T12:40:15.978Z</time></trkpt><trkpt lat="43.08844450915814" lon="11.421674421842559"><ele>258.0</ele><time>2026-03-28T12:40:16.978Z</time></trkpt><trkpt lat="43.088367004215954" lon="11.421655891002576"><ele>257.0</ele><time>2026-03-28T12:40:17.978Z</time></trkpt><trkpt lat="43.0882675779953" lon="11.421692895411496"><ele>260.6666666666667</ele><time>2026-03-28T12:40:18.978Z</time></trkpt><trkpt lat="43.08819671636385" lon="11.421770913378195"><ele>264.33333333333337</ele><time>2026-03-28T12:40:19.978Z</time></trkpt><trkpt lat="43.0881489297097" lon="11.421865869712285"><ele>268.0</ele><time>2026-03-28T12:40:20.978Z</time></trkpt><trkpt lat="43.08811488244703" lon="11.421967217872327"><ele>271.6666666666667</ele><time>2026-03-28T12:40:21.978Z</time></trkpt><trkpt lat="43.088086852084416" lon="11.422065476401684"><ele>275.3333333333333</ele><time>2026-03-28T12:40:22.978Z</time></trkpt><trkpt lat="43.088057606531386" lon="11.422204504145824"><ele>279.0</ele><time>2026-03-28T12:40:23.978Z</time></trkpt><trkpt lat="43.08803000603829" lon="11.422366462193013"><ele>279.75</ele><time>2026-03-28T12:40:24.978Z</time></trkpt><trkpt lat="43.08800295912033" lon="11.422520022612067"><ele>280.5</ele><time>2026-03-28T12:40:25.978Z</time></trkpt><trkpt lat="43.087970866620566" lon="11.42268647131376"><ele>281.25</ele><time>2026-03-28T12:40:26.978Z</time></trkpt><trkpt lat="43.08793420839653" lon="11.42286851998973"><ele>282.0</ele><time>2026-03-28T12:40:27.978Z</time></trkpt><trkpt lat="43.08788353643439" lon="11.423041748580635"><ele>282.1666666666667</ele><time>2026-03-28T12:40:28.978Z</time></trkpt><trkpt lat="43.08783113994491" lon="11.42318334871956"><ele>282.3333333333333</ele><time>2026-03-28T12:40:29.978Z</time></trkpt><trkpt lat="43.0877686231393" lon="11.423288810628074"><ele>282.5</ele><time>2026-03-28T12:40:30.978Z</time></trkpt><trkpt lat="43.08772649993495" lon="11.423366816019158"><ele>282.66666666666663</ele><time>2026-03-28T12:40:31.978Z</time></trkpt><trkpt lat="43.08767044575943" lon="11.423454330574957"><ele>282.8333333333333</ele><time>2026-03-28T12:40:33.978Z</time></trkpt><trkpt lat="43.087597276472515" lon="11.423481550082798"><ele>283.0</ele><time>2026-03-28T12:40:35.978Z</time></trkpt><trkpt lat="43.0875293960642" lon="11.423397977245275"><ele>283.0</ele><time>2026-03-28T12:40:37.978Z</time></trkpt><trkpt lat="43.08749760667554" lon="11.423309713522015"><ele>283.0</ele><time>2026-03-28T12:40:38.978Z</time></trkpt><trkpt lat="43.08746701375975" lon="11.423207317395908"><ele>283.0</ele><time>2026-03-28T12:40:39.978Z</time></trkpt><trkpt lat="43.08745413510491" lon="11.423090402195497"><ele>283.0</ele><time>2026-03-28T12:40:40.978Z</time></trkpt><trkpt lat="43.08743439563369" lon="11.422962044259723"><ele>283.0</ele><time>2026-03-28T12:40:41.978Z</time></trkpt><trkpt lat="43.08741663730835" lon="11.42285218626528"><ele>283.0</ele><time>2026-03-28T12:40:42.978Z</time></trkpt><trkpt lat="43.08739732178047" lon="11.422749965514283"><ele>287.5</ele><time>2026-03-28T12:40:43.978Z</time></trkpt><trkpt lat="43.087363832487334" lon="11.42267071192774"><ele>292.0</ele><time>2026-03-28T12:40:44.978Z</time></trkpt><trkpt lat="43.08728727699755" lon="11.422591715960865"><ele>296.5</ele><time>2026-03-28T12:40:46.977Z</time></trkpt><trkpt lat="43.08722304358622" lon="11.422599006903468"><ele>301.0</ele><time>2026-03-28T12:40:47.977Z</time></trkpt><trkpt lat="43.087163981620535" lon="11.422667234229271"><ele>305.5</ele><time>2026-03-28T12:40:48.977Z</time></trkpt><trkpt lat="43.0871202597305" lon="11.422802991752285"><ele>310.0</ele><time>2026-03-28T12:40:50.977Z</time></trkpt><trkpt lat="43.08710373157014" lon="11.422898310016919"><ele>310.0</ele><time>2026-03-28T12:40:51.977Z</time></trkpt><trkpt lat="43.08708625309542" lon="11.42302085785708"><ele>310.0</ele><time>2026-03-28T12:40:52.977Z</time></trkpt><trkpt lat="43.087062932614245" lon="11.423162811288956"><ele>310.0</ele><time>2026-03-28T12:40:53.977Z</time></trkpt><trkpt lat="43.08703034739939" lon="11.423338510856102"><ele>310.0</ele><time>2026-03-28T12:40:54.977Z</time></trkpt><trkpt lat="43.086996074742615" lon="11.423488882348432"><ele>310.0</ele><time>2026-03-28T12:40:55.977Z</time></trkpt><trkpt lat="43.08696630597549" lon="11.423600645955446"><ele>310.0</ele><time>2026-03-28T12:40:56.977Z</time></trkpt><trkpt lat="43.08693982672572" lon="11.423682197337365"><ele>310.0</ele><time>2026-03-28T12:40:57.977Z</time></trkpt><trkpt lat="43.086902676539914" lon="11.423781000775136"><ele>310.0</ele><time>2026-03-28T12:40:58.977Z</time></trkpt><trkpt lat="43.08683215235032" lon="11.423845780580645"><ele>310.0</ele><time>2026-03-28T12:40:59.977Z</time></trkpt><trkpt lat="43.086710091295956" lon="11.42386284570874"><ele>310.0</ele><time>2026-03-28T12:41:01.977Z</time></trkpt><trkpt lat="43.08663514665224" lon="11.42384007474054"><ele>310.0</ele><time>2026-03-28T12:41:02.977Z</time></trkpt><trkpt lat="43.086559435118794" lon="11.423812140510798"><ele>313.16666666666663</ele><time>2026-03-28T12:41:03.977Z</time></trkpt><trkpt lat="43.08649492979449" lon="11.4237593356618"><ele>316.3333333333333</ele><time>2026-03-28T12:41:04.977Z</time></trkpt><trkpt lat="43.086441638054275" lon="11.423695321637792"><ele>319.5</ele><time>2026-03-28T12:41:05.977Z</time></trkpt><trkpt lat="43.08639685368848" lon="11.423558542004923"><ele>322.6666666666667</ele><time>2026-03-28T12:41:07.977Z</time></trkpt><trkpt lat="43.08643382215392" lon="11.423395093046247"><ele>325.83333333333337</ele><time>2026-03-28T12:41:09.977Z</time></trkpt><trkpt lat="43.08646458884889" lon="11.423312056075815"><ele>329.0</ele><time>2026-03-28T12:41:10.977Z</time></trkpt><trkpt lat="43.08651747095841" lon="11.423182386097405"><ele>329.0</ele><time>2026-03-28T12:41:11.977Z</time></trkpt><trkpt lat="43.08655208515308" lon="11.42305811730645"><ele>329.0</ele><time>2026-03-28T12:41:12.977Z</time></trkpt><trkpt lat="43.086558264470504" lon="11.422934360522321"><ele>329.0</ele><time>2026-03-28T12:41:13.977Z</time></trkpt><trkpt lat="43.086544415157476" lon="11.422836550470779"><ele>329.0</ele><time>2026-03-28T12:41:14.977Z</time></trkpt><trkpt lat="43.086509697013796" lon="11.422761510010897"><ele>329.0</ele><time>2026-03-28T12:41:15.977Z</time></trkpt><trkpt lat="43.086468470058165" lon="11.422681062317755"><ele>329.0</ele><time>2026-03-28T12:41:16.977Z</time></trkpt><trkpt lat="43.086417173648286" lon="11.422606219665223"><ele>328.83333333333337</ele><time>2026-03-28T12:41:17.977Z</time></trkpt><trkpt lat="43.08635675209331" lon="11.42257835585317"><ele>328.6666666666667</ele><time>2026-03-28T12:41:18.977Z</time></trkpt><trkpt lat="43.08627626171775" lon="11.422601950323907"><ele>328.5</ele><time>2026-03-28T12:41:19.977Z</time></trkpt><trkpt lat="43.08621456412784" lon="11.42265559828379"><ele>328.3333333333333</ele><time>2026-03-28T12:41:20.977Z</time></trkpt><trkpt lat="43.086157144530866" lon="11.422732914059626"><ele>328.16666666666663</ele><time>2026-03-28T12:41:21.977Z</time></trkpt><trkpt lat="43.08611673701821" lon="11.42283814471687"><ele>328.0</ele><time>2026-03-28T12:41:22.977Z</time></trkpt><trkpt lat="43.0860629652684" lon="11.422958353011095"><ele>328.16666666666663</ele><time>2026-03-28T12:41:23.977Z</time></trkpt><trkpt lat="43.086000191031104" lon="11.423080057411434"><ele>328.3333333333333</ele><time>2026-03-28T12:41:24.977Z</time></trkpt><trkpt lat="43.08593886246791" lon="11.423184936301974"><ele>328.5</ele><time>2026-03-28T12:41:25.977Z</time></trkpt><trkpt lat="43.08587743536168" lon="11.423250941424794"><ele>328.6666666666667</ele><time>2026-03-28T12:41:26.977Z</time></trkpt><trkpt lat="43.0858236691126" lon="11.423306582841809"><ele>328.83333333333337</ele><time>2026-03-28T12:41:27.977Z</time></trkpt><trkpt lat="43.08573614358341" lon="11.423280582595925"><ele>329.0</ele><time>2026-03-28T12:41:28.977Z</time></trkpt><trkpt lat="43.08565861197407" lon="11.423226032312416"><ele>331.6666666666667</ele><time>2026-03-28T12:41:29.977Z</time></trkpt><trkpt lat="43.0856042539974" lon="11.423121460850593"><ele>334.33333333333337</ele><time>2026-03-28T12:41:30.977Z</time></trkpt><trkpt lat="43.08556275486253" lon="11.423024696215549"><ele>337.0</ele><time>2026-03-28T12:41:31.977Z</time></trkpt><trkpt lat="43.08552921073351" lon="11.42291952260763"><ele>339.6666666666667</ele><time>2026-03-28T12:41:32.977Z</time></trkpt><trkpt lat="43.0855014975996" lon="11.422815109134143"><ele>342.3333333333333</ele><time>2026-03-28T12:41:33.977Z</time></trkpt><trkpt lat="43.08547979626277" lon="11.422702958029987"><ele>345.0</ele><time>2026-03-28T12:41:34.977Z</time></trkpt><trkpt lat="43.08545530731935" lon="11.422584391360807"><ele>345.8</ele><time>2026-03-28T12:41:35.977Z</time></trkpt><trkpt lat="43.085425597097775" lon="11.42247283560888"><ele>346.6</ele><time>2026-03-28T12:41:36.977Z</time></trkpt><trkpt lat="43.08538898525609" lon="11.422352793229356"><ele>347.4</ele><time>2026-03-28T12:41:37.977Z</time></trkpt><trkpt lat="43.085346317944236" lon="11.422223354362607"><ele>348.2</ele><time>2026-03-28T12:41:38.977Z</time></trkpt><trkpt lat="43.08529901500853" lon="11.422093891801538"><ele>349.0</ele><time>2026-03-28T12:41:39.977Z</time></trkpt><trkpt lat="43.0852354221942" lon="11.42198343211779"><ele>348.0</ele><time>2026-03-28T12:41:40.977Z</time></trkpt><trkpt lat="43.085157357658886" lon="11.421887579124245"><ele>347.0</ele><time>2026-03-28T12:41:41.977Z</time></trkpt><trkpt lat="43.085064225155826" lon="11.421803620539919"><ele>346.0</ele><time>2026-03-28T12:41:42.977Z</time></trkpt><trkpt lat="43.084960753227676" lon="11.42174516640147"><ele>345.0</ele><time>2026-03-28T12:41:43.977Z</time></trkpt><trkpt lat="43.084839833418215" lon="11.421695744123596"><ele>345.0</ele><time>2026-03-28T12:41:44.977Z</time></trkpt><trkpt lat="43.08472094807295" lon="11.421645484175436"><ele>345.0</ele><time>2026-03-28T12:41:45.977Z</time></trkpt><trkpt lat="43.08459923899502" lon="11.421611367559485"><ele>345.0</ele><time>2026-03-28T12:41:46.977Z</time></trkpt><trkpt lat="43.08449804730482" lon="11.421523329837951"><ele>345.0</ele><time>2026-03-28T12:41:47.977Z</time></trkpt><trkpt lat="43.08439915947489" lon="11.421478202122588"><ele>345.0</ele><time>2026-03-28T12:41:48.977Z</time></trkpt><trkpt lat="43.08429999533303" lon="11.421417933320178"><ele>345.0</ele><time>2026-03-28T12:41:49.977Z</time></trkpt><trkpt lat="43.08419563569151" lon="11.421353282372058"><ele>345.0</ele><time>2026-03-28T12:41:50.977Z</time></trkpt><trkpt lat="43.084095290997354" lon="11.42126756096097"><ele>345.0</ele><time>2026-03-28T12:41:51.977Z</time></trkpt><trkpt lat="43.08399498117684" lon="11.421190141905457"><ele>345.4</ele><time>2026-03-28T12:41:52.977Z</time></trkpt><trkpt lat="43.08390185518482" lon="11.42110127802208"><ele>345.8</ele><time>2026-03-28T12:41:53.977Z</time></trkpt><trkpt lat="43.08380310853947" lon="11.421031340803854"><ele>346.20000000000005</ele><time>2026-03-28T12:41:54.977Z</time></trkpt><trkpt lat="43.08369965790424" lon="11.42097430498837"><ele>346.6</ele><time>2026-03-28T12:41:55.977Z</time></trkpt><trkpt lat="43.083593616011264" lon="11.420929704936796"><ele>347.0</ele><time>2026-03-28T12:41:56.977Z</time></trkpt><trkpt lat="43.08348936699851" lon="11.420896878253918"><ele>347.0</ele><time>2026-03-28T12:41:57.977Z</time></trkpt><trkpt lat="43.08338428863311" lon="11.420863461429697"><ele>347.0</ele><time>2026-03-28T12:41:58.977Z</time></trkpt><trkpt lat="43.08328065677342" lon="11.42083186139811"><ele>347.0</ele><time>2026-03-28T12:41:59.977Z</time></trkpt><trkpt lat="43.08317792374245" lon="11.420800065704594"><ele>347.0</ele><time>2026-03-28T12:42:00.977Z</time></trkpt><trkpt lat="43.08307673408046" lon="11.420765460320961"><ele>347.0</ele><time>2026-03-28T12:42:01.977Z</time></trkpt><trkpt lat="43.082975215558236" lon="11.42073269556866"><ele>348.6</ele><time>2026-03-28T12:42:02.977Z</time></trkpt><trkpt lat="43.08287691334522" lon="11.420700637996593"><ele>350.20000000000005</ele><time>2026-03-28T12:42:03.977Z</time></trkpt><trkpt lat="43.082779900790214" lon="11.420656845863558"><ele>351.8</ele><time>2026-03-28T12:42:04.977Z</time></trkpt><trkpt lat="43.08268132039453" lon="11.420627714762057"><ele>353.4</ele><time>2026-03-28T12:42:05.977Z</time></trkpt><trkpt lat="43.08259018483748" lon="11.420602237082624"><ele>355.0</ele><time>2026-03-28T12:42:06.977Z</time></trkpt><trkpt lat="43.08250911208847" lon="11.420585888391928"><ele>354.8333333333333</ele><time>2026-03-28T12:42:07.977Z</time></trkpt><trkpt lat="43.08242298074692" lon="11.420568940671822"><ele>354.66666666666663</ele><time>2026-03-28T12:42:08.977Z</time></trkpt><trkpt lat="43.082330169761384" lon="11.42055497849436"><ele>354.5</ele><time>2026-03-28T12:42:09.977Z</time></trkpt><trkpt lat="43.082240057109274" lon="11.420542424318885"><ele>354.3333333333333</ele><time>2026-03-28T12:42:10.977Z</time></trkpt><trkpt lat="43.08215094488354" lon="11.420521553563308"><ele>354.1666666666667</ele><time>2026-03-28T12:42:11.977Z</time></trkpt><trkpt lat="43.0820637877288" lon="11.420503635486616"><ele>354.0</ele><time>2026-03-28T12:42:12.978Z</time></trkpt><trkpt lat="43.08199387440607" lon="11.420479368550144"><ele>355.25</ele><time>2026-03-28T12:42:13.978Z</time></trkpt><trkpt lat="43.08189909886354" lon="11.420475755935245"><ele>356.5</ele><time>2026-03-28T12:42:14.978Z</time></trkpt><trkpt lat="43.081787035369466" lon="11.42041629328336"><ele>357.75</ele><time>2026-03-28T12:42:15.978Z</time></trkpt><trkpt lat="43.08167331789541" lon="11.420323899115587"><ele>359.0</ele><time>2026-03-28T12:42:16.978Z</time></trkpt><trkpt lat="43.08155387832184" lon="11.420190974562042"><ele>361.33333333333337</ele><time>2026-03-28T12:42:17.978Z</time></trkpt><trkpt lat="43.08139887685034" lon="11.419832928349761"><ele>363.6666666666667</ele><time>2026-03-28T12:42:18.977Z</time></trkpt><trkpt lat="43.081378972541344" lon="11.419688048804794"><ele>366.0</ele><time>2026-03-28T12:42:19.977Z</time></trkpt><trkpt lat="43.081356349885176" lon="11.419547402476999"><ele>366.0</ele><time>2026-03-28T12:42:20.977Z</time></trkpt><trkpt lat="43.08131675855722" lon="11.41946638833638"><ele>366.0</ele><time>2026-03-28T12:42:21.978Z</time></trkpt><trkpt lat="43.08124654263388" lon="11.419441673083037"><ele>366.0</ele><time>2026-03-28T12:42:22.977Z</time></trkpt><trkpt lat="43.08102273696047" lon="11.41952680920753"><ele>366.0</ele><time>2026-03-28T12:42:23.977Z</time></trkpt><trkpt lat="43.08091464602054" lon="11.419457870007365"><ele>366.0</ele><time>2026-03-28T12:42:24.977Z</time></trkpt><trkpt lat="43.080803021569494" lon="11.419420242084444"><ele>366.0</ele><time>2026-03-28T12:42:25.977Z</time></trkpt><trkpt lat="43.08068823920588" lon="11.419392257518185"><ele>366.0</ele><time>2026-03-28T12:42:26.977Z</time></trkpt><trkpt lat="43.08058146437094" lon="11.419353201405912"><ele>366.0</ele><time>2026-03-28T12:42:27.977Z</time></trkpt><trkpt lat="43.08047490937222" lon="11.419325520402856"><ele>369.1666666666667</ele><time>2026-03-28T12:42:28.977Z</time></trkpt><trkpt lat="43.08038860972516" lon="11.419299199461657"><ele>372.33333333333337</ele><time>2026-03-28T12:42:29.977Z</time></trkpt><trkpt lat="43.08031687451269" lon="11.41925844108905"><ele>375.5</ele><time>2026-03-28T12:42:30.977Z</time></trkpt><trkpt lat="43.08025616598493" lon="11.419182709861408"><ele>378.6666666666667</ele><time>2026-03-28T12:42:31.977Z</time></trkpt><trkpt lat="43.08022362944187" lon="11.419089419971858"><ele>381.83333333333337</ele><time>2026-03-28T12:42:32.977Z</time></trkpt><trkpt lat="43.08016093301773" lon="11.418974593337873"><ele>385.0</ele><time>2026-03-28T12:42:33.977Z</time></trkpt><trkpt lat="43.08010873214353" lon="11.418868579729226"><ele>383.2</ele><time>2026-03-28T12:42:34.977Z</time></trkpt><trkpt lat="43.080052374861324" lon="11.418772549033614"><ele>381.4</ele><time>2026-03-28T12:42:35.977Z</time></trkpt><trkpt lat="43.07997323925237" lon="11.418690341468322"><ele>379.6</ele><time>2026-03-28T12:42:36.977Z</time></trkpt><trkpt lat="43.0798748443621" lon="11.4186206120136"><ele>377.8</ele><time>2026-03-28T12:42:37.977Z</time></trkpt><trkpt lat="43.079762733677555" lon="11.418557278366134"><ele>376.0</ele><time>2026-03-28T12:42:38.977Z</time></trkpt><trkpt lat="43.0796339289092" lon="11.41849172458056"><ele>381.25</ele><time>2026-03-28T12:42:39.977Z</time></trkpt><trkpt lat="43.079495634878256" lon="11.418437343206048"><ele>386.5</ele><time>2026-03-28T12:42:40.977Z</time></trkpt><trkpt lat="43.07937677548145" lon="11.41838186405803"><ele>391.75</ele><time>2026-03-28T12:42:41.977Z</time></trkpt><trkpt lat="43.079276537800915" lon="11.418325601705975"><ele>397.0</ele><time>2026-03-28T12:42:42.977Z</time></trkpt><trkpt lat="43.0791804337541" lon="11.418255276888425"><ele>396.5</ele><time>2026-03-28T12:42:43.977Z</time></trkpt><trkpt lat="43.07908737820237" lon="11.41815619823313"><ele>396.0</ele><time>2026-03-28T12:42:44.977Z</time></trkpt><trkpt lat="43.07900659906648" lon="11.418072427930525"><ele>395.5</ele><time>2026-03-28T12:42:45.977Z</time></trkpt><trkpt lat="43.078899031576675" lon="11.417997008383946"><ele>395.0</ele><time>2026-03-28T12:42:46.977Z</time></trkpt><trkpt lat="43.07876123141151" lon="11.417951318066972"><ele>395.0</ele><time>2026-03-28T12:42:47.977Z</time></trkpt><trkpt lat="43.07860769970278" lon="11.417927288635491"><ele>395.0</ele><time>2026-03-28T12:42:48.977Z</time></trkpt><trkpt lat="43.07844945824649" lon="11.41791256232102"><ele>395.0</ele><time>2026-03-28T12:42:49.977Z</time></trkpt><trkpt lat="43.078294745268245" lon="11.417900063417983"><ele>398.5</ele><time>2026-03-28T12:42:50.977Z</time></trkpt><trkpt lat="43.07812488538652" lon="11.41788869201265"><ele>402.0</ele><time>2026-03-28T12:42:51.977Z</time></trkpt><trkpt lat="43.07797407193663" lon="11.417883834494253"><ele>405.5</ele><time>2026-03-28T12:42:52.977Z</time></trkpt><trkpt lat="43.07784682828441" lon="11.417885489492956"><ele>409.0</ele><time>2026-03-28T12:42:53.977Z</time></trkpt><trkpt lat="43.077745044392145" lon="11.417890230661577"><ele>409.0</ele><time>2026-03-28T12:42:54.977Z</time></trkpt><trkpt lat="43.07764304006836" lon="11.417891050254987"><ele>409.0</ele><time>2026-03-28T12:42:55.977Z</time></trkpt><trkpt lat="43.077538241370874" lon="11.417879548255815"><ele>409.0</ele><time>2026-03-28T12:42:56.977Z</time></trkpt><trkpt lat="43.07742270984699" lon="11.41784166590756"><ele>409.0</ele><time>2026-03-28T12:42:57.977Z</time></trkpt><trkpt lat="43.07727970625498" lon="11.41777654435078"><ele>413.5</ele><time>2026-03-28T12:42:58.977Z</time></trkpt><trkpt lat="43.077156847936884" lon="11.417656386460418"><ele>418.0</ele><time>2026-03-28T12:42:59.977Z</time></trkpt><trkpt lat="43.07704834104433" lon="11.417564370892254"><ele>422.5</ele><time>2026-03-28T12:43:00.977Z</time></trkpt><trkpt lat="43.07696415470849" lon="11.417479745419518"><ele>427.0</ele><time>2026-03-28T12:43:01.977Z</time></trkpt><trkpt lat="43.07688431842577" lon="11.417372969917809"><ele>427.0</ele><time>2026-03-28T12:43:02.977Z</time></trkpt><trkpt lat="43.07686243630818" lon="11.41721005616715"><ele>427.00000000000006</ele><time>2026-03-28T12:43:03.977Z</time></trkpt><trkpt lat="43.076821926476015" lon="11.417099110424617"><ele>427.00000000000006</ele><time>2026-03-28T12:43:04.977Z</time></trkpt><trkpt lat="43.07677788635348" lon="11.417017299099012"><ele>427.0</ele><time>2026-03-28T12:43:05.977Z</time></trkpt><trkpt lat="43.07667131801767" lon="11.416895004712115"><ele>427.0</ele><time>2026-03-28T12:43:07.977Z</time></trkpt><trkpt lat="43.076572858351746" lon="11.416837541139538"><ele>427.75</ele><time>2026-03-28T12:43:08.977Z</time></trkpt><trkpt lat="43.07645216600924" lon="11.416802465690251"><ele>428.5</ele><time>2026-03-28T12:43:09.977Z</time></trkpt><trkpt lat="43.07632813936714" lon="11.416771500216267"><ele>429.25</ele><time>2026-03-28T12:43:10.977Z</time></trkpt><trkpt lat="43.07618770538591" lon="11.416734023776879"><ele>430.0</ele><time>2026-03-28T12:43:11.977Z</time></trkpt><trkpt lat="43.0760506832986" lon="11.41667079436665"><ele>430.0</ele><time>2026-03-28T12:43:12.977Z</time></trkpt><trkpt lat="43.075919196784874" lon="11.416576675980982"><ele>430.0</ele><time>2026-03-28T12:43:13.977Z</time></trkpt><trkpt lat="43.07576927531841" lon="11.41646087916098"><ele>430.0</ele><time>2026-03-28T12:43:14.977Z</time></trkpt><trkpt lat="43.07562445297778" lon="11.416345474611257"><ele>431.6666666666667</ele><time>2026-03-28T12:43:15.977Z</time></trkpt><trkpt lat="43.07546381744369" lon="11.416242028263438"><ele>433.33333333333337</ele><time>2026-03-28T12:43:16.977Z</time></trkpt><trkpt lat="43.075312006394384" lon="11.41611948313064"><ele>435.0</ele><time>2026-03-28T12:43:17.977Z</time></trkpt><trkpt lat="43.075177054152526" lon="11.416007180188032"><ele>435.0</ele><time>2026-03-28T12:43:18.977Z</time></trkpt><trkpt lat="43.07504702779295" lon="11.415918500401974"><ele>435.0</ele><time>2026-03-28T12:43:19.977Z</time></trkpt><trkpt lat="43.07491873098752" lon="11.415845926604785"><ele>435.0</ele><time>2026-03-28T12:43:20.977Z</time></trkpt><trkpt lat="43.074779606812264" lon="11.415791886530045"><ele>435.0</ele><time>2026-03-28T12:43:21.977Z</time></trkpt><trkpt lat="43.07464387614136" lon="11.415752719897922"><ele>435.8333333333333</ele><time>2026-03-28T12:43:22.977Z</time></trkpt><trkpt lat="43.074538570533534" lon="11.415732445317206"><ele>436.66666666666663</ele><time>2026-03-28T12:43:23.977Z</time></trkpt><trkpt lat="43.074465684820225" lon="11.415703900145514"><ele>437.5</ele><time>2026-03-28T12:43:24.977Z</time></trkpt><trkpt lat="43.07441501379864" lon="11.415651913471578"><ele>438.3333333333333</ele><time>2026-03-28T12:43:25.977Z</time></trkpt><trkpt lat="43.074373039184536" lon="11.415574588395431"><ele>439.16666666666663</ele><time>2026-03-28T12:43:26.977Z</time></trkpt><trkpt lat="43.07434007584481" lon="11.415497887937464"><ele>440.0</ele><time>2026-03-28T12:43:27.977Z</time></trkpt><trkpt lat="43.07434106181148" lon="11.415386800286347"><ele>442.0</ele><time>2026-03-28T12:43:28.977Z</time></trkpt><trkpt lat="43.07435234001474" lon="11.415267273569102"><ele>444.0</ele><time>2026-03-28T12:43:29.977Z</time></trkpt><trkpt lat="43.074352257273226" lon="11.41514002786025"><ele>446.0</ele><time>2026-03-28T12:43:30.977Z</time></trkpt><trkpt lat="43.07433446796035" lon="11.415005295565239"><ele>448.0</ele><time>2026-03-28T12:43:31.977Z</time></trkpt><trkpt lat="43.074302452841195" lon="11.414875455942711"><ele>450.0</ele><time>2026-03-28T12:43:32.977Z</time></trkpt><trkpt lat="43.07426262444651" lon="11.414741265078138"><ele>451.1666666666667</ele><time>2026-03-28T12:43:33.977Z</time></trkpt><trkpt lat="43.07423590910205" lon="11.414607635532134"><ele>452.33333333333337</ele><time>2026-03-28T12:43:34.977Z</time></trkpt><trkpt lat="43.074174416333086" lon="11.414524380055944"><ele>453.5</ele><time>2026-03-28T12:43:35.977Z</time></trkpt><trkpt lat="43.07413685442417" lon="11.41443404413645"><ele>454.6666666666667</ele><time>2026-03-28T12:43:36.977Z</time></trkpt><trkpt lat="43.07405631605452" lon="11.414402224583652"><ele>455.83333333333337</ele><time>2026-03-28T12:43:37.977Z</time></trkpt><trkpt lat="43.07398180664018" lon="11.414382470723943"><ele>457.0</ele><time>2026-03-28T12:43:38.977Z</time></trkpt><trkpt lat="43.07389310424985" lon="11.414349958450375"><ele>459.75</ele><time>2026-03-28T12:43:39.976Z</time></trkpt><trkpt lat="43.07379138797087" lon="11.414359496281207"><ele>462.5</ele><time>2026-03-28T12:43:40.976Z</time></trkpt><trkpt lat="43.073663128983384" lon="11.41434007168299"><ele>465.25</ele><time>2026-03-28T12:43:41.976Z</time></trkpt><trkpt lat="43.07353888056143" lon="11.414330763609852"><ele>468.0</ele><time>2026-03-28T12:43:42.976Z</time></trkpt><trkpt lat="43.0734133735617" lon="11.414302261208435"><ele>468.0</ele><time>2026-03-28T12:43:43.976Z</time></trkpt><trkpt lat="43.07327799700538" lon="11.414247093314644"><ele>468.0</ele><time>2026-03-28T12:43:44.976Z</time></trkpt><trkpt lat="43.07313090280166" lon="11.41424711689756"><ele>468.0</ele><time>2026-03-28T12:43:45.976Z</time></trkpt><trkpt lat="43.07297699889026" lon="11.414246230806343"><ele>468.0</ele><time>2026-03-28T12:43:46.976Z</time></trkpt><trkpt lat="43.07284380177516" lon="11.414262608612187"><ele>469.75</ele><time>2026-03-28T12:43:47.976Z</time></trkpt><trkpt lat="43.07272985973741" lon="11.41427235727724"><ele>471.5</ele><time>2026-03-28T12:43:48.976Z</time></trkpt><trkpt lat="43.07262702131391" lon="11.41423557164658"><ele>473.25</ele><time>2026-03-28T12:43:49.976Z</time></trkpt><trkpt lat="43.072501267965606" lon="11.414207570234552"><ele>475.0</ele><time>2026-03-28T12:43:50.976Z</time></trkpt><trkpt lat="43.072385829993586" lon="11.414133424553372"><ele>475.0</ele><time>2026-03-28T12:43:51.976Z</time></trkpt><trkpt lat="43.072302301848644" lon="11.414056569905824"><ele>475.0</ele><time>2026-03-28T12:43:52.976Z</time></trkpt><trkpt lat="43.072236207246554" lon="11.41400579156331"><ele>475.0</ele><time>2026-03-28T12:43:53.976Z</time></trkpt><trkpt lat="43.07217099539921" lon="11.413957992472916"><ele>475.0</ele><time>2026-03-28T12:43:54.976Z</time></trkpt><trkpt lat="43.072084313782696" lon="11.413903269510218"><ele>475.0</ele><time>2026-03-28T12:43:55.976Z</time></trkpt><trkpt lat="43.071962518362405" lon="11.413903448031851"><ele>475.0</ele><time>2026-03-28T12:43:56.976Z</time></trkpt><trkpt lat="43.07185179596343" lon="11.413848781255062"><ele>475.0</ele><time>2026-03-28T12:43:57.976Z</time></trkpt><trkpt lat="43.07176383899997" lon="11.413770889014497"><ele>475.0</ele><time>2026-03-28T12:43:58.976Z</time></trkpt><trkpt lat="43.07167337962766" lon="11.4137034318542"><ele>475.0</ele><time>2026-03-28T12:43:59.976Z</time></trkpt><trkpt lat="43.071583845291634" lon="11.413627029580319"><ele>475.0</ele><time>2026-03-28T12:44:00.976Z</time></trkpt><trkpt lat="43.07149759078852" lon="11.413556393801697"><ele>477.2</ele><time>2026-03-28T12:44:01.976Z</time></trkpt><trkpt lat="43.07141351168656" lon="11.413509454961494"><ele>479.4</ele><time>2026-03-28T12:44:02.976Z</time></trkpt><trkpt lat="43.07130088236684" lon="11.413513260234645"><ele>481.6</ele><time>2026-03-28T12:44:03.976Z</time></trkpt><trkpt lat="43.07119526285062" lon="11.413570128590722"><ele>483.8</ele><time>2026-03-28T12:44:04.976Z</time></trkpt><trkpt lat="43.07108887467969" lon="11.413591554367763"><ele>486.0</ele><time>2026-03-28T12:44:05.976Z</time></trkpt><trkpt lat="43.07098903616966" lon="11.413576841033938"><ele>486.0</ele><time>2026-03-28T12:44:06.976Z</time></trkpt><trkpt lat="43.07089657707243" lon="11.413526142052307"><ele>486.0</ele><time>2026-03-28T12:44:07.976Z</time></trkpt><trkpt lat="43.07083720340988" lon="11.413433235946975"><ele>486.0</ele><time>2026-03-28T12:44:08.976Z</time></trkpt><trkpt lat="43.070758782712396" lon="11.413329397028452"><ele>486.0</ele><time>2026-03-28T12:44:09.976Z</time></trkpt><trkpt lat="43.07066885270337" lon="11.413214988897806"><ele>486.0</ele><time>2026-03-28T12:44:10.976Z</time></trkpt><trkpt lat="43.07058373621084" lon="11.413107864027117"><ele>487.5</ele><time>2026-03-28T12:44:11.976Z</time></trkpt><trkpt lat="43.070516552770485" lon="11.41302342096079"><ele>489.0</ele><time>2026-03-28T12:44:12.976Z</time></trkpt><trkpt lat="43.07045340835532" lon="11.412955084500908"><ele>490.5</ele><time>2026-03-28T12:44:13.976Z</time></trkpt><trkpt lat="43.070389078364705" lon="11.412897467851508"><ele>492.0</ele><time>2026-03-28T12:44:14.976Z</time></trkpt><trkpt lat="43.07032466356902" lon="11.412866507253957"><ele>493.5</ele><time>2026-03-28T12:44:15.977Z</time></trkpt><trkpt lat="43.07024976717567" lon="11.412858967552994"><ele>495.0</ele><time>2026-03-28T12:44:16.977Z</time></trkpt><trkpt lat="43.070159044229456" lon="11.412912499984127"><ele>495.0</ele><time>2026-03-28T12:44:17.977Z</time></trkpt><trkpt lat="43.070094820835735" lon="11.4130390928166"><ele>495.0</ele><time>2026-03-28T12:44:18.977Z</time></trkpt><trkpt lat="43.07007892977751" lon="11.413175809062139"><ele>495.0</ele><time>2026-03-28T12:44:19.977Z</time></trkpt><trkpt lat="43.070028722118245" lon="11.413283592956653"><ele>495.0</ele><time>2026-03-28T12:44:20.977Z</time></trkpt><trkpt lat="43.06998926379803" lon="11.41340705362032"><ele>495.0</ele><time>2026-03-28T12:44:21.977Z</time></trkpt><trkpt lat="43.06996457091068" lon="11.413550316212978"><ele>495.0</ele><time>2026-03-28T12:44:22.977Z</time></trkpt><trkpt lat="43.069975366495264" lon="11.413700328343753"><ele>495.0</ele><time>2026-03-28T12:44:23.977Z</time></trkpt><trkpt lat="43.06998431414713" lon="11.413848324548782"><ele>495.0</ele><time>2026-03-28T12:44:24.977Z</time></trkpt><trkpt lat="43.069998142241396" lon="11.4139990931749"><ele>495.0</ele><time>2026-03-28T12:44:25.977Z</time></trkpt><trkpt lat="43.0700132669818" lon="11.414154296231201"><ele>495.0</ele><time>2026-03-28T12:44:26.977Z</time></trkpt><trkpt lat="43.0700060135246" lon="11.414305875946075"><ele>494.8</ele><time>2026-03-28T12:44:27.977Z</time></trkpt><trkpt lat="43.06999069573922" lon="11.414446650392536"><ele>494.6</ele><time>2026-03-28T12:44:28.977Z</time></trkpt><trkpt lat="43.06996152971345" lon="11.414575681535217"><ele>494.4</ele><time>2026-03-28T12:44:29.977Z</time></trkpt><trkpt lat="43.069907269081305" lon="11.414688286778079"><ele>494.2</ele><time>2026-03-28T12:44:30.977Z</time></trkpt><trkpt lat="43.069844684111416" lon="11.414817427353057"><ele>494.0</ele><time>2026-03-28T12:44:31.977Z</time></trkpt><trkpt lat="43.06977630483677" lon="11.414939313551145"><ele>495.25</ele><time>2026-03-28T12:44:32.977Z</time></trkpt><trkpt lat="43.06966856474386" lon="11.415028562523615"><ele>496.5</ele><time>2026-03-28T12:44:33.977Z</time></trkpt><trkpt lat="43.0695377895929" lon="11.415087231978568"><ele>497.75</ele><time>2026-03-28T12:44:34.977Z</time></trkpt><trkpt lat="43.06942397373874" lon="11.415195907597546"><ele>499.0</ele><time>2026-03-28T12:44:35.977Z</time></trkpt><trkpt lat="43.069302804567755" lon="11.415286616256703"><ele>499.0</ele><time>2026-03-28T12:44:36.977Z</time></trkpt><trkpt lat="43.06921005073857" lon="11.415395538566615"><ele>499.0</ele><time>2026-03-28T12:44:37.977Z</time></trkpt><trkpt lat="43.06912136684183" lon="11.415467468813404"><ele>499.0</ele><time>2026-03-28T12:44:38.977Z</time></trkpt><trkpt lat="43.069014328619076" lon="11.415512078753842"><ele>499.0</ele><time>2026-03-28T12:44:39.977Z</time></trkpt><trkpt lat="43.06888729815306" lon="11.41553939398421"><ele>496.79999999999995</ele><time>2026-03-28T12:44:40.977Z</time></trkpt><trkpt lat="43.06877517893958" lon="11.415565506515572"><ele>494.59999999999997</ele><time>2026-03-28T12:44:41.977Z</time></trkpt><trkpt lat="43.068682890135086" lon="11.415595474321636"><ele>492.4</ele><time>2026-03-28T12:44:42.977Z</time></trkpt><trkpt lat="43.06859278629977" lon="11.415649555762407"><ele>490.2</ele><time>2026-03-28T12:44:43.977Z</time></trkpt><trkpt lat="43.068499892268164" lon="11.41572605530599"><ele>488.0</ele><time>2026-03-28T12:44:44.977Z</time></trkpt><trkpt lat="43.06841075247528" lon="11.415826789134782"><ele>488.0</ele><time>2026-03-28T12:44:45.977Z</time></trkpt><trkpt lat="43.068335777548086" lon="11.41593957712065"><ele>488.0</ele><time>2026-03-28T12:44:46.977Z</time></trkpt><trkpt lat="43.068257901521534" lon="11.41605435647168"><ele>488.0</ele><time>2026-03-28T12:44:47.977Z</time></trkpt><trkpt lat="43.06816358204025" lon="11.41615110404976"><ele>488.0</ele><time>2026-03-28T12:44:48.977Z</time></trkpt><trkpt lat="43.068061182017146" lon="11.416243911559299"><ele>487.79999999999995</ele><time>2026-03-28T12:44:49.977Z</time></trkpt><trkpt lat="43.067960093084714" lon="11.4163167890042"><ele>487.59999999999997</ele><time>2026-03-28T12:44:50.976Z</time></trkpt><trkpt lat="43.06785487460569" lon="11.416395862245468"><ele>487.40000000000003</ele><time>2026-03-28T12:44:51.976Z</time></trkpt><trkpt lat="43.06777324168852" lon="11.416485052199151"><ele>487.20000000000005</ele><time>2026-03-28T12:44:52.976Z</time></trkpt><trkpt lat="43.06771907055175" lon="11.416581798864117"><ele>487.0</ele><time>2026-03-28T12:44:53.976Z</time></trkpt><trkpt lat="43.067696173789464" lon="11.416701783703388"><ele>488.40000000000003</ele><time>2026-03-28T12:44:54.976Z</time></trkpt><trkpt lat="43.06767440836196" lon="11.416818685199337"><ele>489.80000000000007</ele><time>2026-03-28T12:44:55.976Z</time></trkpt><trkpt lat="43.06763627963516" lon="11.416941767415578"><ele>491.2</ele><time>2026-03-28T12:44:56.976Z</time></trkpt><trkpt lat="43.067566821962984" lon="11.417044195198873"><ele>492.6</ele><time>2026-03-28T12:44:57.976Z</time></trkpt><trkpt lat="43.067501327907685" lon="11.417159855860774"><ele>494.0</ele><time>2026-03-28T12:44:58.976Z</time></trkpt><trkpt lat="43.06743971706321" lon="11.417277535251884"><ele>496.0</ele><time>2026-03-28T12:44:59.976Z</time></trkpt><trkpt lat="43.067366316625865" lon="11.417379516888849"><ele>498.0</ele><time>2026-03-28T12:45:00.976Z</time></trkpt><trkpt lat="43.0672865258153" lon="11.417461219781002"><ele>500.0</ele><time>2026-03-28T12:45:01.976Z</time></trkpt><trkpt lat="43.06718991618787" lon="11.417536539451254"><ele>502.0</ele><time>2026-03-28T12:45:02.976Z</time></trkpt><trkpt lat="43.06708577522052" lon="11.417586906998038"><ele>504.0</ele><time>2026-03-28T12:45:03.976Z</time></trkpt><trkpt lat="43.0669748666498" lon="11.417625268409259"><ele>504.0</ele><time>2026-03-28T12:45:04.976Z</time></trkpt><trkpt lat="43.06687620702955" lon="11.417675141382146"><ele>504.0</ele><time>2026-03-28T12:45:05.976Z</time></trkpt><trkpt lat="43.06679247108904" lon="11.417741632565106"><ele>504.0</ele><time>2026-03-28T12:45:06.976Z</time></trkpt><trkpt lat="43.06673211405333" lon="11.417844326059148"><ele>504.0</ele><time>2026-03-28T12:45:07.976Z</time></trkpt><trkpt lat="43.06668062225972" lon="11.417995674625312"><ele>504.0</ele><time>2026-03-28T12:45:08.976Z</time></trkpt><trkpt lat="43.06664048790872" lon="11.418157306135967"><ele>500.0</ele><time>2026-03-28T12:45:09.976Z</time></trkpt><trkpt lat="43.06660492777467" lon="11.418319616958849"><ele>496.0</ele><time>2026-03-28T12:45:10.976Z</time></trkpt><trkpt lat="43.066576026627324" lon="11.418482152100044"><ele>492.0</ele><time>2026-03-28T12:45:11.976Z</time></trkpt><trkpt lat="43.066555709189615" lon="11.418663096384812"><ele>488.0</ele><time>2026-03-28T12:45:12.976Z</time></trkpt><trkpt lat="43.06654530411374" lon="11.418843039949591"><ele>486.25</ele><time>2026-03-28T12:45:13.976Z</time></trkpt><trkpt lat="43.06654320434612" lon="11.419006353182645"><ele>484.5</ele><time>2026-03-28T12:45:14.976Z</time></trkpt><trkpt lat="43.06655290652974" lon="11.419162218548022"><ele>482.75</ele><time>2026-03-28T12:45:15.976Z</time></trkpt><trkpt lat="43.06654883412181" lon="11.419322147580628"><ele>481.0</ele><time>2026-03-28T12:45:16.976Z</time></trkpt><trkpt lat="43.06656076537951" lon="11.419470082295806"><ele>481.0</ele><time>2026-03-28T12:45:17.976Z</time></trkpt><trkpt lat="43.06656382735698" lon="11.419606909538661"><ele>481.0</ele><time>2026-03-28T12:45:18.976Z</time></trkpt><trkpt lat="43.066566730728816" lon="11.419747143279345"><ele>481.0</ele><time>2026-03-28T12:45:19.976Z</time></trkpt><trkpt lat="43.06653855041134" lon="11.419884813368522"><ele>481.0</ele><time>2026-03-28T12:45:20.976Z</time></trkpt><trkpt lat="43.066507925949594" lon="11.420005425178164"><ele>481.0</ele><time>2026-03-28T12:45:21.976Z</time></trkpt><trkpt lat="43.066454742568915" lon="11.42011314945864"><ele>481.8</ele><time>2026-03-28T12:45:22.976Z</time></trkpt><trkpt lat="43.06638186769168" lon="11.420235872395839"><ele>482.6</ele><time>2026-03-28T12:45:23.976Z</time></trkpt><trkpt lat="43.06631461490204" lon="11.420368663325387"><ele>483.4</ele><time>2026-03-28T12:45:24.976Z</time></trkpt><trkpt lat="43.06627347627706" lon="11.420496956773956"><ele>484.2</ele><time>2026-03-28T12:45:25.976Z</time></trkpt><trkpt lat="43.06621188321682" lon="11.42062630238311"><ele>485.0</ele><time>2026-03-28T12:45:26.976Z</time></trkpt><trkpt lat="43.06614548915792" lon="11.420767672712604"><ele>486.75</ele><time>2026-03-28T12:45:27.976Z</time></trkpt><trkpt lat="43.06606559430277" lon="11.42091556769452"><ele>488.5</ele><time>2026-03-28T12:45:28.976Z</time></trkpt><trkpt lat="43.06598516350917" lon="11.421057143359098"><ele>490.25</ele><time>2026-03-28T12:45:29.976Z</time></trkpt><trkpt lat="43.065901855379984" lon="11.421199987553372"><ele>492.0</ele><time>2026-03-28T12:45:30.976Z</time></trkpt><trkpt lat="43.06580639932876" lon="11.421343863711531"><ele>490.5</ele><time>2026-03-28T12:45:31.976Z</time></trkpt><trkpt lat="43.06573331460597" lon="11.421501511550662"><ele>489.0</ele><time>2026-03-28T12:45:32.976Z</time></trkpt><trkpt lat="43.06566064600427" lon="11.421653481115278"><ele>487.5</ele><time>2026-03-28T12:45:33.976Z</time></trkpt><trkpt lat="43.06557485401772" lon="11.421779492247088"><ele>486.0</ele><time>2026-03-28T12:45:34.976Z</time></trkpt><trkpt lat="43.065462336797104" lon="11.42188411491224"><ele>486.0</ele><time>2026-03-28T12:45:35.976Z</time></trkpt><trkpt lat="43.06535138646464" lon="11.42198691963348"><ele>486.0</ele><time>2026-03-28T12:45:36.976Z</time></trkpt><trkpt lat="43.06525304019543" lon="11.422082068953317"><ele>486.0</ele><time>2026-03-28T12:45:37.976Z</time></trkpt><trkpt lat="43.06515371284436" lon="11.422150577932994"><ele>486.0</ele><time>2026-03-28T12:45:38.976Z</time></trkpt><trkpt lat="43.06503710533125" lon="11.422188226424657"><ele>486.0</ele><time>2026-03-28T12:45:39.976Z</time></trkpt><trkpt lat="43.064916995085824" lon="11.422211599289328"><ele>486.0</ele><time>2026-03-28T12:45:40.976Z</time></trkpt><trkpt lat="43.064792686579345" lon="11.42221570928627"><ele>486.0</ele><time>2026-03-28T12:45:41.976Z</time></trkpt><trkpt lat="43.064671355178056" lon="11.422217827441385"><ele>486.0</ele><time>2026-03-28T12:45:42.976Z</time></trkpt><trkpt lat="43.0645593575109" lon="11.42217745637678"><ele>484.25</ele><time>2026-03-28T12:45:43.976Z</time></trkpt><trkpt lat="43.06444241402138" lon="11.422139481204693"><ele>482.5</ele><time>2026-03-28T12:45:44.976Z</time></trkpt><trkpt lat="43.06432588054129" lon="11.422093925380736"><ele>480.75</ele><time>2026-03-28T12:45:45.976Z</time></trkpt><trkpt lat="43.06421978480215" lon="11.422049803120904"><ele>479.0</ele><time>2026-03-28T12:45:46.976Z</time></trkpt><trkpt lat="43.06412741948394" lon="11.421991161129798"><ele>477.6</ele><time>2026-03-28T12:45:47.976Z</time></trkpt><trkpt lat="43.06404797084778" lon="11.421941056214163"><ele>476.2</ele><time>2026-03-28T12:45:48.976Z</time></trkpt><trkpt lat="43.06395922525636" lon="11.421917833023915"><ele>474.80000000000007</ele><time>2026-03-28T12:45:49.976Z</time></trkpt><trkpt lat="43.06384868925208" lon="11.421939003882986"><ele>473.40000000000003</ele><time>2026-03-28T12:45:50.976Z</time></trkpt><trkpt lat="43.06374407017134" lon="11.421970275158952"><ele>472.0</ele><time>2026-03-28T12:45:51.976Z</time></trkpt><trkpt lat="43.063654494770155" lon="11.421987364763067"><ele>472.00000000000006</ele><time>2026-03-28T12:45:52.976Z</time></trkpt><trkpt lat="43.06359190770163" lon="11.422013613909376"><ele>472.0</ele><time>2026-03-28T12:45:53.976Z</time></trkpt><trkpt lat="43.06349408803236" lon="11.422086366576716"><ele>472.0</ele><time>2026-03-28T12:45:55.976Z</time></trkpt><trkpt lat="43.06346007004077" lon="11.422178045592812"><ele>472.0</ele><time>2026-03-28T12:45:56.976Z</time></trkpt><trkpt lat="43.06345689037395" lon="11.422290811770818"><ele>472.00000000000006</ele><time>2026-03-28T12:45:57.976Z</time></trkpt><trkpt lat="43.06347523778999" lon="11.422398429814955"><ele>472.0</ele><time>2026-03-28T12:45:58.976Z</time></trkpt><trkpt lat="43.06352781882158" lon="11.422489976876063"><ele>472.0</ele><time>2026-03-28T12:45:59.976Z</time></trkpt><trkpt lat="43.063559002888525" lon="11.422611562306244"><ele>472.00000000000006</ele><time>2026-03-28T12:46:00.976Z</time></trkpt><trkpt lat="43.063553248690795" lon="11.422747963494865"><ele>472.00000000000006</ele><time>2026-03-28T12:46:01.976Z</time></trkpt><trkpt lat="43.06353103069778" lon="11.422856170279411"><ele>472.0</ele><time>2026-03-28T12:46:02.976Z</time></trkpt><trkpt lat="43.06347430713323" lon="11.423000396496935"><ele>472.0</ele><time>2026-03-28T12:46:03.976Z</time></trkpt><trkpt lat="43.06340441860213" lon="11.423150178438462"><ele>471.40000000000003</ele><time>2026-03-28T12:46:04.976Z</time></trkpt><trkpt lat="43.06335946529466" lon="11.423269576839534"><ele>470.80000000000007</ele><time>2026-03-28T12:46:05.976Z</time></trkpt><trkpt lat="43.06332400031134" lon="11.423397364878861"><ele>470.2</ele><time>2026-03-28T12:46:06.976Z</time></trkpt><trkpt lat="43.06331141709602" lon="11.423521595303347"><ele>469.6</ele><time>2026-03-28T12:46:07.976Z</time></trkpt><trkpt lat="43.063335671225666" lon="11.423661840910453"><ele>469.0</ele><time>2026-03-28T12:46:08.976Z</time></trkpt><trkpt lat="43.06336339389059" lon="11.423781000763544"><ele>468.2</ele><time>2026-03-28T12:46:09.976Z</time></trkpt><trkpt lat="43.06338488951493" lon="11.42389566962363"><ele>467.4</ele><time>2026-03-28T12:46:10.976Z</time></trkpt><trkpt lat="43.063399015478" lon="11.424002969502341"><ele>466.6</ele><time>2026-03-28T12:46:11.976Z</time></trkpt><trkpt lat="43.06339103215346" lon="11.424117869006738"><ele>465.8</ele><time>2026-03-28T12:46:12.976Z</time></trkpt><trkpt lat="43.06334552601662" lon="11.424227561533366"><ele>465.0</ele><time>2026-03-28T12:46:13.976Z</time></trkpt><trkpt lat="43.063286683590896" lon="11.424384168057529"><ele>464.25</ele><time>2026-03-28T12:46:14.976Z</time></trkpt><trkpt lat="43.06325481361638" lon="11.42456003914112"><ele>463.5</ele><time>2026-03-28T12:46:15.976Z</time></trkpt><trkpt lat="43.06323511148476" lon="11.424729514780758"><ele>462.75</ele><time>2026-03-28T12:46:16.976Z</time></trkpt><trkpt lat="43.06321123895565" lon="11.424887161221239"><ele>462.0</ele><time>2026-03-28T12:46:17.976Z</time></trkpt><trkpt lat="43.06317984296714" lon="11.425027143572422"><ele>462.0</ele><time>2026-03-28T12:46:18.976Z</time></trkpt><trkpt lat="43.06311949981372" lon="11.425169398169125"><ele>462.0</ele><time>2026-03-28T12:46:19.976Z</time></trkpt><trkpt lat="43.06303835540278" lon="11.425308594050838"><ele>462.0</ele><time>2026-03-28T12:46:20.976Z</time></trkpt><trkpt lat="43.06296252712293" lon="11.425416519055464"><ele>462.0</ele><time>2026-03-28T12:46:21.976Z</time></trkpt><trkpt lat="43.06289564140338" lon="11.425539561509439"><ele>463.0</ele><time>2026-03-28T12:46:22.976Z</time></trkpt><trkpt lat="43.06284222652083" lon="11.425696563833434"><ele>464.0</ele><time>2026-03-28T12:46:23.976Z</time></trkpt><trkpt lat="43.06281986851165" lon="11.425873842384044"><ele>465.0</ele><time>2026-03-28T12:46:24.976Z</time></trkpt><trkpt lat="43.06281871123395" lon="11.426046985868151"><ele>466.0</ele><time>2026-03-28T12:46:25.977Z</time></trkpt><trkpt lat="43.0628244388943" lon="11.426200281506357"><ele>467.0</ele><time>2026-03-28T12:46:26.977Z</time></trkpt><trkpt lat="43.06283350518746" lon="11.426352496476389"><ele>468.0</ele><time>2026-03-28T12:46:27.976Z</time></trkpt><trkpt lat="43.062845711700646" lon="11.426520358687782"><ele>469.0</ele><time>2026-03-28T12:46:28.976Z</time></trkpt><trkpt lat="43.06286777614935" lon="11.426696496735778"><ele>470.0</ele><time>2026-03-28T12:46:29.976Z</time></trkpt><trkpt lat="43.06289322327324" lon="11.426848375489076"><ele>470.0</ele><time>2026-03-28T12:46:30.976Z</time></trkpt><trkpt lat="43.06290164865845" lon="11.426973040992603"><ele>470.0</ele><time>2026-03-28T12:46:31.976Z</time></trkpt><trkpt lat="43.06289443207996" lon="11.42709900664172"><ele>470.0</ele><time>2026-03-28T12:46:32.976Z</time></trkpt><trkpt lat="43.062822007637514" lon="11.427216576114308"><ele>470.0</ele><time>2026-03-28T12:46:33.976Z</time></trkpt><trkpt lat="43.06274089441527" lon="11.427306313155663"><ele>470.0</ele><time>2026-03-28T12:46:34.976Z</time></trkpt><trkpt lat="43.06264520656078" lon="11.427379548619557"><ele>470.0</ele><time>2026-03-28T12:46:35.976Z</time></trkpt><trkpt lat="43.062532286848175" lon="11.427436074686364"><ele>470.0</ele><time>2026-03-28T12:46:36.976Z</time></trkpt><trkpt lat="43.062411893164594" lon="11.42750761398403"><ele>470.0</ele><time>2026-03-28T12:46:37.976Z</time></trkpt><trkpt lat="43.06228655767832" lon="11.427554402217293"><ele>470.0</ele><time>2026-03-28T12:46:38.976Z</time></trkpt><trkpt lat="43.06216464182497" lon="11.427600543232188"><ele>470.0</ele><time>2026-03-28T12:46:39.976Z</time></trkpt><trkpt lat="43.06205146527842" lon="11.427619642291125"><ele>470.0</ele><time>2026-03-28T12:46:40.976Z</time></trkpt><trkpt lat="43.06195031764514" lon="11.427613391623158"><ele>470.0</ele><time>2026-03-28T12:46:41.976Z</time></trkpt><trkpt lat="43.06184760965599" lon="11.427590390659775"><ele>470.0</ele><time>2026-03-28T12:46:42.976Z</time></trkpt><trkpt lat="43.061748006004514" lon="11.427537814122704"><ele>470.0</ele><time>2026-03-28T12:46:43.976Z</time></trkpt><trkpt lat="43.0616513413384" lon="11.427457367176867"><ele>470.2</ele><time>2026-03-28T12:46:44.976Z</time></trkpt><trkpt lat="43.06155953756756" lon="11.427389191276408"><ele>470.4</ele><time>2026-03-28T12:46:45.976Z</time></trkpt><trkpt lat="43.06146502532902" lon="11.42735968211774"><ele>470.6</ele><time>2026-03-28T12:46:46.976Z</time></trkpt><trkpt lat="43.06135318598735" lon="11.427372687051054"><ele>470.8</ele><time>2026-03-28T12:46:47.976Z</time></trkpt><trkpt lat="43.06122159595842" lon="11.427376598882265"><ele>471.0</ele><time>2026-03-28T12:46:48.976Z</time></trkpt><trkpt lat="43.06109610917303" lon="11.427415897905052"><ele>471.0</ele><time>2026-03-28T12:46:49.976Z</time></trkpt><trkpt lat="43.06099382842761" lon="11.427458485342173"><ele>471.0</ele><time>2026-03-28T12:46:50.976Z</time></trkpt><trkpt lat="43.06091296758743" lon="11.427479791263076"><ele>471.0</ele><time>2026-03-28T12:46:51.976Z</time></trkpt><trkpt lat="43.06081701242197" lon="11.427470834831587"><ele>471.0</ele><time>2026-03-28T12:46:52.976Z</time></trkpt><trkpt lat="43.060730156724645" lon="11.427398699670348"><ele>471.0</ele><time>2026-03-28T12:46:53.976Z</time></trkpt><trkpt lat="43.06063170531219" lon="11.427311467772277"><ele>472.6</ele><time>2026-03-28T12:46:54.976Z</time></trkpt><trkpt lat="43.06053873069727" lon="11.427243913258668"><ele>474.20000000000005</ele><time>2026-03-28T12:46:55.976Z</time></trkpt><trkpt lat="43.06046086287218" lon="11.427199766770109"><ele>475.79999999999995</ele><time>2026-03-28T12:46:56.976Z</time></trkpt><trkpt lat="43.060390819517515" lon="11.427192517160776"><ele>477.4</ele><time>2026-03-28T12:46:57.976Z</time></trkpt><trkpt lat="43.06028565379978" lon="11.427321958739093"><ele>479.0</ele><time>2026-03-28T12:46:59.976Z</time></trkpt><trkpt lat="43.06029520576033" lon="11.42746127333438"><ele>479.0</ele><time>2026-03-28T12:47:00.976Z</time></trkpt><trkpt lat="43.06028537909188" lon="11.42759315342536"><ele>479.0</ele><time>2026-03-28T12:47:01.976Z</time></trkpt><trkpt lat="43.06024729280359" lon="11.4276819888313"><ele>479.0</ele><time>2026-03-28T12:47:02.976Z</time></trkpt><trkpt lat="43.06018559104637" lon="11.42774099628223"><ele>479.0</ele><time>2026-03-28T12:47:03.976Z</time></trkpt><trkpt lat="43.06009440526988" lon="11.42779367646862"><ele>479.0</ele><time>2026-03-28T12:47:04.976Z</time></trkpt><trkpt lat="43.05999127446607" lon="11.427849166563055"><ele>479.8333333333333</ele><time>2026-03-28T12:47:05.976Z</time></trkpt><trkpt lat="43.059912566107066" lon="11.427904784219633"><ele>480.66666666666663</ele><time>2026-03-28T12:47:06.976Z</time></trkpt><trkpt lat="43.059826869599405" lon="11.427902593292739"><ele>481.5</ele><time>2026-03-28T12:47:07.976Z</time></trkpt><trkpt lat="43.059757648639135" lon="11.427854583645233"><ele>482.33333333333337</ele><time>2026-03-28T12:47:08.976Z</time></trkpt><trkpt lat="43.059708627697184" lon="11.427750348799757"><ele>483.1666666666667</ele><time>2026-03-28T12:47:09.976Z</time></trkpt><trkpt lat="43.05963817019867" lon="11.427651549612415"><ele>484.0</ele><time>2026-03-28T12:47:10.976Z</time></trkpt><trkpt lat="43.059561621531465" lon="11.427530994459078"><ele>484.0</ele><time>2026-03-28T12:47:11.976Z</time></trkpt><trkpt lat="43.05948327236634" lon="11.427416019187847"><ele>484.0</ele><time>2026-03-28T12:47:12.976Z</time></trkpt><trkpt lat="43.05940865552369" lon="11.427343054184053"><ele>484.0</ele><time>2026-03-28T12:47:13.976Z</time></trkpt><trkpt lat="43.059359181467705" lon="11.427254971078346"><ele>484.0</ele><time>2026-03-28T12:47:14.976Z</time></trkpt><trkpt lat="43.059288451911854" lon="11.42720394740532"><ele>484.0</ele><time>2026-03-28T12:47:15.976Z</time></trkpt><trkpt lat="43.05919596580169" lon="11.42719624010227"><ele>487.0</ele><time>2026-03-28T12:47:16.976Z</time></trkpt><trkpt lat="43.05909360638667" lon="11.427254370046633"><ele>490.0</ele><time>2026-03-28T12:47:17.976Z</time></trkpt><trkpt lat="43.05902285296034" lon="11.427340185428081"><ele>493.0</ele><time>2026-03-28T12:47:18.976Z</time></trkpt><trkpt lat="43.05898676320881" lon="11.427439743277022"><ele>496.0</ele><time>2026-03-28T12:47:19.976Z</time></trkpt><trkpt lat="43.05898278993747" lon="11.427561128012258"><ele>499.0</ele><time>2026-03-28T12:47:20.976Z</time></trkpt><trkpt lat="43.05903758881331" lon="11.427651360197254"><ele>499.0</ele><time>2026-03-28T12:47:21.976Z</time></trkpt><trkpt lat="43.05907906051529" lon="11.42774464012297"><ele>499.0</ele><time>2026-03-28T12:47:22.976Z</time></trkpt><trkpt lat="43.05913403933654" lon="11.42787927987811"><ele>499.0</ele><time>2026-03-28T12:47:23.976Z</time></trkpt><trkpt lat="43.05918110715332" lon="11.428038960333557"><ele>499.0</ele><time>2026-03-28T12:47:24.976Z</time></trkpt><trkpt lat="43.05920563678653" lon="11.428178385507426"><ele>499.0</ele><time>2026-03-28T12:47:25.976Z</time></trkpt><trkpt lat="43.05919384846895" lon="11.428286559825827"><ele>497.4</ele><time>2026-03-28T12:47:26.976Z</time></trkpt><trkpt lat="43.0591338053652" lon="11.428355550790558"><ele>495.79999999999995</ele><time>2026-03-28T12:47:27.976Z</time></trkpt><trkpt lat="43.05904862517381" lon="11.428398917492546"><ele>494.20000000000005</ele><time>2026-03-28T12:47:28.976Z</time></trkpt><trkpt lat="43.05893059604446" lon="11.428390367851856"><ele>492.6</ele><time>2026-03-28T12:47:29.976Z</time></trkpt><trkpt lat="43.05883307569559" lon="11.428483062179264"><ele>491.0</ele><time>2026-03-28T12:47:30.976Z</time></trkpt><trkpt lat="43.058737214169675" lon="11.428573995832124"><ele>491.0</ele><time>2026-03-28T12:47:31.976Z</time></trkpt><trkpt lat="43.05864381494747" lon="11.428720724090926"><ele>491.0</ele><time>2026-03-28T12:47:32.976Z</time></trkpt><trkpt lat="43.05857268057553" lon="11.428888690840882"><ele>491.0</ele><time>2026-03-28T12:47:33.976Z</time></trkpt><trkpt lat="43.05852120712758" lon="11.429060113546477"><ele>491.0</ele><time>2026-03-28T12:47:34.976Z</time></trkpt><trkpt lat="43.058449181093444" lon="11.429228822503365"><ele>489.75</ele><time>2026-03-28T12:47:35.976Z</time></trkpt><trkpt lat="43.05839685866317" lon="11.429388844045551"><ele>488.5</ele><time>2026-03-28T12:47:36.976Z</time></trkpt><trkpt lat="43.05835205090435" lon="11.42956536983048"><ele>487.25</ele><time>2026-03-28T12:47:37.976Z</time></trkpt><trkpt lat="43.05832440843596" lon="11.429758406681033"><ele>486.0</ele><time>2026-03-28T12:47:38.976Z</time></trkpt><trkpt lat="43.058291598184745" lon="11.429956262774514"><ele>485.75</ele><time>2026-03-28T12:47:39.976Z</time></trkpt><trkpt lat="43.0582694882974" lon="11.430119650214625"><ele>485.5</ele><time>2026-03-28T12:47:40.976Z</time></trkpt><trkpt lat="43.05826427185274" lon="11.430264165333977"><ele>485.25</ele><time>2026-03-28T12:47:41.976Z</time></trkpt><trkpt lat="43.05827776814825" lon="11.43042490413557"><ele>485.0</ele><time>2026-03-28T12:47:42.976Z</time></trkpt><trkpt lat="43.05829579924437" lon="11.430596696910433"><ele>485.0</ele><time>2026-03-28T12:47:43.976Z</time></trkpt><trkpt lat="43.05828860996131" lon="11.430750447029652"><ele>485.0</ele><time>2026-03-28T12:47:44.976Z</time></trkpt><trkpt lat="43.05825106921031" lon="11.430870123946912"><ele>485.0</ele><time>2026-03-28T12:47:45.976Z</time></trkpt><trkpt lat="43.05817810447161" lon="11.430952166709648"><ele>485.0</ele><time>2026-03-28T12:47:46.975Z</time></trkpt><trkpt lat="43.05807049971186" lon="11.431016097453973"><ele>485.0</ele><time>2026-03-28T12:47:47.975Z</time></trkpt><trkpt lat="43.05794605378597" lon="11.43109744868076"><ele>485.75</ele><time>2026-03-28T12:47:48.975Z</time></trkpt><trkpt lat="43.057825770665204" lon="11.4311908031654"><ele>486.5</ele><time>2026-03-28T12:47:49.975Z</time></trkpt><trkpt lat="43.05768666585125" lon="11.431247635395687"><ele>487.25</ele><time>2026-03-28T12:47:50.975Z</time></trkpt><trkpt lat="43.05755975279699" lon="11.431344331843171"><ele>488.0</ele><time>2026-03-28T12:47:51.975Z</time></trkpt><trkpt lat="43.05746211394201" lon="11.43147085440959"><ele>488.25</ele><time>2026-03-28T12:47:52.975Z</time></trkpt><trkpt lat="43.05737059653179" lon="11.431596478777752"><ele>488.5</ele><time>2026-03-28T12:47:53.975Z</time></trkpt><trkpt lat="43.0572715438923" lon="11.431705700183572"><ele>488.75</ele><time>2026-03-28T12:47:54.975Z</time></trkpt><trkpt lat="43.05719823974892" lon="11.431815856166585"><ele>489.0</ele><time>2026-03-28T12:47:55.975Z</time></trkpt><trkpt lat="43.057149756355436" lon="11.431925911570284"><ele>489.0</ele><time>2026-03-28T12:47:56.975Z</time></trkpt><trkpt lat="43.057090807178966" lon="11.432013258760218"><ele>489.0</ele><time>2026-03-28T12:47:57.975Z</time></trkpt><trkpt lat="43.057053094658585" lon="11.432104106197"><ele>489.0</ele><time>2026-03-28T12:47:58.975Z</time></trkpt><trkpt lat="43.057013249346646" lon="11.432185244410102"><ele>489.0</ele><time>2026-03-28T12:47:59.975Z</time></trkpt><trkpt lat="43.056976687980544" lon="11.432261469272264"><ele>489.0</ele><time>2026-03-28T12:48:00.975Z</time></trkpt><trkpt lat="43.056922290192105" lon="11.43236298498895"><ele>489.0</ele><time>2026-03-28T12:48:02.975Z</time></trkpt><trkpt lat="43.056863936266275" lon="11.43244995994626"><ele>489.1666666666667</ele><time>2026-03-28T12:48:50.976Z</time></trkpt><trkpt lat="43.056809386983154" lon="11.43256645779064"><ele>489.33333333333337</ele><time>2026-03-28T12:48:52.976Z</time></trkpt><trkpt lat="43.056763904609554" lon="11.43264253520367"><ele>489.5</ele><time>2026-03-28T12:48:53.976Z</time></trkpt><trkpt lat="43.05671666021858" lon="11.432708496452737"><ele>489.6666666666667</ele><time>2026-03-28T12:48:54.976Z</time></trkpt><trkpt lat="43.0566627595796" lon="11.43277965752"><ele>489.83333333333337</ele><time>2026-03-28T12:48:55.976Z</time></trkpt><trkpt lat="43.056603431136345" lon="11.4328672356423"><ele>490.0</ele><time>2026-03-28T12:48:56.976Z</time></trkpt><trkpt lat="43.056549933143394" lon="11.43295405092482"><ele>491.4</ele><time>2026-03-28T12:48:57.976Z</time></trkpt><trkpt lat="43.056490694210375" lon="11.433041529330998"><ele>492.8</ele><time>2026-03-28T12:48:58.976Z</time></trkpt><trkpt lat="43.05641889970913" lon="11.433121743430215"><ele>494.20000000000005</ele><time>2026-03-28T12:48:59.976Z</time></trkpt><trkpt lat="43.05632665657609" lon="11.433196202124801"><ele>495.6</ele><time>2026-03-28T12:49:00.976Z</time></trkpt><trkpt lat="43.05621520902121" lon="11.433255216765842"><ele>497.0</ele><time>2026-03-28T12:49:01.976Z</time></trkpt><trkpt lat="43.0560965095" lon="11.433292951549284"><ele>497.0</ele><time>2026-03-28T12:49:02.976Z</time></trkpt><trkpt lat="43.055996521900255" lon="11.43332815355948"><ele>497.00000000000006</ele><time>2026-03-28T12:49:03.976Z</time></trkpt><trkpt lat="43.055908560365715" lon="11.433360665616515"><ele>497.00000000000006</ele><time>2026-03-28T12:49:04.976Z</time></trkpt><trkpt lat="43.055823751293666" lon="11.433389602037357"><ele>497.0</ele><time>2026-03-28T12:49:05.976Z</time></trkpt><trkpt lat="43.055738759891895" lon="11.433421487970987"><ele>497.0</ele><time>2026-03-28T12:49:06.976Z</time></trkpt><trkpt lat="43.05565039566254" lon="11.43344105925467"><ele>496.8333333333333</ele><time>2026-03-28T12:49:07.976Z</time></trkpt><trkpt lat="43.05557112099558" lon="11.433493087384242"><ele>496.66666666666663</ele><time>2026-03-28T12:49:08.976Z</time></trkpt><trkpt lat="43.0555014776944" lon="11.433541283735737"><ele>496.5</ele><time>2026-03-28T12:49:09.976Z</time></trkpt><trkpt lat="43.05543785463144" lon="11.433607645006575"><ele>496.33333333333337</ele><time>2026-03-28T12:49:10.976Z</time></trkpt><trkpt lat="43.05536188175104" lon="11.433644221668096"><ele>496.1666666666667</ele><time>2026-03-28T12:49:11.976Z</time></trkpt><trkpt lat="43.055277280245015" lon="11.433677243500124"><ele>496.0</ele><time>2026-03-28T12:49:12.976Z</time></trkpt><trkpt lat="43.05517943231936" lon="11.43370505846278"><ele>496.0</ele><time>2026-03-28T12:49:13.976Z</time></trkpt><trkpt lat="43.05508534092496" lon="11.433734843397286"><ele>496.0</ele><time>2026-03-28T12:49:14.976Z</time></trkpt><trkpt lat="43.054980519304884" lon="11.433775087979827"><ele>496.0</ele><time>2026-03-28T12:49:15.976Z</time></trkpt><trkpt lat="43.0548730368558" lon="11.433832856034584"><ele>496.0</ele><time>2026-03-28T12:49:16.976Z</time></trkpt><trkpt lat="43.05475906813722" lon="11.433898121773408"><ele>496.0</ele><time>2026-03-28T12:49:17.976Z</time></trkpt><trkpt lat="43.05464815611814" lon="11.433976859642785"><ele>493.5</ele><time>2026-03-28T12:49:18.976Z</time></trkpt><trkpt lat="43.054538881286064" lon="11.434051714206676"><ele>491.0</ele><time>2026-03-28T12:49:19.976Z</time></trkpt><trkpt lat="43.05442639068128" lon="11.434108126382007"><ele>488.5</ele><time>2026-03-28T12:49:20.976Z</time></trkpt><trkpt lat="43.05431331853356" lon="11.434163093233206"><ele>486.0</ele><time>2026-03-28T12:49:21.976Z</time></trkpt><trkpt lat="43.05420715859136" lon="11.434210469039682"><ele>485.6</ele><time>2026-03-28T12:49:22.976Z</time></trkpt><trkpt lat="43.054104995096196" lon="11.434245041969833"><ele>485.20000000000005</ele><time>2026-03-28T12:49:23.976Z</time></trkpt><trkpt lat="43.0540100209691" lon="11.434267797564193"><ele>484.79999999999995</ele><time>2026-03-28T12:49:24.976Z</time></trkpt><trkpt lat="43.053918016476004" lon="11.434284140107536"><ele>484.4</ele><time>2026-03-28T12:49:25.976Z</time></trkpt><trkpt lat="43.053832275552956" lon="11.434300973868174"><ele>484.0</ele><time>2026-03-28T12:49:26.976Z</time></trkpt><trkpt lat="43.05374481989789" lon="11.434331756681315"><ele>484.0</ele><time>2026-03-28T12:49:27.976Z</time></trkpt><trkpt lat="43.0536506346875" lon="11.434390170678427"><ele>484.0</ele><time>2026-03-28T12:49:28.976Z</time></trkpt><trkpt lat="43.05357672978475" lon="11.434459635413113"><ele>484.0</ele><time>2026-03-28T12:49:29.976Z</time></trkpt><trkpt lat="43.053511228608784" lon="11.43454266913688"><ele>484.0</ele><time>2026-03-28T12:49:30.976Z</time></trkpt><trkpt lat="43.053428448521935" lon="11.434621020187954"><ele>484.0</ele><time>2026-03-28T12:49:31.976Z</time></trkpt><trkpt lat="43.05336063439808" lon="11.434735852114953"><ele>482.25</ele><time>2026-03-28T12:49:32.976Z</time></trkpt><trkpt lat="43.05331098856278" lon="11.434873925774713"><ele>480.5</ele><time>2026-03-28T12:49:33.976Z</time></trkpt><trkpt lat="43.05325419283023" lon="11.435023395794612"><ele>478.75</ele><time>2026-03-28T12:49:34.976Z</time></trkpt><trkpt lat="43.05320352325451" lon="11.435181957915558"><ele>477.0</ele><time>2026-03-28T12:49:35.976Z</time></trkpt><trkpt lat="43.0531473535463" lon="11.4353354171723"><ele>474.0</ele><time>2026-03-28T12:49:36.976Z</time></trkpt><trkpt lat="43.05310695545545" lon="11.435507673711887"><ele>471.0</ele><time>2026-03-28T12:49:37.976Z</time></trkpt><trkpt lat="43.05308064554322" lon="11.435706472215957"><ele>468.0</ele><time>2026-03-28T12:49:38.976Z</time></trkpt><trkpt lat="43.05306070254945" lon="11.435883963310467"><ele>465.0</ele><time>2026-03-28T12:49:39.976Z</time></trkpt><trkpt lat="43.05303874259604" lon="11.436052660757866"><ele>465.0</ele><time>2026-03-28T12:49:40.976Z</time></trkpt><trkpt lat="43.053020028775634" lon="11.436196421394344"><ele>465.0</ele><time>2026-03-28T12:49:41.976Z</time></trkpt><trkpt lat="43.05299387078373" lon="11.43632306588646"><ele>465.0</ele><time>2026-03-28T12:49:42.975Z</time></trkpt><trkpt lat="43.052960898661645" lon="11.436456444485806"><ele>465.0</ele><time>2026-03-28T12:49:43.975Z</time></trkpt><trkpt lat="43.05287088130798" lon="11.436564124309614"><ele>465.0</ele><time>2026-03-28T12:49:44.975Z</time></trkpt><trkpt lat="43.05278261279226" lon="11.436667523239143"><ele>465.75</ele><time>2026-03-28T12:49:45.975Z</time></trkpt><trkpt lat="43.05268586219029" lon="11.436752244220129"><ele>466.5</ele><time>2026-03-28T12:49:46.975Z</time></trkpt><trkpt lat="43.0525907960064" lon="11.43681497093252"><ele>467.25</ele><time>2026-03-28T12:49:47.975Z</time></trkpt><trkpt lat="43.052474579382675" lon="11.436804294871202"><ele>468.0</ele><time>2026-03-28T12:49:48.975Z</time></trkpt><trkpt lat="43.052355985673294" lon="11.436768575868035"><ele>468.25</ele><time>2026-03-28T12:49:49.975Z</time></trkpt><trkpt lat="43.052231717054696" lon="11.436737846726219"><ele>468.5</ele><time>2026-03-28T12:49:50.975Z</time></trkpt><trkpt lat="43.052103123451325" lon="11.436747165381021"><ele>468.75</ele><time>2026-03-28T12:49:51.975Z</time></trkpt><trkpt lat="43.05196944165996" lon="11.436790779679965"><ele>469.0</ele><time>2026-03-28T12:49:52.975Z</time></trkpt><trkpt lat="43.05183949518978" lon="11.436833018299506"><ele>469.0</ele><time>2026-03-28T12:49:53.975Z</time></trkpt><trkpt lat="43.05172380255143" lon="11.436871377590066"><ele>469.0</ele><time>2026-03-28T12:49:54.975Z</time></trkpt><trkpt lat="43.051626926747375" lon="11.436896264284078"><ele>469.0</ele><time>2026-03-28T12:49:55.975Z</time></trkpt><trkpt lat="43.05154551746995" lon="11.436951655444183"><ele>469.0</ele><time>2026-03-28T12:49:56.975Z</time></trkpt><trkpt lat="43.051474522415646" lon="11.43706165083238"><ele>469.0</ele><time>2026-03-28T12:49:57.975Z</time></trkpt><trkpt lat="43.0514066583322" lon="11.43720039974195"><ele>469.25</ele><time>2026-03-28T12:49:58.975Z</time></trkpt><trkpt lat="43.051316598410246" lon="11.437330117149745"><ele>469.5</ele><time>2026-03-28T12:49:59.975Z</time></trkpt><trkpt lat="43.05121976700405" lon="11.437450230740403"><ele>469.75</ele><time>2026-03-28T12:50:00.975Z</time></trkpt><trkpt lat="43.05109436953625" lon="11.437565250164496"><ele>470.0</ele><time>2026-03-28T12:50:01.975Z</time></trkpt><trkpt lat="43.05095824892177" lon="11.43765721512122"><ele>470.0</ele><time>2026-03-28T12:50:02.975Z</time></trkpt><trkpt lat="43.05083280855054" lon="11.437722418980066"><ele>470.0</ele><time>2026-03-28T12:50:03.975Z</time></trkpt><trkpt lat="43.05072351536058" lon="11.437792101165233"><ele>470.0</ele><time>2026-03-28T12:50:04.975Z</time></trkpt><trkpt lat="43.05062290163186" lon="11.43787184952131"><ele>470.0</ele><time>2026-03-28T12:50:05.975Z</time></trkpt><trkpt lat="43.05054470745986" lon="11.437954873909092"><ele>473.0</ele><time>2026-03-28T12:50:06.975Z</time></trkpt><trkpt lat="43.05048093171769" lon="11.438059852081588"><ele>476.0</ele><time>2026-03-28T12:50:07.975Z</time></trkpt><trkpt lat="43.05044245887303" lon="11.438226225615812"><ele>479.0</ele><time>2026-03-28T12:50:08.975Z</time></trkpt><trkpt lat="43.05042569083108" lon="11.438394877125262"><ele>482.0</ele><time>2026-03-28T12:50:09.975Z</time></trkpt><trkpt lat="43.05040272533006" lon="11.43855212389874"><ele>482.0</ele><time>2026-03-28T12:50:10.975Z</time></trkpt><trkpt lat="43.05036895982733" lon="11.438681013794676"><ele>482.00000000000006</ele><time>2026-03-28T12:50:11.975Z</time></trkpt><trkpt lat="43.050350100427856" lon="11.438803902612234"><ele>482.00000000000006</ele><time>2026-03-28T12:50:12.975Z</time></trkpt><trkpt lat="43.050369526981285" lon="11.438925585137838"><ele>482.0</ele><time>2026-03-28T12:50:13.975Z</time></trkpt><trkpt lat="43.05045298799886" lon="11.439066771723493"><ele>482.0</ele><time>2026-03-28T12:50:14.975Z</time></trkpt><trkpt lat="43.05052566089864" lon="11.43920364174674"><ele>481.75</ele><time>2026-03-28T12:50:15.975Z</time></trkpt><trkpt lat="43.05059409519834" lon="11.439338467859434"><ele>481.5</ele><time>2026-03-28T12:50:16.975Z</time></trkpt><trkpt lat="43.05066781892795" lon="11.439465689797196"><ele>481.25</ele><time>2026-03-28T12:50:17.975Z</time></trkpt><trkpt lat="43.050707175393335" lon="11.439607666643772"><ele>481.0</ele><time>2026-03-28T12:50:18.975Z</time></trkpt><trkpt lat="43.050719228640645" lon="11.439768731955567"><ele>481.0</ele><time>2026-03-28T12:50:19.975Z</time></trkpt><trkpt lat="43.050701601606704" lon="11.439929075026447"><ele>481.0</ele><time>2026-03-28T12:50:20.975Z</time></trkpt><trkpt lat="43.05067672482555" lon="11.44008014379144"><ele>481.0</ele><time>2026-03-28T12:50:21.975Z</time></trkpt><trkpt lat="43.05063870598897" lon="11.440236333339712"><ele>481.0</ele><time>2026-03-28T12:50:22.975Z</time></trkpt><trkpt lat="43.05057339611099" lon="11.440369931389906"><ele>477.5</ele><time>2026-03-28T12:50:23.975Z</time></trkpt><trkpt lat="43.0504874644489" lon="11.440481540745868"><ele>474.0</ele><time>2026-03-28T12:50:24.975Z</time></trkpt><trkpt lat="43.050379773936896" lon="11.440556206286663"><ele>470.5</ele><time>2026-03-28T12:50:25.975Z</time></trkpt><trkpt lat="43.050269578820654" lon="11.44064560309535"><ele>467.0</ele><time>2026-03-28T12:50:26.975Z</time></trkpt><trkpt lat="43.05018668059372" lon="11.440753530494952"><ele>467.0</ele><time>2026-03-28T12:50:27.975Z</time></trkpt><trkpt lat="43.05010379090217" lon="11.440851566916038"><ele>467.0</ele><time>2026-03-28T12:50:28.975Z</time></trkpt><trkpt lat="43.050051329605886" lon="11.440990305392189"><ele>467.0</ele><time>2026-03-28T12:50:29.975Z</time></trkpt><trkpt lat="43.050041455112634" lon="11.441150118532775"><ele>467.0</ele><time>2026-03-28T12:50:30.975Z</time></trkpt><trkpt lat="43.050054844992715" lon="11.441325354624004"><ele>464.66666666666663</ele><time>2026-03-28T12:50:31.975Z</time></trkpt><trkpt lat="43.05006702872888" lon="11.441521185061202"><ele>462.33333333333337</ele><time>2026-03-28T12:50:32.975Z</time></trkpt><trkpt lat="43.05006393210401" lon="11.441738258354398"><ele>460.0</ele><time>2026-03-28T12:50:33.975Z</time></trkpt><trkpt lat="43.05007828502651" lon="11.441954717922236"><ele>461.33333333333337</ele><time>2026-03-28T12:50:34.975Z</time></trkpt><trkpt lat="43.050086744669564" lon="11.442178350622934"><ele>462.66666666666663</ele><time>2026-03-28T12:50:35.975Z</time></trkpt><trkpt lat="43.05009734509959" lon="11.442403260775606"><ele>464.0</ele><time>2026-03-28T12:50:36.976Z</time></trkpt><trkpt lat="43.05010101205467" lon="11.442627740754045"><ele>464.0</ele><time>2026-03-28T12:50:37.975Z</time></trkpt><trkpt lat="43.050113938762" lon="11.442829135459032"><ele>464.0</ele><time>2026-03-28T12:50:38.975Z</time></trkpt><trkpt lat="43.050131672079814" lon="11.443006717227924"><ele>464.0</ele><time>2026-03-28T12:50:39.975Z</time></trkpt><trkpt lat="43.05012947005061" lon="11.443174832263804"><ele>464.0</ele><time>2026-03-28T12:50:40.975Z</time></trkpt><trkpt lat="43.050142108533635" lon="11.443338800213409"><ele>465.75</ele><time>2026-03-28T12:50:41.975Z</time></trkpt><trkpt lat="43.05011458878714" lon="11.443512193536924"><ele>467.5</ele><time>2026-03-28T12:50:42.975Z</time></trkpt><trkpt lat="43.050070041621304" lon="11.44369729811093"><ele>469.25</ele><time>2026-03-28T12:50:43.975Z</time></trkpt><trkpt lat="43.050024406352335" lon="11.44388849154715"><ele>471.0</ele><time>2026-03-28T12:50:44.975Z</time></trkpt><trkpt lat="43.049968897589665" lon="11.444075618585716"><ele>470.75</ele><time>2026-03-28T12:50:45.975Z</time></trkpt><trkpt lat="43.04995527617668" lon="11.444263458582713"><ele>470.5</ele><time>2026-03-28T12:50:46.975Z</time></trkpt><trkpt lat="43.049931701269045" lon="11.444451054270553"><ele>470.25</ele><time>2026-03-28T12:50:47.975Z</time></trkpt><trkpt lat="43.049926489858436" lon="11.444640900555505"><ele>470.0</ele><time>2026-03-28T12:50:48.975Z</time></trkpt><trkpt lat="43.049934829410226" lon="11.444822073674935"><ele>468.2</ele><time>2026-03-28T12:50:49.975Z</time></trkpt><trkpt lat="43.04993569411" lon="11.444976641339698"><ele>466.4</ele><time>2026-03-28T12:50:50.975Z</time></trkpt><trkpt lat="43.04992972721488" lon="11.445100320606432"><ele>464.6</ele><time>2026-03-28T12:50:51.975Z</time></trkpt><trkpt lat="43.0499129472009" lon="11.44522245790277"><ele>462.8</ele><time>2026-03-28T12:50:52.975Z</time></trkpt><trkpt lat="43.04987662860919" lon="11.445355084515706"><ele>461.0</ele><time>2026-03-28T12:50:53.975Z</time></trkpt><trkpt lat="43.04981431364109" lon="11.445495107158587"><ele>461.0</ele><time>2026-03-28T12:50:54.975Z</time></trkpt><trkpt lat="43.049755707472464" lon="11.445630065890649"><ele>461.0</ele><time>2026-03-28T12:50:55.975Z</time></trkpt><trkpt lat="43.049706911130464" lon="11.445764832992715"><ele>461.0</ele><time>2026-03-28T12:50:56.975Z</time></trkpt><trkpt lat="43.04967084504068" lon="11.445913735395013"><ele>461.0</ele><time>2026-03-28T12:50:57.975Z</time></trkpt><trkpt lat="43.04964763446509" lon="11.446078785303325"><ele>461.0</ele><time>2026-03-28T12:50:58.975Z</time></trkpt><trkpt lat="43.049629757075984" lon="11.446252230948543"><ele>461.0</ele><time>2026-03-28T12:50:59.975Z</time></trkpt><trkpt lat="43.04961480031789" lon="11.446429857793683"><ele>461.0</ele><time>2026-03-28T12:51:00.975Z</time></trkpt><trkpt lat="43.049586198875694" lon="11.446613170844776"><ele>461.0</ele><time>2026-03-28T12:51:01.975Z</time></trkpt><trkpt lat="43.04957818220884" lon="11.446807842872294"><ele>462.0</ele><time>2026-03-28T12:51:02.975Z</time></trkpt><trkpt lat="43.049571192641714" lon="11.447000929110459"><ele>463.0</ele><time>2026-03-28T12:51:03.975Z</time></trkpt><trkpt lat="43.04956850127154" lon="11.44718071691786"><ele>464.0</ele><time>2026-03-28T12:51:04.975Z</time></trkpt><trkpt lat="43.04956797582994" lon="11.44735639036644"><ele>465.0</ele><time>2026-03-28T12:51:05.975Z</time></trkpt><trkpt lat="43.04956888831364" lon="11.44752265217493"><ele>465.2</ele><time>2026-03-28T12:51:06.975Z</time></trkpt><trkpt lat="43.049569375677365" lon="11.447672644435357"><ele>465.4</ele><time>2026-03-28T12:51:07.975Z</time></trkpt><trkpt lat="43.04958423060965" lon="11.447820891141301"><ele>465.6</ele><time>2026-03-28T12:51:08.975Z</time></trkpt><trkpt lat="43.04961826001506" lon="11.447960051148812"><ele>465.8</ele><time>2026-03-28T12:51:09.975Z</time></trkpt><trkpt lat="43.04967294816807" lon="11.448085119486601"><ele>466.0</ele><time>2026-03-28T12:51:10.975Z</time></trkpt><trkpt lat="43.04969844444891" lon="11.448186955948819"><ele>466.6</ele><time>2026-03-28T12:51:11.975Z</time></trkpt><trkpt lat="43.0497045597906" lon="11.448277073945027"><ele>467.20000000000005</ele><time>2026-03-28T12:51:12.975Z</time></trkpt><trkpt lat="43.049690915565996" lon="11.44837229085352"><ele>467.79999999999995</ele><time>2026-03-28T12:51:13.975Z</time></trkpt><trkpt lat="43.049606361736" lon="11.448491514828387"><ele>468.4</ele><time>2026-03-28T12:51:14.975Z</time></trkpt><trkpt lat="43.04951025803952" lon="11.448586770221219"><ele>469.0</ele><time>2026-03-28T12:51:15.975Z</time></trkpt><trkpt lat="43.049412137759106" lon="11.448692325884647"><ele>469.6666666666667</ele><time>2026-03-28T12:51:16.975Z</time></trkpt><trkpt lat="43.0493140926401" lon="11.44883503207464"><ele>470.33333333333337</ele><time>2026-03-28T12:51:17.975Z</time></trkpt><trkpt lat="43.04920202213778" lon="11.448986589890668"><ele>471.0</ele><time>2026-03-28T12:51:18.975Z</time></trkpt><trkpt lat="43.049093337297904" lon="11.449153546432886"><ele>471.0</ele><time>2026-03-28T12:51:19.975Z</time></trkpt><trkpt lat="43.04895515422242" lon="11.449292538859508"><ele>471.0</ele><time>2026-03-28T12:51:20.975Z</time></trkpt><trkpt lat="43.04885335420495" lon="11.449450274846727"><ele>471.0</ele><time>2026-03-28T12:51:21.975Z</time></trkpt><trkpt lat="43.04875723732689" lon="11.449598955496743"><ele>474.25</ele><time>2026-03-28T12:51:22.975Z</time></trkpt><trkpt lat="43.04866347380231" lon="11.449733737719152"><ele>477.5</ele><time>2026-03-28T12:51:23.975Z</time></trkpt><trkpt lat="43.048586144602915" lon="11.44985150058092"><ele>480.75</ele><time>2026-03-28T12:51:24.975Z</time></trkpt><trkpt lat="43.04851016694236" lon="11.449953533823345"><ele>484.0</ele><time>2026-03-28T12:51:25.975Z</time></trkpt><trkpt lat="43.048430419856686" lon="11.450065617868551"><ele>484.0</ele><time>2026-03-28T12:51:26.975Z</time></trkpt><trkpt lat="43.04835185764628" lon="11.450157100252092"><ele>484.0</ele><time>2026-03-28T12:51:27.975Z</time></trkpt><trkpt lat="43.04826722599034" lon="11.450236262291694"><ele>484.0</ele><time>2026-03-28T12:51:28.975Z</time></trkpt><trkpt lat="43.04819767835832" lon="11.450306023934768"><ele>484.0</ele><time>2026-03-28T12:51:29.975Z</time></trkpt><trkpt lat="43.04814504239779" lon="11.450386847024454"><ele>484.0</ele><time>2026-03-28T12:51:30.975Z</time></trkpt><trkpt lat="43.048103369492296" lon="11.450488247723383"><ele>483.4</ele><time>2026-03-28T12:51:31.975Z</time></trkpt><trkpt lat="43.04806654239711" lon="11.45062001825563"><ele>482.79999999999995</ele><time>2026-03-28T12:51:32.975Z</time></trkpt><trkpt lat="43.048044672629324" lon="11.450750670967434"><ele>482.20000000000005</ele><time>2026-03-28T12:51:33.975Z</time></trkpt><trkpt lat="43.04801854916779" lon="11.450903299568635"><ele>481.6</ele><time>2026-03-28T12:51:34.975Z</time></trkpt><trkpt lat="43.04798774990701" lon="11.451080814123358"><ele>481.0</ele><time>2026-03-28T12:51:35.975Z</time></trkpt><trkpt lat="43.047966620993485" lon="11.451269110510589"><ele>481.8</ele><time>2026-03-28T12:51:36.975Z</time></trkpt><trkpt lat="43.04794361874989" lon="11.451446164037254"><ele>482.6</ele><time>2026-03-28T12:51:37.975Z</time></trkpt><trkpt lat="43.047879801461164" lon="11.451585009415613"><ele>483.4</ele><time>2026-03-28T12:51:38.975Z</time></trkpt><trkpt lat="43.04783705471359" lon="11.451716611446376"><ele>484.2</ele><time>2026-03-28T12:51:39.975Z</time></trkpt><trkpt lat="43.047800080837945" lon="11.451830440444219"><ele>485.0</ele><time>2026-03-28T12:51:40.975Z</time></trkpt><trkpt lat="43.04776742121881" lon="11.451926271658683"><ele>485.0</ele><time>2026-03-28T12:51:41.975Z</time></trkpt><trkpt lat="43.04773747875941" lon="11.452011002377837"><ele>485.0</ele><time>2026-03-28T12:51:42.975Z</time></trkpt><trkpt lat="43.0477107225767" lon="11.452121312319134"><ele>485.0</ele><time>2026-03-28T12:51:43.975Z</time></trkpt><trkpt lat="43.04768116842954" lon="11.452267151174318"><ele>485.0</ele><time>2026-03-28T12:51:44.975Z</time></trkpt><trkpt lat="43.04765335909638" lon="11.452436774136885"><ele>485.0</ele><time>2026-03-28T12:51:45.975Z</time></trkpt><trkpt lat="43.047625998120374" lon="11.452624572432"><ele>486.25</ele><time>2026-03-28T12:51:46.975Z</time></trkpt><trkpt lat="43.047581638624806" lon="11.45281078363844"><ele>487.5</ele><time>2026-03-28T12:51:47.975Z</time></trkpt><trkpt lat="43.04754360896075" lon="11.453015537620365"><ele>488.75</ele><time>2026-03-28T12:51:48.975Z</time></trkpt><trkpt lat="43.04751630208889" lon="11.453213493732544"><ele>490.0</ele><time>2026-03-28T12:51:49.975Z</time></trkpt><trkpt lat="43.04749633359986" lon="11.453399096613438"><ele>491.4</ele><time>2026-03-28T12:51:50.975Z</time></trkpt><trkpt lat="43.04745857069454" lon="11.453551075527919"><ele>492.8</ele><time>2026-03-28T12:51:51.975Z</time></trkpt><trkpt lat="43.04744052618497" lon="11.453677780974685"><ele>494.20000000000005</ele><time>2026-03-28T12:51:52.975Z</time></trkpt><trkpt lat="43.04740337909971" lon="11.453775828918763"><ele>495.6</ele><time>2026-03-28T12:51:53.975Z</time></trkpt><trkpt lat="43.04734539255815" lon="11.453861737894385"><ele>497.0</ele><time>2026-03-28T12:51:54.975Z</time></trkpt><trkpt lat="43.04726518144628" lon="11.453933778581785"><ele>498.25</ele><time>2026-03-28T12:51:55.975Z</time></trkpt><trkpt lat="43.04716353876681" lon="11.453993901447408"><ele>499.5</ele><time>2026-03-28T12:51:56.975Z</time></trkpt><trkpt lat="43.04703908946514" lon="11.454070849821973"><ele>500.75</ele><time>2026-03-28T12:51:57.975Z</time></trkpt><trkpt lat="43.04690308772116" lon="11.454150305378887"><ele>502.0</ele><time>2026-03-28T12:51:58.975Z</time></trkpt><trkpt lat="43.04676877005058" lon="11.454240818155146"><ele>503.6666666666667</ele><time>2026-03-28T12:51:59.975Z</time></trkpt><trkpt lat="43.04662665281962" lon="11.45431268721819"><ele>505.33333333333337</ele><time>2026-03-28T12:52:00.975Z</time></trkpt><trkpt lat="43.046498366262526" lon="11.454435479938814"><ele>507.0</ele><time>2026-03-28T12:52:01.975Z</time></trkpt><trkpt lat="43.04636844015528" lon="11.45455439083458"><ele>507.0</ele><time>2026-03-28T12:52:02.975Z</time></trkpt><trkpt lat="43.046253234228324" lon="11.454666954599384"><ele>507.0</ele><time>2026-03-28T12:52:03.975Z</time></trkpt><trkpt lat="43.046147266369395" lon="11.454755967790664"><ele>507.0</ele><time>2026-03-28T12:52:04.975Z</time></trkpt><trkpt lat="43.04604494079603" lon="11.454824749338112"><ele>507.0</ele><time>2026-03-28T12:52:05.975Z</time></trkpt><trkpt lat="43.04594474798416" lon="11.454880854199315"><ele>507.0</ele><time>2026-03-28T12:52:06.975Z</time></trkpt><trkpt lat="43.04585013302525" lon="11.454939829547206"><ele>507.00000000000006</ele><time>2026-03-28T12:52:07.975Z</time></trkpt><trkpt lat="43.04576025536216" lon="11.454997226143204"><ele>507.00000000000006</ele><time>2026-03-28T12:52:08.975Z</time></trkpt><trkpt lat="43.04567666730244" lon="11.455057328909124"><ele>507.0</ele><time>2026-03-28T12:52:09.975Z</time></trkpt><trkpt lat="43.04558120051798" lon="11.45510466630886"><ele>507.0</ele><time>2026-03-28T12:52:10.975Z</time></trkpt><trkpt lat="43.045508440886685" lon="11.45519156534"><ele>506.75</ele><time>2026-03-28T12:52:11.975Z</time></trkpt><trkpt lat="43.04544551097189" lon="11.455279348747252"><ele>506.5</ele><time>2026-03-28T12:52:12.975Z</time></trkpt><trkpt lat="43.04538656236116" lon="11.4554103560828"><ele>506.25</ele><time>2026-03-28T12:52:13.975Z</time></trkpt><trkpt lat="43.04531302879705" lon="11.455564158142094"><ele>506.0</ele><time>2026-03-28T12:52:14.975Z</time></trkpt><trkpt lat="43.04523575679983" lon="11.455716777755601"><ele>505.5</ele><time>2026-03-28T12:52:15.974Z</time></trkpt><trkpt lat="43.045154545802454" lon="11.455874560079225"><ele>505.0</ele><time>2026-03-28T12:52:16.974Z</time></trkpt><trkpt lat="43.04506923045083" lon="11.456029574582052"><ele>504.5</ele><time>2026-03-28T12:52:17.974Z</time></trkpt><trkpt lat="43.04499283525913" lon="11.456169825893774"><ele>504.0</ele><time>2026-03-28T12:52:18.974Z</time></trkpt><trkpt lat="43.04492357786776" lon="11.456306476435929"><ele>503.5</ele><time>2026-03-28T12:52:19.974Z</time></trkpt><trkpt lat="43.044866687868975" lon="11.456433484070088"><ele>503.0</ele><time>2026-03-28T12:52:20.974Z</time></trkpt><trkpt lat="43.04480239635208" lon="11.456559975404735"><ele>502.5</ele><time>2026-03-28T12:52:21.974Z</time></trkpt><trkpt lat="43.04476345256957" lon="11.456713079296064"><ele>502.0</ele><time>2026-03-28T12:52:22.974Z</time></trkpt><trkpt lat="43.044770567240306" lon="11.456896039070475"><ele>502.0</ele><time>2026-03-28T12:52:23.974Z</time></trkpt><trkpt lat="43.044750072005485" lon="11.457077164880433"><ele>502.00000000000006</ele><time>2026-03-28T12:52:24.974Z</time></trkpt><trkpt lat="43.04473474259458" lon="11.457225060458413"><ele>502.00000000000006</ele><time>2026-03-28T12:52:25.974Z</time></trkpt><trkpt lat="43.044676299179024" lon="11.457334986301866"><ele>502.0</ele><time>2026-03-28T12:52:26.974Z</time></trkpt><trkpt lat="43.04458618443231" lon="11.457410267040808"><ele>502.0</ele><time>2026-03-28T12:52:27.974Z</time></trkpt><trkpt lat="43.04449573714942" lon="11.457515829139771"><ele>503.0</ele><time>2026-03-28T12:52:28.974Z</time></trkpt><trkpt lat="43.04438582324813" lon="11.457609242447097"><ele>504.0</ele><time>2026-03-28T12:52:29.974Z</time></trkpt><trkpt lat="43.044273433733665" lon="11.457698809891603"><ele>505.0</ele><time>2026-03-28T12:52:30.974Z</time></trkpt><trkpt lat="43.0441799758866" lon="11.457811284824787"><ele>506.0</ele><time>2026-03-28T12:52:31.974Z</time></trkpt><trkpt lat="43.044085209316165" lon="11.45791570653852"><ele>506.25</ele><time>2026-03-28T12:52:32.974Z</time></trkpt><trkpt lat="43.04400996062231" lon="11.458082403570534"><ele>506.5</ele><time>2026-03-28T12:52:33.974Z</time></trkpt><trkpt lat="43.04391889415797" lon="11.458232189629618"><ele>506.75</ele><time>2026-03-28T12:52:34.974Z</time></trkpt><trkpt lat="43.0438176210702" lon="11.458380059864648"><ele>507.0</ele><time>2026-03-28T12:52:35.974Z</time></trkpt><trkpt lat="43.043718267281875" lon="11.458542380224117"><ele>507.0</ele><time>2026-03-28T12:52:36.974Z</time></trkpt><trkpt lat="43.04362318948088" lon="11.45869516368728"><ele>507.0</ele><time>2026-03-28T12:52:37.974Z</time></trkpt><trkpt lat="43.04353182198176" lon="11.45884055124278"><ele>507.0</ele><time>2026-03-28T12:52:38.974Z</time></trkpt><trkpt lat="43.043436071154666" lon="11.458961649888767"><ele>507.0</ele><time>2026-03-28T12:52:39.975Z</time></trkpt><trkpt lat="43.043336603596885" lon="11.459060764060242"><ele>507.0</ele><time>2026-03-28T12:52:40.974Z</time></trkpt><trkpt lat="43.04323607159406" lon="11.459143547638975"><ele>507.00000000000006</ele><time>2026-03-28T12:52:41.974Z</time></trkpt><trkpt lat="43.043132743921056" lon="11.459183716547056"><ele>507.00000000000006</ele><time>2026-03-28T12:52:42.975Z</time></trkpt><trkpt lat="43.04305215014919" lon="11.459257504194579"><ele>507.0</ele><time>2026-03-28T12:52:43.974Z</time></trkpt><trkpt lat="43.04297780115796" lon="11.459308911441742"><ele>507.0</ele><time>2026-03-28T12:52:44.974Z</time></trkpt><trkpt lat="43.042898098173765" lon="11.459362088923488"><ele>507.0</ele><time>2026-03-28T12:52:45.974Z</time></trkpt><trkpt lat="43.04284761913188" lon="11.459473683755084"><ele>507.00000000000006</ele><time>2026-03-28T12:52:46.975Z</time></trkpt><trkpt lat="43.042800615651096" lon="11.459615753947574"><ele>507.00000000000006</ele><time>2026-03-28T12:52:47.975Z</time></trkpt><trkpt lat="43.04277036695746" lon="11.459757144166103"><ele>507.0</ele><time>2026-03-28T12:52:48.974Z</time></trkpt><trkpt lat="43.042751572644065" lon="11.459893180681183"><ele>507.0</ele><time>2026-03-28T12:52:49.974Z</time></trkpt><trkpt lat="43.04272629483305" lon="11.460016103109513"><ele>507.6</ele><time>2026-03-28T12:52:50.974Z</time></trkpt><trkpt lat="43.04269454828604" lon="11.460125172428427"><ele>508.20000000000005</ele><time>2026-03-28T12:52:51.975Z</time></trkpt><trkpt lat="43.04269727650641" lon="11.460251622120497"><ele>508.8</ele><time>2026-03-28T12:52:52.975Z</time></trkpt><trkpt lat="43.04273790394667" lon="11.460394575147967"><ele>509.4</ele><time>2026-03-28T12:52:53.975Z</time></trkpt><trkpt lat="43.04281459786465" lon="11.460532768405724"><ele>510.0</ele><time>2026-03-28T12:52:54.975Z</time></trkpt><trkpt lat="43.042907313189176" lon="11.460661790243696"><ele>510.0</ele><time>2026-03-28T12:52:55.975Z</time></trkpt><trkpt lat="43.04298153511369" lon="11.460832956618928"><ele>510.0</ele><time>2026-03-28T12:52:56.975Z</time></trkpt><trkpt lat="43.043068654930885" lon="11.46100809396057"><ele>510.0</ele><time>2026-03-28T12:52:57.975Z</time></trkpt><trkpt lat="43.04312870538784" lon="11.461226162706694"><ele>508.0</ele><time>2026-03-28T12:52:58.975Z</time></trkpt><trkpt lat="43.043215239036044" lon="11.461427798168604"><ele>506.0</ele><time>2026-03-28T12:52:59.975Z</time></trkpt><trkpt lat="43.04329628430428" lon="11.461613718932737"><ele>504.0</ele><time>2026-03-28T12:53:00.975Z</time></trkpt><trkpt lat="43.04336712313973" lon="11.46178901204874"><ele>503.25</ele><time>2026-03-28T12:53:01.975Z</time></trkpt><trkpt lat="43.043435605036976" lon="11.461953763230913"><ele>502.5</ele><time>2026-03-28T12:53:02.975Z</time></trkpt><trkpt lat="43.04350341202259" lon="11.46211881389652"><ele>501.75</ele><time>2026-03-28T12:53:03.975Z</time></trkpt><trkpt lat="43.04356389449647" lon="11.462276618241074"><ele>501.0</ele><time>2026-03-28T12:53:04.975Z</time></trkpt><trkpt lat="43.04361075637116" lon="11.462410248591246"><ele>501.0</ele><time>2026-03-28T12:53:05.975Z</time></trkpt><trkpt lat="43.04363727200556" lon="11.462534062773903"><ele>501.0</ele><time>2026-03-28T12:53:06.975Z</time></trkpt><trkpt lat="43.04363493095046" lon="11.46264953326287"><ele>501.0</ele><time>2026-03-28T12:53:07.975Z</time></trkpt><trkpt lat="43.043611757885735" lon="11.46275730027176"><ele>501.0</ele><time>2026-03-28T12:53:08.975Z</time></trkpt><trkpt lat="43.04356570641892" lon="11.462880267404822"><ele>501.0</ele><time>2026-03-28T12:53:09.975Z</time></trkpt><trkpt lat="43.04348304222837" lon="11.462980292039314"><ele>501.0</ele><time>2026-03-28T12:53:10.975Z</time></trkpt><trkpt lat="43.04338175441489" lon="11.463113029972266"><ele>501.0</ele><time>2026-03-28T12:53:11.975Z</time></trkpt><trkpt lat="43.04328466253829" lon="11.463256201023032"><ele>501.0</ele><time>2026-03-28T12:53:12.975Z</time></trkpt><trkpt lat="43.04322859939271" lon="11.463402415177448"><ele>501.0</ele><time>2026-03-28T12:53:13.975Z</time></trkpt><trkpt lat="43.0431829746048" lon="11.463527966782461"><ele>500.5</ele><time>2026-03-28T12:53:14.975Z</time></trkpt><trkpt lat="43.04315532209455" lon="11.463675808479996"><ele>500.0</ele><time>2026-03-28T12:53:15.975Z</time></trkpt><trkpt lat="43.04313934653381" lon="11.463843108122592"><ele>499.5</ele><time>2026-03-28T12:53:16.975Z</time></trkpt><trkpt lat="43.04309372066833" lon="11.464040509245837"><ele>499.0</ele><time>2026-03-28T12:53:17.975Z</time></trkpt><trkpt lat="43.0430697537126" lon="11.46422396500065"><ele>499.0</ele><time>2026-03-28T12:53:18.975Z</time></trkpt><trkpt lat="43.04304895933632" lon="11.46439606373248"><ele>499.0</ele><time>2026-03-28T12:53:19.975Z</time></trkpt><trkpt lat="43.04302179519228" lon="11.464557873406186"><ele>499.0</ele><time>2026-03-28T12:53:20.975Z</time></trkpt><trkpt lat="43.0429957600146" lon="11.464712312646107"><ele>499.0</ele><time>2026-03-28T12:53:21.975Z</time></trkpt><trkpt lat="43.04296012736907" lon="11.464863877665644"><ele>500.0</ele><time>2026-03-28T12:53:22.975Z</time></trkpt><trkpt lat="43.0429136221204" lon="11.465020250435579"><ele>501.0</ele><time>2026-03-28T12:53:23.975Z</time></trkpt><trkpt lat="43.0428432878737" lon="11.465137530661726"><ele>502.0</ele><time>2026-03-28T12:53:24.975Z</time></trkpt><trkpt lat="43.04278679435389" lon="11.465259787703642"><ele>503.0</ele><time>2026-03-28T12:53:25.975Z</time></trkpt><trkpt lat="43.04274929342304" lon="11.465401345155982"><ele>502.75</ele><time>2026-03-28T12:53:26.975Z</time></trkpt><trkpt lat="43.04269791022535" lon="11.465548280707468"><ele>502.5</ele><time>2026-03-28T12:53:27.975Z</time></trkpt><trkpt lat="43.042680708976995" lon="11.465725424300855"><ele>502.25</ele><time>2026-03-28T12:53:28.975Z</time></trkpt><trkpt lat="43.0426463847799" lon="11.46593081230051"><ele>502.0</ele><time>2026-03-28T12:53:29.975Z</time></trkpt><trkpt lat="43.04263788320464" lon="11.466153122960005"><ele>501.75</ele><time>2026-03-28T12:53:30.975Z</time></trkpt><trkpt lat="43.04262965402828" lon="11.466383675916966"><ele>501.5</ele><time>2026-03-28T12:53:31.975Z</time></trkpt><trkpt lat="43.04261771384515" lon="11.466584003538253"><ele>501.25</ele><time>2026-03-28T12:53:32.975Z</time></trkpt><trkpt lat="43.04261085304375" lon="11.466766131190944"><ele>501.0</ele><time>2026-03-28T12:53:33.975Z</time></trkpt><trkpt lat="43.04260277793005" lon="11.466931035661151"><ele>501.0</ele><time>2026-03-28T12:53:34.975Z</time></trkpt><trkpt lat="43.042582740417934" lon="11.467085256109025"><ele>501.0</ele><time>2026-03-28T12:53:35.975Z</time></trkpt><trkpt lat="43.04255061804199" lon="11.467245011584124"><ele>501.0</ele><time>2026-03-28T12:53:36.975Z</time></trkpt><trkpt lat="43.04249055765315" lon="11.467410913322523"><ele>501.0</ele><time>2026-03-28T12:53:37.975Z</time></trkpt><trkpt lat="43.04242297424629" lon="11.467585590585795"><ele>501.66666666666663</ele><time>2026-03-28T12:53:38.975Z</time></trkpt><trkpt lat="43.042343724400105" lon="11.467800453970082"><ele>502.3333333333333</ele><time>2026-03-28T12:53:39.975Z</time></trkpt><trkpt lat="43.042281647516575" lon="11.468031265610964"><ele>503.0</ele><time>2026-03-28T12:53:40.975Z</time></trkpt><trkpt lat="43.04223330165894" lon="11.468239362024136"><ele>503.5</ele><time>2026-03-28T12:53:41.975Z</time></trkpt><trkpt lat="43.0421922473939" lon="11.468426127663507"><ele>504.0</ele><time>2026-03-28T12:53:42.975Z</time></trkpt><trkpt lat="43.04215331392072" lon="11.468598023465645"><ele>504.5</ele><time>2026-03-28T12:53:43.975Z</time></trkpt><trkpt lat="43.04211644800421" lon="11.468755785942463"><ele>505.0</ele><time>2026-03-28T12:53:44.975Z</time></trkpt><trkpt lat="43.042077575911264" lon="11.468911699164375"><ele>505.25</ele><time>2026-03-28T12:53:45.975Z</time></trkpt><trkpt lat="43.04202289524858" lon="11.469057998070376"><ele>505.5</ele><time>2026-03-28T12:53:46.975Z</time></trkpt><trkpt lat="43.041948123370254" lon="11.469191137209885"><ele>505.75</ele><time>2026-03-28T12:53:47.975Z</time></trkpt><trkpt lat="43.04182987785137" lon="11.469258680710283"><ele>506.0</ele><time>2026-03-28T12:53:48.975Z</time></trkpt><trkpt lat="43.04169906813378" lon="11.469328649374036"><ele>508.0</ele><time>2026-03-28T12:53:49.975Z</time></trkpt><trkpt lat="43.0415479446008" lon="11.46939876702997"><ele>510.0</ele><time>2026-03-28T12:53:50.975Z</time></trkpt><trkpt lat="43.04140689203205" lon="11.4694905564683"><ele>512.0</ele><time>2026-03-28T12:53:51.975Z</time></trkpt><trkpt lat="43.041273998602485" lon="11.469567184596293"><ele>513.0</ele><time>2026-03-28T12:53:52.974Z</time></trkpt><trkpt lat="43.04115406344771" lon="11.469647738212691"><ele>514.0</ele><time>2026-03-28T12:53:53.974Z</time></trkpt><trkpt lat="43.0410383889045" lon="11.469742701845496"><ele>515.0</ele><time>2026-03-28T12:53:54.974Z</time></trkpt><trkpt lat="43.04092935523431" lon="11.469862858526033"><ele>516.0</ele><time>2026-03-28T12:53:55.974Z</time></trkpt><trkpt lat="43.04081559674039" lon="11.469968418321058"><ele>517.25</ele><time>2026-03-28T12:53:56.974Z</time></trkpt><trkpt lat="43.04070646114854" lon="11.470101436349932"><ele>518.5</ele><time>2026-03-28T12:53:57.974Z</time></trkpt><trkpt lat="43.040608830276895" lon="11.470243868190362"><ele>519.75</ele><time>2026-03-28T12:53:58.974Z</time></trkpt><trkpt lat="43.0405141923437" lon="11.47039901421774"><ele>521.0</ele><time>2026-03-28T12:53:59.974Z</time></trkpt><trkpt lat="43.04042540181053" lon="11.47052976518781"><ele>522.4</ele><time>2026-03-28T12:54:00.974Z</time></trkpt><trkpt lat="43.04033588818258" lon="11.47064134617121"><ele>523.8</ele><time>2026-03-28T12:54:01.974Z</time></trkpt><trkpt lat="43.040223040806104" lon="11.470714737268715"><ele>525.1999999999999</ele><time>2026-03-28T12:54:02.974Z</time></trkpt><trkpt lat="43.04011322268817" lon="11.470712959863155"><ele>526.6</ele><time>2026-03-28T12:54:03.974Z</time></trkpt><trkpt lat="43.04003099032648" lon="11.470737135990772"><ele>528.0</ele><time>2026-03-28T12:54:04.974Z</time></trkpt><trkpt lat="43.039965604725424" lon="11.470770722549155"><ele>528.6666666666666</ele><time>2026-03-28T12:54:05.974Z</time></trkpt><trkpt lat="43.039855029690166" lon="11.470812831134937"><ele>529.3333333333334</ele><time>2026-03-28T12:54:07.974Z</time></trkpt><trkpt lat="43.03977516415197" lon="11.470862252026675"><ele>530.0</ele><time>2026-03-28T12:54:09.974Z</time></trkpt><trkpt lat="43.03971689202587" lon="11.470914227042966"><ele>530.6666666666667</ele><time>2026-03-28T12:54:12.974Z</time></trkpt><trkpt lat="43.0396257659536" lon="11.470959807748388"><ele>531.3333333333334</ele><time>2026-03-28T12:54:15.974Z</time></trkpt><trkpt lat="43.03956117101915" lon="11.470996867110419"><ele>532.0</ele><time>2026-03-28T12:54:17.974Z</time></trkpt><trkpt lat="43.03950199932582" lon="11.471027954293014"><ele>532.0</ele><time>2026-03-28T12:54:19.974Z</time></trkpt><trkpt lat="43.03941579516544" lon="11.471082134166029"><ele>532.0</ele><time>2026-03-28T12:54:22.974Z</time></trkpt><trkpt lat="43.039335261411274" lon="11.471130374534795"><ele>532.0</ele><time>2026-03-28T12:54:34.974Z</time></trkpt><trkpt lat="43.03922755558911" lon="11.471202028884232"><ele>532.0</ele><time>2026-03-28T12:54:36.974Z</time></trkpt><trkpt lat="43.039158870910725" lon="11.471245101388082"><ele>532.0</ele><time>2026-03-28T12:54:37.974Z</time></trkpt><trkpt lat="43.039082457581536" lon="11.471316786058065"><ele>532.25</ele><time>2026-03-28T12:54:38.974Z</time></trkpt><trkpt lat="43.03900376931453" lon="11.47140707556931"><ele>532.5</ele><time>2026-03-28T12:54:39.974Z</time></trkpt><trkpt lat="43.038925546814845" lon="11.471511862226796"><ele>532.75</ele><time>2026-03-28T12:54:40.974Z</time></trkpt><trkpt lat="43.03884747448726" lon="11.471632347575685"><ele>533.0</ele><time>2026-03-28T12:54:41.974Z</time></trkpt><trkpt lat="43.03878113143963" lon="11.471773724051918"><ele>533.0</ele><time>2026-03-28T12:54:42.974Z</time></trkpt><trkpt lat="43.03872158270728" lon="11.471923547231473"><ele>533.0</ele><time>2026-03-28T12:54:43.974Z</time></trkpt><trkpt lat="43.03867646115217" lon="11.472103651891823"><ele>533.0</ele><time>2026-03-28T12:54:44.974Z</time></trkpt><trkpt lat="43.03865389517528" lon="11.472300638561705"><ele>533.0</ele><time>2026-03-28T12:54:45.973Z</time></trkpt><trkpt lat="43.0386614190901" lon="11.472508766457356"><ele>538.0</ele><time>2026-03-28T12:54:46.974Z</time></trkpt><trkpt lat="43.038690784874234" lon="11.472733318451365"><ele>543.0</ele><time>2026-03-28T12:54:47.974Z</time></trkpt><trkpt lat="43.03870803318325" lon="11.472974827984636"><ele>548.0</ele><time>2026-03-28T12:54:48.974Z</time></trkpt><trkpt lat="43.038746986032336" lon="11.473173658726783"><ele>551.0</ele><time>2026-03-28T12:54:49.974Z</time></trkpt><trkpt lat="43.03872534193164" lon="11.473366361147404"><ele>554.0</ele><time>2026-03-28T12:54:50.974Z</time></trkpt><trkpt lat="43.03868574294976" lon="11.473548498194788"><ele>557.0</ele><time>2026-03-28T12:54:51.974Z</time></trkpt><trkpt lat="43.038608583901336" lon="11.47370378620205"><ele>560.0</ele><time>2026-03-28T12:54:52.974Z</time></trkpt><trkpt lat="43.03849984722843" lon="11.473804255679157"><ele>563.0</ele><time>2026-03-28T12:54:53.974Z</time></trkpt><trkpt lat="43.03836913094249" lon="11.473885145037126"><ele>566.0</ele><time>2026-03-28T12:54:54.974Z</time></trkpt><trkpt lat="43.03819002764582" lon="11.473979281315334"><ele>569.0</ele><time>2026-03-28T12:54:55.974Z</time></trkpt><trkpt lat="43.03803428289974" lon="11.474061790813886"><ele>569.0</ele><time>2026-03-28T12:54:56.974Z</time></trkpt><trkpt lat="43.03789732095683" lon="11.47414427116715"><ele>569.0</ele><time>2026-03-28T12:54:57.974Z</time></trkpt><trkpt lat="43.037776710950794" lon="11.474256646967389"><ele>569.0</ele><time>2026-03-28T12:54:58.974Z</time></trkpt><trkpt lat="43.03769890548369" lon="11.474421962300369"><ele>569.0</ele><time>2026-03-28T12:54:59.974Z</time></trkpt><trkpt lat="43.03766798211997" lon="11.47462716997006"><ele>573.0</ele><time>2026-03-28T12:55:00.974Z</time></trkpt><trkpt lat="43.03769103394337" lon="11.474851252913696"><ele>577.0</ele><time>2026-03-28T12:55:01.974Z</time></trkpt><trkpt lat="43.037687359417355" lon="11.475092320033847"><ele>581.0</ele><time>2026-03-28T12:55:02.974Z</time></trkpt><trkpt lat="43.03769727237999" lon="11.475336361516925"><ele>583.6666666666666</ele><time>2026-03-28T12:55:03.974Z</time></trkpt><trkpt lat="43.037707793073174" lon="11.47559536423082"><ele>586.3333333333334</ele><time>2026-03-28T12:55:04.974Z</time></trkpt><trkpt lat="43.03771896294904" lon="11.475870283227508"><ele>589.0</ele><time>2026-03-28T12:55:05.974Z</time></trkpt><trkpt lat="43.03773008685657" lon="11.47614374977672"><ele>590.0</ele><time>2026-03-28T12:55:06.974Z</time></trkpt><trkpt lat="43.03774154193578" lon="11.476425357473392"><ele>591.0</ele><time>2026-03-28T12:55:07.974Z</time></trkpt><trkpt lat="43.03775207025139" lon="11.476713830566686"><ele>592.0</ele><time>2026-03-28T12:55:08.974Z</time></trkpt><trkpt lat="43.037761687611614" lon="11.47697742087313"><ele>594.0</ele><time>2026-03-28T12:55:09.974Z</time></trkpt><trkpt lat="43.037766048919096" lon="11.477224549511085"><ele>596.0</ele><time>2026-03-28T12:55:10.974Z</time></trkpt><trkpt lat="43.037755260962264" lon="11.477471248640345"><ele>598.0</ele><time>2026-03-28T12:55:11.974Z</time></trkpt><trkpt lat="43.0377390144503" lon="11.477706514868325"><ele>598.0</ele><time>2026-03-28T12:55:12.974Z</time></trkpt><trkpt lat="43.03769629733889" lon="11.477907678306309"><ele>598.0</ele><time>2026-03-28T12:55:13.974Z</time></trkpt><trkpt lat="43.03764915126785" lon="11.478091297769282"><ele>598.0</ele><time>2026-03-28T12:55:14.974Z</time></trkpt><trkpt lat="43.03758690099965" lon="11.478279661532305"><ele>598.0</ele><time>2026-03-28T12:55:15.974Z</time></trkpt><trkpt lat="43.037515791533224" lon="11.478483366978256"><ele>598.3333333333334</ele><time>2026-03-28T12:55:16.974Z</time></trkpt><trkpt lat="43.037424338026206" lon="11.478672066329118"><ele>598.6666666666666</ele><time>2026-03-28T12:55:17.974Z</time></trkpt><trkpt lat="43.0373122326294" lon="11.478846352602506"><ele>599.0</ele><time>2026-03-28T12:55:18.974Z</time></trkpt><trkpt lat="43.03721585153899" lon="11.478995438464393"><ele>599.0</ele><time>2026-03-28T12:55:19.974Z</time></trkpt><trkpt lat="43.0371199745411" lon="11.479143449870941"><ele>599.0</ele><time>2026-03-28T12:55:20.974Z</time></trkpt><trkpt lat="43.03703932060234" lon="11.47924467082616"><ele>599.0</ele><time>2026-03-28T12:55:21.974Z</time></trkpt><trkpt lat="43.036974558011224" lon="11.479349126513073"><ele>599.0</ele><time>2026-03-28T12:55:22.974Z</time></trkpt><trkpt lat="43.03690285938282" lon="11.479453773184277"><ele>599.0</ele><time>2026-03-28T12:55:23.974Z</time></trkpt><trkpt lat="43.036844867318145" lon="11.479557883022816"><ele>599.0</ele><time>2026-03-28T12:55:24.974Z</time></trkpt><trkpt lat="43.03683095836444" lon="11.479658544723014"><ele>599.0</ele><time>2026-03-28T12:55:25.974Z</time></trkpt><trkpt lat="43.03680257441884" lon="11.479758703846375"><ele>599.0</ele><time>2026-03-28T12:55:28.974Z</time></trkpt><trkpt lat="43.03691754052002" lon="11.479904410201895"><ele>599.0</ele><time>2026-03-28T12:55:30.974Z</time></trkpt><trkpt lat="43.03699903507987" lon="11.479945163410035"><ele>599.5</ele><time>2026-03-28T12:55:31.974Z</time></trkpt><trkpt lat="43.03708687238442" lon="11.480028374873866"><ele>600.0</ele><time>2026-03-28T12:55:32.974Z</time></trkpt><trkpt lat="43.037200990355906" lon="11.48011654208707"><ele>600.5</ele><time>2026-03-28T12:55:33.974Z</time></trkpt><trkpt lat="43.03733869827155" lon="11.480228750346917"><ele>601.0</ele><time>2026-03-28T12:55:34.974Z</time></trkpt><trkpt lat="43.03748255950643" lon="11.480350145879715"><ele>598.0</ele><time>2026-03-28T12:55:35.974Z</time></trkpt><trkpt lat="43.037629129380775" lon="11.480469081361852"><ele>595.0</ele><time>2026-03-28T12:55:36.974Z</time></trkpt><trkpt lat="43.0377786866177" lon="11.480590764313844"><ele>592.0</ele><time>2026-03-28T12:55:37.974Z</time></trkpt><trkpt lat="43.03792604675256" lon="11.480720281368377"><ele>592.0</ele><time>2026-03-28T12:55:38.974Z</time></trkpt><trkpt lat="43.03807001626997" lon="11.480852813646083"><ele>592.0</ele><time>2026-03-28T12:55:39.974Z</time></trkpt><trkpt lat="43.03821834919828" lon="11.480986625206524"><ele>592.0</ele><time>2026-03-28T12:55:40.974Z</time></trkpt><trkpt lat="43.03836654338142" lon="11.481119116834545"><ele>591.3333333333334</ele><time>2026-03-28T12:55:41.974Z</time></trkpt><trkpt lat="43.038515142342696" lon="11.481251155653819"><ele>590.6666666666666</ele><time>2026-03-28T12:55:42.974Z</time></trkpt><trkpt lat="43.03866571791339" lon="11.481384798705433"><ele>590.0</ele><time>2026-03-28T12:55:43.974Z</time></trkpt><trkpt lat="43.038816524018806" lon="11.481520674477277"><ele>589.6666666666666</ele><time>2026-03-28T12:55:44.974Z</time></trkpt><trkpt lat="43.03896676579448" lon="11.48165229270049"><ele>589.3333333333334</ele><time>2026-03-28T12:55:45.974Z</time></trkpt><trkpt lat="43.039121609114645" lon="11.481785447998645"><ele>589.0</ele><time>2026-03-28T12:55:46.974Z</time></trkpt><trkpt lat="43.039276308195255" lon="11.481919400246731"><ele>591.3333333333334</ele><time>2026-03-28T12:55:47.974Z</time></trkpt><trkpt lat="43.03942849569744" lon="11.482054217329557"><ele>593.6666666666666</ele><time>2026-03-28T12:55:48.974Z</time></trkpt><trkpt lat="43.039579794586544" lon="11.482193054023602"><ele>596.0</ele><time>2026-03-28T12:55:49.974Z</time></trkpt><trkpt lat="43.039732953278204" lon="11.482325624433727"><ele>599.0</ele><time>2026-03-28T12:55:50.974Z</time></trkpt><trkpt lat="43.0398812914439" lon="11.482460136629284"><ele>602.0</ele><time>2026-03-28T12:55:51.974Z</time></trkpt><trkpt lat="43.04004058296926" lon="11.482584212007186"><ele>605.0</ele><time>2026-03-28T12:55:52.974Z</time></trkpt><trkpt lat="43.04020875341736" lon="11.482702931616783"><ele>606.6666666666666</ele><time>2026-03-28T12:55:53.974Z</time></trkpt><trkpt lat="43.04039011648001" lon="11.482808493074135"><ele>608.3333333333334</ele><time>2026-03-28T12:55:54.974Z</time></trkpt><trkpt lat="43.04057544444971" lon="11.482903156475036"><ele>610.0</ele><time>2026-03-28T12:55:55.974Z</time></trkpt><trkpt lat="43.040761965746896" lon="11.482976006555191"><ele>612.6666666666667</ele><time>2026-03-28T12:55:56.974Z</time></trkpt><trkpt lat="43.04093506719062" lon="11.483031774353782"><ele>615.3333333333334</ele><time>2026-03-28T12:55:57.974Z</time></trkpt><trkpt lat="43.041101117045756" lon="11.48308406242587"><ele>618.0</ele><time>2026-03-28T12:55:58.974Z</time></trkpt><trkpt lat="43.04128522093465" lon="11.483130869677309"><ele>618.0</ele><time>2026-03-28T12:55:59.974Z</time></trkpt><trkpt lat="43.04147116226035" lon="11.483193710089054"><ele>618.0</ele><time>2026-03-28T12:56:00.973Z</time></trkpt><trkpt lat="43.04166143978899" lon="11.483248662447524"><ele>618.0</ele><time>2026-03-28T12:56:01.973Z</time></trkpt><trkpt lat="43.04184281628638" lon="11.483300380257868"><ele>616.0</ele><time>2026-03-28T12:56:02.973Z</time></trkpt><trkpt lat="43.04202254533311" lon="11.483347378599284"><ele>614.0</ele><time>2026-03-28T12:56:03.973Z</time></trkpt><trkpt lat="43.04218519009613" lon="11.483391587230509"><ele>612.0</ele><time>2026-03-28T12:56:04.973Z</time></trkpt><trkpt lat="43.04234535797276" lon="11.483436998319952"><ele>612.3333333333334</ele><time>2026-03-28T12:56:05.973Z</time></trkpt><trkpt lat="43.042506888498565" lon="11.48348434846337"><ele>612.6666666666667</ele><time>2026-03-28T12:56:06.973Z</time></trkpt><trkpt lat="43.04266951560578" lon="11.483536839970592"><ele>613.0</ele><time>2026-03-28T12:56:07.973Z</time></trkpt><trkpt lat="43.042834682032584" lon="11.483584013042783"><ele>613.0</ele><time>2026-03-28T12:56:08.973Z</time></trkpt><trkpt lat="43.042996794385715" lon="11.483629654886636"><ele>613.0</ele><time>2026-03-28T12:56:09.973Z</time></trkpt><trkpt lat="43.04315710689196" lon="11.483672989650016"><ele>613.0</ele><time>2026-03-28T12:56:10.973Z</time></trkpt><trkpt lat="43.0433105216286" lon="11.483711257649071"><ele>613.6666666666667</ele><time>2026-03-28T12:56:11.973Z</time></trkpt><trkpt lat="43.04346290346746" lon="11.483761223934984"><ele>614.3333333333334</ele><time>2026-03-28T12:56:12.973Z</time></trkpt><trkpt lat="43.043608451891835" lon="11.483825297049775"><ele>615.0</ele><time>2026-03-28T12:56:13.973Z</time></trkpt><trkpt lat="43.043738537138665" lon="11.483905374036183"><ele>614.0</ele><time>2026-03-28T12:56:14.973Z</time></trkpt><trkpt lat="43.043840074216696" lon="11.484022521937762"><ele>613.0</ele><time>2026-03-28T12:56:15.973Z</time></trkpt><trkpt lat="43.04394678470692" lon="11.484114196800679"><ele>612.0</ele><time>2026-03-28T12:56:16.973Z</time></trkpt><trkpt lat="43.04404461431018" lon="11.48422692032571"><ele>611.0</ele><time>2026-03-28T12:56:17.973Z</time></trkpt><trkpt lat="43.04413959984255" lon="11.484325549750597"><ele>611.0</ele><time>2026-03-28T12:56:18.973Z</time></trkpt><trkpt lat="43.0442207884069" lon="11.484409274283111"><ele>611.0</ele><time>2026-03-28T12:56:19.973Z</time></trkpt><trkpt lat="43.044292937818554" lon="11.484490916577167"><ele>611.0</ele><time>2026-03-28T12:56:20.973Z</time></trkpt><trkpt lat="43.044358826109224" lon="11.484574676951507"><ele>611.0</ele><time>2026-03-28T12:56:21.973Z</time></trkpt><trkpt lat="43.044413649283335" lon="11.48466430605297"><ele>611.0</ele><time>2026-03-28T12:56:22.973Z</time></trkpt><trkpt lat="43.04446131404415" lon="11.484762943928262"><ele>611.2</ele><time>2026-03-28T12:56:23.973Z</time></trkpt><trkpt lat="43.0444937335995" lon="11.484876798512976"><ele>611.4000000000001</ele><time>2026-03-28T12:56:24.973Z</time></trkpt><trkpt lat="43.04452426513713" lon="11.485014992069916"><ele>611.6</ele><time>2026-03-28T12:56:25.973Z</time></trkpt><trkpt lat="43.04455106939198" lon="11.48518177494029"><ele>611.8000000000001</ele><time>2026-03-28T12:56:26.973Z</time></trkpt><trkpt lat="43.04459834943973" lon="11.485344398868618"><ele>612.0</ele><time>2026-03-28T12:56:27.973Z</time></trkpt><trkpt lat="43.044644896116885" lon="11.485510255339065"><ele>612.6666666666666</ele><time>2026-03-28T12:56:28.973Z</time></trkpt><trkpt lat="43.044697826527766" lon="11.485698858672553"><ele>613.3333333333333</ele><time>2026-03-28T12:56:29.973Z</time></trkpt><trkpt lat="43.044754746049534" lon="11.485902049338652"><ele>614.0</ele><time>2026-03-28T12:56:30.973Z</time></trkpt><trkpt lat="43.044812729611344" lon="11.48611176741574"><ele>614.3333333333333</ele><time>2026-03-28T12:56:31.973Z</time></trkpt><trkpt lat="43.044870546463066" lon="11.48632092353947"><ele>614.6666666666666</ele><time>2026-03-28T12:56:32.973Z</time></trkpt><trkpt lat="43.04492965510487" lon="11.48652425279952"><ele>615.0</ele><time>2026-03-28T12:56:33.973Z</time></trkpt><trkpt lat="43.044986830375315" lon="11.486709322224675"><ele>615.0</ele><time>2026-03-28T12:56:34.973Z</time></trkpt><trkpt lat="43.04504541094799" lon="11.486865997271204"><ele>615.0</ele><time>2026-03-28T12:56:35.973Z</time></trkpt><trkpt lat="43.04511330835663" lon="11.487006825394145"><ele>615.0</ele><time>2026-03-28T12:56:36.973Z</time></trkpt><trkpt lat="43.04522896675447" lon="11.487093252506188"><ele>615.0</ele><time>2026-03-28T12:56:37.973Z</time></trkpt><trkpt lat="43.04536330032358" lon="11.48712780624084"><ele>614.5</ele><time>2026-03-28T12:56:38.973Z</time></trkpt><trkpt lat="43.045503698542134" lon="11.487132066004978"><ele>614.0</ele><time>2026-03-28T12:56:39.973Z</time></trkpt><trkpt lat="43.045632860838836" lon="11.487133541868166"><ele>613.5</ele><time>2026-03-28T12:56:40.973Z</time></trkpt><trkpt lat="43.04575288546947" lon="11.487169460721713"><ele>613.0</ele><time>2026-03-28T12:56:41.973Z</time></trkpt><trkpt lat="43.04586599058662" lon="11.487248764165265"><ele>613.0</ele><time>2026-03-28T12:56:42.973Z</time></trkpt><trkpt lat="43.04597324136294" lon="11.487386962900787"><ele>613.0</ele><time>2026-03-28T12:56:43.973Z</time></trkpt><trkpt lat="43.04607017259752" lon="11.487579692173824"><ele>613.0</ele><time>2026-03-28T12:56:44.973Z</time></trkpt><trkpt lat="43.04615406869764" lon="11.487803566020494"><ele>609.3333333333334</ele><time>2026-03-28T12:56:45.973Z</time></trkpt><trkpt lat="43.04621525555694" lon="11.48804116110233"><ele>605.6666666666666</ele><time>2026-03-28T12:56:46.973Z</time></trkpt><trkpt lat="43.04626474633296" lon="11.48826996697357"><ele>602.0</ele><time>2026-03-28T12:56:47.973Z</time></trkpt><trkpt lat="43.046304480500766" lon="11.48849008325997"><ele>602.0</ele><time>2026-03-28T12:56:48.973Z</time></trkpt><trkpt lat="43.04635647850384" lon="11.48870264434682"><ele>602.0</ele><time>2026-03-28T12:56:49.973Z</time></trkpt><trkpt lat="43.04641027943643" lon="11.488900320211243"><ele>602.0</ele><time>2026-03-28T12:56:50.973Z</time></trkpt><trkpt lat="43.04647966941773" lon="11.489081575481661"><ele>600.0</ele><time>2026-03-28T12:56:51.973Z</time></trkpt><trkpt lat="43.04656493036239" lon="11.48924458538998"><ele>598.0</ele><time>2026-03-28T12:56:52.973Z</time></trkpt><trkpt lat="43.04667625412486" lon="11.489377149481756"><ele>596.0</ele><time>2026-03-28T12:56:53.973Z</time></trkpt><trkpt lat="43.04679327698254" lon="11.489484505538558"><ele>594.0</ele><time>2026-03-28T12:56:54.973Z</time></trkpt><trkpt lat="43.046924801395015" lon="11.489552793684194"><ele>595.0</ele><time>2026-03-28T12:56:55.973Z</time></trkpt><trkpt lat="43.047074796961034" lon="11.48957099489925"><ele>596.0</ele><time>2026-03-28T12:56:56.973Z</time></trkpt><trkpt lat="43.04722960518547" lon="11.489570321439405"><ele>597.0</ele><time>2026-03-28T12:56:57.973Z</time></trkpt><trkpt lat="43.04738625392714" lon="11.489628338133892"><ele>599.0</ele><time>2026-03-28T12:56:58.973Z</time></trkpt><trkpt lat="43.047529752905554" lon="11.48974862733193"><ele>601.0</ele><time>2026-03-28T12:56:59.973Z</time></trkpt><trkpt lat="43.047658467821286" lon="11.48989739764896"><ele>603.0</ele><time>2026-03-28T12:57:00.974Z</time></trkpt><trkpt lat="43.047771708532046" lon="11.490018652412118"><ele>603.0</ele><time>2026-03-28T12:57:01.973Z</time></trkpt><trkpt lat="43.047894068067734" lon="11.490081505629101"><ele>603.0</ele><time>2026-03-28T12:57:02.973Z</time></trkpt><trkpt lat="43.04803467127963" lon="11.490103707328359"><ele>603.0</ele><time>2026-03-28T12:57:03.973Z</time></trkpt><trkpt lat="43.04819162656325" lon="11.49007453169596"><ele>603.0</ele><time>2026-03-28T12:57:04.973Z</time></trkpt><trkpt lat="43.048333816174726" lon="11.490019729482828"><ele>603.0</ele><time>2026-03-28T12:57:05.973Z</time></trkpt><trkpt lat="43.04846531930671" lon="11.48996957895692"><ele>603.0</ele><time>2026-03-28T12:57:06.973Z</time></trkpt><trkpt lat="43.04860048432711" lon="11.489957339133644"><ele>603.0</ele><time>2026-03-28T12:57:07.973Z</time></trkpt><trkpt lat="43.048728668500246" lon="11.490003593788321"><ele>603.0</ele><time>2026-03-28T12:57:08.973Z</time></trkpt><trkpt lat="43.04884232300345" lon="11.490117683486607"><ele>603.0</ele><time>2026-03-28T12:57:09.973Z</time></trkpt><trkpt lat="43.04890660621563" lon="11.490304093411236"><ele>603.0</ele><time>2026-03-28T12:57:10.973Z</time></trkpt><trkpt lat="43.04898089400859" lon="11.490505274747749"><ele>603.0</ele><time>2026-03-28T12:57:11.973Z</time></trkpt><trkpt lat="43.0490214099476" lon="11.490700402545846"><ele>601.0</ele><time>2026-03-28T12:57:12.973Z</time></trkpt><trkpt lat="43.0490692346709" lon="11.490854386186212"><ele>599.0</ele><time>2026-03-28T12:57:13.973Z</time></trkpt><trkpt lat="43.04913828185292" lon="11.490972941648412"><ele>597.0</ele><time>2026-03-28T12:57:14.973Z</time></trkpt><trkpt lat="43.04923642275929" lon="11.491049541844866"><ele>595.0</ele><time>2026-03-28T12:57:15.973Z</time></trkpt><trkpt lat="43.04934531568604" lon="11.491058773146783"><ele>595.0</ele><time>2026-03-28T12:57:16.973Z</time></trkpt><trkpt lat="43.049473301776636" lon="11.491049915854022"><ele>595.0</ele><time>2026-03-28T12:57:17.973Z</time></trkpt><trkpt lat="43.04961569012505" lon="11.491016473712206"><ele>595.0</ele><time>2026-03-28T12:57:18.973Z</time></trkpt><trkpt lat="43.049764619415036" lon="11.490995378976395"><ele>595.0</ele><time>2026-03-28T12:57:19.973Z</time></trkpt><trkpt lat="43.0499093410912" lon="11.491023874559115"><ele>595.5</ele><time>2026-03-28T12:57:20.973Z</time></trkpt><trkpt lat="43.050037056873" lon="11.491026210461385"><ele>596.0</ele><time>2026-03-28T12:57:21.973Z</time></trkpt><trkpt lat="43.05015004338609" lon="11.491000196254817"><ele>596.5</ele><time>2026-03-28T12:57:22.973Z</time></trkpt><trkpt lat="43.05025710508712" lon="11.490871970831144"><ele>597.0</ele><time>2026-03-28T12:57:23.973Z</time></trkpt><trkpt lat="43.05035096124706" lon="11.4907279457121"><ele>597.0</ele><time>2026-03-28T12:57:24.973Z</time></trkpt><trkpt lat="43.05041557593452" lon="11.49060811146676"><ele>597.0</ele><time>2026-03-28T12:57:25.973Z</time></trkpt><trkpt lat="43.05046857042638" lon="11.490482957471514"><ele>597.0</ele><time>2026-03-28T12:57:26.973Z</time></trkpt><trkpt lat="43.05052832083606" lon="11.490347476258274"><ele>597.0</ele><time>2026-03-28T12:57:27.973Z</time></trkpt><trkpt lat="43.05058505239879" lon="11.490190677085083"><ele>595.0</ele><time>2026-03-28T12:57:28.973Z</time></trkpt><trkpt lat="43.050672919222734" lon="11.490045787591558"><ele>593.0</ele><time>2026-03-28T12:57:29.973Z</time></trkpt><trkpt lat="43.05074121348477" lon="11.489905990046246"><ele>591.0</ele><time>2026-03-28T12:57:30.973Z</time></trkpt><trkpt lat="43.050813403253414" lon="11.489772553833788"><ele>589.0</ele><time>2026-03-28T12:57:31.973Z</time></trkpt><trkpt lat="43.05087871083322" lon="11.489658496277507"><ele>589.0</ele><time>2026-03-28T12:57:32.973Z</time></trkpt><trkpt lat="43.05096659895194" lon="11.489581152358022"><ele>589.0</ele><time>2026-03-28T12:57:33.973Z</time></trkpt><trkpt lat="43.051081663664014" lon="11.489556187623037"><ele>589.0</ele><time>2026-03-28T12:57:34.973Z</time></trkpt><trkpt lat="43.051195392683" lon="11.489601416179516"><ele>589.0</ele><time>2026-03-28T12:57:35.973Z</time></trkpt><trkpt lat="43.05129193822487" lon="11.489700888447913"><ele>589.0</ele><time>2026-03-28T12:57:36.973Z</time></trkpt><trkpt lat="43.05134481912892" lon="11.48984445705369"><ele>589.0</ele><time>2026-03-28T12:57:37.973Z</time></trkpt><trkpt lat="43.05141521705961" lon="11.490008162107443"><ele>589.0</ele><time>2026-03-28T12:57:38.973Z</time></trkpt><trkpt lat="43.05149327644326" lon="11.490197327309271"><ele>589.0</ele><time>2026-03-28T12:57:39.973Z</time></trkpt><trkpt lat="43.051573991842375" lon="11.490359615449202"><ele>585.0</ele><time>2026-03-28T12:57:40.973Z</time></trkpt><trkpt lat="43.05164042616302" lon="11.490520081697202"><ele>581.0</ele><time>2026-03-28T12:57:41.973Z</time></trkpt><trkpt lat="43.05173499037045" lon="11.490654444626443"><ele>577.0</ele><time>2026-03-28T12:57:42.973Z</time></trkpt><trkpt lat="43.05184806132195" lon="11.49078161850825"><ele>573.0</ele><time>2026-03-28T12:57:43.973Z</time></trkpt><trkpt lat="43.05196544988118" lon="11.490892628574453"><ele>573.0</ele><time>2026-03-28T12:57:44.973Z</time></trkpt><trkpt lat="43.05207768664668" lon="11.49098444613576"><ele>573.0</ele><time>2026-03-28T12:57:45.973Z</time></trkpt><trkpt lat="43.052200700466415" lon="11.491027975911344"><ele>573.0</ele><time>2026-03-28T12:57:46.973Z</time></trkpt><trkpt lat="43.05233396281727" lon="11.491027970677381"><ele>573.0</ele><time>2026-03-28T12:57:47.973Z</time></trkpt><trkpt lat="43.05247028271046" lon="11.49098676831392"><ele>574.0</ele><time>2026-03-28T12:57:48.973Z</time></trkpt><trkpt lat="43.05260843324265" lon="11.490913451649316"><ele>575.0</ele><time>2026-03-28T12:57:49.973Z</time></trkpt><trkpt lat="43.05273672095774" lon="11.490838974361205"><ele>576.0</ele><time>2026-03-28T12:57:50.973Z</time></trkpt><trkpt lat="43.052858850020236" lon="11.490757833859158"><ele>577.0</ele><time>2026-03-28T12:57:51.973Z</time></trkpt><trkpt lat="43.05296930494069" lon="11.490668678002043"><ele>577.0</ele><time>2026-03-28T12:57:52.973Z</time></trkpt><trkpt lat="43.0530562541606" lon="11.490554717018293"><ele>577.0</ele><time>2026-03-28T12:57:53.973Z</time></trkpt><trkpt lat="43.05311892278967" lon="11.490414902483934"><ele>577.0</ele><time>2026-03-28T12:57:54.973Z</time></trkpt><trkpt lat="43.053156522584494" lon="11.490262956505644"><ele>577.0</ele><time>2026-03-28T12:57:55.973Z</time></trkpt><trkpt lat="43.053186648555524" lon="11.490102665552334"><ele>575.4</ele><time>2026-03-28T12:57:56.973Z</time></trkpt><trkpt lat="43.05321586486028" lon="11.489945005234635"><ele>573.8000000000001</ele><time>2026-03-28T12:57:57.973Z</time></trkpt><trkpt lat="43.05324524449176" lon="11.489798860628555"><ele>572.2</ele><time>2026-03-28T12:57:58.973Z</time></trkpt><trkpt lat="43.05327678468558" lon="11.48965752616101"><ele>570.6</ele><time>2026-03-28T12:57:59.973Z</time></trkpt><trkpt lat="43.053306671582014" lon="11.489521989319472"><ele>569.0</ele><time>2026-03-28T12:58:00.973Z</time></trkpt><trkpt lat="43.053335290848054" lon="11.48939295119011"><ele>569.0</ele><time>2026-03-28T12:58:01.973Z</time></trkpt><trkpt lat="43.0533606032365" lon="11.489267170530868"><ele>569.0</ele><time>2026-03-28T12:58:02.973Z</time></trkpt><trkpt lat="43.05339460244254" lon="11.489145692255631"><ele>569.0</ele><time>2026-03-28T12:58:03.973Z</time></trkpt><trkpt lat="43.05345094490778" lon="11.489043785262124"><ele>569.0</ele><time>2026-03-28T12:58:04.973Z</time></trkpt><trkpt lat="43.05352425728188" lon="11.488967631391759"><ele>569.0</ele><time>2026-03-28T12:58:05.973Z</time></trkpt><trkpt lat="43.053599119643316" lon="11.488917963457697"><ele>569.0</ele><time>2026-03-28T12:58:06.973Z</time></trkpt><trkpt lat="43.05367708333213" lon="11.48890999396941"><ele>569.0</ele><time>2026-03-28T12:58:07.973Z</time></trkpt><trkpt lat="43.05374079954971" lon="11.488871882332054"><ele>569.0</ele><time>2026-03-28T12:58:08.973Z</time></trkpt><trkpt lat="43.05381367979191" lon="11.48886834488159"><ele>569.0</ele><time>2026-03-28T12:58:10.973Z</time></trkpt><trkpt lat="43.05388232148003" lon="11.488874300143607"><ele>569.0</ele><time>2026-03-28T12:59:02.943Z</time></trkpt><trkpt lat="43.05398360756017" lon="11.48881179197726"><ele>569.0</ele><time>2026-03-28T12:59:05.943Z</time></trkpt><trkpt lat="43.0540649601846" lon="11.488775703192912"><ele>568.3333333333333</ele><time>2026-03-28T12:59:06.943Z</time></trkpt><trkpt lat="43.054149110212556" lon="11.488745142704813"><ele>567.6666666666666</ele><time>2026-03-28T12:59:07.943Z</time></trkpt><trkpt lat="43.054222645221344" lon="11.488713802007481"><ele>567.0</ele><time>2026-03-28T12:59:08.943Z</time></trkpt><trkpt lat="43.05428701361643" lon="11.488701444580803"><ele>566.3333333333334</ele><time>2026-03-28T12:59:09.943Z</time></trkpt><trkpt lat="43.054352983375054" lon="11.488692236162983"><ele>565.6666666666667</ele><time>2026-03-28T12:59:10.943Z</time></trkpt><trkpt lat="43.0544169231401" lon="11.488696278624044"><ele>565.0</ele><time>2026-03-28T12:59:11.943Z</time></trkpt><trkpt lat="43.05453481650176" lon="11.488726715292486"><ele>562.5</ele><time>2026-03-28T12:59:13.943Z</time></trkpt><trkpt lat="43.054642629472724" lon="11.488775815305328"><ele>560.0</ele><time>2026-03-28T12:59:15.943Z</time></trkpt><trkpt lat="43.05475306687753" lon="11.488841331288699"><ele>557.5</ele><time>2026-03-28T12:59:17.943Z</time></trkpt><trkpt lat="43.05486052062484" lon="11.488922422961503"><ele>555.0</ele><time>2026-03-28T12:59:19.943Z</time></trkpt><trkpt lat="43.05496034104129" lon="11.489010183302465"><ele>554.6666666666666</ele><time>2026-03-28T12:59:21.942Z</time></trkpt><trkpt lat="43.05505392783626" lon="11.489105650726854"><ele>554.3333333333334</ele><time>2026-03-28T12:59:23.942Z</time></trkpt><trkpt lat="43.05515677858683" lon="11.489147883049874"><ele>554.0</ele><time>2026-03-28T12:59:25.942Z</time></trkpt><trkpt lat="43.055217433526614" lon="11.489123866531328"><ele>553.6666666666667</ele><time>2026-03-28T12:59:26.942Z</time></trkpt><trkpt lat="43.05527789439229" lon="11.489096672212204"><ele>553.3333333333334</ele><time>2026-03-28T12:59:27.942Z</time></trkpt><trkpt lat="43.05534714437848" lon="11.489070694669046"><ele>553.0</ele><time>2026-03-28T12:59:28.942Z</time></trkpt><trkpt lat="43.05541488830948" lon="11.489058985858145"><ele>553.0</ele><time>2026-03-28T12:59:29.942Z</time></trkpt><trkpt lat="43.055485531489715" lon="11.489039041249487"><ele>553.0</ele><time>2026-03-28T12:59:30.942Z</time></trkpt><trkpt lat="43.05556311594254" lon="11.488992146442238"><ele>553.0</ele><time>2026-03-28T12:59:31.942Z</time></trkpt><trkpt lat="43.05565559900147" lon="11.488997754615076"><ele>553.0</ele><time>2026-03-28T12:59:32.942Z</time></trkpt><trkpt lat="43.05574342359775" lon="11.489016628317646"><ele>553.0</ele><time>2026-03-28T12:59:33.942Z</time></trkpt><trkpt lat="43.0558163672216" lon="11.48901150222091"><ele>553.0</ele><time>2026-03-28T12:59:34.942Z</time></trkpt><trkpt lat="43.0558908379817" lon="11.489092653782501"><ele>552.1999999999999</ele><time>2026-03-28T12:59:35.942Z</time></trkpt><trkpt lat="43.05597237934202" lon="11.489114550287395"><ele>551.4</ele><time>2026-03-28T12:59:36.942Z</time></trkpt><trkpt lat="43.056059062262904" lon="11.489112003573133"><ele>550.5999999999999</ele><time>2026-03-28T12:59:37.942Z</time></trkpt><trkpt lat="43.05615120943738" lon="11.489076223123556"><ele>549.8</ele><time>2026-03-28T12:59:38.942Z</time></trkpt><trkpt lat="43.056258464044745" lon="11.489040278140905"><ele>549.0</ele><time>2026-03-28T12:59:39.942Z</time></trkpt><trkpt lat="43.0563545639491" lon="11.488998488290987"><ele>549.0</ele><time>2026-03-28T12:59:40.942Z</time></trkpt><trkpt lat="43.05644877460863" lon="11.488954324577522"><ele>549.0</ele><time>2026-03-28T12:59:41.942Z</time></trkpt><trkpt lat="43.05653166773256" lon="11.488913127808512"><ele>549.0</ele><time>2026-03-28T12:59:42.942Z</time></trkpt><trkpt lat="43.056607209322706" lon="11.488878640778966"><ele>549.0</ele><time>2026-03-28T12:59:43.942Z</time></trkpt><trkpt lat="43.05668266762719" lon="11.48884195310389"><ele>549.0</ele><time>2026-03-28T12:59:44.942Z</time></trkpt><trkpt lat="43.05677532369542" lon="11.488792906614837"><ele>549.0</ele><time>2026-03-28T12:59:46.942Z</time></trkpt><trkpt lat="43.056885469289796" lon="11.488876762933943"><ele>549.1666666666666</ele><time>2026-03-28T12:59:49.942Z</time></trkpt><trkpt lat="43.05693645055975" lon="11.488974467002878"><ele>549.3333333333334</ele><time>2026-03-28T12:59:51.942Z</time></trkpt><trkpt lat="43.05698390313826" lon="11.489061151470896"><ele>549.5</ele><time>2026-03-28T12:59:53.942Z</time></trkpt><trkpt lat="43.05703115006143" lon="11.48914711043874"><ele>549.6666666666667</ele><time>2026-03-28T12:59:56.942Z</time></trkpt><trkpt lat="43.05696108499338" lon="11.489211866534838"><ele>549.8333333333334</ele><time>2026-03-28T12:59:58.942Z</time></trkpt><trkpt lat="43.05687674241691" lon="11.489233936804007"><ele>550.0</ele><time>2026-03-28T13:00:01.941Z</time></trkpt><trkpt lat="43.056784524422994" lon="11.48926301727554"><ele>550.0</ele><time>2026-03-28T13:00:03.941Z</time></trkpt><trkpt lat="43.05668263924124" lon="11.489290774157514"><ele>550.0</ele><time>2026-03-28T13:00:05.941Z</time></trkpt><trkpt lat="43.05657554536525" lon="11.489317015996026"><ele>550.0</ele><time>2026-03-28T13:00:07.941Z</time></trkpt><trkpt lat="43.05646448612114" lon="11.48934768715757"><ele>550.0</ele><time>2026-03-28T13:00:09.941Z</time></trkpt><trkpt lat="43.05641101821165" lon="11.489441113205235"><ele>550.0</ele><time>2026-03-28T13:00:11.941Z</time></trkpt><trkpt lat="43.05642991415392" lon="11.489561668606914"><ele>549.8333333333334</ele><time>2026-03-28T13:00:13.941Z</time></trkpt><trkpt lat="43.05649806170205" lon="11.489573048637059"><ele>549.6666666666667</ele><time>2026-03-28T13:00:14.941Z</time></trkpt><trkpt lat="43.0565726542436" lon="11.489625640973943"><ele>549.5</ele><time>2026-03-28T13:00:16.941Z</time></trkpt><trkpt lat="43.05657963704478" lon="11.489721655003923"><ele>549.3333333333334</ele><time>2026-03-28T13:00:18.941Z</time></trkpt><trkpt lat="43.056546680584276" lon="11.48982987159273"><ele>549.1666666666666</ele><time>2026-03-28T13:00:20.941Z</time></trkpt><trkpt lat="43.05648387073092" lon="11.489929334921024"><ele>549.0</ele><time>2026-03-28T13:00:22.941Z</time></trkpt><trkpt lat="43.05642919649577" lon="11.490037396290745"><ele>549.8333333333334</ele><time>2026-03-28T13:00:25.941Z</time></trkpt><trkpt lat="43.05637900874376" lon="11.49014147414056"><ele>550.6666666666666</ele><time>2026-03-28T13:00:27.941Z</time></trkpt><trkpt lat="43.0563914862865" lon="11.490228844331329"><ele>551.5</ele><time>2026-03-28T13:00:29.941Z</time></trkpt><trkpt lat="43.056475328983765" lon="11.490282644701223"><ele>552.3333333333333</ele><time>2026-03-28T13:00:32.941Z</time></trkpt><trkpt lat="43.056499816893634" lon="11.490178904544567"><ele>553.1666666666666</ele><time>2026-03-28T13:00:33.941Z</time></trkpt><trkpt lat="43.05655291559667" lon="11.490088967470351"><ele>554.0</ele><time>2026-03-28T13:00:36.941Z</time></trkpt><trkpt lat="43.05659889016345" lon="11.490025757748244"><ele>554.0</ele><time>2026-03-28T13:00:43.941Z</time></trkpt><trkpt lat="43.05655130577643" lon="11.489863249497581"><ele>554.0</ele><time>2026-03-28T13:00:47.941Z</time></trkpt><trkpt lat="43.056574271359025" lon="11.489771912504867"><ele>554.0</ele><time>2026-03-28T13:00:50.941Z</time></trkpt><trkpt lat="43.05651892456419" lon="11.48983967220091"><ele>554.0</ele><time>2026-03-28T13:00:51.941Z</time></trkpt><trkpt lat="43.05660237580887" lon="11.489713808357555"><ele>554.0</ele><time>2026-03-28T13:00:52.941Z</time></trkpt><trkpt lat="43.05657745731354" lon="11.489631531256716"><ele>554.0</ele><time>2026-03-28T13:00:54.941Z</time></trkpt><trkpt lat="43.0565021047545" lon="11.489585944376522"><ele>549.0</ele><time>2026-03-28T13:00:57.941Z</time></trkpt><trkpt lat="43.05645654712866" lon="11.489500577383529"><ele>549.0</ele><time>2026-03-28T13:01:00.941Z</time></trkpt></trkseg><trkseg><trkpt lat="43.05634030015712" lon="11.489460480355115"><ele>549.0</ele><time>2026-03-29T07:43:51Z</time></trkpt><trkpt lat="43.05641006172134" lon="11.489433829687979"><ele>549.0</ele><time>2026-03-29T07:43:55Z</time></trkpt><trkpt lat="43.05646631274294" lon="11.489374548198768"><ele>549.0</ele><time>2026-03-29T07:43:57Z</time></trkpt><trkpt lat="43.056554652051545" lon="11.489335370545366"><ele>549.0</ele><time>2026-03-29T07:43:59Z</time></trkpt><trkpt lat="43.056676104433535" lon="11.489312099777974"><ele>549.0</ele><time>2026-03-29T07:44:01Z</time></trkpt><trkpt lat="43.056791055902636" lon="11.48929347378004"><ele>549.1666666666666</ele><time>2026-03-29T07:44:03Z</time></trkpt><trkpt lat="43.056853389173426" lon="11.489275922225447"><ele>549.3333333333334</ele><time>2026-03-29T07:44:04Z</time></trkpt><trkpt lat="43.056968070280114" lon="11.489240791065916"><ele>549.5</ele><time>2026-03-29T07:44:06Z</time></trkpt><trkpt lat="43.057042893811676" lon="11.489206519537621"><ele>549.6666666666667</ele><time>2026-03-29T07:44:08Z</time></trkpt><trkpt lat="43.05708642497135" lon="11.489111559978355"><ele>549.8333333333334</ele><time>2026-03-29T07:44:11Z</time></trkpt><trkpt lat="43.05705560964917" lon="11.48902405098647"><ele>550.0</ele><time>2026-03-29T07:44:13Z</time></trkpt><trkpt lat="43.05697126279863" lon="11.488936311966379"><ele>550.0</ele><time>2026-03-29T07:44:15Z</time></trkpt><trkpt lat="43.056913335557724" lon="11.48882040326453"><ele>550.0</ele><time>2026-03-29T07:44:17Z</time></trkpt><trkpt lat="43.05685698257979" lon="11.488756607424909"><ele>550.0</ele><time>2026-03-29T07:44:19Z</time></trkpt><trkpt lat="43.056777107661134" lon="11.488754281021794"><ele>550.0</ele><time>2026-03-29T07:44:21Z</time></trkpt><trkpt lat="43.05666642176574" lon="11.488809869754531"><ele>550.0</ele><time>2026-03-29T07:44:23Z</time></trkpt><trkpt lat="43.056601768616545" lon="11.488845641154798"><ele>550.0</ele><time>2026-03-29T07:44:24Z</time></trkpt><trkpt lat="43.05651096160014" lon="11.488854214630829"><ele>549.8333333333334</ele><time>2026-03-29T07:44:25Z</time></trkpt><trkpt lat="43.05643549982942" lon="11.488923848060038"><ele>549.6666666666667</ele><time>2026-03-29T07:44:26Z</time></trkpt><trkpt lat="43.056350508687096" lon="11.48895891198607"><ele>549.5</ele><time>2026-03-29T07:44:27Z</time></trkpt><trkpt lat="43.05626128739423" lon="11.488984751425335"><ele>549.3333333333334</ele><time>2026-03-29T07:44:28Z</time></trkpt><trkpt lat="43.05617429185084" lon="11.489011742390655"><ele>549.1666666666666</ele><time>2026-03-29T07:44:29Z</time></trkpt><trkpt lat="43.056093422721496" lon="11.48903387809138"><ele>549.0</ele><time>2026-03-29T07:44:30Z</time></trkpt><trkpt lat="43.05600914419003" lon="11.489036576944534"><ele>549.0</ele><time>2026-03-29T07:44:31Z</time></trkpt><trkpt lat="43.05592845661535" lon="11.489023111507827"><ele>549.0</ele><time>2026-03-29T07:44:32Z</time></trkpt><trkpt lat="43.055847595334704" lon="11.488984620091687"><ele>549.0</ele><time>2026-03-29T07:44:33Z</time></trkpt><trkpt lat="43.055754689675126" lon="11.488951794279325"><ele>549.0</ele><time>2026-03-29T07:44:34Z</time></trkpt><trkpt lat="43.05566789521586" lon="11.488937731859032"><ele>549.0</ele><time>2026-03-29T07:44:35Z</time></trkpt><trkpt lat="43.055587643503046" lon="11.48895077723798"><ele>549.0</ele><time>2026-03-29T07:44:36Z</time></trkpt><trkpt lat="43.05551404220062" lon="11.48896573654896"><ele>549.6666666666666</ele><time>2026-03-29T07:44:37Z</time></trkpt><trkpt lat="43.05543922411548" lon="11.488981601486918"><ele>550.3333333333334</ele><time>2026-03-29T07:44:38Z</time></trkpt><trkpt lat="43.05536391457195" lon="11.48899143725432"><ele>551.0</ele><time>2026-03-29T07:44:39Z</time></trkpt><trkpt lat="43.05529303670771" lon="11.48898823546474"><ele>551.6666666666667</ele><time>2026-03-29T07:44:40Z</time></trkpt><trkpt lat="43.055223260372806" lon="11.48897929532122"><ele>552.3333333333334</ele><time>2026-03-29T07:44:41Z</time></trkpt><trkpt lat="43.0551120385205" lon="11.488998475899926"><ele>553.0</ele><time>2026-03-29T07:44:43Z</time></trkpt><trkpt lat="43.05503751905332" lon="11.489065560366473"><ele>553.4</ele><time>2026-03-29T07:44:45Z</time></trkpt><trkpt lat="43.05495256716106" lon="11.489103557133284"><ele>553.8</ele><time>2026-03-29T07:44:47Z</time></trkpt><trkpt lat="43.054832888177124" lon="11.489113463177425"><ele>554.2</ele><time>2026-03-29T07:44:49Z</time></trkpt><trkpt lat="43.05469809034087" lon="11.48912036922838"><ele>554.6</ele><time>2026-03-29T07:44:51Z</time></trkpt><trkpt lat="43.054635125718626" lon="11.489114740873845"><ele>555.0</ele><time>2026-03-29T07:44:52Z</time></trkpt><trkpt lat="43.05456020461158" lon="11.489108416131472"><ele>555.0</ele><time>2026-03-29T07:44:53.999Z</time></trkpt><trkpt lat="43.05466288205893" lon="11.489144527151597"><ele>555.0</ele><time>2026-03-29T07:45:09.999Z</time></trkpt><trkpt lat="43.05478097509158" lon="11.48914252745118"><ele>555.0</ele><time>2026-03-29T07:45:11.999Z</time></trkpt><trkpt lat="43.054892622700486" lon="11.48913031508136"><ele>555.0</ele><time>2026-03-29T07:45:13.999Z</time></trkpt><trkpt lat="43.05496996124131" lon="11.489111126920054"><ele>555.0</ele><time>2026-03-29T07:45:15.999Z</time></trkpt><trkpt lat="43.055024451525526" lon="11.489174122987274"><ele>555.0</ele><time>2026-03-29T07:45:18.999Z</time></trkpt><trkpt lat="43.054932924349366" lon="11.489216601444785"><ele>555.0</ele><time>2026-03-29T07:45:21.999Z</time></trkpt><trkpt lat="43.05486610547898" lon="11.489218612233897"><ele>555.0</ele><time>2026-03-29T07:45:22.999Z</time></trkpt><trkpt lat="43.054767898507876" lon="11.489218094106194"><ele>555.0</ele><time>2026-03-29T07:45:23.999Z</time></trkpt><trkpt lat="43.054660592458696" lon="11.489229691733458"><ele>555.0</ele><time>2026-03-29T07:45:24.999Z</time></trkpt><trkpt lat="43.0545635293949" lon="11.489240137166771"><ele>555.0</ele><time>2026-03-29T07:45:25.999Z</time></trkpt><trkpt lat="43.05447261902021" lon="11.489258085092647"><ele>555.0</ele><time>2026-03-29T07:45:26.999Z</time></trkpt><trkpt lat="43.0543832692575" lon="11.489270149730421"><ele>555.0</ele><time>2026-03-29T07:45:27.999Z</time></trkpt><trkpt lat="43.05429567411153" lon="11.489291755952912"><ele>555.0</ele><time>2026-03-29T07:45:28.999Z</time></trkpt><trkpt lat="43.054196185401075" lon="11.489321295857621"><ele>555.0</ele><time>2026-03-29T07:45:29.999Z</time></trkpt><trkpt lat="43.05412425531003" lon="11.489420721263869"><ele>553.2</ele><time>2026-03-29T07:45:30.999Z</time></trkpt><trkpt lat="43.05409175296548" lon="11.489560997429898"><ele>551.4</ele><time>2026-03-29T07:45:31.999Z</time></trkpt><trkpt lat="43.05409545097628" lon="11.489704401073459"><ele>549.6</ele><time>2026-03-29T07:45:32.999Z</time></trkpt><trkpt lat="43.05411929208637" lon="11.489840343208357"><ele>547.8</ele><time>2026-03-29T07:45:33.999Z</time></trkpt><trkpt lat="43.05416856681977" lon="11.489952995555987"><ele>546.0</ele><time>2026-03-29T07:45:34.999Z</time></trkpt><trkpt lat="43.0542389173194" lon="11.49004816382604"><ele>546.0</ele><time>2026-03-29T07:45:35.999Z</time></trkpt><trkpt lat="43.054316979752635" lon="11.490121545670007"><ele>546.0</ele><time>2026-03-29T07:45:36.999Z</time></trkpt><trkpt lat="43.05440033788973" lon="11.490198665113633"><ele>546.0</ele><time>2026-03-29T07:45:37.999Z</time></trkpt><trkpt lat="43.05449548889234" lon="11.490303239019315"><ele>546.0</ele><time>2026-03-29T07:45:38.999Z</time></trkpt><trkpt lat="43.0545849330041" lon="11.490413483754025"><ele>546.0</ele><time>2026-03-29T07:45:39.999Z</time></trkpt><trkpt lat="43.054668540908494" lon="11.490537605500498"><ele>544.4</ele><time>2026-03-29T07:45:40.999Z</time></trkpt><trkpt lat="43.05475087926064" lon="11.490649164079777"><ele>542.8</ele><time>2026-03-29T07:45:41.999Z</time></trkpt><trkpt lat="43.05481627626249" lon="11.490753061643701"><ele>541.1999999999999</ele><time>2026-03-29T07:45:42.999Z</time></trkpt><trkpt lat="43.05488738469194" lon="11.49085966103624"><ele>539.6</ele><time>2026-03-29T07:45:43.999Z</time></trkpt><trkpt lat="43.05494566282388" lon="11.490965215169089"><ele>538.0</ele><time>2026-03-29T07:45:44.999Z</time></trkpt><trkpt lat="43.054998650833014" lon="11.491078790137903"><ele>537.8</ele><time>2026-03-29T07:45:45.999Z</time></trkpt><trkpt lat="43.05505681766279" lon="11.491189927970838"><ele>537.5999999999999</ele><time>2026-03-29T07:45:46.999Z</time></trkpt><trkpt lat="43.055106486227935" lon="11.491307247770422"><ele>537.4000000000001</ele><time>2026-03-29T07:45:47.999Z</time></trkpt><trkpt lat="43.05517351701272" lon="11.491421296927344"><ele>537.2</ele><time>2026-03-29T07:45:48.999Z</time></trkpt><trkpt lat="43.05522296501299" lon="11.491524682756696"><ele>537.0</ele><time>2026-03-29T07:45:49.999Z</time></trkpt><trkpt lat="43.05527299326781" lon="11.491618839284836"><ele>534.1428571428571</ele><time>2026-03-29T07:45:50.999Z</time></trkpt><trkpt lat="43.05532950995331" lon="11.491688781134558"><ele>531.2857142857142</ele><time>2026-03-29T07:45:51.999Z</time></trkpt><trkpt lat="43.055377473687145" lon="11.491744775100626"><ele>528.4285714285714</ele><time>2026-03-29T07:45:52.999Z</time></trkpt><trkpt lat="43.055439429282536" lon="11.491830526470372"><ele>525.5714285714286</ele><time>2026-03-29T07:45:54.999Z</time></trkpt><trkpt lat="43.055403983584455" lon="11.491902851503735"><ele>522.7142857142858</ele><time>2026-03-29T07:45:56.999Z</time></trkpt><trkpt lat="43.05534212331564" lon="11.491860870628326"><ele>519.8571428571429</ele><time>2026-03-29T07:45:58.999Z</time></trkpt><trkpt lat="43.05530023871257" lon="11.491782314486242"><ele>517.0</ele><time>2026-03-29T07:45:59.999Z</time></trkpt><trkpt lat="43.05525449812034" lon="11.491690373443614"><ele>517.0</ele><time>2026-03-29T07:46:00.999Z</time></trkpt><trkpt lat="43.0551975530874" lon="11.491611140745299"><ele>517.0</ele><time>2026-03-29T07:46:01.999Z</time></trkpt><trkpt lat="43.055140963138825" lon="11.491541070101587"><ele>517.0</ele><time>2026-03-29T07:46:02.999Z</time></trkpt><trkpt lat="43.05508182488419" lon="11.49145941985015"><ele>517.0</ele><time>2026-03-29T07:46:03.999Z</time></trkpt><trkpt lat="43.05501824455588" lon="11.491368721068902"><ele>517.0</ele><time>2026-03-29T07:46:04.999Z</time></trkpt><trkpt lat="43.05495332616046" lon="11.491282554308814"><ele>517.0</ele><time>2026-03-29T07:46:05.999Z</time></trkpt><trkpt lat="43.05489614409077" lon="11.491191706363095"><ele>520.0</ele><time>2026-03-29T07:46:06.999Z</time></trkpt><trkpt lat="43.05484579675098" lon="11.491106195003502"><ele>523.0</ele><time>2026-03-29T07:46:07.999Z</time></trkpt><trkpt lat="43.05480389021752" lon="11.491029898428158"><ele>526.0</ele><time>2026-03-29T07:46:08.999Z</time></trkpt><trkpt lat="43.05475093459307" lon="11.490966988124516"><ele>529.0</ele><time>2026-03-29T07:46:09.999Z</time></trkpt><trkpt lat="43.05468599760854" lon="11.49092809854257"><ele>532.0</ele><time>2026-03-29T07:46:10.999Z</time></trkpt><trkpt lat="43.05461680583049" lon="11.490910491654565"><ele>535.0</ele><time>2026-03-29T07:46:11.999Z</time></trkpt><trkpt lat="43.05453131448717" lon="11.490931354892544"><ele>538.0</ele><time>2026-03-29T07:46:12.999Z</time></trkpt><trkpt lat="43.054460603487115" lon="11.490985827263883"><ele>538.0</ele><time>2026-03-29T07:46:13.999Z</time></trkpt><trkpt lat="43.05439746875661" lon="11.491071309108172"><ele>538.0</ele><time>2026-03-29T07:46:14.999Z</time></trkpt><trkpt lat="43.05435270552601" lon="11.49117071071906"><ele>538.0</ele><time>2026-03-29T07:46:15.999Z</time></trkpt><trkpt lat="43.05435283660475" lon="11.491306161715805"><ele>538.0</ele><time>2026-03-29T07:46:16.999Z</time></trkpt><trkpt lat="43.05435047840108" lon="11.491429995483735"><ele>538.0</ele><time>2026-03-29T07:46:17.999Z</time></trkpt><trkpt lat="43.0543636083304" lon="11.491564954242065"><ele>537.6</ele><time>2026-03-29T07:46:18.999Z</time></trkpt><trkpt lat="43.05437967802891" lon="11.491694219263781"><ele>537.1999999999999</ele><time>2026-03-29T07:46:19.999Z</time></trkpt><trkpt lat="43.05439712620715" lon="11.491836691348006"><ele>536.8</ele><time>2026-03-29T07:46:20.999Z</time></trkpt><trkpt lat="43.05441018424575" lon="11.491971260896962"><ele>536.4</ele><time>2026-03-29T07:46:21.999Z</time></trkpt><trkpt lat="43.05442143945023" lon="11.492106833715448"><ele>536.0</ele><time>2026-03-29T07:46:22.999Z</time></trkpt><trkpt lat="43.05443034899353" lon="11.492247391865012"><ele>533.0</ele><time>2026-03-29T07:46:23.999Z</time></trkpt><trkpt lat="43.054445196766935" lon="11.492404834846065"><ele>530.0</ele><time>2026-03-29T07:46:24.999Z</time></trkpt><trkpt lat="43.05444446209448" lon="11.492563255534773"><ele>527.0</ele><time>2026-03-29T07:46:25.999Z</time></trkpt><trkpt lat="43.05441318240674" lon="11.492724682531575"><ele>524.0</ele><time>2026-03-29T07:46:26.999Z</time></trkpt><trkpt lat="43.054397324046704" lon="11.492889900975243"><ele>521.5</ele><time>2026-03-29T07:46:27.999Z</time></trkpt><trkpt lat="43.05434313935324" lon="11.49304992265202"><ele>519.0</ele><time>2026-03-29T07:46:28.999Z</time></trkpt><trkpt lat="43.054275215267594" lon="11.493191950337204"><ele>516.5</ele><time>2026-03-29T07:46:29.999Z</time></trkpt><trkpt lat="43.05419615122918" lon="11.493305420660063"><ele>514.0</ele><time>2026-03-29T07:46:30.999Z</time></trkpt><trkpt lat="43.0541187361194" lon="11.493410154138884"><ele>514.0</ele><time>2026-03-29T07:46:31.999Z</time></trkpt><trkpt lat="43.054025818648036" lon="11.493504208704497"><ele>514.0</ele><time>2026-03-29T07:46:32.999Z</time></trkpt><trkpt lat="43.053915352394085" lon="11.493586100967727"><ele>514.0</ele><time>2026-03-29T07:46:33.999Z</time></trkpt><trkpt lat="43.0538124877167" lon="11.493680095175515"><ele>514.0</ele><time>2026-03-29T07:46:34.999Z</time></trkpt><trkpt lat="43.053720518242216" lon="11.493789751915665"><ele>512.5</ele><time>2026-03-29T07:46:35.999Z</time></trkpt><trkpt lat="43.053637658611265" lon="11.493914862211486"><ele>511.0</ele><time>2026-03-29T07:46:36.999Z</time></trkpt><trkpt lat="43.05357519684125" lon="11.494056501228659"><ele>509.5</ele><time>2026-03-29T07:46:37.999Z</time></trkpt><trkpt lat="43.05351505683609" lon="11.494210673054177"><ele>508.0</ele><time>2026-03-29T07:46:38.999Z</time></trkpt><trkpt lat="43.0534872384231" lon="11.494388799593874"><ele>508.0</ele><time>2026-03-29T07:46:39.999Z</time></trkpt><trkpt lat="43.05349976231045" lon="11.494560160014172"><ele>508.0</ele><time>2026-03-29T07:46:40.999Z</time></trkpt><trkpt lat="43.05350302124532" lon="11.494728879758162"><ele>508.0</ele><time>2026-03-29T07:46:41.999Z</time></trkpt><trkpt lat="43.05349549838159" lon="11.494902377198569"><ele>508.0</ele><time>2026-03-29T07:46:42.999Z</time></trkpt><trkpt lat="43.05352574458406" lon="11.495076580013276"><ele>507.25</ele><time>2026-03-29T07:46:43.999Z</time></trkpt><trkpt lat="43.05353267681476" lon="11.495254010945313"><ele>506.5</ele><time>2026-03-29T07:46:44.999Z</time></trkpt><trkpt lat="43.053541331030026" lon="11.495423881828879"><ele>505.75</ele><time>2026-03-29T07:46:45.999Z</time></trkpt><trkpt lat="43.05354568148774" lon="11.495591835790792"><ele>505.0</ele><time>2026-03-29T07:46:46.999Z</time></trkpt><trkpt lat="43.053542615008936" lon="11.4957621868888"><ele>504.75</ele><time>2026-03-29T07:46:47.999Z</time></trkpt><trkpt lat="43.05353560516398" lon="11.495933313610799"><ele>504.5</ele><time>2026-03-29T07:46:48.999Z</time></trkpt><trkpt lat="43.05351653703591" lon="11.496111010299812"><ele>504.25</ele><time>2026-03-29T07:46:49.999Z</time></trkpt><trkpt lat="43.05350540662374" lon="11.496289020341347"><ele>504.0</ele><time>2026-03-29T07:46:50.999Z</time></trkpt><trkpt lat="43.05348252082281" lon="11.496464352431733"><ele>502.75</ele><time>2026-03-29T07:46:51.999Z</time></trkpt><trkpt lat="43.053462872691036" lon="11.496639505234052"><ele>501.5</ele><time>2026-03-29T07:46:52.999Z</time></trkpt><trkpt lat="43.05343858145656" lon="11.496809046343841"><ele>500.25</ele><time>2026-03-29T07:46:53.999Z</time></trkpt><trkpt lat="43.053410542178334" lon="11.49698117824668"><ele>499.0</ele><time>2026-03-29T07:46:54.999Z</time></trkpt><trkpt lat="43.053369390937235" lon="11.497147605224026"><ele>498.25</ele><time>2026-03-29T07:46:55.999Z</time></trkpt><trkpt lat="43.053320390801844" lon="11.497311228934587"><ele>497.5</ele><time>2026-03-29T07:46:56.999Z</time></trkpt><trkpt lat="43.053263828187546" lon="11.497472042389626"><ele>496.75</ele><time>2026-03-29T07:46:57.999Z</time></trkpt><trkpt lat="43.05320392411116" lon="11.497628479464794"><ele>496.0</ele><time>2026-03-29T07:46:58.999Z</time></trkpt><trkpt lat="43.053135995233674" lon="11.497784916313126"><ele>497.0</ele><time>2026-03-29T07:46:59.999Z</time></trkpt><trkpt lat="43.05306598215387" lon="11.497940979599274"><ele>498.0</ele><time>2026-03-29T07:47:00.999Z</time></trkpt><trkpt lat="43.052992053426884" lon="11.498103923126333"><ele>499.0</ele><time>2026-03-29T07:47:01.999Z</time></trkpt><trkpt lat="43.0529178200768" lon="11.498267136272641"><ele>500.0</ele><time>2026-03-29T07:47:02.999Z</time></trkpt><trkpt lat="43.052847626141826" lon="11.498437787129552"><ele>500.0</ele><time>2026-03-29T07:47:03.999Z</time></trkpt><trkpt lat="43.05277678776293" lon="11.498609682533317"><ele>500.0</ele><time>2026-03-29T07:47:04.999Z</time></trkpt><trkpt lat="43.052707347181844" lon="11.498780955308927"><ele>500.0</ele><time>2026-03-29T07:47:05.999Z</time></trkpt><trkpt lat="43.05264043637973" lon="11.498939952105122"><ele>500.0</ele><time>2026-03-29T07:47:06.999Z</time></trkpt><trkpt lat="43.05257252062641" lon="11.499091139266255"><ele>498.25</ele><time>2026-03-29T07:47:07.999Z</time></trkpt><trkpt lat="43.052505345133866" lon="11.4992385591542"><ele>496.5</ele><time>2026-03-29T07:47:08.999Z</time></trkpt><trkpt lat="43.05244353476373" lon="11.499383841460672"><ele>494.75</ele><time>2026-03-29T07:47:09.999Z</time></trkpt><trkpt lat="43.05238182829512" lon="11.499529426279738"><ele>493.0</ele><time>2026-03-29T07:47:10.999Z</time></trkpt><trkpt lat="43.05232041297475" lon="11.499678813080566"><ele>489.5</ele><time>2026-03-29T07:47:11.999Z</time></trkpt><trkpt lat="43.05225924043375" lon="11.499836381187743"><ele>486.0</ele><time>2026-03-29T07:47:12.999Z</time></trkpt><trkpt lat="43.05219761956878" lon="11.499996782517925"><ele>482.5</ele><time>2026-03-29T07:47:13.999Z</time></trkpt><trkpt lat="43.052132564427104" lon="11.500153412756134"><ele>479.0</ele><time>2026-03-29T07:47:14.999Z</time></trkpt><trkpt lat="43.052067416062364" lon="11.500308427761897"><ele>477.75</ele><time>2026-03-29T07:47:15.999Z</time></trkpt><trkpt lat="43.05200951792235" lon="11.50046392646778"><ele>476.5</ele><time>2026-03-29T07:47:16.999Z</time></trkpt><trkpt lat="43.05196530214376" lon="11.500625920459845"><ele>475.25</ele><time>2026-03-29T07:47:17.999Z</time></trkpt><trkpt lat="43.05193486848035" lon="11.500797158751915"><ele>474.0</ele><time>2026-03-29T07:47:18.999Z</time></trkpt><trkpt lat="43.05191395308478" lon="11.500974176050887"><ele>474.0</ele><time>2026-03-29T07:47:19.999Z</time></trkpt><trkpt lat="43.05190860783248" lon="11.501147842443574"><ele>474.0</ele><time>2026-03-29T07:47:20.999Z</time></trkpt><trkpt lat="43.05191346172731" lon="11.501323953103563"><ele>474.0</ele><time>2026-03-29T07:47:21.999Z</time></trkpt><trkpt lat="43.05191809988872" lon="11.501508295970686"><ele>474.0</ele><time>2026-03-29T07:47:22.999Z</time></trkpt><trkpt lat="43.05192619630184" lon="11.50169161153692"><ele>472.75</ele><time>2026-03-29T07:47:23.999Z</time></trkpt><trkpt lat="43.05192977149553" lon="11.501869984556274"><ele>471.5</ele><time>2026-03-29T07:47:24.999Z</time></trkpt><trkpt lat="43.05191465628511" lon="11.502045087862015"><ele>470.25</ele><time>2026-03-29T07:47:25.999Z</time></trkpt><trkpt lat="43.05188806057693" lon="11.502212848194961"><ele>469.0</ele><time>2026-03-29T07:47:26.999Z</time></trkpt><trkpt lat="43.0518426792357" lon="11.50237800229052"><ele>468.25</ele><time>2026-03-29T07:47:27.999Z</time></trkpt><trkpt lat="43.05179921869253" lon="11.502540384071931"><ele>467.5</ele><time>2026-03-29T07:47:28.999Z</time></trkpt><trkpt lat="43.051766548668596" lon="11.502698869163867"><ele>466.75</ele><time>2026-03-29T07:47:29.999Z</time></trkpt><trkpt lat="43.051736066320736" lon="11.502850088408755"><ele>466.0</ele><time>2026-03-29T07:47:30.999Z</time></trkpt><trkpt lat="43.05172352822726" lon="11.502999784282606"><ele>465.6</ele><time>2026-03-29T07:47:31.999Z</time></trkpt><trkpt lat="43.05173537481221" lon="11.503147094599933"><ele>465.20000000000005</ele><time>2026-03-29T07:47:32.999Z</time></trkpt><trkpt lat="43.05177206445649" lon="11.503307982632721"><ele>464.79999999999995</ele><time>2026-03-29T07:47:33.999Z</time></trkpt><trkpt lat="43.05182238153734" lon="11.503427809768931"><ele>464.4</ele><time>2026-03-29T07:47:34.999Z</time></trkpt><trkpt lat="43.05187889678428" lon="11.503564378717606"><ele>464.0</ele><time>2026-03-29T07:47:35.999Z</time></trkpt><trkpt lat="43.05194713073489" lon="11.503691678763682"><ele>462.4</ele><time>2026-03-29T07:47:36.999Z</time></trkpt><trkpt lat="43.05198789460586" lon="11.503818987008946"><ele>460.79999999999995</ele><time>2026-03-29T07:47:37.999Z</time></trkpt><trkpt lat="43.052039144564816" lon="11.503944514087772"><ele>459.20000000000005</ele><time>2026-03-29T07:47:38.999Z</time></trkpt><trkpt lat="43.05209655055752" lon="11.504082981422055"><ele>457.6</ele><time>2026-03-29T07:47:39.999Z</time></trkpt><trkpt lat="43.05214424995927" lon="11.50419980363078"><ele>456.0</ele><time>2026-03-29T07:47:40.999Z</time></trkpt><trkpt lat="43.05219488647773" lon="11.504329389740775"><ele>456.0</ele><time>2026-03-29T07:47:41.999Z</time></trkpt><trkpt lat="43.05223783247287" lon="11.504462870164327"><ele>456.0</ele><time>2026-03-29T07:47:42.999Z</time></trkpt><trkpt lat="43.052282606862036" lon="11.504574378690206"><ele>456.0</ele><time>2026-03-29T07:47:43.999Z</time></trkpt><trkpt lat="43.052294528688364" lon="11.504702670059109"><ele>456.0</ele><time>2026-03-29T07:47:44.999Z</time></trkpt><trkpt lat="43.05229186779424" lon="11.504824537948894"><ele>456.0</ele><time>2026-03-29T07:47:45.999Z</time></trkpt><trkpt lat="43.052281757010824" lon="11.504941907469385"><ele>454.6666666666667</ele><time>2026-03-29T07:47:46.999Z</time></trkpt><trkpt lat="43.05226348889752" lon="11.505050433529249"><ele>453.33333333333337</ele><time>2026-03-29T07:47:47.999Z</time></trkpt><trkpt lat="43.05224139112772" lon="11.505151445489435"><ele>452.0</ele><time>2026-03-29T07:47:48.999Z</time></trkpt><trkpt lat="43.05221205220604" lon="11.505251040718454"><ele>450.6666666666667</ele><time>2026-03-29T07:47:49.999Z</time></trkpt><trkpt lat="43.052178590899565" lon="11.505352781891125"><ele>449.33333333333337</ele><time>2026-03-29T07:47:50.999Z</time></trkpt><trkpt lat="43.052144864050184" lon="11.505468088903081"><ele>448.0</ele><time>2026-03-29T07:47:51.999Z</time></trkpt><trkpt lat="43.05210789333479" lon="11.505587916454816"><ele>448.0</ele><time>2026-03-29T07:47:52.999Z</time></trkpt><trkpt lat="43.05206670658179" lon="11.505706681665986"><ele>447.99999999999994</ele><time>2026-03-29T07:47:53.999Z</time></trkpt><trkpt lat="43.05202510414309" lon="11.505822806989231"><ele>447.99999999999994</ele><time>2026-03-29T07:47:54.999Z</time></trkpt><trkpt lat="43.05198540916248" lon="11.505949799589024"><ele>448.0</ele><time>2026-03-29T07:47:55.999Z</time></trkpt><trkpt lat="43.05194632741325" lon="11.506072362205872"><ele>448.0</ele><time>2026-03-29T07:47:56.999Z</time></trkpt><trkpt lat="43.05190724620682" lon="11.50618670800342"><ele>448.83333333333337</ele><time>2026-03-29T07:47:57.999Z</time></trkpt><trkpt lat="43.05187066048719" lon="11.506301173673009"><ele>449.6666666666667</ele><time>2026-03-29T07:47:58.999Z</time></trkpt><trkpt lat="43.0518393860288" lon="11.506410495307513"><ele>450.5</ele><time>2026-03-29T07:47:59.999Z</time></trkpt><trkpt lat="43.05180955688788" lon="11.50650402666936"><ele>451.33333333333337</ele><time>2026-03-29T07:48:00.999Z</time></trkpt><trkpt lat="43.05176529234838" lon="11.506643155152892"><ele>452.1666666666667</ele><time>2026-03-29T07:48:02.999Z</time></trkpt><trkpt lat="43.05178640006347" lon="11.506739593316617"><ele>453.0</ele><time>2026-03-29T07:48:46.999Z</time></trkpt><trkpt lat="43.05180649024105" lon="11.506921296941256"><ele>453.0</ele><time>2026-03-29T07:48:48.999Z</time></trkpt><trkpt lat="43.05182251439134" lon="11.507031124261687"><ele>452.99999999999994</ele><time>2026-03-29T07:48:49.999Z</time></trkpt><trkpt lat="43.05184479115423" lon="11.507154452481961"><ele>452.99999999999994</ele><time>2026-03-29T07:48:50.999Z</time></trkpt><trkpt lat="43.05186996824709" lon="11.507277848837838"><ele>453.0</ele><time>2026-03-29T07:48:51.999Z</time></trkpt><trkpt lat="43.051834427435395" lon="11.50742099209911"><ele>453.0</ele><time>2026-03-29T07:48:52.999Z</time></trkpt><trkpt lat="43.051835782961135" lon="11.5075550043434"><ele>453.4</ele><time>2026-03-29T07:48:53.999Z</time></trkpt><trkpt lat="43.05183059920938" lon="11.507689277732505"><ele>453.79999999999995</ele><time>2026-03-29T07:48:54.999Z</time></trkpt><trkpt lat="43.051819281408854" lon="11.507828476318902"><ele>454.2</ele><time>2026-03-29T07:48:55.999Z</time></trkpt><trkpt lat="43.05179060007896" lon="11.507946683817273"><ele>454.6</ele><time>2026-03-29T07:48:56.999Z</time></trkpt><trkpt lat="43.05175028457714" lon="11.508062070379715"><ele>455.0</ele><time>2026-03-29T07:48:57.999Z</time></trkpt><trkpt lat="43.051691934560324" lon="11.50817729600668"><ele>454.5</ele><time>2026-03-29T07:48:58.999Z</time></trkpt><trkpt lat="43.05162604722939" lon="11.50830330889474"><ele>454.0</ele><time>2026-03-29T07:48:59.999Z</time></trkpt><trkpt lat="43.05154280364342" lon="11.508425483886649"><ele>453.5</ele><time>2026-03-29T07:49:00.999Z</time></trkpt><trkpt lat="43.051454247770785" lon="11.508561050995612"><ele>453.0</ele><time>2026-03-29T07:49:01.999Z</time></trkpt><trkpt lat="43.051348287331514" lon="11.508713500356517"><ele>448.33333333333337</ele><time>2026-03-29T07:49:02.999Z</time></trkpt><trkpt lat="43.05123281171442" lon="11.508867373280063"><ele>443.6666666666667</ele><time>2026-03-29T07:49:03.999Z</time></trkpt><trkpt lat="43.05111722665131" lon="11.509004804430669"><ele>439.0</ele><time>2026-03-29T07:49:04.999Z</time></trkpt><trkpt lat="43.051000885158324" lon="11.509138737688255"><ele>439.0</ele><time>2026-03-29T07:49:05.999Z</time></trkpt><trkpt lat="43.05087498999108" lon="11.509273254601716"><ele>439.0</ele><time>2026-03-29T07:49:06.999Z</time></trkpt><trkpt lat="43.05074021264596" lon="11.5094082738538"><ele>439.0</ele><time>2026-03-29T07:49:07.999Z</time></trkpt><trkpt lat="43.05061297503916" lon="11.509544095944388"><ele>436.0</ele><time>2026-03-29T07:49:08.999Z</time></trkpt><trkpt lat="43.05048674698056" lon="11.50967811307467"><ele>433.0</ele><time>2026-03-29T07:49:09.999Z</time></trkpt><trkpt lat="43.05036213008564" lon="11.509812887460987"><ele>430.0</ele><time>2026-03-29T07:49:10.999Z</time></trkpt><trkpt lat="43.05024012585251" lon="11.509943508426481"><ele>430.0</ele><time>2026-03-29T07:49:11.999Z</time></trkpt><trkpt lat="43.050125181759356" lon="11.510068365935572"><ele>430.0</ele><time>2026-03-29T07:49:12.999Z</time></trkpt><trkpt lat="43.05001114620903" lon="11.510187417257661"><ele>430.0</ele><time>2026-03-29T07:49:13.999Z</time></trkpt><trkpt lat="43.04989922804173" lon="11.51029929084836"><ele>430.0</ele><time>2026-03-29T07:49:14.999Z</time></trkpt><trkpt lat="43.0497916837256" lon="11.510404534500244"><ele>426.5</ele><time>2026-03-29T07:49:15.999Z</time></trkpt><trkpt lat="43.04968483027489" lon="11.51052046140495"><ele>423.0</ele><time>2026-03-29T07:49:16.999Z</time></trkpt><trkpt lat="43.04958608899646" lon="11.510667322710399"><ele>419.5</ele><time>2026-03-29T07:49:17.999Z</time></trkpt><trkpt lat="43.049489570280144" lon="11.510824008863453"><ele>416.0</ele><time>2026-03-29T07:49:18.999Z</time></trkpt><trkpt lat="43.04939167803176" lon="11.510976088618719"><ele>416.0</ele><time>2026-03-29T07:49:19.999Z</time></trkpt><trkpt lat="43.049299080410215" lon="11.511141033093267"><ele>416.0</ele><time>2026-03-29T07:49:20.999Z</time></trkpt><trkpt lat="43.04921948025203" lon="11.511332823190756"><ele>416.0</ele><time>2026-03-29T07:49:21.999Z</time></trkpt><trkpt lat="43.04916513556129" lon="11.511539311424498"><ele>413.0</ele><time>2026-03-29T07:49:22.999Z</time></trkpt><trkpt lat="43.049122000542674" lon="11.511748470081857"><ele>410.0</ele><time>2026-03-29T07:49:23.999Z</time></trkpt><trkpt lat="43.04905440345999" lon="11.511934686215174"><ele>407.0</ele><time>2026-03-29T07:49:24.999Z</time></trkpt><trkpt lat="43.04900806593918" lon="11.512133275973481"><ele>407.0</ele><time>2026-03-29T07:49:25.999Z</time></trkpt><trkpt lat="43.04894023232671" lon="11.512317157236954"><ele>407.0</ele><time>2026-03-29T07:49:26.999Z</time></trkpt><trkpt lat="43.04887175958456" lon="11.512490911441201"><ele>407.0</ele><time>2026-03-29T07:49:27.999Z</time></trkpt><trkpt lat="43.048804260522516" lon="11.512645852819748"><ele>407.0</ele><time>2026-03-29T07:49:28.999Z</time></trkpt><trkpt lat="43.048750934240736" lon="11.512773076103349"><ele>407.0</ele><time>2026-03-29T07:49:29.999Z</time></trkpt><trkpt lat="43.04872354610726" lon="11.512907427665464"><ele>407.0</ele><time>2026-03-29T07:49:30.999Z</time></trkpt><trkpt lat="43.04872425913491" lon="11.513059480069076"><ele>407.0</ele><time>2026-03-29T07:49:31.999Z</time></trkpt><trkpt lat="43.04875767196412" lon="11.513213891464911"><ele>407.0</ele><time>2026-03-29T07:49:32.999Z</time></trkpt><trkpt lat="43.04881224244463" lon="11.51336526506616"><ele>407.0</ele><time>2026-03-29T07:49:33.999Z</time></trkpt><trkpt lat="43.048865984402305" lon="11.513520935923193"><ele>407.0</ele><time>2026-03-29T07:49:34.999Z</time></trkpt><trkpt lat="43.048899110256635" lon="11.513694931455383"><ele>407.0</ele><time>2026-03-29T07:49:35.999Z</time></trkpt><trkpt lat="43.04889825070726" lon="11.513876953777153"><ele>407.0</ele><time>2026-03-29T07:49:36.999Z</time></trkpt><trkpt lat="43.04887498433637" lon="11.514063789933772"><ele>406.25</ele><time>2026-03-29T07:49:37.999Z</time></trkpt><trkpt lat="43.04883391377441" lon="11.514244373405448"><ele>405.5</ele><time>2026-03-29T07:49:38.999Z</time></trkpt><trkpt lat="43.04879381873575" lon="11.514412582975002"><ele>404.75</ele><time>2026-03-29T07:49:39.999Z</time></trkpt><trkpt lat="43.048757064043805" lon="11.514568741306965"><ele>404.0</ele><time>2026-03-29T07:49:40.999Z</time></trkpt><trkpt lat="43.04873139894209" lon="11.514700337308426"><ele>403.0</ele><time>2026-03-29T07:49:41.998Z</time></trkpt><trkpt lat="43.048734155692834" lon="11.51483072791423"><ele>402.0</ele><time>2026-03-29T07:49:42.998Z</time></trkpt><trkpt lat="43.04876647924115" lon="11.514954817148537"><ele>401.0</ele><time>2026-03-29T07:49:43.998Z</time></trkpt><trkpt lat="43.04882287333861" lon="11.515072939850304"><ele>400.0</ele><time>2026-03-29T07:49:44.998Z</time></trkpt><trkpt lat="43.04890527857993" lon="11.51517308926944"><ele>399.0</ele><time>2026-03-29T07:49:45.998Z</time></trkpt><trkpt lat="43.04900983784024" lon="11.515241401055947"><ele>399.0</ele><time>2026-03-29T07:49:46.998Z</time></trkpt><trkpt lat="43.04913014075358" lon="11.515279553913016"><ele>399.0</ele><time>2026-03-29T07:49:47.998Z</time></trkpt><trkpt lat="43.04926083649289" lon="11.515302306707955"><ele>399.0</ele><time>2026-03-29T07:49:48.998Z</time></trkpt><trkpt lat="43.04939220644931" lon="11.515339583229151"><ele>399.0</ele><time>2026-03-29T07:49:49.998Z</time></trkpt><trkpt lat="43.049517117883546" lon="11.515396072360062"><ele>397.25</ele><time>2026-03-29T07:49:50.998Z</time></trkpt><trkpt lat="43.04962863628169" lon="11.51548436815467"><ele>395.5</ele><time>2026-03-29T07:49:51.998Z</time></trkpt><trkpt lat="43.0497194413007" lon="11.515614283563224"><ele>393.75</ele><time>2026-03-29T07:49:52.998Z</time></trkpt><trkpt lat="43.0497916112087" lon="11.51577305552228"><ele>392.0</ele><time>2026-03-29T07:49:53.998Z</time></trkpt><trkpt lat="43.049824841192795" lon="11.515961502062021"><ele>392.0</ele><time>2026-03-29T07:49:54.998Z</time></trkpt><trkpt lat="43.04982375362438" lon="11.516164641944792"><ele>392.0</ele><time>2026-03-29T07:49:55.998Z</time></trkpt><trkpt lat="43.04981090240495" lon="11.516384071146375"><ele>392.0</ele><time>2026-03-29T07:49:56.998Z</time></trkpt><trkpt lat="43.04979370495879" lon="11.516628689631197"><ele>389.3333333333333</ele><time>2026-03-29T07:49:57.998Z</time></trkpt><trkpt lat="43.04977514077279" lon="11.516861404637199"><ele>386.66666666666663</ele><time>2026-03-29T07:49:58.998Z</time></trkpt><trkpt lat="43.0497587603962" lon="11.517085223539011"><ele>384.0</ele><time>2026-03-29T07:49:59.998Z</time></trkpt><trkpt lat="43.04975501615073" lon="11.517302841743945"><ele>382.0</ele><time>2026-03-29T07:50:00.998Z</time></trkpt><trkpt lat="43.049777504891345" lon="11.517522657004351"><ele>380.0</ele><time>2026-03-29T07:50:01.998Z</time></trkpt><trkpt lat="43.04981825737145" lon="11.51774188758211"><ele>378.0</ele><time>2026-03-29T07:50:02.998Z</time></trkpt><trkpt lat="43.04986025435379" lon="11.517957939388076"><ele>376.6666666666667</ele><time>2026-03-29T07:50:03.998Z</time></trkpt><trkpt lat="43.04990399491809" lon="11.51817507468024"><ele>375.33333333333337</ele><time>2026-03-29T07:50:04.998Z</time></trkpt><trkpt lat="43.049944529766954" lon="11.518395653363068"><ele>374.0</ele><time>2026-03-29T07:50:05.998Z</time></trkpt><trkpt lat="43.04999088963457" lon="11.518597734159641"><ele>372.0</ele><time>2026-03-29T07:50:06.998Z</time></trkpt><trkpt lat="43.05004822987227" lon="11.518780852056178"><ele>370.0</ele><time>2026-03-29T07:50:07.998Z</time></trkpt><trkpt lat="43.050125056686646" lon="11.518953271271108"><ele>368.0</ele><time>2026-03-29T07:50:08.998Z</time></trkpt><trkpt lat="43.05023084232331" lon="11.519089984620697"><ele>366.0</ele><time>2026-03-29T07:50:09.998Z</time></trkpt><trkpt lat="43.050365784723276" lon="11.519204938747693"><ele>366.0</ele><time>2026-03-29T07:50:10.998Z</time></trkpt><trkpt lat="43.05051568520495" lon="11.519303298768122"><ele>366.0</ele><time>2026-03-29T07:50:11.998Z</time></trkpt><trkpt lat="43.05067531511293" lon="11.519400704218638"><ele>366.0</ele><time>2026-03-29T07:50:12.998Z</time></trkpt><trkpt lat="43.0508404632199" lon="11.519506382689784"><ele>364.0</ele><time>2026-03-29T07:50:13.998Z</time></trkpt><trkpt lat="43.05100364795511" lon="11.519631809886674"><ele>362.0</ele><time>2026-03-29T07:50:14.998Z</time></trkpt><trkpt lat="43.05117334390104" lon="11.519735929698712"><ele>360.0</ele><time>2026-03-29T07:50:15.998Z</time></trkpt><trkpt lat="43.051339566916084" lon="11.51985979966308"><ele>360.0</ele><time>2026-03-29T07:50:16.998Z</time></trkpt><trkpt lat="43.05150313508045" lon="11.519928546968377"><ele>360.0</ele><time>2026-03-29T07:50:17.998Z</time></trkpt><trkpt lat="43.05167910616425" lon="11.520001808672008"><ele>360.0</ele><time>2026-03-29T07:50:18.998Z</time></trkpt><trkpt lat="43.05186352814338" lon="11.520056305759985"><ele>358.0</ele><time>2026-03-29T07:50:19.998Z</time></trkpt><trkpt lat="43.05205355329603" lon="11.520111671138128"><ele>356.0</ele><time>2026-03-29T07:50:20.998Z</time></trkpt><trkpt lat="43.05225301996132" lon="11.520182447645345"><ele>354.0</ele><time>2026-03-29T07:50:21.998Z</time></trkpt><trkpt lat="43.05245174548259" lon="11.52024808994512"><ele>353.3333333333333</ele><time>2026-03-29T07:50:22.998Z</time></trkpt><trkpt lat="43.05264205999695" lon="11.520310156335421"><ele>352.66666666666663</ele><time>2026-03-29T07:50:23.998Z</time></trkpt><trkpt lat="43.05282565808193" lon="11.520369984920142"><ele>352.0</ele><time>2026-03-29T07:50:24.998Z</time></trkpt><trkpt lat="43.05299706168247" lon="11.520428893051761"><ele>348.66666666666663</ele><time>2026-03-29T07:50:25.998Z</time></trkpt><trkpt lat="43.0531726822374" lon="11.520489684924243"><ele>345.3333333333333</ele><time>2026-03-29T07:50:26.998Z</time></trkpt><trkpt lat="43.053343702923044" lon="11.520545830978897"><ele>342.0</ele><time>2026-03-29T07:50:27.998Z</time></trkpt><trkpt lat="43.05351562820492" lon="11.520597995144897"><ele>340.6666666666667</ele><time>2026-03-29T07:50:28.998Z</time></trkpt><trkpt lat="43.053685108539675" lon="11.520648619601541"><ele>339.33333333333337</ele><time>2026-03-29T07:50:29.998Z</time></trkpt><trkpt lat="43.05383660246452" lon="11.520696648639762"><ele>338.0</ele><time>2026-03-29T07:50:30.998Z</time></trkpt><trkpt lat="43.053971597254794" lon="11.520739735765803"><ele>338.0</ele><time>2026-03-29T07:50:31.998Z</time></trkpt><trkpt lat="43.054101824520664" lon="11.520778747823638"><ele>338.0</ele><time>2026-03-29T07:50:32.998Z</time></trkpt><trkpt lat="43.054242158428885" lon="11.52078978537531"><ele>338.0</ele><time>2026-03-29T07:50:33.998Z</time></trkpt><trkpt lat="43.05439085484528" lon="11.520756988341343"><ele>338.0</ele><time>2026-03-29T07:50:34.998Z</time></trkpt><trkpt lat="43.05454222376991" lon="11.520684019154446"><ele>336.6666666666667</ele><time>2026-03-29T07:50:35.998Z</time></trkpt><trkpt lat="43.05469233136544" lon="11.520593898613598"><ele>335.3333333333333</ele><time>2026-03-29T07:50:36.998Z</time></trkpt><trkpt lat="43.05484859206172" lon="11.52051855342939"><ele>334.0</ele><time>2026-03-29T07:50:37.998Z</time></trkpt><trkpt lat="43.055014322357536" lon="11.52046700694376"><ele>331.66666666666663</ele><time>2026-03-29T07:50:38.998Z</time></trkpt><trkpt lat="43.055193276471485" lon="11.520445625364287"><ele>329.3333333333333</ele><time>2026-03-29T07:50:39.998Z</time></trkpt><trkpt lat="43.05537909305342" lon="11.520457367983793"><ele>327.0</ele><time>2026-03-29T07:50:40.998Z</time></trkpt><trkpt lat="43.05558495388604" lon="11.520458464846019"><ele>327.0</ele><time>2026-03-29T07:50:41.998Z</time></trkpt><trkpt lat="43.05576916017847" lon="11.52046090865839"><ele>327.0</ele><time>2026-03-29T07:50:42.998Z</time></trkpt><trkpt lat="43.05594475125755" lon="11.520455341254642"><ele>327.0</ele><time>2026-03-29T07:50:43.998Z</time></trkpt><trkpt lat="43.056104563322876" lon="11.520466747984324"><ele>325.3333333333333</ele><time>2026-03-29T07:50:44.998Z</time></trkpt><trkpt lat="43.05625505621782" lon="11.520505240735776"><ele>323.66666666666663</ele><time>2026-03-29T07:50:45.998Z</time></trkpt><trkpt lat="43.056399066347595" lon="11.520587372728535"><ele>322.0</ele><time>2026-03-29T07:50:46.998Z</time></trkpt><trkpt lat="43.056530873140055" lon="11.520680059473515"><ele>321.3333333333333</ele><time>2026-03-29T07:50:47.998Z</time></trkpt><trkpt lat="43.056645222980826" lon="11.520801016769099"><ele>320.6666666666667</ele><time>2026-03-29T07:50:48.998Z</time></trkpt><trkpt lat="43.05675521863602" lon="11.520988911742386"><ele>320.0</ele><time>2026-03-29T07:50:49.998Z</time></trkpt><trkpt lat="43.056823366745526" lon="11.52120025324263"><ele>318.6666666666667</ele><time>2026-03-29T07:50:50.998Z</time></trkpt><trkpt lat="43.056880274925824" lon="11.521439011509951"><ele>317.3333333333333</ele><time>2026-03-29T07:50:51.998Z</time></trkpt><trkpt lat="43.05693395265115" lon="11.521691539731421"><ele>316.0</ele><time>2026-03-29T07:50:52.998Z</time></trkpt><trkpt lat="43.05699385391395" lon="11.521963456458337"><ele>315.0</ele><time>2026-03-29T07:50:53.998Z</time></trkpt><trkpt lat="43.05705895608026" lon="11.522220407507435"><ele>314.0</ele><time>2026-03-29T07:50:54.998Z</time></trkpt><trkpt lat="43.05711089534554" lon="11.52245368153284"><ele>313.0</ele><time>2026-03-29T07:50:55.998Z</time></trkpt><trkpt lat="43.05715465197285" lon="11.522656769183008"><ele>313.0</ele><time>2026-03-29T07:50:56.998Z</time></trkpt><trkpt lat="43.05719182979712" lon="11.522840669685309"><ele>313.0</ele><time>2026-03-29T07:50:57.998Z</time></trkpt><trkpt lat="43.05724478467166" lon="11.523009135036258"><ele>313.0</ele><time>2026-03-29T07:50:58.998Z</time></trkpt><trkpt lat="43.0573397019924" lon="11.523161717627046"><ele>313.0</ele><time>2026-03-29T07:50:59.998Z</time></trkpt><trkpt lat="43.057452446998916" lon="11.52326608607671"><ele>312.75</ele><time>2026-03-29T07:51:00.998Z</time></trkpt><trkpt lat="43.05757607382312" lon="11.523313756327095"><ele>312.5</ele><time>2026-03-29T07:51:01.998Z</time></trkpt><trkpt lat="43.05771176428163" lon="11.523317710232888"><ele>312.25</ele><time>2026-03-29T07:51:02.998Z</time></trkpt><trkpt lat="43.05784425954744" lon="11.523262722007575"><ele>312.0</ele><time>2026-03-29T07:51:03.998Z</time></trkpt><trkpt lat="43.057970706168106" lon="11.523166571303785"><ele>312.0</ele><time>2026-03-29T07:51:04.998Z</time></trkpt><trkpt lat="43.058085934396075" lon="11.523025976976962"><ele>312.0</ele><time>2026-03-29T07:51:05.998Z</time></trkpt><trkpt lat="43.05818769632032" lon="11.522830138968251"><ele>312.0</ele><time>2026-03-29T07:51:06.998Z</time></trkpt><trkpt lat="43.05829616267161" lon="11.522612273785688"><ele>311.6666666666667</ele><time>2026-03-29T07:51:07.998Z</time></trkpt><trkpt lat="43.05841444900602" lon="11.522396444903597"><ele>311.33333333333337</ele><time>2026-03-29T07:51:08.998Z</time></trkpt><trkpt lat="43.05853061844525" lon="11.522192295479892"><ele>311.0</ele><time>2026-03-29T07:51:09.998Z</time></trkpt><trkpt lat="43.05863633440394" lon="11.52199708882101"><ele>311.0</ele><time>2026-03-29T07:51:10.998Z</time></trkpt><trkpt lat="43.058733141535704" lon="11.521809397557695"><ele>311.0</ele><time>2026-03-29T07:51:11.998Z</time></trkpt><trkpt lat="43.05883818025088" lon="11.521644580554804"><ele>311.0</ele><time>2026-03-29T07:51:12.998Z</time></trkpt><trkpt lat="43.05893141475604" lon="11.521501210398029"><ele>311.0</ele><time>2026-03-29T07:51:13.998Z</time></trkpt><trkpt lat="43.05902579143808" lon="11.521385591559982"><ele>311.0</ele><time>2026-03-29T07:51:14.998Z</time></trkpt><trkpt lat="43.059145205598696" lon="11.521315786860033"><ele>311.0</ele><time>2026-03-29T07:51:15.998Z</time></trkpt><trkpt lat="43.059280963031284" lon="11.521263640389913"><ele>311.0</ele><time>2026-03-29T07:51:16.998Z</time></trkpt><trkpt lat="43.05943683631632" lon="11.521318547269553"><ele>306.6666666666667</ele><time>2026-03-29T07:51:17.998Z</time></trkpt><trkpt lat="43.05959511451379" lon="11.521432306815763"><ele>302.3333333333333</ele><time>2026-03-29T07:51:18.998Z</time></trkpt><trkpt lat="43.05974632573219" lon="11.521583342526819"><ele>298.0</ele><time>2026-03-29T07:51:19.998Z</time></trkpt><trkpt lat="43.059889408903885" lon="11.521731670561788"><ele>296.0</ele><time>2026-03-29T07:51:20.998Z</time></trkpt><trkpt lat="43.0600301809686" lon="11.5218628636468"><ele>294.0</ele><time>2026-03-29T07:51:21.998Z</time></trkpt><trkpt lat="43.06017041095637" lon="11.521986872807256"><ele>292.0</ele><time>2026-03-29T07:51:22.998Z</time></trkpt><trkpt lat="43.06031475047521" lon="11.522115630305088"><ele>290.3333333333333</ele><time>2026-03-29T07:51:23.998Z</time></trkpt><trkpt lat="43.06045979182152" lon="11.522243536598008"><ele>288.6666666666667</ele><time>2026-03-29T07:51:24.998Z</time></trkpt><trkpt lat="43.06060476656956" lon="11.522376072657474"><ele>287.0</ele><time>2026-03-29T07:51:25.998Z</time></trkpt><trkpt lat="43.0607496792226" lon="11.52251358228416"><ele>287.33333333333337</ele><time>2026-03-29T07:51:26.998Z</time></trkpt><trkpt lat="43.0608946365758" lon="11.522658261260762"><ele>287.6666666666667</ele><time>2026-03-29T07:51:27.998Z</time></trkpt><trkpt lat="43.06103252544488" lon="11.522820414985608"><ele>288.0</ele><time>2026-03-29T07:51:28.998Z</time></trkpt><trkpt lat="43.06116026368045" lon="11.523020901561685"><ele>286.0</ele><time>2026-03-29T07:51:29.998Z</time></trkpt><trkpt lat="43.06127989226281" lon="11.523251676174308"><ele>284.0</ele><time>2026-03-29T07:51:30.998Z</time></trkpt><trkpt lat="43.06139928000813" lon="11.523493333362552"><ele>282.0</ele><time>2026-03-29T07:51:31.998Z</time></trkpt><trkpt lat="43.0615218855392" lon="11.523728500797313"><ele>282.3333333333333</ele><time>2026-03-29T07:51:32.998Z</time></trkpt><trkpt lat="43.06163103503978" lon="11.523941204365308"><ele>282.66666666666663</ele><time>2026-03-29T07:51:33.998Z</time></trkpt><trkpt lat="43.061740128773714" lon="11.524145984786182"><ele>283.0</ele><time>2026-03-29T07:51:34.998Z</time></trkpt><trkpt lat="43.06186127188099" lon="11.52434014680116"><ele>283.0</ele><time>2026-03-29T07:51:35.998Z</time></trkpt><trkpt lat="43.061978425818864" lon="11.52451736907676"><ele>283.0</ele><time>2026-03-29T07:51:36.998Z</time></trkpt><trkpt lat="43.062074308619565" lon="11.52470976871195"><ele>283.0</ele><time>2026-03-29T07:51:37.998Z</time></trkpt><trkpt lat="43.06214084528302" lon="11.524943484121648"><ele>280.3333333333333</ele><time>2026-03-29T07:51:38.998Z</time></trkpt><trkpt lat="43.06219157894383" lon="11.525191300099987"><ele>277.6666666666667</ele><time>2026-03-29T07:51:39.998Z</time></trkpt><trkpt lat="43.06223840672069" lon="11.525454811595237"><ele>275.0</ele><time>2026-03-29T07:51:40.998Z</time></trkpt><trkpt lat="43.06227956391654" lon="11.525714485735918"><ele>276.0</ele><time>2026-03-29T07:51:41.998Z</time></trkpt><trkpt lat="43.06232902700043" lon="11.52595762051477"><ele>277.0</ele><time>2026-03-29T07:51:42.998Z</time></trkpt><trkpt lat="43.06238943149729" lon="11.526182864594182"><ele>278.0</ele><time>2026-03-29T07:51:43.998Z</time></trkpt><trkpt lat="43.06248174719634" lon="11.526406441144104"><ele>278.0</ele><time>2026-03-29T07:51:44.998Z</time></trkpt><trkpt lat="43.06259080927857" lon="11.526621682342496"><ele>278.0</ele><time>2026-03-29T07:51:45.998Z</time></trkpt><trkpt lat="43.06271699091715" lon="11.526837975629439"><ele>278.0</ele><time>2026-03-29T07:51:46.998Z</time></trkpt><trkpt lat="43.06285026116613" lon="11.527051774651254"><ele>275.6666666666667</ele><time>2026-03-29T07:51:47.998Z</time></trkpt><trkpt lat="43.062975246210684" lon="11.527261691961803"><ele>273.3333333333333</ele><time>2026-03-29T07:51:48.998Z</time></trkpt><trkpt lat="43.0630927874195" lon="11.527460231722726"><ele>271.0</ele><time>2026-03-29T07:51:49.998Z</time></trkpt><trkpt lat="43.063212714021155" lon="11.52765541536384"><ele>271.0</ele><time>2026-03-29T07:51:50.998Z</time></trkpt><trkpt lat="43.06333116278737" lon="11.527853151512302"><ele>271.0</ele><time>2026-03-29T07:51:51.998Z</time></trkpt><trkpt lat="43.063406647718885" lon="11.528057262801019"><ele>271.0</ele><time>2026-03-29T07:51:52.998Z</time></trkpt><trkpt lat="43.063448592339384" lon="11.528294423439167"><ele>271.0</ele><time>2026-03-29T07:51:53.998Z</time></trkpt><trkpt lat="43.06349291672189" lon="11.528542154621165"><ele>271.0</ele><time>2026-03-29T07:51:54.998Z</time></trkpt><trkpt lat="43.06351511437489" lon="11.528777657779173"><ele>271.0</ele><time>2026-03-29T07:51:55.998Z</time></trkpt><trkpt lat="43.063532281634" lon="11.528999693722714"><ele>270.0</ele><time>2026-03-29T07:51:56.998Z</time></trkpt><trkpt lat="43.06355545816203" lon="11.529227750764251"><ele>269.0</ele><time>2026-03-29T07:51:57.998Z</time></trkpt><trkpt lat="43.063586177886634" lon="11.529456511788624"><ele>268.0</ele><time>2026-03-29T07:51:58.998Z</time></trkpt><trkpt lat="43.06364799372427" lon="11.529655836103174"><ele>266.3333333333333</ele><time>2026-03-29T07:51:59.998Z</time></trkpt><trkpt lat="43.06373841734504" lon="11.529863429771304"><ele>264.6666666666667</ele><time>2026-03-29T07:52:00.998Z</time></trkpt><trkpt lat="43.06382756700811" lon="11.53006927301212"><ele>263.0</ele><time>2026-03-29T07:52:01.998Z</time></trkpt><trkpt lat="43.06391141696205" lon="11.530260199717818"><ele>263.33333333333337</ele><time>2026-03-29T07:52:02.998Z</time></trkpt><trkpt lat="43.06400442409774" lon="11.530451774509569"><ele>263.6666666666667</ele><time>2026-03-29T07:52:03.998Z</time></trkpt><trkpt lat="43.06411459646274" lon="11.530661064216247"><ele>264.0</ele><time>2026-03-29T07:52:04.998Z</time></trkpt><trkpt lat="43.06430036263658" lon="11.530859485335831"><ele>264.0</ele><time>2026-03-29T07:52:05.998Z</time></trkpt><trkpt lat="43.06456669612756" lon="11.531012619717245"><ele>264.0</ele><time>2026-03-29T07:52:06.998Z</time></trkpt><trkpt lat="43.06474757582514" lon="11.531119233348335"><ele>262.6666666666667</ele><time>2026-03-29T07:52:07.998Z</time></trkpt><trkpt lat="43.06488306212331" lon="11.531244702634517"><ele>261.33333333333337</ele><time>2026-03-29T07:52:08.998Z</time></trkpt><trkpt lat="43.06499882406719" lon="11.53141346584103"><ele>260.0</ele><time>2026-03-29T07:52:09.998Z</time></trkpt><trkpt lat="43.06508781569064" lon="11.531615185850637"><ele>260.0</ele><time>2026-03-29T07:52:10.998Z</time></trkpt><trkpt lat="43.06513779713013" lon="11.531842041567339"><ele>260.0</ele><time>2026-03-29T07:52:11.998Z</time></trkpt><trkpt lat="43.06514473129381" lon="11.532100078321726"><ele>260.0</ele><time>2026-03-29T07:52:12.998Z</time></trkpt><trkpt lat="43.0651085373904" lon="11.53235100981004"><ele>258.6666666666667</ele><time>2026-03-29T07:52:13.998Z</time></trkpt><trkpt lat="43.06505483602297" lon="11.532572921194614"><ele>257.3333333333333</ele><time>2026-03-29T07:52:14.998Z</time></trkpt><trkpt lat="43.065032472618476" lon="11.532817571325513"><ele>256.0</ele><time>2026-03-29T07:52:15.998Z</time></trkpt><trkpt lat="43.06505433815538" lon="11.533088076005088"><ele>255.33333333333331</ele><time>2026-03-29T07:52:16.998Z</time></trkpt><trkpt lat="43.06511902011665" lon="11.53337034907232"><ele>254.66666666666669</ele><time>2026-03-29T07:52:17.998Z</time></trkpt><trkpt lat="43.06521093664331" lon="11.53366231340672"><ele>254.0</ele><time>2026-03-29T07:52:18.998Z</time></trkpt><trkpt lat="43.0653085811302" lon="11.533964899687966"><ele>252.0</ele><time>2026-03-29T07:52:19.998Z</time></trkpt><trkpt lat="43.065401011577585" lon="11.534281603645045"><ele>250.0</ele><time>2026-03-29T07:52:20.998Z</time></trkpt><trkpt lat="43.06549009700381" lon="11.534593867716"><ele>248.0</ele><time>2026-03-29T07:52:21.998Z</time></trkpt><trkpt lat="43.06558473863783" lon="11.534901875527396"><ele>246.0</ele><time>2026-03-29T07:52:22.998Z</time></trkpt><trkpt lat="43.065679640810046" lon="11.53521325392146"><ele>245.0</ele><time>2026-03-29T07:52:23.998Z</time></trkpt><trkpt lat="43.06576628269864" lon="11.535512776099505"><ele>244.0</ele><time>2026-03-29T07:52:24.998Z</time></trkpt><trkpt lat="43.06584924914707" lon="11.535810882403394"><ele>244.0</ele><time>2026-03-29T07:52:25.998Z</time></trkpt><trkpt lat="43.06593190817132" lon="11.536108148236316"><ele>244.0</ele><time>2026-03-29T07:52:26.998Z</time></trkpt><trkpt lat="43.06601716566894" lon="11.536407099928537"><ele>244.0</ele><time>2026-03-29T07:52:27.998Z</time></trkpt><trkpt lat="43.066094480718334" lon="11.53670059982262"><ele>244.0</ele><time>2026-03-29T07:52:28.998Z</time></trkpt><trkpt lat="43.06617161985564" lon="11.536993657605768"><ele>243.66666666666666</ele><time>2026-03-29T07:52:29.998Z</time></trkpt><trkpt lat="43.06624748952366" lon="11.537282324105865"><ele>243.33333333333331</ele><time>2026-03-29T07:52:30.998Z</time></trkpt><trkpt lat="43.066323278804575" lon="11.537568138445133"><ele>243.0</ele><time>2026-03-29T07:52:31.998Z</time></trkpt><trkpt lat="43.06640118435024" lon="11.537849680245095"><ele>243.0</ele><time>2026-03-29T07:52:32.998Z</time></trkpt><trkpt lat="43.066482753697365" lon="11.538128539416055"><ele>243.0</ele><time>2026-03-29T07:52:33.998Z</time></trkpt><trkpt lat="43.066564657425815" lon="11.538404908476446"><ele>243.0</ele><time>2026-03-29T07:52:34.998Z</time></trkpt><trkpt lat="43.066642333767554" lon="11.538671556065914"><ele>242.33333333333331</ele><time>2026-03-29T07:52:35.998Z</time></trkpt><trkpt lat="43.066709671626086" lon="11.538919762323609"><ele>241.66666666666666</ele><time>2026-03-29T07:52:36.998Z</time></trkpt><trkpt lat="43.0667730069768" lon="11.539156612934825"><ele>241.0</ele><time>2026-03-29T07:52:37.998Z</time></trkpt><trkpt lat="43.066820912320374" lon="11.539385107227012"><ele>241.33333333333331</ele><time>2026-03-29T07:52:38.998Z</time></trkpt><trkpt lat="43.066846405164405" lon="11.53963369222263"><ele>241.66666666666669</ele><time>2026-03-29T07:52:39.998Z</time></trkpt><trkpt lat="43.06683742002509" lon="11.539898633239062"><ele>242.0</ele><time>2026-03-29T07:52:40.998Z</time></trkpt><trkpt lat="43.066806386708045" lon="11.540176578028383"><ele>242.33333333333334</ele><time>2026-03-29T07:52:41.998Z</time></trkpt><trkpt lat="43.066746625873044" lon="11.5404541636626"><ele>242.66666666666669</ele><time>2026-03-29T07:52:42.998Z</time></trkpt><trkpt lat="43.06667014812868" lon="11.540734863524845"><ele>243.0</ele><time>2026-03-29T07:52:43.998Z</time></trkpt><trkpt lat="43.066589735659676" lon="11.54101517884594"><ele>241.66666666666669</ele><time>2026-03-29T07:52:44.998Z</time></trkpt><trkpt lat="43.06651606628582" lon="11.541300461039858"><ele>240.33333333333334</ele><time>2026-03-29T07:52:45.998Z</time></trkpt><trkpt lat="43.06644259968058" lon="11.54158983283955"><ele>239.0</ele><time>2026-03-29T07:52:46.998Z</time></trkpt><trkpt lat="43.06636494098999" lon="11.541875103860528"><ele>239.0</ele><time>2026-03-29T07:52:47.998Z</time></trkpt><trkpt lat="43.06628602405845" lon="11.542160715442437"><ele>239.0</ele><time>2026-03-29T07:52:48.998Z</time></trkpt><trkpt lat="43.0662098058565" lon="11.542448876260051"><ele>239.0</ele><time>2026-03-29T07:52:49.998Z</time></trkpt><trkpt lat="43.06613479369799" lon="11.542736460022036"><ele>239.0</ele><time>2026-03-29T07:52:50.998Z</time></trkpt><trkpt lat="43.066057255098244" lon="11.543012399716181"><ele>239.0</ele><time>2026-03-29T07:52:51.998Z</time></trkpt><trkpt lat="43.065986295843935" lon="11.543268875919471"><ele>239.0</ele><time>2026-03-29T07:52:52.998Z</time></trkpt><trkpt lat="43.0659263787835" lon="11.543514207736132"><ele>239.33333333333334</ele><time>2026-03-29T07:52:53.998Z</time></trkpt><trkpt lat="43.06588642702407" lon="11.543746092382621"><ele>239.66666666666669</ele><time>2026-03-29T07:52:54.998Z</time></trkpt><trkpt lat="43.06586773439533" lon="11.543975743718796"><ele>240.0</ele><time>2026-03-29T07:52:55.998Z</time></trkpt><trkpt lat="43.06587172078011" lon="11.544217041920426"><ele>240.0</ele><time>2026-03-29T07:52:56.998Z</time></trkpt><trkpt lat="43.06589185213209" lon="11.544458532709896"><ele>240.0</ele><time>2026-03-29T07:52:57.998Z</time></trkpt><trkpt lat="43.06591500626874" lon="11.544701269564415"><ele>240.0</ele><time>2026-03-29T07:52:58.998Z</time></trkpt><trkpt lat="43.06594047350904" lon="11.544941578871933"><ele>240.33333333333331</ele><time>2026-03-29T07:52:59.998Z</time></trkpt><trkpt lat="43.06596740510521" lon="11.545180165047308"><ele>240.66666666666666</ele><time>2026-03-29T07:53:00.998Z</time></trkpt><trkpt lat="43.06598968413712" lon="11.545421720088106"><ele>241.0</ele><time>2026-03-29T07:53:01.998Z</time></trkpt><trkpt lat="43.06600940429714" lon="11.545657537189665"><ele>241.0</ele><time>2026-03-29T07:53:02.998Z</time></trkpt><trkpt lat="43.06602918974476" lon="11.54588534279006"><ele>241.0</ele><time>2026-03-29T07:53:03.998Z</time></trkpt><trkpt lat="43.066050240323285" lon="11.546101712531584"><ele>241.0</ele><time>2026-03-29T07:53:04.998Z</time></trkpt><trkpt lat="43.066071842838696" lon="11.546308832399719"><ele>240.75</ele><time>2026-03-29T07:53:05.998Z</time></trkpt><trkpt lat="43.066091011376216" lon="11.546512154961913"><ele>240.5</ele><time>2026-03-29T07:53:06.998Z</time></trkpt><trkpt lat="43.0661122451402" lon="11.546702051369822"><ele>240.25</ele><time>2026-03-29T07:53:07.998Z</time></trkpt><trkpt lat="43.06613151690044" lon="11.546873877505078"><ele>240.0</ele><time>2026-03-29T07:53:08.998Z</time></trkpt><trkpt lat="43.06614729275393" lon="11.547031488870632"><ele>239.8</ele><time>2026-03-29T07:53:09.998Z</time></trkpt><trkpt lat="43.06616173444403" lon="11.547190827871619"><ele>239.6</ele><time>2026-03-29T07:53:10.998Z</time></trkpt><trkpt lat="43.06618440854255" lon="11.547330862190163"><ele>239.39999999999998</ele><time>2026-03-29T07:53:11.998Z</time></trkpt><trkpt lat="43.06620939563795" lon="11.547443154116502"><ele>239.2</ele><time>2026-03-29T07:53:12.998Z</time></trkpt><trkpt lat="43.06624137398237" lon="11.54754787437915"><ele>239.0</ele><time>2026-03-29T07:53:13.998Z</time></trkpt><trkpt lat="43.06628060211708" lon="11.54767324801073"><ele>239.0</ele><time>2026-03-29T07:53:14.998Z</time></trkpt><trkpt lat="43.06633677832315" lon="11.547807145891252"><ele>239.0</ele><time>2026-03-29T07:53:15.998Z</time></trkpt><trkpt lat="43.06640798416802" lon="11.547938366059439"><ele>239.0</ele><time>2026-03-29T07:53:16.998Z</time></trkpt><trkpt lat="43.06648981254014" lon="11.54804920324364"><ele>239.0</ele><time>2026-03-29T07:53:17.998Z</time></trkpt><trkpt lat="43.066593058913334" lon="11.548143747622511"><ele>239.5</ele><time>2026-03-29T07:53:18.998Z</time></trkpt><trkpt lat="43.066718490083105" lon="11.548211836257092"><ele>240.0</ele><time>2026-03-29T07:53:19.998Z</time></trkpt><trkpt lat="43.06686415275079" lon="11.54825487862206"><ele>240.5</ele><time>2026-03-29T07:53:20.998Z</time></trkpt><trkpt lat="43.06701989092535" lon="11.548263586064335"><ele>241.0</ele><time>2026-03-29T07:53:21.998Z</time></trkpt><trkpt lat="43.0671911401119" lon="11.548240471986555"><ele>241.0</ele><time>2026-03-29T07:53:22.998Z</time></trkpt><trkpt lat="43.06738026186094" lon="11.548201528677412"><ele>241.0</ele><time>2026-03-29T07:53:23.998Z</time></trkpt><trkpt lat="43.06757662664663" lon="11.548141714532214"><ele>241.0</ele><time>2026-03-29T07:53:24.998Z</time></trkpt><trkpt lat="43.0677781410478" lon="11.54809596582933"><ele>240.33333333333331</ele><time>2026-03-29T07:53:25.998Z</time></trkpt><trkpt lat="43.06798718097981" lon="11.548059667094597"><ele>239.66666666666669</ele><time>2026-03-29T07:53:26.998Z</time></trkpt><trkpt lat="43.068194984497445" lon="11.54801871802616"><ele>239.0</ele><time>2026-03-29T07:53:27.998Z</time></trkpt><trkpt lat="43.06837762394457" lon="11.547980702205058"><ele>239.0</ele><time>2026-03-29T07:53:28.998Z</time></trkpt><trkpt lat="43.068529554183044" lon="11.547957279806909"><ele>239.0</ele><time>2026-03-29T07:53:29.998Z</time></trkpt><trkpt lat="43.06866462623959" lon="11.547909697980272"><ele>239.0</ele><time>2026-03-29T07:53:30.998Z</time></trkpt><trkpt lat="43.068800067180135" lon="11.547803284356704"><ele>239.0</ele><time>2026-03-29T07:53:31.998Z</time></trkpt><trkpt lat="43.06893113089624" lon="11.547634659147711"><ele>240.0</ele><time>2026-03-29T07:53:32.998Z</time></trkpt><trkpt lat="43.069064002770595" lon="11.547441718512127"><ele>241.0</ele><time>2026-03-29T07:53:33.998Z</time></trkpt><trkpt lat="43.06920055266223" lon="11.547257494249102"><ele>242.0</ele><time>2026-03-29T07:53:34.998Z</time></trkpt><trkpt lat="43.06934007663986" lon="11.547109271742732"><ele>243.66666666666669</ele><time>2026-03-29T07:53:35.998Z</time></trkpt><trkpt lat="43.069479730908554" lon="11.547009596084465"><ele>245.33333333333331</ele><time>2026-03-29T07:53:36.998Z</time></trkpt><trkpt lat="43.06963178819358" lon="11.546951186454208"><ele>247.0</ele><time>2026-03-29T07:53:37.998Z</time></trkpt><trkpt lat="43.06979908948924" lon="11.546930010940226"><ele>245.66666666666666</ele><time>2026-03-29T07:53:38.998Z</time></trkpt><trkpt lat="43.06996387206265" lon="11.546927427235458"><ele>244.33333333333331</ele><time>2026-03-29T07:53:39.998Z</time></trkpt><trkpt lat="43.07011363170794" lon="11.546921382037207"><ele>243.0</ele><time>2026-03-29T07:53:40.998Z</time></trkpt><trkpt lat="43.07026615646368" lon="11.546915573614818"><ele>243.0</ele><time>2026-03-29T07:53:41.998Z</time></trkpt><trkpt lat="43.070428181919354" lon="11.54693066106489"><ele>243.0</ele><time>2026-03-29T07:53:42.998Z</time></trkpt><trkpt lat="43.07060888032245" lon="11.546964759749306"><ele>243.0</ele><time>2026-03-29T07:53:43.998Z</time></trkpt><trkpt lat="43.0708004827698" lon="11.547004723192712"><ele>242.66666666666669</ele><time>2026-03-29T07:53:44.998Z</time></trkpt><trkpt lat="43.071008790390884" lon="11.54705706725006"><ele>242.33333333333334</ele><time>2026-03-29T07:53:45.998Z</time></trkpt><trkpt lat="43.07122822841957" lon="11.547122501681503"><ele>242.0</ele><time>2026-03-29T07:53:46.998Z</time></trkpt><trkpt lat="43.07145473768456" lon="11.547196292807264"><ele>241.5</ele><time>2026-03-29T07:53:47.998Z</time></trkpt><trkpt lat="43.071690019385116" lon="11.5472698362543"><ele>241.0</ele><time>2026-03-29T07:53:48.998Z</time></trkpt><trkpt lat="43.07192118776258" lon="11.547342090622447"><ele>241.0</ele><time>2026-03-29T07:53:49.998Z</time></trkpt><trkpt lat="43.07213981176132" lon="11.547399880065639"><ele>241.0</ele><time>2026-03-29T07:53:50.998Z</time></trkpt><trkpt lat="43.0723417968526" lon="11.547445082450007"><ele>241.0</ele><time>2026-03-29T07:53:51.998Z</time></trkpt><trkpt lat="43.07253671588417" lon="11.547485146580842"><ele>242.0</ele><time>2026-03-29T07:53:52.998Z</time></trkpt><trkpt lat="43.072729169098714" lon="11.547519705696823"><ele>243.0</ele><time>2026-03-29T07:53:53.998Z</time></trkpt><trkpt lat="43.072922410038814" lon="11.547538090698694"><ele>244.0</ele><time>2026-03-29T07:53:54.998Z</time></trkpt><trkpt lat="43.07311537227071" lon="11.54754351140332"><ele>245.33333333333331</ele><time>2026-03-29T07:53:55.998Z</time></trkpt><trkpt lat="43.07331161670561" lon="11.547534914398494"><ele>246.66666666666669</ele><time>2026-03-29T07:53:56.998Z</time></trkpt><trkpt lat="43.07349276242" lon="11.547512904466425"><ele>248.0</ele><time>2026-03-29T07:53:57.998Z</time></trkpt><trkpt lat="43.07366294706404" lon="11.547493181897432"><ele>248.0</ele><time>2026-03-29T07:53:58.998Z</time></trkpt><trkpt lat="43.07381935770795" lon="11.547470014828866"><ele>248.0</ele><time>2026-03-29T07:53:59.998Z</time></trkpt><trkpt lat="43.073967270928044" lon="11.547444111998468"><ele>248.0</ele><time>2026-03-29T07:54:00.998Z</time></trkpt><trkpt lat="43.07411194528538" lon="11.547413166502102"><ele>248.25</ele><time>2026-03-29T07:54:01.998Z</time></trkpt><trkpt lat="43.07425448255793" lon="11.547381312260113"><ele>248.5</ele><time>2026-03-29T07:54:02.998Z</time></trkpt><trkpt lat="43.07439875374044" lon="11.547351301602315"><ele>248.75</ele><time>2026-03-29T07:54:03.998Z</time></trkpt><trkpt lat="43.07454685211818" lon="11.547317994790228"><ele>249.0</ele><time>2026-03-29T07:54:04.998Z</time></trkpt><trkpt lat="43.07469627066128" lon="11.547277104631512"><ele>249.0</ele><time>2026-03-29T07:54:05.998Z</time></trkpt><trkpt lat="43.07484904720901" lon="11.547241152487048"><ele>249.0</ele><time>2026-03-29T07:54:06.998Z</time></trkpt><trkpt lat="43.07500155664597" lon="11.54720717314681"><ele>249.0</ele><time>2026-03-29T07:54:07.998Z</time></trkpt><trkpt lat="43.07515524307848" lon="11.547167966556396"><ele>248.33333333333331</ele><time>2026-03-29T07:54:08.998Z</time></trkpt><trkpt lat="43.07530849193733" lon="11.547126835642663"><ele>247.66666666666666</ele><time>2026-03-29T07:54:09.998Z</time></trkpt><trkpt lat="43.07546341996394" lon="11.547087010604912"><ele>247.0</ele><time>2026-03-29T07:54:10.998Z</time></trkpt><trkpt lat="43.07561896071746" lon="11.547046032922148"><ele>248.0</ele><time>2026-03-29T07:54:11.998Z</time></trkpt><trkpt lat="43.07577567397621" lon="11.547007830201919"><ele>249.0</ele><time>2026-03-29T07:54:12.998Z</time></trkpt><trkpt lat="43.07593204673629" lon="11.5469695536662"><ele>250.0</ele><time>2026-03-29T07:54:13.998Z</time></trkpt><trkpt lat="43.076089562473946" lon="11.546932334401527"><ele>250.0</ele><time>2026-03-29T07:54:14.998Z</time></trkpt><trkpt lat="43.076248032208646" lon="11.54689368745915"><ele>250.0</ele><time>2026-03-29T07:54:15.998Z</time></trkpt><trkpt lat="43.07640712278597" lon="11.546855474241976"><ele>250.0</ele><time>2026-03-29T07:54:16.998Z</time></trkpt><trkpt lat="43.076565132642436" lon="11.54681555701193"><ele>248.66666666666666</ele><time>2026-03-29T07:54:17.998Z</time></trkpt><trkpt lat="43.07672127464626" lon="11.546776718399249"><ele>247.33333333333331</ele><time>2026-03-29T07:54:18.998Z</time></trkpt><trkpt lat="43.07687679608117" lon="11.546740510847348"><ele>246.0</ele><time>2026-03-29T07:54:19.998Z</time></trkpt><trkpt lat="43.07703123988801" lon="11.546708557421463"><ele>246.0</ele><time>2026-03-29T07:54:20.998Z</time></trkpt><trkpt lat="43.077185045974616" lon="11.546672388196201"><ele>246.0</ele><time>2026-03-29T07:54:21.998Z</time></trkpt><trkpt lat="43.077341548410665" lon="11.546639308645227"><ele>246.0</ele><time>2026-03-29T07:54:22.998Z</time></trkpt><trkpt lat="43.07750274673513" lon="11.54661457847456"><ele>245.0</ele><time>2026-03-29T07:54:23.998Z</time></trkpt><trkpt lat="43.07766548201369" lon="11.546595650417856"><ele>244.0</ele><time>2026-03-29T07:54:24.998Z</time></trkpt><trkpt lat="43.077828553590294" lon="11.54658169957662"><ele>243.0</ele><time>2026-03-29T07:54:25.998Z</time></trkpt><trkpt lat="43.077988422448264" lon="11.546574986605979"><ele>243.0</ele><time>2026-03-29T07:54:26.998Z</time></trkpt><trkpt lat="43.078146463128796" lon="11.546576885182036"><ele>243.0</ele><time>2026-03-29T07:54:27.998Z</time></trkpt><trkpt lat="43.078300985627266" lon="11.546586043025888"><ele>243.0</ele><time>2026-03-29T07:54:28.998Z</time></trkpt><trkpt lat="43.078457572177015" lon="11.546601364730291"><ele>243.0</ele><time>2026-03-29T07:54:29.998Z</time></trkpt><trkpt lat="43.0786119885463" lon="11.546623965566216"><ele>243.0</ele><time>2026-03-29T07:54:30.997Z</time></trkpt><trkpt lat="43.078767308387775" lon="11.546652434621642"><ele>243.0</ele><time>2026-03-29T07:54:31.997Z</time></trkpt><trkpt lat="43.07892125966267" lon="11.5466871245707"><ele>243.0</ele><time>2026-03-29T07:54:32.997Z</time></trkpt><trkpt lat="43.07907570903804" lon="11.546734759768789"><ele>243.0</ele><time>2026-03-29T07:54:33.997Z</time></trkpt><trkpt lat="43.07922844138813" lon="11.546788664929526"><ele>243.0</ele><time>2026-03-29T07:54:34.997Z</time></trkpt><trkpt lat="43.07938263558772" lon="11.54684398600966"><ele>243.33333333333331</ele><time>2026-03-29T07:54:35.997Z</time></trkpt><trkpt lat="43.079534788948614" lon="11.546899643815399"><ele>243.66666666666666</ele><time>2026-03-29T07:54:36.997Z</time></trkpt><trkpt lat="43.0796880848639" lon="11.5469586894769"><ele>244.0</ele><time>2026-03-29T07:54:37.997Z</time></trkpt><trkpt lat="43.079841041140334" lon="11.547017483647108"><ele>244.0</ele><time>2026-03-29T07:54:38.997Z</time></trkpt><trkpt lat="43.07999383944788" lon="11.547074277679624"><ele>244.0</ele><time>2026-03-29T07:54:39.997Z</time></trkpt><trkpt lat="43.08014357670587" lon="11.54712981920686"><ele>244.0</ele><time>2026-03-29T07:54:40.997Z</time></trkpt><trkpt lat="43.080290496440846" lon="11.547180691326409"><ele>244.0</ele><time>2026-03-29T07:54:41.997Z</time></trkpt><trkpt lat="43.08043544412657" lon="11.547224618204067"><ele>244.0</ele><time>2026-03-29T07:54:42.997Z</time></trkpt><trkpt lat="43.08058206634311" lon="11.547257074086913"><ele>244.0</ele><time>2026-03-29T07:54:43.997Z</time></trkpt><trkpt lat="43.080728112614516" lon="11.54728436991387"><ele>244.0</ele><time>2026-03-29T07:54:44.997Z</time></trkpt><trkpt lat="43.08087540033586" lon="11.547307118449451"><ele>245.66666666666666</ele><time>2026-03-29T07:54:45.997Z</time></trkpt><trkpt lat="43.081024066582124" lon="11.547322137270756"><ele>247.33333333333331</ele><time>2026-03-29T07:54:46.997Z</time></trkpt><trkpt lat="43.081176568354564" lon="11.547323708988301"><ele>249.0</ele><time>2026-03-29T07:54:47.997Z</time></trkpt><trkpt lat="43.081331678290425" lon="11.547319026133229"><ele>249.0</ele><time>2026-03-29T07:54:48.997Z</time></trkpt><trkpt lat="43.0814880891912" lon="11.54731090524885"><ele>249.0</ele><time>2026-03-29T07:54:49.997Z</time></trkpt><trkpt lat="43.081644838532675" lon="11.54729998634158"><ele>249.0</ele><time>2026-03-29T07:54:50.997Z</time></trkpt><trkpt lat="43.081799813114564" lon="11.547278459565891"><ele>249.66666666666669</ele><time>2026-03-29T07:54:51.997Z</time></trkpt><trkpt lat="43.08195508513084" lon="11.547241784421868"><ele>250.33333333333334</ele><time>2026-03-29T07:54:52.997Z</time></trkpt><trkpt lat="43.08211047024509" lon="11.547196327851035"><ele>251.0</ele><time>2026-03-29T07:54:53.997Z</time></trkpt><trkpt lat="43.082266536416896" lon="11.547149166352558"><ele>251.0</ele><time>2026-03-29T07:54:54.997Z</time></trkpt><trkpt lat="43.082418811773906" lon="11.547093402206325"><ele>251.0</ele><time>2026-03-29T07:54:55.997Z</time></trkpt><trkpt lat="43.08257037595815" lon="11.547025554262481"><ele>251.0</ele><time>2026-03-29T07:54:56.997Z</time></trkpt><trkpt lat="43.082721810095116" lon="11.546948561488957"><ele>256.0</ele><time>2026-03-29T07:54:57.997Z</time></trkpt><trkpt lat="43.08287177393551" lon="11.546862642615604"><ele>261.0</ele><time>2026-03-29T07:54:58.997Z</time></trkpt><trkpt lat="43.08301812167351" lon="11.546771374537528"><ele>266.0</ele><time>2026-03-29T07:54:59.997Z</time></trkpt><trkpt lat="43.083159532698254" lon="11.546672488963925"><ele>264.6666666666667</ele><time>2026-03-29T07:55:00.997Z</time></trkpt><trkpt lat="43.08329713046715" lon="11.546568036614017"><ele>263.3333333333333</ele><time>2026-03-29T07:55:01.997Z</time></trkpt><trkpt lat="43.08343062141922" lon="11.546459660275259"><ele>262.0</ele><time>2026-03-29T07:55:02.997Z</time></trkpt><trkpt lat="43.08356092564214" lon="11.546348619096154"><ele>262.0</ele><time>2026-03-29T07:55:03.997Z</time></trkpt><trkpt lat="43.083688349065284" lon="11.546234585121688"><ele>262.0</ele><time>2026-03-29T07:55:04.997Z</time></trkpt><trkpt lat="43.083812887127884" lon="11.546111025863993"><ele>262.0</ele><time>2026-03-29T07:55:05.997Z</time></trkpt><trkpt lat="43.083937208905006" lon="11.545980478330275"><ele>261.0</ele><time>2026-03-29T07:55:06.997Z</time></trkpt><trkpt lat="43.084056004489895" lon="11.545844143557417"><ele>260.0</ele><time>2026-03-29T07:55:07.997Z</time></trkpt><trkpt lat="43.084171347258106" lon="11.545701420512389"><ele>259.0</ele><time>2026-03-29T07:55:08.997Z</time></trkpt><trkpt lat="43.08428654696233" lon="11.545551387268258"><ele>259.0</ele><time>2026-03-29T07:55:09.997Z</time></trkpt><trkpt lat="43.08439879669593" lon="11.54539197816621"><ele>259.0</ele><time>2026-03-29T07:55:10.997Z</time></trkpt><trkpt lat="43.0845009691886" lon="11.545223758041733"><ele>259.0</ele><time>2026-03-29T07:55:11.997Z</time></trkpt><trkpt lat="43.08459996915648" lon="11.54505380943923"><ele>261.0</ele><time>2026-03-29T07:55:12.997Z</time></trkpt><trkpt lat="43.08469660329283" lon="11.544884849638624"><ele>263.0</ele><time>2026-03-29T07:55:13.997Z</time></trkpt><trkpt lat="43.08479147023304" lon="11.544714218529094"><ele>265.0</ele><time>2026-03-29T07:55:14.997Z</time></trkpt><trkpt lat="43.084894470662654" lon="11.544546743678747"><ele>266.66666666666663</ele><time>2026-03-29T07:55:15.997Z</time></trkpt><trkpt lat="43.084994258109" lon="11.54437040717728"><ele>268.3333333333333</ele><time>2026-03-29T07:55:16.997Z</time></trkpt><trkpt lat="43.08509602457598" lon="11.54418858433979"><ele>270.0</ele><time>2026-03-29T07:55:17.997Z</time></trkpt><trkpt lat="43.08519894369481" lon="11.544002151176448"><ele>270.0</ele><time>2026-03-29T07:55:18.997Z</time></trkpt><trkpt lat="43.085305355398084" lon="11.54381492365528"><ele>270.0</ele><time>2026-03-29T07:55:19.997Z</time></trkpt><trkpt lat="43.08541610573298" lon="11.543625603213586"><ele>270.0</ele><time>2026-03-29T07:55:20.997Z</time></trkpt><trkpt lat="43.085532013744654" lon="11.543434923588833"><ele>269.6666666666667</ele><time>2026-03-29T07:55:21.997Z</time></trkpt><trkpt lat="43.08565528471987" lon="11.543250806089894"><ele>269.33333333333337</ele><time>2026-03-29T07:55:22.997Z</time></trkpt><trkpt lat="43.08578866248153" lon="11.543081497554551"><ele>269.0</ele><time>2026-03-29T07:55:23.997Z</time></trkpt><trkpt lat="43.085980524067615" lon="11.542978574968519"><ele>256.0</ele><time>2026-03-29T07:55:26.997Z</time></trkpt><trkpt lat="43.086447820877275" lon="11.542359910377204"><ele>255.33333333333331</ele><time>2026-03-29T07:55:29.997Z</time></trkpt><trkpt lat="43.08660021931277" lon="11.54223102078261"><ele>254.66666666666669</ele><time>2026-03-29T07:55:30.997Z</time></trkpt><trkpt lat="43.08675938217917" lon="11.5421056398023"><ele>254.0</ele><time>2026-03-29T07:55:31.997Z</time></trkpt><trkpt lat="43.086915701808174" lon="11.542000627945487"><ele>249.66666666666669</ele><time>2026-03-29T07:55:32.997Z</time></trkpt><trkpt lat="43.08709369890162" lon="11.541919619421067"><ele>245.33333333333331</ele><time>2026-03-29T07:55:33.997Z</time></trkpt><trkpt lat="43.08724568825073" lon="11.541831766886034"><ele>241.0</ele><time>2026-03-29T07:55:34.997Z</time></trkpt><trkpt lat="43.087403674236114" lon="11.541743212488823"><ele>240.66666666666666</ele><time>2026-03-29T07:55:35.997Z</time></trkpt><trkpt lat="43.087565021896246" lon="11.541659414103876"><ele>240.33333333333331</ele><time>2026-03-29T07:55:36.997Z</time></trkpt><trkpt lat="43.08772572291947" lon="11.541578794178546"><ele>240.0</ele><time>2026-03-29T07:55:37.997Z</time></trkpt><trkpt lat="43.087888894770586" lon="11.541494738849433"><ele>240.0</ele><time>2026-03-29T07:55:38.997Z</time></trkpt><trkpt lat="43.088054268219445" lon="11.54141045030301"><ele>240.0</ele><time>2026-03-29T07:55:39.997Z</time></trkpt><trkpt lat="43.08823209963585" lon="11.541317022285755"><ele>240.0</ele><time>2026-03-29T07:55:40.997Z</time></trkpt><trkpt lat="43.08842521890357" lon="11.541211235694758"><ele>235.66666666666669</ele><time>2026-03-29T07:55:41.997Z</time></trkpt><trkpt lat="43.08862857184895" lon="11.541100766193955"><ele>231.33333333333334</ele><time>2026-03-29T07:55:42.997Z</time></trkpt><trkpt lat="43.08882625057492" lon="11.54100149503263"><ele>227.0</ele><time>2026-03-29T07:55:43.997Z</time></trkpt><trkpt lat="43.08901249434534" lon="11.540909010333888"><ele>229.33333333333334</ele><time>2026-03-29T07:55:44.997Z</time></trkpt><trkpt lat="43.0891931657503" lon="11.54081815740687"><ele>231.66666666666669</ele><time>2026-03-29T07:55:45.997Z</time></trkpt><trkpt lat="43.089363636057485" lon="11.540727403653388"><ele>234.0</ele><time>2026-03-29T07:55:46.997Z</time></trkpt><trkpt lat="43.089538074683" lon="11.540637666886555"><ele>234.0</ele><time>2026-03-29T07:55:47.997Z</time></trkpt><trkpt lat="43.089713999369884" lon="11.540544506014882"><ele>234.0</ele><time>2026-03-29T07:55:48.997Z</time></trkpt><trkpt lat="43.08989288278428" lon="11.540440945440453"><ele>234.0</ele><time>2026-03-29T07:55:49.997Z</time></trkpt><trkpt lat="43.09007354328456" lon="11.540338628329197"><ele>230.33333333333331</ele><time>2026-03-29T07:55:50.997Z</time></trkpt><trkpt lat="43.09025345380736" lon="11.540246206174439"><ele>226.66666666666666</ele><time>2026-03-29T07:55:51.997Z</time></trkpt><trkpt lat="43.09043291217185" lon="11.540144803464084"><ele>223.0</ele><time>2026-03-29T07:55:52.997Z</time></trkpt><trkpt lat="43.090611890769175" lon="11.540026148654604"><ele>224.33333333333331</ele><time>2026-03-29T07:55:53.997Z</time></trkpt><trkpt lat="43.090785490746136" lon="11.53989647253459"><ele>225.66666666666669</ele><time>2026-03-29T07:55:54.997Z</time></trkpt><trkpt lat="43.090945845181864" lon="11.539767582851239"><ele>227.0</ele><time>2026-03-29T07:55:55.997Z</time></trkpt><trkpt lat="43.091100827768635" lon="11.539633837990332"><ele>223.0</ele><time>2026-03-29T07:55:56.997Z</time></trkpt><trkpt lat="43.09125885821615" lon="11.539486210468674"><ele>219.0</ele><time>2026-03-29T07:55:57.997Z</time></trkpt><trkpt lat="43.09141330760241" lon="11.539325756964532"><ele>215.0</ele><time>2026-03-29T07:55:58.997Z</time></trkpt><trkpt lat="43.09156230140588" lon="11.53916065292242"><ele>215.66666666666669</ele><time>2026-03-29T07:55:59.997Z</time></trkpt><trkpt lat="43.09171505620411" lon="11.53897795466021"><ele>216.33333333333331</ele><time>2026-03-29T07:56:00.997Z</time></trkpt><trkpt lat="43.091865976614756" lon="11.538786021614282"><ele>217.0</ele><time>2026-03-29T07:56:01.997Z</time></trkpt><trkpt lat="43.09201288256421" lon="11.538579579492854"><ele>214.0</ele><time>2026-03-29T07:56:02.997Z</time></trkpt><trkpt lat="43.092149705722655" lon="11.53836461604317"><ele>211.0</ele><time>2026-03-29T07:56:03.997Z</time></trkpt><trkpt lat="43.09227766799021" lon="11.538146240391209"><ele>208.0</ele><time>2026-03-29T07:56:04.997Z</time></trkpt><trkpt lat="43.092395860385636" lon="11.537924993336448"><ele>205.66666666666666</ele><time>2026-03-29T07:56:05.997Z</time></trkpt><trkpt lat="43.09250403802182" lon="11.53770242946688"><ele>203.33333333333331</ele><time>2026-03-29T07:56:06.997Z</time></trkpt><trkpt lat="43.092609953687074" lon="11.537473646006934"><ele>201.0</ele><time>2026-03-29T07:56:07.997Z</time></trkpt><trkpt lat="43.09271183338172" lon="11.537242959090978"><ele>198.33333333333331</ele><time>2026-03-29T07:56:08.997Z</time></trkpt><trkpt lat="43.092808099119566" lon="11.537007542352633"><ele>195.66666666666666</ele><time>2026-03-29T07:56:09.997Z</time></trkpt><trkpt lat="43.092892611078334" lon="11.536763252952959"><ele>193.0</ele><time>2026-03-29T07:56:10.997Z</time></trkpt><trkpt lat="43.092968713195" lon="11.536520102460665"><ele>193.0</ele><time>2026-03-29T07:56:11.997Z</time></trkpt><trkpt lat="43.093043073453174" lon="11.536279438706334"><ele>193.0</ele><time>2026-03-29T07:56:12.997Z</time></trkpt><trkpt lat="43.09311124347622" lon="11.536039318634991"><ele>193.0</ele><time>2026-03-29T07:56:13.997Z</time></trkpt><trkpt lat="43.09317180817996" lon="11.535791628709406"><ele>191.66666666666666</ele><time>2026-03-29T07:56:14.997Z</time></trkpt><trkpt lat="43.093219094806166" lon="11.535535091721298"><ele>190.33333333333331</ele><time>2026-03-29T07:56:15.997Z</time></trkpt><trkpt lat="43.09326113022464" lon="11.535267394653246"><ele>189.0</ele><time>2026-03-29T07:56:16.997Z</time></trkpt><trkpt lat="43.093298426001084" lon="11.534991529952022"><ele>189.0</ele><time>2026-03-29T07:56:17.997Z</time></trkpt><trkpt lat="43.09332868591161" lon="11.534724475796073"><ele>189.0</ele><time>2026-03-29T07:56:18.997Z</time></trkpt><trkpt lat="43.09335079972675" lon="11.534463552785965"><ele>189.0</ele><time>2026-03-29T07:56:19.997Z</time></trkpt><trkpt lat="43.09336899036706" lon="11.534192489235009"><ele>187.66666666666666</ele><time>2026-03-29T07:56:20.997Z</time></trkpt><trkpt lat="43.093388213575764" lon="11.533915698669228"><ele>186.33333333333331</ele><time>2026-03-29T07:56:21.997Z</time></trkpt><trkpt lat="43.09341173657725" lon="11.533646916729927"><ele>185.0</ele><time>2026-03-29T07:56:22.997Z</time></trkpt><trkpt lat="43.09343491683669" lon="11.53338111787716"><ele>183.0</ele><time>2026-03-29T07:56:23.997Z</time></trkpt><trkpt lat="43.09345498159506" lon="11.533117762053472"><ele>181.0</ele><time>2026-03-29T07:56:24.997Z</time></trkpt><trkpt lat="43.09347569894325" lon="11.532858610312672"><ele>179.0</ele><time>2026-03-29T07:56:25.997Z</time></trkpt><trkpt lat="43.09350053542769" lon="11.532607270786242"><ele>177.33333333333331</ele><time>2026-03-29T07:56:26.997Z</time></trkpt><trkpt lat="43.09352943085472" lon="11.532367386586916"><ele>175.66666666666666</ele><time>2026-03-29T07:56:27.997Z</time></trkpt><trkpt lat="43.09356228160917" lon="11.532133917438154"><ele>174.0</ele><time>2026-03-29T07:56:28.997Z</time></trkpt><trkpt lat="43.09359285896808" lon="11.531897705602516"><ele>172.33333333333334</ele><time>2026-03-29T07:56:29.997Z</time></trkpt><trkpt lat="43.093622518802704" lon="11.531660095231334"><ele>170.66666666666669</ele><time>2026-03-29T07:56:30.997Z</time></trkpt><trkpt lat="43.093661797279424" lon="11.531414532013049"><ele>169.0</ele><time>2026-03-29T07:56:31.997Z</time></trkpt><trkpt lat="43.093712564747975" lon="11.53117027653844"><ele>167.66666666666669</ele><time>2026-03-29T07:56:32.997Z</time></trkpt><trkpt lat="43.09376718059799" lon="11.530927285860889"><ele>166.33333333333334</ele><time>2026-03-29T07:56:33.997Z</time></trkpt><trkpt lat="43.09382446429763" lon="11.530684919962011"><ele>165.0</ele><time>2026-03-29T07:56:34.997Z</time></trkpt><trkpt lat="43.09388434563475" lon="11.53043847221578"><ele>165.0</ele><time>2026-03-29T07:56:35.997Z</time></trkpt><trkpt lat="43.09394854854778" lon="11.530196344291896"><ele>165.0</ele><time>2026-03-29T07:56:36.997Z</time></trkpt><trkpt lat="43.09401453291847" lon="11.529965079622398"><ele>165.0</ele><time>2026-03-29T07:56:37.997Z</time></trkpt><trkpt lat="43.0940868952421" lon="11.529737334535929"><ele>164.66666666666666</ele><time>2026-03-29T07:56:38.997Z</time></trkpt><trkpt lat="43.094161603759034" lon="11.52951384137318"><ele>164.33333333333331</ele><time>2026-03-29T07:56:39.997Z</time></trkpt><trkpt lat="43.094238930670556" lon="11.52930374526809"><ele>164.0</ele><time>2026-03-29T07:56:40.997Z</time></trkpt><trkpt lat="43.09431629238927" lon="11.52910799582995"><ele>164.0</ele><time>2026-03-29T07:56:41.997Z</time></trkpt><trkpt lat="43.09438998955363" lon="11.528924317730477"><ele>164.0</ele><time>2026-03-29T07:56:42.997Z</time></trkpt><trkpt lat="43.094461536389225" lon="11.528750545790347"><ele>164.0</ele><time>2026-03-29T07:56:43.997Z</time></trkpt><trkpt lat="43.09452729604233" lon="11.528593296997562"><ele>164.0</ele><time>2026-03-29T07:56:44.997Z</time></trkpt><trkpt lat="43.09459163574599" lon="11.528453447211916"><ele>164.83333333333331</ele><time>2026-03-29T07:56:45.997Z</time></trkpt><trkpt lat="43.09465051277935" lon="11.528328256755598"><ele>165.66666666666666</ele><time>2026-03-29T07:56:46.997Z</time></trkpt><trkpt lat="43.09470550197019" lon="11.528217613560646"><ele>166.5</ele><time>2026-03-29T07:56:47.997Z</time></trkpt><trkpt lat="43.094748066597575" lon="11.528129655841195"><ele>167.33333333333334</ele><time>2026-03-29T07:56:48.997Z</time></trkpt><trkpt lat="43.09479384315167" lon="11.528046585754995"><ele>168.16666666666669</ele><time>2026-03-29T07:56:50.997Z</time></trkpt><trkpt lat="43.094748962794725" lon="11.528151784162338"><ele>169.0</ele><time>2026-03-29T07:57:06.997Z</time></trkpt><trkpt lat="43.094698313050905" lon="11.528249888861016"><ele>169.0</ele><time>2026-03-29T07:57:08.997Z</time></trkpt><trkpt lat="43.094648966829816" lon="11.528348351847734"><ele>169.0</ele><time>2026-03-29T07:57:10.997Z</time></trkpt><trkpt lat="43.09460212727484" lon="11.528444343520121"><ele>169.0</ele><time>2026-03-29T07:57:12.997Z</time></trkpt><trkpt lat="43.09456386501743" lon="11.528524917544276"><ele>169.0</ele><time>2026-03-29T07:57:14.997Z</time></trkpt><trkpt lat="43.094523240078004" lon="11.528613962109604"><ele>169.0</ele><time>2026-03-29T07:57:16.997Z</time></trkpt><trkpt lat="43.09448105067504" lon="11.5287065658228"><ele>169.0</ele><time>2026-03-29T07:57:18.997Z</time></trkpt><trkpt lat="43.09443510881439" lon="11.528811556226366"><ele>168.0</ele><time>2026-03-29T07:57:20.997Z</time></trkpt><trkpt lat="43.09439882537055" lon="11.52889646972936"><ele>167.0</ele><time>2026-03-29T07:57:21.997Z</time></trkpt><trkpt lat="43.09432401834805" lon="11.529030862176647"><ele>166.0</ele><time>2026-03-29T07:57:22.997Z</time></trkpt><trkpt lat="43.094277069877265" lon="11.529166648816414"><ele>165.0</ele><time>2026-03-29T07:57:23.997Z</time></trkpt><trkpt lat="43.09422615443123" lon="11.529283282145203"><ele>164.0</ele><time>2026-03-29T07:57:24.997Z</time></trkpt><trkpt lat="43.094169421029164" lon="11.529432516271156"><ele>163.75</ele><time>2026-03-29T07:57:25.997Z</time></trkpt><trkpt lat="43.09411283648643" lon="11.529605938833459"><ele>163.5</ele><time>2026-03-29T07:57:26.997Z</time></trkpt><trkpt lat="43.094057917273446" lon="11.529775033537177"><ele>163.25</ele><time>2026-03-29T07:57:27.997Z</time></trkpt><trkpt lat="43.09398233353568" lon="11.529949467976232"><ele>163.0</ele><time>2026-03-29T07:57:28.997Z</time></trkpt><trkpt lat="43.093938618909064" lon="11.530154249574379"><ele>163.66666666666669</ele><time>2026-03-29T07:57:29.997Z</time></trkpt><trkpt lat="43.09387818904943" lon="11.530348210035912"><ele>164.33333333333334</ele><time>2026-03-29T07:57:30.997Z</time></trkpt><trkpt lat="43.09381999067187" lon="11.53054151981651"><ele>165.0</ele><time>2026-03-29T07:57:31.997Z</time></trkpt><trkpt lat="43.09376036724666" lon="11.53073420758456"><ele>165.0</ele><time>2026-03-29T07:57:32.997Z</time></trkpt><trkpt lat="43.09371841471599" lon="11.530932681847347"><ele>165.0</ele><time>2026-03-29T07:57:33.997Z</time></trkpt><trkpt lat="43.09367921780589" lon="11.531136391328179"><ele>165.0</ele><time>2026-03-29T07:57:34.997Z</time></trkpt><trkpt lat="43.0936432378136" lon="11.531338950943168"><ele>166.33333333333334</ele><time>2026-03-29T07:57:35.997Z</time></trkpt><trkpt lat="43.09360734838863" lon="11.531543321864232"><ele>167.66666666666669</ele><time>2026-03-29T07:57:36.997Z</time></trkpt><trkpt lat="43.09357059112118" lon="11.531747928011628"><ele>169.0</ele><time>2026-03-29T07:57:37.997Z</time></trkpt><trkpt lat="43.093542742177135" lon="11.531949831484985"><ele>170.66666666666669</ele><time>2026-03-29T07:57:38.997Z</time></trkpt><trkpt lat="43.093517589124836" lon="11.532159708736259"><ele>172.33333333333334</ele><time>2026-03-29T07:57:39.997Z</time></trkpt><trkpt lat="43.0934984471044" lon="11.532370405889786"><ele>174.0</ele><time>2026-03-29T07:57:40.997Z</time></trkpt><trkpt lat="43.09347853608805" lon="11.532578374906098"><ele>174.0</ele><time>2026-03-29T07:57:41.997Z</time></trkpt><trkpt lat="43.09345252837809" lon="11.532787426139041"><ele>174.0</ele><time>2026-03-29T07:57:42.997Z</time></trkpt><trkpt lat="43.09342283922021" lon="11.533031296623442"><ele>174.0</ele><time>2026-03-29T07:57:43.997Z</time></trkpt><trkpt lat="43.09339408870033" lon="11.533284988879403"><ele>175.66666666666666</ele><time>2026-03-29T07:57:44.997Z</time></trkpt><trkpt lat="43.093372509997764" lon="11.533568936690369"><ele>177.33333333333331</ele><time>2026-03-29T07:57:45.997Z</time></trkpt><trkpt lat="43.09334582206329" lon="11.533870409707806"><ele>179.0</ele><time>2026-03-29T07:57:46.997Z</time></trkpt><trkpt lat="43.093323478582136" lon="11.534197541711793"><ele>182.0</ele><time>2026-03-29T07:57:47.997Z</time></trkpt><trkpt lat="43.093294125679655" lon="11.534521508967003"><ele>185.0</ele><time>2026-03-29T07:57:48.997Z</time></trkpt><trkpt lat="43.093262974755724" lon="11.534837115887154"><ele>185.0</ele><time>2026-03-29T07:57:49.997Z</time></trkpt><trkpt lat="43.09322743160552" lon="11.535144273302826"><ele>185.0</ele><time>2026-03-29T07:57:50.997Z</time></trkpt><trkpt lat="43.09318062872546" lon="11.535445143223553"><ele>186.33333333333331</ele><time>2026-03-29T07:57:51.997Z</time></trkpt><trkpt lat="43.09312213244345" lon="11.535744556531476"><ele>187.66666666666666</ele><time>2026-03-29T07:57:52.997Z</time></trkpt><trkpt lat="43.09305762150093" lon="11.536037092433972"><ele>189.0</ele><time>2026-03-29T07:57:53.997Z</time></trkpt><trkpt lat="43.09298074913866" lon="11.536339763688721"><ele>191.0</ele><time>2026-03-29T07:57:54.997Z</time></trkpt><trkpt lat="43.09289014197876" lon="11.536643739243452"><ele>193.0</ele><time>2026-03-29T07:57:55.997Z</time></trkpt><trkpt lat="43.09279727768626" lon="11.53692931809416"><ele>195.66666666666666</ele><time>2026-03-29T07:57:56.997Z</time></trkpt><trkpt lat="43.0926962045096" lon="11.537201411285315"><ele>198.33333333333331</ele><time>2026-03-29T07:57:57.997Z</time></trkpt><trkpt lat="43.09258577915486" lon="11.53746044886813"><ele>201.0</ele><time>2026-03-29T07:57:58.997Z</time></trkpt><trkpt lat="43.09246393342253" lon="11.537711279460941"><ele>203.33333333333331</ele><time>2026-03-29T07:57:59.997Z</time></trkpt><trkpt lat="43.09233990646838" lon="11.537958448803709"><ele>205.66666666666666</ele><time>2026-03-29T07:58:00.997Z</time></trkpt><trkpt lat="43.092209979662165" lon="11.53819517238921"><ele>208.0</ele><time>2026-03-29T07:58:01.997Z</time></trkpt><trkpt lat="43.09207018482113" lon="11.538418649971737"><ele>208.0</ele><time>2026-03-29T07:58:02.997Z</time></trkpt><trkpt lat="43.091924803880836" lon="11.538623963482069"><ele>208.0</ele><time>2026-03-29T07:58:03.997Z</time></trkpt><trkpt lat="43.0917708512372" lon="11.53882647370789"><ele>208.0</ele><time>2026-03-29T07:58:04.997Z</time></trkpt><trkpt lat="43.09161140936916" lon="11.539019792416644"><ele>210.33333333333331</ele><time>2026-03-29T07:58:05.997Z</time></trkpt><trkpt lat="43.09144788775777" lon="11.539205605157585"><ele>212.66666666666669</ele><time>2026-03-29T07:58:06.997Z</time></trkpt><trkpt lat="43.091283418240366" lon="11.539382909579492"><ele>215.0</ele><time>2026-03-29T07:58:07.997Z</time></trkpt><trkpt lat="43.091116010091646" lon="11.539550318067246"><ele>217.66666666666669</ele><time>2026-03-29T07:58:08.997Z</time></trkpt><trkpt lat="43.09094741364552" lon="11.539705566483887"><ele>220.33333333333331</ele><time>2026-03-29T07:58:09.997Z</time></trkpt><trkpt lat="43.09077630942368" lon="11.539847452043718"><ele>223.0</ele><time>2026-03-29T07:58:10.997Z</time></trkpt><trkpt lat="43.09059936608388" lon="11.539974408742976"><ele>223.0</ele><time>2026-03-29T07:58:11.997Z</time></trkpt><trkpt lat="43.090421948742936" lon="11.540087267226902"><ele>223.0</ele><time>2026-03-29T07:58:12.997Z</time></trkpt><trkpt lat="43.090243138775996" lon="11.54019408811904"><ele>223.0</ele><time>2026-03-29T07:58:13.997Z</time></trkpt><trkpt lat="43.09006246363449" lon="11.54029274230612"><ele>226.66666666666666</ele><time>2026-03-29T07:58:14.997Z</time></trkpt><trkpt lat="43.08987983924367" lon="11.540390623522908"><ele>230.33333333333331</ele><time>2026-03-29T07:58:15.997Z</time></trkpt><trkpt lat="43.08969729010308" lon="11.540488137471463"><ele>234.0</ele><time>2026-03-29T07:58:16.997Z</time></trkpt><trkpt lat="43.08951125426163" lon="11.540581106725329"><ele>234.0</ele><time>2026-03-29T07:58:17.997Z</time></trkpt><trkpt lat="43.08934163474999" lon="11.540669295132203"><ele>234.0</ele><time>2026-03-29T07:58:18.997Z</time></trkpt><trkpt lat="43.089175719891806" lon="11.540747600922572"><ele>234.0</ele><time>2026-03-29T07:58:19.997Z</time></trkpt><trkpt lat="43.0890078326296" lon="11.54083706422105"><ele>231.66666666666669</ele><time>2026-03-29T07:58:20.997Z</time></trkpt><trkpt lat="43.08883965790973" lon="11.540926749884523"><ele>229.33333333333334</ele><time>2026-03-29T07:58:21.997Z</time></trkpt><trkpt lat="43.08867513371003" lon="11.541013841863954"><ele>227.0</ele><time>2026-03-29T07:58:22.997Z</time></trkpt><trkpt lat="43.08851305114829" lon="11.541103591849094"><ele>227.0</ele><time>2026-03-29T07:58:23.997Z</time></trkpt><trkpt lat="43.088352063250284" lon="11.541188830622426"><ele>227.0</ele><time>2026-03-29T07:58:24.997Z</time></trkpt><trkpt lat="43.08819450344365" lon="11.54127058247618"><ele>227.0</ele><time>2026-03-29T07:58:25.997Z</time></trkpt><trkpt lat="43.0880408462939" lon="11.54135017170812"><ele>231.33333333333334</ele><time>2026-03-29T07:58:26.997Z</time></trkpt><trkpt lat="43.08788938826741" lon="11.541432557393815"><ele>235.66666666666669</ele><time>2026-03-29T07:58:27.997Z</time></trkpt><trkpt lat="43.08773958399874" lon="11.541513247957292"><ele>240.0</ele><time>2026-03-29T07:58:28.997Z</time></trkpt><trkpt lat="43.08759224046477" lon="11.541589659593232"><ele>240.0</ele><time>2026-03-29T07:58:29.997Z</time></trkpt><trkpt lat="43.087447210529945" lon="11.541667008315681"><ele>240.0</ele><time>2026-03-29T07:58:30.997Z</time></trkpt><trkpt lat="43.08730305206099" lon="11.54174299430581"><ele>240.0</ele><time>2026-03-29T07:58:31.997Z</time></trkpt><trkpt lat="43.08715947489649" lon="11.541813524997092"><ele>240.33333333333331</ele><time>2026-03-29T07:58:32.997Z</time></trkpt><trkpt lat="43.08701547603111" lon="11.541874485707572"><ele>240.66666666666666</ele><time>2026-03-29T07:58:33.997Z</time></trkpt><trkpt lat="43.086869481386806" lon="11.541940718587803"><ele>241.0</ele><time>2026-03-29T07:58:34.997Z</time></trkpt><trkpt lat="43.08672359499754" lon="11.542013922763637"><ele>244.75</ele><time>2026-03-29T07:58:35.997Z</time></trkpt><trkpt lat="43.08658092393897" lon="11.542087417487753"><ele>248.5</ele><time>2026-03-29T07:58:36.997Z</time></trkpt><trkpt lat="43.086440785448374" lon="11.542152689016273"><ele>252.25</ele><time>2026-03-29T07:58:37.997Z</time></trkpt><trkpt lat="43.086301348656576" lon="11.542190782915599"><ele>256.0</ele><time>2026-03-29T07:58:38.997Z</time></trkpt><trkpt lat="43.08615728414784" lon="11.542204882708768"><ele>256.0</ele><time>2026-03-29T07:58:39.997Z</time></trkpt><trkpt lat="43.08601130784306" lon="11.542196445240654"><ele>256.0</ele><time>2026-03-29T07:58:40.997Z</time></trkpt><trkpt lat="43.08588355003112" lon="11.542169283982584"><ele>256.0</ele><time>2026-03-29T07:58:41.997Z</time></trkpt><trkpt lat="43.085776252040084" lon="11.542120053577028"><ele>256.0</ele><time>2026-03-29T07:58:42.997Z</time></trkpt><trkpt lat="43.085688072188" lon="11.542065840078967"><ele>254.57142857142856</ele><time>2026-03-29T07:58:43.997Z</time></trkpt><trkpt lat="43.08560690444826" lon="11.5420206009706"><ele>253.1428571428571</ele><time>2026-03-29T07:58:44.997Z</time></trkpt><trkpt lat="43.08553652779266" lon="11.541979799337016"><ele>251.71428571428572</ele><time>2026-03-29T07:58:45.997Z</time></trkpt><trkpt lat="43.08545963455234" lon="11.541949550991129"><ele>250.28571428571428</ele><time>2026-03-29T07:58:46.997Z</time></trkpt><trkpt lat="43.085389650113235" lon="11.541937531297746"><ele>248.85714285714286</ele><time>2026-03-29T07:58:47.997Z</time></trkpt><trkpt lat="43.08531994800297" lon="11.541945282739116"><ele>247.42857142857144</ele><time>2026-03-29T07:58:48.997Z</time></trkpt><trkpt lat="43.08525597509558" lon="11.54195855825184"><ele>246.00000000000003</ele><time>2026-03-29T07:58:49.997Z</time></trkpt><trkpt lat="43.08518053916306" lon="11.541994907508403"><ele>248.4</ele><time>2026-03-29T07:58:50.997Z</time></trkpt><trkpt lat="43.08509746789997" lon="11.542065843068208"><ele>250.8</ele><time>2026-03-29T07:58:51.997Z</time></trkpt><trkpt lat="43.08502063981119" lon="11.54215429885048"><ele>253.20000000000002</ele><time>2026-03-29T07:58:52.997Z</time></trkpt><trkpt lat="43.08495861640885" lon="11.542267934548635"><ele>255.60000000000002</ele><time>2026-03-29T07:58:53.997Z</time></trkpt><trkpt lat="43.08491710051201" lon="11.542398329857688"><ele>258.0</ele><time>2026-03-29T07:58:54.997Z</time></trkpt><trkpt lat="43.0848987317006" lon="11.542548769993536"><ele>258.0</ele><time>2026-03-29T07:58:55.997Z</time></trkpt><trkpt lat="43.084911432125224" lon="11.542702336899241"><ele>258.0</ele><time>2026-03-29T07:58:56.997Z</time></trkpt><trkpt lat="43.0849431729114" lon="11.542854535305855"><ele>258.0</ele><time>2026-03-29T07:58:57.997Z</time></trkpt><trkpt lat="43.085005160655314" lon="11.542991046323602"><ele>258.0</ele><time>2026-03-29T07:58:58.997Z</time></trkpt><trkpt lat="43.08507747320967" lon="11.543108525985005"><ele>260.75</ele><time>2026-03-29T07:58:59.997Z</time></trkpt><trkpt lat="43.08517593616886" lon="11.543186372614125"><ele>263.5</ele><time>2026-03-29T07:59:00.997Z</time></trkpt><trkpt lat="43.08529256855179" lon="11.543233600094275"><ele>266.25</ele><time>2026-03-29T07:59:01.997Z</time></trkpt><trkpt lat="43.08541568657442" lon="11.543244443282159"><ele>269.0</ele><time>2026-03-29T07:59:02.997Z</time></trkpt><trkpt lat="43.085541608927414" lon="11.543254914586637"><ele>269.0</ele><time>2026-03-29T07:59:03.997Z</time></trkpt><trkpt lat="43.08567574243009" lon="11.543266745024676"><ele>269.0</ele><time>2026-03-29T07:59:04.997Z</time></trkpt><trkpt lat="43.08582206896283" lon="11.543287435872957"><ele>269.0</ele><time>2026-03-29T07:59:05.997Z</time></trkpt><trkpt lat="43.08599109653001" lon="11.543307409874382"><ele>267.33333333333337</ele><time>2026-03-29T07:59:06.997Z</time></trkpt><trkpt lat="43.08616347542029" lon="11.543338327276134"><ele>265.6666666666667</ele><time>2026-03-29T07:59:07.997Z</time></trkpt><trkpt lat="43.08632219056161" lon="11.54336324301657"><ele>264.0</ele><time>2026-03-29T07:59:08.997Z</time></trkpt><trkpt lat="43.086470738144925" lon="11.543380915175677"><ele>264.0</ele><time>2026-03-29T07:59:09.997Z</time></trkpt><trkpt lat="43.08661313160498" lon="11.543389435591397"><ele>264.0</ele><time>2026-03-29T07:59:10.997Z</time></trkpt><trkpt lat="43.086749175107265" lon="11.54339850637952"><ele>264.0</ele><time>2026-03-29T07:59:11.997Z</time></trkpt><trkpt lat="43.0868827050692" lon="11.543411918533696"><ele>264.0</ele><time>2026-03-29T07:59:12.997Z</time></trkpt><trkpt lat="43.08701635444072" lon="11.5434022861972"><ele>264.0</ele><time>2026-03-29T07:59:13.997Z</time></trkpt><trkpt lat="43.08713650062755" lon="11.543351050079606"><ele>264.0</ele><time>2026-03-29T07:59:14.997Z</time></trkpt><trkpt lat="43.087218532614806" lon="11.543216158948479"><ele>264.0</ele><time>2026-03-29T07:59:15.997Z</time></trkpt><trkpt lat="43.087307715075646" lon="11.543086956131125"><ele>264.0</ele><time>2026-03-29T07:59:16.997Z</time></trkpt><trkpt lat="43.087388115131326" lon="11.54293350277511"><ele>261.5</ele><time>2026-03-29T07:59:17.997Z</time></trkpt><trkpt lat="43.0874580708686" lon="11.542790793233056"><ele>259.0</ele><time>2026-03-29T07:59:18.997Z</time></trkpt><trkpt lat="43.08759608894765" lon="11.542739618259633"><ele>256.5</ele><time>2026-03-29T07:59:19.996Z</time></trkpt><trkpt lat="43.08769015613943" lon="11.542706674790573"><ele>254.0</ele><time>2026-03-29T07:59:20.996Z</time></trkpt><trkpt lat="43.087774407709084" lon="11.54272272433722"><ele>254.00000000000003</ele><time>2026-03-29T07:59:21.996Z</time></trkpt><trkpt lat="43.087849214981176" lon="11.542799237274831"><ele>254.0</ele><time>2026-03-29T07:59:22.996Z</time></trkpt><trkpt lat="43.08787597695006" lon="11.542927062095384"><ele>254.0</ele><time>2026-03-29T07:59:23.996Z</time></trkpt><trkpt lat="43.087896940475105" lon="11.543039425459279"><ele>254.0</ele><time>2026-03-29T07:59:24.996Z</time></trkpt><trkpt lat="43.08788984819941" lon="11.543149068507242"><ele>254.00000000000003</ele><time>2026-03-29T07:59:25.996Z</time></trkpt><trkpt lat="43.0878628592472" lon="11.543257613334893"><ele>254.0</ele><time>2026-03-29T07:59:26.996Z</time></trkpt><trkpt lat="43.08780042910285" lon="11.543351106381275"><ele>256.5</ele><time>2026-03-29T07:59:27.996Z</time></trkpt><trkpt lat="43.08773226051725" lon="11.543486132233657"><ele>259.0</ele><time>2026-03-29T07:59:28.996Z</time></trkpt><trkpt lat="43.087663950222144" lon="11.543621438789222"><ele>261.5</ele><time>2026-03-29T07:59:29.996Z</time></trkpt><trkpt lat="43.087602536579546" lon="11.543743084699019"><ele>264.0</ele><time>2026-03-29T07:59:30.996Z</time></trkpt><trkpt lat="43.087551299051974" lon="11.543878768873817"><ele>265.8</ele><time>2026-03-29T07:59:31.996Z</time></trkpt><trkpt lat="43.087479948090056" lon="11.543991813961414"><ele>267.59999999999997</ele><time>2026-03-29T07:59:32.996Z</time></trkpt><trkpt lat="43.08741588898524" lon="11.54410890681151"><ele>269.4</ele><time>2026-03-29T07:59:33.996Z</time></trkpt><trkpt lat="43.08736442735088" lon="11.544228288788787"><ele>271.2</ele><time>2026-03-29T07:59:34.996Z</time></trkpt><trkpt lat="43.08731109599986" lon="11.544334527685614"><ele>273.0</ele><time>2026-03-29T07:59:35.996Z</time></trkpt><trkpt lat="43.08726684124377" lon="11.544439538965227"><ele>273.0</ele><time>2026-03-29T07:59:36.996Z</time></trkpt><trkpt lat="43.08722728704843" lon="11.544544736777437"><ele>273.0</ele><time>2026-03-29T07:59:37.996Z</time></trkpt><trkpt lat="43.08718445966512" lon="11.544632440784074"><ele>273.0</ele><time>2026-03-29T07:59:38.996Z</time></trkpt><trkpt lat="43.08714603291431" lon="11.544779888935391"><ele>273.0</ele><time>2026-03-29T07:59:40.996Z</time></trkpt><trkpt lat="43.0870877718816" lon="11.544926898967308"><ele>273.0</ele><time>2026-03-29T07:59:42.996Z</time></trkpt><trkpt lat="43.087056868502295" lon="11.545024940021165"><ele>272.6666666666667</ele><time>2026-03-29T07:59:43.996Z</time></trkpt><trkpt lat="43.08700562769606" lon="11.54511989953087"><ele>272.3333333333333</ele><time>2026-03-29T07:59:44.996Z</time></trkpt><trkpt lat="43.08698209240122" lon="11.54523447990076"><ele>272.0</ele><time>2026-03-29T07:59:45.996Z</time></trkpt><trkpt lat="43.08694724715878" lon="11.545332892446899"><ele>271.66666666666663</ele><time>2026-03-29T07:59:46.996Z</time></trkpt><trkpt lat="43.08690725902962" lon="11.545448204761037"><ele>271.3333333333333</ele><time>2026-03-29T07:59:47.996Z</time></trkpt><trkpt lat="43.08685485579474" lon="11.545563040925343"><ele>271.0</ele><time>2026-03-29T07:59:48.996Z</time></trkpt><trkpt lat="43.08683016179447" lon="11.545690978441591"><ele>270.2</ele><time>2026-03-29T07:59:49.996Z</time></trkpt><trkpt lat="43.086772599635545" lon="11.545801568247331"><ele>269.40000000000003</ele><time>2026-03-29T07:59:50.996Z</time></trkpt><trkpt lat="43.086753920420165" lon="11.545912813486243"><ele>268.6</ele><time>2026-03-29T07:59:51.996Z</time></trkpt><trkpt lat="43.086727933312154" lon="11.5460416714261"><ele>267.8</ele><time>2026-03-29T07:59:53.996Z</time></trkpt><trkpt lat="43.08660042567576" lon="11.546035217352614"><ele>267.0</ele><time>2026-03-29T07:59:57.996Z</time></trkpt><trkpt lat="43.08653436436501" lon="11.545976315945941"><ele>266.1666666666667</ele><time>2026-03-29T07:59:58.996Z</time></trkpt><trkpt lat="43.08644982141775" lon="11.545940001583016"><ele>265.3333333333333</ele><time>2026-03-29T07:59:59.996Z</time></trkpt><trkpt lat="43.08637421833002" lon="11.545911143603849"><ele>264.5</ele><time>2026-03-29T08:00:00.996Z</time></trkpt><trkpt lat="43.08630940668512" lon="11.54590631281464"><ele>263.66666666666663</ele><time>2026-03-29T08:00:01.996Z</time></trkpt><trkpt lat="43.086185181448634" lon="11.545865952113173"><ele>262.8333333333333</ele><time>2026-03-29T08:00:03.996Z</time></trkpt><trkpt lat="43.08611820445679" lon="11.545846028373596"><ele>262.0</ele><time>2026-03-29T08:00:04.996Z</time></trkpt><trkpt lat="43.08605621740654" lon="11.54582653110706"><ele>262.0</ele><time>2026-03-29T08:00:05.996Z</time></trkpt><trkpt lat="43.085992675639886" lon="11.545800307622063"><ele>262.0</ele><time>2026-03-29T08:00:06.996Z</time></trkpt><trkpt lat="43.08587363151785" lon="11.545768562541108"><ele>262.0</ele><time>2026-03-29T08:00:08.996Z</time></trkpt><trkpt lat="43.08578160409818" lon="11.545791901906155"><ele>262.0</ele><time>2026-03-29T08:00:10.996Z</time></trkpt><trkpt lat="43.08569380814193" lon="11.545824653305663"><ele>262.0</ele><time>2026-03-29T08:00:12.996Z</time></trkpt><trkpt lat="43.08566495248197" lon="11.545979110661706"><ele>261.8333333333333</ele><time>2026-03-29T08:00:13.996Z</time></trkpt><trkpt lat="43.08562424498381" lon="11.546064783958748"><ele>261.66666666666663</ele><time>2026-03-29T08:00:14.996Z</time></trkpt><trkpt lat="43.08557716689788" lon="11.546157221787908"><ele>261.5</ele><time>2026-03-29T08:00:15.996Z</time></trkpt><trkpt lat="43.08553709432014" lon="11.546272599296389"><ele>261.3333333333333</ele><time>2026-03-29T08:00:16.996Z</time></trkpt><trkpt lat="43.085471173867845" lon="11.546366519546096"><ele>261.1666666666667</ele><time>2026-03-29T08:00:17.996Z</time></trkpt><trkpt lat="43.08542959115816" lon="11.546473265250631"><ele>261.0</ele><time>2026-03-29T08:00:18.996Z</time></trkpt><trkpt lat="43.085377331031786" lon="11.546562820249948"><ele>260.6666666666667</ele><time>2026-03-29T08:00:19.996Z</time></trkpt><trkpt lat="43.08532679415288" lon="11.546649793078549"><ele>260.3333333333333</ele><time>2026-03-29T08:00:20.996Z</time></trkpt><trkpt lat="43.08527020078345" lon="11.546735054042015"><ele>260.0</ele><time>2026-03-29T08:00:21.996Z</time></trkpt><trkpt lat="43.085212744521726" lon="11.546830319570688"><ele>259.66666666666663</ele><time>2026-03-29T08:00:22.996Z</time></trkpt><trkpt lat="43.085162796661926" lon="11.54694290044379"><ele>259.3333333333333</ele><time>2026-03-29T08:00:23.996Z</time></trkpt><trkpt lat="43.08510570637471" lon="11.547041845800189"><ele>259.0</ele><time>2026-03-29T08:00:24.996Z</time></trkpt><trkpt lat="43.085062513439475" lon="11.547138522792665"><ele>258.5</ele><time>2026-03-29T08:00:25.996Z</time></trkpt><trkpt lat="43.0850312617438" lon="11.547230456311016"><ele>258.0</ele><time>2026-03-29T08:00:26.996Z</time></trkpt><trkpt lat="43.085001717219065" lon="11.547325573741798"><ele>257.5</ele><time>2026-03-29T08:00:27.996Z</time></trkpt><trkpt lat="43.08496175903224" lon="11.54741920555329"><ele>257.0</ele><time>2026-03-29T08:00:28.996Z</time></trkpt><trkpt lat="43.08491831102129" lon="11.547516272833956"><ele>256.5</ele><time>2026-03-29T08:00:29.996Z</time></trkpt><trkpt lat="43.08486907901122" lon="11.547624510936219"><ele>256.0</ele><time>2026-03-29T08:00:30.996Z</time></trkpt><trkpt lat="43.08481846708253" lon="11.547725422652963"><ele>255.49999999999997</ele><time>2026-03-29T08:00:31.996Z</time></trkpt><trkpt lat="43.084771281961274" lon="11.547823772467183"><ele>255.0</ele><time>2026-03-29T08:00:32.996Z</time></trkpt><trkpt lat="43.08472824615888" lon="11.547911389367352"><ele>254.5</ele><time>2026-03-29T08:00:33.996Z</time></trkpt><trkpt lat="43.08469444692097" lon="11.548000007745006"><ele>254.0</ele><time>2026-03-29T08:00:34.996Z</time></trkpt><trkpt lat="43.08465344128522" lon="11.548089091667324"><ele>253.49999999999997</ele><time>2026-03-29T08:00:35.996Z</time></trkpt><trkpt lat="43.08460680896108" lon="11.548154840703555"><ele>253.0</ele><time>2026-03-29T08:00:36.996Z</time></trkpt><trkpt lat="43.084577154390196" lon="11.548244675226877"><ele>252.2</ele><time>2026-03-29T08:00:38.996Z</time></trkpt><trkpt lat="43.084569204648176" lon="11.548334109499478"><ele>251.4</ele><time>2026-03-29T08:00:43.996Z</time></trkpt><trkpt lat="43.084708943401345" lon="11.54838966971321"><ele>250.59999999999997</ele><time>2026-03-29T08:00:44.996Z</time></trkpt><trkpt lat="43.08477140312222" lon="11.548450829374072"><ele>249.79999999999998</ele><time>2026-03-29T08:00:45.996Z</time></trkpt><trkpt lat="43.084855534822424" lon="11.548485476048496"><ele>249.0</ele><time>2026-03-29T08:00:46.996Z</time></trkpt><trkpt lat="43.08492645215663" lon="11.548576579844894"><ele>249.39999999999998</ele><time>2026-03-29T08:00:47.996Z</time></trkpt><trkpt lat="43.08501795464754" lon="11.548660618207252"><ele>249.79999999999998</ele><time>2026-03-29T08:00:48.996Z</time></trkpt><trkpt lat="43.08510025962055" lon="11.548733131133341"><ele>250.20000000000002</ele><time>2026-03-29T08:00:49.996Z</time></trkpt><trkpt lat="43.08519671327033" lon="11.548810818206823"><ele>250.60000000000002</ele><time>2026-03-29T08:00:50.996Z</time></trkpt><trkpt lat="43.08529172096304" lon="11.548897783681603"><ele>251.0</ele><time>2026-03-29T08:00:51.996Z</time></trkpt><trkpt lat="43.0853670060225" lon="11.54901780419006"><ele>251.0</ele><time>2026-03-29T08:00:52.996Z</time></trkpt><trkpt lat="43.085459661504395" lon="11.549097718887014"><ele>251.00000000000003</ele><time>2026-03-29T08:00:53.996Z</time></trkpt><trkpt lat="43.08555123973803" lon="11.549172406548868"><ele>251.00000000000003</ele><time>2026-03-29T08:00:54.996Z</time></trkpt><trkpt lat="43.08564723423847" lon="11.549228529968405"><ele>251.0</ele><time>2026-03-29T08:00:55.996Z</time></trkpt><trkpt lat="43.08573142692039" lon="11.549268995587813"><ele>251.0</ele><time>2026-03-29T08:00:56.996Z</time></trkpt><trkpt lat="43.085825980863035" lon="11.549313697009788"><ele>250.83333333333334</ele><time>2026-03-29T08:00:58.996Z</time></trkpt><trkpt lat="43.08584571368101" lon="11.54941226859479"><ele>250.66666666666669</ele><time>2026-03-29T08:01:03.996Z</time></trkpt><trkpt lat="43.085811641597736" lon="11.549561883567709"><ele>250.5</ele><time>2026-03-29T08:01:05.996Z</time></trkpt><trkpt lat="43.08576300155654" lon="11.54964277205676"><ele>250.33333333333331</ele><time>2026-03-29T08:01:07.996Z</time></trkpt><trkpt lat="43.085721047373404" lon="11.549710196875838"><ele>250.16666666666666</ele><time>2026-03-29T08:01:08.996Z</time></trkpt><trkpt lat="43.0856654417037" lon="11.549799511496246"><ele>250.0</ele><time>2026-03-29T08:01:09.996Z</time></trkpt><trkpt lat="43.085597687251415" lon="11.549908180529563"><ele>250.0</ele><time>2026-03-29T08:01:10.996Z</time></trkpt><trkpt lat="43.085553272733364" lon="11.550073022897186"><ele>250.0</ele><time>2026-03-29T08:01:11.996Z</time></trkpt><trkpt lat="43.08548311394552" lon="11.55018934675698"><ele>250.0</ele><time>2026-03-29T08:01:12.996Z</time></trkpt><trkpt lat="43.08541871508763" lon="11.550301636656014"><ele>250.0</ele><time>2026-03-29T08:01:13.996Z</time></trkpt><trkpt lat="43.08535803187869" lon="11.550405069105233"><ele>250.0</ele><time>2026-03-29T08:01:14.996Z</time></trkpt><trkpt lat="43.085294690789496" lon="11.550495741217418"><ele>249.66666666666666</ele><time>2026-03-29T08:01:15.996Z</time></trkpt><trkpt lat="43.085237874876306" lon="11.550584472935254"><ele>249.33333333333331</ele><time>2026-03-29T08:01:16.996Z</time></trkpt><trkpt lat="43.08518551156917" lon="11.550659663193008"><ele>249.0</ele><time>2026-03-29T08:01:17.996Z</time></trkpt><trkpt lat="43.085120925248226" lon="11.550745251101336"><ele>248.66666666666669</ele><time>2026-03-29T08:01:18.996Z</time></trkpt><trkpt lat="43.08505399660747" lon="11.550836682466905"><ele>248.33333333333334</ele><time>2026-03-29T08:01:19.996Z</time></trkpt><trkpt lat="43.08498826783382" lon="11.550924341333918"><ele>248.0</ele><time>2026-03-29T08:01:20.996Z</time></trkpt><trkpt lat="43.0849214156815" lon="11.55102397385243"><ele>247.60000000000002</ele><time>2026-03-29T08:01:21.996Z</time></trkpt><trkpt lat="43.08485913740798" lon="11.551123936955703"><ele>247.20000000000002</ele><time>2026-03-29T08:01:22.996Z</time></trkpt><trkpt lat="43.08480112125717" lon="11.551226813821007"><ele>246.8</ele><time>2026-03-29T08:01:23.996Z</time></trkpt><trkpt lat="43.08472627319417" lon="11.551313164652552"><ele>246.4</ele><time>2026-03-29T08:01:24.996Z</time></trkpt><trkpt lat="43.08465016148323" lon="11.551420424757127"><ele>246.0</ele><time>2026-03-29T08:01:26.001Z</time></trkpt><trkpt lat="43.084572048635785" lon="11.55153128583823"><ele>246.0</ele><time>2026-03-29T08:01:27.001Z</time></trkpt><trkpt lat="43.08449141455845" lon="11.551645563147384"><ele>246.0</ele><time>2026-03-29T08:01:28.001Z</time></trkpt><trkpt lat="43.08440990398777" lon="11.551761095616317"><ele>246.0</ele><time>2026-03-29T08:01:29.001Z</time></trkpt><trkpt lat="43.08433421646708" lon="11.551896322719562"><ele>246.0</ele><time>2026-03-29T08:01:30.001Z</time></trkpt><trkpt lat="43.0842504200029" lon="11.552020708253067"><ele>245.0</ele><time>2026-03-29T08:01:31.001Z</time></trkpt><trkpt lat="43.084172741136136" lon="11.552179802616214"><ele>244.0</ele><time>2026-03-29T08:01:32.001Z</time></trkpt><trkpt lat="43.08409042769276" lon="11.552344632883235"><ele>243.0</ele><time>2026-03-29T08:01:33.001Z</time></trkpt><trkpt lat="43.0839845858402" lon="11.55250678772109"><ele>242.0</ele><time>2026-03-29T08:01:34.001Z</time></trkpt><trkpt lat="43.08392501927259" lon="11.55272291816547"><ele>242.33333333333334</ele><time>2026-03-29T08:01:35.001Z</time></trkpt><trkpt lat="43.08386056197811" lon="11.552921510076112"><ele>242.66666666666669</ele><time>2026-03-29T08:01:36.001Z</time></trkpt><trkpt lat="43.083817722287705" lon="11.553138171921082"><ele>243.0</ele><time>2026-03-29T08:01:37.001Z</time></trkpt><trkpt lat="43.08378606167493" lon="11.553371261048792"><ele>243.0</ele><time>2026-03-29T08:01:38.001Z</time></trkpt><trkpt lat="43.083755210454996" lon="11.553589745631307"><ele>243.0</ele><time>2026-03-29T08:01:39.001Z</time></trkpt><trkpt lat="43.083730745590614" lon="11.553788721068706"><ele>243.0</ele><time>2026-03-29T08:01:40.001Z</time></trkpt><trkpt lat="43.08370052433534" lon="11.553986086759549"><ele>243.75</ele><time>2026-03-29T08:01:41.001Z</time></trkpt><trkpt lat="43.083671097838184" lon="11.554183603182393"><ele>244.5</ele><time>2026-03-29T08:01:42.001Z</time></trkpt><trkpt lat="43.08364476210278" lon="11.554378368172996"><ele>245.25</ele><time>2026-03-29T08:01:43.001Z</time></trkpt><trkpt lat="43.08359584830396" lon="11.554573204819254"><ele>246.0</ele><time>2026-03-29T08:01:44.001Z</time></trkpt><trkpt lat="43.08357560054451" lon="11.554768066360296"><ele>247.25</ele><time>2026-03-29T08:01:45.001Z</time></trkpt><trkpt lat="43.08354471947738" lon="11.554954371582745"><ele>248.5</ele><time>2026-03-29T08:01:46.001Z</time></trkpt><trkpt lat="43.08351171947158" lon="11.555133260183633"><ele>249.75</ele><time>2026-03-29T08:01:47.001Z</time></trkpt><trkpt lat="43.083478026427166" lon="11.555320651713783"><ele>251.0</ele><time>2026-03-29T08:01:48.001Z</time></trkpt><trkpt lat="43.08345765841798" lon="11.555512121606206"><ele>252.0</ele><time>2026-03-29T08:01:49.001Z</time></trkpt><trkpt lat="43.08344926781514" lon="11.555697975382369"><ele>253.0</ele><time>2026-03-29T08:01:50.001Z</time></trkpt><trkpt lat="43.083453524483424" lon="11.555869621550187"><ele>254.0</ele><time>2026-03-29T08:01:51.001Z</time></trkpt><trkpt lat="43.08348579291722" lon="11.55601970695389"><ele>255.0</ele><time>2026-03-29T08:01:52.001Z</time></trkpt><trkpt lat="43.083550361330374" lon="11.55615586888656"><ele>255.0</ele><time>2026-03-29T08:01:53.001Z</time></trkpt><trkpt lat="43.083655257201045" lon="11.556253866626433"><ele>255.0</ele><time>2026-03-29T08:01:54.001Z</time></trkpt><trkpt lat="43.083787381350774" lon="11.556298375563172"><ele>255.0</ele><time>2026-03-29T08:01:55.001Z</time></trkpt><trkpt lat="43.08393596515007" lon="11.556350017485032"><ele>255.0</ele><time>2026-03-29T08:01:56.001Z</time></trkpt><trkpt lat="43.08408166297869" lon="11.556413188468193"><ele>258.3333333333333</ele><time>2026-03-29T08:01:57.001Z</time></trkpt><trkpt lat="43.08421975626219" lon="11.5565502228621"><ele>261.66666666666663</ele><time>2026-03-29T08:01:58.001Z</time></trkpt><trkpt lat="43.0843536948613" lon="11.5567034658369"><ele>265.0</ele><time>2026-03-29T08:01:59.001Z</time></trkpt><trkpt lat="43.084460833021915" lon="11.556874849725833"><ele>267.66666666666663</ele><time>2026-03-29T08:02:00.001Z</time></trkpt><trkpt lat="43.084518239058696" lon="11.557048816170793"><ele>270.3333333333333</ele><time>2026-03-29T08:02:01.001Z</time></trkpt><trkpt lat="43.08454735603829" lon="11.55724812510084"><ele>273.0</ele><time>2026-03-29T08:02:02.001Z</time></trkpt><trkpt lat="43.0845849906136" lon="11.557480153002304"><ele>273.0</ele><time>2026-03-29T08:02:03.001Z</time></trkpt><trkpt lat="43.084561192513824" lon="11.557699229126987"><ele>273.0</ele><time>2026-03-29T08:02:04.001Z</time></trkpt><trkpt lat="43.08452301199505" lon="11.557908073498897"><ele>273.0</ele><time>2026-03-29T08:02:05.001Z</time></trkpt><trkpt lat="43.0844626498592" lon="11.558111474066393"><ele>274.6666666666667</ele><time>2026-03-29T08:02:06.001Z</time></trkpt><trkpt lat="43.08440208081345" lon="11.55832482550201"><ele>276.33333333333337</ele><time>2026-03-29T08:02:07.001Z</time></trkpt><trkpt lat="43.084350385736" lon="11.558529363988143"><ele>278.0</ele><time>2026-03-29T08:02:08.001Z</time></trkpt><trkpt lat="43.084332186972034" lon="11.558733067551511"><ele>278.75</ele><time>2026-03-29T08:02:09.001Z</time></trkpt><trkpt lat="43.08434796798246" lon="11.558929128389016"><ele>279.5</ele><time>2026-03-29T08:02:10.001Z</time></trkpt><trkpt lat="43.08437790709239" lon="11.559092977759855"><ele>280.25</ele><time>2026-03-29T08:02:11.002Z</time></trkpt><trkpt lat="43.084448285410545" lon="11.559228421512731"><ele>281.0</ele><time>2026-03-29T08:02:12.002Z</time></trkpt><trkpt lat="43.084573953322824" lon="11.559268267892064"><ele>281.0</ele><time>2026-03-29T08:02:13.002Z</time></trkpt><trkpt lat="43.08469685179034" lon="11.55928017321757"><ele>281.0</ele><time>2026-03-29T08:02:14.002Z</time></trkpt><trkpt lat="43.084788057927334" lon="11.559346879595857"><ele>281.0</ele><time>2026-03-29T08:02:15.002Z</time></trkpt><trkpt lat="43.084834774663136" lon="11.559437734917097"><ele>281.0</ele><time>2026-03-29T08:02:16.002Z</time></trkpt><trkpt lat="43.084830859967695" lon="11.559561367996695"><ele>281.0</ele><time>2026-03-29T08:02:17.002Z</time></trkpt><trkpt lat="43.08477499833134" lon="11.55973767588964"><ele>281.0</ele><time>2026-03-29T08:02:18.001Z</time></trkpt><trkpt lat="43.08476179515962" lon="11.559930816067663"><ele>281.0</ele><time>2026-03-29T08:02:19.001Z</time></trkpt><trkpt lat="43.084793756407045" lon="11.560080228170502"><ele>281.0</ele><time>2026-03-29T08:02:20.002Z</time></trkpt><trkpt lat="43.08488150852967" lon="11.560217611334753"><ele>281.0</ele><time>2026-03-29T08:02:21.002Z</time></trkpt><trkpt lat="43.08500532611799" lon="11.560326446662133"><ele>283.5</ele><time>2026-03-29T08:02:22.002Z</time></trkpt><trkpt lat="43.08510414382688" lon="11.5604590111688"><ele>286.0</ele><time>2026-03-29T08:02:23.002Z</time></trkpt><trkpt lat="43.085117791714076" lon="11.560599531567219"><ele>288.5</ele><time>2026-03-29T08:02:24.002Z</time></trkpt><trkpt lat="43.0850909345308" lon="11.560733569279863"><ele>291.0</ele><time>2026-03-29T08:02:25.002Z</time></trkpt><trkpt lat="43.08498678779054" lon="11.560845047132101"><ele>291.5</ele><time>2026-03-29T08:02:26.002Z</time></trkpt><trkpt lat="43.08486262245678" lon="11.56098249926991"><ele>292.0</ele><time>2026-03-29T08:02:27.002Z</time></trkpt><trkpt lat="43.08476868765732" lon="11.561078368608714"><ele>292.5</ele><time>2026-03-29T08:02:28.002Z</time></trkpt><trkpt lat="43.08475405453791" lon="11.561221360504222"><ele>293.0</ele><time>2026-03-29T08:02:29.002Z</time></trkpt><trkpt lat="43.084809031643566" lon="11.561389083435754"><ele>294.6666666666667</ele><time>2026-03-29T08:02:30.002Z</time></trkpt><trkpt lat="43.08488985641438" lon="11.561586089878018"><ele>296.3333333333333</ele><time>2026-03-29T08:02:31.002Z</time></trkpt><trkpt lat="43.084985635781464" lon="11.561800061670036"><ele>298.0</ele><time>2026-03-29T08:02:32.002Z</time></trkpt><trkpt lat="43.085051227621435" lon="11.562014779254222"><ele>298.75</ele><time>2026-03-29T08:02:33.002Z</time></trkpt><trkpt lat="43.08509920635156" lon="11.562205208244256"><ele>299.5</ele><time>2026-03-29T08:02:34.002Z</time></trkpt><trkpt lat="43.085105402425526" lon="11.562384023951585"><ele>300.25</ele><time>2026-03-29T08:02:35.002Z</time></trkpt><trkpt lat="43.0850587762869" lon="11.562554428333296"><ele>301.0</ele><time>2026-03-29T08:02:36.002Z</time></trkpt><trkpt lat="43.08496953482314" lon="11.562714654567806"><ele>300.66666666666663</ele><time>2026-03-29T08:02:37.002Z</time></trkpt><trkpt lat="43.08483050184688" lon="11.56282877623611"><ele>300.3333333333333</ele><time>2026-03-29T08:02:38.002Z</time></trkpt><trkpt lat="43.084661519138706" lon="11.562870022947273"><ele>300.0</ele><time>2026-03-29T08:02:39.002Z</time></trkpt><trkpt lat="43.08447170862994" lon="11.562857392385023"><ele>300.5</ele><time>2026-03-29T08:02:40.002Z</time></trkpt><trkpt lat="43.08424919446236" lon="11.562851358361927"><ele>301.0</ele><time>2026-03-29T08:02:41.002Z</time></trkpt><trkpt lat="43.084023999754464" lon="11.562895561320797"><ele>301.0</ele><time>2026-03-29T08:02:42.002Z</time></trkpt><trkpt lat="43.0838302102354" lon="11.562977226302372"><ele>301.0</ele><time>2026-03-29T08:02:43.002Z</time></trkpt><trkpt lat="43.08367097719154" lon="11.563100153148051"><ele>301.0</ele><time>2026-03-29T08:02:44.002Z</time></trkpt><trkpt lat="43.08353163567987" lon="11.56327700176566"><ele>301.0</ele><time>2026-03-29T08:02:45.002Z</time></trkpt><trkpt lat="43.083402758012504" lon="11.5635105127475"><ele>301.0</ele><time>2026-03-29T08:02:46.002Z</time></trkpt><trkpt lat="43.083277829870234" lon="11.563760359623208"><ele>301.0</ele><time>2026-03-29T08:02:47.002Z</time></trkpt><trkpt lat="43.08315739912421" lon="11.564027636441597"><ele>301.0</ele><time>2026-03-29T08:02:48.002Z</time></trkpt><trkpt lat="43.08304945480185" lon="11.564305476856827"><ele>301.0</ele><time>2026-03-29T08:02:49.002Z</time></trkpt><trkpt lat="43.08295391120475" lon="11.564594776513644"><ele>303.0</ele><time>2026-03-29T08:02:50.002Z</time></trkpt><trkpt lat="43.0828649086693" lon="11.56487345501114"><ele>305.0</ele><time>2026-03-29T08:02:51.002Z</time></trkpt><trkpt lat="43.082767687429836" lon="11.565142753265187"><ele>307.0</ele><time>2026-03-29T08:02:52.002Z</time></trkpt><trkpt lat="43.08263015787869" lon="11.565369062623548"><ele>307.3333333333333</ele><time>2026-03-29T08:02:53.002Z</time></trkpt><trkpt lat="43.082486631607395" lon="11.565591392427443"><ele>307.6666666666667</ele><time>2026-03-29T08:02:54.002Z</time></trkpt><trkpt lat="43.0823479412281" lon="11.565813571050052"><ele>308.0</ele><time>2026-03-29T08:02:55.002Z</time></trkpt><trkpt lat="43.08219750433443" lon="11.566033947080241"><ele>311.6666666666667</ele><time>2026-03-29T08:02:56.002Z</time></trkpt><trkpt lat="43.082059584767876" lon="11.566254158938415"><ele>315.3333333333333</ele><time>2026-03-29T08:02:57.002Z</time></trkpt><trkpt lat="43.08192716425793" lon="11.566471511776054"><ele>319.0</ele><time>2026-03-29T08:02:58.002Z</time></trkpt><trkpt lat="43.081804831223714" lon="11.56667834883608"><ele>319.0</ele><time>2026-03-29T08:02:59.002Z</time></trkpt><trkpt lat="43.081706429038704" lon="11.566882803711344"><ele>319.0</ele><time>2026-03-29T08:03:00.002Z</time></trkpt><trkpt lat="43.08163806400268" lon="11.567099557468008"><ele>319.0</ele><time>2026-03-29T08:03:01.002Z</time></trkpt><trkpt lat="43.08159159333083" lon="11.567329172149766"><ele>316.0</ele><time>2026-03-29T08:03:02.002Z</time></trkpt><trkpt lat="43.08156068356493" lon="11.56757056185527"><ele>313.0</ele><time>2026-03-29T08:03:03.002Z</time></trkpt><trkpt lat="43.08153734320786" lon="11.567829445144302"><ele>310.0</ele><time>2026-03-29T08:03:04.002Z</time></trkpt><trkpt lat="43.08152002804638" lon="11.568088429235061"><ele>310.0</ele><time>2026-03-29T08:03:05.002Z</time></trkpt><trkpt lat="43.081505232210304" lon="11.568347015222999"><ele>310.0</ele><time>2026-03-29T08:03:06.002Z</time></trkpt><trkpt lat="43.081462086136376" lon="11.568598946149372"><ele>310.0</ele><time>2026-03-29T08:03:07.002Z</time></trkpt><trkpt lat="43.08140150991667" lon="11.568855368080532"><ele>313.66666666666663</ele><time>2026-03-29T08:03:08.002Z</time></trkpt><trkpt lat="43.08131759290718" lon="11.56909800161971"><ele>317.3333333333333</ele><time>2026-03-29T08:03:09.002Z</time></trkpt><trkpt lat="43.081237311369996" lon="11.569326673828419"><ele>321.0</ele><time>2026-03-29T08:03:10.002Z</time></trkpt><trkpt lat="43.081169538004225" lon="11.569559741662216"><ele>324.6666666666667</ele><time>2026-03-29T08:03:11.002Z</time></trkpt><trkpt lat="43.081087925591206" lon="11.569760196338015"><ele>328.33333333333337</ele><time>2026-03-29T08:03:12.002Z</time></trkpt><trkpt lat="43.081002958060374" lon="11.569936216014955"><ele>332.0</ele><time>2026-03-29T08:03:13.002Z</time></trkpt><trkpt lat="43.08091038127988" lon="11.570081668291591"><ele>332.0</ele><time>2026-03-29T08:03:14.002Z</time></trkpt><trkpt lat="43.080798238019874" lon="11.570174022438191"><ele>332.0</ele><time>2026-03-29T08:03:15.002Z</time></trkpt><trkpt lat="43.080704025090625" lon="11.57024558570605"><ele>332.0</ele><time>2026-03-29T08:03:16.002Z</time></trkpt><trkpt lat="43.080607131060624" lon="11.570286286119355"><ele>332.0</ele><time>2026-03-29T08:03:17.002Z</time></trkpt><trkpt lat="43.08052341344119" lon="11.570302151792049"><ele>332.0</ele><time>2026-03-29T08:03:18.002Z</time></trkpt><trkpt lat="43.08044603044597" lon="11.570306906448371"><ele>334.0</ele><time>2026-03-29T08:03:19.002Z</time></trkpt><trkpt lat="43.08036194271693" lon="11.570387163326954"><ele>336.0</ele><time>2026-03-29T08:03:20.002Z</time></trkpt><trkpt lat="43.08026449369654" lon="11.57041682368029"><ele>338.0</ele><time>2026-03-29T08:03:21.002Z</time></trkpt><trkpt lat="43.08016206906077" lon="11.570442715640867"><ele>340.0</ele><time>2026-03-29T08:03:22.002Z</time></trkpt><trkpt lat="43.08005200824539" lon="11.570473859139446"><ele>342.0</ele><time>2026-03-29T08:03:23.002Z</time></trkpt><trkpt lat="43.07993905253636" lon="11.570505821788212"><ele>341.40000000000003</ele><time>2026-03-29T08:03:24.002Z</time></trkpt><trkpt lat="43.07983144406712" lon="11.570537772792864"><ele>340.8</ele><time>2026-03-29T08:03:25.002Z</time></trkpt><trkpt lat="43.07974421081321" lon="11.570577857170084"><ele>340.2</ele><time>2026-03-29T08:03:26.002Z</time></trkpt><trkpt lat="43.07969624656088" lon="11.57063583680955"><ele>339.6</ele><time>2026-03-29T08:03:27.002Z</time></trkpt><trkpt lat="43.079638638761665" lon="11.570691861080357"><ele>339.0</ele><time>2026-03-29T08:03:29.002Z</time></trkpt><trkpt lat="43.07971186806301" lon="11.570845993529135"><ele>339.0</ele><time>2026-03-29T08:03:30.002Z</time></trkpt><trkpt lat="43.07979342556669" lon="11.570863027847114"><ele>339.0</ele><time>2026-03-29T08:03:31.002Z</time></trkpt><trkpt lat="43.079861598624476" lon="11.570871057750677"><ele>339.0</ele><time>2026-03-29T08:03:32.002Z</time></trkpt><trkpt lat="43.07993226013702" lon="11.57085927788387"><ele>339.0</ele><time>2026-03-29T08:03:33.002Z</time></trkpt><trkpt lat="43.08001242955711" lon="11.570867127522579"><ele>339.0</ele><time>2026-03-29T08:03:34.002Z</time></trkpt><trkpt lat="43.08009464733833" lon="11.570915410833026"><ele>339.0</ele><time>2026-03-29T08:03:35.002Z</time></trkpt><trkpt lat="43.08018352840401" lon="11.570934578927218"><ele>338.6</ele><time>2026-03-29T08:03:36.002Z</time></trkpt><trkpt lat="43.08026825639354" lon="11.570992378453697"><ele>338.2</ele><time>2026-03-29T08:03:37.002Z</time></trkpt><trkpt lat="43.08036968795856" lon="11.571067683624957"><ele>337.8</ele><time>2026-03-29T08:03:38.002Z</time></trkpt><trkpt lat="43.08047042953148" lon="11.571136948859005"><ele>337.40000000000003</ele><time>2026-03-29T08:03:39.002Z</time></trkpt><trkpt lat="43.08057684052602" lon="11.571202988460449"><ele>337.0</ele><time>2026-03-29T08:03:40.002Z</time></trkpt><trkpt lat="43.08068873608017" lon="11.57127213488798"><ele>339.0</ele><time>2026-03-29T08:03:41.002Z</time></trkpt><trkpt lat="43.080799800795795" lon="11.571352711067313"><ele>341.0</ele><time>2026-03-29T08:03:42.002Z</time></trkpt><trkpt lat="43.080909585613625" lon="11.571437581681048"><ele>343.0</ele><time>2026-03-29T08:03:43.002Z</time></trkpt><trkpt lat="43.08102273542768" lon="11.571529245459166"><ele>345.0</ele><time>2026-03-29T08:03:44.002Z</time></trkpt><trkpt lat="43.08113875020507" lon="11.571618162714662"><ele>345.0</ele><time>2026-03-29T08:03:45.002Z</time></trkpt><trkpt lat="43.081244121150775" lon="11.571705986325668"><ele>345.0</ele><time>2026-03-29T08:03:46.002Z</time></trkpt><trkpt lat="43.08133001225191" lon="11.571818983564734"><ele>345.0</ele><time>2026-03-29T08:03:47.002Z</time></trkpt><trkpt lat="43.08142501469554" lon="11.571887071354494"><ele>345.0</ele><time>2026-03-29T08:03:48.002Z</time></trkpt><trkpt lat="43.081525133730565" lon="11.571952075388943"><ele>346.0</ele><time>2026-03-29T08:03:49.002Z</time></trkpt><trkpt lat="43.08161986188375" lon="11.572027293022524"><ele>347.0</ele><time>2026-03-29T08:03:50.002Z</time></trkpt><trkpt lat="43.08170794064413" lon="11.572125017047396"><ele>348.0</ele><time>2026-03-29T08:03:51.002Z</time></trkpt><trkpt lat="43.08179145447956" lon="11.57224633999307"><ele>349.0</ele><time>2026-03-29T08:03:52.002Z</time></trkpt><trkpt lat="43.08187058143837" lon="11.572393538898393"><ele>349.0</ele><time>2026-03-29T08:03:53.002Z</time></trkpt><trkpt lat="43.081947885405604" lon="11.572574775667897"><ele>349.0</ele><time>2026-03-29T08:03:54.002Z</time></trkpt><trkpt lat="43.08203416727298" lon="11.57277693188607"><ele>349.0</ele><time>2026-03-29T08:03:55.002Z</time></trkpt><trkpt lat="43.082135263497946" lon="11.5730161714798"><ele>350.0</ele><time>2026-03-29T08:03:56.002Z</time></trkpt><trkpt lat="43.082241840488265" lon="11.573266798439926"><ele>351.0</ele><time>2026-03-29T08:03:57.002Z</time></trkpt><trkpt lat="43.08234238521855" lon="11.57350455293913"><ele>352.0</ele><time>2026-03-29T08:03:58.002Z</time></trkpt><trkpt lat="43.08243486615684" lon="11.57372784140879"><ele>352.0</ele><time>2026-03-29T08:03:59.002Z</time></trkpt><trkpt lat="43.08252549609913" lon="11.57394510599612"><ele>352.0</ele><time>2026-03-29T08:04:00.002Z</time></trkpt><trkpt lat="43.08261815357954" lon="11.574159765623186"><ele>352.0</ele><time>2026-03-29T08:04:01.002Z</time></trkpt><trkpt lat="43.082707436748315" lon="11.574369925083166"><ele>350.3333333333333</ele><time>2026-03-29T08:04:02.002Z</time></trkpt><trkpt lat="43.08279650096773" lon="11.574587526393762"><ele>348.6666666666667</ele><time>2026-03-29T08:04:03.002Z</time></trkpt><trkpt lat="43.082888623952286" lon="11.57480805704266"><ele>347.0</ele><time>2026-03-29T08:04:04.002Z</time></trkpt><trkpt lat="43.08297951897931" lon="11.575025296426356"><ele>347.0</ele><time>2026-03-29T08:04:05.002Z</time></trkpt><trkpt lat="43.08306856026015" lon="11.575233339188832"><ele>347.0</ele><time>2026-03-29T08:04:06.002Z</time></trkpt><trkpt lat="43.08314955473371" lon="11.575427707812418"><ele>347.0</ele><time>2026-03-29T08:04:07.002Z</time></trkpt><trkpt lat="43.083234141124294" lon="11.575622171590979"><ele>348.0</ele><time>2026-03-29T08:04:08.002Z</time></trkpt><trkpt lat="43.08332283175142" lon="11.575818751607132"><ele>349.0</ele><time>2026-03-29T08:04:09.002Z</time></trkpt><trkpt lat="43.08341413595478" lon="11.576024259514368"><ele>350.0</ele><time>2026-03-29T08:04:10.002Z</time></trkpt><trkpt lat="43.08350446452001" lon="11.576236148258864"><ele>350.0</ele><time>2026-03-29T08:04:11.002Z</time></trkpt><trkpt lat="43.08358247599121" lon="11.576449236411033"><ele>350.0</ele><time>2026-03-29T08:04:12.002Z</time></trkpt><trkpt lat="43.08365346871347" lon="11.576672360742378"><ele>350.0</ele><time>2026-03-29T08:04:13.002Z</time></trkpt><trkpt lat="43.083717551558685" lon="11.57691798842724"><ele>350.0</ele><time>2026-03-29T08:04:14.002Z</time></trkpt><trkpt lat="43.083778749118" lon="11.577172389168311"><ele>350.0</ele><time>2026-03-29T08:04:15.002Z</time></trkpt><trkpt lat="43.08383604642113" lon="11.5774029885116"><ele>350.0</ele><time>2026-03-29T08:04:16.002Z</time></trkpt><trkpt lat="43.083889079527935" lon="11.577626475371408"><ele>350.0</ele><time>2026-03-29T08:04:17.002Z</time></trkpt><trkpt lat="43.08393980026046" lon="11.577853456979478"><ele>350.0</ele><time>2026-03-29T08:04:18.002Z</time></trkpt><trkpt lat="43.083987847716855" lon="11.578076658961354"><ele>350.0</ele><time>2026-03-29T08:04:19.002Z</time></trkpt><trkpt lat="43.0840334975565" lon="11.578294518595317"><ele>350.0</ele><time>2026-03-29T08:04:20.002Z</time></trkpt><trkpt lat="43.08407885874316" lon="11.578500544259128"><ele>350.0</ele><time>2026-03-29T08:04:21.002Z</time></trkpt><trkpt lat="43.084123047733954" lon="11.578697584619336"><ele>350.0</ele><time>2026-03-29T08:04:22.002Z</time></trkpt><trkpt lat="43.08417250822507" lon="11.57888962517001"><ele>353.0</ele><time>2026-03-29T08:04:23.002Z</time></trkpt><trkpt lat="43.08422868813718" lon="11.579059482340208"><ele>356.0</ele><time>2026-03-29T08:04:24.002Z</time></trkpt><trkpt lat="43.08428696251262" lon="11.579228869952152"><ele>359.0</ele><time>2026-03-29T08:04:25.002Z</time></trkpt><trkpt lat="43.084366869538194" lon="11.579405489158791"><ele>362.0</ele><time>2026-03-29T08:04:26.001Z</time></trkpt><trkpt lat="43.08449117004139" lon="11.57958328568801"><ele>364.6666666666667</ele><time>2026-03-29T08:04:27.002Z</time></trkpt><trkpt lat="43.0846077685148" lon="11.579773287701466"><ele>367.3333333333333</ele><time>2026-03-29T08:04:28.002Z</time></trkpt><trkpt lat="43.08471021054752" lon="11.57995699490765"><ele>370.0</ele><time>2026-03-29T08:04:29.002Z</time></trkpt><trkpt lat="43.084796796400774" lon="11.580131217767919"><ele>370.0</ele><time>2026-03-29T08:04:30.001Z</time></trkpt><trkpt lat="43.0848619878115" lon="11.580269704014087"><ele>370.0</ele><time>2026-03-29T08:04:31.001Z</time></trkpt><trkpt lat="43.08491048277785" lon="11.580386116450567"><ele>370.0</ele><time>2026-03-29T08:04:32.001Z</time></trkpt><trkpt lat="43.08495463270735" lon="11.580516060108621"><ele>370.0</ele><time>2026-03-29T08:04:33.001Z</time></trkpt><trkpt lat="43.08499521967758" lon="11.58069133355461"><ele>370.25</ele><time>2026-03-29T08:04:34.001Z</time></trkpt><trkpt lat="43.08504620804676" lon="11.580876262425512"><ele>370.5</ele><time>2026-03-29T08:04:35.001Z</time></trkpt><trkpt lat="43.08509271795975" lon="11.581059578987741"><ele>370.75</ele><time>2026-03-29T08:04:36.001Z</time></trkpt><trkpt lat="43.0851419846383" lon="11.581228523831411"><ele>371.0</ele><time>2026-03-29T08:04:37.001Z</time></trkpt><trkpt lat="43.08518266772391" lon="11.581382457438155"><ele>371.0</ele><time>2026-03-29T08:04:38.001Z</time></trkpt><trkpt lat="43.08522250727616" lon="11.581521252857685"><ele>371.0</ele><time>2026-03-29T08:04:39.001Z</time></trkpt><trkpt lat="43.08527026633728" lon="11.581642084203098"><ele>371.0</ele><time>2026-03-29T08:04:40.001Z</time></trkpt><trkpt lat="43.085332316089094" lon="11.581759771469045"><ele>371.0</ele><time>2026-03-29T08:04:41.001Z</time></trkpt><trkpt lat="43.085415056556535" lon="11.581882743003842"><ele>371.0</ele><time>2026-03-29T08:04:42.001Z</time></trkpt><trkpt lat="43.085506674746824" lon="11.582013804261042"><ele>371.8</ele><time>2026-03-29T08:04:43.001Z</time></trkpt><trkpt lat="43.085589089405076" lon="11.582146544538427"><ele>372.6</ele><time>2026-03-29T08:04:44.001Z</time></trkpt><trkpt lat="43.085666641359616" lon="11.582264208052623"><ele>373.4</ele><time>2026-03-29T08:04:45.001Z</time></trkpt><trkpt lat="43.08573492792254" lon="11.582377498105874"><ele>374.2</ele><time>2026-03-29T08:04:46.001Z</time></trkpt><trkpt lat="43.08577181905053" lon="11.582478714035036"><ele>375.0</ele><time>2026-03-29T08:04:47.001Z</time></trkpt><trkpt lat="43.0858163490957" lon="11.582556099437149"><ele>375.0</ele><time>2026-03-29T08:04:48.001Z</time></trkpt><trkpt lat="43.08586892244031" lon="11.582607829286731"><ele>375.0</ele><time>2026-03-29T08:04:49.001Z</time></trkpt><trkpt lat="43.085930116315645" lon="11.58267210340942"><ele>375.0</ele><time>2026-03-29T08:04:50.001Z</time></trkpt><trkpt lat="43.0860087568933" lon="11.582731526153976"><ele>375.0</ele><time>2026-03-29T08:04:51.001Z</time></trkpt><trkpt lat="43.08607820908696" lon="11.582812890929551"><ele>375.0</ele><time>2026-03-29T08:04:52.001Z</time></trkpt><trkpt lat="43.08615997617454" lon="11.582890221333825"><ele>375.0</ele><time>2026-03-29T08:04:53.001Z</time></trkpt><trkpt lat="43.086239733117324" lon="11.582965650514026"><ele>373.8</ele><time>2026-03-29T08:04:54.001Z</time></trkpt><trkpt lat="43.086320303607664" lon="11.583043437983386"><ele>372.6</ele><time>2026-03-29T08:04:55.001Z</time></trkpt><trkpt lat="43.086392224873016" lon="11.583113993643423"><ele>371.4</ele><time>2026-03-29T08:04:56.001Z</time></trkpt><trkpt lat="43.08646625128719" lon="11.583180056552772"><ele>370.2</ele><time>2026-03-29T08:04:57.001Z</time></trkpt><trkpt lat="43.08653790242973" lon="11.583254605822868"><ele>369.0</ele><time>2026-03-29T08:04:58.001Z</time></trkpt><trkpt lat="43.086610884343514" lon="11.583326242505532"><ele>369.0</ele><time>2026-03-29T08:04:59.001Z</time></trkpt><trkpt lat="43.086682977292" lon="11.583392272125227"><ele>369.0</ele><time>2026-03-29T08:05:00.001Z</time></trkpt><trkpt lat="43.08675260712917" lon="11.583458533426944"><ele>369.0</ele><time>2026-03-29T08:05:01.001Z</time></trkpt><trkpt lat="43.08683620989255" lon="11.58351233728118"><ele>369.0</ele><time>2026-03-29T08:05:02.001Z</time></trkpt><trkpt lat="43.086925157859284" lon="11.583575477582947"><ele>369.0</ele><time>2026-03-29T08:05:03.001Z</time></trkpt><trkpt lat="43.08700636273825" lon="11.583647117031374"><ele>365.0</ele><time>2026-03-29T08:05:04.001Z</time></trkpt><trkpt lat="43.087084746472456" lon="11.583710135731911"><ele>361.0</ele><time>2026-03-29T08:05:05.001Z</time></trkpt><trkpt lat="43.08716125076497" lon="11.583769075642099"><ele>357.0</ele><time>2026-03-29T08:05:06.001Z</time></trkpt><trkpt lat="43.08723907108689" lon="11.583830939637794"><ele>353.0</ele><time>2026-03-29T08:05:07.001Z</time></trkpt><trkpt lat="43.08731835669509" lon="11.583898500064377"><ele>349.0</ele><time>2026-03-29T08:05:08.001Z</time></trkpt><trkpt lat="43.087406256093566" lon="11.583972390212288"><ele>350.2</ele><time>2026-03-29T08:05:09.001Z</time></trkpt><trkpt lat="43.0874975549272" lon="11.58405112515168"><ele>351.4</ele><time>2026-03-29T08:05:10.001Z</time></trkpt><trkpt lat="43.08759242519603" lon="11.584133925422083"><ele>352.6</ele><time>2026-03-29T08:05:11.001Z</time></trkpt><trkpt lat="43.087691290152094" lon="11.584209211000198"><ele>353.8</ele><time>2026-03-29T08:05:12.001Z</time></trkpt><trkpt lat="43.08778554149588" lon="11.58428402367937"><ele>355.0</ele><time>2026-03-29T08:05:13.001Z</time></trkpt><trkpt lat="43.087878865674504" lon="11.584344285336686"><ele>355.0</ele><time>2026-03-29T08:05:14.001Z</time></trkpt><trkpt lat="43.08797472312644" lon="11.584410336851244"><ele>355.0</ele><time>2026-03-29T08:05:15.001Z</time></trkpt><trkpt lat="43.08806780668143" lon="11.58447186868344"><ele>355.0</ele><time>2026-03-29T08:05:16.001Z</time></trkpt><trkpt lat="43.08814706025966" lon="11.584553122962934"><ele>355.0</ele><time>2026-03-29T08:05:17.001Z</time></trkpt><trkpt lat="43.08824657078677" lon="11.584621337691429"><ele>355.0</ele><time>2026-03-29T08:05:18.001Z</time></trkpt><trkpt lat="43.088333542504216" lon="11.584680811641967"><ele>356.0</ele><time>2026-03-29T08:05:19.001Z</time></trkpt><trkpt lat="43.08841464265121" lon="11.584737086299365"><ele>357.0</ele><time>2026-03-29T08:05:20.001Z</time></trkpt><trkpt lat="43.08849833153386" lon="11.584787148883557"><ele>358.0</ele><time>2026-03-29T08:05:21.001Z</time></trkpt><trkpt lat="43.08859049763466" lon="11.58484108949509"><ele>359.0</ele><time>2026-03-29T08:05:22.001Z</time></trkpt><trkpt lat="43.08867807029688" lon="11.584905324508215"><ele>360.0</ele><time>2026-03-29T08:05:23.001Z</time></trkpt><trkpt lat="43.08877889374705" lon="11.584978855826925"><ele>360.0</ele><time>2026-03-29T08:05:24.001Z</time></trkpt><trkpt lat="43.0888769412739" lon="11.585060732684905"><ele>360.0</ele><time>2026-03-29T08:05:25.001Z</time></trkpt><trkpt lat="43.08898816301054" lon="11.585152876862164"><ele>360.0</ele><time>2026-03-29T08:05:26.001Z</time></trkpt><trkpt lat="43.089097554289815" lon="11.585241987722137"><ele>360.0</ele><time>2026-03-29T08:05:27.001Z</time></trkpt><trkpt lat="43.08919708295257" lon="11.585337380874856"><ele>362.5</ele><time>2026-03-29T08:05:28.001Z</time></trkpt><trkpt lat="43.08929848818797" lon="11.585433474533481"><ele>365.0</ele><time>2026-03-29T08:05:29.001Z</time></trkpt><trkpt lat="43.08939855075773" lon="11.585527996542602"><ele>367.5</ele><time>2026-03-29T08:05:30.001Z</time></trkpt><trkpt lat="43.08949429173117" lon="11.585607570780041"><ele>370.0</ele><time>2026-03-29T08:05:31.001Z</time></trkpt><trkpt lat="43.08959866754783" lon="11.585685016143689"><ele>370.0</ele><time>2026-03-29T08:05:32.001Z</time></trkpt><trkpt lat="43.08971379837601" lon="11.585783412949455"><ele>370.0</ele><time>2026-03-29T08:05:33.001Z</time></trkpt><trkpt lat="43.089820030104526" lon="11.585880339262914"><ele>370.0</ele><time>2026-03-29T08:05:34.001Z</time></trkpt><trkpt lat="43.089908350742284" lon="11.585959558628497"><ele>370.0</ele><time>2026-03-29T08:05:35.001Z</time></trkpt><trkpt lat="43.0899863386898" lon="11.586027974197938"><ele>368.8</ele><time>2026-03-29T08:05:36.001Z</time></trkpt><trkpt lat="43.0900570587731" lon="11.58610117685558"><ele>367.6</ele><time>2026-03-29T08:05:37.001Z</time></trkpt><trkpt lat="43.090124530910494" lon="11.586173670659923"><ele>366.4</ele><time>2026-03-29T08:05:38.001Z</time></trkpt><trkpt lat="43.09018705223929" lon="11.586267358112712"><ele>365.2</ele><time>2026-03-29T08:05:39.001Z</time></trkpt><trkpt lat="43.09024906151994" lon="11.586376649157067"><ele>364.0</ele><time>2026-03-29T08:05:40.001Z</time></trkpt><trkpt lat="43.090321550691506" lon="11.586537941073592"><ele>368.66666666666663</ele><time>2026-03-29T08:05:41.001Z</time></trkpt><trkpt lat="43.090402527447175" lon="11.586711125600033"><ele>373.3333333333333</ele><time>2026-03-29T08:05:42.001Z</time></trkpt><trkpt lat="43.09048952348656" lon="11.586882678672692"><ele>378.0</ele><time>2026-03-29T08:05:43.001Z</time></trkpt><trkpt lat="43.090579601065244" lon="11.58705835814569"><ele>379.5</ele><time>2026-03-29T08:05:44.001Z</time></trkpt><trkpt lat="43.09066075302312" lon="11.58722269722224"><ele>381.0</ele><time>2026-03-29T08:05:45.001Z</time></trkpt><trkpt lat="43.090730309076605" lon="11.587393895601185"><ele>382.5</ele><time>2026-03-29T08:05:46.001Z</time></trkpt><trkpt lat="43.09081598595184" lon="11.587547261265058"><ele>384.0</ele><time>2026-03-29T08:05:47.001Z</time></trkpt><trkpt lat="43.09090929248856" lon="11.587673105461722"><ele>380.5</ele><time>2026-03-29T08:05:48.001Z</time></trkpt><trkpt lat="43.09101466838271" lon="11.587764478162313"><ele>377.0</ele><time>2026-03-29T08:05:49.001Z</time></trkpt><trkpt lat="43.0911369481693" lon="11.587846047448615"><ele>373.5</ele><time>2026-03-29T08:05:50.001Z</time></trkpt><trkpt lat="43.09128712402777" lon="11.587931979708689"><ele>370.0</ele><time>2026-03-29T08:05:51.001Z</time></trkpt><trkpt lat="43.09144090182885" lon="11.588020989633705"><ele>370.0</ele><time>2026-03-29T08:05:52.001Z</time></trkpt><trkpt lat="43.09157845488302" lon="11.588106797581075"><ele>370.0</ele><time>2026-03-29T08:05:53.001Z</time></trkpt><trkpt lat="43.09170410522668" lon="11.588195595557508"><ele>370.0</ele><time>2026-03-29T08:05:54.001Z</time></trkpt><trkpt lat="43.09182986253151" lon="11.588285538030924"><ele>370.0</ele><time>2026-03-29T08:05:55.001Z</time></trkpt><trkpt lat="43.09195199259689" lon="11.588363708089544"><ele>369.0</ele><time>2026-03-29T08:05:56.001Z</time></trkpt><trkpt lat="43.092071585671206" lon="11.588436559396966"><ele>368.0</ele><time>2026-03-29T08:05:57.001Z</time></trkpt><trkpt lat="43.09218561620768" lon="11.588504991214911"><ele>367.0</ele><time>2026-03-29T08:05:58.001Z</time></trkpt><trkpt lat="43.09228251901132" lon="11.588566316785938"><ele>366.0</ele><time>2026-03-29T08:05:59.001Z</time></trkpt><trkpt lat="43.092365522939076" lon="11.58861934760683"><ele>364.6</ele><time>2026-03-29T08:06:00.001Z</time></trkpt><trkpt lat="43.092434928093766" lon="11.588671352385669"><ele>363.20000000000005</ele><time>2026-03-29T08:06:01.001Z</time></trkpt><trkpt lat="43.092494154290335" lon="11.588715999763064"><ele>361.79999999999995</ele><time>2026-03-29T08:06:02.001Z</time></trkpt><trkpt lat="43.09260408740556" lon="11.588791718506686"><ele>360.4</ele><time>2026-03-29T08:06:04.001Z</time></trkpt><trkpt lat="43.092708408879" lon="11.588888139385894"><ele>359.0</ele><time>2026-03-29T08:06:06.001Z</time></trkpt><trkpt lat="43.09276477989374" lon="11.588948963039002"><ele>358.79999999999995</ele><time>2026-03-29T08:06:07.001Z</time></trkpt><trkpt lat="43.09283486377972" lon="11.589023486090921"><ele>358.59999999999997</ele><time>2026-03-29T08:06:08.001Z</time></trkpt><trkpt lat="43.092918074802505" lon="11.589116933377019"><ele>358.4</ele><time>2026-03-29T08:06:09.001Z</time></trkpt><trkpt lat="43.093000117222125" lon="11.589230943710453"><ele>358.2</ele><time>2026-03-29T08:06:10.001Z</time></trkpt><trkpt lat="43.09308086077149" lon="11.589351920499706"><ele>358.0</ele><time>2026-03-29T08:06:11.001Z</time></trkpt><trkpt lat="43.093159848970465" lon="11.589483958359192"><ele>355.75</ele><time>2026-03-29T08:06:12.001Z</time></trkpt><trkpt lat="43.093234823576395" lon="11.589637185597569"><ele>353.5</ele><time>2026-03-29T08:06:13.001Z</time></trkpt><trkpt lat="43.09330462455479" lon="11.589794811935421"><ele>351.25</ele><time>2026-03-29T08:06:14.001Z</time></trkpt><trkpt lat="43.09336850810505" lon="11.589943021903553"><ele>349.0</ele><time>2026-03-29T08:06:15.001Z</time></trkpt><trkpt lat="43.09343413376152" lon="11.590094217657272"><ele>348.75</ele><time>2026-03-29T08:06:16.001Z</time></trkpt><trkpt lat="43.09351207541287" lon="11.590226243132328"><ele>348.5</ele><time>2026-03-29T08:06:17.001Z</time></trkpt><trkpt lat="43.09360485059579" lon="11.590348182337513"><ele>348.25</ele><time>2026-03-29T08:06:18.001Z</time></trkpt><trkpt lat="43.09371060038154" lon="11.59047036412701"><ele>348.0</ele><time>2026-03-29T08:06:19.001Z</time></trkpt><trkpt lat="43.09383100660697" lon="11.590582232194997"><ele>348.75</ele><time>2026-03-29T08:06:20.001Z</time></trkpt><trkpt lat="43.093965429219" lon="11.590691593125754"><ele>349.5</ele><time>2026-03-29T08:06:21.001Z</time></trkpt><trkpt lat="43.09408282156241" lon="11.590806582497926"><ele>350.25</ele><time>2026-03-29T08:06:22.001Z</time></trkpt><trkpt lat="43.09419299808865" lon="11.59090677310898"><ele>351.0</ele><time>2026-03-29T08:06:23.002Z</time></trkpt><trkpt lat="43.094287221510235" lon="11.591010727891227"><ele>351.0</ele><time>2026-03-29T08:06:24.002Z</time></trkpt><trkpt lat="43.09436944009373" lon="11.59112377401944"><ele>351.0</ele><time>2026-03-29T08:06:25.002Z</time></trkpt><trkpt lat="43.094435638675385" lon="11.591253553737129"><ele>351.0</ele><time>2026-03-29T08:06:26.002Z</time></trkpt><trkpt lat="43.09447904952202" lon="11.591416716570262"><ele>351.0</ele><time>2026-03-29T08:06:27.002Z</time></trkpt><trkpt lat="43.09452349867383" lon="11.591607870417343"><ele>346.3333333333333</ele><time>2026-03-29T08:06:28.002Z</time></trkpt><trkpt lat="43.0945867189658" lon="11.591812449753911"><ele>341.66666666666663</ele><time>2026-03-29T08:06:29.002Z</time></trkpt><trkpt lat="43.09466906652076" lon="11.592013795841423"><ele>337.0</ele><time>2026-03-29T08:06:30.002Z</time></trkpt><trkpt lat="43.09476558841014" lon="11.592238070651034"><ele>335.0</ele><time>2026-03-29T08:06:31.002Z</time></trkpt><trkpt lat="43.09486565437039" lon="11.592458486444734"><ele>333.0</ele><time>2026-03-29T08:06:32.002Z</time></trkpt><trkpt lat="43.09494837634986" lon="11.592667509553856"><ele>331.0</ele><time>2026-03-29T08:06:33.002Z</time></trkpt><trkpt lat="43.09503588378487" lon="11.592870859033743"><ele>335.0</ele><time>2026-03-29T08:06:34.002Z</time></trkpt><trkpt lat="43.09512112353358" lon="11.593065265843912"><ele>339.0</ele><time>2026-03-29T08:06:35.002Z</time></trkpt><trkpt lat="43.09520671968822" lon="11.593256908436205"><ele>343.0</ele><time>2026-03-29T08:06:36.002Z</time></trkpt><trkpt lat="43.09528305895231" lon="11.593441080961359"><ele>343.0</ele><time>2026-03-29T08:06:37.002Z</time></trkpt><trkpt lat="43.09535733245648" lon="11.59362672180998"><ele>343.0</ele><time>2026-03-29T08:06:38.002Z</time></trkpt><trkpt lat="43.09542925624022" lon="11.593814468815106"><ele>343.0</ele><time>2026-03-29T08:06:39.002Z</time></trkpt><trkpt lat="43.09549616763598" lon="11.593989236899626"><ele>340.75</ele><time>2026-03-29T08:06:40.002Z</time></trkpt><trkpt lat="43.09556628977382" lon="11.594150578559292"><ele>338.5</ele><time>2026-03-29T08:06:41.002Z</time></trkpt><trkpt lat="43.095629962020986" lon="11.594299917880008"><ele>336.25</ele><time>2026-03-29T08:06:42.002Z</time></trkpt><trkpt lat="43.09568511974255" lon="11.594429222319956"><ele>334.0</ele><time>2026-03-29T08:06:43.002Z</time></trkpt><trkpt lat="43.095729785981554" lon="11.594553294256386"><ele>336.6</ele><time>2026-03-29T08:06:44.002Z</time></trkpt><trkpt lat="43.09577610962581" lon="11.594676836491796"><ele>339.2</ele><time>2026-03-29T08:06:45.002Z</time></trkpt><trkpt lat="43.09583382549927" lon="11.594773609983946"><ele>341.8</ele><time>2026-03-29T08:06:46.002Z</time></trkpt><trkpt lat="43.09591139472499" lon="11.594855072281183"><ele>344.40000000000003</ele><time>2026-03-29T08:06:47.002Z</time></trkpt><trkpt lat="43.09600309343747" lon="11.59491353994133"><ele>347.0</ele><time>2026-03-29T08:06:48.002Z</time></trkpt><trkpt lat="43.09609031954366" lon="11.594990978272849"><ele>347.0</ele><time>2026-03-29T08:06:49.002Z</time></trkpt><trkpt lat="43.09617717398794" lon="11.595076967548614"><ele>347.0</ele><time>2026-03-29T08:06:50.002Z</time></trkpt><trkpt lat="43.09626272145062" lon="11.595152134032361"><ele>347.0</ele><time>2026-03-29T08:06:51.002Z</time></trkpt><trkpt lat="43.09633417871527" lon="11.5952621209642"><ele>347.0</ele><time>2026-03-29T08:06:52.002Z</time></trkpt><trkpt lat="43.09639788369132" lon="11.595414956013697"><ele>347.0</ele><time>2026-03-29T08:06:53.002Z</time></trkpt><trkpt lat="43.09645329735628" lon="11.595571111430917"><ele>346.75</ele><time>2026-03-29T08:06:54.002Z</time></trkpt><trkpt lat="43.09649605595107" lon="11.595713557921945"><ele>346.5</ele><time>2026-03-29T08:06:55.002Z</time></trkpt><trkpt lat="43.09653014224427" lon="11.595844806436512"><ele>346.25</ele><time>2026-03-29T08:06:56.002Z</time></trkpt><trkpt lat="43.096568637975494" lon="11.595994752404735"><ele>346.0</ele><time>2026-03-29T08:06:57.002Z</time></trkpt><trkpt lat="43.096610332079244" lon="11.596191477012479"><ele>348.75</ele><time>2026-03-29T08:06:58.002Z</time></trkpt><trkpt lat="43.0966631093375" lon="11.59639090157657"><ele>351.5</ele><time>2026-03-29T08:06:59.002Z</time></trkpt><trkpt lat="43.096705437909506" lon="11.596564423567528"><ele>354.25</ele><time>2026-03-29T08:07:00.002Z</time></trkpt><trkpt lat="43.09674156158436" lon="11.596717155308406"><ele>357.0</ele><time>2026-03-29T08:07:01.002Z</time></trkpt><trkpt lat="43.0967728819819" lon="11.596860665151407"><ele>357.0</ele><time>2026-03-29T08:07:02.002Z</time></trkpt><trkpt lat="43.096804968555325" lon="11.596982655914974"><ele>357.0</ele><time>2026-03-29T08:07:03.002Z</time></trkpt><trkpt lat="43.09683651443495" lon="11.597098148248211"><ele>357.0</ele><time>2026-03-29T08:07:04.002Z</time></trkpt><trkpt lat="43.09687329648604" lon="11.597185271356135"><ele>357.0</ele><time>2026-03-29T08:07:05.002Z</time></trkpt><trkpt lat="43.09691586800696" lon="11.59725859350547"><ele>357.0</ele><time>2026-03-29T08:07:06.002Z</time></trkpt><trkpt lat="43.09698802048597" lon="11.597305981927121"><ele>357.0</ele><time>2026-03-29T08:07:07.002Z</time></trkpt><trkpt lat="43.097069903600236" lon="11.59734377244305"><ele>357.5</ele><time>2026-03-29T08:07:08.002Z</time></trkpt><trkpt lat="43.09717075933204" lon="11.597393534405407"><ele>358.0</ele><time>2026-03-29T08:07:09.002Z</time></trkpt><trkpt lat="43.09727212096082" lon="11.597473593159972"><ele>358.5</ele><time>2026-03-29T08:07:10.002Z</time></trkpt><trkpt lat="43.09736661576872" lon="11.597588596903758"><ele>359.0</ele><time>2026-03-29T08:07:11.002Z</time></trkpt><trkpt lat="43.09746377016981" lon="11.597732966527328"><ele>362.33333333333337</ele><time>2026-03-29T08:07:12.002Z</time></trkpt><trkpt lat="43.09757583187809" lon="11.597920651060564"><ele>365.6666666666667</ele><time>2026-03-29T08:07:13.002Z</time></trkpt><trkpt lat="43.09767853771083" lon="11.59808390537504"><ele>369.0</ele><time>2026-03-29T08:07:14.002Z</time></trkpt><trkpt lat="43.097770686031836" lon="11.59822896919933"><ele>369.0</ele><time>2026-03-29T08:07:15.002Z</time></trkpt><trkpt lat="43.09784651379753" lon="11.59835645327709"><ele>369.0</ele><time>2026-03-29T08:07:16.002Z</time></trkpt><trkpt lat="43.09790800588965" lon="11.598468206199476"><ele>369.0</ele><time>2026-03-29T08:07:17.002Z</time></trkpt><trkpt lat="43.097978529739734" lon="11.598539898041153"><ele>369.0</ele><time>2026-03-29T08:07:18.002Z</time></trkpt><trkpt lat="43.09804259233962" lon="11.598594733700558"><ele>369.0</ele><time>2026-03-29T08:07:19.002Z</time></trkpt><trkpt lat="43.09811789855101" lon="11.598623924664691"><ele>369.0</ele><time>2026-03-29T08:07:20.002Z</time></trkpt><trkpt lat="43.098212277752744" lon="11.59860044915196"><ele>369.0</ele><time>2026-03-29T08:07:21.002Z</time></trkpt><trkpt lat="43.09831854525587" lon="11.59855016566421"><ele>369.0</ele><time>2026-03-29T08:07:22.002Z</time></trkpt><trkpt lat="43.098415033509255" lon="11.598473741923605"><ele>369.0</ele><time>2026-03-29T08:07:23.002Z</time></trkpt><trkpt lat="43.098468256118196" lon="11.598387615761377"><ele>369.0</ele><time>2026-03-29T08:07:24.002Z</time></trkpt><trkpt lat="43.09850386660276" lon="11.59826935286097"><ele>368.5</ele><time>2026-03-29T08:07:25.002Z</time></trkpt><trkpt lat="43.09852758537226" lon="11.598116549880595"><ele>368.0</ele><time>2026-03-29T08:07:26.002Z</time></trkpt><trkpt lat="43.09855675075335" lon="11.597907904474534"><ele>367.5</ele><time>2026-03-29T08:07:27.002Z</time></trkpt><trkpt lat="43.09861651334388" lon="11.597735285649321"><ele>367.0</ele><time>2026-03-29T08:07:28.002Z</time></trkpt><trkpt lat="43.098657008090804" lon="11.5975930280739"><ele>366.16666666666663</ele><time>2026-03-29T08:07:29.002Z</time></trkpt><trkpt lat="43.098694806307094" lon="11.597495855654282"><ele>365.3333333333333</ele><time>2026-03-29T08:07:30.002Z</time></trkpt><trkpt lat="43.09874871806778" lon="11.59742298681212"><ele>364.5</ele><time>2026-03-29T08:07:31.002Z</time></trkpt><trkpt lat="43.0988176861351" lon="11.597372541377354"><ele>363.6666666666667</ele><time>2026-03-29T08:07:32.002Z</time></trkpt><trkpt lat="43.09888991738124" lon="11.597370933485466"><ele>362.83333333333337</ele><time>2026-03-29T08:07:33.002Z</time></trkpt><trkpt lat="43.09899603216607" lon="11.597427720759308"><ele>362.0</ele><time>2026-03-29T08:07:34.002Z</time></trkpt><trkpt lat="43.09908041949287" lon="11.597497967114032"><ele>360.6666666666667</ele><time>2026-03-29T08:07:35.002Z</time></trkpt><trkpt lat="43.09918601976229" lon="11.597607914208796"><ele>359.3333333333333</ele><time>2026-03-29T08:07:36.002Z</time></trkpt><trkpt lat="43.0992915710146" lon="11.597766429841203"><ele>358.0</ele><time>2026-03-29T08:07:37.002Z</time></trkpt><trkpt lat="43.09941224743145" lon="11.597934278662159"><ele>360.66666666666663</ele><time>2026-03-29T08:07:38.002Z</time></trkpt><trkpt lat="43.099529515973856" lon="11.598127513510827"><ele>363.3333333333333</ele><time>2026-03-29T08:07:39.002Z</time></trkpt><trkpt lat="43.09964082247327" lon="11.59831221478054"><ele>366.0</ele><time>2026-03-29T08:07:40.002Z</time></trkpt><trkpt lat="43.099745531428816" lon="11.598475868262687"><ele>366.0</ele><time>2026-03-29T08:07:41.002Z</time></trkpt><trkpt lat="43.099844000260866" lon="11.598635852069503"><ele>366.0</ele><time>2026-03-29T08:07:42.002Z</time></trkpt><trkpt lat="43.09992459030664" lon="11.598788997526928"><ele>366.0</ele><time>2026-03-29T08:07:43.002Z</time></trkpt><trkpt lat="43.10001186428742" lon="11.59893112948513"><ele>366.0</ele><time>2026-03-29T08:07:44.002Z</time></trkpt><trkpt lat="43.10009605005486" lon="11.59904654972824"><ele>363.6</ele><time>2026-03-29T08:07:45.002Z</time></trkpt><trkpt lat="43.10018252742159" lon="11.599135994054741"><ele>361.20000000000005</ele><time>2026-03-29T08:07:46.002Z</time></trkpt><trkpt lat="43.10027460017308" lon="11.599196958514941"><ele>358.79999999999995</ele><time>2026-03-29T08:07:47.002Z</time></trkpt><trkpt lat="43.10036797528004" lon="11.599236001013866"><ele>356.4</ele><time>2026-03-29T08:07:48.002Z</time></trkpt><trkpt lat="43.10048161325745" lon="11.599257581322059"><ele>354.0</ele><time>2026-03-29T08:07:49.002Z</time></trkpt><trkpt lat="43.10060985912266" lon="11.599266966991564"><ele>354.0</ele><time>2026-03-29T08:07:50.002Z</time></trkpt><trkpt lat="43.100715166648015" lon="11.599253105760166"><ele>354.0</ele><time>2026-03-29T08:07:51.002Z</time></trkpt><trkpt lat="43.10081463832755" lon="11.599239850939878"><ele>354.0</ele><time>2026-03-29T08:07:52.002Z</time></trkpt><trkpt lat="43.10091617068151" lon="11.59923668426133"><ele>354.0</ele><time>2026-03-29T08:07:53.002Z</time></trkpt><trkpt lat="43.1010169145105" lon="11.599217792089814"><ele>354.0</ele><time>2026-03-29T08:07:54.002Z</time></trkpt><trkpt lat="43.10111735579722" lon="11.599208568435019"><ele>353.0</ele><time>2026-03-29T08:07:55.002Z</time></trkpt><trkpt lat="43.101216548306056" lon="11.599212239585363"><ele>352.0</ele><time>2026-03-29T08:07:56.002Z</time></trkpt><trkpt lat="43.10131295772672" lon="11.599229920008842"><ele>351.0</ele><time>2026-03-29T08:07:57.002Z</time></trkpt><trkpt lat="43.10140020266128" lon="11.599263546905167"><ele>350.0</ele><time>2026-03-29T08:07:58.002Z</time></trkpt><trkpt lat="43.101483366959044" lon="11.599306763708729"><ele>349.0</ele><time>2026-03-29T08:07:59.002Z</time></trkpt><trkpt lat="43.101564759984306" lon="11.599361683359675"><ele>349.6</ele><time>2026-03-29T08:08:00.002Z</time></trkpt><trkpt lat="43.101644986543484" lon="11.599430526511885"><ele>350.2</ele><time>2026-03-29T08:08:01.002Z</time></trkpt><trkpt lat="43.101719292797014" lon="11.5995070439987"><ele>350.8</ele><time>2026-03-29T08:08:02.002Z</time></trkpt><trkpt lat="43.10179583801492" lon="11.599594426212336"><ele>351.40000000000003</ele><time>2026-03-29T08:08:03.002Z</time></trkpt><trkpt lat="43.10186555080469" lon="11.599692906220472"><ele>352.0</ele><time>2026-03-29T08:08:04.002Z</time></trkpt><trkpt lat="43.10192821486315" lon="11.599807801438656"><ele>352.0</ele><time>2026-03-29T08:08:05.002Z</time></trkpt><trkpt lat="43.10199509427533" lon="11.599950823416549"><ele>352.0</ele><time>2026-03-29T08:08:06.002Z</time></trkpt><trkpt lat="43.102056247651156" lon="11.600099909930373"><ele>352.0</ele><time>2026-03-29T08:08:07.002Z</time></trkpt><trkpt lat="43.10212401073306" lon="11.600243505860481"><ele>352.0</ele><time>2026-03-29T08:08:08.002Z</time></trkpt><trkpt lat="43.102194986474785" lon="11.600391840556583"><ele>350.20000000000005</ele><time>2026-03-29T08:08:09.002Z</time></trkpt><trkpt lat="43.102264572406156" lon="11.600526922538867"><ele>348.4</ele><time>2026-03-29T08:08:10.002Z</time></trkpt><trkpt lat="43.10232019171288" lon="11.600648701255402"><ele>346.6</ele><time>2026-03-29T08:08:11.002Z</time></trkpt><trkpt lat="43.10236574899774" lon="11.600759111790325"><ele>344.79999999999995</ele><time>2026-03-29T08:08:12.002Z</time></trkpt><trkpt lat="43.102410838117805" lon="11.600849289475216"><ele>343.0</ele><time>2026-03-29T08:08:13.002Z</time></trkpt><trkpt lat="43.10246298012441" lon="11.60093533907404"><ele>346.16666666666663</ele><time>2026-03-29T08:08:14.002Z</time></trkpt><trkpt lat="43.102526502583586" lon="11.60100807135486"><ele>349.3333333333333</ele><time>2026-03-29T08:08:15.002Z</time></trkpt><trkpt lat="43.102592949143705" lon="11.601059464230987"><ele>352.5</ele><time>2026-03-29T08:08:16.002Z</time></trkpt><trkpt lat="43.10265734904861" lon="11.601085544367756"><ele>355.6666666666667</ele><time>2026-03-29T08:08:17.002Z</time></trkpt><trkpt lat="43.102726735369544" lon="11.601074308999337"><ele>358.83333333333337</ele><time>2026-03-29T08:08:18.002Z</time></trkpt><trkpt lat="43.102799340423914" lon="11.601041919296081"><ele>362.0</ele><time>2026-03-29T08:08:19.002Z</time></trkpt><trkpt lat="43.102865903953216" lon="11.600981791001889"><ele>362.0</ele><time>2026-03-29T08:08:20.002Z</time></trkpt><trkpt lat="43.102925689746826" lon="11.600904560739085"><ele>362.0</ele><time>2026-03-29T08:08:21.002Z</time></trkpt><trkpt lat="43.10301161135878" lon="11.600799295711383"><ele>362.0</ele><time>2026-03-29T08:08:22.002Z</time></trkpt><trkpt lat="43.10309742762725" lon="11.600670556036597"><ele>362.0</ele><time>2026-03-29T08:08:23.002Z</time></trkpt><trkpt lat="43.103191654486075" lon="11.600564071257688"><ele>362.0</ele><time>2026-03-29T08:08:24.002Z</time></trkpt><trkpt lat="43.10327862633765" lon="11.600494782540068"><ele>362.25</ele><time>2026-03-29T08:08:25.002Z</time></trkpt><trkpt lat="43.10337377415581" lon="11.600468522007795"><ele>362.5</ele><time>2026-03-29T08:08:26.002Z</time></trkpt><trkpt lat="43.10347555166254" lon="11.60048435411212"><ele>362.75</ele><time>2026-03-29T08:08:27.002Z</time></trkpt><trkpt lat="43.103601410997626" lon="11.600501633312645"><ele>363.0</ele><time>2026-03-29T08:08:28.002Z</time></trkpt><trkpt lat="43.10374040831184" lon="11.60052741696403"><ele>363.0</ele><time>2026-03-29T08:08:29.002Z</time></trkpt><trkpt lat="43.1038922922693" lon="11.600554428282075"><ele>363.0</ele><time>2026-03-29T08:08:30.002Z</time></trkpt><trkpt lat="43.10407037714892" lon="11.600582737911424"><ele>363.0</ele><time>2026-03-29T08:08:31.002Z</time></trkpt><trkpt lat="43.104251131204194" lon="11.600611473632295"><ele>363.6666666666667</ele><time>2026-03-29T08:08:32.002Z</time></trkpt><trkpt lat="43.10442863981621" lon="11.600643423483"><ele>364.33333333333337</ele><time>2026-03-29T08:08:33.002Z</time></trkpt><trkpt lat="43.10461758574111" lon="11.600672227731936"><ele>365.0</ele><time>2026-03-29T08:08:34.002Z</time></trkpt><trkpt lat="43.104786687963205" lon="11.600694826786935"><ele>365.5</ele><time>2026-03-29T08:08:35.002Z</time></trkpt><trkpt lat="43.10493865016752" lon="11.600726670890348"><ele>366.0</ele><time>2026-03-29T08:08:36.002Z</time></trkpt><trkpt lat="43.10507738276058" lon="11.600754491754856"><ele>366.5</ele><time>2026-03-29T08:08:37.002Z</time></trkpt><trkpt lat="43.10520513212986" lon="11.600764505060981"><ele>367.0</ele><time>2026-03-29T08:08:38.002Z</time></trkpt><trkpt lat="43.10533057404502" lon="11.60075185370298"><ele>367.0</ele><time>2026-03-29T08:08:39.002Z</time></trkpt><trkpt lat="43.10546102749511" lon="11.600725219883781"><ele>367.0</ele><time>2026-03-29T08:08:40.002Z</time></trkpt><trkpt lat="43.105597046143984" lon="11.600664613373286"><ele>367.0</ele><time>2026-03-29T08:08:41.003Z</time></trkpt><trkpt lat="43.10572703000458" lon="11.60059947158738"><ele>367.0</ele><time>2026-03-29T08:08:42.002Z</time></trkpt><trkpt lat="43.10587024498235" lon="11.600516130185513"><ele>367.25</ele><time>2026-03-29T08:08:43.002Z</time></trkpt><trkpt lat="43.1060023486189" lon="11.600419929822236"><ele>367.5</ele><time>2026-03-29T08:08:44.002Z</time></trkpt><trkpt lat="43.10612124761477" lon="11.600349295116239"><ele>367.75</ele><time>2026-03-29T08:08:45.002Z</time></trkpt><trkpt lat="43.10622209674575" lon="11.600320918646853"><ele>368.0</ele><time>2026-03-29T08:08:46.002Z</time></trkpt><trkpt lat="43.10631318998191" lon="11.600318166748888"><ele>369.25</ele><time>2026-03-29T08:08:47.002Z</time></trkpt><trkpt lat="43.106407094692614" lon="11.600347858107563"><ele>370.5</ele><time>2026-03-29T08:08:48.002Z</time></trkpt><trkpt lat="43.10650812129782" lon="11.600399286206773"><ele>371.75</ele><time>2026-03-29T08:08:49.002Z</time></trkpt><trkpt lat="43.10662721866208" lon="11.600469978849349"><ele>373.0</ele><time>2026-03-29T08:08:50.002Z</time></trkpt><trkpt lat="43.106769081671644" lon="11.600562051531135"><ele>376.66666666666663</ele><time>2026-03-29T08:08:51.002Z</time></trkpt><trkpt lat="43.106927596294845" lon="11.600669803458215"><ele>380.3333333333333</ele><time>2026-03-29T08:08:52.002Z</time></trkpt><trkpt lat="43.10710068888184" lon="11.600794846571002"><ele>384.0</ele><time>2026-03-29T08:08:53.002Z</time></trkpt><trkpt lat="43.107263453569985" lon="11.600913784068414"><ele>384.0</ele><time>2026-03-29T08:08:54.002Z</time></trkpt><trkpt lat="43.107400110622095" lon="11.601026393122552"><ele>384.0</ele><time>2026-03-29T08:08:55.002Z</time></trkpt><trkpt lat="43.10751349955297" lon="11.601126607930976"><ele>384.0</ele><time>2026-03-29T08:08:56.002Z</time></trkpt><trkpt lat="43.10760385046901" lon="11.601198181998766"><ele>384.0</ele><time>2026-03-29T08:08:57.002Z</time></trkpt><trkpt lat="43.1076930483754" lon="11.601258095634206"><ele>385.5</ele><time>2026-03-29T08:08:58.002Z</time></trkpt><trkpt lat="43.10776499075855" lon="11.601313412437515"><ele>387.0</ele><time>2026-03-29T08:08:59.002Z</time></trkpt><trkpt lat="43.107830360352644" lon="11.601380251524974"><ele>388.5</ele><time>2026-03-29T08:09:00.002Z</time></trkpt><trkpt lat="43.10787615190179" lon="11.601448382833388"><ele>390.0</ele><time>2026-03-29T08:09:01.002Z</time></trkpt><trkpt lat="43.10791938516353" lon="11.601530046874153"><ele>391.5</ele><time>2026-03-29T08:09:02.002Z</time></trkpt><trkpt lat="43.10796075271942" lon="11.601621583825352"><ele>393.0</ele><time>2026-03-29T08:09:03.002Z</time></trkpt><trkpt lat="43.107989888034965" lon="11.601718221179379"><ele>393.0</ele><time>2026-03-29T08:09:04.002Z</time></trkpt><trkpt lat="43.10801598683994" lon="11.601827808253264"><ele>393.0</ele><time>2026-03-29T08:09:05.002Z</time></trkpt><trkpt lat="43.108020248281804" lon="11.60196630459825"><ele>393.0</ele><time>2026-03-29T08:09:06.002Z</time></trkpt><trkpt lat="43.108026858995736" lon="11.60211354882862"><ele>393.0</ele><time>2026-03-29T08:09:07.002Z</time></trkpt><trkpt lat="43.10802509505538" lon="11.602264668372172"><ele>393.0</ele><time>2026-03-29T08:09:08.002Z</time></trkpt><trkpt lat="43.10800682690161" lon="11.602423430437952"><ele>392.2</ele><time>2026-03-29T08:09:09.002Z</time></trkpt><trkpt lat="43.10797893539032" lon="11.60257926479692"><ele>391.4</ele><time>2026-03-29T08:09:10.002Z</time></trkpt><trkpt lat="43.10793688863009" lon="11.602721177420591"><ele>390.59999999999997</ele><time>2026-03-29T08:09:11.002Z</time></trkpt><trkpt lat="43.107901813481206" lon="11.602854110028545"><ele>389.79999999999995</ele><time>2026-03-29T08:09:12.002Z</time></trkpt><trkpt lat="43.107868357803994" lon="11.602968401087528"><ele>389.0</ele><time>2026-03-29T08:09:13.002Z</time></trkpt><trkpt lat="43.10783888388488" lon="11.603073250901112"><ele>386.79999999999995</ele><time>2026-03-29T08:09:14.002Z</time></trkpt><trkpt lat="43.10780913655534" lon="11.60318355294577"><ele>384.59999999999997</ele><time>2026-03-29T08:09:15.002Z</time></trkpt><trkpt lat="43.107804943835575" lon="11.603307989160522"><ele>382.4</ele><time>2026-03-29T08:09:16.002Z</time></trkpt><trkpt lat="43.10780755091574" lon="11.603441968195657"><ele>380.2</ele><time>2026-03-29T08:09:17.002Z</time></trkpt><trkpt lat="43.10784512526732" lon="11.603587246690234"><ele>378.0</ele><time>2026-03-29T08:09:18.002Z</time></trkpt><trkpt lat="43.1078875745071" lon="11.603743809078958"><ele>376.25</ele><time>2026-03-29T08:09:19.002Z</time></trkpt><trkpt lat="43.107938669195235" lon="11.603903204942231"><ele>374.5</ele><time>2026-03-29T08:09:20.002Z</time></trkpt><trkpt lat="43.10799342104186" lon="11.604055329166547"><ele>372.75</ele><time>2026-03-29T08:09:21.002Z</time></trkpt><trkpt lat="43.108037659591176" lon="11.604205617784883"><ele>371.0</ele><time>2026-03-29T08:09:22.002Z</time></trkpt><trkpt lat="43.10808650109301" lon="11.604345135155315"><ele>371.0</ele><time>2026-03-29T08:09:23.002Z</time></trkpt><trkpt lat="43.108151950684764" lon="11.60445943823949"><ele>371.0</ele><time>2026-03-29T08:09:24.002Z</time></trkpt><trkpt lat="43.108233605400045" lon="11.604560651623583"><ele>371.0</ele><time>2026-03-29T08:09:25.002Z</time></trkpt><trkpt lat="43.10833043022039" lon="11.604661015396601"><ele>371.0</ele><time>2026-03-29T08:09:26.002Z</time></trkpt><trkpt lat="43.108431451773235" lon="11.604754893186069"><ele>372.6666666666667</ele><time>2026-03-29T08:09:27.002Z</time></trkpt><trkpt lat="43.10855311599735" lon="11.604855961892365"><ele>374.3333333333333</ele><time>2026-03-29T08:09:28.002Z</time></trkpt><trkpt lat="43.10868606639776" lon="11.604974869639905"><ele>376.0</ele><time>2026-03-29T08:09:29.002Z</time></trkpt><trkpt lat="43.10883063315156" lon="11.60510345311039"><ele>376.0</ele><time>2026-03-29T08:09:30.002Z</time></trkpt><trkpt lat="43.10896758143801" lon="11.60522886457648"><ele>376.0</ele><time>2026-03-29T08:09:31.002Z</time></trkpt><trkpt lat="43.10910670985835" lon="11.60535368620256"><ele>376.0</ele><time>2026-03-29T08:09:32.002Z</time></trkpt><trkpt lat="43.10924061309741" lon="11.60547087426735"><ele>375.66666666666663</ele><time>2026-03-29T08:09:33.002Z</time></trkpt><trkpt lat="43.10936808565537" lon="11.605590896712217"><ele>375.3333333333333</ele><time>2026-03-29T08:09:34.002Z</time></trkpt><trkpt lat="43.1094932486953" lon="11.60571057963271"><ele>375.0</ele><time>2026-03-29T08:09:35.002Z</time></trkpt><trkpt lat="43.10961755221111" lon="11.605837214055923"><ele>375.0</ele><time>2026-03-29T08:09:36.002Z</time></trkpt><trkpt lat="43.10974990441121" lon="11.605960162419475"><ele>375.0</ele><time>2026-03-29T08:09:37.002Z</time></trkpt><trkpt lat="43.10988043927035" lon="11.606084466810996"><ele>375.0</ele><time>2026-03-29T08:09:38.002Z</time></trkpt><trkpt lat="43.10999988056498" lon="11.606203501456692"><ele>374.25</ele><time>2026-03-29T08:09:39.002Z</time></trkpt><trkpt lat="43.11011563839276" lon="11.606321400289383"><ele>373.5</ele><time>2026-03-29T08:09:40.002Z</time></trkpt><trkpt lat="43.11021190612754" lon="11.606421270141302"><ele>372.75</ele><time>2026-03-29T08:09:41.002Z</time></trkpt><trkpt lat="43.11029844558689" lon="11.60651352763251"><ele>372.0</ele><time>2026-03-29T08:09:42.002Z</time></trkpt><trkpt lat="43.11037625727217" lon="11.606596191358294"><ele>372.0</ele><time>2026-03-29T08:09:43.002Z</time></trkpt><trkpt lat="43.11043776838317" lon="11.606661834377087"><ele>372.0</ele><time>2026-03-29T08:09:44.002Z</time></trkpt><trkpt lat="43.11051606410808" lon="11.606720413594907"><ele>372.0</ele><time>2026-03-29T08:09:46.002Z</time></trkpt><trkpt lat="43.11058560857249" lon="11.606744073035518"><ele>372.0</ele><time>2026-03-29T08:09:49.002Z</time></trkpt><trkpt lat="43.110693920740935" lon="11.606786616007886"><ele>372.0</ele><time>2026-03-29T08:09:52.002Z</time></trkpt><trkpt lat="43.11075897186069" lon="11.606811141863561"><ele>372.0</ele><time>2026-03-29T08:09:53.002Z</time></trkpt><trkpt lat="43.11082049243751" lon="11.60683568167769"><ele>371.0</ele><time>2026-03-29T08:09:54.002Z</time></trkpt><trkpt lat="43.110884377174386" lon="11.606871435223656"><ele>370.0</ele><time>2026-03-29T08:09:55.002Z</time></trkpt><trkpt lat="43.110954751841916" lon="11.60691442825925"><ele>369.0</ele><time>2026-03-29T08:09:56.002Z</time></trkpt><trkpt lat="43.111023944052384" lon="11.606966297716372"><ele>368.0</ele><time>2026-03-29T08:09:57.002Z</time></trkpt><trkpt lat="43.11108607365236" lon="11.607020513086372"><ele>367.0</ele><time>2026-03-29T08:09:58.002Z</time></trkpt><trkpt lat="43.11114077965532" lon="11.607092443175071"><ele>366.0</ele><time>2026-03-29T08:09:59.002Z</time></trkpt><trkpt lat="43.111240128141944" lon="11.607186265955477"><ele>365.8</ele><time>2026-03-29T08:10:01.002Z</time></trkpt><trkpt lat="43.11132062688804" lon="11.607262600998972"><ele>365.6</ele><time>2026-03-29T08:10:03.002Z</time></trkpt><trkpt lat="43.111398626766764" lon="11.6073226923884"><ele>365.4</ele><time>2026-03-29T08:10:06.002Z</time></trkpt><trkpt lat="43.111477475211856" lon="11.607409233095906"><ele>365.2</ele><time>2026-03-29T08:10:10.002Z</time></trkpt><trkpt lat="43.111594975964294" lon="11.60749190500412"><ele>365.0</ele><time>2026-03-29T08:10:12.002Z</time></trkpt><trkpt lat="43.11165289742931" lon="11.607570905737786"><ele>365.0</ele><time>2026-03-29T08:10:13.002Z</time></trkpt><trkpt lat="43.11172716617671" lon="11.607634872510816"><ele>365.0</ele><time>2026-03-29T08:10:14.002Z</time></trkpt><trkpt lat="43.11180805135184" lon="11.607700057361852"><ele>365.0</ele><time>2026-03-29T08:10:15.002Z</time></trkpt><trkpt lat="43.11190933947234" lon="11.607781820008201"><ele>365.0</ele><time>2026-03-29T08:10:16.002Z</time></trkpt><trkpt lat="43.11201766401249" lon="11.60786988486185"><ele>365.0</ele><time>2026-03-29T08:10:17.002Z</time></trkpt><trkpt lat="43.11212439444568" lon="11.607962606383971"><ele>365.0</ele><time>2026-03-29T08:10:18.002Z</time></trkpt><trkpt lat="43.112229256943024" lon="11.608062578728774"><ele>365.0</ele><time>2026-03-29T08:10:19.002Z</time></trkpt><trkpt lat="43.11233503365667" lon="11.608168485924631"><ele>365.0</ele><time>2026-03-29T08:10:20.002Z</time></trkpt><trkpt lat="43.112434104629834" lon="11.608277898313064"><ele>365.0</ele><time>2026-03-29T08:10:21.002Z</time></trkpt><trkpt lat="43.11253144475433" lon="11.608390268636228"><ele>365.0</ele><time>2026-03-29T08:10:22.002Z</time></trkpt><trkpt lat="43.11263553997337" lon="11.60850886679382"><ele>365.0</ele><time>2026-03-29T08:10:23.002Z</time></trkpt><trkpt lat="43.1127387702594" lon="11.608634260723838"><ele>365.0</ele><time>2026-03-29T08:10:24.002Z</time></trkpt><trkpt lat="43.11283727360952" lon="11.608774957544103"><ele>365.0</ele><time>2026-03-29T08:10:25.002Z</time></trkpt><trkpt lat="43.11293092935481" lon="11.608930633762412"><ele>363.33333333333337</ele><time>2026-03-29T08:10:26.002Z</time></trkpt><trkpt lat="43.11302012790664" lon="11.609099906275347"><ele>361.6666666666667</ele><time>2026-03-29T08:10:27.002Z</time></trkpt><trkpt lat="43.11310129621845" lon="11.609283368213843"><ele>360.0</ele><time>2026-03-29T08:10:28.002Z</time></trkpt><trkpt lat="43.11317348248457" lon="11.609449882689287"><ele>358.0</ele><time>2026-03-29T08:10:29.002Z</time></trkpt><trkpt lat="43.11322949383606" lon="11.60960681000193"><ele>356.0</ele><time>2026-03-29T08:10:30.002Z</time></trkpt><trkpt lat="43.113282401462826" lon="11.60976933622825"><ele>354.0</ele><time>2026-03-29T08:10:31.002Z</time></trkpt><trkpt lat="43.11334111155155" lon="11.609924900398651"><ele>352.0</ele><time>2026-03-29T08:10:32.002Z</time></trkpt><trkpt lat="43.11340346819401" lon="11.610069207284871"><ele>354.5</ele><time>2026-03-29T08:10:33.002Z</time></trkpt><trkpt lat="43.11347502978667" lon="11.610217153693139"><ele>357.0</ele><time>2026-03-29T08:10:34.002Z</time></trkpt><trkpt lat="43.11355156333861" lon="11.610365282833023"><ele>359.5</ele><time>2026-03-29T08:10:35.002Z</time></trkpt><trkpt lat="43.11363071968864" lon="11.610512728534406"><ele>362.0</ele><time>2026-03-29T08:10:36.002Z</time></trkpt><trkpt lat="43.11371238310604" lon="11.610666961447834"><ele>362.0</ele><time>2026-03-29T08:10:37.002Z</time></trkpt><trkpt lat="43.113788943867625" lon="11.61081318598943"><ele>362.0</ele><time>2026-03-29T08:10:38.002Z</time></trkpt><trkpt lat="43.11386562357459" lon="11.610948325880608"><ele>362.0</ele><time>2026-03-29T08:10:39.002Z</time></trkpt><trkpt lat="43.113948954724904" lon="11.611072744573692"><ele>362.0</ele><time>2026-03-29T08:10:40.002Z</time></trkpt><trkpt lat="43.11404087218387" lon="11.61118790035864"><ele>363.5</ele><time>2026-03-29T08:10:41.002Z</time></trkpt><trkpt lat="43.11413612354212" lon="11.611290621301556"><ele>365.0</ele><time>2026-03-29T08:10:42.002Z</time></trkpt><trkpt lat="43.11423447302358" lon="11.611395893176573"><ele>366.5</ele><time>2026-03-29T08:10:43.002Z</time></trkpt><trkpt lat="43.1143323485889" lon="11.611520188743901"><ele>368.0</ele><time>2026-03-29T08:10:44.002Z</time></trkpt><trkpt lat="43.11442453733811" lon="11.61165137021623"><ele>368.0</ele><time>2026-03-29T08:10:45.002Z</time></trkpt><trkpt lat="43.11451725399628" lon="11.611813640336177"><ele>368.0</ele><time>2026-03-29T08:10:46.002Z</time></trkpt><trkpt lat="43.11459243430484" lon="11.611982876929025"><ele>368.0</ele><time>2026-03-29T08:10:47.002Z</time></trkpt><trkpt lat="43.11464721996352" lon="11.61215823407872"><ele>368.0</ele><time>2026-03-29T08:10:48.002Z</time></trkpt><trkpt lat="43.11466713360803" lon="11.612343874497988"><ele>366.4</ele><time>2026-03-29T08:10:49.002Z</time></trkpt><trkpt lat="43.114709245943025" lon="11.612502993207883"><ele>364.79999999999995</ele><time>2026-03-29T08:10:50.002Z</time></trkpt><trkpt lat="43.11473838388708" lon="11.612639542068973"><ele>363.2</ele><time>2026-03-29T08:10:51.002Z</time></trkpt><trkpt lat="43.11477799447377" lon="11.612764156003898"><ele>361.6</ele><time>2026-03-29T08:10:52.002Z</time></trkpt><trkpt lat="43.11482811917749" lon="11.612869749238369"><ele>360.0</ele><time>2026-03-29T08:10:53.002Z</time></trkpt><trkpt lat="43.11488820893019" lon="11.612960194774512"><ele>362.0</ele><time>2026-03-29T08:10:54.002Z</time></trkpt><trkpt lat="43.11495179808674" lon="11.613048270542654"><ele>364.0</ele><time>2026-03-29T08:10:55.002Z</time></trkpt><trkpt lat="43.115018830906486" lon="11.61313858305299"><ele>366.0</ele><time>2026-03-29T08:10:56.002Z</time></trkpt><trkpt lat="43.11508554777932" lon="11.613233952974863"><ele>368.0</ele><time>2026-03-29T08:10:57.002Z</time></trkpt><trkpt lat="43.11515558751873" lon="11.613336068945873"><ele>370.0</ele><time>2026-03-29T08:10:58.002Z</time></trkpt><trkpt lat="43.11522318644927" lon="11.613441122037997"><ele>370.0</ele><time>2026-03-29T08:10:59.002Z</time></trkpt><trkpt lat="43.11528382766985" lon="11.613550200887095"><ele>370.0</ele><time>2026-03-29T08:11:00.002Z</time></trkpt><trkpt lat="43.11534466393939" lon="11.613656780970732"><ele>370.0</ele><time>2026-03-29T08:11:01.002Z</time></trkpt><trkpt lat="43.11540654195545" lon="11.613753773596667"><ele>370.0</ele><time>2026-03-29T08:11:02.002Z</time></trkpt><trkpt lat="43.11547346217178" lon="11.613840948476085"><ele>370.0</ele><time>2026-03-29T08:11:03.002Z</time></trkpt><trkpt lat="43.11554346406612" lon="11.613946011581122"><ele>368.75</ele><time>2026-03-29T08:11:04.002Z</time></trkpt><trkpt lat="43.11565265728907" lon="11.61401331218859"><ele>367.5</ele><time>2026-03-29T08:11:05.002Z</time></trkpt><trkpt lat="43.11575621473787" lon="11.614110613380278"><ele>366.25</ele><time>2026-03-29T08:11:06.002Z</time></trkpt><trkpt lat="43.11585310691758" lon="11.614207304849257"><ele>365.0</ele><time>2026-03-29T08:11:07.002Z</time></trkpt><trkpt lat="43.11593645718512" lon="11.614327884599708"><ele>367.75</ele><time>2026-03-29T08:11:08.002Z</time></trkpt><trkpt lat="43.11600269199926" lon="11.614474571293751"><ele>370.5</ele><time>2026-03-29T08:11:09.002Z</time></trkpt><trkpt lat="43.11604765674041" lon="11.614629449864088"><ele>373.25</ele><time>2026-03-29T08:11:10.002Z</time></trkpt><trkpt lat="43.11607241496978" lon="11.614790400643558"><ele>376.0</ele><time>2026-03-29T08:11:11.002Z</time></trkpt><trkpt lat="43.11608509518056" lon="11.614969847777667"><ele>376.25</ele><time>2026-03-29T08:11:12.002Z</time></trkpt><trkpt lat="43.11608505300301" lon="11.615155500444631"><ele>376.5</ele><time>2026-03-29T08:11:13.002Z</time></trkpt><trkpt lat="43.11607695810777" lon="11.615350161433712"><ele>376.75</ele><time>2026-03-29T08:11:14.002Z</time></trkpt><trkpt lat="43.11606791217072" lon="11.615541371143465"><ele>377.0</ele><time>2026-03-29T08:11:15.002Z</time></trkpt><trkpt lat="43.116060238520895" lon="11.615721805963576"><ele>377.5</ele><time>2026-03-29T08:11:16.002Z</time></trkpt><trkpt lat="43.1160450710488" lon="11.615896287197142"><ele>378.0</ele><time>2026-03-29T08:11:17.002Z</time></trkpt><trkpt lat="43.11601930152856" lon="11.616058792022628"><ele>378.5</ele><time>2026-03-29T08:11:18.002Z</time></trkpt><trkpt lat="43.115973891979465" lon="11.616216663695596"><ele>379.0</ele><time>2026-03-29T08:11:19.002Z</time></trkpt><trkpt lat="43.11591164399479" lon="11.616391515997508"><ele>379.66666666666663</ele><time>2026-03-29T08:11:20.002Z</time></trkpt><trkpt lat="43.11582961571057" lon="11.616585692079873"><ele>380.3333333333333</ele><time>2026-03-29T08:11:21.002Z</time></trkpt><trkpt lat="43.1157314290043" lon="11.616806047892922"><ele>381.0</ele><time>2026-03-29T08:11:22.002Z</time></trkpt><trkpt lat="43.1156374871215" lon="11.617021891019066"><ele>381.25</ele><time>2026-03-29T08:11:23.002Z</time></trkpt><trkpt lat="43.11555400225831" lon="11.617209006821914"><ele>381.5</ele><time>2026-03-29T08:11:24.002Z</time></trkpt><trkpt lat="43.1154841397458" lon="11.617368655825334"><ele>381.75</ele><time>2026-03-29T08:11:25.002Z</time></trkpt><trkpt lat="43.11542558204385" lon="11.617505050425805"><ele>382.0</ele><time>2026-03-29T08:11:26.002Z</time></trkpt><trkpt lat="43.115369748556994" lon="11.617625436932281"><ele>382.0</ele><time>2026-03-29T08:11:27.002Z</time></trkpt><trkpt lat="43.11531481634521" lon="11.617752123886236"><ele>382.0</ele><time>2026-03-29T08:11:28.002Z</time></trkpt><trkpt lat="43.11526581763485" lon="11.617888336844066"><ele>382.0</ele><time>2026-03-29T08:11:29.002Z</time></trkpt><trkpt lat="43.11522365367682" lon="11.618034534779255"><ele>382.0</ele><time>2026-03-29T08:11:30.002Z</time></trkpt><trkpt lat="43.115183709855714" lon="11.618174978522546"><ele>382.0</ele><time>2026-03-29T08:11:31.002Z</time></trkpt><trkpt lat="43.11515255051146" lon="11.618304688043287"><ele>383.40000000000003</ele><time>2026-03-29T08:11:32.002Z</time></trkpt><trkpt lat="43.11513240384066" lon="11.618403974735443"><ele>384.8</ele><time>2026-03-29T08:11:33.002Z</time></trkpt><trkpt lat="43.11511553792111" lon="11.61848747539173"><ele>386.2</ele><time>2026-03-29T08:11:37.002Z</time></trkpt><trkpt lat="43.115281947293255" lon="11.618541224837331"><ele>387.6</ele><time>2026-03-29T08:11:40.002Z</time></trkpt><trkpt lat="43.11535282370908" lon="11.618557923258368"><ele>389.0</ele><time>2026-03-29T08:11:41.002Z</time></trkpt><trkpt lat="43.11542154133374" lon="11.618579457699305"><ele>389.0</ele><time>2026-03-29T08:11:42.002Z</time></trkpt><trkpt lat="43.11548724746873" lon="11.618604649934342"><ele>389.0</ele><time>2026-03-29T08:11:43.002Z</time></trkpt><trkpt lat="43.11560280539901" lon="11.618630304246038"><ele>389.0</ele><time>2026-03-29T08:11:45.002Z</time></trkpt><trkpt lat="43.11572444628328" lon="11.618636648189849"><ele>389.0</ele><time>2026-03-29T08:11:47.002Z</time></trkpt><trkpt lat="43.11580449959044" lon="11.618663259095639"><ele>389.0</ele><time>2026-03-29T08:11:48.002Z</time></trkpt><trkpt lat="43.11588829160489" lon="11.618665064926788"><ele>388.49999999999994</ele><time>2026-03-29T08:11:49.002Z</time></trkpt><trkpt lat="43.11596826926081" lon="11.618661201164052"><ele>388.0</ele><time>2026-03-29T08:11:50.002Z</time></trkpt><trkpt lat="43.11604971985848" lon="11.618649719137535"><ele>387.5</ele><time>2026-03-29T08:11:51.002Z</time></trkpt><trkpt lat="43.11613606702738" lon="11.61862754623606"><ele>387.0</ele><time>2026-03-29T08:11:52.002Z</time></trkpt><trkpt lat="43.11622351219938" lon="11.61857751428508"><ele>386.49999999999994</ele><time>2026-03-29T08:11:53.002Z</time></trkpt><trkpt lat="43.116324550936575" lon="11.618556544288351"><ele>386.0</ele><time>2026-03-29T08:11:54.002Z</time></trkpt><trkpt lat="43.11642598953918" lon="11.618518895729352"><ele>386.0</ele><time>2026-03-29T08:11:55.002Z</time></trkpt><trkpt lat="43.11652343497491" lon="11.61849259225524"><ele>386.0</ele><time>2026-03-29T08:11:56.002Z</time></trkpt><trkpt lat="43.11662225177811" lon="11.618477087271957"><ele>386.0</ele><time>2026-03-29T08:11:57.002Z</time></trkpt><trkpt lat="43.116726589279516" lon="11.618472715506702"><ele>386.0</ele><time>2026-03-29T08:11:58.002Z</time></trkpt><trkpt lat="43.11683659051855" lon="11.61847568950499"><ele>386.0</ele><time>2026-03-29T08:11:59.002Z</time></trkpt><trkpt lat="43.11694371319964" lon="11.618487824424708"><ele>384.4</ele><time>2026-03-29T08:12:00.002Z</time></trkpt><trkpt lat="43.1170482699367" lon="11.618502151753672"><ele>382.8</ele><time>2026-03-29T08:12:01.002Z</time></trkpt><trkpt lat="43.11715369265713" lon="11.61851301690513"><ele>381.2</ele><time>2026-03-29T08:12:02.002Z</time></trkpt><trkpt lat="43.117259917944736" lon="11.618526619028728"><ele>379.59999999999997</ele><time>2026-03-29T08:12:03.002Z</time></trkpt><trkpt lat="43.117363882276656" lon="11.618538963973323"><ele>378.0</ele><time>2026-03-29T08:12:04.002Z</time></trkpt><trkpt lat="43.11746982400307" lon="11.618544315783891"><ele>377.0</ele><time>2026-03-29T08:12:05.002Z</time></trkpt><trkpt lat="43.117574905934404" lon="11.618546946966172"><ele>376.0</ele><time>2026-03-29T08:12:06.002Z</time></trkpt><trkpt lat="43.11768396136591" lon="11.618554036095455"><ele>375.0</ele><time>2026-03-29T08:12:07.001Z</time></trkpt><trkpt lat="43.11779651261542" lon="11.618579669302425"><ele>374.0</ele><time>2026-03-29T08:12:08.001Z</time></trkpt><trkpt lat="43.117916799693475" lon="11.618578668334413"><ele>373.0</ele><time>2026-03-29T08:12:09.001Z</time></trkpt><trkpt lat="43.118041149245315" lon="11.618582568733787"><ele>373.0</ele><time>2026-03-29T08:12:10.001Z</time></trkpt><trkpt lat="43.11816425240016" lon="11.618585946144723"><ele>373.0</ele><time>2026-03-29T08:12:11.001Z</time></trkpt><trkpt lat="43.1182920940315" lon="11.618584363972335"><ele>373.0</ele><time>2026-03-29T08:12:12.001Z</time></trkpt><trkpt lat="43.11841998076004" lon="11.61858495521762"><ele>373.0</ele><time>2026-03-29T08:12:13.001Z</time></trkpt><trkpt lat="43.11853968274811" lon="11.618585937200908"><ele>372.5</ele><time>2026-03-29T08:12:14.001Z</time></trkpt><trkpt lat="43.11866488171916" lon="11.618595668176106"><ele>372.0</ele><time>2026-03-29T08:12:15.001Z</time></trkpt><trkpt lat="43.11878859559007" lon="11.618606390581908"><ele>371.5</ele><time>2026-03-29T08:12:16.001Z</time></trkpt><trkpt lat="43.118912305251364" lon="11.618615184792398"><ele>371.0</ele><time>2026-03-29T08:12:17.001Z</time></trkpt><trkpt lat="43.11904284405242" lon="11.61862514571663"><ele>370.5</ele><time>2026-03-29T08:12:18.001Z</time></trkpt><trkpt lat="43.11917730468914" lon="11.618642834817196"><ele>370.0</ele><time>2026-03-29T08:12:19.001Z</time></trkpt><trkpt lat="43.119314912233875" lon="11.618665918939627"><ele>369.5</ele><time>2026-03-29T08:12:20.001Z</time></trkpt><trkpt lat="43.119454059020136" lon="11.618685148069405"><ele>369.0</ele><time>2026-03-29T08:12:21.001Z</time></trkpt><trkpt lat="43.11960404681283" lon="11.618700363540734"><ele>369.0</ele><time>2026-03-29T08:12:22.001Z</time></trkpt><trkpt lat="43.11976252217426" lon="11.618712449394373"><ele>369.0</ele><time>2026-03-29T08:12:23.001Z</time></trkpt><trkpt lat="43.11991606539369" lon="11.618721587695404"><ele>369.0</ele><time>2026-03-29T08:12:24.001Z</time></trkpt><trkpt lat="43.12006602716461" lon="11.618730690820591"><ele>370.2</ele><time>2026-03-29T08:12:25.001Z</time></trkpt><trkpt lat="43.120197234147255" lon="11.618737625285679"><ele>371.4</ele><time>2026-03-29T08:12:26.001Z</time></trkpt><trkpt lat="43.12031441984807" lon="11.618751846957249"><ele>372.6</ele><time>2026-03-29T08:12:27.001Z</time></trkpt><trkpt lat="43.12040816071174" lon="11.618766594501368"><ele>373.8</ele><time>2026-03-29T08:12:28.001Z</time></trkpt><trkpt lat="43.12048083773943" lon="11.618770560655243"><ele>375.0</ele><time>2026-03-29T08:12:29.001Z</time></trkpt><trkpt lat="43.12055168204583" lon="11.618790127811357"><ele>375.0</ele><time>2026-03-29T08:12:30.001Z</time></trkpt><trkpt lat="43.120639629626275" lon="11.618767591232519"><ele>375.0</ele><time>2026-03-29T08:12:31.001Z</time></trkpt><trkpt lat="43.12073337938566" lon="11.618732165275727"><ele>375.0</ele><time>2026-03-29T08:12:32.001Z</time></trkpt><trkpt lat="43.1208281119329" lon="11.61867345891682"><ele>375.0</ele><time>2026-03-29T08:12:33.001Z</time></trkpt><trkpt lat="43.1209249031553" lon="11.61859330503982"><ele>375.0</ele><time>2026-03-29T08:12:34.001Z</time></trkpt><trkpt lat="43.121030307614" lon="11.618491781565096"><ele>376.25</ele><time>2026-03-29T08:12:35.001Z</time></trkpt><trkpt lat="43.121137239057624" lon="11.618379366279816"><ele>377.5</ele><time>2026-03-29T08:12:36.001Z</time></trkpt><trkpt lat="43.12124720339023" lon="11.61825701732822"><ele>378.75</ele><time>2026-03-29T08:12:37.001Z</time></trkpt><trkpt lat="43.12135958034285" lon="11.618135036153438"><ele>380.0</ele><time>2026-03-29T08:12:38.001Z</time></trkpt><trkpt lat="43.121466726573914" lon="11.61802798298877"><ele>380.75</ele><time>2026-03-29T08:12:39.001Z</time></trkpt><trkpt lat="43.12156544143756" lon="11.617928346039902"><ele>381.5</ele><time>2026-03-29T08:12:40.001Z</time></trkpt><trkpt lat="43.12166332278801" lon="11.617826113310217"><ele>382.25</ele><time>2026-03-29T08:12:41.002Z</time></trkpt><trkpt lat="43.12175668906897" lon="11.617723852938111"><ele>383.0</ele><time>2026-03-29T08:12:42.003Z</time></trkpt><trkpt lat="43.12184762720714" lon="11.617627073817374"><ele>383.0</ele><time>2026-03-29T08:12:43.003Z</time></trkpt><trkpt lat="43.12193833967479" lon="11.617534177605734"><ele>383.0</ele><time>2026-03-29T08:12:44.002Z</time></trkpt><trkpt lat="43.12202963252591" lon="11.617443489396512"><ele>383.0</ele><time>2026-03-29T08:12:45.002Z</time></trkpt><trkpt lat="43.12212025135006" lon="11.617351881355567"><ele>383.0</ele><time>2026-03-29T08:12:46.002Z</time></trkpt><trkpt lat="43.122207883699254" lon="11.617264052006881"><ele>383.0</ele><time>2026-03-29T08:12:47.003Z</time></trkpt><trkpt lat="43.12228857282469" lon="11.617179115337047"><ele>383.0</ele><time>2026-03-29T08:12:48.002Z</time></trkpt><trkpt lat="43.12237268809934" lon="11.617092436286638"><ele>383.0</ele><time>2026-03-29T08:12:49.002Z</time></trkpt><trkpt lat="43.12245370781578" lon="11.617000141248019"><ele>383.0</ele><time>2026-03-29T08:12:50.003Z</time></trkpt><trkpt lat="43.12252215389709" lon="11.61690927157324"><ele>383.0</ele><time>2026-03-29T08:12:51.003Z</time></trkpt><trkpt lat="43.12260816969555" lon="11.616822183832886"><ele>383.0</ele><time>2026-03-29T08:12:52.003Z</time></trkpt><trkpt lat="43.12267881590874" lon="11.61670632717501"><ele>380.75</ele><time>2026-03-29T08:12:53.002Z</time></trkpt><trkpt lat="43.12274690202665" lon="11.61658092652493"><ele>378.5</ele><time>2026-03-29T08:12:54.002Z</time></trkpt><trkpt lat="43.12281758669622" lon="11.616442231488694"><ele>376.25</ele><time>2026-03-29T08:12:55.002Z</time></trkpt><trkpt lat="43.12290495632076" lon="11.61630062820228"><ele>374.0</ele><time>2026-03-29T08:12:56.002Z</time></trkpt><trkpt lat="43.12297467442699" lon="11.616147850455857"><ele>374.25</ele><time>2026-03-29T08:12:57.002Z</time></trkpt><trkpt lat="43.12304216470278" lon="11.61598871802971"><ele>374.5</ele><time>2026-03-29T08:12:58.002Z</time></trkpt><trkpt lat="43.123109485417444" lon="11.61583452287976"><ele>374.75</ele><time>2026-03-29T08:12:59.002Z</time></trkpt><trkpt lat="43.123184994673444" lon="11.615673532297905"><ele>375.0</ele><time>2026-03-29T08:13:00.002Z</time></trkpt><trkpt lat="43.12325954798658" lon="11.615517462681737"><ele>375.0</ele><time>2026-03-29T08:13:01.002Z</time></trkpt><trkpt lat="43.12333556176417" lon="11.61537209112196"><ele>375.0</ele><time>2026-03-29T08:13:02.002Z</time></trkpt><trkpt lat="43.12341046492253" lon="11.615228880588733"><ele>375.0</ele><time>2026-03-29T08:13:03.002Z</time></trkpt><trkpt lat="43.12348060716127" lon="11.61509653735254"><ele>375.0</ele><time>2026-03-29T08:13:04.002Z</time></trkpt><trkpt lat="43.123549366606234" lon="11.614975154462156"><ele>376.4</ele><time>2026-03-29T08:13:05.002Z</time></trkpt><trkpt lat="43.12361913717563" lon="11.61486409284314"><ele>377.8</ele><time>2026-03-29T08:13:06.002Z</time></trkpt><trkpt lat="43.12368496031554" lon="11.61476767461597"><ele>379.20000000000005</ele><time>2026-03-29T08:13:07.002Z</time></trkpt><trkpt lat="43.12376209314919" lon="11.614674455311352"><ele>380.6</ele><time>2026-03-29T08:13:08.002Z</time></trkpt><trkpt lat="43.123854046179886" lon="11.614587669821155"><ele>382.0</ele><time>2026-03-29T08:13:09.002Z</time></trkpt><trkpt lat="43.12395426202553" lon="11.614505201072454"><ele>383.5</ele><time>2026-03-29T08:13:10.002Z</time></trkpt><trkpt lat="43.12405233762255" lon="11.614439236023687"><ele>385.0</ele><time>2026-03-29T08:13:11.002Z</time></trkpt><trkpt lat="43.12416179208221" lon="11.614387680217718"><ele>386.5</ele><time>2026-03-29T08:13:12.002Z</time></trkpt><trkpt lat="43.12427495354777" lon="11.614340352953256"><ele>388.0</ele><time>2026-03-29T08:13:13.002Z</time></trkpt><trkpt lat="43.12440006450062" lon="11.614309245647625"><ele>388.2</ele><time>2026-03-29T08:13:14.002Z</time></trkpt><trkpt lat="43.12451834471958" lon="11.614286051261354"><ele>388.4</ele><time>2026-03-29T08:13:15.002Z</time></trkpt><trkpt lat="43.12462819139749" lon="11.614262669941363"><ele>388.59999999999997</ele><time>2026-03-29T08:13:16.002Z</time></trkpt><trkpt lat="43.12472975521125" lon="11.614242616398053"><ele>388.79999999999995</ele><time>2026-03-29T08:13:17.002Z</time></trkpt><trkpt lat="43.12482813796054" lon="11.614235349765373"><ele>389.0</ele><time>2026-03-29T08:13:18.002Z</time></trkpt><trkpt lat="43.12493897239895" lon="11.614243055607236"><ele>387.25</ele><time>2026-03-29T08:13:19.002Z</time></trkpt><trkpt lat="43.12505791778788" lon="11.61427201687266"><ele>385.5</ele><time>2026-03-29T08:13:20.002Z</time></trkpt><trkpt lat="43.12517614751825" lon="11.614341530249211"><ele>383.75</ele><time>2026-03-29T08:13:21.002Z</time></trkpt><trkpt lat="43.125297870476004" lon="11.614403020815805"><ele>382.0</ele><time>2026-03-29T08:13:22.002Z</time></trkpt><trkpt lat="43.12540625156642" lon="11.6144699612319"><ele>380.75</ele><time>2026-03-29T08:13:23.002Z</time></trkpt><trkpt lat="43.12550922665014" lon="11.61452318997481"><ele>379.5</ele><time>2026-03-29T08:13:24.002Z</time></trkpt><trkpt lat="43.12562344220478" lon="11.614554522613265"><ele>378.25</ele><time>2026-03-29T08:13:25.002Z</time></trkpt><trkpt lat="43.125743800891684" lon="11.614563351469522"><ele>377.0</ele><time>2026-03-29T08:13:26.002Z</time></trkpt><trkpt lat="43.12586632784149" lon="11.614552440320505"><ele>377.0</ele><time>2026-03-29T08:13:27.002Z</time></trkpt><trkpt lat="43.125989100155536" lon="11.614530891800126"><ele>377.0</ele><time>2026-03-29T08:13:28.002Z</time></trkpt><trkpt lat="43.12611608425012" lon="11.614503708334427"><ele>377.0</ele><time>2026-03-29T08:13:29.002Z</time></trkpt><trkpt lat="43.12624441503633" lon="11.614479224166107"><ele>377.0</ele><time>2026-03-29T08:13:30.002Z</time></trkpt><trkpt lat="43.126367521134" lon="11.61446157416405"><ele>377.20000000000005</ele><time>2026-03-29T08:13:31.002Z</time></trkpt><trkpt lat="43.126478845987606" lon="11.614451667189327"><ele>377.4</ele><time>2026-03-29T08:13:32.002Z</time></trkpt><trkpt lat="43.126583745038594" lon="11.61444205902645"><ele>377.6</ele><time>2026-03-29T08:13:33.002Z</time></trkpt><trkpt lat="43.12669276276296" lon="11.614431669395257"><ele>377.79999999999995</ele><time>2026-03-29T08:13:34.002Z</time></trkpt><trkpt lat="43.12679699828333" lon="11.614425566404993"><ele>378.0</ele><time>2026-03-29T08:13:35.002Z</time></trkpt><trkpt lat="43.1268905507188" lon="11.61441952869816"><ele>378.0</ele><time>2026-03-29T08:13:36.002Z</time></trkpt><trkpt lat="43.12697909741552" lon="11.614410243153372"><ele>378.0</ele><time>2026-03-29T08:13:37.002Z</time></trkpt><trkpt lat="43.12706440996094" lon="11.614418435370506"><ele>378.0</ele><time>2026-03-29T08:13:38.002Z</time></trkpt><trkpt lat="43.12715677182281" lon="11.614396276681347"><ele>378.0</ele><time>2026-03-29T08:13:39.002Z</time></trkpt><trkpt lat="43.12724705941821" lon="11.61436074818466"><ele>378.0</ele><time>2026-03-29T08:13:40.002Z</time></trkpt><trkpt lat="43.12733317928344" lon="11.614308963869679"><ele>377.4</ele><time>2026-03-29T08:13:41.002Z</time></trkpt><trkpt lat="43.127401131408824" lon="11.614208301817227"><ele>376.79999999999995</ele><time>2026-03-29T08:13:42.002Z</time></trkpt><trkpt lat="43.12747232475495" lon="11.614123043084152"><ele>376.2</ele><time>2026-03-29T08:13:43.002Z</time></trkpt><trkpt lat="43.1275480923538" lon="11.614021217168345"><ele>375.6</ele><time>2026-03-29T08:13:44.002Z</time></trkpt><trkpt lat="43.127634236368934" lon="11.613917565965853"><ele>375.0</ele><time>2026-03-29T08:13:45.002Z</time></trkpt><trkpt lat="43.127692791583144" lon="11.613821384011073"><ele>375.0</ele><time>2026-03-29T08:13:46.002Z</time></trkpt><trkpt lat="43.12774832328361" lon="11.613742893088391"><ele>375.0</ele><time>2026-03-29T08:13:47.002Z</time></trkpt><trkpt lat="43.127804520877895" lon="11.613662090361574"><ele>375.0</ele><time>2026-03-29T08:13:48.002Z</time></trkpt><trkpt lat="43.12786432698876" lon="11.613581315537672"><ele>375.0</ele><time>2026-03-29T08:13:49.002Z</time></trkpt><trkpt lat="43.12794551725523" lon="11.613517201379302"><ele>375.0</ele><time>2026-03-29T08:13:50.002Z</time></trkpt><trkpt lat="43.128021203614495" lon="11.613435987655999"><ele>375.0</ele><time>2026-03-29T08:13:51.002Z</time></trkpt><trkpt lat="43.12811269609246" lon="11.613361034542654"><ele>374.0</ele><time>2026-03-29T08:13:52.002Z</time></trkpt><trkpt lat="43.12820329214179" lon="11.6132934395552"><ele>373.0</ele><time>2026-03-29T08:13:53.002Z</time></trkpt><trkpt lat="43.128290326306704" lon="11.613230761592838"><ele>372.0</ele><time>2026-03-29T08:13:54.002Z</time></trkpt><trkpt lat="43.128375447093234" lon="11.613171887663537"><ele>371.0</ele><time>2026-03-29T08:13:55.002Z</time></trkpt><trkpt lat="43.128464131508636" lon="11.613112768858382"><ele>370.0</ele><time>2026-03-29T08:13:56.002Z</time></trkpt><trkpt lat="43.128549864994675" lon="11.613056028977802"><ele>369.6</ele><time>2026-03-29T08:13:57.002Z</time></trkpt><trkpt lat="43.12862727221503" lon="11.613000330436021"><ele>369.2</ele><time>2026-03-29T08:13:58.002Z</time></trkpt><trkpt lat="43.12869550863804" lon="11.612945309779672"><ele>368.79999999999995</ele><time>2026-03-29T08:13:59.002Z</time></trkpt><trkpt lat="43.12875073402494" lon="11.61288605879599"><ele>368.4</ele><time>2026-03-29T08:14:00.002Z</time></trkpt><trkpt lat="43.128839080857695" lon="11.61275027793772"><ele>368.0</ele><time>2026-03-29T08:14:02.002Z</time></trkpt><trkpt lat="43.128819510305355" lon="11.612600902200416"><ele>366.25</ele><time>2026-03-29T08:14:03.002Z</time></trkpt><trkpt lat="43.12881655656589" lon="11.612447963771166"><ele>364.5</ele><time>2026-03-29T08:14:04.002Z</time></trkpt><trkpt lat="43.128812371957686" lon="11.612282022159926"><ele>362.75</ele><time>2026-03-29T08:14:05.002Z</time></trkpt><trkpt lat="43.128815453282805" lon="11.612110456630425"><ele>361.0</ele><time>2026-03-29T08:14:06.002Z</time></trkpt><trkpt lat="43.12884623038059" lon="11.611931787537078"><ele>359.25</ele><time>2026-03-29T08:14:07.002Z</time></trkpt><trkpt lat="43.12885501502076" lon="11.611747857570268"><ele>357.5</ele><time>2026-03-29T08:14:08.002Z</time></trkpt><trkpt lat="43.12886484258017" lon="11.611557224225313"><ele>355.75</ele><time>2026-03-29T08:14:09.002Z</time></trkpt><trkpt lat="43.128873655900605" lon="11.611361320022159"><ele>354.0</ele><time>2026-03-29T08:14:10.002Z</time></trkpt><trkpt lat="43.12886641137524" lon="11.61116947960699"><ele>353.5</ele><time>2026-03-29T08:14:11.002Z</time></trkpt><trkpt lat="43.12887660009382" lon="11.610975065349848"><ele>353.0</ele><time>2026-03-29T08:14:12.002Z</time></trkpt><trkpt lat="43.12890632947735" lon="11.61078738142063"><ele>352.5</ele><time>2026-03-29T08:14:13.002Z</time></trkpt><trkpt lat="43.12891344599813" lon="11.610601058424812"><ele>352.0</ele><time>2026-03-29T08:14:14.002Z</time></trkpt><trkpt lat="43.12890522656368" lon="11.610417831531986"><ele>353.75</ele><time>2026-03-29T08:14:15.002Z</time></trkpt><trkpt lat="43.12886098199183" lon="11.610239450247368"><ele>355.5</ele><time>2026-03-29T08:14:16.002Z</time></trkpt><trkpt lat="43.12883540185041" lon="11.610047789466961"><ele>357.25</ele><time>2026-03-29T08:14:17.002Z</time></trkpt><trkpt lat="43.12878097387295" lon="11.609851947889187"><ele>359.0</ele><time>2026-03-29T08:14:18.002Z</time></trkpt><trkpt lat="43.128708158053875" lon="11.609664561252732"><ele>362.33333333333337</ele><time>2026-03-29T08:14:19.002Z</time></trkpt><trkpt lat="43.12862900125081" lon="11.60947283983243"><ele>365.6666666666667</ele><time>2026-03-29T08:14:20.002Z</time></trkpt><trkpt lat="43.12852610785185" lon="11.60929277115564"><ele>369.0</ele><time>2026-03-29T08:14:21.002Z</time></trkpt><trkpt lat="43.12843881549046" lon="11.609103576010845"><ele>369.0</ele><time>2026-03-29T08:14:22.002Z</time></trkpt><trkpt lat="43.12838372305295" lon="11.608901399021544"><ele>369.0</ele><time>2026-03-29T08:14:23.002Z</time></trkpt><trkpt lat="43.12832450957757" lon="11.608727479337578"><ele>369.0</ele><time>2026-03-29T08:14:24.002Z</time></trkpt><trkpt lat="43.128266537532944" lon="11.608563567361514"><ele>369.0</ele><time>2026-03-29T08:14:25.002Z</time></trkpt><trkpt lat="43.12819382215154" lon="11.608404877232852"><ele>367.0</ele><time>2026-03-29T08:14:26.002Z</time></trkpt><trkpt lat="43.12810242865891" lon="11.608241496549903"><ele>365.0</ele><time>2026-03-29T08:14:27.002Z</time></trkpt><trkpt lat="43.12799497067658" lon="11.608104907608451"><ele>363.0</ele><time>2026-03-29T08:14:28.002Z</time></trkpt><trkpt lat="43.127899638373854" lon="11.607968159661066"><ele>361.0</ele><time>2026-03-29T08:14:29.002Z</time></trkpt><trkpt lat="43.12780750982812" lon="11.607828070821775"><ele>363.25</ele><time>2026-03-29T08:14:30.002Z</time></trkpt><trkpt lat="43.12773932574235" lon="11.607660052064507"><ele>365.5</ele><time>2026-03-29T08:14:31.002Z</time></trkpt><trkpt lat="43.127674476113555" lon="11.607479789329933"><ele>367.75</ele><time>2026-03-29T08:14:32.002Z</time></trkpt><trkpt lat="43.12761624795286" lon="11.607309185133094"><ele>370.0</ele><time>2026-03-29T08:14:33.002Z</time></trkpt><trkpt lat="43.12756985944599" lon="11.607168124270165"><ele>370.0</ele><time>2026-03-29T08:14:34.002Z</time></trkpt><trkpt lat="43.127528379256454" lon="11.60706097708088"><ele>370.0</ele><time>2026-03-29T08:14:35.002Z</time></trkpt><trkpt lat="43.12749299709896" lon="11.606969004549999"><ele>370.0</ele><time>2026-03-29T08:14:36.002Z</time></trkpt><trkpt lat="43.127463906278706" lon="11.606861483990938"><ele>370.0</ele><time>2026-03-29T08:14:37.002Z</time></trkpt><trkpt lat="43.127434104685264" lon="11.606729478220956"><ele>370.0</ele><time>2026-03-29T08:14:38.002Z</time></trkpt><trkpt lat="43.12740016970581" lon="11.606594133882528"><ele>368.4</ele><time>2026-03-29T08:14:39.002Z</time></trkpt><trkpt lat="43.12738402798923" lon="11.60644985019309"><ele>366.8</ele><time>2026-03-29T08:14:40.002Z</time></trkpt><trkpt lat="43.12735699384069" lon="11.606316433300243"><ele>365.20000000000005</ele><time>2026-03-29T08:14:41.002Z</time></trkpt><trkpt lat="43.12733552874592" lon="11.606196900185978"><ele>363.6</ele><time>2026-03-29T08:14:42.002Z</time></trkpt><trkpt lat="43.127308776156276" lon="11.606067370251008"><ele>362.0</ele><time>2026-03-29T08:14:43.002Z</time></trkpt><trkpt lat="43.12726572072001" lon="11.60593134959305"><ele>362.0</ele><time>2026-03-29T08:14:44.002Z</time></trkpt><trkpt lat="43.127198696683706" lon="11.605797570349381"><ele>362.0</ele><time>2026-03-29T08:14:45.002Z</time></trkpt><trkpt lat="43.12711535218517" lon="11.605664973625231"><ele>362.0</ele><time>2026-03-29T08:14:46.002Z</time></trkpt><trkpt lat="43.12701260510314" lon="11.605542508084124"><ele>362.0</ele><time>2026-03-29T08:14:47.002Z</time></trkpt><trkpt lat="43.12689481736412" lon="11.605427435019187"><ele>362.25</ele><time>2026-03-29T08:14:48.002Z</time></trkpt><trkpt lat="43.126779104601574" lon="11.605327041990284"><ele>362.5</ele><time>2026-03-29T08:14:49.002Z</time></trkpt><trkpt lat="43.126666623029635" lon="11.605226970022748"><ele>362.75</ele><time>2026-03-29T08:14:50.002Z</time></trkpt><trkpt lat="43.12655895413711" lon="11.605116494892117"><ele>363.0</ele><time>2026-03-29T08:14:51.003Z</time></trkpt><trkpt lat="43.126471906178814" lon="11.604969964479633"><ele>362.3333333333333</ele><time>2026-03-29T08:14:52.003Z</time></trkpt><trkpt lat="43.12638436977952" lon="11.604814297901383"><ele>361.66666666666663</ele><time>2026-03-29T08:14:53.003Z</time></trkpt><trkpt lat="43.12630233421325" lon="11.604633668685873"><ele>361.0</ele><time>2026-03-29T08:14:54.003Z</time></trkpt><trkpt lat="43.12621605224422" lon="11.604425184569392"><ele>362.66666666666663</ele><time>2026-03-29T08:14:55.003Z</time></trkpt><trkpt lat="43.12612057133951" lon="11.60422803814354"><ele>364.3333333333333</ele><time>2026-03-29T08:14:56.003Z</time></trkpt><trkpt lat="43.126035626034074" lon="11.60402556881198"><ele>366.0</ele><time>2026-03-29T08:14:57.003Z</time></trkpt><trkpt lat="43.125969862710335" lon="11.60382186822981"><ele>365.6666666666667</ele><time>2026-03-29T08:14:58.003Z</time></trkpt><trkpt lat="43.12587616712314" lon="11.603644361857281"><ele>365.33333333333337</ele><time>2026-03-29T08:14:59.003Z</time></trkpt><trkpt lat="43.12579525245989" lon="11.603449768107355"><ele>365.0</ele><time>2026-03-29T08:15:00.003Z</time></trkpt><trkpt lat="43.12572572629185" lon="11.603241925142303"><ele>364.0</ele><time>2026-03-29T08:15:01.003Z</time></trkpt><trkpt lat="43.1256350088073" lon="11.603057397532746"><ele>363.0</ele><time>2026-03-29T08:15:02.003Z</time></trkpt><trkpt lat="43.12556448892021" lon="11.60285117927086"><ele>362.0</ele><time>2026-03-29T08:15:03.003Z</time></trkpt><trkpt lat="43.125484632771986" lon="11.602658429888923"><ele>362.0</ele><time>2026-03-29T08:15:04.003Z</time></trkpt><trkpt lat="43.12540545096986" lon="11.6024694779963"><ele>362.0</ele><time>2026-03-29T08:15:05.003Z</time></trkpt><trkpt lat="43.12532891825287" lon="11.602286825496611"><ele>362.0</ele><time>2026-03-29T08:15:06.003Z</time></trkpt><trkpt lat="43.125253688271435" lon="11.60210398147373"><ele>363.6666666666667</ele><time>2026-03-29T08:15:07.003Z</time></trkpt><trkpt lat="43.12517887722813" lon="11.601922017539144"><ele>365.3333333333333</ele><time>2026-03-29T08:15:08.003Z</time></trkpt><trkpt lat="43.12510541122838" lon="11.601731604040491"><ele>367.0</ele><time>2026-03-29T08:15:09.003Z</time></trkpt><trkpt lat="43.125042143088265" lon="11.601532166026317"><ele>367.0</ele><time>2026-03-29T08:15:10.003Z</time></trkpt><trkpt lat="43.12497376259208" lon="11.601339345344725"><ele>367.0</ele><time>2026-03-29T08:15:11.003Z</time></trkpt><trkpt lat="43.12490842269587" lon="11.60114867921214"><ele>367.0</ele><time>2026-03-29T08:15:12.003Z</time></trkpt><trkpt lat="43.12484692758444" lon="11.600965678644089"><ele>366.0</ele><time>2026-03-29T08:15:13.003Z</time></trkpt><trkpt lat="43.12478509695834" lon="11.600794813543786"><ele>365.0</ele><time>2026-03-29T08:15:14.003Z</time></trkpt><trkpt lat="43.124718844220595" lon="11.600632593442707"><ele>364.0</ele><time>2026-03-29T08:15:15.003Z</time></trkpt><trkpt lat="43.12464599339715" lon="11.600468701731957"><ele>363.0</ele><time>2026-03-29T08:15:16.003Z</time></trkpt><trkpt lat="43.12456830188974" lon="11.600304986801603"><ele>365.0</ele><time>2026-03-29T08:15:17.003Z</time></trkpt><trkpt lat="43.124486998669326" lon="11.600144323712575"><ele>367.0</ele><time>2026-03-29T08:15:18.003Z</time></trkpt><trkpt lat="43.124403282014086" lon="11.599985577408253"><ele>369.0</ele><time>2026-03-29T08:15:19.003Z</time></trkpt><trkpt lat="43.12432366432822" lon="11.599841379233801"><ele>371.0</ele><time>2026-03-29T08:15:20.003Z</time></trkpt><trkpt lat="43.124251562871834" lon="11.599715191419403"><ele>371.0</ele><time>2026-03-29T08:15:21.003Z</time></trkpt><trkpt lat="43.124185676475086" lon="11.599597245875227"><ele>371.0</ele><time>2026-03-29T08:15:22.003Z</time></trkpt><trkpt lat="43.124136516429616" lon="11.599490027756094"><ele>371.0</ele><time>2026-03-29T08:15:23.003Z</time></trkpt><trkpt lat="43.12409402988676" lon="11.599391591774348"><ele>371.0</ele><time>2026-03-29T08:15:24.003Z</time></trkpt><trkpt lat="43.12405233874436" lon="11.599282705650625"><ele>371.0</ele><time>2026-03-29T08:15:25.003Z</time></trkpt><trkpt lat="43.124027241986084" lon="11.599154641083958"><ele>370.75</ele><time>2026-03-29T08:15:26.003Z</time></trkpt><trkpt lat="43.12403653786546" lon="11.599013620502523"><ele>370.5</ele><time>2026-03-29T08:15:27.003Z</time></trkpt><trkpt lat="43.12409349224749" lon="11.598888917646688"><ele>370.25</ele><time>2026-03-29T08:15:28.003Z</time></trkpt><trkpt lat="43.12414893714049" lon="11.598733868642782"><ele>370.0</ele><time>2026-03-29T08:15:29.003Z</time></trkpt><trkpt lat="43.124218845553465" lon="11.598560812759874"><ele>369.5</ele><time>2026-03-29T08:15:30.003Z</time></trkpt><trkpt lat="43.12426065086288" lon="11.598392021621152"><ele>369.0</ele><time>2026-03-29T08:15:31.003Z</time></trkpt><trkpt lat="43.12432790936863" lon="11.598239999598793"><ele>368.5</ele><time>2026-03-29T08:15:32.003Z</time></trkpt><trkpt lat="43.124364727167766" lon="11.59806133372041"><ele>368.0</ele><time>2026-03-29T08:15:33.003Z</time></trkpt><trkpt lat="43.12437571692019" lon="11.597862469843454"><ele>367.5</ele><time>2026-03-29T08:15:34.003Z</time></trkpt><trkpt lat="43.1243605556758" lon="11.597656847417902"><ele>367.0</ele><time>2026-03-29T08:15:35.003Z</time></trkpt><trkpt lat="43.12436339842044" lon="11.597456785373167"><ele>366.5</ele><time>2026-03-29T08:15:36.003Z</time></trkpt><trkpt lat="43.12438684637664" lon="11.597274468118913"><ele>366.0</ele><time>2026-03-29T08:15:37.003Z</time></trkpt><trkpt lat="43.124396516534084" lon="11.597113636869896"><ele>364.6</ele><time>2026-03-29T08:15:38.003Z</time></trkpt><trkpt lat="43.124405823837805" lon="11.596970225061785"><ele>363.20000000000005</ele><time>2026-03-29T08:15:39.003Z</time></trkpt><trkpt lat="43.12441389665442" lon="11.59684583517778"><ele>361.79999999999995</ele><time>2026-03-29T08:15:40.003Z</time></trkpt><trkpt lat="43.12442205736499" lon="11.59672767371517"><ele>360.4</ele><time>2026-03-29T08:15:41.003Z</time></trkpt><trkpt lat="43.12443527397006" lon="11.59659754223788"><ele>359.0</ele><time>2026-03-29T08:15:42.003Z</time></trkpt><trkpt lat="43.12444145695433" lon="11.59644236132072"><ele>359.0</ele><time>2026-03-29T08:15:43.003Z</time></trkpt><trkpt lat="43.12446161412587" lon="11.59624921774449"><ele>359.0</ele><time>2026-03-29T08:15:44.003Z</time></trkpt><trkpt lat="43.12448662125407" lon="11.596054017484038"><ele>359.0</ele><time>2026-03-29T08:15:45.003Z</time></trkpt><trkpt lat="43.12450910202614" lon="11.595892250189491"><ele>359.0</ele><time>2026-03-29T08:15:46.003Z</time></trkpt><trkpt lat="43.12451730284" lon="11.595739160968527"><ele>359.0</ele><time>2026-03-29T08:15:47.003Z</time></trkpt><trkpt lat="43.12450077693043" lon="11.59558108441594"><ele>359.0</ele><time>2026-03-29T08:15:48.003Z</time></trkpt><trkpt lat="43.12448093480884" lon="11.59541543282004"><ele>359.0</ele><time>2026-03-29T08:15:49.003Z</time></trkpt><trkpt lat="43.12444092020962" lon="11.595235232620983"><ele>359.0</ele><time>2026-03-29T08:15:50.003Z</time></trkpt><trkpt lat="43.124388388740066" lon="11.595051206059749"><ele>360.0</ele><time>2026-03-29T08:15:51.003Z</time></trkpt><trkpt lat="43.12434860201342" lon="11.59486570087106"><ele>361.0</ele><time>2026-03-29T08:15:52.003Z</time></trkpt><trkpt lat="43.124302890148584" lon="11.594730286396874"><ele>362.0</ele><time>2026-03-29T08:15:53.003Z</time></trkpt><trkpt lat="43.12425712391207" lon="11.594610091699407"><ele>363.0</ele><time>2026-03-29T08:15:54.003Z</time></trkpt><trkpt lat="43.1242241029489" lon="11.594486966010235"><ele>364.0</ele><time>2026-03-29T08:15:55.003Z</time></trkpt><trkpt lat="43.12419114083683" lon="11.594372924887978"><ele>364.3333333333333</ele><time>2026-03-29T08:15:56.003Z</time></trkpt><trkpt lat="43.12415928251017" lon="11.594267909075496"><ele>364.66666666666663</ele><time>2026-03-29T08:15:57.003Z</time></trkpt><trkpt lat="43.124142095945714" lon="11.594177435040933"><ele>365.0</ele><time>2026-03-29T08:15:58.003Z</time></trkpt><trkpt lat="43.1241313019806" lon="11.594052387954521"><ele>365.3333333333333</ele><time>2026-03-29T08:16:00.003Z</time></trkpt><trkpt lat="43.12412209205476" lon="11.593918777151881"><ele>365.6666666666667</ele><time>2026-03-29T08:16:02.003Z</time></trkpt><trkpt lat="43.124128777488046" lon="11.593787510890817"><ele>366.0</ele><time>2026-03-29T08:16:04.003Z</time></trkpt><trkpt lat="43.12413755000738" lon="11.593668581824442"><ele>366.6</ele><time>2026-03-29T08:16:06.003Z</time></trkpt><trkpt lat="43.12415755678055" lon="11.593529983608263"><ele>367.20000000000005</ele><time>2026-03-29T08:16:08.003Z</time></trkpt><trkpt lat="43.12416176922067" lon="11.593413218601672"><ele>367.79999999999995</ele><time>2026-03-29T08:16:10.003Z</time></trkpt><trkpt lat="43.12416210282255" lon="11.593307671969484"><ele>368.4</ele><time>2026-03-29T08:16:14.003Z</time></trkpt><trkpt lat="43.12428813882711" lon="11.593211878821627"><ele>369.0</ele><time>2026-03-29T08:16:19.003Z</time></trkpt><trkpt lat="43.124411663589825" lon="11.593170002752347"><ele>369.0</ele><time>2026-03-29T08:16:21.003Z</time></trkpt><trkpt lat="43.12447642571898" lon="11.593115709387765"><ele>369.0</ele><time>2026-03-29T08:16:22.003Z</time></trkpt><trkpt lat="43.124551706668946" lon="11.593097943918526"><ele>369.0</ele><time>2026-03-29T08:16:23.003Z</time></trkpt><trkpt lat="43.12462740250205" lon="11.593050875233253"><ele>369.0</ele><time>2026-03-29T08:16:24.003Z</time></trkpt><trkpt lat="43.12469687049378" lon="11.593002174508284"><ele>369.0</ele><time>2026-03-29T08:16:25.003Z</time></trkpt><trkpt lat="43.1247614199703" lon="11.592950989885765"><ele>369.0</ele><time>2026-03-29T08:16:26.003Z</time></trkpt><trkpt lat="43.124830467057926" lon="11.592901214027687"><ele>370.25</ele><time>2026-03-29T08:16:27.003Z</time></trkpt><trkpt lat="43.124911001837816" lon="11.592844978295995"><ele>371.5</ele><time>2026-03-29T08:16:28.003Z</time></trkpt><trkpt lat="43.125033766778635" lon="11.592797172549874"><ele>372.75</ele><time>2026-03-29T08:16:29.003Z</time></trkpt><trkpt lat="43.1251483873398" lon="11.59273324810728"><ele>374.0</ele><time>2026-03-29T08:16:30.003Z</time></trkpt><trkpt lat="43.125256677245346" lon="11.59267500944471"><ele>374.0</ele><time>2026-03-29T08:16:31.003Z</time></trkpt><trkpt lat="43.125350953766045" lon="11.592636609576344"><ele>374.0</ele><time>2026-03-29T08:16:32.003Z</time></trkpt><trkpt lat="43.12544167488127" lon="11.592612359368763"><ele>374.0</ele><time>2026-03-29T08:16:33.003Z</time></trkpt><trkpt lat="43.1255350908521" lon="11.592593786438268"><ele>374.0</ele><time>2026-03-29T08:16:34.003Z</time></trkpt><trkpt lat="43.12562514946744" lon="11.592568067910554"><ele>374.0</ele><time>2026-03-29T08:16:35.003Z</time></trkpt><trkpt lat="43.12571232817206" lon="11.592545926083739"><ele>371.5</ele><time>2026-03-29T08:16:36.002Z</time></trkpt><trkpt lat="43.12577628797851" lon="11.592520589897827"><ele>369.0</ele><time>2026-03-29T08:16:37.002Z</time></trkpt><trkpt lat="43.12584225822747" lon="11.592491522314406"><ele>366.5</ele><time>2026-03-29T08:16:38.002Z</time></trkpt><trkpt lat="43.12590408308636" lon="11.592461309962554"><ele>364.0</ele><time>2026-03-29T08:16:39.002Z</time></trkpt><trkpt lat="43.1259615518643" lon="11.5924107848572"><ele>361.5</ele><time>2026-03-29T08:16:40.002Z</time></trkpt><trkpt lat="43.126042230654996" lon="11.5923543616784"><ele>359.0</ele><time>2026-03-29T08:16:41.002Z</time></trkpt><trkpt lat="43.1261109275908" lon="11.592242461243474"><ele>359.0</ele><time>2026-03-29T08:16:42.002Z</time></trkpt><trkpt lat="43.126174956191214" lon="11.592125735543387"><ele>359.0</ele><time>2026-03-29T08:16:43.002Z</time></trkpt><trkpt lat="43.12624069659524" lon="11.591994446824899"><ele>359.0</ele><time>2026-03-29T08:16:44.002Z</time></trkpt><trkpt lat="43.12628743333308" lon="11.59185985802111"><ele>359.0</ele><time>2026-03-29T08:16:45.002Z</time></trkpt><trkpt lat="43.12633919622684" lon="11.591724011210555"><ele>359.0</ele><time>2026-03-29T08:16:46.002Z</time></trkpt><trkpt lat="43.12639602859649" lon="11.591610393875596"><ele>359.6</ele><time>2026-03-29T08:16:47.002Z</time></trkpt><trkpt lat="43.126431995027566" lon="11.591500532167286"><ele>360.2</ele><time>2026-03-29T08:16:48.002Z</time></trkpt><trkpt lat="43.12646368196914" lon="11.59139934923886"><ele>360.8</ele><time>2026-03-29T08:16:49.002Z</time></trkpt><trkpt lat="43.12648436132477" lon="11.591287275043914"><ele>361.40000000000003</ele><time>2026-03-29T08:16:50.002Z</time></trkpt><trkpt lat="43.126482713952974" lon="11.591147869458293"><ele>362.0</ele><time>2026-03-29T08:16:51.002Z</time></trkpt><trkpt lat="43.12644230499484" lon="11.591002641614939"><ele>360.1666666666667</ele><time>2026-03-29T08:16:52.002Z</time></trkpt><trkpt lat="43.12641490388303" lon="11.590896372959302"><ele>358.33333333333337</ele><time>2026-03-29T08:16:53.003Z</time></trkpt><trkpt lat="43.12638307797536" lon="11.59079792944241"><ele>356.5</ele><time>2026-03-29T08:16:54.003Z</time></trkpt><trkpt lat="43.126354915068774" lon="11.59071237718512"><ele>354.6666666666667</ele><time>2026-03-29T08:16:55.003Z</time></trkpt><trkpt lat="43.126329133129644" lon="11.590613954418675"><ele>352.8333333333333</ele><time>2026-03-29T08:16:56.003Z</time></trkpt><trkpt lat="43.12630930412371" lon="11.590507394957712"><ele>351.0</ele><time>2026-03-29T08:16:57.002Z</time></trkpt><trkpt lat="43.12630141534073" lon="11.590390130560934"><ele>348.20000000000005</ele><time>2026-03-29T08:16:58.002Z</time></trkpt><trkpt lat="43.126310755924244" lon="11.590289983275424"><ele>345.40000000000003</ele><time>2026-03-29T08:16:59.003Z</time></trkpt><trkpt lat="43.12633515040373" lon="11.590159371405496"><ele>342.6</ele><time>2026-03-29T08:17:00.003Z</time></trkpt><trkpt lat="43.12639575095363" lon="11.590037778740172"><ele>339.8</ele><time>2026-03-29T08:17:01.003Z</time></trkpt><trkpt lat="43.126449890844434" lon="11.58992959787648"><ele>337.0</ele><time>2026-03-29T08:17:02.003Z</time></trkpt><trkpt lat="43.126511331644316" lon="11.589827901292178"><ele>337.25</ele><time>2026-03-29T08:17:03.003Z</time></trkpt><trkpt lat="43.1265904590625" lon="11.589727154670804"><ele>337.5</ele><time>2026-03-29T08:17:04.003Z</time></trkpt><trkpt lat="43.12666327557618" lon="11.589620496976181"><ele>337.75</ele><time>2026-03-29T08:17:05.002Z</time></trkpt><trkpt lat="43.126748571164214" lon="11.589500287533038"><ele>338.0</ele><time>2026-03-29T08:17:06.003Z</time></trkpt><trkpt lat="43.1268300514289" lon="11.589385368717"><ele>338.0</ele><time>2026-03-29T08:17:07.003Z</time></trkpt><trkpt lat="43.126916413256936" lon="11.589266401568555"><ele>338.0</ele><time>2026-03-29T08:17:08.003Z</time></trkpt><trkpt lat="43.12699879800909" lon="11.589136882443423"><ele>338.0</ele><time>2026-03-29T08:17:09.003Z</time></trkpt><trkpt lat="43.1271009493977" lon="11.589017027940507"><ele>338.0</ele><time>2026-03-29T08:17:10.003Z</time></trkpt><trkpt lat="43.12718943119694" lon="11.588895445091556"><ele>338.0</ele><time>2026-03-29T08:17:11.003Z</time></trkpt><trkpt lat="43.127281549984346" lon="11.588772304016706"><ele>338.0</ele><time>2026-03-29T08:17:12.003Z</time></trkpt><trkpt lat="43.127368063465035" lon="11.58865326644284"><ele>338.0</ele><time>2026-03-29T08:17:13.003Z</time></trkpt><trkpt lat="43.12744562420993" lon="11.58853640529651"><ele>338.0</ele><time>2026-03-29T08:17:14.003Z</time></trkpt><trkpt lat="43.127521034113116" lon="11.58843434964186"><ele>337.59999999999997</ele><time>2026-03-29T08:17:15.003Z</time></trkpt><trkpt lat="43.12758510924705" lon="11.588335359892305"><ele>337.2</ele><time>2026-03-29T08:17:16.003Z</time></trkpt><trkpt lat="43.12765259811571" lon="11.588240888063135"><ele>336.8</ele><time>2026-03-29T08:17:17.003Z</time></trkpt><trkpt lat="43.127716301037694" lon="11.588146630204236"><ele>336.4</ele><time>2026-03-29T08:17:18.003Z</time></trkpt><trkpt lat="43.12777578975765" lon="11.58803144204186"><ele>336.0</ele><time>2026-03-29T08:17:19.003Z</time></trkpt><trkpt lat="43.12784555359688" lon="11.5879013089317"><ele>335.5</ele><time>2026-03-29T08:17:20.003Z</time></trkpt><trkpt lat="43.12789302523688" lon="11.587730412281184"><ele>335.0</ele><time>2026-03-29T08:17:21.003Z</time></trkpt><trkpt lat="43.127928915858185" lon="11.587545738696127"><ele>334.5</ele><time>2026-03-29T08:17:22.003Z</time></trkpt><trkpt lat="43.12795397707456" lon="11.587339483614835"><ele>334.0</ele><time>2026-03-29T08:17:23.003Z</time></trkpt><trkpt lat="43.12800358585307" lon="11.587140282674566"><ele>333.25</ele><time>2026-03-29T08:17:24.003Z</time></trkpt><trkpt lat="43.128030609580875" lon="11.58694405073792"><ele>332.5</ele><time>2026-03-29T08:17:25.003Z</time></trkpt><trkpt lat="43.128051181096524" lon="11.586766967234492"><ele>331.75</ele><time>2026-03-29T08:17:26.003Z</time></trkpt><trkpt lat="43.12810395504772" lon="11.58660844164996"><ele>331.0</ele><time>2026-03-29T08:17:27.003Z</time></trkpt><trkpt lat="43.12812997411138" lon="11.5864506445514"><ele>331.0</ele><time>2026-03-29T08:17:28.003Z</time></trkpt><trkpt lat="43.12816182853942" lon="11.58631391250775"><ele>331.0</ele><time>2026-03-29T08:17:29.003Z</time></trkpt><trkpt lat="43.1281958723535" lon="11.586184299668417"><ele>331.0</ele><time>2026-03-29T08:17:30.003Z</time></trkpt><trkpt lat="43.12822130303607" lon="11.58604174736935"><ele>331.0</ele><time>2026-03-29T08:17:31.003Z</time></trkpt><trkpt lat="43.12823960395239" lon="11.585883626327584"><ele>331.0</ele><time>2026-03-29T08:17:32.003Z</time></trkpt><trkpt lat="43.12824939558221" lon="11.585747840166146"><ele>329.6</ele><time>2026-03-29T08:17:33.003Z</time></trkpt><trkpt lat="43.12827421695393" lon="11.585609594866018"><ele>328.20000000000005</ele><time>2026-03-29T08:17:34.003Z</time></trkpt><trkpt lat="43.128269917229034" lon="11.585465987516107"><ele>326.79999999999995</ele><time>2026-03-29T08:17:35.003Z</time></trkpt><trkpt lat="43.1282933811441" lon="11.585330385068586"><ele>325.4</ele><time>2026-03-29T08:17:36.003Z</time></trkpt><trkpt lat="43.12830082919026" lon="11.585199016594132"><ele>324.0</ele><time>2026-03-29T08:17:37.003Z</time></trkpt><trkpt lat="43.1283110238766" lon="11.58507668379887"><ele>323.2</ele><time>2026-03-29T08:17:38.003Z</time></trkpt><trkpt lat="43.128320042259304" lon="11.584941490571618"><ele>322.4</ele><time>2026-03-29T08:17:39.003Z</time></trkpt><trkpt lat="43.128328744122385" lon="11.584809100781111"><ele>321.6</ele><time>2026-03-29T08:17:40.003Z</time></trkpt><trkpt lat="43.12833799418852" lon="11.584678051480632"><ele>320.8</ele><time>2026-03-29T08:17:41.003Z</time></trkpt><trkpt lat="43.128352431360526" lon="11.584546157004354"><ele>320.0</ele><time>2026-03-29T08:17:42.003Z</time></trkpt><trkpt lat="43.12838595072905" lon="11.584405799416512"><ele>318.0</ele><time>2026-03-29T08:17:43.003Z</time></trkpt><trkpt lat="43.12842663899365" lon="11.584256288899804"><ele>316.0</ele><time>2026-03-29T08:17:44.003Z</time></trkpt><trkpt lat="43.12848750789675" lon="11.58412171392883"><ele>314.0</ele><time>2026-03-29T08:17:45.003Z</time></trkpt><trkpt lat="43.1285589736674" lon="11.583993401227833"><ele>312.0</ele><time>2026-03-29T08:17:46.003Z</time></trkpt><trkpt lat="43.12864194158141" lon="11.58388489046884"><ele>312.0</ele><time>2026-03-29T08:17:47.003Z</time></trkpt><trkpt lat="43.12874174728336" lon="11.583825594456885"><ele>312.0</ele><time>2026-03-29T08:17:48.003Z</time></trkpt><trkpt lat="43.12884469646202" lon="11.583774883920283"><ele>312.0</ele><time>2026-03-29T08:17:49.003Z</time></trkpt><trkpt lat="43.12895627198398" lon="11.58371370453302"><ele>312.0</ele><time>2026-03-29T08:17:50.003Z</time></trkpt><trkpt lat="43.12905691630934" lon="11.58365971843138"><ele>312.0</ele><time>2026-03-29T08:17:51.003Z</time></trkpt><trkpt lat="43.129131939707314" lon="11.58355851606825"><ele>308.4</ele><time>2026-03-29T08:17:52.003Z</time></trkpt><trkpt lat="43.129173278867846" lon="11.583422661744178"><ele>304.79999999999995</ele><time>2026-03-29T08:17:53.003Z</time></trkpt><trkpt lat="43.12921527941353" lon="11.583289694697077"><ele>301.2</ele><time>2026-03-29T08:17:54.003Z</time></trkpt><trkpt lat="43.129236110483625" lon="11.583143469270102"><ele>297.59999999999997</ele><time>2026-03-29T08:17:55.003Z</time></trkpt><trkpt lat="43.12926883505387" lon="11.58300665963816"><ele>294.0</ele><time>2026-03-29T08:17:56.003Z</time></trkpt><trkpt lat="43.12930843730951" lon="11.58286343456329"><ele>291.25</ele><time>2026-03-29T08:17:57.003Z</time></trkpt><trkpt lat="43.129336833798334" lon="11.582692984735877"><ele>288.5</ele><time>2026-03-29T08:17:58.003Z</time></trkpt><trkpt lat="43.129360957918976" lon="11.58251403480306"><ele>285.75</ele><time>2026-03-29T08:17:59.003Z</time></trkpt><trkpt lat="43.12938553574128" lon="11.582322688878572"><ele>283.0</ele><time>2026-03-29T08:18:00.003Z</time></trkpt><trkpt lat="43.12941263654133" lon="11.58211660642731"><ele>279.0</ele><time>2026-03-29T08:18:01.003Z</time></trkpt><trkpt lat="43.129424613344405" lon="11.581898547162385"><ele>275.0</ele><time>2026-03-29T08:18:02.003Z</time></trkpt><trkpt lat="43.12946895495617" lon="11.581690158299526"><ele>271.0</ele><time>2026-03-29T08:18:03.003Z</time></trkpt><trkpt lat="43.12949612792421" lon="11.581486255210068"><ele>271.0</ele><time>2026-03-29T08:18:04.003Z</time></trkpt><trkpt lat="43.12950752433126" lon="11.581280547878503"><ele>271.0</ele><time>2026-03-29T08:18:05.003Z</time></trkpt><trkpt lat="43.12955201457046" lon="11.58108732043378"><ele>271.0</ele><time>2026-03-29T08:18:06.003Z</time></trkpt><trkpt lat="43.12957363776898" lon="11.580900808463936"><ele>271.0</ele><time>2026-03-29T08:18:07.003Z</time></trkpt><trkpt lat="43.12959790187285" lon="11.580717456025893"><ele>269.6</ele><time>2026-03-29T08:18:08.003Z</time></trkpt><trkpt lat="43.12962236225719" lon="11.58054904328557"><ele>268.20000000000005</ele><time>2026-03-29T08:18:09.003Z</time></trkpt><trkpt lat="43.12964457433182" lon="11.580395385648929"><ele>266.79999999999995</ele><time>2026-03-29T08:18:10.003Z</time></trkpt><trkpt lat="43.12966123537561" lon="11.580266201896652"><ele>265.4</ele><time>2026-03-29T08:18:11.003Z</time></trkpt><trkpt lat="43.12967511178658" lon="11.580139011993955"><ele>264.0</ele><time>2026-03-29T08:18:12.003Z</time></trkpt><trkpt lat="43.12970122657292" lon="11.57999874242715"><ele>263.5</ele><time>2026-03-29T08:18:13.003Z</time></trkpt><trkpt lat="43.1297448219382" lon="11.579840416880897"><ele>263.0</ele><time>2026-03-29T08:18:14.003Z</time></trkpt><trkpt lat="43.129813215261144" lon="11.579667914893417"><ele>262.5</ele><time>2026-03-29T08:18:15.003Z</time></trkpt><trkpt lat="43.12988083073014" lon="11.57952348984356"><ele>262.0</ele><time>2026-03-29T08:18:16.003Z</time></trkpt><trkpt lat="43.12994726456756" lon="11.57937803162107"><ele>262.0</ele><time>2026-03-29T08:18:17.003Z</time></trkpt><trkpt lat="43.1300184391712" lon="11.579229543420107"><ele>262.0</ele><time>2026-03-29T08:18:18.003Z</time></trkpt><trkpt lat="43.130087003869754" lon="11.579075260083448"><ele>262.0</ele><time>2026-03-29T08:18:19.003Z</time></trkpt><trkpt lat="43.13016561004091" lon="11.578935171163637"><ele>262.0</ele><time>2026-03-29T08:18:20.003Z</time></trkpt><trkpt lat="43.13021250188251" lon="11.578788288103546"><ele>261.6</ele><time>2026-03-29T08:18:21.003Z</time></trkpt><trkpt lat="43.13024384732267" lon="11.57864599475254"><ele>261.2</ele><time>2026-03-29T08:18:22.003Z</time></trkpt><trkpt lat="43.13026440670644" lon="11.57849580222508"><ele>260.8</ele><time>2026-03-29T08:18:23.003Z</time></trkpt><trkpt lat="43.13026729321893" lon="11.578344920091538"><ele>260.4</ele><time>2026-03-29T08:18:24.003Z</time></trkpt><trkpt lat="43.1302537481727" lon="11.57820986289419"><ele>260.0</ele><time>2026-03-29T08:18:25.003Z</time></trkpt><trkpt lat="43.130233581131925" lon="11.578085344706553"><ele>260.0</ele><time>2026-03-29T08:18:26.003Z</time></trkpt><trkpt lat="43.13019844827975" lon="11.577964274043751"><ele>260.0</ele><time>2026-03-29T08:18:27.003Z</time></trkpt><trkpt lat="43.130138933855065" lon="11.577839803456584"><ele>260.0</ele><time>2026-03-29T08:18:28.003Z</time></trkpt><trkpt lat="43.13006912412925" lon="11.577694535400937"><ele>260.0</ele><time>2026-03-29T08:18:29.003Z</time></trkpt><trkpt lat="43.12998749169056" lon="11.577556613961699"><ele>258.75</ele><time>2026-03-29T08:18:30.003Z</time></trkpt><trkpt lat="43.129901913433244" lon="11.577441484363488"><ele>257.5</ele><time>2026-03-29T08:18:31.003Z</time></trkpt><trkpt lat="43.129813414879685" lon="11.577345714858254"><ele>256.25</ele><time>2026-03-29T08:18:32.003Z</time></trkpt><trkpt lat="43.12972443166078" lon="11.577276390659332"><ele>255.0</ele><time>2026-03-29T08:18:33.003Z</time></trkpt><trkpt lat="43.12960360185164" lon="11.57730136757959"><ele>254.66666666666666</ele><time>2026-03-29T08:18:34.003Z</time></trkpt><trkpt lat="43.12951552425174" lon="11.577279426028959"><ele>254.33333333333331</ele><time>2026-03-29T08:18:35.003Z</time></trkpt><trkpt lat="43.12943287165331" lon="11.577269387259097"><ele>254.0</ele><time>2026-03-29T08:18:36.003Z</time></trkpt><trkpt lat="43.129348885118354" lon="11.577255379512932"><ele>253.66666666666666</ele><time>2026-03-29T08:18:37.003Z</time></trkpt><trkpt lat="43.12926891624707" lon="11.577216464893361"><ele>253.33333333333331</ele><time>2026-03-29T08:18:38.003Z</time></trkpt><trkpt lat="43.12919392021856" lon="11.577172271328259"><ele>253.0</ele><time>2026-03-29T08:18:39.003Z</time></trkpt><trkpt lat="43.12914260763231" lon="11.577079813982936"><ele>253.5</ele><time>2026-03-29T08:18:40.003Z</time></trkpt><trkpt lat="43.12911640399202" lon="11.576942520951585"><ele>254.0</ele><time>2026-03-29T08:18:41.003Z</time></trkpt><trkpt lat="43.12911315670236" lon="11.576794115282052"><ele>254.5</ele><time>2026-03-29T08:18:42.003Z</time></trkpt><trkpt lat="43.12912321160643" lon="11.576639558403327"><ele>255.0</ele><time>2026-03-29T08:18:43.003Z</time></trkpt><trkpt lat="43.129138243225995" lon="11.576467845049036"><ele>255.0</ele><time>2026-03-29T08:18:44.003Z</time></trkpt><trkpt lat="43.12914146984686" lon="11.576274909847822"><ele>255.0</ele><time>2026-03-29T08:18:45.003Z</time></trkpt><trkpt lat="43.129139865327076" lon="11.576054910122537"><ele>255.0</ele><time>2026-03-29T08:18:46.003Z</time></trkpt><trkpt lat="43.129152167122754" lon="11.575813763150865"><ele>255.75</ele><time>2026-03-29T08:18:47.003Z</time></trkpt><trkpt lat="43.12917066568406" lon="11.575593301231205"><ele>256.5</ele><time>2026-03-29T08:18:48.003Z</time></trkpt><trkpt lat="43.12918368963207" lon="11.575423353597888"><ele>257.25</ele><time>2026-03-29T08:18:49.003Z</time></trkpt><trkpt lat="43.129200294363216" lon="11.575293280697641"><ele>258.0</ele><time>2026-03-29T08:18:50.003Z</time></trkpt><trkpt lat="43.129216673573765" lon="11.57518215945068"><ele>258.4</ele><time>2026-03-29T08:18:51.003Z</time></trkpt><trkpt lat="43.129213934619436" lon="11.575038571210554"><ele>258.8</ele><time>2026-03-29T08:18:53.003Z</time></trkpt><trkpt lat="43.1293111779938" lon="11.57495477045123"><ele>259.2</ele><time>2026-03-29T08:18:55.003Z</time></trkpt><trkpt lat="43.12939611348249" lon="11.574910915050301"><ele>259.6</ele><time>2026-03-29T08:18:57.003Z</time></trkpt><trkpt lat="43.12949175175906" lon="11.574884247233339"><ele>260.0</ele><time>2026-03-29T08:18:59.002Z</time></trkpt><trkpt lat="43.12956636030033" lon="11.57486931372358"><ele>260.0</ele><time>2026-03-29T08:19:01.003Z</time></trkpt><trkpt lat="43.129669039184385" lon="11.574852967041828"><ele>260.0</ele><time>2026-03-29T08:19:21.003Z</time></trkpt><trkpt lat="43.12973732609126" lon="11.574859873155317"><ele>260.0</ele><time>2026-03-29T08:19:22.003Z</time></trkpt><trkpt lat="43.12981493853691" lon="11.574876418239743"><ele>260.0</ele><time>2026-03-29T08:19:23.003Z</time></trkpt><trkpt lat="43.12990671681959" lon="11.574903032650504"><ele>260.0</ele><time>2026-03-29T08:19:24.003Z</time></trkpt><trkpt lat="43.13001427780889" lon="11.574928113395005"><ele>260.0</ele><time>2026-03-29T08:19:25.003Z</time></trkpt><trkpt lat="43.13013039614537" lon="11.574948624267678"><ele>260.0</ele><time>2026-03-29T08:19:26.003Z</time></trkpt><trkpt lat="43.130246950544844" lon="11.575002207943456"><ele>260.0</ele><time>2026-03-29T08:19:27.003Z</time></trkpt><trkpt lat="43.13037427934516" lon="11.575018522913254"><ele>260.0</ele><time>2026-03-29T08:19:28.003Z</time></trkpt><trkpt lat="43.13048951946911" lon="11.575066802517133"><ele>260.0</ele><time>2026-03-29T08:19:29.003Z</time></trkpt><trkpt lat="43.1306005975243" lon="11.57508227476558"><ele>260.0</ele><time>2026-03-29T08:19:30.003Z</time></trkpt><trkpt lat="43.1306906916179" lon="11.575108309521156"><ele>260.0</ele><time>2026-03-29T08:19:31.003Z</time></trkpt><trkpt lat="43.13078013389463" lon="11.575137536565302"><ele>260.0</ele><time>2026-03-29T08:19:32.003Z</time></trkpt><trkpt lat="43.13088397634666" lon="11.575169444997023"><ele>260.0</ele><time>2026-03-29T08:19:33.003Z</time></trkpt><trkpt lat="43.13098848753368" lon="11.575201050645655"><ele>260.2</ele><time>2026-03-29T08:19:34.003Z</time></trkpt><trkpt lat="43.13109524164807" lon="11.575230618146067"><ele>260.4</ele><time>2026-03-29T08:19:35.003Z</time></trkpt><trkpt lat="43.13120342808469" lon="11.575260960150288"><ele>260.6</ele><time>2026-03-29T08:19:36.003Z</time></trkpt><trkpt lat="43.13131081263376" lon="11.575289765865483"><ele>260.8</ele><time>2026-03-29T08:19:37.003Z</time></trkpt><trkpt lat="43.1314181839722" lon="11.575316671550672"><ele>261.0</ele><time>2026-03-29T08:19:38.003Z</time></trkpt><trkpt lat="43.131527344446724" lon="11.575347545607361"><ele>261.5</ele><time>2026-03-29T08:19:39.003Z</time></trkpt><trkpt lat="43.13163835409923" lon="11.575381396001763"><ele>262.0</ele><time>2026-03-29T08:19:40.003Z</time></trkpt><trkpt lat="43.13174741459318" lon="11.575414173898956"><ele>262.5</ele><time>2026-03-29T08:19:41.003Z</time></trkpt><trkpt lat="43.13186341275487" lon="11.575437819465654"><ele>263.0</ele><time>2026-03-29T08:19:42.003Z</time></trkpt><trkpt lat="43.1319818818708" lon="11.575462145451027"><ele>263.0</ele><time>2026-03-29T08:19:43.003Z</time></trkpt><trkpt lat="43.13211490011331" lon="11.575489823259819"><ele>263.0</ele><time>2026-03-29T08:19:44.003Z</time></trkpt><trkpt lat="43.13224656623391" lon="11.575540915454578"><ele>263.0</ele><time>2026-03-29T08:19:45.003Z</time></trkpt><trkpt lat="43.132376468862425" lon="11.575581501163194"><ele>263.0</ele><time>2026-03-29T08:19:46.003Z</time></trkpt><trkpt lat="43.13250345570955" lon="11.57562170492792"><ele>263.5</ele><time>2026-03-29T08:19:47.003Z</time></trkpt><trkpt lat="43.132633722673994" lon="11.575644419702405"><ele>264.0</ele><time>2026-03-29T08:19:48.003Z</time></trkpt><trkpt lat="43.13276157131451" lon="11.575691664882521"><ele>264.5</ele><time>2026-03-29T08:19:49.003Z</time></trkpt><trkpt lat="43.132890669702846" lon="11.575739565700795"><ele>265.0</ele><time>2026-03-29T08:19:50.003Z</time></trkpt><trkpt lat="43.13301847315658" lon="11.575786926543003"><ele>265.0</ele><time>2026-03-29T08:19:51.003Z</time></trkpt><trkpt lat="43.13314844805632" lon="11.575830509993441"><ele>265.0</ele><time>2026-03-29T08:19:52.003Z</time></trkpt><trkpt lat="43.13328315642669" lon="11.575871312659254"><ele>265.0</ele><time>2026-03-29T08:19:53.003Z</time></trkpt><trkpt lat="43.13341727125753" lon="11.575908409566228"><ele>265.0</ele><time>2026-03-29T08:19:54.003Z</time></trkpt><trkpt lat="43.13354935123635" lon="11.575949087832294"><ele>265.0</ele><time>2026-03-29T08:19:55.003Z</time></trkpt><trkpt lat="43.13368924149643" lon="11.575998601060759"><ele>265.0</ele><time>2026-03-29T08:19:56.003Z</time></trkpt><trkpt lat="43.133830142682484" lon="11.576046449288022"><ele>265.0</ele><time>2026-03-29T08:19:57.003Z</time></trkpt><trkpt lat="43.13397168931616" lon="11.57609190918562"><ele>265.0</ele><time>2026-03-29T08:19:58.003Z</time></trkpt><trkpt lat="43.13411064752543" lon="11.576131351760187"><ele>265.25</ele><time>2026-03-29T08:19:59.003Z</time></trkpt><trkpt lat="43.1342366658257" lon="11.576169051010066"><ele>265.5</ele><time>2026-03-29T08:20:00.003Z</time></trkpt><trkpt lat="43.13435323141796" lon="11.57622364990889"><ele>265.75</ele><time>2026-03-29T08:20:01.003Z</time></trkpt><trkpt lat="43.13446297531562" lon="11.576260539140918"><ele>266.0</ele><time>2026-03-29T08:20:02.003Z</time></trkpt><trkpt lat="43.13457430172521" lon="11.57630580610287"><ele>265.25</ele><time>2026-03-29T08:20:03.003Z</time></trkpt><trkpt lat="43.134686266421156" lon="11.576354007117327"><ele>264.5</ele><time>2026-03-29T08:20:04.003Z</time></trkpt><trkpt lat="43.13480373423557" lon="11.576415330216753"><ele>263.75</ele><time>2026-03-29T08:20:05.003Z</time></trkpt><trkpt lat="43.13493180762434" lon="11.576496409610948"><ele>263.0</ele><time>2026-03-29T08:20:06.003Z</time></trkpt><trkpt lat="43.135075505132654" lon="11.576599621268945"><ele>263.0</ele><time>2026-03-29T08:20:07.003Z</time></trkpt><trkpt lat="43.1352330927166" lon="11.576730835853393"><ele>263.0</ele><time>2026-03-29T08:20:08.003Z</time></trkpt><trkpt lat="43.135382008096634" lon="11.576853382288116"><ele>263.0</ele><time>2026-03-29T08:20:09.003Z</time></trkpt><trkpt lat="43.135517809161726" lon="11.5769701238611"><ele>262.6666666666667</ele><time>2026-03-29T08:20:10.003Z</time></trkpt><trkpt lat="43.13564213145252" lon="11.577084454466577"><ele>262.3333333333333</ele><time>2026-03-29T08:20:11.003Z</time></trkpt><trkpt lat="43.13576805452078" lon="11.577192408223482"><ele>262.0</ele><time>2026-03-29T08:20:12.003Z</time></trkpt><trkpt lat="43.13590359157251" lon="11.577308176388945"><ele>262.0</ele><time>2026-03-29T08:20:13.003Z</time></trkpt><trkpt lat="43.13604297778381" lon="11.57743095243627"><ele>262.0</ele><time>2026-03-29T08:20:14.003Z</time></trkpt><trkpt lat="43.136170710175435" lon="11.577542109461376"><ele>262.0</ele><time>2026-03-29T08:20:15.003Z</time></trkpt><trkpt lat="43.13629780697738" lon="11.577645864375558"><ele>262.0</ele><time>2026-03-29T08:20:16.003Z</time></trkpt><trkpt lat="43.13641359701329" lon="11.577741828113776"><ele>262.0</ele><time>2026-03-29T08:20:17.003Z</time></trkpt><trkpt lat="43.13652103840963" lon="11.577833971691474"><ele>262.0</ele><time>2026-03-29T08:20:18.003Z</time></trkpt><trkpt lat="43.13661776169082" lon="11.577919502969568"><ele>262.0</ele><time>2026-03-29T08:20:19.003Z</time></trkpt><trkpt lat="43.13670502794104" lon="11.577999638385652"><ele>262.5</ele><time>2026-03-29T08:20:20.003Z</time></trkpt><trkpt lat="43.136794014062026" lon="11.57808514193484"><ele>263.0</ele><time>2026-03-29T08:20:21.003Z</time></trkpt><trkpt lat="43.136886973203104" lon="11.578168602121993"><ele>263.5</ele><time>2026-03-29T08:20:22.003Z</time></trkpt><trkpt lat="43.13698262570432" lon="11.578256194744448"><ele>264.0</ele><time>2026-03-29T08:20:23.003Z</time></trkpt><trkpt lat="43.137080244400025" lon="11.57834737049858"><ele>264.0</ele><time>2026-03-29T08:20:24.003Z</time></trkpt><trkpt lat="43.137165340558894" lon="11.578426750095836"><ele>264.0</ele><time>2026-03-29T08:20:25.003Z</time></trkpt><trkpt lat="43.13724723516095" lon="11.578499412966558"><ele>264.0</ele><time>2026-03-29T08:20:26.003Z</time></trkpt><trkpt lat="43.137307170155864" lon="11.578560460200128"><ele>264.0</ele><time>2026-03-29T08:20:27.003Z</time></trkpt><trkpt lat="43.13737781098952" lon="11.578643326362663"><ele>264.0</ele><time>2026-03-29T08:20:29.003Z</time></trkpt><trkpt lat="43.13761930872557" lon="11.578710675446581"><ele>264.6666666666667</ele><time>2026-03-29T08:20:32.003Z</time></trkpt><trkpt lat="43.13766286843974" lon="11.578633850164966"><ele>265.3333333333333</ele><time>2026-03-29T08:20:34.003Z</time></trkpt><trkpt lat="43.13773247364774" lon="11.578583233315028"><ele>266.0</ele><time>2026-03-29T08:20:39.003Z</time></trkpt><trkpt lat="43.13777511380126" lon="11.578463190369787"><ele>266.66666666666663</ele><time>2026-03-29T08:20:48.003Z</time></trkpt><trkpt lat="43.13781309675308" lon="11.578387818234166"><ele>267.3333333333333</ele><time>2026-03-29T08:20:49.003Z</time></trkpt><trkpt lat="43.13786237644232" lon="11.57830011450109"><ele>268.0</ele><time>2026-03-29T08:20:50.003Z</time></trkpt><trkpt lat="43.13791917671896" lon="11.578202977956764"><ele>268.0</ele><time>2026-03-29T08:20:51.003Z</time></trkpt><trkpt lat="43.13798730915211" lon="11.578079566083373"><ele>268.0</ele><time>2026-03-29T08:20:52.003Z</time></trkpt><trkpt lat="43.138072730467606" lon="11.577969059598345"><ele>268.0</ele><time>2026-03-29T08:20:53.003Z</time></trkpt><trkpt lat="43.13815556033935" lon="11.577828456915014"><ele>268.0</ele><time>2026-03-29T08:20:54.003Z</time></trkpt><trkpt lat="43.13825136732217" lon="11.57766696843388"><ele>269.75</ele><time>2026-03-29T08:20:55.003Z</time></trkpt><trkpt lat="43.13833435009598" lon="11.57752834037562"><ele>271.5</ele><time>2026-03-29T08:20:56.003Z</time></trkpt><trkpt lat="43.13841746058031" lon="11.577395562719689"><ele>273.25</ele><time>2026-03-29T08:20:57.003Z</time></trkpt><trkpt lat="43.13850276000292" lon="11.57725582380605"><ele>275.0</ele><time>2026-03-29T08:20:58.003Z</time></trkpt><trkpt lat="43.13858373636611" lon="11.577118803114777"><ele>275.6</ele><time>2026-03-29T08:20:59.003Z</time></trkpt><trkpt lat="43.138640631521795" lon="11.576986444022587"><ele>276.2</ele><time>2026-03-29T08:21:00.003Z</time></trkpt><trkpt lat="43.13869621069749" lon="11.576879885200865"><ele>276.8</ele><time>2026-03-29T08:21:01.003Z</time></trkpt><trkpt lat="43.13874304823608" lon="11.576748217892805"><ele>277.4</ele><time>2026-03-29T08:21:02.002Z</time></trkpt><trkpt lat="43.138778915097696" lon="11.576599824620326"><ele>278.0</ele><time>2026-03-29T08:21:03.002Z</time></trkpt><trkpt lat="43.1387951457994" lon="11.576419396490337"><ele>278.0</ele><time>2026-03-29T08:21:04.002Z</time></trkpt><trkpt lat="43.13879766154992" lon="11.576223083356235"><ele>278.0</ele><time>2026-03-29T08:21:05.003Z</time></trkpt><trkpt lat="43.13879864648286" lon="11.576024790151873"><ele>278.0</ele><time>2026-03-29T08:21:06.003Z</time></trkpt><trkpt lat="43.1387902891292" lon="11.575842230740873"><ele>278.0</ele><time>2026-03-29T08:21:07.003Z</time></trkpt><trkpt lat="43.13875116713547" lon="11.575665541238225"><ele>279.75</ele><time>2026-03-29T08:21:08.003Z</time></trkpt><trkpt lat="43.138719326919" lon="11.575515063785144"><ele>281.5</ele><time>2026-03-29T08:21:09.003Z</time></trkpt><trkpt lat="43.13866290869296" lon="11.575375660580407"><ele>283.25</ele><time>2026-03-29T08:21:10.003Z</time></trkpt><trkpt lat="43.13858280229705" lon="11.575244466275409"><ele>285.0</ele><time>2026-03-29T08:21:11.003Z</time></trkpt><trkpt lat="43.138487178107" lon="11.57510394778244"><ele>288.25</ele><time>2026-03-29T08:21:12.003Z</time></trkpt><trkpt lat="43.13835441855957" lon="11.574984839341305"><ele>291.5</ele><time>2026-03-29T08:21:13.003Z</time></trkpt><trkpt lat="43.13824649345466" lon="11.574844470404008"><ele>294.75</ele><time>2026-03-29T08:21:14.003Z</time></trkpt><trkpt lat="43.13814712442536" lon="11.574728977916719"><ele>298.0</ele><time>2026-03-29T08:21:15.003Z</time></trkpt><trkpt lat="43.13807387015332" lon="11.57460896946845"><ele>298.75</ele><time>2026-03-29T08:21:16.003Z</time></trkpt><trkpt lat="43.1380164500819" lon="11.574474634890526"><ele>299.5</ele><time>2026-03-29T08:21:17.003Z</time></trkpt><trkpt lat="43.137989211204065" lon="11.574324169925946"><ele>300.25</ele><time>2026-03-29T08:21:18.003Z</time></trkpt><trkpt lat="43.13800793997829" lon="11.574163349640068"><ele>301.0</ele><time>2026-03-29T08:21:19.003Z</time></trkpt><trkpt lat="43.13799580745568" lon="11.57395433280559"><ele>301.0</ele><time>2026-03-29T08:21:20.003Z</time></trkpt><trkpt lat="43.13799313172777" lon="11.573735342180177"><ele>301.0</ele><time>2026-03-29T08:21:21.003Z</time></trkpt><trkpt lat="43.13798245023128" lon="11.57350485748545"><ele>301.0</ele><time>2026-03-29T08:21:22.003Z</time></trkpt><trkpt lat="43.13797290575334" lon="11.573265884000893"><ele>300.25</ele><time>2026-03-29T08:21:23.003Z</time></trkpt><trkpt lat="43.13795969140028" lon="11.573043548405426"><ele>299.5</ele><time>2026-03-29T08:21:24.003Z</time></trkpt><trkpt lat="43.13795038562588" lon="11.57284829725956"><ele>298.75</ele><time>2026-03-29T08:21:25.003Z</time></trkpt><trkpt lat="43.1379416468885" lon="11.57267055972084"><ele>298.0</ele><time>2026-03-29T08:21:26.003Z</time></trkpt><trkpt lat="43.13794971787027" lon="11.572501530971458"><ele>297.2</ele><time>2026-03-29T08:21:27.003Z</time></trkpt><trkpt lat="43.13795114544903" lon="11.572347109835734"><ele>296.4</ele><time>2026-03-29T08:21:28.003Z</time></trkpt><trkpt lat="43.13796394447514" lon="11.572221058260812"><ele>295.59999999999997</ele><time>2026-03-29T08:21:29.003Z</time></trkpt><trkpt lat="43.137997660663125" lon="11.572106923227823"><ele>294.8</ele><time>2026-03-29T08:21:30.003Z</time></trkpt><trkpt lat="43.13805300438871" lon="11.57200977536917"><ele>294.0</ele><time>2026-03-29T08:21:31.003Z</time></trkpt><trkpt lat="43.13812035524185" lon="11.57192682436023"><ele>295.59999999999997</ele><time>2026-03-29T08:21:32.003Z</time></trkpt><trkpt lat="43.138226858558646" lon="11.571900212813775"><ele>297.2</ele><time>2026-03-29T08:21:33.003Z</time></trkpt><trkpt lat="43.13833528264711" lon="11.571829072929427"><ele>298.79999999999995</ele><time>2026-03-29T08:21:34.003Z</time></trkpt><trkpt lat="43.13844459323183" lon="11.571768605217237"><ele>300.4</ele><time>2026-03-29T08:21:35.003Z</time></trkpt><trkpt lat="43.13852667636759" lon="11.571697078691015"><ele>302.0</ele><time>2026-03-29T08:21:36.003Z</time></trkpt><trkpt lat="43.13860875190974" lon="11.571624767059623"><ele>302.0</ele><time>2026-03-29T08:21:37.003Z</time></trkpt><trkpt lat="43.13867779021383" lon="11.571505402073312"><ele>302.0</ele><time>2026-03-29T08:21:38.003Z</time></trkpt><trkpt lat="43.13871778567761" lon="11.57134165779005"><ele>302.0</ele><time>2026-03-29T08:21:39.003Z</time></trkpt><trkpt lat="43.13873960479603" lon="11.571183988115632"><ele>302.0</ele><time>2026-03-29T08:21:40.003Z</time></trkpt><trkpt lat="43.13872049365445" lon="11.571022573952835"><ele>301.5</ele><time>2026-03-29T08:21:41.003Z</time></trkpt><trkpt lat="43.13866202872518" lon="11.57088885038256"><ele>301.0</ele><time>2026-03-29T08:21:42.003Z</time></trkpt><trkpt lat="43.1386062613589" lon="11.570754344402815"><ele>300.5</ele><time>2026-03-29T08:21:43.003Z</time></trkpt><trkpt lat="43.13852467560335" lon="11.57062232257353"><ele>300.0</ele><time>2026-03-29T08:21:44.003Z</time></trkpt><trkpt lat="43.13847932625952" lon="11.570491246628618"><ele>300.0</ele><time>2026-03-29T08:21:45.003Z</time></trkpt><trkpt lat="43.138454395966825" lon="11.570373252309126"><ele>300.0</ele><time>2026-03-29T08:21:46.003Z</time></trkpt><trkpt lat="43.138452877824946" lon="11.57023895934267"><ele>300.0</ele><time>2026-03-29T08:21:47.003Z</time></trkpt><trkpt lat="43.13849184522156" lon="11.570081557975765"><ele>300.0</ele><time>2026-03-29T08:21:48.003Z</time></trkpt><trkpt lat="43.13852579305977" lon="11.56988834463694"><ele>301.25</ele><time>2026-03-29T08:21:49.003Z</time></trkpt><trkpt lat="43.13854465023471" lon="11.569695742120645"><ele>302.5</ele><time>2026-03-29T08:21:50.003Z</time></trkpt><trkpt lat="43.138548313813075" lon="11.569509435002384"><ele>303.75</ele><time>2026-03-29T08:21:51.003Z</time></trkpt><trkpt lat="43.13854144727108" lon="11.569327895466973"><ele>305.0</ele><time>2026-03-29T08:21:52.003Z</time></trkpt><trkpt lat="43.13852848614919" lon="11.569161186554737"><ele>305.2</ele><time>2026-03-29T08:21:53.003Z</time></trkpt><trkpt lat="43.138490870107184" lon="11.569005856289042"><ele>305.4</ele><time>2026-03-29T08:21:54.003Z</time></trkpt><trkpt lat="43.13846980040581" lon="11.56885818453482"><ele>305.6</ele><time>2026-03-29T08:21:55.003Z</time></trkpt><trkpt lat="43.13840713276846" lon="11.568741521702389"><ele>305.8</ele><time>2026-03-29T08:21:56.003Z</time></trkpt><trkpt lat="43.138357387105266" lon="11.568615046330391"><ele>306.0</ele><time>2026-03-29T08:21:57.003Z</time></trkpt><trkpt lat="43.1382788264339" lon="11.568503930560734"><ele>301.2</ele><time>2026-03-29T08:21:58.003Z</time></trkpt><trkpt lat="43.1381942221303" lon="11.568395656099664"><ele>296.40000000000003</ele><time>2026-03-29T08:21:59.003Z</time></trkpt><trkpt lat="43.13811369057135" lon="11.568293155792942"><ele>291.6</ele><time>2026-03-29T08:22:00.003Z</time></trkpt><trkpt lat="43.13804098818854" lon="11.568200198907089"><ele>286.8</ele><time>2026-03-29T08:22:01.003Z</time></trkpt><trkpt lat="43.13797539950543" lon="11.568107313057526"><ele>282.0</ele><time>2026-03-29T08:22:02.003Z</time></trkpt><trkpt lat="43.13792907994483" lon="11.568009519539322"><ele>282.0</ele><time>2026-03-29T08:22:03.003Z</time></trkpt><trkpt lat="43.13788989135932" lon="11.567906615259995"><ele>282.0</ele><time>2026-03-29T08:22:04.003Z</time></trkpt><trkpt lat="43.13786705766155" lon="11.56777544871745"><ele>282.0</ele><time>2026-03-29T08:22:05.003Z</time></trkpt><trkpt lat="43.137885151919676" lon="11.567623079132801"><ele>282.0</ele><time>2026-03-29T08:22:06.003Z</time></trkpt><trkpt lat="43.13789953976433" lon="11.567463017771734"><ele>282.0</ele><time>2026-03-29T08:22:07.003Z</time></trkpt><trkpt lat="43.13792220496284" lon="11.567307945551063"><ele>283.5</ele><time>2026-03-29T08:22:08.003Z</time></trkpt><trkpt lat="43.13792609883156" lon="11.567160729480673"><ele>285.0</ele><time>2026-03-29T08:22:09.003Z</time></trkpt><trkpt lat="43.13793747999767" lon="11.567013188989785"><ele>286.5</ele><time>2026-03-29T08:22:10.003Z</time></trkpt><trkpt lat="43.13793706808686" lon="11.566859291875772"><ele>288.0</ele><time>2026-03-29T08:22:11.003Z</time></trkpt><trkpt lat="43.13791992766248" lon="11.566690709296974"><ele>288.0</ele><time>2026-03-29T08:22:12.003Z</time></trkpt><trkpt lat="43.13792220225585" lon="11.566514831842843"><ele>288.0</ele><time>2026-03-29T08:22:13.003Z</time></trkpt><trkpt lat="43.137907032183016" lon="11.566339368811338"><ele>288.0</ele><time>2026-03-29T08:22:14.003Z</time></trkpt><trkpt lat="43.137895937794084" lon="11.566177235556555"><ele>288.0</ele><time>2026-03-29T08:22:15.003Z</time></trkpt><trkpt lat="43.137886749658875" lon="11.566016196008693"><ele>287.0</ele><time>2026-03-29T08:22:16.003Z</time></trkpt><trkpt lat="43.13787902295522" lon="11.565856677130117"><ele>286.0</ele><time>2026-03-29T08:22:17.003Z</time></trkpt><trkpt lat="43.13787440204853" lon="11.565706167554966"><ele>285.0</ele><time>2026-03-29T08:22:18.003Z</time></trkpt><trkpt lat="43.137868628725435" lon="11.565550052380122"><ele>284.0</ele><time>2026-03-29T08:22:19.003Z</time></trkpt><trkpt lat="43.137845273937764" lon="11.565400834770019"><ele>284.8</ele><time>2026-03-29T08:22:20.003Z</time></trkpt><trkpt lat="43.137834753930136" lon="11.565259494283119"><ele>285.59999999999997</ele><time>2026-03-29T08:22:21.003Z</time></trkpt><trkpt lat="43.13780642311394" lon="11.565129134074429"><ele>286.4</ele><time>2026-03-29T08:22:22.003Z</time></trkpt><trkpt lat="43.13775777956687" lon="11.565001087953666"><ele>287.2</ele><time>2026-03-29T08:22:23.003Z</time></trkpt><trkpt lat="43.137696947297854" lon="11.564884400523121"><ele>288.0</ele><time>2026-03-29T08:22:24.003Z</time></trkpt><trkpt lat="43.13763858228483" lon="11.56477702801905"><ele>288.0</ele><time>2026-03-29T08:22:25.003Z</time></trkpt><trkpt lat="43.1376010377073" lon="11.56465346135479"><ele>288.0</ele><time>2026-03-29T08:22:26.003Z</time></trkpt><trkpt lat="43.137550559422664" lon="11.564554507946326"><ele>288.0</ele><time>2026-03-29T08:22:27.003Z</time></trkpt><trkpt lat="43.13750082690271" lon="11.564465755873593"><ele>288.0</ele><time>2026-03-29T08:22:28.003Z</time></trkpt><trkpt lat="43.13742741244984" lon="11.56433276687271"><ele>288.0</ele><time>2026-03-29T08:22:30.003Z</time></trkpt><trkpt lat="43.137363125500876" lon="11.564309403957482"><ele>284.2</ele><time>2026-03-29T08:22:31.003Z</time></trkpt><trkpt lat="43.137285589867965" lon="11.564300019144655"><ele>280.4</ele><time>2026-03-29T08:22:32.002Z</time></trkpt><trkpt lat="43.13719476850649" lon="11.564327990649044"><ele>276.59999999999997</ele><time>2026-03-29T08:22:33.002Z</time></trkpt><trkpt lat="43.13709695912751" lon="11.564371040957091"><ele>272.8</ele><time>2026-03-29T08:22:34.001Z</time></trkpt><trkpt lat="43.13702586700137" lon="11.564453156324571"><ele>269.0</ele><time>2026-03-29T08:22:35.001Z</time></trkpt><trkpt lat="43.13698466650026" lon="11.564562484406725"><ele>269.0</ele><time>2026-03-29T08:22:36.001Z</time></trkpt><trkpt lat="43.136950939260515" lon="11.564667741064312"><ele>269.0</ele><time>2026-03-29T08:22:37Z</time></trkpt><trkpt lat="43.13694415138458" lon="11.564797135597832"><ele>269.0</ele><time>2026-03-29T08:22:38Z</time></trkpt><trkpt lat="43.136953813065254" lon="11.564918095762746"><ele>269.0</ele><time>2026-03-29T08:22:39Z</time></trkpt><trkpt lat="43.136997774888854" lon="11.565039257580368"><ele>269.0</ele><time>2026-03-29T08:22:40Z</time></trkpt><trkpt lat="43.13705494643858" lon="11.565171294498438"><ele>269.0</ele><time>2026-03-29T08:22:40.999Z</time></trkpt><trkpt lat="43.13711445215916" lon="11.565284960489"><ele>269.0</ele><time>2026-03-29T08:22:41.999Z</time></trkpt><trkpt lat="43.13716952702388" lon="11.565387366834333"><ele>269.0</ele><time>2026-03-29T08:22:42.999Z</time></trkpt><trkpt lat="43.13721241959688" lon="11.565509852702546"><ele>269.0</ele><time>2026-03-29T08:22:43.999Z</time></trkpt><trkpt lat="43.1372331282195" lon="11.56562731664528"><ele>269.0</ele><time>2026-03-29T08:22:44.999Z</time></trkpt><trkpt lat="43.137241441898944" lon="11.565757780564065"><ele>268.59999999999997</ele><time>2026-03-29T08:22:45.998Z</time></trkpt><trkpt lat="43.13722332494446" lon="11.56587096085785"><ele>268.2</ele><time>2026-03-29T08:22:46.998Z</time></trkpt><trkpt lat="43.1371878164119" lon="11.56597563367809"><ele>267.79999999999995</ele><time>2026-03-29T08:22:47.998Z</time></trkpt><trkpt lat="43.13712745923021" lon="11.566089700946188"><ele>267.4</ele><time>2026-03-29T08:22:48.998Z</time></trkpt><trkpt lat="43.13705815781211" lon="11.566188082761627"><ele>267.0</ele><time>2026-03-29T08:22:49.998Z</time></trkpt><trkpt lat="43.13697046713922" lon="11.566272470893553"><ele>267.8</ele><time>2026-03-29T08:22:50.998Z</time></trkpt><trkpt lat="43.136872912476164" lon="11.566340086092218"><ele>268.6</ele><time>2026-03-29T08:22:51.998Z</time></trkpt><trkpt lat="43.13677766259383" lon="11.56639308005439"><ele>269.40000000000003</ele><time>2026-03-29T08:22:52.997Z</time></trkpt><trkpt lat="43.13666510122892" lon="11.56641890844365"><ele>270.2</ele><time>2026-03-29T08:22:53.997Z</time></trkpt><trkpt lat="43.13655627097465" lon="11.566447541684903"><ele>271.0</ele><time>2026-03-29T08:22:54.997Z</time></trkpt><trkpt lat="43.13646217727736" lon="11.566491312229664"><ele>267.16666666666663</ele><time>2026-03-29T08:22:55.997Z</time></trkpt><trkpt lat="43.136377760622736" lon="11.566556098386899"><ele>263.3333333333333</ele><time>2026-03-29T08:22:56.997Z</time></trkpt><trkpt lat="43.13629291401063" lon="11.566563707504482"><ele>259.5</ele><time>2026-03-29T08:22:57.997Z</time></trkpt><trkpt lat="43.136229923036645" lon="11.566572938266043"><ele>255.66666666666669</ele><time>2026-03-29T08:22:58.997Z</time></trkpt><trkpt lat="43.13615570979113" lon="11.566532945349696"><ele>251.83333333333334</ele><time>2026-03-29T08:23:00.997Z</time></trkpt><trkpt lat="43.13608496055634" lon="11.566403294906832"><ele>248.0</ele><time>2026-03-29T08:23:02.997Z</time></trkpt><trkpt lat="43.136115760783696" lon="11.56628527126922"><ele>248.0</ele><time>2026-03-29T08:23:03.997Z</time></trkpt><trkpt lat="43.13617249659194" lon="11.566189271180566"><ele>248.0</ele><time>2026-03-29T08:23:04.997Z</time></trkpt><trkpt lat="43.136237060898004" lon="11.566089608236034"><ele>248.0</ele><time>2026-03-29T08:23:05.996Z</time></trkpt><trkpt lat="43.136300743046505" lon="11.566002130833771"><ele>248.0</ele><time>2026-03-29T08:23:06.996Z</time></trkpt><trkpt lat="43.13634545942689" lon="11.565884027929654"><ele>248.0</ele><time>2026-03-29T08:23:07.996Z</time></trkpt><trkpt lat="43.136399127916526" lon="11.5657941630218"><ele>248.0</ele><time>2026-03-29T08:23:08.996Z</time></trkpt><trkpt lat="43.13640721130513" lon="11.565667908208692"><ele>248.0</ele><time>2026-03-29T08:23:09.996Z</time></trkpt><trkpt lat="43.13637771802341" lon="11.565529433063384"><ele>248.0</ele><time>2026-03-29T08:23:10.997Z</time></trkpt><trkpt lat="43.136318392067594" lon="11.565415982983824"><ele>248.0</ele><time>2026-03-29T08:23:11.997Z</time></trkpt><trkpt lat="43.13624031289281" lon="11.565322384463105"><ele>248.0</ele><time>2026-03-29T08:23:12.997Z</time></trkpt><trkpt lat="43.136155357034035" lon="11.5652529776095"><ele>247.4</ele><time>2026-03-29T08:23:13.997Z</time></trkpt><trkpt lat="43.136104145582415" lon="11.56516048596833"><ele>246.8</ele><time>2026-03-29T08:23:14.997Z</time></trkpt><trkpt lat="43.13606426883469" lon="11.565075653813446"><ele>246.2</ele><time>2026-03-29T08:23:15.997Z</time></trkpt><trkpt lat="43.13603916325385" lon="11.56495495647728"><ele>245.6</ele><time>2026-03-29T08:23:16.997Z</time></trkpt><trkpt lat="43.136023705598646" lon="11.56482269680532"><ele>245.0</ele><time>2026-03-29T08:23:17.997Z</time></trkpt><trkpt lat="43.1360491612508" lon="11.564676533220238"><ele>245.0</ele><time>2026-03-29T08:23:18.997Z</time></trkpt><trkpt lat="43.136095040202754" lon="11.564532879041803"><ele>245.0</ele><time>2026-03-29T08:23:19.997Z</time></trkpt><trkpt lat="43.136162705093916" lon="11.564400036961109"><ele>245.0</ele><time>2026-03-29T08:23:20.997Z</time></trkpt><trkpt lat="43.13622830384869" lon="11.564280013512555"><ele>245.0</ele><time>2026-03-29T08:23:21.997Z</time></trkpt><trkpt lat="43.13628120158333" lon="11.564155728723463"><ele>245.0</ele><time>2026-03-29T08:23:22.997Z</time></trkpt><trkpt lat="43.136327639739925" lon="11.564037827759194"><ele>244.2</ele><time>2026-03-29T08:23:23.997Z</time></trkpt><trkpt lat="43.13635834347084" lon="11.563919466155255"><ele>243.4</ele><time>2026-03-29T08:23:24.997Z</time></trkpt><trkpt lat="43.13637280559817" lon="11.563791085329424"><ele>242.60000000000002</ele><time>2026-03-29T08:23:25.997Z</time></trkpt><trkpt lat="43.13638415169079" lon="11.563637493523169"><ele>241.8</ele><time>2026-03-29T08:23:26.997Z</time></trkpt><trkpt lat="43.136364003348454" lon="11.56349691522697"><ele>241.0</ele><time>2026-03-29T08:23:27.997Z</time></trkpt><trkpt lat="43.1363223534374" lon="11.563363673038229"><ele>241.0</ele><time>2026-03-29T08:23:28.997Z</time></trkpt><trkpt lat="43.13624008027161" lon="11.563247724672507"><ele>241.0</ele><time>2026-03-29T08:23:29.997Z</time></trkpt><trkpt lat="43.13615937723338" lon="11.56309818686853"><ele>241.0</ele><time>2026-03-29T08:23:30.997Z</time></trkpt><trkpt lat="43.136056737575956" lon="11.562977635886387"><ele>241.0</ele><time>2026-03-29T08:23:31.997Z</time></trkpt><trkpt lat="43.135946202778996" lon="11.562870461159793"><ele>243.0</ele><time>2026-03-29T08:23:32.997Z</time></trkpt><trkpt lat="43.13584402821795" lon="11.562748086890684"><ele>245.0</ele><time>2026-03-29T08:23:33.997Z</time></trkpt><trkpt lat="43.135741027660046" lon="11.5626214195938"><ele>247.0</ele><time>2026-03-29T08:23:34.997Z</time></trkpt><trkpt lat="43.1356390512573" lon="11.56249558369664"><ele>249.0</ele><time>2026-03-29T08:23:35.997Z</time></trkpt><trkpt lat="43.13554797332336" lon="11.562354559362397"><ele>245.0</ele><time>2026-03-29T08:23:36.997Z</time></trkpt><trkpt lat="43.1354554008166" lon="11.562222796382386"><ele>241.0</ele><time>2026-03-29T08:23:37.997Z</time></trkpt><trkpt lat="43.13536883945725" lon="11.562076487935702"><ele>237.0</ele><time>2026-03-29T08:23:38.997Z</time></trkpt><trkpt lat="43.135288725942054" lon="11.561915235093112"><ele>233.0</ele><time>2026-03-29T08:23:39.997Z</time></trkpt><trkpt lat="43.135202265183544" lon="11.561769670315579"><ele>233.0</ele><time>2026-03-29T08:23:40.997Z</time></trkpt><trkpt lat="43.135116969127864" lon="11.561618122986173"><ele>233.0</ele><time>2026-03-29T08:23:41.997Z</time></trkpt><trkpt lat="43.13502989530325" lon="11.561456211436294"><ele>233.0</ele><time>2026-03-29T08:23:42.997Z</time></trkpt><trkpt lat="43.134945392508826" lon="11.561287266323612"><ele>233.0</ele><time>2026-03-29T08:23:43.997Z</time></trkpt><trkpt lat="43.13486053925523" lon="11.5611268390756"><ele>227.75</ele><time>2026-03-29T08:23:44.997Z</time></trkpt><trkpt lat="43.13477654470922" lon="11.560968681676137"><ele>222.5</ele><time>2026-03-29T08:23:45.997Z</time></trkpt><trkpt lat="43.13469626370113" lon="11.560816528753497"><ele>217.25</ele><time>2026-03-29T08:23:46.997Z</time></trkpt><trkpt lat="43.134614141196714" lon="11.560668602583952"><ele>212.0</ele><time>2026-03-29T08:23:47.997Z</time></trkpt><trkpt lat="43.13453525289147" lon="11.560525817004272"><ele>212.0</ele><time>2026-03-29T08:23:48.997Z</time></trkpt><trkpt lat="43.134476193151606" lon="11.560371330623816"><ele>212.0</ele><time>2026-03-29T08:23:49.997Z</time></trkpt><trkpt lat="43.13439921725031" lon="11.56023848268622"><ele>212.0</ele><time>2026-03-29T08:23:50.996Z</time></trkpt><trkpt lat="43.13432173705715" lon="11.560108325583029"><ele>212.0</ele><time>2026-03-29T08:23:51.996Z</time></trkpt><trkpt lat="43.134253836580676" lon="11.559987038670132"><ele>212.66666666666669</ele><time>2026-03-29T08:23:52.996Z</time></trkpt><trkpt lat="43.13419323731976" lon="11.559872870794406"><ele>213.33333333333334</ele><time>2026-03-29T08:23:53.996Z</time></trkpt><trkpt lat="43.13413697816951" lon="11.559763683856616"><ele>214.0</ele><time>2026-03-29T08:23:54.996Z</time></trkpt><trkpt lat="43.13408301797513" lon="11.559665192363928"><ele>214.66666666666669</ele><time>2026-03-29T08:23:55.996Z</time></trkpt><trkpt lat="43.13404170966642" lon="11.559579901871713"><ele>215.33333333333334</ele><time>2026-03-29T08:23:56.996Z</time></trkpt><trkpt lat="43.134012391073895" lon="11.559492724688205"><ele>216.0</ele><time>2026-03-29T08:23:57.996Z</time></trkpt><trkpt lat="43.13401187227001" lon="11.559378445416709"><ele>212.8</ele><time>2026-03-29T08:23:58.996Z</time></trkpt><trkpt lat="43.13400158342409" lon="11.559215465272208"><ele>209.60000000000002</ele><time>2026-03-29T08:24:00.996Z</time></trkpt><trkpt lat="43.13400407039011" lon="11.559039471620906"><ele>206.4</ele><time>2026-03-29T08:24:02.996Z</time></trkpt><trkpt lat="43.13400694352265" lon="11.558924968951661"><ele>203.2</ele><time>2026-03-29T08:24:03.996Z</time></trkpt><trkpt lat="43.134008930090474" lon="11.558793633736872"><ele>200.0</ele><time>2026-03-29T08:24:04.996Z</time></trkpt><trkpt lat="43.13401087967128" lon="11.558656335750795"><ele>200.0</ele><time>2026-03-29T08:24:05.996Z</time></trkpt><trkpt lat="43.13401290271286" lon="11.558511669604627"><ele>200.0</ele><time>2026-03-29T08:24:06.996Z</time></trkpt><trkpt lat="43.134016743612385" lon="11.558370768748764"><ele>200.0</ele><time>2026-03-29T08:24:07.996Z</time></trkpt><trkpt lat="43.1340175780872" lon="11.558239937146967"><ele>200.0</ele><time>2026-03-29T08:24:08.996Z</time></trkpt><trkpt lat="43.13401683543177" lon="11.558115783611482"><ele>200.0</ele><time>2026-03-29T08:24:09.996Z</time></trkpt><trkpt lat="43.13401443281666" lon="11.55798982761045"><ele>200.0</ele><time>2026-03-29T08:24:10.996Z</time></trkpt><trkpt lat="43.134007955913425" lon="11.557856194495463"><ele>200.0</ele><time>2026-03-29T08:24:11.996Z</time></trkpt><trkpt lat="43.13399250538767" lon="11.557729717320244"><ele>200.0</ele><time>2026-03-29T08:24:12.996Z</time></trkpt><trkpt lat="43.13397621209424" lon="11.557600901659141"><ele>200.0</ele><time>2026-03-29T08:24:13.996Z</time></trkpt><trkpt lat="43.13396188105334" lon="11.557472728361367"><ele>200.0</ele><time>2026-03-29T08:24:14.996Z</time></trkpt><trkpt lat="43.13394581464312" lon="11.557350616687357"><ele>200.00000000000003</ele><time>2026-03-29T08:24:15.996Z</time></trkpt><trkpt lat="43.13394039932653" lon="11.557235821745309"><ele>200.0</ele><time>2026-03-29T08:24:16.996Z</time></trkpt><trkpt lat="43.133916761318346" lon="11.557134679298871"><ele>200.0</ele><time>2026-03-29T08:24:17.996Z</time></trkpt><trkpt lat="43.13390655704261" lon="11.557033936515476"><ele>200.0</ele><time>2026-03-29T08:24:18.996Z</time></trkpt><trkpt lat="43.13389695708265" lon="11.556938062906905"><ele>200.0</ele><time>2026-03-29T08:24:19.996Z</time></trkpt><trkpt lat="43.133877640129235" lon="11.556847110686052"><ele>200.00000000000003</ele><time>2026-03-29T08:24:20.996Z</time></trkpt><trkpt lat="43.13385864972663" lon="11.55675666028233"><ele>200.0</ele><time>2026-03-29T08:24:21.996Z</time></trkpt><trkpt lat="43.13384199665258" lon="11.556667517075931"><ele>201.0</ele><time>2026-03-29T08:24:22.996Z</time></trkpt><trkpt lat="43.13381067170525" lon="11.556515479194589"><ele>202.0</ele><time>2026-03-29T08:24:24.996Z</time></trkpt><trkpt lat="43.133784406922835" lon="11.556386931752394"><ele>203.0</ele><time>2026-03-29T08:24:26.996Z</time></trkpt><trkpt lat="43.13375912432184" lon="11.556277683885884"><ele>204.0</ele><time>2026-03-29T08:24:28.996Z</time></trkpt><trkpt lat="43.13372857413861" lon="11.556154460534618"><ele>205.0</ele><time>2026-03-29T08:24:30.996Z</time></trkpt><trkpt lat="43.13369213750671" lon="11.556077800935471"><ele>207.0</ele><time>2026-03-29T08:24:31.996Z</time></trkpt><trkpt lat="43.133634011583204" lon="11.555990576635322"><ele>209.0</ele><time>2026-03-29T08:24:32.996Z</time></trkpt><trkpt lat="43.133553584466476" lon="11.55590764581884"><ele>211.0</ele><time>2026-03-29T08:24:33.996Z</time></trkpt><trkpt lat="43.133455860816916" lon="11.555854525711904"><ele>213.0</ele><time>2026-03-29T08:24:34.996Z</time></trkpt><trkpt lat="43.133345764375846" lon="11.555835760007607"><ele>215.0</ele><time>2026-03-29T08:24:35.996Z</time></trkpt><trkpt lat="43.13324131149042" lon="11.555839518499349"><ele>215.75</ele><time>2026-03-29T08:24:36.996Z</time></trkpt><trkpt lat="43.13312499937098" lon="11.555878037014105"><ele>216.5</ele><time>2026-03-29T08:24:37.996Z</time></trkpt><trkpt lat="43.13300800134792" lon="11.555977639395016"><ele>217.25</ele><time>2026-03-29T08:24:38.996Z</time></trkpt><trkpt lat="43.13290999233356" lon="11.556113661183973"><ele>218.0</ele><time>2026-03-29T08:24:39.996Z</time></trkpt><trkpt lat="43.132814029705436" lon="11.556237872391293"><ele>218.0</ele><time>2026-03-29T08:24:40.996Z</time></trkpt><trkpt lat="43.13271374332773" lon="11.55638408253372"><ele>218.0</ele><time>2026-03-29T08:24:41.996Z</time></trkpt><trkpt lat="43.132597081502915" lon="11.55652662398195"><ele>218.0</ele><time>2026-03-29T08:24:42.996Z</time></trkpt><trkpt lat="43.13248502522986" lon="11.556673783591224"><ele>217.0</ele><time>2026-03-29T08:24:43.996Z</time></trkpt><trkpt lat="43.132386378720405" lon="11.556806831976571"><ele>216.0</ele><time>2026-03-29T08:24:44.996Z</time></trkpt><trkpt lat="43.13230027312948" lon="11.556940835676832"><ele>215.0</ele><time>2026-03-29T08:24:45.996Z</time></trkpt><trkpt lat="43.1321807294704" lon="11.557016093516275"><ele>214.0</ele><time>2026-03-29T08:24:46.996Z</time></trkpt><trkpt lat="43.132040837882265" lon="11.557092870822917"><ele>214.0</ele><time>2026-03-29T08:24:47.996Z</time></trkpt><trkpt lat="43.131891039200646" lon="11.55716764180648"><ele>214.0</ele><time>2026-03-29T08:24:48.996Z</time></trkpt><trkpt lat="43.131741451436184" lon="11.557233417930936"><ele>214.0</ele><time>2026-03-29T08:24:49.996Z</time></trkpt><trkpt lat="43.13161189175021" lon="11.557287344434275"><ele>213.6</ele><time>2026-03-29T08:24:50.996Z</time></trkpt><trkpt lat="43.131513317817145" lon="11.55732797949614"><ele>213.2</ele><time>2026-03-29T08:24:51.996Z</time></trkpt><trkpt lat="43.13141860587058" lon="11.557355453963664"><ele>212.79999999999998</ele><time>2026-03-29T08:24:52.996Z</time></trkpt><trkpt lat="43.131329945236985" lon="11.557375458720271"><ele>212.39999999999998</ele><time>2026-03-29T08:24:53.996Z</time></trkpt><trkpt lat="43.13122875104552" lon="11.557331305789646"><ele>212.0</ele><time>2026-03-29T08:24:54.996Z</time></trkpt><trkpt lat="43.13114547531792" lon="11.557228948641393"><ele>212.0</ele><time>2026-03-29T08:24:55.996Z</time></trkpt><trkpt lat="43.131084439204486" lon="11.557112184105625"><ele>212.0</ele><time>2026-03-29T08:24:56.996Z</time></trkpt><trkpt lat="43.13105365191721" lon="11.557012124846922"><ele>212.0</ele><time>2026-03-29T08:24:57.996Z</time></trkpt><trkpt lat="43.131056366487776" lon="11.5568322220934"><ele>212.0</ele><time>2026-03-29T08:24:59.996Z</time></trkpt><trkpt lat="43.131093686871154" lon="11.556712569341972"><ele>212.0</ele><time>2026-03-29T08:25:00.996Z</time></trkpt><trkpt lat="43.131153372594675" lon="11.556624046912635"><ele>216.5</ele><time>2026-03-29T08:25:01.996Z</time></trkpt><trkpt lat="43.13124408215978" lon="11.55655269592248"><ele>221.0</ele><time>2026-03-29T08:25:02.996Z</time></trkpt><trkpt lat="43.131353538874194" lon="11.556470964766946"><ele>225.5</ele><time>2026-03-29T08:25:03.996Z</time></trkpt><trkpt lat="43.131510260133396" lon="11.556363751304424"><ele>230.0</ele><time>2026-03-29T08:25:04.996Z</time></trkpt><trkpt lat="43.13166967104655" lon="11.556246383814756"><ele>234.33333333333334</ele><time>2026-03-29T08:25:05.996Z</time></trkpt><trkpt lat="43.13183663700851" lon="11.55609988853331"><ele>238.66666666666669</ele><time>2026-03-29T08:25:06.996Z</time></trkpt><trkpt lat="43.13198543424714" lon="11.555956371538421"><ele>243.0</ele><time>2026-03-29T08:25:07.996Z</time></trkpt><trkpt lat="43.132114138350936" lon="11.555820733012782"><ele>243.0</ele><time>2026-03-29T08:25:08.996Z</time></trkpt><trkpt lat="43.13225519192812" lon="11.55567519102297"><ele>243.0</ele><time>2026-03-29T08:25:09.996Z</time></trkpt><trkpt lat="43.13238287816272" lon="11.555535352300103"><ele>243.0</ele><time>2026-03-29T08:25:10.996Z</time></trkpt><trkpt lat="43.13250473039621" lon="11.555405143107528"><ele>243.60000000000002</ele><time>2026-03-29T08:25:11.996Z</time></trkpt><trkpt lat="43.132615716969894" lon="11.555312236427302"><ele>244.20000000000002</ele><time>2026-03-29T08:25:12.996Z</time></trkpt><trkpt lat="43.132699544877404" lon="11.555212765006367"><ele>244.8</ele><time>2026-03-29T08:25:13.996Z</time></trkpt><trkpt lat="43.13275454380926" lon="11.555115437058788"><ele>245.4</ele><time>2026-03-29T08:25:14.996Z</time></trkpt><trkpt lat="43.13282019734072" lon="11.555044871089937"><ele>246.0</ele><time>2026-03-29T08:25:15.996Z</time></trkpt><trkpt lat="43.13286469804771" lon="11.554931902319323"><ele>246.0</ele><time>2026-03-29T08:25:16.996Z</time></trkpt><trkpt lat="43.13289248157858" lon="11.554795001215117"><ele>246.0</ele><time>2026-03-29T08:25:17.996Z</time></trkpt><trkpt lat="43.13289694050192" lon="11.554648724262774"><ele>246.0</ele><time>2026-03-29T08:25:18.996Z</time></trkpt><trkpt lat="43.13283890291066" lon="11.554497783103345"><ele>246.0</ele><time>2026-03-29T08:25:19.996Z</time></trkpt><trkpt lat="43.132762223704454" lon="11.55436036288057"><ele>247.0</ele><time>2026-03-29T08:25:20.996Z</time></trkpt><trkpt lat="43.13267107405421" lon="11.554229864562709"><ele>248.0</ele><time>2026-03-29T08:25:21.996Z</time></trkpt><trkpt lat="43.13258198417993" lon="11.554130918491166"><ele>249.0</ele><time>2026-03-29T08:25:22.996Z</time></trkpt><trkpt lat="43.13249706427492" lon="11.554060051595654"><ele>250.0</ele><time>2026-03-29T08:25:23.996Z</time></trkpt><trkpt lat="43.13238874477594" lon="11.554033461788682"><ele>254.0</ele><time>2026-03-29T08:25:24.996Z</time></trkpt><trkpt lat="43.132278979868566" lon="11.554069179346651"><ele>258.0</ele><time>2026-03-29T08:25:25.996Z</time></trkpt><trkpt lat="43.13217532472171" lon="11.554120116170132"><ele>262.0</ele><time>2026-03-29T08:25:26.996Z</time></trkpt><trkpt lat="43.13206849547127" lon="11.554213552509902"><ele>266.0</ele><time>2026-03-29T08:25:27.996Z</time></trkpt><trkpt lat="43.13196131079764" lon="11.554347197334435"><ele>266.0</ele><time>2026-03-29T08:25:28.996Z</time></trkpt><trkpt lat="43.13185964123154" lon="11.55449708463905"><ele>266.0</ele><time>2026-03-29T08:25:29.996Z</time></trkpt><trkpt lat="43.131756537005515" lon="11.554665336440667"><ele>266.0</ele><time>2026-03-29T08:25:30.996Z</time></trkpt><trkpt lat="43.13166312264111" lon="11.55483081031029"><ele>265.0</ele><time>2026-03-29T08:25:31.996Z</time></trkpt><trkpt lat="43.131557074295586" lon="11.554966383884988"><ele>264.0</ele><time>2026-03-29T08:25:32.996Z</time></trkpt><trkpt lat="43.13144129346803" lon="11.555052203396459"><ele>263.0</ele><time>2026-03-29T08:25:33.996Z</time></trkpt><trkpt lat="43.131342704984185" lon="11.555144437508655"><ele>262.0</ele><time>2026-03-29T08:25:34.996Z</time></trkpt><trkpt lat="43.131235599985246" lon="11.55518473881263"><ele>262.0</ele><time>2026-03-29T08:25:35.996Z</time></trkpt><trkpt lat="43.13111921845169" lon="11.555187704754646"><ele>262.0</ele><time>2026-03-29T08:25:36.996Z</time></trkpt><trkpt lat="43.13100338882698" lon="11.555117841577056"><ele>262.0</ele><time>2026-03-29T08:25:37.996Z</time></trkpt><trkpt lat="43.130906326920226" lon="11.555031881711923"><ele>262.0</ele><time>2026-03-29T08:25:38.996Z</time></trkpt><trkpt lat="43.130836310939344" lon="11.554913282162271"><ele>262.0</ele><time>2026-03-29T08:25:39.996Z</time></trkpt><trkpt lat="43.13074251998655" lon="11.554764457541596"><ele>262.0</ele><time>2026-03-29T08:25:40.996Z</time></trkpt><trkpt lat="43.13064369132954" lon="11.554621119959315"><ele>262.0</ele><time>2026-03-29T08:25:41.996Z</time></trkpt><trkpt lat="43.1305290305675" lon="11.554509539604213"><ele>262.0</ele><time>2026-03-29T08:25:42.996Z</time></trkpt><trkpt lat="43.13039824763075" lon="11.554407052159267"><ele>263.3333333333333</ele><time>2026-03-29T08:25:43.996Z</time></trkpt><trkpt lat="43.13027825687872" lon="11.554268345507756"><ele>264.6666666666667</ele><time>2026-03-29T08:25:44.996Z</time></trkpt><trkpt lat="43.13015607091719" lon="11.554127965372055"><ele>266.0</ele><time>2026-03-29T08:25:45.996Z</time></trkpt><trkpt lat="43.13003277592384" lon="11.553986722978248"><ele>266.0</ele><time>2026-03-29T08:25:46.996Z</time></trkpt><trkpt lat="43.12990007139341" lon="11.553871115050507"><ele>266.0</ele><time>2026-03-29T08:25:47.996Z</time></trkpt><trkpt lat="43.12973975905794" lon="11.553799147534846"><ele>266.0</ele><time>2026-03-29T08:25:48.996Z</time></trkpt><trkpt lat="43.12958540074111" lon="11.553776511564628"><ele>266.2</ele><time>2026-03-29T08:25:49.996Z</time></trkpt><trkpt lat="43.129458384346286" lon="11.553758631534892"><ele>266.40000000000003</ele><time>2026-03-29T08:25:50.996Z</time></trkpt><trkpt lat="43.129375790999816" lon="11.553711526626353"><ele>266.6</ele><time>2026-03-29T08:25:51.996Z</time></trkpt><trkpt lat="43.129338165672976" lon="11.553637526198962"><ele>266.8</ele><time>2026-03-29T08:25:52.996Z</time></trkpt><trkpt lat="43.129297893481684" lon="11.553557309145557"><ele>267.0</ele><time>2026-03-29T08:25:53.996Z</time></trkpt><trkpt lat="43.12917851477208" lon="11.553515284473836"><ele>269.75</ele><time>2026-03-29T08:25:54.996Z</time></trkpt><trkpt lat="43.12928574525268" lon="11.55333387382686"><ele>272.5</ele><time>2026-03-29T08:25:55.996Z</time></trkpt><trkpt lat="43.129346514442055" lon="11.553228624613796"><ele>275.25</ele><time>2026-03-29T08:25:56.996Z</time></trkpt><trkpt lat="43.12942118773008" lon="11.553140158494383"><ele>278.0</ele><time>2026-03-29T08:25:57.996Z</time></trkpt><trkpt lat="43.12951236387864" lon="11.55308271450803"><ele>278.0</ele><time>2026-03-29T08:25:58.996Z</time></trkpt><trkpt lat="43.129629147958326" lon="11.553130358479498"><ele>278.0</ele><time>2026-03-29T08:25:59.996Z</time></trkpt><trkpt lat="43.129756689318874" lon="11.553149365991521"><ele>278.0</ele><time>2026-03-29T08:26:00.996Z</time></trkpt><trkpt lat="43.12989496460666" lon="11.553179327267463"><ele>278.0</ele><time>2026-03-29T08:26:01.996Z</time></trkpt><trkpt lat="43.13003691265464" lon="11.553243851298198"><ele>278.0</ele><time>2026-03-29T08:26:02.996Z</time></trkpt><trkpt lat="43.13018775864423" lon="11.553307550685043"><ele>278.0</ele><time>2026-03-29T08:26:03.996Z</time></trkpt><trkpt lat="43.13031695164902" lon="11.55335392029113"><ele>278.0</ele><time>2026-03-29T08:26:04.996Z</time></trkpt><trkpt lat="43.1304245438605" lon="11.55339985381931"><ele>278.0</ele><time>2026-03-29T08:26:05.996Z</time></trkpt><trkpt lat="43.130533093202786" lon="11.553432314610975"><ele>278.0</ele><time>2026-03-29T08:26:06.996Z</time></trkpt><trkpt lat="43.130648686571234" lon="11.553435074495837"><ele>278.0</ele><time>2026-03-29T08:26:07.996Z</time></trkpt><trkpt lat="43.13076531495841" lon="11.55340410770692"><ele>278.0</ele><time>2026-03-29T08:26:08.996Z</time></trkpt><trkpt lat="43.13087032507493" lon="11.553343880392367"><ele>278.0</ele><time>2026-03-29T08:26:09.996Z</time></trkpt><trkpt lat="43.130959024808966" lon="11.55326020054034"><ele>279.0</ele><time>2026-03-29T08:26:10.996Z</time></trkpt><trkpt lat="43.1310390083533" lon="11.553141874629592"><ele>280.0</ele><time>2026-03-29T08:26:11.996Z</time></trkpt><trkpt lat="43.13110312178872" lon="11.553030059733368"><ele>281.0</ele><time>2026-03-29T08:26:12.995Z</time></trkpt><trkpt lat="43.131102313415234" lon="11.552885728358094"><ele>282.0</ele><time>2026-03-29T08:26:13.995Z</time></trkpt><trkpt lat="43.13110882780145" lon="11.5527730227664"><ele>283.0</ele><time>2026-03-29T08:26:14.995Z</time></trkpt><trkpt lat="43.131102617568835" lon="11.552607124074585"><ele>285.25</ele><time>2026-03-29T08:26:15.995Z</time></trkpt><trkpt lat="43.13107976610672" lon="11.552426289789592"><ele>287.5</ele><time>2026-03-29T08:26:16.995Z</time></trkpt><trkpt lat="43.13106542761267" lon="11.552236440495449"><ele>289.75</ele><time>2026-03-29T08:26:17.995Z</time></trkpt><trkpt lat="43.13106532825687" lon="11.552042476767014"><ele>292.0</ele><time>2026-03-29T08:26:18.995Z</time></trkpt><trkpt lat="43.13111139832507" lon="11.551873106115728"><ele>294.25</ele><time>2026-03-29T08:26:19.995Z</time></trkpt><trkpt lat="43.13117126941521" lon="11.551725165513703"><ele>296.5</ele><time>2026-03-29T08:26:20.995Z</time></trkpt><trkpt lat="43.13125286476254" lon="11.551573477708567"><ele>298.75</ele><time>2026-03-29T08:26:21.995Z</time></trkpt><trkpt lat="43.131349325635036" lon="11.551401738164667"><ele>301.0</ele><time>2026-03-29T08:26:22.995Z</time></trkpt><trkpt lat="43.13145509762509" lon="11.551213366736675"><ele>300.0</ele><time>2026-03-29T08:26:23.995Z</time></trkpt><trkpt lat="43.13157539359725" lon="11.55100232676121"><ele>299.0</ele><time>2026-03-29T08:26:24.995Z</time></trkpt><trkpt lat="43.13169915344357" lon="11.550773099289135"><ele>298.0</ele><time>2026-03-29T08:26:25.995Z</time></trkpt><trkpt lat="43.13182567439531" lon="11.550530993212726"><ele>301.0</ele><time>2026-03-29T08:26:26.995Z</time></trkpt><trkpt lat="43.13195538220679" lon="11.550283898927727"><ele>304.0</ele><time>2026-03-29T08:26:27.995Z</time></trkpt><trkpt lat="43.13207044898874" lon="11.55006727465977"><ele>307.0</ele><time>2026-03-29T08:26:28.995Z</time></trkpt><trkpt lat="43.13217554789447" lon="11.549872630172358"><ele>307.0</ele><time>2026-03-29T08:26:29.995Z</time></trkpt><trkpt lat="43.13226777295629" lon="11.549706600782832"><ele>307.0</ele><time>2026-03-29T08:26:30.995Z</time></trkpt><trkpt lat="43.132358228459715" lon="11.549556894842176"><ele>307.0</ele><time>2026-03-29T08:26:31.995Z</time></trkpt><trkpt lat="43.132446141370856" lon="11.54942580609161"><ele>307.0</ele><time>2026-03-29T08:26:32.995Z</time></trkpt><trkpt lat="43.132545204176694" lon="11.549302757342153"><ele>307.66666666666663</ele><time>2026-03-29T08:26:33.995Z</time></trkpt><trkpt lat="43.13266945956331" lon="11.54918249112307"><ele>308.3333333333333</ele><time>2026-03-29T08:26:34.995Z</time></trkpt><trkpt lat="43.13282055699773" lon="11.549073152020739"><ele>309.0</ele><time>2026-03-29T08:26:35.995Z</time></trkpt><trkpt lat="43.13296867880894" lon="11.548977350527991"><ele>309.0</ele><time>2026-03-29T08:26:36.995Z</time></trkpt><trkpt lat="43.13309222314302" lon="11.548882771852814"><ele>309.0</ele><time>2026-03-29T08:26:37.995Z</time></trkpt><trkpt lat="43.133189583369834" lon="11.548775687099738"><ele>309.0</ele><time>2026-03-29T08:26:38.995Z</time></trkpt><trkpt lat="43.133271963118375" lon="11.54869603754966"><ele>309.0</ele><time>2026-03-29T08:26:39.995Z</time></trkpt><trkpt lat="43.13334329425629" lon="11.548634507155544"><ele>309.4</ele><time>2026-03-29T08:26:40.995Z</time></trkpt><trkpt lat="43.13339410934738" lon="11.548546556895769"><ele>309.79999999999995</ele><time>2026-03-29T08:26:41.995Z</time></trkpt><trkpt lat="43.13343533163535" lon="11.548445476722847"><ele>310.20000000000005</ele><time>2026-03-29T08:26:42.995Z</time></trkpt><trkpt lat="43.13346835469657" lon="11.548313231951822"><ele>310.6</ele><time>2026-03-29T08:26:43.995Z</time></trkpt><trkpt lat="43.13348762840093" lon="11.548174203781782"><ele>311.0</ele><time>2026-03-29T08:26:44.995Z</time></trkpt><trkpt lat="43.133489636166814" lon="11.54802524153111"><ele>311.0</ele><time>2026-03-29T08:26:45.995Z</time></trkpt><trkpt lat="43.133469680119745" lon="11.54785938826147"><ele>311.0</ele><time>2026-03-29T08:26:46.995Z</time></trkpt><trkpt lat="43.13343327242626" lon="11.547673293373132"><ele>311.0</ele><time>2026-03-29T08:26:47.995Z</time></trkpt><trkpt lat="43.133383740381525" lon="11.547479643645813"><ele>311.0</ele><time>2026-03-29T08:26:48.995Z</time></trkpt><trkpt lat="43.1333256698595" lon="11.54726960545694"><ele>311.0</ele><time>2026-03-29T08:26:49.995Z</time></trkpt><trkpt lat="43.133268175713745" lon="11.547056495317394"><ele>311.0</ele><time>2026-03-29T08:26:50.995Z</time></trkpt><trkpt lat="43.13321410249262" lon="11.5468467780372"><ele>311.0</ele><time>2026-03-29T08:26:51.995Z</time></trkpt><trkpt lat="43.13316153894039" lon="11.546625423414993"><ele>305.6666666666667</ele><time>2026-03-29T08:26:52.995Z</time></trkpt><trkpt lat="43.13310851848994" lon="11.546395701890546"><ele>300.3333333333333</ele><time>2026-03-29T08:26:53.995Z</time></trkpt><trkpt lat="43.1330543724153" lon="11.54616951500902"><ele>295.0</ele><time>2026-03-29T08:26:54.995Z</time></trkpt><trkpt lat="43.13300479300259" lon="11.54595259228814"><ele>295.0</ele><time>2026-03-29T08:26:55.995Z</time></trkpt><trkpt lat="43.13295624317468" lon="11.5457451688307"><ele>295.0</ele><time>2026-03-29T08:26:56.995Z</time></trkpt><trkpt lat="43.13290798204629" lon="11.545533117615845"><ele>295.0</ele><time>2026-03-29T08:26:57.995Z</time></trkpt><trkpt lat="43.13286118494034" lon="11.545323957776725"><ele>296.0</ele><time>2026-03-29T08:26:58.995Z</time></trkpt><trkpt lat="43.1328138786024" lon="11.54511756336124"><ele>297.0</ele><time>2026-03-29T08:26:59.995Z</time></trkpt><trkpt lat="43.132765483427" lon="11.544920292904072"><ele>298.0</ele><time>2026-03-29T08:27:00.995Z</time></trkpt><trkpt lat="43.13272320685658" lon="11.544727434944946"><ele>299.0</ele><time>2026-03-29T08:27:01.995Z</time></trkpt><trkpt lat="43.13267950252931" lon="11.544533992815355"><ele>300.0</ele><time>2026-03-29T08:27:02.995Z</time></trkpt><trkpt lat="43.13263459936796" lon="11.544342770216302"><ele>301.0</ele><time>2026-03-29T08:27:03.995Z</time></trkpt><trkpt lat="43.13258731350212" lon="11.544150177204704"><ele>302.0</ele><time>2026-03-29T08:27:04.995Z</time></trkpt><trkpt lat="43.13253308475468" lon="11.543964891320941"><ele>302.0</ele><time>2026-03-29T08:27:05.995Z</time></trkpt><trkpt lat="43.13247529015623" lon="11.543786821595528"><ele>302.0</ele><time>2026-03-29T08:27:06.995Z</time></trkpt><trkpt lat="43.132414356474015" lon="11.543620984768577"><ele>302.0</ele><time>2026-03-29T08:27:07.995Z</time></trkpt><trkpt lat="43.13234583640896" lon="11.543460158315561"><ele>302.0</ele><time>2026-03-29T08:27:08.995Z</time></trkpt><trkpt lat="43.1322747917922" lon="11.543293894002973"><ele>302.0</ele><time>2026-03-29T08:27:09.995Z</time></trkpt><trkpt lat="43.1322090678804" lon="11.543135037300742"><ele>302.0</ele><time>2026-03-29T08:27:10.995Z</time></trkpt><trkpt lat="43.13214906920931" lon="11.542987717865687"><ele>302.0</ele><time>2026-03-29T08:27:11.995Z</time></trkpt><trkpt lat="43.132089390362744" lon="11.542849519810684"><ele>302.0</ele><time>2026-03-29T08:27:12.995Z</time></trkpt><trkpt lat="43.1320350580148" lon="11.54271469592036"><ele>302.33333333333337</ele><time>2026-03-29T08:27:13.995Z</time></trkpt><trkpt lat="43.13199273387155" lon="11.542598500767658"><ele>302.6666666666667</ele><time>2026-03-29T08:27:14.995Z</time></trkpt><trkpt lat="43.13195329888633" lon="11.542494079644435"><ele>303.0</ele><time>2026-03-29T08:27:15.995Z</time></trkpt><trkpt lat="43.13191388903003" lon="11.542400921876595"><ele>303.3333333333333</ele><time>2026-03-29T08:27:16.995Z</time></trkpt><trkpt lat="43.1318948797182" lon="11.542304515668045"><ele>303.66666666666663</ele><time>2026-03-29T08:27:17.995Z</time></trkpt><trkpt lat="43.13186021717262" lon="11.542204835705192"><ele>304.0</ele><time>2026-03-29T08:27:18.995Z</time></trkpt><trkpt lat="43.131812534565675" lon="11.542099097084206"><ele>304.2</ele><time>2026-03-29T08:27:19.995Z</time></trkpt><trkpt lat="43.1317973424862" lon="11.541961639142341"><ele>304.4</ele><time>2026-03-29T08:27:20.995Z</time></trkpt><trkpt lat="43.131807863224516" lon="11.541809706200597"><ele>304.6</ele><time>2026-03-29T08:27:21.995Z</time></trkpt><trkpt lat="43.131834743010174" lon="11.541660884093512"><ele>304.8</ele><time>2026-03-29T08:27:22.995Z</time></trkpt><trkpt lat="43.1318631193858" lon="11.54151839798377"><ele>305.0</ele><time>2026-03-29T08:27:23.996Z</time></trkpt><trkpt lat="43.13189744315487" lon="11.541373326739855"><ele>305.0</ele><time>2026-03-29T08:27:24.996Z</time></trkpt><trkpt lat="43.13191711661342" lon="11.541227830703184"><ele>305.0</ele><time>2026-03-29T08:27:25.995Z</time></trkpt><trkpt lat="43.13193384307491" lon="11.541067809178431"><ele>305.0</ele><time>2026-03-29T08:27:26.996Z</time></trkpt><trkpt lat="43.13196258898589" lon="11.540909143257677"><ele>305.0</ele><time>2026-03-29T08:27:27.996Z</time></trkpt><trkpt lat="43.13197817106539" lon="11.540755872655389"><ele>305.2</ele><time>2026-03-29T08:27:28.995Z</time></trkpt><trkpt lat="43.132001545771494" lon="11.540613718622481"><ele>305.4</ele><time>2026-03-29T08:27:29.995Z</time></trkpt><trkpt lat="43.13204564976902" lon="11.540491554411792"><ele>305.6</ele><time>2026-03-29T08:27:30.995Z</time></trkpt><trkpt lat="43.13208051242882" lon="11.54036352678798"><ele>305.8</ele><time>2026-03-29T08:27:31.995Z</time></trkpt><trkpt lat="43.13211616910255" lon="11.540225766837082"><ele>306.0</ele><time>2026-03-29T08:27:32.996Z</time></trkpt><trkpt lat="43.132154698525994" lon="11.540085984812663"><ele>306.0</ele><time>2026-03-29T08:27:33.996Z</time></trkpt><trkpt lat="43.13218028263505" lon="11.539945573215002"><ele>306.0</ele><time>2026-03-29T08:27:34.995Z</time></trkpt><trkpt lat="43.13219545131365" lon="11.539789574120329"><ele>306.0</ele><time>2026-03-29T08:27:35.996Z</time></trkpt><trkpt lat="43.1321988242572" lon="11.539628782345916"><ele>306.0</ele><time>2026-03-29T08:27:36.996Z</time></trkpt><trkpt lat="43.132212910098474" lon="11.539472824012355"><ele>305.0</ele><time>2026-03-29T08:27:37.996Z</time></trkpt><trkpt lat="43.13220284621042" lon="11.5393281153187"><ele>304.0</ele><time>2026-03-29T08:27:38.996Z</time></trkpt><trkpt lat="43.1321960160918" lon="11.539178620877848"><ele>303.0</ele><time>2026-03-29T08:27:39.996Z</time></trkpt><trkpt lat="43.13220180774846" lon="11.539020554379844"><ele>302.0</ele><time>2026-03-29T08:27:40.996Z</time></trkpt><trkpt lat="43.13222179868707" lon="11.538860761266971"><ele>301.0</ele><time>2026-03-29T08:27:41.996Z</time></trkpt><trkpt lat="43.13224448249646" lon="11.538703989356616"><ele>299.0</ele><time>2026-03-29T08:27:42.996Z</time></trkpt><trkpt lat="43.13226613852109" lon="11.538543953860106"><ele>297.0</ele><time>2026-03-29T08:27:43.996Z</time></trkpt><trkpt lat="43.132293809250385" lon="11.538373359380545"><ele>295.0</ele><time>2026-03-29T08:27:44.996Z</time></trkpt><trkpt lat="43.13233699531816" lon="11.538197794369305"><ele>293.0</ele><time>2026-03-29T08:27:45.996Z</time></trkpt><trkpt lat="43.13238201687972" lon="11.538045960013788"><ele>291.4</ele><time>2026-03-29T08:27:46.996Z</time></trkpt><trkpt lat="43.132427353744355" lon="11.537898928910938"><ele>289.8</ele><time>2026-03-29T08:27:47.996Z</time></trkpt><trkpt lat="43.132466339470035" lon="11.53775826830941"><ele>288.2</ele><time>2026-03-29T08:27:48.996Z</time></trkpt><trkpt lat="43.132511084557564" lon="11.53762321564632"><ele>286.6</ele><time>2026-03-29T08:27:49.996Z</time></trkpt><trkpt lat="43.13255424276088" lon="11.537493847351746"><ele>285.0</ele><time>2026-03-29T08:27:50.996Z</time></trkpt><trkpt lat="43.13260204792005" lon="11.537358994240307"><ele>284.5</ele><time>2026-03-29T08:27:51.996Z</time></trkpt><trkpt lat="43.13265948481473" lon="11.537221801345892"><ele>284.0</ele><time>2026-03-29T08:27:52.996Z</time></trkpt><trkpt lat="43.13272681286844" lon="11.53708553543865"><ele>283.5</ele><time>2026-03-29T08:27:53.996Z</time></trkpt><trkpt lat="43.13280762279708" lon="11.53695483716331"><ele>283.0</ele><time>2026-03-29T08:27:54.995Z</time></trkpt><trkpt lat="43.13290589944125" lon="11.536816080245917"><ele>281.25</ele><time>2026-03-29T08:27:55.995Z</time></trkpt><trkpt lat="43.13300637208165" lon="11.536680388064362"><ele>279.5</ele><time>2026-03-29T08:27:56.995Z</time></trkpt><trkpt lat="43.133099148204046" lon="11.536553027434914"><ele>277.75</ele><time>2026-03-29T08:27:57.995Z</time></trkpt><trkpt lat="43.133189840755286" lon="11.53643336436358"><ele>276.0</ele><time>2026-03-29T08:27:58.995Z</time></trkpt><trkpt lat="43.133294633652625" lon="11.536318793928407"><ele>275.25</ele><time>2026-03-29T08:27:59.995Z</time></trkpt><trkpt lat="43.133382351907954" lon="11.536183236181918"><ele>274.5</ele><time>2026-03-29T08:28:00.995Z</time></trkpt><trkpt lat="43.1334676295678" lon="11.536036079431751"><ele>273.75</ele><time>2026-03-29T08:28:01.995Z</time></trkpt><trkpt lat="43.13354304192903" lon="11.535877925822122"><ele>273.0</ele><time>2026-03-29T08:28:02.995Z</time></trkpt><trkpt lat="43.13361915257763" lon="11.535704142235337"><ele>273.0</ele><time>2026-03-29T08:28:03.995Z</time></trkpt><trkpt lat="43.13369970716255" lon="11.535519649802765"><ele>273.0</ele><time>2026-03-29T08:28:04.995Z</time></trkpt><trkpt lat="43.13378820883474" lon="11.535334701400556"><ele>273.0</ele><time>2026-03-29T08:28:05.995Z</time></trkpt><trkpt lat="43.13386664472217" lon="11.535140955815121"><ele>271.3333333333333</ele><time>2026-03-29T08:28:06.995Z</time></trkpt><trkpt lat="43.13394893839622" lon="11.534950450330461"><ele>269.66666666666663</ele><time>2026-03-29T08:28:07.995Z</time></trkpt><trkpt lat="43.134023715351546" lon="11.534775291954023"><ele>268.0</ele><time>2026-03-29T08:28:08.995Z</time></trkpt><trkpt lat="43.13409900947966" lon="11.534605848992415"><ele>268.0</ele><time>2026-03-29T08:28:09.995Z</time></trkpt><trkpt lat="43.134174585615426" lon="11.534437332216246"><ele>268.0</ele><time>2026-03-29T08:28:10.995Z</time></trkpt><trkpt lat="43.13424657126473" lon="11.534273878133952"><ele>268.0</ele><time>2026-03-29T08:28:11.995Z</time></trkpt><trkpt lat="43.13431320906523" lon="11.534107073340936"><ele>268.0</ele><time>2026-03-29T08:28:12.995Z</time></trkpt><trkpt lat="43.1343734451335" lon="11.533935667599433"><ele>268.0</ele><time>2026-03-29T08:28:13.995Z</time></trkpt><trkpt lat="43.134433819680176" lon="11.533760052649788"><ele>268.0</ele><time>2026-03-29T08:28:14.995Z</time></trkpt><trkpt lat="43.13449176526802" lon="11.533589332612554"><ele>268.0</ele><time>2026-03-29T08:28:15.995Z</time></trkpt><trkpt lat="43.13455848801131" lon="11.533432287329083"><ele>268.0</ele><time>2026-03-29T08:28:16.995Z</time></trkpt><trkpt lat="43.13459360711399" lon="11.533253814289655"><ele>267.0</ele><time>2026-03-29T08:28:17.995Z</time></trkpt><trkpt lat="43.13464283902917" lon="11.533080679810721"><ele>266.0</ele><time>2026-03-29T08:28:18.995Z</time></trkpt><trkpt lat="43.13470087073208" lon="11.532910159589642"><ele>265.0</ele><time>2026-03-29T08:28:19.995Z</time></trkpt><trkpt lat="43.134742882423296" lon="11.532741387258303"><ele>264.0</ele><time>2026-03-29T08:28:20.995Z</time></trkpt><trkpt lat="43.13478319218135" lon="11.532572122587881"><ele>263.75</ele><time>2026-03-29T08:28:21.995Z</time></trkpt><trkpt lat="43.134820792763946" lon="11.532397505941812"><ele>263.5</ele><time>2026-03-29T08:28:22.995Z</time></trkpt><trkpt lat="43.134855442795256" lon="11.532218236726298"><ele>263.25</ele><time>2026-03-29T08:28:23.995Z</time></trkpt><trkpt lat="43.13489213196597" lon="11.532039980584637"><ele>263.0</ele><time>2026-03-29T08:28:24.995Z</time></trkpt><trkpt lat="43.134926318035404" lon="11.53186119363265"><ele>265.0</ele><time>2026-03-29T08:28:25.995Z</time></trkpt><trkpt lat="43.13497262766172" lon="11.531679819986659"><ele>267.0</ele><time>2026-03-29T08:28:26.995Z</time></trkpt><trkpt lat="43.13499920548179" lon="11.531503960499322"><ele>269.0</ele><time>2026-03-29T08:28:27.995Z</time></trkpt><trkpt lat="43.135020409938065" lon="11.531337545309892"><ele>271.0</ele><time>2026-03-29T08:28:28.995Z</time></trkpt><trkpt lat="43.135034915897506" lon="11.531175959185992"><ele>271.8</ele><time>2026-03-29T08:28:29.995Z</time></trkpt><trkpt lat="43.13504769233389" lon="11.531016746579363"><ele>272.6</ele><time>2026-03-29T08:28:30.995Z</time></trkpt><trkpt lat="43.13506066340346" lon="11.530873128349052"><ele>273.4</ele><time>2026-03-29T08:28:31.995Z</time></trkpt><trkpt lat="43.13506751547726" lon="11.530739676308434"><ele>274.2</ele><time>2026-03-29T08:28:32.995Z</time></trkpt><trkpt lat="43.13505148172942" lon="11.530619290856922"><ele>275.0</ele><time>2026-03-29T08:28:33.995Z</time></trkpt><trkpt lat="43.13502760613184" lon="11.530499522717319"><ele>275.0</ele><time>2026-03-29T08:28:34.995Z</time></trkpt><trkpt lat="43.13498567321133" lon="11.530384039719046"><ele>275.0</ele><time>2026-03-29T08:28:35.995Z</time></trkpt><trkpt lat="43.13494503590042" lon="11.530258374212742"><ele>275.0</ele><time>2026-03-29T08:28:36.995Z</time></trkpt><trkpt lat="43.13490493718031" lon="11.53013421440491"><ele>275.0</ele><time>2026-03-29T08:28:37.995Z</time></trkpt><trkpt lat="43.13486048904879" lon="11.530023119712318"><ele>275.0</ele><time>2026-03-29T08:28:38.995Z</time></trkpt><trkpt lat="43.13482031085098" lon="11.529908336895055"><ele>272.4</ele><time>2026-03-29T08:28:39.995Z</time></trkpt><trkpt lat="43.13477980634936" lon="11.52978274195038"><ele>269.8</ele><time>2026-03-29T08:28:40.995Z</time></trkpt><trkpt lat="43.1347366061476" lon="11.529649836144662"><ele>267.2</ele><time>2026-03-29T08:28:41.995Z</time></trkpt><trkpt lat="43.134683806118595" lon="11.529509649181481"><ele>264.6</ele><time>2026-03-29T08:28:42.995Z</time></trkpt><trkpt lat="43.134630354525804" lon="11.529367891871013"><ele>262.0</ele><time>2026-03-29T08:28:43.995Z</time></trkpt><trkpt lat="43.13458349569459" lon="11.529233822990758"><ele>262.0</ele><time>2026-03-29T08:28:44.995Z</time></trkpt><trkpt lat="43.134536531581574" lon="11.529104753289205"><ele>262.0</ele><time>2026-03-29T08:28:45.995Z</time></trkpt><trkpt lat="43.134488660695794" lon="11.52898047016888"><ele>262.0</ele><time>2026-03-29T08:28:46.995Z</time></trkpt><trkpt lat="43.1344436877355" lon="11.5288593044338"><ele>262.0</ele><time>2026-03-29T08:28:47.995Z</time></trkpt><trkpt lat="43.13441930152321" lon="11.528731530261823"><ele>262.0</ele><time>2026-03-29T08:28:48.995Z</time></trkpt><trkpt lat="43.13439156260052" lon="11.528611589332842"><ele>262.2</ele><time>2026-03-29T08:28:49.995Z</time></trkpt><trkpt lat="43.13437136482577" lon="11.528479732242625"><ele>262.4</ele><time>2026-03-29T08:28:50.995Z</time></trkpt><trkpt lat="43.13434695191236" lon="11.528343752774443"><ele>262.6</ele><time>2026-03-29T08:28:51.995Z</time></trkpt><trkpt lat="43.134358385794165" lon="11.528172550445234"><ele>262.8</ele><time>2026-03-29T08:28:52.995Z</time></trkpt><trkpt lat="43.13436562636496" lon="11.52800580751914"><ele>263.0</ele><time>2026-03-29T08:28:53.995Z</time></trkpt><trkpt lat="43.13437693351996" lon="11.527841395710945"><ele>262.4</ele><time>2026-03-29T08:28:54.995Z</time></trkpt><trkpt lat="43.13440666416915" lon="11.527687942812198"><ele>261.8</ele><time>2026-03-29T08:28:55.995Z</time></trkpt><trkpt lat="43.134415695014084" lon="11.527539212846062"><ele>261.2</ele><time>2026-03-29T08:28:56.995Z</time></trkpt><trkpt lat="43.13442500984674" lon="11.527394148355913"><ele>260.6</ele><time>2026-03-29T08:28:57.995Z</time></trkpt><trkpt lat="43.134436805020925" lon="11.52725342952797"><ele>260.0</ele><time>2026-03-29T08:28:58.995Z</time></trkpt><trkpt lat="43.134450304424995" lon="11.52711657071819"><ele>258.8</ele><time>2026-03-29T08:28:59.995Z</time></trkpt><trkpt lat="43.13446061302086" lon="11.526984388774125"><ele>257.6</ele><time>2026-03-29T08:29:00.995Z</time></trkpt><trkpt lat="43.134470121219294" lon="11.526853259571304"><ele>256.4</ele><time>2026-03-29T08:29:01.995Z</time></trkpt><trkpt lat="43.13447858566376" lon="11.526724330883622"><ele>255.2</ele><time>2026-03-29T08:29:02.995Z</time></trkpt><trkpt lat="43.13448964371907" lon="11.526603153117346"><ele>254.0</ele><time>2026-03-29T08:29:03.995Z</time></trkpt><trkpt lat="43.13450107793328" lon="11.526499215981666"><ele>254.00000000000003</ele><time>2026-03-29T08:29:04.995Z</time></trkpt><trkpt lat="43.13451721281966" lon="11.526352399653744"><ele>254.0</ele><time>2026-03-29T08:29:06.995Z</time></trkpt><trkpt lat="43.13452513593897" lon="11.526247892004726"><ele>254.0</ele><time>2026-03-29T08:29:09.995Z</time></trkpt><trkpt lat="43.13452807109445" lon="11.526155831965855"><ele>254.0</ele><time>2026-03-29T08:29:13.995Z</time></trkpt><trkpt lat="43.13455179587469" lon="11.526013065066437"><ele>254.00000000000003</ele><time>2026-03-29T08:29:15.995Z</time></trkpt><trkpt lat="43.13457136488149" lon="11.525920639981884"><ele>254.0</ele><time>2026-03-29T08:29:16.995Z</time></trkpt><trkpt lat="43.134602485889715" lon="11.52581637161319"><ele>253.2</ele><time>2026-03-29T08:29:17.995Z</time></trkpt><trkpt lat="43.134642192835486" lon="11.525709577109563"><ele>252.39999999999998</ele><time>2026-03-29T08:29:18.995Z</time></trkpt><trkpt lat="43.134693828229494" lon="11.525598452249914"><ele>251.6</ele><time>2026-03-29T08:29:19.995Z</time></trkpt><trkpt lat="43.13474537716977" lon="11.52546974063187"><ele>250.8</ele><time>2026-03-29T08:29:20.995Z</time></trkpt><trkpt lat="43.13480614605073" lon="11.525331308273444"><ele>250.0</ele><time>2026-03-29T08:29:21.995Z</time></trkpt><trkpt lat="43.1348592538692" lon="11.525179129681145"><ele>250.5</ele><time>2026-03-29T08:29:22.995Z</time></trkpt><trkpt lat="43.13491544839155" lon="11.525010161664042"><ele>251.0</ele><time>2026-03-29T08:29:23.995Z</time></trkpt><trkpt lat="43.13496051545823" lon="11.524852862907165"><ele>251.5</ele><time>2026-03-29T08:29:24.995Z</time></trkpt><trkpt lat="43.13500515235413" lon="11.5246986385707"><ele>252.0</ele><time>2026-03-29T08:29:25.995Z</time></trkpt><trkpt lat="43.135034072753996" lon="11.524555896232782"><ele>252.0</ele><time>2026-03-29T08:29:26.995Z</time></trkpt><trkpt lat="43.13505271127648" lon="11.524416994936672"><ele>252.0</ele><time>2026-03-29T08:29:27.995Z</time></trkpt><trkpt lat="43.13506682284405" lon="11.524267848551554"><ele>252.0</ele><time>2026-03-29T08:29:28.995Z</time></trkpt><trkpt lat="43.13506816504863" lon="11.524106986810931"><ele>252.0</ele><time>2026-03-29T08:29:29.995Z</time></trkpt><trkpt lat="43.13505927958112" lon="11.52394376551566"><ele>252.0</ele><time>2026-03-29T08:29:30.995Z</time></trkpt><trkpt lat="43.1350538654961" lon="11.523769480188676"><ele>252.0</ele><time>2026-03-29T08:29:31.995Z</time></trkpt><trkpt lat="43.13504741101264" lon="11.52358677533416"><ele>252.0</ele><time>2026-03-29T08:29:32.995Z</time></trkpt><trkpt lat="43.135028422705915" lon="11.523392398836016"><ele>252.0</ele><time>2026-03-29T08:29:33.995Z</time></trkpt><trkpt lat="43.13500838803668" lon="11.523193521567114"><ele>250.33333333333331</ele><time>2026-03-29T08:29:34.995Z</time></trkpt><trkpt lat="43.13499747388783" lon="11.522982638579611"><ele>248.66666666666666</ele><time>2026-03-29T08:29:35.995Z</time></trkpt><trkpt lat="43.13498819534501" lon="11.522775313498297"><ele>247.0</ele><time>2026-03-29T08:29:36.995Z</time></trkpt><trkpt lat="43.13497917115466" lon="11.52256377388156"><ele>245.5</ele><time>2026-03-29T08:29:37.995Z</time></trkpt><trkpt lat="43.13497772640794" lon="11.52235868718967"><ele>244.0</ele><time>2026-03-29T08:29:38.995Z</time></trkpt><trkpt lat="43.13498100116449" lon="11.522155399786804"><ele>242.5</ele><time>2026-03-29T08:29:39.995Z</time></trkpt><trkpt lat="43.134991078133815" lon="11.521961520782897"><ele>241.0</ele><time>2026-03-29T08:29:40.995Z</time></trkpt><trkpt lat="43.13499792181564" lon="11.521774351401929"><ele>240.0</ele><time>2026-03-29T08:29:41.995Z</time></trkpt><trkpt lat="43.13500281395201" lon="11.52160494621781"><ele>239.0</ele><time>2026-03-29T08:29:42.995Z</time></trkpt><trkpt lat="43.13500473827358" lon="11.521431948049885"><ele>238.0</ele><time>2026-03-29T08:29:43.995Z</time></trkpt><trkpt lat="43.13499949775471" lon="11.521253567767777"><ele>237.0</ele><time>2026-03-29T08:29:44.995Z</time></trkpt><trkpt lat="43.13499776819155" lon="11.521067473419071"><ele>236.75</ele><time>2026-03-29T08:29:45.995Z</time></trkpt><trkpt lat="43.1349944388465" lon="11.520884223047087"><ele>236.5</ele><time>2026-03-29T08:29:46.995Z</time></trkpt><trkpt lat="43.134985286955704" lon="11.52070474466815"><ele>236.25</ele><time>2026-03-29T08:29:47.995Z</time></trkpt><trkpt lat="43.134979001343474" lon="11.520521645814293"><ele>236.0</ele><time>2026-03-29T08:29:48.995Z</time></trkpt><trkpt lat="43.13494609830366" lon="11.520336560075926"><ele>237.5</ele><time>2026-03-29T08:29:49.995Z</time></trkpt><trkpt lat="43.134902722412555" lon="11.520148470089351"><ele>239.0</ele><time>2026-03-29T08:29:50.995Z</time></trkpt><trkpt lat="43.134860646511065" lon="11.519959133085472"><ele>240.5</ele><time>2026-03-29T08:29:51.995Z</time></trkpt><trkpt lat="43.13481454881446" lon="11.519772809933968"><ele>242.0</ele><time>2026-03-29T08:29:52.994Z</time></trkpt><trkpt lat="43.13476807787027" lon="11.519602244140586"><ele>239.0</ele><time>2026-03-29T08:29:53.994Z</time></trkpt><trkpt lat="43.1347312242358" lon="11.519445882915957"><ele>236.0</ele><time>2026-03-29T08:29:54.994Z</time></trkpt><trkpt lat="43.134704075085125" lon="11.519292341958867"><ele>233.0</ele><time>2026-03-29T08:29:55.994Z</time></trkpt><trkpt lat="43.13468170445929" lon="11.51913553444139"><ele>230.0</ele><time>2026-03-29T08:29:56.994Z</time></trkpt><trkpt lat="43.134667511641034" lon="11.518985045536176"><ele>230.0</ele><time>2026-03-29T08:29:57.994Z</time></trkpt><trkpt lat="43.13465454000327" lon="11.51884113376093"><ele>230.0</ele><time>2026-03-29T08:29:58.994Z</time></trkpt><trkpt lat="43.13464266255661" lon="11.518703137702184"><ele>230.0</ele><time>2026-03-29T08:29:59.994Z</time></trkpt><trkpt lat="43.134633089834274" lon="11.518573934350847"><ele>230.0</ele><time>2026-03-29T08:30:00.994Z</time></trkpt><trkpt lat="43.13462963569502" lon="11.518456089259558"><ele>230.0</ele><time>2026-03-29T08:30:01.994Z</time></trkpt><trkpt lat="43.13463405695307" lon="11.518338825098144"><ele>232.16666666666669</ele><time>2026-03-29T08:30:02.994Z</time></trkpt><trkpt lat="43.13464316998709" lon="11.518223437063469"><ele>234.33333333333334</ele><time>2026-03-29T08:30:03.994Z</time></trkpt><trkpt lat="43.13465003492654" lon="11.518106539029448"><ele>236.5</ele><time>2026-03-29T08:30:04.994Z</time></trkpt><trkpt lat="43.13466125889318" lon="11.517993033895255"><ele>238.66666666666669</ele><time>2026-03-29T08:30:05.994Z</time></trkpt><trkpt lat="43.13468847868902" lon="11.517896307176724"><ele>240.83333333333334</ele><time>2026-03-29T08:30:06.994Z</time></trkpt><trkpt lat="43.134716794674056" lon="11.51780766228031"><ele>243.0</ele><time>2026-03-29T08:30:07.994Z</time></trkpt><trkpt lat="43.134764359396485" lon="11.517743373232143"><ele>244.0</ele><time>2026-03-29T08:30:08.994Z</time></trkpt><trkpt lat="43.134816469198306" lon="11.517660378946795"><ele>245.0</ele><time>2026-03-29T08:30:09.994Z</time></trkpt><trkpt lat="43.134871614337534" lon="11.517572843281659"><ele>246.0</ele><time>2026-03-29T08:30:10.994Z</time></trkpt><trkpt lat="43.13491923849733" lon="11.517463113855879"><ele>247.0</ele><time>2026-03-29T08:30:11.994Z</time></trkpt><trkpt lat="43.13500183755569" lon="11.517385869677236"><ele>248.0</ele><time>2026-03-29T08:30:12.994Z</time></trkpt><trkpt lat="43.13507101536371" lon="11.517278317555624"><ele>246.0</ele><time>2026-03-29T08:30:13.994Z</time></trkpt><trkpt lat="43.13514912970066" lon="11.517152435710361"><ele>244.0</ele><time>2026-03-29T08:30:14.994Z</time></trkpt><trkpt lat="43.13523069177093" lon="11.51702139135493"><ele>242.0</ele><time>2026-03-29T08:30:15.994Z</time></trkpt><trkpt lat="43.13530648629746" lon="11.516883961209576"><ele>240.0</ele><time>2026-03-29T08:30:16.994Z</time></trkpt><trkpt lat="43.135384032971935" lon="11.516745648957293"><ele>240.0</ele><time>2026-03-29T08:30:17.994Z</time></trkpt><trkpt lat="43.13545754898818" lon="11.516610153751243"><ele>240.0</ele><time>2026-03-29T08:30:18.994Z</time></trkpt><trkpt lat="43.1355325718797" lon="11.516473642956518"><ele>240.0</ele><time>2026-03-29T08:30:19.994Z</time></trkpt><trkpt lat="43.13560936592272" lon="11.516338940613426"><ele>240.0</ele><time>2026-03-29T08:30:20.994Z</time></trkpt><trkpt lat="43.135680373886785" lon="11.516215187800162"><ele>237.25</ele><time>2026-03-29T08:30:21.994Z</time></trkpt><trkpt lat="43.13575741612855" lon="11.516102942992958"><ele>234.5</ele><time>2026-03-29T08:30:22.994Z</time></trkpt><trkpt lat="43.13585103772147" lon="11.515998173043705"><ele>231.75</ele><time>2026-03-29T08:30:23.994Z</time></trkpt><trkpt lat="43.13595407512226" lon="11.515901214514475"><ele>229.0</ele><time>2026-03-29T08:30:24.994Z</time></trkpt><trkpt lat="43.136053183990946" lon="11.515809188965115"><ele>229.0</ele><time>2026-03-29T08:30:25.994Z</time></trkpt><trkpt lat="43.13614463533761" lon="11.51570816483034"><ele>229.0</ele><time>2026-03-29T08:30:26.994Z</time></trkpt><trkpt lat="43.13621364722961" lon="11.515591993944435"><ele>229.0</ele><time>2026-03-29T08:30:27.994Z</time></trkpt><trkpt lat="43.136282548613224" lon="11.515468166228152"><ele>229.0</ele><time>2026-03-29T08:30:28.994Z</time></trkpt><trkpt lat="43.1362995077705" lon="11.515300005055447"><ele>228.25</ele><time>2026-03-29T08:30:29.994Z</time></trkpt><trkpt lat="43.136314319386145" lon="11.515132118430069"><ele>227.5</ele><time>2026-03-29T08:30:30.994Z</time></trkpt><trkpt lat="43.13633325174778" lon="11.514955214304887"><ele>226.75</ele><time>2026-03-29T08:30:31.994Z</time></trkpt><trkpt lat="43.13632329501915" lon="11.514786983026305"><ele>226.0</ele><time>2026-03-29T08:30:32.994Z</time></trkpt><trkpt lat="43.136295088438985" lon="11.514623517706971"><ele>226.75</ele><time>2026-03-29T08:30:33.994Z</time></trkpt><trkpt lat="43.13625378383573" lon="11.514473909880518"><ele>227.5</ele><time>2026-03-29T08:30:34.994Z</time></trkpt><trkpt lat="43.13617980453866" lon="11.514332339966671"><ele>228.25</ele><time>2026-03-29T08:30:35.994Z</time></trkpt><trkpt lat="43.1361110560702" lon="11.514163104580515"><ele>229.0</ele><time>2026-03-29T08:30:36.994Z</time></trkpt><trkpt lat="43.136026611280165" lon="11.514010132141689"><ele>229.0</ele><time>2026-03-29T08:30:37.994Z</time></trkpt><trkpt lat="43.135933229144385" lon="11.513839232573774"><ele>229.0</ele><time>2026-03-29T08:30:38.994Z</time></trkpt><trkpt lat="43.13583978775982" lon="11.513656789299759"><ele>229.0</ele><time>2026-03-29T08:30:39.994Z</time></trkpt><trkpt lat="43.13575953167522" lon="11.513486281650508"><ele>228.5</ele><time>2026-03-29T08:30:40.994Z</time></trkpt><trkpt lat="43.1356914122268" lon="11.513325296128295"><ele>228.0</ele><time>2026-03-29T08:30:41.994Z</time></trkpt><trkpt lat="43.13562899036825" lon="11.513150337959587"><ele>227.5</ele><time>2026-03-29T08:30:42.994Z</time></trkpt><trkpt lat="43.13556467029383" lon="11.512957632768599"><ele>227.0</ele><time>2026-03-29T08:30:43.994Z</time></trkpt><trkpt lat="43.13550710596367" lon="11.512757834869518"><ele>227.0</ele><time>2026-03-29T08:30:44.994Z</time></trkpt><trkpt lat="43.13544643999186" lon="11.51255585268094"><ele>227.0</ele><time>2026-03-29T08:30:45.994Z</time></trkpt><trkpt lat="43.13537812112494" lon="11.512366736496206"><ele>227.0</ele><time>2026-03-29T08:30:46.994Z</time></trkpt><trkpt lat="43.13529097988883" lon="11.512189309674678"><ele>230.33333333333334</ele><time>2026-03-29T08:30:47.994Z</time></trkpt><trkpt lat="43.13519874598495" lon="11.512022136882788"><ele>233.66666666666669</ele><time>2026-03-29T08:30:48.994Z</time></trkpt><trkpt lat="43.13510058114079" lon="11.511850904734212"><ele>237.0</ele><time>2026-03-29T08:30:49.994Z</time></trkpt><trkpt lat="43.13500182616561" lon="11.511683456924654"><ele>237.0</ele><time>2026-03-29T08:30:50.994Z</time></trkpt><trkpt lat="43.13490516655417" lon="11.51150488996901"><ele>237.0</ele><time>2026-03-29T08:30:51.994Z</time></trkpt><trkpt lat="43.134818577845394" lon="11.51132891494138"><ele>237.0</ele><time>2026-03-29T08:30:52.994Z</time></trkpt><trkpt lat="43.13474147842679" lon="11.511167290242506"><ele>237.5</ele><time>2026-03-29T08:30:53.994Z</time></trkpt><trkpt lat="43.13468091352318" lon="11.511017947235382"><ele>238.0</ele><time>2026-03-29T08:30:54.994Z</time></trkpt><trkpt lat="43.134624352937394" lon="11.510885093498002"><ele>238.5</ele><time>2026-03-29T08:30:55.994Z</time></trkpt><trkpt lat="43.134567256667644" lon="11.510748683627842"><ele>239.0</ele><time>2026-03-29T08:30:56.994Z</time></trkpt><trkpt lat="43.13450323843417" lon="11.510600399097063"><ele>239.0</ele><time>2026-03-29T08:30:57.994Z</time></trkpt><trkpt lat="43.13442514076525" lon="11.510439690409362"><ele>239.0</ele><time>2026-03-29T08:30:58.994Z</time></trkpt><trkpt lat="43.134349142104874" lon="11.510280469174813"><ele>239.0</ele><time>2026-03-29T08:30:59.994Z</time></trkpt><trkpt lat="43.13426936594983" lon="11.5101385351676"><ele>239.0</ele><time>2026-03-29T08:31:00.994Z</time></trkpt><trkpt lat="43.13419729720934" lon="11.509995222031648"><ele>237.5</ele><time>2026-03-29T08:31:01.994Z</time></trkpt><trkpt lat="43.1341451984925" lon="11.509844202001894"><ele>236.0</ele><time>2026-03-29T08:31:02.994Z</time></trkpt><trkpt lat="43.134078505001426" lon="11.509708265445212"><ele>234.5</ele><time>2026-03-29T08:31:03.994Z</time></trkpt><trkpt lat="43.13401116677332" lon="11.509571207010522"><ele>233.0</ele><time>2026-03-29T08:31:04.994Z</time></trkpt><trkpt lat="43.133947312383555" lon="11.50943528370363"><ele>231.25</ele><time>2026-03-29T08:31:05.994Z</time></trkpt><trkpt lat="43.133885810635775" lon="11.509286685154706"><ele>229.5</ele><time>2026-03-29T08:31:06.994Z</time></trkpt><trkpt lat="43.133823765786666" lon="11.509110643472106"><ele>227.75</ele><time>2026-03-29T08:31:07.994Z</time></trkpt><trkpt lat="43.133778742895515" lon="11.508933626679433"><ele>226.0</ele><time>2026-03-29T08:31:08.994Z</time></trkpt><trkpt lat="43.13372759503705" lon="11.5087708613047"><ele>224.5</ele><time>2026-03-29T08:31:09.994Z</time></trkpt><trkpt lat="43.13368745922986" lon="11.508606384442526"><ele>223.0</ele><time>2026-03-29T08:31:10.994Z</time></trkpt><trkpt lat="43.13364180557662" lon="11.508436593956201"><ele>221.5</ele><time>2026-03-29T08:31:11.994Z</time></trkpt><trkpt lat="43.13360545306333" lon="11.50827376656762"><ele>220.0</ele><time>2026-03-29T08:31:12.994Z</time></trkpt><trkpt lat="43.133572567695715" lon="11.508099886882775"><ele>218.0</ele><time>2026-03-29T08:31:13.994Z</time></trkpt><trkpt lat="43.133545106122085" lon="11.507906442445247"><ele>216.0</ele><time>2026-03-29T08:31:14.994Z</time></trkpt><trkpt lat="43.13354565178978" lon="11.507688411376709"><ele>214.0</ele><time>2026-03-29T08:31:15.994Z</time></trkpt><trkpt lat="43.133547201900974" lon="11.507472647897007"><ele>214.0</ele><time>2026-03-29T08:31:16.994Z</time></trkpt><trkpt lat="43.1335645296269" lon="11.507248475703136"><ele>214.0</ele><time>2026-03-29T08:31:17.994Z</time></trkpt><trkpt lat="43.13358936059267" lon="11.507026895874159"><ele>214.0</ele><time>2026-03-29T08:31:18.994Z</time></trkpt><trkpt lat="43.133616696720956" lon="11.506806256281036"><ele>213.33333333333331</ele><time>2026-03-29T08:31:19.994Z</time></trkpt><trkpt lat="43.13364642824531" lon="11.506578455501819"><ele>212.66666666666669</ele><time>2026-03-29T08:31:20.994Z</time></trkpt><trkpt lat="43.133673014673384" lon="11.506346890885213"><ele>212.0</ele><time>2026-03-29T08:31:21.994Z</time></trkpt><trkpt lat="43.13371634939172" lon="11.506118655235742"><ele>211.0</ele><time>2026-03-29T08:31:22.994Z</time></trkpt><trkpt lat="43.13374440919026" lon="11.505891661013449"><ele>210.0</ele><time>2026-03-29T08:31:23.994Z</time></trkpt><trkpt lat="43.1337706059928" lon="11.505679737808984"><ele>209.0</ele><time>2026-03-29T08:31:24.994Z</time></trkpt><trkpt lat="43.133794865710826" lon="11.50548348515331"><ele>209.5</ele><time>2026-03-29T08:31:25.994Z</time></trkpt><trkpt lat="43.13381709824658" lon="11.505303631590557"><ele>210.0</ele><time>2026-03-29T08:31:26.994Z</time></trkpt><trkpt lat="43.13383812498053" lon="11.505128169527252"><ele>210.5</ele><time>2026-03-29T08:31:27.994Z</time></trkpt><trkpt lat="43.133844439505744" lon="11.504941633823178"><ele>211.0</ele><time>2026-03-29T08:31:28.994Z</time></trkpt><trkpt lat="43.13388309133798" lon="11.504749694129904"><ele>211.66666666666666</ele><time>2026-03-29T08:31:29.994Z</time></trkpt><trkpt lat="43.13391253870464" lon="11.50455178041619"><ele>212.33333333333331</ele><time>2026-03-29T08:31:30.994Z</time></trkpt><trkpt lat="43.13394356722412" lon="11.504339921098651"><ele>213.0</ele><time>2026-03-29T08:31:31.994Z</time></trkpt><trkpt lat="43.13397711133107" lon="11.504123112691893"><ele>213.0</ele><time>2026-03-29T08:31:32.994Z</time></trkpt><trkpt lat="43.13400142599225" lon="11.503912765255523"><ele>213.0</ele><time>2026-03-29T08:31:33.994Z</time></trkpt><trkpt lat="43.1340319059081" lon="11.50370899897308"><ele>213.0</ele><time>2026-03-29T08:31:34.995Z</time></trkpt><trkpt lat="43.13406628885929" lon="11.503511911353241"><ele>211.66666666666669</ele><time>2026-03-29T08:31:35.995Z</time></trkpt><trkpt lat="43.13410761516296" lon="11.503315421706308"><ele>210.33333333333334</ele><time>2026-03-29T08:31:36.995Z</time></trkpt><trkpt lat="43.13415470823828" lon="11.503104709907582"><ele>209.0</ele><time>2026-03-29T08:31:37.995Z</time></trkpt><trkpt lat="43.13419888445604" lon="11.502886260801224"><ele>206.66666666666669</ele><time>2026-03-29T08:31:38.995Z</time></trkpt><trkpt lat="43.13424332427445" lon="11.502660521974502"><ele>204.33333333333331</ele><time>2026-03-29T08:31:39.995Z</time></trkpt><trkpt lat="43.13428350855449" lon="11.502437692739507"><ele>202.0</ele><time>2026-03-29T08:31:40.994Z</time></trkpt><trkpt lat="43.13432278804671" lon="11.502217794524034"><ele>199.33333333333331</ele><time>2026-03-29T08:31:41.995Z</time></trkpt><trkpt lat="43.13436379268312" lon="11.50200412291168"><ele>196.66666666666669</ele><time>2026-03-29T08:31:42.995Z</time></trkpt><trkpt lat="43.13440446670854" lon="11.501795356066264"><ele>194.0</ele><time>2026-03-29T08:31:43.995Z</time></trkpt><trkpt lat="43.134444850982625" lon="11.50158978375104"><ele>194.0</ele><time>2026-03-29T08:31:44.995Z</time></trkpt><trkpt lat="43.13448380825467" lon="11.50138938444506"><ele>194.0</ele><time>2026-03-29T08:31:45.995Z</time></trkpt><trkpt lat="43.134522143366425" lon="11.501190372306477"><ele>194.0</ele><time>2026-03-29T08:31:46.995Z</time></trkpt><trkpt lat="43.13455936273651" lon="11.500988752309015"><ele>191.0</ele><time>2026-03-29T08:31:47.995Z</time></trkpt><trkpt lat="43.13459412149719" lon="11.500792562557402"><ele>188.0</ele><time>2026-03-29T08:31:48.995Z</time></trkpt><trkpt lat="43.13463320393961" lon="11.500591497574646"><ele>185.0</ele><time>2026-03-29T08:31:49.995Z</time></trkpt><trkpt lat="43.134672576474586" lon="11.500391330483172"><ele>182.0</ele><time>2026-03-29T08:31:50.995Z</time></trkpt><trkpt lat="43.13471497137893" lon="11.500186528479343"><ele>179.0</ele><time>2026-03-29T08:31:51.995Z</time></trkpt><trkpt lat="43.13475949210455" lon="11.499978160330736"><ele>176.0</ele><time>2026-03-29T08:31:52.995Z</time></trkpt><trkpt lat="43.13481019769326" lon="11.499763735059181"><ele>173.66666666666666</ele><time>2026-03-29T08:31:53.995Z</time></trkpt><trkpt lat="43.134865585627544" lon="11.499545386513768"><ele>171.33333333333334</ele><time>2026-03-29T08:31:54.995Z</time></trkpt><trkpt lat="43.134926433365145" lon="11.499327274285859"><ele>169.0</ele><time>2026-03-29T08:31:55.995Z</time></trkpt><trkpt lat="43.13498878688274" lon="11.499108682470878"><ele>169.0</ele><time>2026-03-29T08:31:56.995Z</time></trkpt><trkpt lat="43.13505286826678" lon="11.498890204680642"><ele>169.0</ele><time>2026-03-29T08:31:57.995Z</time></trkpt><trkpt lat="43.135135744411336" lon="11.498677256839137"><ele>169.0</ele><time>2026-03-29T08:31:58.995Z</time></trkpt><trkpt lat="43.135189862437386" lon="11.498456642226387"><ele>166.66666666666669</ele><time>2026-03-29T08:31:59.995Z</time></trkpt><trkpt lat="43.13525364290247" lon="11.498250895785555"><ele>164.33333333333334</ele><time>2026-03-29T08:32:00.995Z</time></trkpt><trkpt lat="43.13531552550752" lon="11.498060527964377"><ele>162.0</ele><time>2026-03-29T08:32:01.995Z</time></trkpt><trkpt lat="43.13537459643616" lon="11.497870618190554"><ele>161.66666666666666</ele><time>2026-03-29T08:32:02.995Z</time></trkpt><trkpt lat="43.13545064092083" lon="11.497689697556275"><ele>161.33333333333331</ele><time>2026-03-29T08:32:03.995Z</time></trkpt><trkpt lat="43.135518555252716" lon="11.497500730053755"><ele>161.0</ele><time>2026-03-29T08:32:04.995Z</time></trkpt><trkpt lat="43.135596952420165" lon="11.497320417791162"><ele>161.0</ele><time>2026-03-29T08:32:05.995Z</time></trkpt><trkpt lat="43.13568626325988" lon="11.49714761730228"><ele>161.0</ele><time>2026-03-29T08:32:06.995Z</time></trkpt><trkpt lat="43.13578270370028" lon="11.496980248728269"><ele>161.0</ele><time>2026-03-29T08:32:07.995Z</time></trkpt><trkpt lat="43.13587646399986" lon="11.49681853152243"><ele>161.25</ele><time>2026-03-29T08:32:08.995Z</time></trkpt><trkpt lat="43.135968036828885" lon="11.496656237498655"><ele>161.5</ele><time>2026-03-29T08:32:09.995Z</time></trkpt><trkpt lat="43.136061844585264" lon="11.496497995141551"><ele>161.75</ele><time>2026-03-29T08:32:10.995Z</time></trkpt><trkpt lat="43.136155366773224" lon="11.496340616582556"><ele>162.0</ele><time>2026-03-29T08:32:11.995Z</time></trkpt><trkpt lat="43.136248397955065" lon="11.496179656979233"><ele>162.33333333333334</ele><time>2026-03-29T08:32:12.995Z</time></trkpt><trkpt lat="43.13634193242064" lon="11.496018263065897"><ele>162.66666666666669</ele><time>2026-03-29T08:32:13.995Z</time></trkpt><trkpt lat="43.13643655398198" lon="11.495856849731387"><ele>163.0</ele><time>2026-03-29T08:32:14.995Z</time></trkpt><trkpt lat="43.13653184367109" lon="11.49569056655124"><ele>162.33333333333334</ele><time>2026-03-29T08:32:15.995Z</time></trkpt><trkpt lat="43.13662587031597" lon="11.495522219522913"><ele>161.66666666666666</ele><time>2026-03-29T08:32:16.995Z</time></trkpt><trkpt lat="43.13672311381756" lon="11.49535441692843"><ele>161.0</ele><time>2026-03-29T08:32:17.995Z</time></trkpt><trkpt lat="43.136829067050655" lon="11.495184785112501"><ele>163.0</ele><time>2026-03-29T08:32:18.995Z</time></trkpt><trkpt lat="43.13693413600081" lon="11.495012835725024"><ele>165.0</ele><time>2026-03-29T08:32:19.995Z</time></trkpt><trkpt lat="43.137035232238375" lon="11.494845526961692"><ele>167.0</ele><time>2026-03-29T08:32:20.995Z</time></trkpt><trkpt lat="43.13712738958902" lon="11.494688173836922"><ele>166.5</ele><time>2026-03-29T08:32:21.995Z</time></trkpt><trkpt lat="43.13721258602306" lon="11.494544491972412"><ele>166.0</ele><time>2026-03-29T08:32:22.995Z</time></trkpt><trkpt lat="43.1372853095935" lon="11.494410028774638"><ele>165.5</ele><time>2026-03-29T08:32:23.995Z</time></trkpt><trkpt lat="43.13734914046177" lon="11.49425843248051"><ele>165.0</ele><time>2026-03-29T08:32:24.995Z</time></trkpt><trkpt lat="43.13739699086771" lon="11.494087757369423"><ele>165.0</ele><time>2026-03-29T08:32:25.995Z</time></trkpt><trkpt lat="43.137432888023966" lon="11.493904956340321"><ele>165.0</ele><time>2026-03-29T08:32:26.995Z</time></trkpt><trkpt lat="43.137456791353145" lon="11.493713784775428"><ele>165.0</ele><time>2026-03-29T08:32:27.995Z</time></trkpt><trkpt lat="43.13747763580219" lon="11.493514850734016"><ele>165.0</ele><time>2026-03-29T08:32:28.995Z</time></trkpt><trkpt lat="43.13751472188822" lon="11.49332622453286"><ele>166.33333333333334</ele><time>2026-03-29T08:32:29.995Z</time></trkpt><trkpt lat="43.13753274097298" lon="11.49312772093918"><ele>167.66666666666669</ele><time>2026-03-29T08:32:30.995Z</time></trkpt><trkpt lat="43.137553708300715" lon="11.49291079625903"><ele>169.0</ele><time>2026-03-29T08:32:31.995Z</time></trkpt><trkpt lat="43.13758953625125" lon="11.492687398076798"><ele>169.66666666666669</ele><time>2026-03-29T08:32:32.995Z</time></trkpt><trkpt lat="43.13761590426239" lon="11.492459871466393"><ele>170.33333333333334</ele><time>2026-03-29T08:32:33.995Z</time></trkpt><trkpt lat="43.13764330288772" lon="11.492222037080433"><ele>171.0</ele><time>2026-03-29T08:32:34.995Z</time></trkpt><trkpt lat="43.13765973914097" lon="11.491988486958045"><ele>173.33333333333334</ele><time>2026-03-29T08:32:35.995Z</time></trkpt><trkpt lat="43.13771494240452" lon="11.491762746570037"><ele>175.66666666666669</ele><time>2026-03-29T08:32:36.995Z</time></trkpt><trkpt lat="43.13773887227192" lon="11.491545585871776"><ele>178.0</ele><time>2026-03-29T08:32:37.995Z</time></trkpt><trkpt lat="43.1377867425243" lon="11.491334615808034"><ele>178.8</ele><time>2026-03-29T08:32:38.995Z</time></trkpt><trkpt lat="43.13779884274159" lon="11.491110329888862"><ele>179.60000000000002</ele><time>2026-03-29T08:32:39.995Z</time></trkpt><trkpt lat="43.13781687203354" lon="11.490948298753356"><ele>180.39999999999998</ele><time>2026-03-29T08:32:40.995Z</time></trkpt><trkpt lat="43.13782336103137" lon="11.490843974916539"><ele>181.2</ele><time>2026-03-29T08:32:41.995Z</time></trkpt><trkpt lat="43.13782074541626" lon="11.490722945055792"><ele>182.0</ele><time>2026-03-29T08:32:42.995Z</time></trkpt><trkpt lat="43.13781009074941" lon="11.490605623188115"><ele>182.0</ele><time>2026-03-29T08:32:43.995Z</time></trkpt><trkpt lat="43.13779821576875" lon="11.490489099920794"><ele>182.0</ele><time>2026-03-29T08:32:44.995Z</time></trkpt><trkpt lat="43.13778213752308" lon="11.490354795792573"><ele>182.0</ele><time>2026-03-29T08:32:45.995Z</time></trkpt><trkpt lat="43.13777004931704" lon="11.490216087313168"><ele>182.0</ele><time>2026-03-29T08:32:46.995Z</time></trkpt><trkpt lat="43.137758860979304" lon="11.490068386744394"><ele>182.0</ele><time>2026-03-29T08:32:47.995Z</time></trkpt><trkpt lat="43.13774358339715" lon="11.489922575603215"><ele>180.75</ele><time>2026-03-29T08:32:48.994Z</time></trkpt><trkpt lat="43.137728851620714" lon="11.489762752487918"><ele>179.5</ele><time>2026-03-29T08:32:49.994Z</time></trkpt><trkpt lat="43.137724662616215" lon="11.489599423773917"><ele>178.25</ele><time>2026-03-29T08:32:50.994Z</time></trkpt><trkpt lat="43.13771696091926" lon="11.489419574403778"><ele>177.0</ele><time>2026-03-29T08:32:51.994Z</time></trkpt><trkpt lat="43.137704362972045" lon="11.48924561659414"><ele>174.0</ele><time>2026-03-29T08:32:52.994Z</time></trkpt><trkpt lat="43.13769678999877" lon="11.489073826208424"><ele>171.0</ele><time>2026-03-29T08:32:53.994Z</time></trkpt><trkpt lat="43.13769208353882" lon="11.48890795982677"><ele>168.0</ele><time>2026-03-29T08:32:54.994Z</time></trkpt><trkpt lat="43.13769021861075" lon="11.48875426729921"><ele>165.0</ele><time>2026-03-29T08:32:55.994Z</time></trkpt><trkpt lat="43.13768788311469" lon="11.488617464669288"><ele>163.0</ele><time>2026-03-29T08:32:56.994Z</time></trkpt><trkpt lat="43.13769369971315" lon="11.488477250816144"><ele>161.0</ele><time>2026-03-29T08:32:57.994Z</time></trkpt><trkpt lat="43.13769892163018" lon="11.488342305985732"><ele>159.0</ele><time>2026-03-29T08:32:58.994Z</time></trkpt><trkpt lat="43.13770517213519" lon="11.488197641070043"><ele>157.0</ele><time>2026-03-29T08:32:59.994Z</time></trkpt><trkpt lat="43.13770562444773" lon="11.488034915189612"><ele>155.0</ele><time>2026-03-29T08:33:00.994Z</time></trkpt><trkpt lat="43.137695841936335" lon="11.487898095150822"><ele>154.2</ele><time>2026-03-29T08:33:01.994Z</time></trkpt><trkpt lat="43.13768776255785" lon="11.487772677746149"><ele>153.4</ele><time>2026-03-29T08:33:02.994Z</time></trkpt><trkpt lat="43.137686895628164" lon="11.487631349092199"><ele>152.6</ele><time>2026-03-29T08:33:03.994Z</time></trkpt><trkpt lat="43.13768724868292" lon="11.487494905648736"><ele>151.8</ele><time>2026-03-29T08:33:04.994Z</time></trkpt><trkpt lat="43.13768448095306" lon="11.487358060809717"><ele>151.0</ele><time>2026-03-29T08:33:05.994Z</time></trkpt><trkpt lat="43.13768478184228" lon="11.487215190328802"><ele>150.4</ele><time>2026-03-29T08:33:06.994Z</time></trkpt><trkpt lat="43.13768307565623" lon="11.48707944468322"><ele>149.8</ele><time>2026-03-29T08:33:07.994Z</time></trkpt><trkpt lat="43.13768532978562" lon="11.48694193121914"><ele>149.20000000000002</ele><time>2026-03-29T08:33:08.994Z</time></trkpt><trkpt lat="43.13769262535586" lon="11.486812556799217"><ele>148.6</ele><time>2026-03-29T08:33:09.994Z</time></trkpt><trkpt lat="43.13769833613824" lon="11.48669845041633"><ele>148.0</ele><time>2026-03-29T08:33:10.994Z</time></trkpt><trkpt lat="43.13770307721211" lon="11.486589782234912"><ele>148.0</ele><time>2026-03-29T08:33:12.994Z</time></trkpt><trkpt lat="43.13783512660892" lon="11.486567286494541"><ele>148.0</ele><time>2026-03-29T08:33:15.994Z</time></trkpt><trkpt lat="43.13792792880888" lon="11.486558434344571"><ele>148.0</ele><time>2026-03-29T08:33:16.994Z</time></trkpt><trkpt lat="43.13801779479709" lon="11.48657452988617"><ele>148.0</ele><time>2026-03-29T08:33:17.994Z</time></trkpt><trkpt lat="43.13810247676294" lon="11.486577887804295"><ele>148.0</ele><time>2026-03-29T08:33:18.994Z</time></trkpt><trkpt lat="43.138205216972956" lon="11.486581961788076"><ele>148.0</ele><time>2026-03-29T08:33:20.994Z</time></trkpt><trkpt lat="43.13823063961315" lon="11.486373834399936"><ele>148.0</ele><time>2026-03-29T08:33:23.994Z</time></trkpt><trkpt lat="43.13822259329409" lon="11.486285788832575"><ele>148.0</ele><time>2026-03-29T08:33:24.994Z</time></trkpt><trkpt lat="43.13822782601362" lon="11.486181591591498"><ele>148.0</ele><time>2026-03-29T08:33:25.994Z</time></trkpt><trkpt lat="43.13823511776082" lon="11.486082514185682"><ele>148.0</ele><time>2026-03-29T08:33:26.994Z</time></trkpt><trkpt lat="43.13824352986773" lon="11.485984439627538"><ele>148.0</ele><time>2026-03-29T08:33:27.994Z</time></trkpt><trkpt lat="43.138242387175644" lon="11.485896131123061"><ele>148.0</ele><time>2026-03-29T08:33:28.994Z</time></trkpt><trkpt lat="43.13823045702095" lon="11.485780222890451"><ele>148.0</ele><time>2026-03-29T08:33:30.994Z</time></trkpt><trkpt lat="43.138226682629494" lon="11.485690080045728"><ele>148.0</ele><time>2026-03-29T08:33:32.994Z</time></trkpt><trkpt lat="43.1382207156418" lon="11.485572100241194"><ele>148.0</ele><time>2026-03-29T08:33:34.994Z</time></trkpt><trkpt lat="43.138219794935516" lon="11.48547679163915"><ele>148.0</ele><time>2026-03-29T08:33:35.994Z</time></trkpt><trkpt lat="43.138215260465756" lon="11.485360980925318"><ele>148.0</ele><time>2026-03-29T08:33:36.994Z</time></trkpt><trkpt lat="43.13821127363093" lon="11.485243754684927"><ele>148.0</ele><time>2026-03-29T08:33:37.994Z</time></trkpt><trkpt lat="43.13820950386602" lon="11.485148147982724"><ele>148.0</ele><time>2026-03-29T08:33:38.994Z</time></trkpt><trkpt lat="43.13820974219376" lon="11.485020006704717"><ele>148.0</ele><time>2026-03-29T08:33:40.995Z</time></trkpt><trkpt lat="43.138328845796615" lon="11.485001015516852"><ele>148.0</ele><time>2026-03-29T08:33:44.995Z</time></trkpt><trkpt lat="43.13840989840707" lon="11.485004718501056"><ele>148.0</ele><time>2026-03-29T08:33:45.995Z</time></trkpt><trkpt lat="43.13849154027855" lon="11.485012824796783"><ele>148.0</ele><time>2026-03-29T08:33:46.995Z</time></trkpt><trkpt lat="43.13857405283023" lon="11.485020233392364"><ele>147.66666666666669</ele><time>2026-03-29T08:33:47.995Z</time></trkpt><trkpt lat="43.13864310895631" lon="11.485016582596469"><ele>147.33333333333334</ele><time>2026-03-29T08:33:48.995Z</time></trkpt><trkpt lat="43.13875281389851" lon="11.485011685862862"><ele>147.0</ele><time>2026-03-29T08:33:50.995Z</time></trkpt><trkpt lat="43.13881658135138" lon="11.485042126682865"><ele>146.66666666666666</ele><time>2026-03-29T08:33:52.995Z</time></trkpt><trkpt lat="43.138836713678955" lon="11.485183974647429"><ele>146.33333333333331</ele><time>2026-03-29T08:33:55.995Z</time></trkpt><trkpt lat="43.138839502937195" lon="11.485302832085655"><ele>146.0</ele><time>2026-03-29T08:33:57.995Z</time></trkpt><trkpt lat="43.13899739303644" lon="11.485300207427066"><ele>145.83333333333331</ele><time>2026-03-29T08:34:00.995Z</time></trkpt><trkpt lat="43.139065077254" lon="11.48527557240765"><ele>145.66666666666666</ele><time>2026-03-29T08:34:01.995Z</time></trkpt><trkpt lat="43.13915398241972" lon="11.485243213744562"><ele>145.5</ele><time>2026-03-29T08:34:02.995Z</time></trkpt><trkpt lat="43.13924852485768" lon="11.485208803245262"><ele>145.33333333333334</ele><time>2026-03-29T08:34:03.995Z</time></trkpt><trkpt lat="43.13933431723021" lon="11.485177577500439"><ele>145.16666666666669</ele><time>2026-03-29T08:34:04.995Z</time></trkpt><trkpt lat="43.13941240812379" lon="11.485149154818096"><ele>145.0</ele><time>2026-03-29T08:34:05.995Z</time></trkpt><trkpt lat="43.139486200139146" lon="11.485099307440928"><ele>145.0</ele><time>2026-03-29T08:34:06.995Z</time></trkpt><trkpt lat="43.139564366590164" lon="11.485089546771498"><ele>145.0</ele><time>2026-03-29T08:34:07.995Z</time></trkpt><trkpt lat="43.13966358904394" lon="11.485049892310082"><ele>145.0</ele><time>2026-03-29T08:34:09.995Z</time></trkpt><trkpt lat="43.139690749665824" lon="11.484882037774739"><ele>145.0</ele><time>2026-03-29T08:34:15.995Z</time></trkpt><trkpt lat="43.13965862457093" lon="11.484693013574827"><ele>145.0</ele><time>2026-03-29T08:34:17.995Z</time></trkpt><trkpt lat="43.13963567999329" lon="11.484585101516497"><ele>144.8</ele><time>2026-03-29T08:34:18.995Z</time></trkpt><trkpt lat="43.13959517488162" lon="11.484470935522593"><ele>144.6</ele><time>2026-03-29T08:34:19.995Z</time></trkpt><trkpt lat="43.13958408582594" lon="11.484338091508599"><ele>144.4</ele><time>2026-03-29T08:34:20.995Z</time></trkpt><trkpt lat="43.13955221292544" lon="11.484220144512879"><ele>144.2</ele><time>2026-03-29T08:34:21.994Z</time></trkpt><trkpt lat="43.13951891494593" lon="11.484098588656508"><ele>144.0</ele><time>2026-03-29T08:34:22.994Z</time></trkpt><trkpt lat="43.13948202442013" lon="11.483977313833455"><ele>144.0</ele><time>2026-03-29T08:34:23.994Z</time></trkpt><trkpt lat="43.13944229076432" lon="11.483844209876404"><ele>144.0</ele><time>2026-03-29T08:34:24.994Z</time></trkpt><trkpt lat="43.13939536933059" lon="11.483714917526212"><ele>144.0</ele><time>2026-03-29T08:34:25.994Z</time></trkpt><trkpt lat="43.139356491609455" lon="11.483577839644171"><ele>144.0</ele><time>2026-03-29T08:34:26.994Z</time></trkpt><trkpt lat="43.13932566423778" lon="11.48344768185082"><ele>144.0</ele><time>2026-03-29T08:34:27.994Z</time></trkpt><trkpt lat="43.13929555776263" lon="11.48333436684075"><ele>144.16666666666666</ele><time>2026-03-29T08:34:28.994Z</time></trkpt><trkpt lat="43.13926849467375" lon="11.483230098630678"><ele>144.33333333333334</ele><time>2026-03-29T08:34:29.994Z</time></trkpt><trkpt lat="43.13923832187068" lon="11.48315184837711"><ele>144.5</ele><time>2026-03-29T08:34:30.994Z</time></trkpt><trkpt lat="43.13923346563843" lon="11.483049299248263"><ele>144.66666666666669</ele><time>2026-03-29T08:34:32.994Z</time></trkpt><trkpt lat="43.13933944524268" lon="11.482918808873134"><ele>144.83333333333334</ele><time>2026-03-29T08:34:36.994Z</time></trkpt><trkpt lat="43.139412508803176" lon="11.482875697130291"><ele>145.0</ele><time>2026-03-29T08:34:37.994Z</time></trkpt><trkpt lat="43.13948355428455" lon="11.482835048915945"><ele>145.33333333333334</ele><time>2026-03-29T08:34:38.994Z</time></trkpt><trkpt lat="43.13955496731353" lon="11.482787455623106"><ele>145.66666666666669</ele><time>2026-03-29T08:34:39.994Z</time></trkpt><trkpt lat="43.13962440629036" lon="11.48273000366283"><ele>146.0</ele><time>2026-03-29T08:34:40.994Z</time></trkpt><trkpt lat="43.13969867213457" lon="11.482675840589364"><ele>146.33333333333334</ele><time>2026-03-29T08:34:41.994Z</time></trkpt><trkpt lat="43.139778021485945" lon="11.482608709573048"><ele>146.66666666666666</ele><time>2026-03-29T08:34:42.994Z</time></trkpt><trkpt lat="43.139875868208456" lon="11.482545901936483"><ele>147.0</ele><time>2026-03-29T08:34:43.994Z</time></trkpt><trkpt lat="43.13997951542603" lon="11.482469141686444"><ele>146.0</ele><time>2026-03-29T08:34:44.994Z</time></trkpt><trkpt lat="43.140084864965566" lon="11.482392909290661"><ele>145.0</ele><time>2026-03-29T08:34:45.994Z</time></trkpt><trkpt lat="43.140196040089165" lon="11.482317214123738"><ele>144.0</ele><time>2026-03-29T08:34:46.994Z</time></trkpt><trkpt lat="43.14031176808098" lon="11.482238342798604"><ele>143.0</ele><time>2026-03-29T08:34:47.994Z</time></trkpt><trkpt lat="43.140430157776294" lon="11.482151233390187"><ele>142.75</ele><time>2026-03-29T08:34:48.994Z</time></trkpt><trkpt lat="43.140554809688616" lon="11.482060195441141"><ele>142.5</ele><time>2026-03-29T08:34:49.994Z</time></trkpt><trkpt lat="43.14068059606198" lon="11.481968038479392"><ele>142.25</ele><time>2026-03-29T08:34:50.994Z</time></trkpt><trkpt lat="43.14080831655691" lon="11.48188018815559"><ele>142.0</ele><time>2026-03-29T08:34:51.994Z</time></trkpt><trkpt lat="43.14093405782658" lon="11.481788472895124"><ele>141.75</ele><time>2026-03-29T08:34:52.994Z</time></trkpt><trkpt lat="43.14105880279537" lon="11.481704147577782"><ele>141.5</ele><time>2026-03-29T08:34:53.994Z</time></trkpt><trkpt lat="43.14118054162257" lon="11.48161506243588"><ele>141.25</ele><time>2026-03-29T08:34:54.994Z</time></trkpt><trkpt lat="43.14130170592089" lon="11.481527305991534"><ele>141.0</ele><time>2026-03-29T08:34:55.994Z</time></trkpt><trkpt lat="43.141416562245524" lon="11.48144220597904"><ele>141.0</ele><time>2026-03-29T08:34:56.994Z</time></trkpt><trkpt lat="43.141527833539115" lon="11.481341682803667"><ele>141.0</ele><time>2026-03-29T08:34:57.994Z</time></trkpt><trkpt lat="43.14163667522887" lon="11.481226149407227"><ele>141.0</ele><time>2026-03-29T08:34:58.994Z</time></trkpt><trkpt lat="43.141738472696645" lon="11.481104285196778"><ele>141.0</ele><time>2026-03-29T08:34:59.994Z</time></trkpt><trkpt lat="43.14183106393165" lon="11.480984174831551"><ele>141.2</ele><time>2026-03-29T08:35:00.994Z</time></trkpt><trkpt lat="43.14191271186853" lon="11.480873265261149"><ele>141.39999999999998</ele><time>2026-03-29T08:35:01.994Z</time></trkpt><trkpt lat="43.141982250428235" lon="11.480770676726959"><ele>141.6</ele><time>2026-03-29T08:35:02.994Z</time></trkpt><trkpt lat="43.142053155908904" lon="11.48067541689921"><ele>141.79999999999998</ele><time>2026-03-29T08:35:03.994Z</time></trkpt><trkpt lat="43.14215009420935" lon="11.480599184655842"><ele>142.0</ele><time>2026-03-29T08:35:04.994Z</time></trkpt><trkpt lat="43.14223516673295" lon="11.480491325682811"><ele>141.75</ele><time>2026-03-29T08:35:05.994Z</time></trkpt><trkpt lat="43.14232304918931" lon="11.480385834178179"><ele>141.5</ele><time>2026-03-29T08:35:06.994Z</time></trkpt><trkpt lat="43.142412632268716" lon="11.480277088282612"><ele>141.25</ele><time>2026-03-29T08:35:07.994Z</time></trkpt><trkpt lat="43.142496796723904" lon="11.480159890707228"><ele>141.0</ele><time>2026-03-29T08:35:08.994Z</time></trkpt><trkpt lat="43.142581272444" lon="11.48004049604417"><ele>141.5</ele><time>2026-03-29T08:35:09.994Z</time></trkpt><trkpt lat="43.142665259783456" lon="11.479898053056795"><ele>142.0</ele><time>2026-03-29T08:35:10.994Z</time></trkpt><trkpt lat="43.14273550680567" lon="11.479730592528066"><ele>142.5</ele><time>2026-03-29T08:35:11.994Z</time></trkpt><trkpt lat="43.14278716709405" lon="11.479558424383736"><ele>143.0</ele><time>2026-03-29T08:35:12.994Z</time></trkpt><trkpt lat="43.14281953540203" lon="11.479371093656484"><ele>143.0</ele><time>2026-03-29T08:35:13.994Z</time></trkpt><trkpt lat="43.14284344824648" lon="11.479180492437772"><ele>143.0</ele><time>2026-03-29T08:35:14.994Z</time></trkpt><trkpt lat="43.142870177209055" lon="11.478995746995132"><ele>143.0</ele><time>2026-03-29T08:35:15.994Z</time></trkpt><trkpt lat="43.142890681291014" lon="11.4788154246036"><ele>143.0</ele><time>2026-03-29T08:35:16.994Z</time></trkpt><trkpt lat="43.1429298236582" lon="11.478640270448818"><ele>143.0</ele><time>2026-03-29T08:35:17.994Z</time></trkpt><trkpt lat="43.1429621739461" lon="11.478463419173892"><ele>143.0</ele><time>2026-03-29T08:35:18.994Z</time></trkpt><trkpt lat="43.14299291921085" lon="11.478284303261457"><ele>143.0</ele><time>2026-03-29T08:35:19.994Z</time></trkpt><trkpt lat="43.143023123399445" lon="11.478107057788913"><ele>143.0</ele><time>2026-03-29T08:35:20.994Z</time></trkpt><trkpt lat="43.14305701001002" lon="11.47793770557813"><ele>143.0</ele><time>2026-03-29T08:35:21.994Z</time></trkpt><trkpt lat="43.14309629635608" lon="11.477771893744235"><ele>143.0</ele><time>2026-03-29T08:35:22.994Z</time></trkpt><trkpt lat="43.14314901742578" lon="11.47761026406231"><ele>143.0</ele><time>2026-03-29T08:35:23.994Z</time></trkpt><trkpt lat="43.1432108422092" lon="11.47745993110167"><ele>143.0</ele><time>2026-03-29T08:35:24.994Z</time></trkpt><trkpt lat="43.14328169729041" lon="11.47732537189758"><ele>143.0</ele><time>2026-03-29T08:35:25.994Z</time></trkpt><trkpt lat="43.14335598732809" lon="11.477193026830728"><ele>143.0</ele><time>2026-03-29T08:35:26.994Z</time></trkpt><trkpt lat="43.143437392605975" lon="11.477074171691013"><ele>143.0</ele><time>2026-03-29T08:35:27.994Z</time></trkpt><trkpt lat="43.14354179856641" lon="11.476966569010319"><ele>143.0</ele><time>2026-03-29T08:35:28.994Z</time></trkpt><trkpt lat="43.14364974779995" lon="11.476855613126279"><ele>143.0</ele><time>2026-03-29T08:35:29.994Z</time></trkpt><trkpt lat="43.14376161957304" lon="11.476742119136107"><ele>143.0</ele><time>2026-03-29T08:35:30.994Z</time></trkpt><trkpt lat="43.14387589462342" lon="11.476617462400208"><ele>143.0</ele><time>2026-03-29T08:35:31.994Z</time></trkpt><trkpt lat="43.14398956882578" lon="11.476491404048765"><ele>143.0</ele><time>2026-03-29T08:35:32.994Z</time></trkpt><trkpt lat="43.14410406584483" lon="11.476364164909445"><ele>142.75</ele><time>2026-03-29T08:35:33.994Z</time></trkpt><trkpt lat="43.144219216538595" lon="11.47626348390136"><ele>142.5</ele><time>2026-03-29T08:35:34.994Z</time></trkpt><trkpt lat="43.14434594091309" lon="11.476197402205367"><ele>142.25</ele><time>2026-03-29T08:35:35.994Z</time></trkpt><trkpt lat="43.14448434941833" lon="11.476178025255294"><ele>142.0</ele><time>2026-03-29T08:35:36.994Z</time></trkpt><trkpt lat="43.144651854257226" lon="11.476221479051041"><ele>142.0</ele><time>2026-03-29T08:35:37.994Z</time></trkpt><trkpt lat="43.1448395169078" lon="11.476239508999415"><ele>142.0</ele><time>2026-03-29T08:35:38.994Z</time></trkpt><trkpt lat="43.1450274610102" lon="11.476282113189658"><ele>142.0</ele><time>2026-03-29T08:35:39.994Z</time></trkpt><trkpt lat="43.14521665876168" lon="11.476256579911174"><ele>142.0</ele><time>2026-03-29T08:35:40.994Z</time></trkpt><trkpt lat="43.14540832384918" lon="11.4762196375298"><ele>142.0</ele><time>2026-03-29T08:35:41.994Z</time></trkpt><trkpt lat="43.145586064805364" lon="11.476170170969395"><ele>142.0</ele><time>2026-03-29T08:35:42.994Z</time></trkpt><trkpt lat="43.14575677967604" lon="11.476134621386494"><ele>143.0</ele><time>2026-03-29T08:35:43.994Z</time></trkpt><trkpt lat="43.14593332865758" lon="11.476072391127522"><ele>144.0</ele><time>2026-03-29T08:35:44.994Z</time></trkpt><trkpt lat="43.146103692071314" lon="11.47598875579949"><ele>145.0</ele><time>2026-03-29T08:35:45.994Z</time></trkpt><trkpt lat="43.1462906445106" lon="11.475941543906865"><ele>145.0</ele><time>2026-03-29T08:35:46.994Z</time></trkpt><trkpt lat="43.14646301019605" lon="11.475876944679701"><ele>145.0</ele><time>2026-03-29T08:35:47.994Z</time></trkpt><trkpt lat="43.14663792212409" lon="11.47580820789165"><ele>145.0</ele><time>2026-03-29T08:35:48.994Z</time></trkpt><trkpt lat="43.14681157605999" lon="11.475747616215424"><ele>146.0</ele><time>2026-03-29T08:35:49.994Z</time></trkpt><trkpt lat="43.14698550861182" lon="11.475685488362469"><ele>147.0</ele><time>2026-03-29T08:35:50.994Z</time></trkpt><trkpt lat="43.14715777259706" lon="11.47562053520339"><ele>148.0</ele><time>2026-03-29T08:35:51.994Z</time></trkpt><trkpt lat="43.14733235119032" lon="11.475554059733062"><ele>148.66666666666669</ele><time>2026-03-29T08:35:52.994Z</time></trkpt><trkpt lat="43.14750604652096" lon="11.475486076601161"><ele>149.33333333333334</ele><time>2026-03-29T08:35:53.994Z</time></trkpt><trkpt lat="43.14767888050755" lon="11.475417362176595"><ele>150.0</ele><time>2026-03-29T08:35:54.994Z</time></trkpt><trkpt lat="43.14785414520795" lon="11.475353808444595"><ele>148.66666666666666</ele><time>2026-03-29T08:35:55.994Z</time></trkpt><trkpt lat="43.14802684715092" lon="11.47528897537176"><ele>147.33333333333331</ele><time>2026-03-29T08:35:56.994Z</time></trkpt><trkpt lat="43.148198672593374" lon="11.475226749311744"><ele>146.0</ele><time>2026-03-29T08:35:57.994Z</time></trkpt><trkpt lat="43.148370925430584" lon="11.475156676903106"><ele>146.0</ele><time>2026-03-29T08:35:58.994Z</time></trkpt><trkpt lat="43.148544705233256" lon="11.47509024860465"><ele>146.0</ele><time>2026-03-29T08:35:59.994Z</time></trkpt><trkpt lat="43.14871490885435" lon="11.475021271424763"><ele>146.0</ele><time>2026-03-29T08:36:00.994Z</time></trkpt><trkpt lat="43.14888397047489" lon="11.474964665034669"><ele>146.66666666666666</ele><time>2026-03-29T08:36:01.994Z</time></trkpt><trkpt lat="43.14904529380221" lon="11.4748985969863"><ele>147.33333333333334</ele><time>2026-03-29T08:36:02.994Z</time></trkpt><trkpt lat="43.14919287855831" lon="11.474835721663071"><ele>148.0</ele><time>2026-03-29T08:36:03.994Z</time></trkpt><trkpt lat="43.14933448703469" lon="11.47476639888598"><ele>148.0</ele><time>2026-03-29T08:36:04.994Z</time></trkpt><trkpt lat="43.14947259888663" lon="11.474692509079823"><ele>148.0</ele><time>2026-03-29T08:36:05.994Z</time></trkpt><trkpt lat="43.14960430821232" lon="11.474601583125498"><ele>148.0</ele><time>2026-03-29T08:36:06.994Z</time></trkpt><trkpt lat="43.149735120703056" lon="11.474507299929943"><ele>148.0</ele><time>2026-03-29T08:36:07.994Z</time></trkpt><trkpt lat="43.14987557796978" lon="11.474437910885028"><ele>147.75</ele><time>2026-03-29T08:36:08.994Z</time></trkpt><trkpt lat="43.149991119336605" lon="11.474338328842713"><ele>147.5</ele><time>2026-03-29T08:36:09.994Z</time></trkpt><trkpt lat="43.150119854137024" lon="11.474280349416167"><ele>147.25</ele><time>2026-03-29T08:36:10.994Z</time></trkpt><trkpt lat="43.150240342986976" lon="11.474200661185662"><ele>147.0</ele><time>2026-03-29T08:36:11.994Z</time></trkpt><trkpt lat="43.15036055358669" lon="11.47411563256995"><ele>147.0</ele><time>2026-03-29T08:36:12.994Z</time></trkpt><trkpt lat="43.15046892430226" lon="11.474006796661254"><ele>147.0</ele><time>2026-03-29T08:36:13.994Z</time></trkpt><trkpt lat="43.15059208476231" lon="11.473919536692978"><ele>147.0</ele><time>2026-03-29T08:36:14.994Z</time></trkpt><trkpt lat="43.15070850014817" lon="11.473813593291746"><ele>147.0</ele><time>2026-03-29T08:36:15.994Z</time></trkpt><trkpt lat="43.150820702335025" lon="11.473694961299296"><ele>147.33333333333334</ele><time>2026-03-29T08:36:16.993Z</time></trkpt><trkpt lat="43.15094867764699" lon="11.473596422779432"><ele>147.66666666666669</ele><time>2026-03-29T08:36:17.993Z</time></trkpt><trkpt lat="43.15107331447959" lon="11.473455721276247"><ele>148.0</ele><time>2026-03-29T08:36:18.993Z</time></trkpt><trkpt lat="43.15122457785155" lon="11.473321201628169"><ele>148.0</ele><time>2026-03-29T08:36:19.993Z</time></trkpt><trkpt lat="43.15137741631222" lon="11.47316990540625"><ele>148.0</ele><time>2026-03-29T08:36:20.993Z</time></trkpt><trkpt lat="43.151536196629195" lon="11.473026645021935"><ele>148.0</ele><time>2026-03-29T08:36:21.993Z</time></trkpt><trkpt lat="43.15169500304625" lon="11.4729017115727"><ele>146.33333333333334</ele><time>2026-03-29T08:36:22.993Z</time></trkpt><trkpt lat="43.15185913598735" lon="11.472799068558539"><ele>144.66666666666666</ele><time>2026-03-29T08:36:23.993Z</time></trkpt><trkpt lat="43.15202644461502" lon="11.472713322102626"><ele>143.0</ele><time>2026-03-29T08:36:24.993Z</time></trkpt><trkpt lat="43.15219593692944" lon="11.472631492228494"><ele>143.0</ele><time>2026-03-29T08:36:25.993Z</time></trkpt><trkpt lat="43.152362963028516" lon="11.4725593927705"><ele>143.0</ele><time>2026-03-29T08:36:26.993Z</time></trkpt><trkpt lat="43.152534789583285" lon="11.472506834376789"><ele>143.0</ele><time>2026-03-29T08:36:27.993Z</time></trkpt><trkpt lat="43.15270877294434" lon="11.472465861041933"><ele>143.0</ele><time>2026-03-29T08:36:28.993Z</time></trkpt><trkpt lat="43.15288109408288" lon="11.47242838230109"><ele>143.0</ele><time>2026-03-29T08:36:29.993Z</time></trkpt><trkpt lat="43.153054877357185" lon="11.472391012406192"><ele>143.0</ele><time>2026-03-29T08:36:30.993Z</time></trkpt><trkpt lat="43.153224620235065" lon="11.472346623580782"><ele>143.0</ele><time>2026-03-29T08:36:31.993Z</time></trkpt><trkpt lat="43.15339599391481" lon="11.472302396530473"><ele>143.0</ele><time>2026-03-29T08:36:32.993Z</time></trkpt><trkpt lat="43.15353646900538" lon="11.472251208671436"><ele>143.0</ele><time>2026-03-29T08:36:33.993Z</time></trkpt><trkpt lat="43.15371086129424" lon="11.472233689793075"><ele>143.0</ele><time>2026-03-29T08:36:34.993Z</time></trkpt><trkpt lat="43.15388252508314" lon="11.472194293883422"><ele>143.0</ele><time>2026-03-29T08:36:35.993Z</time></trkpt><trkpt lat="43.15404969257956" lon="11.472135798207436"><ele>143.0</ele><time>2026-03-29T08:36:36.993Z</time></trkpt><trkpt lat="43.15422482453257" lon="11.472099046942386"><ele>143.33333333333331</ele><time>2026-03-29T08:36:37.993Z</time></trkpt><trkpt lat="43.1543939760075" lon="11.472062242164858"><ele>143.66666666666666</ele><time>2026-03-29T08:36:38.993Z</time></trkpt><trkpt lat="43.15456418757471" lon="11.472026740536572"><ele>144.0</ele><time>2026-03-29T08:36:39.993Z</time></trkpt><trkpt lat="43.15473254640357" lon="11.471988475836229"><ele>144.33333333333334</ele><time>2026-03-29T08:36:40.993Z</time></trkpt><trkpt lat="43.15489873089079" lon="11.471946705388536"><ele>144.66666666666669</ele><time>2026-03-29T08:36:41.993Z</time></trkpt><trkpt lat="43.15506301757786" lon="11.471904133117702"><ele>145.0</ele><time>2026-03-29T08:36:42.993Z</time></trkpt><trkpt lat="43.15522903314287" lon="11.471886084290091"><ele>145.0</ele><time>2026-03-29T08:36:43.993Z</time></trkpt><trkpt lat="43.155392388754635" lon="11.471828671084152"><ele>145.0</ele><time>2026-03-29T08:36:44.993Z</time></trkpt><trkpt lat="43.15555832507649" lon="11.471792668699162"><ele>145.0</ele><time>2026-03-29T08:36:45.993Z</time></trkpt><trkpt lat="43.15572585595496" lon="11.471755783185845"><ele>146.0</ele><time>2026-03-29T08:36:46.993Z</time></trkpt><trkpt lat="43.155897631139055" lon="11.471715562467114"><ele>147.0</ele><time>2026-03-29T08:36:47.993Z</time></trkpt><trkpt lat="43.156074223155066" lon="11.471678701999545"><ele>148.0</ele><time>2026-03-29T08:36:48.993Z</time></trkpt><trkpt lat="43.15625608755581" lon="11.471637535383818"><ele>148.0</ele><time>2026-03-29T08:36:49.993Z</time></trkpt><trkpt lat="43.156437456597644" lon="11.471595990041033"><ele>148.0</ele><time>2026-03-29T08:36:50.993Z</time></trkpt><trkpt lat="43.15661978535187" lon="11.471554461904939"><ele>148.0</ele><time>2026-03-29T08:36:51.993Z</time></trkpt><trkpt lat="43.15679811181422" lon="11.471516343745265"><ele>148.33333333333334</ele><time>2026-03-29T08:36:52.993Z</time></trkpt><trkpt lat="43.156977193990606" lon="11.471475018315205"><ele>148.66666666666666</ele><time>2026-03-29T08:36:53.993Z</time></trkpt><trkpt lat="43.157157691125555" lon="11.47143117880556"><ele>149.0</ele><time>2026-03-29T08:36:54.993Z</time></trkpt><trkpt lat="43.15734054018036" lon="11.471384855444196"><ele>149.0</ele><time>2026-03-29T08:36:55.993Z</time></trkpt><trkpt lat="43.157516387262824" lon="11.471350581665192"><ele>149.0</ele><time>2026-03-29T08:36:56.993Z</time></trkpt><trkpt lat="43.15767310800248" lon="11.471320640657938"><ele>149.0</ele><time>2026-03-29T08:36:57.993Z</time></trkpt><trkpt lat="43.157841011916446" lon="11.471265531770925"><ele>148.33333333333331</ele><time>2026-03-29T08:36:58.993Z</time></trkpt><trkpt lat="43.157999940468166" lon="11.47115609155782"><ele>147.66666666666666</ele><time>2026-03-29T08:36:59.993Z</time></trkpt><trkpt lat="43.15815805133447" lon="11.471036849785747"><ele>147.0</ele><time>2026-03-29T08:37:00.993Z</time></trkpt><trkpt lat="43.15831436826671" lon="11.470913036833586"><ele>147.0</ele><time>2026-03-29T08:37:01.993Z</time></trkpt><trkpt lat="43.15848530369729" lon="11.47081736100559"><ele>147.0</ele><time>2026-03-29T08:37:02.993Z</time></trkpt><trkpt lat="43.15864141024998" lon="11.470696357089256"><ele>147.0</ele><time>2026-03-29T08:37:03.993Z</time></trkpt><trkpt lat="43.15879847064724" lon="11.470570079100517"><ele>147.0</ele><time>2026-03-29T08:37:04.993Z</time></trkpt><trkpt lat="43.15895472170284" lon="11.470438031124072"><ele>147.0</ele><time>2026-03-29T08:37:05.993Z</time></trkpt><trkpt lat="43.15910495789832" lon="11.470306553299048"><ele>147.0</ele><time>2026-03-29T08:37:06.993Z</time></trkpt><trkpt lat="43.15926192881208" lon="11.47017315645986"><ele>147.0</ele><time>2026-03-29T08:37:07.993Z</time></trkpt><trkpt lat="43.159413080808754" lon="11.470032901993045"><ele>147.0</ele><time>2026-03-29T08:37:08.993Z</time></trkpt><trkpt lat="43.159561327907596" lon="11.469890330830685"><ele>147.0</ele><time>2026-03-29T08:37:09.993Z</time></trkpt><trkpt lat="43.15970563707004" lon="11.469745127513809"><ele>147.0</ele><time>2026-03-29T08:37:10.993Z</time></trkpt><trkpt lat="43.15985042679936" lon="11.469605682480971"><ele>147.0</ele><time>2026-03-29T08:37:11.993Z</time></trkpt><trkpt lat="43.15999438157263" lon="11.469469609969996"><ele>147.0</ele><time>2026-03-29T08:37:12.993Z</time></trkpt><trkpt lat="43.160127276843994" lon="11.469344758114657"><ele>146.66666666666666</ele><time>2026-03-29T08:37:13.993Z</time></trkpt><trkpt lat="43.16025177277578" lon="11.469220033633436"><ele>146.33333333333331</ele><time>2026-03-29T08:37:14.993Z</time></trkpt><trkpt lat="43.16037747650116" lon="11.469095401941338"><ele>146.0</ele><time>2026-03-29T08:37:15.993Z</time></trkpt><trkpt lat="43.160508672556084" lon="11.468974238615662"><ele>146.0</ele><time>2026-03-29T08:37:16.993Z</time></trkpt><trkpt lat="43.16064813240176" lon="11.468854386466505"><ele>146.0</ele><time>2026-03-29T08:37:17.993Z</time></trkpt><trkpt lat="43.160810396195025" lon="11.468791146958617"><ele>146.0</ele><time>2026-03-29T08:37:18.993Z</time></trkpt><trkpt lat="43.1609637018748" lon="11.468734127256457"><ele>147.0</ele><time>2026-03-29T08:37:19.993Z</time></trkpt><trkpt lat="43.161116095124584" lon="11.468697180913102"><ele>148.0</ele><time>2026-03-29T08:37:20.993Z</time></trkpt><trkpt lat="43.16128118549622" lon="11.468663547110657"><ele>149.0</ele><time>2026-03-29T08:37:21.993Z</time></trkpt><trkpt lat="43.1614682426607" lon="11.468626375781657"><ele>149.66666666666666</ele><time>2026-03-29T08:37:22.993Z</time></trkpt><trkpt lat="43.16166765406454" lon="11.468587676589841"><ele>150.33333333333334</ele><time>2026-03-29T08:37:23.993Z</time></trkpt><trkpt lat="43.16185836203417" lon="11.468550666404209"><ele>151.0</ele><time>2026-03-29T08:37:24.993Z</time></trkpt><trkpt lat="43.1620382216563" lon="11.468516762575787"><ele>151.0</ele><time>2026-03-29T08:37:25.993Z</time></trkpt><trkpt lat="43.16222086733386" lon="11.468483000109272"><ele>151.0</ele><time>2026-03-29T08:37:26.993Z</time></trkpt><trkpt lat="43.162398467432155" lon="11.468450043365554"><ele>151.0</ele><time>2026-03-29T08:37:27.993Z</time></trkpt><trkpt lat="43.16256842980988" lon="11.468395605910866"><ele>150.0</ele><time>2026-03-29T08:37:28.993Z</time></trkpt><trkpt lat="43.16273899757449" lon="11.468361039181595"><ele>149.0</ele><time>2026-03-29T08:37:29.993Z</time></trkpt><trkpt lat="43.162900913416266" lon="11.468300171031101"><ele>148.0</ele><time>2026-03-29T08:37:30.993Z</time></trkpt><trkpt lat="43.16305994059303" lon="11.468200683333393"><ele>147.33333333333334</ele><time>2026-03-29T08:37:31.993Z</time></trkpt><trkpt lat="43.163220011106965" lon="11.468093610290707"><ele>146.66666666666666</ele><time>2026-03-29T08:37:32.993Z</time></trkpt><trkpt lat="43.1633734754591" lon="11.46798385525367"><ele>146.0</ele><time>2026-03-29T08:37:33.993Z</time></trkpt><trkpt lat="43.1635390238538" lon="11.467891626144622"><ele>145.33333333333331</ele><time>2026-03-29T08:37:34.993Z</time></trkpt><trkpt lat="43.163688564712665" lon="11.467782222248266"><ele>144.66666666666666</ele><time>2026-03-29T08:37:35.993Z</time></trkpt><trkpt lat="43.16383657397814" lon="11.46767876081514"><ele>144.0</ele><time>2026-03-29T08:37:36.993Z</time></trkpt><trkpt lat="43.16397444635001" lon="11.467584447606093"><ele>144.5</ele><time>2026-03-29T08:37:37.993Z</time></trkpt><trkpt lat="43.164104444105064" lon="11.467495456728592"><ele>145.0</ele><time>2026-03-29T08:37:38.993Z</time></trkpt><trkpt lat="43.164225409060435" lon="11.467409748535166"><ele>145.5</ele><time>2026-03-29T08:37:39.993Z</time></trkpt><trkpt lat="43.164340666854905" lon="11.467330263071302"><ele>146.0</ele><time>2026-03-29T08:37:40.993Z</time></trkpt><trkpt lat="43.16445725300323" lon="11.467249917784022"><ele>146.0</ele><time>2026-03-29T08:37:41.993Z</time></trkpt><trkpt lat="43.16457594054825" lon="11.467162895239433"><ele>146.0</ele><time>2026-03-29T08:37:42.993Z</time></trkpt><trkpt lat="43.16469730647403" lon="11.46707952554372"><ele>146.0</ele><time>2026-03-29T08:37:43.993Z</time></trkpt><trkpt lat="43.16481970592828" lon="11.466996069232385"><ele>146.0</ele><time>2026-03-29T08:37:44.993Z</time></trkpt><trkpt lat="43.16494142847545" lon="11.466911393029996"><ele>146.5</ele><time>2026-03-29T08:37:45.993Z</time></trkpt><trkpt lat="43.165056195992314" lon="11.46682317861977"><ele>147.0</ele><time>2026-03-29T08:37:46.993Z</time></trkpt><trkpt lat="43.16516109325707" lon="11.46674098523092"><ele>147.5</ele><time>2026-03-29T08:37:47.993Z</time></trkpt><trkpt lat="43.165265736360105" lon="11.466670927129895"><ele>148.0</ele><time>2026-03-29T08:37:48.993Z</time></trkpt><trkpt lat="43.165365395123025" lon="11.46660809743928"><ele>148.0</ele><time>2026-03-29T08:37:49.993Z</time></trkpt><trkpt lat="43.165470850988974" lon="11.466541761402066"><ele>148.0</ele><time>2026-03-29T08:37:50.993Z</time></trkpt><trkpt lat="43.16558238519591" lon="11.466488167853205"><ele>148.0</ele><time>2026-03-29T08:37:51.993Z</time></trkpt><trkpt lat="43.16570092218152" lon="11.466437761094538"><ele>148.0</ele><time>2026-03-29T08:37:52.994Z</time></trkpt><trkpt lat="43.165816103331004" lon="11.466378807606306"><ele>147.6</ele><time>2026-03-29T08:37:53.994Z</time></trkpt><trkpt lat="43.16590913408865" lon="11.466301838883751"><ele>147.20000000000002</ele><time>2026-03-29T08:37:54.994Z</time></trkpt><trkpt lat="43.16598366085841" lon="11.466172239555737"><ele>146.8</ele><time>2026-03-29T08:37:55.994Z</time></trkpt><trkpt lat="43.16604106534772" lon="11.46606263904428"><ele>146.4</ele><time>2026-03-29T08:37:56.994Z</time></trkpt><trkpt lat="43.16609865783004" lon="11.465972868843222"><ele>146.0</ele><time>2026-03-29T08:37:57.994Z</time></trkpt><trkpt lat="43.16616405073668" lon="11.465874254528238"><ele>145.6</ele><time>2026-03-29T08:37:58.993Z</time></trkpt><trkpt lat="43.16623448788298" lon="11.46577315676936"><ele>145.2</ele><time>2026-03-29T08:37:59.994Z</time></trkpt><trkpt lat="43.16630984273102" lon="11.465673636733387"><ele>144.8</ele><time>2026-03-29T08:38:00.994Z</time></trkpt><trkpt lat="43.16638845426284" lon="11.465572666279627"><ele>144.4</ele><time>2026-03-29T08:38:01.994Z</time></trkpt><trkpt lat="43.16646832172514" lon="11.465474266681143"><ele>144.0</ele><time>2026-03-29T08:38:02.994Z</time></trkpt><trkpt lat="43.16655167909231" lon="11.465385007520176"><ele>144.8</ele><time>2026-03-29T08:38:03.994Z</time></trkpt><trkpt lat="43.16664471286613" lon="11.465320344347974"><ele>145.60000000000002</ele><time>2026-03-29T08:38:04.994Z</time></trkpt><trkpt lat="43.166734982936674" lon="11.465255357582206"><ele>146.4</ele><time>2026-03-29T08:38:05.993Z</time></trkpt><trkpt lat="43.16682328091013" lon="11.465185631963127"><ele>147.20000000000002</ele><time>2026-03-29T08:38:06.993Z</time></trkpt><trkpt lat="43.166922093292705" lon="11.465141423330097"><ele>148.0</ele><time>2026-03-29T08:38:07.993Z</time></trkpt><trkpt lat="43.16702014921614" lon="11.465099505580907"><ele>148.0</ele><time>2026-03-29T08:38:08.993Z</time></trkpt><trkpt lat="43.16711966758162" lon="11.46507460730139"><ele>148.0</ele><time>2026-03-29T08:38:09.993Z</time></trkpt><trkpt lat="43.16721818036455" lon="11.465058465784074"><ele>148.0</ele><time>2026-03-29T08:38:10.993Z</time></trkpt><trkpt lat="43.16731705733272" lon="11.465051566690349"><ele>148.0</ele><time>2026-03-29T08:38:11.993Z</time></trkpt><trkpt lat="43.1674152456498" lon="11.465078380950052"><ele>148.0</ele><time>2026-03-29T08:38:12.993Z</time></trkpt><trkpt lat="43.16752459234209" lon="11.46507567364135"><ele>148.20000000000002</ele><time>2026-03-29T08:38:13.993Z</time></trkpt><trkpt lat="43.16763551478496" lon="11.465103081047541"><ele>148.4</ele><time>2026-03-29T08:38:14.993Z</time></trkpt><trkpt lat="43.16773893005518" lon="11.465161347740734"><ele>148.60000000000002</ele><time>2026-03-29T08:38:15.993Z</time></trkpt><trkpt lat="43.167835972406564" lon="11.465186212217347"><ele>148.8</ele><time>2026-03-29T08:38:16.993Z</time></trkpt><trkpt lat="43.16792742482289" lon="11.465240827386221"><ele>149.0</ele><time>2026-03-29T08:38:17.993Z</time></trkpt><trkpt lat="43.168013833745455" lon="11.465303682846358"><ele>149.0</ele><time>2026-03-29T08:38:18.993Z</time></trkpt><trkpt lat="43.168117795649046" lon="11.465371356525782"><ele>149.0</ele><time>2026-03-29T08:38:19.993Z</time></trkpt><trkpt lat="43.16822074147695" lon="11.46543522125631"><ele>149.0</ele><time>2026-03-29T08:38:20.993Z</time></trkpt><trkpt lat="43.168319521369256" lon="11.465493027704529"><ele>149.0</ele><time>2026-03-29T08:38:21.993Z</time></trkpt><trkpt lat="43.16842699765174" lon="11.465549535890032"><ele>149.0</ele><time>2026-03-29T08:38:22.993Z</time></trkpt><trkpt lat="43.168531966870646" lon="11.465599602762842"><ele>149.0</ele><time>2026-03-29T08:38:23.993Z</time></trkpt><trkpt lat="43.168635682867794" lon="11.465646166461529"><ele>149.0</ele><time>2026-03-29T08:38:24.993Z</time></trkpt><trkpt lat="43.16874516611087" lon="11.465678516571655"><ele>149.0</ele><time>2026-03-29T08:38:25.993Z</time></trkpt><trkpt lat="43.16884664169224" lon="11.465710261655026"><ele>149.0</ele><time>2026-03-29T08:38:26.993Z</time></trkpt><trkpt lat="43.168955807366395" lon="11.465727612593405"><ele>149.2</ele><time>2026-03-29T08:38:27.993Z</time></trkpt><trkpt lat="43.16906399595747" lon="11.465742065947925"><ele>149.4</ele><time>2026-03-29T08:38:28.993Z</time></trkpt><trkpt lat="43.169170517740625" lon="11.465758199441527"><ele>149.6</ele><time>2026-03-29T08:38:29.993Z</time></trkpt><trkpt lat="43.169274144766554" lon="11.465764015085194"><ele>149.8</ele><time>2026-03-29T08:38:30.993Z</time></trkpt><trkpt lat="43.16937976244841" lon="11.46576366257655"><ele>150.0</ele><time>2026-03-29T08:38:31.993Z</time></trkpt><trkpt lat="43.16948143846905" lon="11.465755688440613"><ele>150.0</ele><time>2026-03-29T08:38:32.993Z</time></trkpt><trkpt lat="43.1695862120206" lon="11.465742285804259"><ele>150.0</ele><time>2026-03-29T08:38:33.993Z</time></trkpt><trkpt lat="43.169691691048406" lon="11.465725222677944"><ele>150.0</ele><time>2026-03-29T08:38:34.993Z</time></trkpt><trkpt lat="43.16979631685992" lon="11.46570451538401"><ele>150.0</ele><time>2026-03-29T08:38:35.993Z</time></trkpt><trkpt lat="43.16990451682182" lon="11.465670899166305"><ele>150.0</ele><time>2026-03-29T08:38:36.993Z</time></trkpt><trkpt lat="43.17001344268334" lon="11.465638402529365"><ele>149.75</ele><time>2026-03-29T08:38:37.993Z</time></trkpt><trkpt lat="43.17012006486319" lon="11.465595130620436"><ele>149.5</ele><time>2026-03-29T08:38:38.993Z</time></trkpt><trkpt lat="43.170226507978406" lon="11.465546284338444"><ele>149.25</ele><time>2026-03-29T08:38:39.993Z</time></trkpt><trkpt lat="43.170335339763554" lon="11.4655010292298"><ele>149.0</ele><time>2026-03-29T08:38:40.993Z</time></trkpt><trkpt lat="43.17044928475297" lon="11.465477306244475"><ele>149.0</ele><time>2026-03-29T08:38:41.993Z</time></trkpt><trkpt lat="43.17055427366228" lon="11.46542844880641"><ele>149.0</ele><time>2026-03-29T08:38:42.993Z</time></trkpt><trkpt lat="43.17066340164495" lon="11.46538113373523"><ele>149.0</ele><time>2026-03-29T08:38:43.993Z</time></trkpt><trkpt lat="43.17076926663273" lon="11.465339965590484"><ele>149.0</ele><time>2026-03-29T08:38:44.993Z</time></trkpt><trkpt lat="43.17087572283624" lon="11.465303380562865"><ele>149.0</ele><time>2026-03-29T08:38:45.993Z</time></trkpt><trkpt lat="43.170982303610145" lon="11.465257955068378"><ele>149.0</ele><time>2026-03-29T08:38:46.993Z</time></trkpt><trkpt lat="43.171093465540295" lon="11.465216464034016"><ele>149.0</ele><time>2026-03-29T08:38:47.993Z</time></trkpt><trkpt lat="43.17120621879648" lon="11.465167461461839"><ele>149.0</ele><time>2026-03-29T08:38:48.993Z</time></trkpt><trkpt lat="43.17132428327899" lon="11.465120425551477"><ele>149.0</ele><time>2026-03-29T08:38:49.993Z</time></trkpt><trkpt lat="43.171440772511914" lon="11.465071578617701"><ele>148.75</ele><time>2026-03-29T08:38:50.993Z</time></trkpt><trkpt lat="43.171564149921196" lon="11.46502210173279"><ele>148.5</ele><time>2026-03-29T08:38:51.993Z</time></trkpt><trkpt lat="43.17168843695705" lon="11.46497427048253"><ele>148.25</ele><time>2026-03-29T08:38:52.993Z</time></trkpt><trkpt lat="43.17180713043717" lon="11.464923683583354"><ele>148.0</ele><time>2026-03-29T08:38:53.993Z</time></trkpt><trkpt lat="43.17193107906971" lon="11.464874544933206"><ele>148.0</ele><time>2026-03-29T08:38:54.993Z</time></trkpt><trkpt lat="43.17205323964098" lon="11.464824290803522"><ele>148.0</ele><time>2026-03-29T08:38:55.993Z</time></trkpt><trkpt lat="43.172175568204494" lon="11.464774951414391"><ele>148.0</ele><time>2026-03-29T08:38:56.993Z</time></trkpt><trkpt lat="43.17229987192067" lon="11.464725027009163"><ele>148.0</ele><time>2026-03-29T08:38:57.993Z</time></trkpt><trkpt lat="43.172425554429" lon="11.464671811898143"><ele>148.25</ele><time>2026-03-29T08:38:58.993Z</time></trkpt><trkpt lat="43.17255216874508" lon="11.464621184358943"><ele>148.5</ele><time>2026-03-29T08:38:59.993Z</time></trkpt><trkpt lat="43.172683134847254" lon="11.4645702983244"><ele>148.75</ele><time>2026-03-29T08:39:00.993Z</time></trkpt><trkpt lat="43.172816015864406" lon="11.464517695170523"><ele>149.0</ele><time>2026-03-29T08:39:01.993Z</time></trkpt><trkpt lat="43.17295111968991" lon="11.464463454123774"><ele>149.25</ele><time>2026-03-29T08:39:02.993Z</time></trkpt><trkpt lat="43.17308595780473" lon="11.464410060597702"><ele>149.5</ele><time>2026-03-29T08:39:03.993Z</time></trkpt><trkpt lat="43.173226261385814" lon="11.464355242427605"><ele>149.75</ele><time>2026-03-29T08:39:04.993Z</time></trkpt><trkpt lat="43.173364112613434" lon="11.464297748164281"><ele>150.0</ele><time>2026-03-29T08:39:05.993Z</time></trkpt><trkpt lat="43.173501935628245" lon="11.464237052159906"><ele>150.0</ele><time>2026-03-29T08:39:06.993Z</time></trkpt><trkpt lat="43.17364004045469" lon="11.464193427259412"><ele>150.0</ele><time>2026-03-29T08:39:07.993Z</time></trkpt><trkpt lat="43.17377258476985" lon="11.464140970895839"><ele>150.0</ele><time>2026-03-29T08:39:08.993Z</time></trkpt><trkpt lat="43.17390453323223" lon="11.464087676394477"><ele>150.0</ele><time>2026-03-29T08:39:09.993Z</time></trkpt><trkpt lat="43.17403825749483" lon="11.464033222896353"><ele>149.5</ele><time>2026-03-29T08:39:10.993Z</time></trkpt><trkpt lat="43.17416708300156" lon="11.463981959357556"><ele>149.0</ele><time>2026-03-29T08:39:11.993Z</time></trkpt><trkpt lat="43.17429822516397" lon="11.463929111648584"><ele>148.5</ele><time>2026-03-29T08:39:12.993Z</time></trkpt><trkpt lat="43.17443096854392" lon="11.463876940584065"><ele>148.0</ele><time>2026-03-29T08:39:13.993Z</time></trkpt><trkpt lat="43.174567506774494" lon="11.463825990968969"><ele>148.25</ele><time>2026-03-29T08:39:14.993Z</time></trkpt><trkpt lat="43.17470035142508" lon="11.463772817931067"><ele>148.5</ele><time>2026-03-29T08:39:15.993Z</time></trkpt><trkpt lat="43.17483263132973" lon="11.46372148821932"><ele>148.75</ele><time>2026-03-29T08:39:16.993Z</time></trkpt><trkpt lat="43.17496380928834" lon="11.463669146031416"><ele>149.0</ele><time>2026-03-29T08:39:17.993Z</time></trkpt><trkpt lat="43.17509497014016" lon="11.463614002863288"><ele>149.25</ele><time>2026-03-29T08:39:18.993Z</time></trkpt><trkpt lat="43.17522745732742" lon="11.463558492587442"><ele>149.5</ele><time>2026-03-29T08:39:19.993Z</time></trkpt><trkpt lat="43.175361056063224" lon="11.463503482543038"><ele>149.75</ele><time>2026-03-29T08:39:20.993Z</time></trkpt><trkpt lat="43.175496838681234" lon="11.463452632704303"><ele>150.0</ele><time>2026-03-29T08:39:21.993Z</time></trkpt><trkpt lat="43.17563255372025" lon="11.463400683904748"><ele>150.5</ele><time>2026-03-29T08:39:22.993Z</time></trkpt><trkpt lat="43.175770194565246" lon="11.463347195483358"><ele>151.0</ele><time>2026-03-29T08:39:23.993Z</time></trkpt><trkpt lat="43.17590767544807" lon="11.4632913496922"><ele>151.5</ele><time>2026-03-29T08:39:24.993Z</time></trkpt><trkpt lat="43.176046735422354" lon="11.463234475939615"><ele>152.0</ele><time>2026-03-29T08:39:25.993Z</time></trkpt><trkpt lat="43.17618718426182" lon="11.463175199636556"><ele>152.0</ele><time>2026-03-29T08:39:26.993Z</time></trkpt><trkpt lat="43.176326621803376" lon="11.463114577170627"><ele>152.0</ele><time>2026-03-29T08:39:27.993Z</time></trkpt><trkpt lat="43.176465110111856" lon="11.463056383598092"><ele>152.0</ele><time>2026-03-29T08:39:28.993Z</time></trkpt><trkpt lat="43.17660507522928" lon="11.463001647725395"><ele>152.0</ele><time>2026-03-29T08:39:29.993Z</time></trkpt><trkpt lat="43.176745847271775" lon="11.462939767978662"><ele>152.33333333333331</ele><time>2026-03-29T08:39:30.993Z</time></trkpt><trkpt lat="43.176890029251155" lon="11.462882656560607"><ele>152.66666666666666</ele><time>2026-03-29T08:39:31.993Z</time></trkpt><trkpt lat="43.17703833468675" lon="11.462828436341312"><ele>153.0</ele><time>2026-03-29T08:39:32.993Z</time></trkpt><trkpt lat="43.17718298707983" lon="11.462767375882521"><ele>153.0</ele><time>2026-03-29T08:39:33.993Z</time></trkpt><trkpt lat="43.17732689054391" lon="11.46270893982998"><ele>153.0</ele><time>2026-03-29T08:39:34.993Z</time></trkpt><trkpt lat="43.177469486285915" lon="11.462653679923372"><ele>153.0</ele><time>2026-03-29T08:39:35.993Z</time></trkpt><trkpt lat="43.17761374452856" lon="11.462596256065103"><ele>153.0</ele><time>2026-03-29T08:39:36.993Z</time></trkpt><trkpt lat="43.177755777916666" lon="11.462539672567472"><ele>153.0</ele><time>2026-03-29T08:39:37.993Z</time></trkpt><trkpt lat="43.17789896857589" lon="11.462485265337664"><ele>153.0</ele><time>2026-03-29T08:39:38.993Z</time></trkpt><trkpt lat="43.17804121052538" lon="11.462451417708191"><ele>153.0</ele><time>2026-03-29T08:39:39.993Z</time></trkpt><trkpt lat="43.1781817189169" lon="11.462437668871955"><ele>153.0</ele><time>2026-03-29T08:39:40.993Z</time></trkpt><trkpt lat="43.17832394936374" lon="11.46245666112513"><ele>153.0</ele><time>2026-03-29T08:39:41.993Z</time></trkpt><trkpt lat="43.17846976608534" lon="11.46249869590469"><ele>153.0</ele><time>2026-03-29T08:39:42.993Z</time></trkpt><trkpt lat="43.17861199566998" lon="11.462549133921296"><ele>153.0</ele><time>2026-03-29T08:39:43.993Z</time></trkpt><trkpt lat="43.17875668905995" lon="11.46260210237913"><ele>153.0</ele><time>2026-03-29T08:39:44.993Z</time></trkpt><trkpt lat="43.178905870282286" lon="11.462657559539148"><ele>154.33333333333334</ele><time>2026-03-29T08:39:45.993Z</time></trkpt><trkpt lat="43.17905614109669" lon="11.46271024213137"><ele>155.66666666666669</ele><time>2026-03-29T08:39:46.993Z</time></trkpt><trkpt lat="43.179204721716594" lon="11.462752393055455"><ele>157.0</ele><time>2026-03-29T08:39:47.993Z</time></trkpt><trkpt lat="43.1793563562905" lon="11.462778873841017"><ele>157.0</ele><time>2026-03-29T08:39:48.993Z</time></trkpt><trkpt lat="43.17951131476974" lon="11.46280885080413"><ele>157.0</ele><time>2026-03-29T08:39:49.993Z</time></trkpt><trkpt lat="43.1796677767796" lon="11.462784807271232"><ele>157.0</ele><time>2026-03-29T08:39:50.993Z</time></trkpt><trkpt lat="43.17982464952837" lon="11.462707987726157"><ele>157.33333333333334</ele><time>2026-03-29T08:39:51.993Z</time></trkpt><trkpt lat="43.179966418502794" lon="11.462593475884045"><ele>157.66666666666666</ele><time>2026-03-29T08:39:52.993Z</time></trkpt><trkpt lat="43.18009158475495" lon="11.462435355892547"><ele>158.0</ele><time>2026-03-29T08:39:53.993Z</time></trkpt><trkpt lat="43.18018445890806" lon="11.462228664792383"><ele>161.0</ele><time>2026-03-29T08:39:54.993Z</time></trkpt><trkpt lat="43.180272944285555" lon="11.462013802087512"><ele>164.0</ele><time>2026-03-29T08:39:55.993Z</time></trkpt><trkpt lat="43.18036089588787" lon="11.46178368659652"><ele>167.0</ele><time>2026-03-29T08:39:56.993Z</time></trkpt><trkpt lat="43.18045139488365" lon="11.461560027676148"><ele>167.0</ele><time>2026-03-29T08:39:57.993Z</time></trkpt><trkpt lat="43.1805632350566" lon="11.461356912731118"><ele>167.0</ele><time>2026-03-29T08:39:58.994Z</time></trkpt><trkpt lat="43.180691042412136" lon="11.461173030718388"><ele>167.0</ele><time>2026-03-29T08:39:59.993Z</time></trkpt><trkpt lat="43.18082074146354" lon="11.461010526325488"><ele>165.33333333333331</ele><time>2026-03-29T08:40:00.993Z</time></trkpt><trkpt lat="43.180973216393625" lon="11.46086089129963"><ele>163.66666666666666</ele><time>2026-03-29T08:40:01.994Z</time></trkpt><trkpt lat="43.18113239907618" lon="11.460747933227099"><ele>162.0</ele><time>2026-03-29T08:40:02.994Z</time></trkpt><trkpt lat="43.18126871570673" lon="11.460654271653496"><ele>162.0</ele><time>2026-03-29T08:40:03.994Z</time></trkpt><trkpt lat="43.181386484577544" lon="11.460563774131419"><ele>162.0</ele><time>2026-03-29T08:40:04.994Z</time></trkpt><trkpt lat="43.18150121839616" lon="11.460441423001948"><ele>162.0</ele><time>2026-03-29T08:40:05.994Z</time></trkpt><trkpt lat="43.181608690761784" lon="11.460333282586829"><ele>162.0</ele><time>2026-03-29T08:40:06.994Z</time></trkpt><trkpt lat="43.181721393760306" lon="11.4602198790516"><ele>161.33333333333334</ele><time>2026-03-29T08:40:07.993Z</time></trkpt><trkpt lat="43.18184095985438" lon="11.460099577039808"><ele>160.66666666666669</ele><time>2026-03-29T08:40:08.993Z</time></trkpt><trkpt lat="43.18197394678371" lon="11.459965763618753"><ele>160.0</ele><time>2026-03-29T08:40:09.993Z</time></trkpt><trkpt lat="43.18210152188916" lon="11.459837395450801"><ele>160.0</ele><time>2026-03-29T08:40:10.993Z</time></trkpt><trkpt lat="43.1822540498009" lon="11.459683918979229"><ele>160.0</ele><time>2026-03-29T08:40:11.993Z</time></trkpt><trkpt lat="43.18241693255365" lon="11.459522256867077"><ele>160.0</ele><time>2026-03-29T08:40:12.993Z</time></trkpt><trkpt lat="43.18259145583862" lon="11.459349004846409"><ele>160.0</ele><time>2026-03-29T08:40:13.993Z</time></trkpt><trkpt lat="43.18269685830804" lon="11.45924398232004"><ele>160.0</ele><time>2026-03-29T08:40:14.993Z</time></trkpt><trkpt lat="43.18280287804048" lon="11.45913833270711"><ele>160.0</ele><time>2026-03-29T08:40:15.993Z</time></trkpt><trkpt lat="43.183087039425644" lon="11.4588551635767"><ele>160.66666666666669</ele><time>2026-03-29T08:40:16.993Z</time></trkpt><trkpt lat="43.18324857352845" lon="11.458692077639437"><ele>161.33333333333334</ele><time>2026-03-29T08:40:17.993Z</time></trkpt><trkpt lat="43.18340272973417" lon="11.458556610054034"><ele>162.0</ele><time>2026-03-29T08:40:18.993Z</time></trkpt><trkpt lat="43.18353904700582" lon="11.458398832634858"><ele>162.0</ele><time>2026-03-29T08:40:19.993Z</time></trkpt><trkpt lat="43.1836787392075" lon="11.458240363239227"><ele>162.0</ele><time>2026-03-29T08:40:20.993Z</time></trkpt><trkpt lat="43.18381320722759" lon="11.458068496963731"><ele>162.0</ele><time>2026-03-29T08:40:21.993Z</time></trkpt><trkpt lat="43.18394984381068" lon="11.457882710221963"><ele>162.33333333333334</ele><time>2026-03-29T08:40:22.993Z</time></trkpt><trkpt lat="43.184091475197455" lon="11.45769764876206"><ele>162.66666666666669</ele><time>2026-03-29T08:40:23.993Z</time></trkpt><trkpt lat="43.184239092688294" lon="11.457509739433988"><ele>163.0</ele><time>2026-03-29T08:40:24.993Z</time></trkpt><trkpt lat="43.184383878741734" lon="11.457338087712454"><ele>163.0</ele><time>2026-03-29T08:40:25.993Z</time></trkpt><trkpt lat="43.184526373378056" lon="11.457172080499609"><ele>163.0</ele><time>2026-03-29T08:40:26.993Z</time></trkpt><trkpt lat="43.18467619777782" lon="11.456994749231603"><ele>163.0</ele><time>2026-03-29T08:40:27.993Z</time></trkpt><trkpt lat="43.184823841684675" lon="11.456827406716439"><ele>163.0</ele><time>2026-03-29T08:40:28.993Z</time></trkpt><trkpt lat="43.184966425879814" lon="11.456649942366699"><ele>163.0</ele><time>2026-03-29T08:40:29.993Z</time></trkpt><trkpt lat="43.18510716156592" lon="11.456461930255255"><ele>163.0</ele><time>2026-03-29T08:40:30.993Z</time></trkpt><trkpt lat="43.18525186046021" lon="11.456283921147264"><ele>164.0</ele><time>2026-03-29T08:40:31.993Z</time></trkpt><trkpt lat="43.18539203105402" lon="11.456108663689566"><ele>165.0</ele><time>2026-03-29T08:40:32.993Z</time></trkpt><trkpt lat="43.18553044098754" lon="11.455941072007436"><ele>166.0</ele><time>2026-03-29T08:40:33.993Z</time></trkpt><trkpt lat="43.18566693859539" lon="11.455778596006637"><ele>165.66666666666669</ele><time>2026-03-29T08:40:34.993Z</time></trkpt><trkpt lat="43.18580579295619" lon="11.455608569108252"><ele>165.33333333333334</ele><time>2026-03-29T08:40:35.993Z</time></trkpt><trkpt lat="43.18594872495863" lon="11.455450046635187"><ele>165.0</ele><time>2026-03-29T08:40:36.993Z</time></trkpt><trkpt lat="43.18609683248" lon="11.455301689960118"><ele>166.33333333333334</ele><time>2026-03-29T08:40:37.993Z</time></trkpt><trkpt lat="43.18624778932183" lon="11.455173473594359"><ele>167.66666666666669</ele><time>2026-03-29T08:40:38.993Z</time></trkpt><trkpt lat="43.186401757519" lon="11.455067283194454"><ele>169.0</ele><time>2026-03-29T08:40:39.993Z</time></trkpt><trkpt lat="43.186558747513075" lon="11.454971932429567"><ele>169.33333333333334</ele><time>2026-03-29T08:40:40.993Z</time></trkpt><trkpt lat="43.18671761015888" lon="11.454883247958945"><ele>169.66666666666666</ele><time>2026-03-29T08:40:41.993Z</time></trkpt><trkpt lat="43.18687849674823" lon="11.454793656480337"><ele>170.0</ele><time>2026-03-29T08:40:42.993Z</time></trkpt><trkpt lat="43.18703807467182" lon="11.454701037680195"><ele>171.66666666666666</ele><time>2026-03-29T08:40:43.993Z</time></trkpt><trkpt lat="43.18719450590867" lon="11.45460671237561"><ele>173.33333333333334</ele><time>2026-03-29T08:40:44.993Z</time></trkpt><trkpt lat="43.18735147740038" lon="11.454511980192823"><ele>175.0</ele><time>2026-03-29T08:40:45.993Z</time></trkpt><trkpt lat="43.18751067477224" lon="11.454417087073667"><ele>176.33333333333334</ele><time>2026-03-29T08:40:46.993Z</time></trkpt><trkpt lat="43.18767298304579" lon="11.454327343007977"><ele>177.66666666666666</ele><time>2026-03-29T08:40:47.993Z</time></trkpt><trkpt lat="43.18784007687089" lon="11.454238638112148"><ele>179.0</ele><time>2026-03-29T08:40:48.993Z</time></trkpt><trkpt lat="43.18800524005637" lon="11.454151658972172"><ele>179.0</ele><time>2026-03-29T08:40:49.993Z</time></trkpt><trkpt lat="43.1881582224421" lon="11.454079422255539"><ele>179.0</ele><time>2026-03-29T08:40:50.993Z</time></trkpt><trkpt lat="43.18831193183028" lon="11.454043119532788"><ele>179.0</ele><time>2026-03-29T08:40:51.993Z</time></trkpt><trkpt lat="43.18847917125749" lon="11.45403818441823"><ele>179.66666666666666</ele><time>2026-03-29T08:40:52.993Z</time></trkpt><trkpt lat="43.18866593249474" lon="11.454041889646037"><ele>180.33333333333334</ele><time>2026-03-29T08:40:53.993Z</time></trkpt><trkpt lat="43.18885654955942" lon="11.45403911970073"><ele>181.0</ele><time>2026-03-29T08:40:54.993Z</time></trkpt><trkpt lat="43.18903169755488" lon="11.454040582939717"><ele>179.66666666666669</ele><time>2026-03-29T08:40:55.993Z</time></trkpt><trkpt lat="43.18920001668719" lon="11.454042588036549"><ele>178.33333333333334</ele><time>2026-03-29T08:40:56.993Z</time></trkpt><trkpt lat="43.18936027473616" lon="11.454041027074163"><ele>177.0</ele><time>2026-03-29T08:40:57.993Z</time></trkpt><trkpt lat="43.189519257632355" lon="11.454063361088213"><ele>177.0</ele><time>2026-03-29T08:40:58.993Z</time></trkpt><trkpt lat="43.1896714479901" lon="11.454046277296802"><ele>177.0</ele><time>2026-03-29T08:40:59.993Z</time></trkpt><trkpt lat="43.189823859315474" lon="11.453978629460474"><ele>177.0</ele><time>2026-03-29T08:41:00.993Z</time></trkpt><trkpt lat="43.18997687927565" lon="11.453887690540101"><ele>177.0</ele><time>2026-03-29T08:41:01.993Z</time></trkpt><trkpt lat="43.19010258207347" lon="11.45380563952327"><ele>177.0</ele><time>2026-03-29T08:41:02.993Z</time></trkpt><trkpt lat="43.19023601900585" lon="11.453718991814306"><ele>177.0</ele><time>2026-03-29T08:41:03.993Z</time></trkpt><trkpt lat="43.19036511266716" lon="11.45363646275429"><ele>177.0</ele><time>2026-03-29T08:41:04.993Z</time></trkpt><trkpt lat="43.190494526155156" lon="11.45355519122213"><ele>177.0</ele><time>2026-03-29T08:41:05.993Z</time></trkpt><trkpt lat="43.19063329035033" lon="11.453484180721288"><ele>177.0</ele><time>2026-03-29T08:41:06.993Z</time></trkpt><trkpt lat="43.1907837607901" lon="11.45342981815403"><ele>177.0</ele><time>2026-03-29T08:41:07.993Z</time></trkpt><trkpt lat="43.190937258687455" lon="11.453394049426153"><ele>175.5</ele><time>2026-03-29T08:41:08.993Z</time></trkpt><trkpt lat="43.19108401920597" lon="11.453374461312452"><ele>174.0</ele><time>2026-03-29T08:41:09.993Z</time></trkpt><trkpt lat="43.191222701015484" lon="11.453368456479518"><ele>172.5</ele><time>2026-03-29T08:41:10.993Z</time></trkpt><trkpt lat="43.191349887753034" lon="11.453372628675647"><ele>171.0</ele><time>2026-03-29T08:41:11.993Z</time></trkpt><trkpt lat="43.19146219590727" lon="11.453450645799323"><ele>171.0</ele><time>2026-03-29T08:41:12.993Z</time></trkpt><trkpt lat="43.19156258898667" lon="11.453547896976247"><ele>171.0</ele><time>2026-03-29T08:41:13.993Z</time></trkpt><trkpt lat="43.191606684158494" lon="11.453696167134918"><ele>171.0</ele><time>2026-03-29T08:41:14.993Z</time></trkpt><trkpt lat="43.191686781014205" lon="11.453900612806923"><ele>171.0</ele><time>2026-03-29T08:41:15.993Z</time></trkpt><trkpt lat="43.19177490890111" lon="11.45412676617556"><ele>169.33333333333334</ele><time>2026-03-29T08:41:16.993Z</time></trkpt><trkpt lat="43.191861263249905" lon="11.454347927688955"><ele>167.66666666666669</ele><time>2026-03-29T08:41:17.993Z</time></trkpt><trkpt lat="43.19193877387184" lon="11.45454065764405"><ele>166.0</ele><time>2026-03-29T08:41:18.993Z</time></trkpt><trkpt lat="43.1920173147957" lon="11.454701128202046"><ele>166.0</ele><time>2026-03-29T08:41:19.993Z</time></trkpt><trkpt lat="43.19211275832493" lon="11.454815558107171"><ele>166.0</ele><time>2026-03-29T08:41:20.993Z</time></trkpt><trkpt lat="43.19221738008333" lon="11.454930599185337"><ele>166.0</ele><time>2026-03-29T08:41:21.993Z</time></trkpt><trkpt lat="43.19235310814268" lon="11.454999781889727"><ele>166.0</ele><time>2026-03-29T08:41:22.993Z</time></trkpt><trkpt lat="43.19249158994792" lon="11.455050552049906"><ele>166.0</ele><time>2026-03-29T08:41:23.993Z</time></trkpt><trkpt lat="43.19262274543917" lon="11.455086156985255"><ele>166.0</ele><time>2026-03-29T08:41:24.993Z</time></trkpt><trkpt lat="43.19276035460211" lon="11.455089368479776"><ele>166.0</ele><time>2026-03-29T08:41:25.993Z</time></trkpt><trkpt lat="43.19290160601243" lon="11.455022048021764"><ele>166.0</ele><time>2026-03-29T08:41:26.993Z</time></trkpt><trkpt lat="43.193031201317" lon="11.454911363167486"><ele>166.0</ele><time>2026-03-29T08:41:27.993Z</time></trkpt><trkpt lat="43.19313257838167" lon="11.454775912614007"><ele>166.0</ele><time>2026-03-29T08:41:28.993Z</time></trkpt><trkpt lat="43.193193326473754" lon="11.454632405118131"><ele>166.0</ele><time>2026-03-29T08:41:29.993Z</time></trkpt><trkpt lat="43.19321233095729" lon="11.454459251142781"><ele>166.0</ele><time>2026-03-29T08:41:30.993Z</time></trkpt><trkpt lat="43.19318185931382" lon="11.454259556073179"><ele>166.33333333333334</ele><time>2026-03-29T08:41:31.993Z</time></trkpt><trkpt lat="43.19312957316685" lon="11.454032021666498"><ele>166.66666666666666</ele><time>2026-03-29T08:41:32.993Z</time></trkpt><trkpt lat="43.19308479976541" lon="11.453808029654422"><ele>167.0</ele><time>2026-03-29T08:41:33.993Z</time></trkpt><trkpt lat="43.19302851666407" lon="11.453607313977736"><ele>167.0</ele><time>2026-03-29T08:41:34.993Z</time></trkpt><trkpt lat="43.192932970832686" lon="11.453420886802673"><ele>167.0</ele><time>2026-03-29T08:41:35.993Z</time></trkpt><trkpt lat="43.192773112541744" lon="11.453215735502448"><ele>167.0</ele><time>2026-03-29T08:41:36.993Z</time></trkpt><trkpt lat="43.192696095141166" lon="11.453059275091006"><ele>166.5</ele><time>2026-03-29T08:41:37.993Z</time></trkpt><trkpt lat="43.19269047198389" lon="11.452892171232083"><ele>166.0</ele><time>2026-03-29T08:41:38.993Z</time></trkpt><trkpt lat="43.192730032110525" lon="11.45273715093396"><ele>165.5</ele><time>2026-03-29T08:41:39.993Z</time></trkpt><trkpt lat="43.19280995816471" lon="11.45257929087062"><ele>165.0</ele><time>2026-03-29T08:41:40.993Z</time></trkpt><trkpt lat="43.19290616183239" lon="11.452378918847893"><ele>165.0</ele><time>2026-03-29T08:41:41.993Z</time></trkpt><trkpt lat="43.19303418339531" lon="11.452200914462686"><ele>165.0</ele><time>2026-03-29T08:41:42.993Z</time></trkpt><trkpt lat="43.19314282426993" lon="11.45200863264181"><ele>165.0</ele><time>2026-03-29T08:41:43.993Z</time></trkpt><trkpt lat="43.19325249808185" lon="11.451820244958235"><ele>162.66666666666666</ele><time>2026-03-29T08:41:44.993Z</time></trkpt><trkpt lat="43.193365172330516" lon="11.451621133698971"><ele>160.33333333333331</ele><time>2026-03-29T08:41:45.993Z</time></trkpt><trkpt lat="43.19348107457866" lon="11.451428183773563"><ele>158.0</ele><time>2026-03-29T08:41:46.993Z</time></trkpt><trkpt lat="43.193593995996814" lon="11.451234134562265"><ele>158.0</ele><time>2026-03-29T08:41:47.993Z</time></trkpt><trkpt lat="43.19370653122133" lon="11.45103906733937"><ele>158.0</ele><time>2026-03-29T08:41:48.992Z</time></trkpt><trkpt lat="43.1938206721271" lon="11.450843338170683"><ele>158.0</ele><time>2026-03-29T08:41:49.992Z</time></trkpt><trkpt lat="43.193931947254306" lon="11.450649847359035"><ele>158.66666666666666</ele><time>2026-03-29T08:41:50.992Z</time></trkpt><trkpt lat="43.194041504356505" lon="11.450456644684653"><ele>159.33333333333334</ele><time>2026-03-29T08:41:51.992Z</time></trkpt><trkpt lat="43.19414956040568" lon="11.450264643202795"><ele>160.0</ele><time>2026-03-29T08:41:52.992Z</time></trkpt><trkpt lat="43.194259230936986" lon="11.45007545694914"><ele>160.0</ele><time>2026-03-29T08:41:53.992Z</time></trkpt><trkpt lat="43.19436616578013" lon="11.449886119963965"><ele>160.0</ele><time>2026-03-29T08:41:54.992Z</time></trkpt><trkpt lat="43.194474255466055" lon="11.449700161381868"><ele>160.0</ele><time>2026-03-29T08:41:55.992Z</time></trkpt><trkpt lat="43.194583757346585" lon="11.449516462088317"><ele>159.33333333333334</ele><time>2026-03-29T08:41:56.992Z</time></trkpt><trkpt lat="43.194692696664355" lon="11.449336847695006"><ele>158.66666666666666</ele><time>2026-03-29T08:41:57.992Z</time></trkpt><trkpt lat="43.19479952305324" lon="11.449150856677884"><ele>158.0</ele><time>2026-03-29T08:41:58.992Z</time></trkpt><trkpt lat="43.19490033066836" lon="11.448965407548398"><ele>159.0</ele><time>2026-03-29T08:41:59.992Z</time></trkpt><trkpt lat="43.195003754916044" lon="11.44877847053106"><ele>160.0</ele><time>2026-03-29T08:42:00.992Z</time></trkpt><trkpt lat="43.19509812954679" lon="11.4485811268184"><ele>161.0</ele><time>2026-03-29T08:42:01.992Z</time></trkpt><trkpt lat="43.19517916196514" lon="11.448374719692255"><ele>161.0</ele><time>2026-03-29T08:42:02.992Z</time></trkpt><trkpt lat="43.195248768615016" lon="11.44815972648315"><ele>161.0</ele><time>2026-03-29T08:42:03.992Z</time></trkpt><trkpt lat="43.195312130551834" lon="11.447940347889423"><ele>161.0</ele><time>2026-03-29T08:42:04.993Z</time></trkpt><trkpt lat="43.19536115230927" lon="11.447710534375956"><ele>162.66666666666666</ele><time>2026-03-29T08:42:05.993Z</time></trkpt><trkpt lat="43.195412071941455" lon="11.447481468946147"><ele>164.33333333333334</ele><time>2026-03-29T08:42:06.993Z</time></trkpt><trkpt lat="43.19546177159978" lon="11.44725434263858"><ele>166.0</ele><time>2026-03-29T08:42:07.993Z</time></trkpt><trkpt lat="43.19551096901493" lon="11.447023533402856"><ele>167.0</ele><time>2026-03-29T08:42:08.994Z</time></trkpt><trkpt lat="43.195558705143526" lon="11.446791932079302"><ele>168.0</ele><time>2026-03-29T08:42:09.994Z</time></trkpt><trkpt lat="43.19560823301664" lon="11.446561590852143"><ele>169.0</ele><time>2026-03-29T08:42:10.993Z</time></trkpt><trkpt lat="43.195654773609654" lon="11.44633997709247"><ele>165.66666666666669</ele><time>2026-03-29T08:42:11.994Z</time></trkpt><trkpt lat="43.19569688817422" lon="11.446135688706757"><ele>162.33333333333334</ele><time>2026-03-29T08:42:12.994Z</time></trkpt><trkpt lat="43.19574012909297" lon="11.445928258758702"><ele>159.0</ele><time>2026-03-29T08:42:13.993Z</time></trkpt><trkpt lat="43.19578769154096" lon="11.44571411223443"><ele>159.0</ele><time>2026-03-29T08:42:14.993Z</time></trkpt><trkpt lat="43.19584283941998" lon="11.445499276622197"><ele>159.0</ele><time>2026-03-29T08:42:15.993Z</time></trkpt><trkpt lat="43.19591178712001" lon="11.44528649413242"><ele>159.0</ele><time>2026-03-29T08:42:16.993Z</time></trkpt><trkpt lat="43.19600011022465" lon="11.445075654476367"><ele>159.66666666666666</ele><time>2026-03-29T08:42:17.994Z</time></trkpt><trkpt lat="43.196105521571425" lon="11.444869480475797"><ele>160.33333333333331</ele><time>2026-03-29T08:42:18.994Z</time></trkpt><trkpt lat="43.19621585050943" lon="11.444684737640083"><ele>161.0</ele><time>2026-03-29T08:42:19.994Z</time></trkpt><trkpt lat="43.19635308590613" lon="11.444542641773785"><ele>160.0</ele><time>2026-03-29T08:42:20.994Z</time></trkpt><trkpt lat="43.196490479011615" lon="11.444414286555004"><ele>159.0</ele><time>2026-03-29T08:42:21.994Z</time></trkpt><trkpt lat="43.19663876436037" lon="11.444312078650725"><ele>158.0</ele><time>2026-03-29T08:42:22.994Z</time></trkpt><trkpt lat="43.19680560234555" lon="11.444211942216228"><ele>158.0</ele><time>2026-03-29T08:42:23.994Z</time></trkpt><trkpt lat="43.1969694622738" lon="11.444121770998914"><ele>158.0</ele><time>2026-03-29T08:42:24.994Z</time></trkpt><trkpt lat="43.19712702513332" lon="11.444014813563586"><ele>158.0</ele><time>2026-03-29T08:42:25.994Z</time></trkpt><trkpt lat="43.19729153626794" lon="11.443935948372296"><ele>158.0</ele><time>2026-03-29T08:42:26.994Z</time></trkpt><trkpt lat="43.19745339331732" lon="11.443855925944504"><ele>158.0</ele><time>2026-03-29T08:42:27.994Z</time></trkpt><trkpt lat="43.19761115466643" lon="11.443778717527273"><ele>158.0</ele><time>2026-03-29T08:42:28.994Z</time></trkpt><trkpt lat="43.19776221747406" lon="11.44370612082672"><ele>158.0</ele><time>2026-03-29T08:42:29.994Z</time></trkpt><trkpt lat="43.197896890926614" lon="11.443637220426032"><ele>158.0</ele><time>2026-03-29T08:42:30.994Z</time></trkpt><trkpt lat="43.198025414163155" lon="11.443565776844729"><ele>158.0</ele><time>2026-03-29T08:42:31.994Z</time></trkpt><trkpt lat="43.19815755530845" lon="11.443517054231622"><ele>158.0</ele><time>2026-03-29T08:42:32.994Z</time></trkpt><trkpt lat="43.19826734792372" lon="11.4434538832193"><ele>158.0</ele><time>2026-03-29T08:42:33.994Z</time></trkpt><trkpt lat="43.198370310192054" lon="11.443405665912946"><ele>158.0</ele><time>2026-03-29T08:42:34.993Z</time></trkpt><trkpt lat="43.19844256805597" lon="11.443375652582851"><ele>158.0</ele><time>2026-03-29T08:42:35.993Z</time></trkpt><trkpt lat="43.198542421176214" lon="11.443436090037734"><ele>158.0</ele><time>2026-03-29T08:42:37.993Z</time></trkpt><trkpt lat="43.19853787528128" lon="11.44361093338226"><ele>158.0</ele><time>2026-03-29T08:42:39.993Z</time></trkpt><trkpt lat="43.19857977880904" lon="11.443724505536524"><ele>157.8</ele><time>2026-03-29T08:42:40.993Z</time></trkpt><trkpt lat="43.19860378905996" lon="11.443846845773708"><ele>157.60000000000002</ele><time>2026-03-29T08:42:41.993Z</time></trkpt><trkpt lat="43.19863605821686" lon="11.443976957715849"><ele>157.39999999999998</ele><time>2026-03-29T08:42:42.993Z</time></trkpt><trkpt lat="43.1986712584601" lon="11.444120931671705"><ele>157.2</ele><time>2026-03-29T08:42:43.993Z</time></trkpt><trkpt lat="43.19871008562446" lon="11.444280364057304"><ele>157.0</ele><time>2026-03-29T08:42:44.993Z</time></trkpt><trkpt lat="43.198752074638065" lon="11.4444456118275"><ele>157.0</ele><time>2026-03-29T08:42:45.993Z</time></trkpt><trkpt lat="43.19879214355745" lon="11.44461739361125"><ele>157.0</ele><time>2026-03-29T08:42:46.993Z</time></trkpt><trkpt lat="43.19883189743135" lon="11.444793489844274"><ele>157.0</ele><time>2026-03-29T08:42:47.993Z</time></trkpt><trkpt lat="43.19887612726342" lon="11.444970607862606"><ele>157.0</ele><time>2026-03-29T08:42:48.993Z</time></trkpt><trkpt lat="43.19891912321213" lon="11.445152339671626"><ele>156.75</ele><time>2026-03-29T08:42:49.993Z</time></trkpt><trkpt lat="43.198964044234735" lon="11.445335109122725"><ele>156.5</ele><time>2026-03-29T08:42:50.993Z</time></trkpt><trkpt lat="43.19900996621816" lon="11.445520730660034"><ele>156.25</ele><time>2026-03-29T08:42:51.993Z</time></trkpt><trkpt lat="43.199053397511" lon="11.445706648294356"><ele>156.0</ele><time>2026-03-29T08:42:52.993Z</time></trkpt><trkpt lat="43.199096878626044" lon="11.445887036474524"><ele>156.0</ele><time>2026-03-29T08:42:53.993Z</time></trkpt><trkpt lat="43.199138248599404" lon="11.446055233684879"><ele>156.0</ele><time>2026-03-29T08:42:54.993Z</time></trkpt><trkpt lat="43.199176465516" lon="11.446216469081552"><ele>156.0</ele><time>2026-03-29T08:42:55.993Z</time></trkpt><trkpt lat="43.19921508976068" lon="11.446372357316074"><ele>156.0</ele><time>2026-03-29T08:42:56.993Z</time></trkpt><trkpt lat="43.19925141786166" lon="11.446521266260216"><ele>155.8</ele><time>2026-03-29T08:42:57.993Z</time></trkpt><trkpt lat="43.199280693667596" lon="11.446653034809716"><ele>155.6</ele><time>2026-03-29T08:42:58.993Z</time></trkpt><trkpt lat="43.19930457369537" lon="11.446771312024039"><ele>155.4</ele><time>2026-03-29T08:42:59.993Z</time></trkpt><trkpt lat="43.19933169116056" lon="11.446887272715173"><ele>155.2</ele><time>2026-03-29T08:43:00.993Z</time></trkpt><trkpt lat="43.19936148331573" lon="11.4470025852547"><ele>155.0</ele><time>2026-03-29T08:43:01.993Z</time></trkpt><trkpt lat="43.19939083459911" lon="11.447118177560448"><ele>155.0</ele><time>2026-03-29T08:43:02.993Z</time></trkpt><trkpt lat="43.199420513721336" lon="11.447234578160797"><ele>155.0</ele><time>2026-03-29T08:43:03.993Z</time></trkpt><trkpt lat="43.19945214312631" lon="11.447359505775468"><ele>155.0</ele><time>2026-03-29T08:43:04.993Z</time></trkpt><trkpt lat="43.19948455854906" lon="11.447486901752827"><ele>155.0</ele><time>2026-03-29T08:43:05.993Z</time></trkpt><trkpt lat="43.199506698686584" lon="11.447619741384097"><ele>155.0</ele><time>2026-03-29T08:43:06.993Z</time></trkpt><trkpt lat="43.199541657372905" lon="11.44774243135066"><ele>155.0</ele><time>2026-03-29T08:43:07.993Z</time></trkpt><trkpt lat="43.1995744124358" lon="11.447867684961329"><ele>155.0</ele><time>2026-03-29T08:43:08.993Z</time></trkpt><trkpt lat="43.19960387109413" lon="11.447995006710288"><ele>155.0</ele><time>2026-03-29T08:43:09.993Z</time></trkpt><trkpt lat="43.19963318637579" lon="11.448128530071221"><ele>155.0</ele><time>2026-03-29T08:43:10.993Z</time></trkpt><trkpt lat="43.19966673650462" lon="11.44827856711501"><ele>155.0</ele><time>2026-03-29T08:43:11.993Z</time></trkpt><trkpt lat="43.19970277810811" lon="11.448438131359412"><ele>155.0</ele><time>2026-03-29T08:43:12.993Z</time></trkpt><trkpt lat="43.199742469959666" lon="11.448604245398629"><ele>155.0</ele><time>2026-03-29T08:43:13.993Z</time></trkpt><trkpt lat="43.199785089300356" lon="11.448780791463646"><ele>155.0</ele><time>2026-03-29T08:43:14.993Z</time></trkpt><trkpt lat="43.19982787218921" lon="11.448965847139037"><ele>155.0</ele><time>2026-03-29T08:43:15.993Z</time></trkpt><trkpt lat="43.19987441853296" lon="11.44915900522182"><ele>155.33333333333331</ele><time>2026-03-29T08:43:16.993Z</time></trkpt><trkpt lat="43.19992313871937" lon="11.449359052566702"><ele>155.66666666666666</ele><time>2026-03-29T08:43:17.993Z</time></trkpt><trkpt lat="43.19997179658807" lon="11.449560085103021"><ele>156.0</ele><time>2026-03-29T08:43:18.993Z</time></trkpt><trkpt lat="43.20002208689573" lon="11.449766812520105"><ele>156.0</ele><time>2026-03-29T08:43:19.993Z</time></trkpt><trkpt lat="43.200074563198356" lon="11.449976587237353"><ele>156.0</ele><time>2026-03-29T08:43:20.993Z</time></trkpt><trkpt lat="43.20012429364249" lon="11.450176115723435"><ele>156.0</ele><time>2026-03-29T08:43:21.993Z</time></trkpt><trkpt lat="43.20017088539834" lon="11.450372131840918"><ele>156.0</ele><time>2026-03-29T08:43:22.993Z</time></trkpt><trkpt lat="43.20021661735798" lon="11.450569004080025"><ele>156.0</ele><time>2026-03-29T08:43:23.993Z</time></trkpt><trkpt lat="43.20026509071576" lon="11.450768808196424"><ele>156.0</ele><time>2026-03-29T08:43:24.993Z</time></trkpt><trkpt lat="43.20031453459638" lon="11.45097062465428"><ele>156.0</ele><time>2026-03-29T08:43:25.993Z</time></trkpt><trkpt lat="43.200364372812636" lon="11.451174840525091"><ele>156.0</ele><time>2026-03-29T08:43:26.993Z</time></trkpt><trkpt lat="43.20040916900639" lon="11.451366345143436"><ele>156.0</ele><time>2026-03-29T08:43:27.993Z</time></trkpt><trkpt lat="43.20044625092005" lon="11.451547448719456"><ele>156.0</ele><time>2026-03-29T08:43:28.993Z</time></trkpt><trkpt lat="43.20047896486494" lon="11.451722244174494"><ele>155.5</ele><time>2026-03-29T08:43:29.993Z</time></trkpt><trkpt lat="43.20051242551693" lon="11.451892911435868"><ele>155.0</ele><time>2026-03-29T08:43:30.993Z</time></trkpt><trkpt lat="43.20054522719284" lon="11.452057279235342"><ele>154.5</ele><time>2026-03-29T08:43:31.993Z</time></trkpt><trkpt lat="43.2005836925602" lon="11.45222807101815"><ele>154.0</ele><time>2026-03-29T08:43:32.993Z</time></trkpt><trkpt lat="43.20062225648357" lon="11.452395594057183"><ele>153.8</ele><time>2026-03-29T08:43:33.993Z</time></trkpt><trkpt lat="43.20066392928887" lon="11.452544296273642"><ele>153.60000000000002</ele><time>2026-03-29T08:43:34.993Z</time></trkpt><trkpt lat="43.20071265634099" lon="11.45267390418978"><ele>153.4</ele><time>2026-03-29T08:43:35.993Z</time></trkpt><trkpt lat="43.20076450164468" lon="11.452811015600716"><ele>153.20000000000002</ele><time>2026-03-29T08:43:36.993Z</time></trkpt><trkpt lat="43.200816965412564" lon="11.452948447031867"><ele>153.0</ele><time>2026-03-29T08:43:37.993Z</time></trkpt><trkpt lat="43.200849229696985" lon="11.453086092701309"><ele>152.75</ele><time>2026-03-29T08:43:38.993Z</time></trkpt><trkpt lat="43.200865524725614" lon="11.453231267578483"><ele>152.5</ele><time>2026-03-29T08:43:39.993Z</time></trkpt><trkpt lat="43.20086639999039" lon="11.453399103916547"><ele>152.25</ele><time>2026-03-29T08:43:40.993Z</time></trkpt><trkpt lat="43.20086194723974" lon="11.453581275960834"><ele>152.0</ele><time>2026-03-29T08:43:41.993Z</time></trkpt><trkpt lat="43.200852471409846" lon="11.453747418064067"><ele>153.75</ele><time>2026-03-29T08:43:42.993Z</time></trkpt><trkpt lat="43.200862532586264" lon="11.453923544876398"><ele>155.5</ele><time>2026-03-29T08:43:43.993Z</time></trkpt><trkpt lat="43.20087098688694" lon="11.45408083243601"><ele>157.25</ele><time>2026-03-29T08:43:44.993Z</time></trkpt><trkpt lat="43.20089484106915" lon="11.454226510432962"><ele>159.0</ele><time>2026-03-29T08:43:45.993Z</time></trkpt><trkpt lat="43.20091897903016" lon="11.454357949492657"><ele>159.0</ele><time>2026-03-29T08:43:46.993Z</time></trkpt><trkpt lat="43.20093845452661" lon="11.454474290037762"><ele>159.0</ele><time>2026-03-29T08:43:47.993Z</time></trkpt><trkpt lat="43.20094421127735" lon="11.454603099536428"><ele>159.0</ele><time>2026-03-29T08:43:48.993Z</time></trkpt><trkpt lat="43.2009403188857" lon="11.454747676101885"><ele>159.0</ele><time>2026-03-29T08:43:49.993Z</time></trkpt><trkpt lat="43.20092579224749" lon="11.454893715237663"><ele>159.0</ele><time>2026-03-29T08:43:50.993Z</time></trkpt><trkpt lat="43.20093807803891" lon="11.455038889445268"><ele>159.8</ele><time>2026-03-29T08:43:51.993Z</time></trkpt><trkpt lat="43.200939117529046" lon="11.45517797782754"><ele>160.60000000000002</ele><time>2026-03-29T08:43:52.993Z</time></trkpt><trkpt lat="43.200921958655144" lon="11.455303507251573"><ele>161.4</ele><time>2026-03-29T08:43:53.993Z</time></trkpt><trkpt lat="43.20086810121262" lon="11.455429255891938"><ele>162.20000000000002</ele><time>2026-03-29T08:43:54.993Z</time></trkpt><trkpt lat="43.20079109135604" lon="11.455540547849932"><ele>163.0</ele><time>2026-03-29T08:43:55.993Z</time></trkpt><trkpt lat="43.20070205600567" lon="11.455644459264946"><ele>162.25</ele><time>2026-03-29T08:43:56.993Z</time></trkpt><trkpt lat="43.200612700774414" lon="11.455771503284186"><ele>161.5</ele><time>2026-03-29T08:43:57.993Z</time></trkpt><trkpt lat="43.20052227238625" lon="11.455905137177718"><ele>160.75</ele><time>2026-03-29T08:43:58.993Z</time></trkpt><trkpt lat="43.20042920980357" lon="11.456038281825974"><ele>160.0</ele><time>2026-03-29T08:43:59.993Z</time></trkpt><trkpt lat="43.20034397912949" lon="11.456164135327073"><ele>160.0</ele><time>2026-03-29T08:44:00.993Z</time></trkpt><trkpt lat="43.20026836064669" lon="11.45627473399419"><ele>160.0</ele><time>2026-03-29T08:44:01.993Z</time></trkpt><trkpt lat="43.20019697983957" lon="11.456377350262443"><ele>160.0</ele><time>2026-03-29T08:44:02.993Z</time></trkpt><trkpt lat="43.200134758992576" lon="11.456465190576393"><ele>160.0</ele><time>2026-03-29T08:44:03.993Z</time></trkpt><trkpt lat="43.200081725816545" lon="11.456538524952478"><ele>160.0</ele><time>2026-03-29T08:44:04.993Z</time></trkpt><trkpt lat="43.20002552673763" lon="11.456602333422367"><ele>159.5</ele><time>2026-03-29T08:44:05.993Z</time></trkpt><trkpt lat="43.19995202011077" lon="11.456685103658415"><ele>159.0</ele><time>2026-03-29T08:44:06.993Z</time></trkpt><trkpt lat="43.199862456035646" lon="11.45679192205817"><ele>158.5</ele><time>2026-03-29T08:44:07.993Z</time></trkpt><trkpt lat="43.199768763215786" lon="11.456912525682124"><ele>158.0</ele><time>2026-03-29T08:44:08.993Z</time></trkpt><trkpt lat="43.199677406723374" lon="11.457038300561011"><ele>159.75</ele><time>2026-03-29T08:44:09.993Z</time></trkpt><trkpt lat="43.19958585771253" lon="11.457172200049653"><ele>161.5</ele><time>2026-03-29T08:44:10.993Z</time></trkpt><trkpt lat="43.19947475918329" lon="11.457307324013955"><ele>163.25</ele><time>2026-03-29T08:44:11.993Z</time></trkpt><trkpt lat="43.19936232035349" lon="11.45743616038137"><ele>165.0</ele><time>2026-03-29T08:44:12.993Z</time></trkpt><trkpt lat="43.199241670787615" lon="11.457563394831697"><ele>165.0</ele><time>2026-03-29T08:44:13.993Z</time></trkpt><trkpt lat="43.199126316832476" lon="11.457695685830286"><ele>165.0</ele><time>2026-03-29T08:44:14.993Z</time></trkpt><trkpt lat="43.1990287311345" lon="11.457807345860347"><ele>165.0</ele><time>2026-03-29T08:44:15.993Z</time></trkpt><trkpt lat="43.19894557087138" lon="11.457903453796467"><ele>165.0</ele><time>2026-03-29T08:44:16.993Z</time></trkpt><trkpt lat="43.19887505911871" lon="11.457992229293502"><ele>164.0</ele><time>2026-03-29T08:44:17.993Z</time></trkpt><trkpt lat="43.19881290066125" lon="11.458067270789265"><ele>163.0</ele><time>2026-03-29T08:44:18.993Z</time></trkpt><trkpt lat="43.1987375314728" lon="11.458151104818713"><ele>162.0</ele><time>2026-03-29T08:44:19.993Z</time></trkpt><trkpt lat="43.19867058610976" lon="11.458251433350933"><ele>161.0</ele><time>2026-03-29T08:44:20.993Z</time></trkpt><trkpt lat="43.1985999093395" lon="11.458370118331086"><ele>160.0</ele><time>2026-03-29T08:44:21.993Z</time></trkpt><trkpt lat="43.19851811731728" lon="11.458502976644644"><ele>160.0</ele><time>2026-03-29T08:44:22.992Z</time></trkpt><trkpt lat="43.19843673756665" lon="11.458641772684137"><ele>160.0</ele><time>2026-03-29T08:44:23.993Z</time></trkpt><trkpt lat="43.19834802159758" lon="11.458784604352026"><ele>160.0</ele><time>2026-03-29T08:44:24.993Z</time></trkpt><trkpt lat="43.19825760885032" lon="11.458939438813564"><ele>160.0</ele><time>2026-03-29T08:44:25.992Z</time></trkpt><trkpt lat="43.19816356427775" lon="11.459099085333548"><ele>158.33333333333334</ele><time>2026-03-29T08:44:26.992Z</time></trkpt><trkpt lat="43.19806611148599" lon="11.459265543784152"><ele>156.66666666666666</ele><time>2026-03-29T08:44:27.992Z</time></trkpt><trkpt lat="43.19796459757959" lon="11.459425371839846"><ele>155.0</ele><time>2026-03-29T08:44:28.992Z</time></trkpt><trkpt lat="43.197868939145444" lon="11.459595565217326"><ele>155.0</ele><time>2026-03-29T08:44:29.992Z</time></trkpt><trkpt lat="43.19777242603403" lon="11.459755461553147"><ele>155.0</ele><time>2026-03-29T08:44:30.992Z</time></trkpt><trkpt lat="43.1976746876955" lon="11.459913004254878"><ele>155.0</ele><time>2026-03-29T08:44:31.992Z</time></trkpt><trkpt lat="43.1975773218958" lon="11.46006228094623"><ele>155.0</ele><time>2026-03-29T08:44:32.992Z</time></trkpt><trkpt lat="43.19747986559181" lon="11.460209845411583"><ele>155.0</ele><time>2026-03-29T08:44:33.992Z</time></trkpt><trkpt lat="43.19739041602861" lon="11.460342744663611"><ele>155.0</ele><time>2026-03-29T08:44:34.992Z</time></trkpt><trkpt lat="43.197308778194156" lon="11.460468235395357"><ele>155.0</ele><time>2026-03-29T08:44:35.992Z</time></trkpt><trkpt lat="43.197229019173314" lon="11.460593038136603"><ele>155.0</ele><time>2026-03-29T08:44:36.992Z</time></trkpt><trkpt lat="43.19714696739077" lon="11.46072226663844"><ele>155.25</ele><time>2026-03-29T08:44:37.992Z</time></trkpt><trkpt lat="43.19706319886298" lon="11.460857759152757"><ele>155.5</ele><time>2026-03-29T08:44:38.992Z</time></trkpt><trkpt lat="43.19698357126029" lon="11.460989063600392"><ele>155.75</ele><time>2026-03-29T08:44:39.992Z</time></trkpt><trkpt lat="43.19690509609934" lon="11.461112422305293"><ele>156.0</ele><time>2026-03-29T08:44:40.992Z</time></trkpt><trkpt lat="43.19682642728609" lon="11.461236745127218"><ele>155.75</ele><time>2026-03-29T08:44:41.992Z</time></trkpt><trkpt lat="43.19674747230472" lon="11.46135467516958"><ele>155.5</ele><time>2026-03-29T08:44:42.992Z</time></trkpt><trkpt lat="43.19666599550654" lon="11.461479537392234"><ele>155.25</ele><time>2026-03-29T08:44:43.992Z</time></trkpt><trkpt lat="43.19658867888722" lon="11.461599385443666"><ele>155.0</ele><time>2026-03-29T08:44:44.992Z</time></trkpt><trkpt lat="43.1965203329207" lon="11.461705630603662"><ele>155.0</ele><time>2026-03-29T08:44:45.992Z</time></trkpt><trkpt lat="43.19650322922476" lon="11.461839503879983"><ele>155.0</ele><time>2026-03-29T08:44:46.992Z</time></trkpt><trkpt lat="43.19645145237489" lon="11.461957792072694"><ele>155.0</ele><time>2026-03-29T08:44:47.992Z</time></trkpt><trkpt lat="43.19640516868039" lon="11.462026491416214"><ele>155.0</ele><time>2026-03-29T08:44:48.992Z</time></trkpt><trkpt lat="43.19636019349628" lon="11.462110129493125"><ele>155.0</ele><time>2026-03-29T08:44:49.992Z</time></trkpt><trkpt lat="43.19632309618472" lon="11.462192597385467"><ele>155.0</ele><time>2026-03-29T08:44:50.992Z</time></trkpt><trkpt lat="43.196278658386156" lon="11.462296459193476"><ele>154.2</ele><time>2026-03-29T08:44:51.992Z</time></trkpt><trkpt lat="43.196243566171006" lon="11.462402542489139"><ele>153.4</ele><time>2026-03-29T08:44:52.992Z</time></trkpt><trkpt lat="43.19618910458327" lon="11.462517499446275"><ele>152.6</ele><time>2026-03-29T08:44:53.992Z</time></trkpt><trkpt lat="43.19612622400864" lon="11.462634846907738"><ele>151.8</ele><time>2026-03-29T08:44:54.992Z</time></trkpt><trkpt lat="43.196048108397825" lon="11.462748915519848"><ele>151.0</ele><time>2026-03-29T08:44:55.992Z</time></trkpt><trkpt lat="43.195994446602356" lon="11.462895535941843"><ele>150.75</ele><time>2026-03-29T08:44:56.992Z</time></trkpt><trkpt lat="43.19593844700249" lon="11.463041162155255"><ele>150.5</ele><time>2026-03-29T08:44:57.992Z</time></trkpt><trkpt lat="43.19587195916814" lon="11.463169523644552"><ele>150.25</ele><time>2026-03-29T08:44:58.992Z</time></trkpt><trkpt lat="43.195790616261434" lon="11.463304501883986"><ele>150.0</ele><time>2026-03-29T08:44:59.992Z</time></trkpt><trkpt lat="43.195718917833005" lon="11.463468838547929"><ele>150.0</ele><time>2026-03-29T08:45:00.992Z</time></trkpt><trkpt lat="43.195646635403136" lon="11.463650582546688"><ele>150.0</ele><time>2026-03-29T08:45:01.992Z</time></trkpt><trkpt lat="43.19557647867955" lon="11.463829118357856"><ele>150.0</ele><time>2026-03-29T08:45:02.992Z</time></trkpt><trkpt lat="43.19550901816043" lon="11.463994904854863"><ele>150.0</ele><time>2026-03-29T08:45:03.992Z</time></trkpt><trkpt lat="43.195442862297156" lon="11.464152672056853"><ele>150.25</ele><time>2026-03-29T08:45:04.992Z</time></trkpt><trkpt lat="43.19538745630136" lon="11.464324608990495"><ele>150.5</ele><time>2026-03-29T08:45:05.992Z</time></trkpt><trkpt lat="43.19530758304967" lon="11.464475282947088"><ele>150.75</ele><time>2026-03-29T08:45:06.992Z</time></trkpt><trkpt lat="43.19523890609961" lon="11.464639062184723"><ele>151.0</ele><time>2026-03-29T08:45:07.992Z</time></trkpt><trkpt lat="43.19517142130705" lon="11.46480021357657"><ele>151.4</ele><time>2026-03-29T08:45:08.992Z</time></trkpt><trkpt lat="43.195110258075765" lon="11.464947077785016"><ele>151.8</ele><time>2026-03-29T08:45:09.992Z</time></trkpt><trkpt lat="43.19505993254757" lon="11.46506877475876"><ele>152.20000000000002</ele><time>2026-03-29T08:45:10.992Z</time></trkpt><trkpt lat="43.19501057376725" lon="11.465194227030619"><ele>152.6</ele><time>2026-03-29T08:45:11.992Z</time></trkpt><trkpt lat="43.194963812526744" lon="11.465318576057719"><ele>153.0</ele><time>2026-03-29T08:45:12.992Z</time></trkpt><trkpt lat="43.19493220838156" lon="11.465430148298715"><ele>153.5</ele><time>2026-03-29T08:45:13.992Z</time></trkpt><trkpt lat="43.19488332470542" lon="11.465506531675034"><ele>154.0</ele><time>2026-03-29T08:45:14.992Z</time></trkpt><trkpt lat="43.19490270121777" lon="11.465764480068616"><ele>154.5</ele><time>2026-03-29T08:45:16.992Z</time></trkpt><trkpt lat="43.19494902587041" lon="11.465866449808374"><ele>155.0</ele><time>2026-03-29T08:45:17.992Z</time></trkpt><trkpt lat="43.19503429025391" lon="11.465948779592901"><ele>155.0</ele><time>2026-03-29T08:45:18.992Z</time></trkpt><trkpt lat="43.19510651877918" lon="11.46605119317974"><ele>155.0</ele><time>2026-03-29T08:45:19.992Z</time></trkpt><trkpt lat="43.19519430596128" lon="11.466161351229912"><ele>155.0</ele><time>2026-03-29T08:45:20.992Z</time></trkpt><trkpt lat="43.19527021134922" lon="11.466272255075841"><ele>155.0</ele><time>2026-03-29T08:45:21.992Z</time></trkpt><trkpt lat="43.19533269916542" lon="11.466377904650129"><ele>155.0</ele><time>2026-03-29T08:45:22.992Z</time></trkpt><trkpt lat="43.19538509983723" lon="11.466515029841986"><ele>155.75</ele><time>2026-03-29T08:45:23.992Z</time></trkpt><trkpt lat="43.195416595034054" lon="11.46666933421212"><ele>156.5</ele><time>2026-03-29T08:45:24.992Z</time></trkpt><trkpt lat="43.19543778729976" lon="11.466838529328658"><ele>157.25</ele><time>2026-03-29T08:45:25.992Z</time></trkpt><trkpt lat="43.195459147832075" lon="11.467001419898295"><ele>158.0</ele><time>2026-03-29T08:45:26.992Z</time></trkpt><trkpt lat="43.19547064459438" lon="11.467155669886514"><ele>158.33333333333331</ele><time>2026-03-29T08:45:27.992Z</time></trkpt><trkpt lat="43.19548846583283" lon="11.467288193290583"><ele>158.66666666666666</ele><time>2026-03-29T08:45:28.992Z</time></trkpt><trkpt lat="43.195522152648735" lon="11.467404034855443"><ele>159.0</ele><time>2026-03-29T08:45:29.992Z</time></trkpt><trkpt lat="43.19556323006683" lon="11.467496069913985"><ele>159.33333333333334</ele><time>2026-03-29T08:45:30.992Z</time></trkpt><trkpt lat="43.19562264264721" lon="11.467563513323519"><ele>159.66666666666669</ele><time>2026-03-29T08:45:31.992Z</time></trkpt><trkpt lat="43.19570387107041" lon="11.467610892872676"><ele>160.0</ele><time>2026-03-29T08:45:32.992Z</time></trkpt><trkpt lat="43.19579378590918" lon="11.46767635675125"><ele>161.25</ele><time>2026-03-29T08:45:33.992Z</time></trkpt><trkpt lat="43.19590924534955" lon="11.467691164573111"><ele>162.5</ele><time>2026-03-29T08:45:34.992Z</time></trkpt><trkpt lat="43.19602278670262" lon="11.467749307656598"><ele>163.75</ele><time>2026-03-29T08:45:35.992Z</time></trkpt><trkpt lat="43.196128532291446" lon="11.467829839401354"><ele>165.0</ele><time>2026-03-29T08:45:36.992Z</time></trkpt><trkpt lat="43.196223753051115" lon="11.46793004290401"><ele>165.5</ele><time>2026-03-29T08:45:37.992Z</time></trkpt><trkpt lat="43.19631215989386" lon="11.468044249647585"><ele>166.0</ele><time>2026-03-29T08:45:38.992Z</time></trkpt><trkpt lat="43.19639486872311" lon="11.46817505103202"><ele>166.5</ele><time>2026-03-29T08:45:39.992Z</time></trkpt><trkpt lat="43.19646914970708" lon="11.468311617859538"><ele>167.0</ele><time>2026-03-29T08:45:40.992Z</time></trkpt><trkpt lat="43.196528566461495" lon="11.468426842544327"><ele>168.6</ele><time>2026-03-29T08:45:41.992Z</time></trkpt><trkpt lat="43.19657399742239" lon="11.468555598378037"><ele>170.2</ele><time>2026-03-29T08:45:42.992Z</time></trkpt><trkpt lat="43.19659462366448" lon="11.468697176166561"><ele>171.8</ele><time>2026-03-29T08:45:43.992Z</time></trkpt><trkpt lat="43.19660633622079" lon="11.46883460209926"><ele>173.4</ele><time>2026-03-29T08:45:44.992Z</time></trkpt><trkpt lat="43.196626734798045" lon="11.468944370468186"><ele>175.0</ele><time>2026-03-29T08:45:45.992Z</time></trkpt><trkpt lat="43.19667427011872" lon="11.46905122268433"><ele>176.2</ele><time>2026-03-29T08:45:46.992Z</time></trkpt><trkpt lat="43.19674151949208" lon="11.469150454696091"><ele>177.4</ele><time>2026-03-29T08:45:47.992Z</time></trkpt><trkpt lat="43.196806565979315" lon="11.469252533652725"><ele>178.60000000000002</ele><time>2026-03-29T08:45:48.992Z</time></trkpt><trkpt lat="43.19688037641678" lon="11.469359584951224"><ele>179.8</ele><time>2026-03-29T08:45:49.992Z</time></trkpt><trkpt lat="43.196948746278984" lon="11.469481299196127"><ele>181.0</ele><time>2026-03-29T08:45:50.992Z</time></trkpt><trkpt lat="43.19700961694155" lon="11.469614464526218"><ele>181.25</ele><time>2026-03-29T08:45:51.992Z</time></trkpt><trkpt lat="43.197068558560524" lon="11.469755036039754"><ele>181.5</ele><time>2026-03-29T08:45:52.992Z</time></trkpt><trkpt lat="43.19712202802283" lon="11.469915543230085"><ele>181.75</ele><time>2026-03-29T08:45:53.992Z</time></trkpt><trkpt lat="43.197172198858155" lon="11.470057654993369"><ele>182.0</ele><time>2026-03-29T08:45:54.992Z</time></trkpt><trkpt lat="43.197215724810555" lon="11.470185124307074"><ele>182.0</ele><time>2026-03-29T08:45:55.992Z</time></trkpt><trkpt lat="43.19726458067685" lon="11.470302643267761"><ele>182.0</ele><time>2026-03-29T08:45:56.992Z</time></trkpt><trkpt lat="43.19731274771887" lon="11.470405371786807"><ele>182.0</ele><time>2026-03-29T08:45:57.992Z</time></trkpt><trkpt lat="43.197380302959054" lon="11.470489810872563"><ele>182.0</ele><time>2026-03-29T08:45:58.992Z</time></trkpt><trkpt lat="43.197453598807996" lon="11.470546571666292"><ele>182.0</ele><time>2026-03-29T08:45:59.992Z</time></trkpt><trkpt lat="43.19752364598545" lon="11.470575071506342"><ele>182.0</ele><time>2026-03-29T08:46:00.992Z</time></trkpt><trkpt lat="43.19762164708947" lon="11.470588834412144"><ele>185.6</ele><time>2026-03-29T08:46:01.992Z</time></trkpt><trkpt lat="43.197729633931274" lon="11.470595194773455"><ele>189.2</ele><time>2026-03-29T08:46:02.992Z</time></trkpt><trkpt lat="43.19782852370617" lon="11.470636612381359"><ele>192.8</ele><time>2026-03-29T08:46:03.992Z</time></trkpt><trkpt lat="43.19792071067801" lon="11.470666000371093"><ele>196.4</ele><time>2026-03-29T08:46:04.992Z</time></trkpt><trkpt lat="43.19800490336398" lon="11.470723212323751"><ele>200.0</ele><time>2026-03-29T08:46:05.992Z</time></trkpt><trkpt lat="43.19808641023775" lon="11.470794428106919"><ele>201.0</ele><time>2026-03-29T08:46:06.992Z</time></trkpt><trkpt lat="43.198185486529894" lon="11.470872519317577"><ele>202.0</ele><time>2026-03-29T08:46:07.992Z</time></trkpt><trkpt lat="43.198262067900394" lon="11.470982802469745"><ele>203.0</ele><time>2026-03-29T08:46:08.992Z</time></trkpt><trkpt lat="43.19832797688278" lon="11.471108933130363"><ele>204.0</ele><time>2026-03-29T08:46:09.992Z</time></trkpt><trkpt lat="43.19838362512413" lon="11.47126791836279"><ele>205.5</ele><time>2026-03-29T08:46:10.992Z</time></trkpt><trkpt lat="43.19842749616135" lon="11.471432947441128"><ele>207.0</ele><time>2026-03-29T08:46:11.992Z</time></trkpt><trkpt lat="43.198474378260094" lon="11.471552070111075"><ele>208.5</ele><time>2026-03-29T08:46:12.992Z</time></trkpt><trkpt lat="43.1985054548451" lon="11.471694186095531"><ele>210.0</ele><time>2026-03-29T08:46:13.992Z</time></trkpt><trkpt lat="43.19852146492927" lon="11.471865406657217"><ele>210.0</ele><time>2026-03-29T08:46:14.992Z</time></trkpt><trkpt lat="43.19852202174191" lon="11.472045895167131"><ele>210.0</ele><time>2026-03-29T08:46:15.992Z</time></trkpt><trkpt lat="43.1985022112198" lon="11.4722413236059"><ele>210.0</ele><time>2026-03-29T08:46:16.992Z</time></trkpt><trkpt lat="43.198464732272036" lon="11.472398608296553"><ele>210.0</ele><time>2026-03-29T08:46:17.993Z</time></trkpt><trkpt lat="43.19847112511597" lon="11.472544872079393"><ele>210.6</ele><time>2026-03-29T08:46:18.993Z</time></trkpt><trkpt lat="43.19847604934139" lon="11.472676894640689"><ele>211.2</ele><time>2026-03-29T08:46:19.992Z</time></trkpt><trkpt lat="43.19849241223105" lon="11.472807178404855"><ele>211.8</ele><time>2026-03-29T08:46:20.993Z</time></trkpt><trkpt lat="43.19852623166936" lon="11.472933333468522"><ele>212.4</ele><time>2026-03-29T08:46:21.992Z</time></trkpt><trkpt lat="43.19856203135501" lon="11.473073424907245"><ele>213.0</ele><time>2026-03-29T08:46:22.993Z</time></trkpt><trkpt lat="43.19862588010255" lon="11.473194140400294"><ele>213.2</ele><time>2026-03-29T08:46:23.993Z</time></trkpt><trkpt lat="43.19869978663515" lon="11.473307898984448"><ele>213.4</ele><time>2026-03-29T08:46:24.993Z</time></trkpt><trkpt lat="43.19875796162843" lon="11.473425888941108"><ele>213.59999999999997</ele><time>2026-03-29T08:46:25.993Z</time></trkpt><trkpt lat="43.198808244986175" lon="11.473534549369731"><ele>213.79999999999998</ele><time>2026-03-29T08:46:26.993Z</time></trkpt><trkpt lat="43.198840056362265" lon="11.473654725398461"><ele>214.0</ele><time>2026-03-29T08:46:27.993Z</time></trkpt><trkpt lat="43.19884731702405" lon="11.473804287880412"><ele>211.75</ele><time>2026-03-29T08:46:28.993Z</time></trkpt><trkpt lat="43.198841648044315" lon="11.473978168932737"><ele>209.5</ele><time>2026-03-29T08:46:29.992Z</time></trkpt><trkpt lat="43.19883928416577" lon="11.47414024952364"><ele>207.25</ele><time>2026-03-29T08:46:30.992Z</time></trkpt><trkpt lat="43.19886200747724" lon="11.474288277816619"><ele>205.0</ele><time>2026-03-29T08:46:31.992Z</time></trkpt><trkpt lat="43.19890618790957" lon="11.474435779181235"><ele>205.0</ele><time>2026-03-29T08:46:32.992Z</time></trkpt><trkpt lat="43.19896933961278" lon="11.47458811752218"><ele>205.0</ele><time>2026-03-29T08:46:33.992Z</time></trkpt><trkpt lat="43.19904364149115" lon="11.4747290911662"><ele>205.0</ele><time>2026-03-29T08:46:34.992Z</time></trkpt><trkpt lat="43.199118584421086" lon="11.474864590483477"><ele>205.0</ele><time>2026-03-29T08:46:35.992Z</time></trkpt><trkpt lat="43.19919977249276" lon="11.475005336091439"><ele>203.5</ele><time>2026-03-29T08:46:36.992Z</time></trkpt><trkpt lat="43.19927552799867" lon="11.475142533842948"><ele>202.0</ele><time>2026-03-29T08:46:37.992Z</time></trkpt><trkpt lat="43.19934486684123" lon="11.47525838180787"><ele>200.5</ele><time>2026-03-29T08:46:38.992Z</time></trkpt><trkpt lat="43.199415911581525" lon="11.475373373784775"><ele>199.0</ele><time>2026-03-29T08:46:39.992Z</time></trkpt><trkpt lat="43.199492655837176" lon="11.47548715333879"><ele>200.39999999999998</ele><time>2026-03-29T08:46:40.992Z</time></trkpt><trkpt lat="43.199573588166075" lon="11.475579970295641"><ele>201.8</ele><time>2026-03-29T08:46:41.992Z</time></trkpt><trkpt lat="43.19964956994263" lon="11.475647722213534"><ele>203.2</ele><time>2026-03-29T08:46:42.992Z</time></trkpt><trkpt lat="43.19972779781727" lon="11.475711350590187"><ele>204.60000000000002</ele><time>2026-03-29T08:46:43.992Z</time></trkpt><trkpt lat="43.19981414195102" lon="11.475771348705804"><ele>206.0</ele><time>2026-03-29T08:46:44.992Z</time></trkpt><trkpt lat="43.19988835093868" lon="11.475852545573293"><ele>206.0</ele><time>2026-03-29T08:46:45.992Z</time></trkpt><trkpt lat="43.19996984818317" lon="11.47591723352841"><ele>206.0</ele><time>2026-03-29T08:46:46.992Z</time></trkpt><trkpt lat="43.20005572098975" lon="11.475968721685348"><ele>206.0</ele><time>2026-03-29T08:46:47.992Z</time></trkpt><trkpt lat="43.200130263766994" lon="11.47606305494434"><ele>206.0</ele><time>2026-03-29T08:46:48.992Z</time></trkpt><trkpt lat="43.20020667382245" lon="11.476169071513297"><ele>206.0</ele><time>2026-03-29T08:46:49.992Z</time></trkpt><trkpt lat="43.200296661655" lon="11.476263862516017"><ele>207.0</ele><time>2026-03-29T08:46:50.992Z</time></trkpt><trkpt lat="43.20039957462576" lon="11.47636155762754"><ele>208.0</ele><time>2026-03-29T08:46:51.992Z</time></trkpt><trkpt lat="43.20049825232594" lon="11.47646083243303"><ele>209.0</ele><time>2026-03-29T08:46:52.992Z</time></trkpt><trkpt lat="43.20058854278234" lon="11.4765663547043"><ele>210.0</ele><time>2026-03-29T08:46:53.992Z</time></trkpt><trkpt lat="43.20067258152283" lon="11.476684223678687"><ele>210.0</ele><time>2026-03-29T08:46:54.992Z</time></trkpt><trkpt lat="43.200749544850055" lon="11.476825547571268"><ele>210.0</ele><time>2026-03-29T08:46:55.992Z</time></trkpt><trkpt lat="43.20082539896417" lon="11.476988197559333"><ele>210.0</ele><time>2026-03-29T08:46:56.992Z</time></trkpt><trkpt lat="43.20090344715718" lon="11.477158110897635"><ele>210.0</ele><time>2026-03-29T08:46:57.992Z</time></trkpt><trkpt lat="43.20098110852593" lon="11.477332884092764"><ele>209.0</ele><time>2026-03-29T08:46:58.992Z</time></trkpt><trkpt lat="43.20105097913802" lon="11.477517082116979"><ele>208.0</ele><time>2026-03-29T08:46:59.992Z</time></trkpt><trkpt lat="43.20112000680947" lon="11.477700744533465"><ele>207.0</ele><time>2026-03-29T08:47:00.992Z</time></trkpt><trkpt lat="43.20118832963881" lon="11.477877804508266"><ele>206.0</ele><time>2026-03-29T08:47:01.992Z</time></trkpt><trkpt lat="43.201255301537714" lon="11.478046000041457"><ele>206.75</ele><time>2026-03-29T08:47:02.992Z</time></trkpt><trkpt lat="43.20132738522151" lon="11.478213969034293"><ele>207.5</ele><time>2026-03-29T08:47:03.992Z</time></trkpt><trkpt lat="43.201386634477934" lon="11.478393970631116"><ele>208.25</ele><time>2026-03-29T08:47:04.992Z</time></trkpt><trkpt lat="43.201453962362606" lon="11.478566974413413"><ele>209.0</ele><time>2026-03-29T08:47:05.992Z</time></trkpt><trkpt lat="43.201535202029454" lon="11.478738647156153"><ele>210.0</ele><time>2026-03-29T08:47:06.992Z</time></trkpt><trkpt lat="43.20160013516687" lon="11.478921004488228"><ele>211.0</ele><time>2026-03-29T08:47:07.992Z</time></trkpt><trkpt lat="43.20166332549984" lon="11.479109751002648"><ele>212.0</ele><time>2026-03-29T08:47:08.992Z</time></trkpt><trkpt lat="43.20171894129076" lon="11.47930058227295"><ele>213.0</ele><time>2026-03-29T08:47:09.992Z</time></trkpt><trkpt lat="43.20176751984001" lon="11.479491981438526"><ele>212.75</ele><time>2026-03-29T08:47:10.992Z</time></trkpt><trkpt lat="43.20181936080762" lon="11.479676032352701"><ele>212.5</ele><time>2026-03-29T08:47:11.992Z</time></trkpt><trkpt lat="43.201866188274586" lon="11.479848541184266"><ele>212.25</ele><time>2026-03-29T08:47:12.992Z</time></trkpt><trkpt lat="43.20191743175755" lon="11.480015683931374"><ele>212.0</ele><time>2026-03-29T08:47:13.992Z</time></trkpt><trkpt lat="43.201974629037984" lon="11.480178431085237"><ele>212.0</ele><time>2026-03-29T08:47:14.992Z</time></trkpt><trkpt lat="43.20203130227434" lon="11.4803374732804"><ele>212.0</ele><time>2026-03-29T08:47:15.992Z</time></trkpt><trkpt lat="43.20208409981495" lon="11.480484430844717"><ele>212.0</ele><time>2026-03-29T08:47:16.992Z</time></trkpt><trkpt lat="43.20213360765365" lon="11.480629280604196"><ele>212.0</ele><time>2026-03-29T08:47:17.992Z</time></trkpt><trkpt lat="43.20217886683831" lon="11.48078049384088"><ele>212.5</ele><time>2026-03-29T08:47:18.992Z</time></trkpt><trkpt lat="43.202212996073314" lon="11.48094013684446"><ele>213.0</ele><time>2026-03-29T08:47:19.992Z</time></trkpt><trkpt lat="43.20222940434441" lon="11.481109183949837"><ele>213.5</ele><time>2026-03-29T08:47:20.992Z</time></trkpt><trkpt lat="43.20225270590769" lon="11.481281687494034"><ele>214.0</ele><time>2026-03-29T08:47:21.992Z</time></trkpt><trkpt lat="43.20227363616582" lon="11.481443155461248"><ele>214.0</ele><time>2026-03-29T08:47:22.992Z</time></trkpt><trkpt lat="43.20229103985583" lon="11.481576661343103"><ele>213.99999999999997</ele><time>2026-03-29T08:47:23.992Z</time></trkpt><trkpt lat="43.20230185283514" lon="11.481695791247303"><ele>213.99999999999997</ele><time>2026-03-29T08:47:24.992Z</time></trkpt><trkpt lat="43.202303517564665" lon="11.481814727194502"><ele>214.0</ele><time>2026-03-29T08:47:25.992Z</time></trkpt><trkpt lat="43.2022957340901" lon="11.481939496338365"><ele>214.0</ele><time>2026-03-29T08:47:26.992Z</time></trkpt><trkpt lat="43.202272813616084" lon="11.482072365685855"><ele>216.25</ele><time>2026-03-29T08:47:27.992Z</time></trkpt><trkpt lat="43.2022418706897" lon="11.48222495690592"><ele>218.5</ele><time>2026-03-29T08:47:28.992Z</time></trkpt><trkpt lat="43.202205940146435" lon="11.482400309917466"><ele>220.75</ele><time>2026-03-29T08:47:29.992Z</time></trkpt><trkpt lat="43.20217885457482" lon="11.48256373140171"><ele>223.0</ele><time>2026-03-29T08:47:30.992Z</time></trkpt><trkpt lat="43.20217250142115" lon="11.482713068135268"><ele>223.0</ele><time>2026-03-29T08:47:31.992Z</time></trkpt><trkpt lat="43.20218010049607" lon="11.482862094463952"><ele>223.0</ele><time>2026-03-29T08:47:32.992Z</time></trkpt><trkpt lat="43.20219026862995" lon="11.482992382588135"><ele>223.0</ele><time>2026-03-29T08:47:33.992Z</time></trkpt><trkpt lat="43.20218707399861" lon="11.483102613370988"><ele>223.0</ele><time>2026-03-29T08:47:34.992Z</time></trkpt><trkpt lat="43.202166259445626" lon="11.483216188431262"><ele>223.0</ele><time>2026-03-29T08:47:35.992Z</time></trkpt><trkpt lat="43.202121811554186" lon="11.483330552433609"><ele>225.8</ele><time>2026-03-29T08:47:36.992Z</time></trkpt><trkpt lat="43.20206025323339" lon="11.483438714337021"><ele>228.60000000000002</ele><time>2026-03-29T08:47:37.992Z</time></trkpt><trkpt lat="43.20198834586059" lon="11.483551466337019"><ele>231.39999999999998</ele><time>2026-03-29T08:47:38.992Z</time></trkpt><trkpt lat="43.20190235463308" lon="11.483668277437038"><ele>234.2</ele><time>2026-03-29T08:47:39.992Z</time></trkpt><trkpt lat="43.20183450972859" lon="11.483779927592785"><ele>237.0</ele><time>2026-03-29T08:47:40.992Z</time></trkpt><trkpt lat="43.201784615833326" lon="11.483880385015786"><ele>239.66666666666666</ele><time>2026-03-29T08:47:41.992Z</time></trkpt><trkpt lat="43.201752510274325" lon="11.483994244028848"><ele>242.33333333333331</ele><time>2026-03-29T08:47:42.992Z</time></trkpt><trkpt lat="43.20174312257876" lon="11.484098425191439"><ele>245.0</ele><time>2026-03-29T08:47:43.992Z</time></trkpt><trkpt lat="43.201793236862905" lon="11.484236174541616"><ele>247.66666666666666</ele><time>2026-03-29T08:47:45.992Z</time></trkpt><trkpt lat="43.20184290369485" lon="11.484313039945697"><ele>250.33333333333331</ele><time>2026-03-29T08:47:46.992Z</time></trkpt><trkpt lat="43.20187782163114" lon="11.48441068595174"><ele>253.0</ele><time>2026-03-29T08:47:47.992Z</time></trkpt><trkpt lat="43.20193108872809" lon="11.484528426811336"><ele>255.25</ele><time>2026-03-29T08:47:48.992Z</time></trkpt><trkpt lat="43.201981846715384" lon="11.484638833070653"><ele>257.5</ele><time>2026-03-29T08:47:49.992Z</time></trkpt><trkpt lat="43.202038849796885" lon="11.484742004995525"><ele>259.75</ele><time>2026-03-29T08:47:50.992Z</time></trkpt><trkpt lat="43.20208837984128" lon="11.484928945667033"><ele>262.0</ele><time>2026-03-29T08:47:51.992Z</time></trkpt><trkpt lat="43.202120934869576" lon="11.485126344593068"><ele>262.0</ele><time>2026-03-29T08:47:52.992Z</time></trkpt><trkpt lat="43.20215023239246" lon="11.485292275235363"><ele>262.0</ele><time>2026-03-29T08:47:53.992Z</time></trkpt><trkpt lat="43.202178301007066" lon="11.485420404824183"><ele>262.0</ele><time>2026-03-29T08:47:54.992Z</time></trkpt><trkpt lat="43.20218983944003" lon="11.48553622737958"><ele>262.0</ele><time>2026-03-29T08:47:55.992Z</time></trkpt><trkpt lat="43.202217477996555" lon="11.485648275373507"><ele>262.0</ele><time>2026-03-29T08:47:56.992Z</time></trkpt><trkpt lat="43.20225370255666" lon="11.485782278511188"><ele>260.8</ele><time>2026-03-29T08:47:57.992Z</time></trkpt><trkpt lat="43.20229311963966" lon="11.485901492891783"><ele>259.6</ele><time>2026-03-29T08:47:58.992Z</time></trkpt><trkpt lat="43.202340241485196" lon="11.486023557594633"><ele>258.40000000000003</ele><time>2026-03-29T08:47:59.992Z</time></trkpt><trkpt lat="43.202408465941225" lon="11.486153201192637"><ele>257.2</ele><time>2026-03-29T08:48:00.992Z</time></trkpt><trkpt lat="43.20248331944739" lon="11.486281161390417"><ele>256.0</ele><time>2026-03-29T08:48:01.992Z</time></trkpt><trkpt lat="43.202571946494224" lon="11.486409111530758"><ele>254.0</ele><time>2026-03-29T08:48:02.992Z</time></trkpt><trkpt lat="43.20266683163933" lon="11.486528970327539"><ele>252.0</ele><time>2026-03-29T08:48:03.992Z</time></trkpt><trkpt lat="43.20275490137236" lon="11.48666142313768"><ele>250.0</ele><time>2026-03-29T08:48:04.992Z</time></trkpt><trkpt lat="43.2028584099911" lon="11.486778836072226"><ele>248.0</ele><time>2026-03-29T08:48:05.992Z</time></trkpt><trkpt lat="43.2029476345036" lon="11.486900062246756"><ele>248.0</ele><time>2026-03-29T08:48:06.992Z</time></trkpt><trkpt lat="43.203044085883775" lon="11.48702888027206"><ele>248.0</ele><time>2026-03-29T08:48:07.992Z</time></trkpt><trkpt lat="43.20314880734903" lon="11.487166767661902"><ele>248.0</ele><time>2026-03-29T08:48:08.992Z</time></trkpt><trkpt lat="43.20324304927979" lon="11.487286691792562"><ele>248.0</ele><time>2026-03-29T08:48:09.992Z</time></trkpt><trkpt lat="43.203328704965" lon="11.487388762246729"><ele>248.2</ele><time>2026-03-29T08:48:10.992Z</time></trkpt><trkpt lat="43.203409097864245" lon="11.487484471350998"><ele>248.4</ele><time>2026-03-29T08:48:11.992Z</time></trkpt><trkpt lat="43.20348839390059" lon="11.487581043695824"><ele>248.59999999999997</ele><time>2026-03-29T08:48:12.992Z</time></trkpt><trkpt lat="43.203560624481355" lon="11.48766661716828"><ele>248.79999999999998</ele><time>2026-03-29T08:48:13.992Z</time></trkpt><trkpt lat="43.20362811569292" lon="11.48777772221164"><ele>249.0</ele><time>2026-03-29T08:48:14.992Z</time></trkpt><trkpt lat="43.20369568799746" lon="11.487903328656747"><ele>245.75</ele><time>2026-03-29T08:48:15.992Z</time></trkpt><trkpt lat="43.20376816410783" lon="11.488039909549165"><ele>242.5</ele><time>2026-03-29T08:48:16.992Z</time></trkpt><trkpt lat="43.203838639934766" lon="11.488178080493613"><ele>239.25</ele><time>2026-03-29T08:48:17.992Z</time></trkpt><trkpt lat="43.203905350504876" lon="11.48830875783594"><ele>236.0</ele><time>2026-03-29T08:48:18.992Z</time></trkpt><trkpt lat="43.20397626717642" lon="11.488432778416954"><ele>238.4</ele><time>2026-03-29T08:48:19.992Z</time></trkpt><trkpt lat="43.204052643115645" lon="11.48854765728024"><ele>240.8</ele><time>2026-03-29T08:48:20.992Z</time></trkpt><trkpt lat="43.204128200524785" lon="11.48865214416864"><ele>243.20000000000002</ele><time>2026-03-29T08:48:21.992Z</time></trkpt><trkpt lat="43.20420116276821" lon="11.488749926523967"><ele>245.60000000000002</ele><time>2026-03-29T08:48:22.992Z</time></trkpt><trkpt lat="43.20426658367324" lon="11.488847955105454"><ele>248.0</ele><time>2026-03-29T08:48:23.993Z</time></trkpt><trkpt lat="43.20432719272251" lon="11.488937356103763"><ele>248.0</ele><time>2026-03-29T08:48:24.992Z</time></trkpt><trkpt lat="43.20439259050546" lon="11.48903848326443"><ele>248.0</ele><time>2026-03-29T08:48:25.993Z</time></trkpt><trkpt lat="43.20445674771085" lon="11.48916007059025"><ele>248.0</ele><time>2026-03-29T08:48:26.992Z</time></trkpt><trkpt lat="43.204510262186524" lon="11.4892992295698"><ele>248.0</ele><time>2026-03-29T08:48:27.992Z</time></trkpt><trkpt lat="43.204559797886546" lon="11.489450823900414"><ele>248.0</ele><time>2026-03-29T08:48:28.992Z</time></trkpt><trkpt lat="43.20460770249123" lon="11.48959775836884"><ele>245.4</ele><time>2026-03-29T08:48:29.993Z</time></trkpt><trkpt lat="43.20464555975858" lon="11.48973393207473"><ele>242.8</ele><time>2026-03-29T08:48:30.993Z</time></trkpt><trkpt lat="43.204684123764125" lon="11.489866302782746"><ele>240.2</ele><time>2026-03-29T08:48:31.993Z</time></trkpt><trkpt lat="43.20472494947398" lon="11.489997841849897"><ele>237.6</ele><time>2026-03-29T08:48:32.992Z</time></trkpt><trkpt lat="43.20476394743413" lon="11.490128428787672"><ele>235.0</ele><time>2026-03-29T08:48:33.992Z</time></trkpt><trkpt lat="43.20481881201847" lon="11.490254519581255"><ele>237.0</ele><time>2026-03-29T08:48:34.993Z</time></trkpt><trkpt lat="43.20488705232129" lon="11.490365205484323"><ele>239.0</ele><time>2026-03-29T08:48:35.992Z</time></trkpt><trkpt lat="43.20496140544792" lon="11.490470734542736"><ele>241.0</ele><time>2026-03-29T08:48:36.992Z</time></trkpt><trkpt lat="43.20504650378819" lon="11.490574227710328"><ele>243.0</ele><time>2026-03-29T08:48:37.992Z</time></trkpt><trkpt lat="43.2051280550544" lon="11.490675541630477"><ele>245.0</ele><time>2026-03-29T08:48:38.992Z</time></trkpt><trkpt lat="43.20521033320621" lon="11.490764402400522"><ele>245.0</ele><time>2026-03-29T08:48:39.992Z</time></trkpt><trkpt lat="43.20529842374028" lon="11.490833123980492"><ele>245.0</ele><time>2026-03-29T08:48:40.992Z</time></trkpt><trkpt lat="43.20538853535583" lon="11.490870647907544"><ele>245.0</ele><time>2026-03-29T08:48:41.992Z</time></trkpt><trkpt lat="43.20546712507144" lon="11.490908860010629"><ele>245.0</ele><time>2026-03-29T08:48:42.992Z</time></trkpt><trkpt lat="43.20555407964202" lon="11.490921897829965"><ele>245.0</ele><time>2026-03-29T08:48:43.992Z</time></trkpt><trkpt lat="43.20564014029153" lon="11.49092972272063"><ele>247.6</ele><time>2026-03-29T08:48:44.992Z</time></trkpt><trkpt lat="43.20573534188062" lon="11.490922757680895"><ele>250.2</ele><time>2026-03-29T08:48:45.992Z</time></trkpt><trkpt lat="43.205823636802066" lon="11.490885410071263"><ele>252.8</ele><time>2026-03-29T08:48:46.992Z</time></trkpt><trkpt lat="43.20591183410579" lon="11.490861985516329"><ele>255.4</ele><time>2026-03-29T08:48:47.992Z</time></trkpt><trkpt lat="43.20601196497402" lon="11.490869151196861"><ele>258.0</ele><time>2026-03-29T08:48:48.992Z</time></trkpt><trkpt lat="43.20610427018504" lon="11.490886386840701"><ele>258.0</ele><time>2026-03-29T08:48:49.992Z</time></trkpt><trkpt lat="43.20619175520257" lon="11.49090053350319"><ele>258.0</ele><time>2026-03-29T08:48:50.992Z</time></trkpt><trkpt lat="43.20627994201813" lon="11.490916958770343"><ele>258.0</ele><time>2026-03-29T08:48:51.992Z</time></trkpt><trkpt lat="43.206361900059534" lon="11.490948095194515"><ele>258.0</ele><time>2026-03-29T08:48:52.992Z</time></trkpt><trkpt lat="43.20644460879876" lon="11.490996161805354"><ele>258.0</ele><time>2026-03-29T08:48:53.992Z</time></trkpt><trkpt lat="43.20652664212174" lon="11.491054042160666"><ele>258.0</ele><time>2026-03-29T08:48:54.992Z</time></trkpt><trkpt lat="43.20659610340212" lon="11.491123311625271"><ele>257.8</ele><time>2026-03-29T08:48:55.992Z</time></trkpt><trkpt lat="43.206654191721455" lon="11.491228741010415"><ele>257.6</ele><time>2026-03-29T08:48:56.992Z</time></trkpt><trkpt lat="43.20672538094301" lon="11.49134366157617"><ele>257.4</ele><time>2026-03-29T08:48:57.992Z</time></trkpt><trkpt lat="43.206781964120644" lon="11.491475726127536"><ele>257.2</ele><time>2026-03-29T08:48:58.992Z</time></trkpt><trkpt lat="43.206826291571524" lon="11.491611409354837"><ele>257.0</ele><time>2026-03-29T08:48:59.992Z</time></trkpt><trkpt lat="43.20689053436362" lon="11.491713701313746"><ele>256.2</ele><time>2026-03-29T08:49:00.992Z</time></trkpt><trkpt lat="43.20694265516007" lon="11.491820160926096"><ele>255.39999999999998</ele><time>2026-03-29T08:49:01.992Z</time></trkpt><trkpt lat="43.207006263531476" lon="11.491930316456124"><ele>254.60000000000002</ele><time>2026-03-29T08:49:02.992Z</time></trkpt><trkpt lat="43.2070799018176" lon="11.492037709687043"><ele>253.8</ele><time>2026-03-29T08:49:03.992Z</time></trkpt><trkpt lat="43.20716850491472" lon="11.492133991883126"><ele>253.0</ele><time>2026-03-29T08:49:04.992Z</time></trkpt><trkpt lat="43.20727207458947" lon="11.492233592606716"><ele>251.75</ele><time>2026-03-29T08:49:05.992Z</time></trkpt><trkpt lat="43.207371414600246" lon="11.492354480044463"><ele>250.5</ele><time>2026-03-29T08:49:06.992Z</time></trkpt><trkpt lat="43.20747629401512" lon="11.49245186148968"><ele>249.25</ele><time>2026-03-29T08:49:07.992Z</time></trkpt><trkpt lat="43.20756916693536" lon="11.492554280003628"><ele>248.0</ele><time>2026-03-29T08:49:08.992Z</time></trkpt><trkpt lat="43.20766725899361" lon="11.492665067011375"><ele>248.0</ele><time>2026-03-29T08:49:09.992Z</time></trkpt><trkpt lat="43.20777949673735" lon="11.492771660653538"><ele>248.0</ele><time>2026-03-29T08:49:10.992Z</time></trkpt><trkpt lat="43.20789153998054" lon="11.492885687622815"><ele>248.0</ele><time>2026-03-29T08:49:11.992Z</time></trkpt><trkpt lat="43.20799880662629" lon="11.4929991884907"><ele>248.0</ele><time>2026-03-29T08:49:12.992Z</time></trkpt><trkpt lat="43.20810963561175" lon="11.493116456595859"><ele>248.5</ele><time>2026-03-29T08:49:13.992Z</time></trkpt><trkpt lat="43.208229477807365" lon="11.493225045325282"><ele>249.0</ele><time>2026-03-29T08:49:14.992Z</time></trkpt><trkpt lat="43.20834703254149" lon="11.493333846638345"><ele>249.5</ele><time>2026-03-29T08:49:15.992Z</time></trkpt><trkpt lat="43.2084629583658" lon="11.493434717591702"><ele>250.0</ele><time>2026-03-29T08:49:16.992Z</time></trkpt><trkpt lat="43.20856017923692" lon="11.493528601136996"><ele>250.0</ele><time>2026-03-29T08:49:17.992Z</time></trkpt><trkpt lat="43.20865904684458" lon="11.493603433747337"><ele>250.0</ele><time>2026-03-29T08:49:18.992Z</time></trkpt><trkpt lat="43.20874691270878" lon="11.493687880308853"><ele>250.0</ele><time>2026-03-29T08:49:19.992Z</time></trkpt><trkpt lat="43.20882572371661" lon="11.493806230408477"><ele>250.0</ele><time>2026-03-29T08:49:20.992Z</time></trkpt><trkpt lat="43.20888668798019" lon="11.493942778363408"><ele>252.25</ele><time>2026-03-29T08:49:21.992Z</time></trkpt><trkpt lat="43.208945720837605" lon="11.494101228609212"><ele>254.5</ele><time>2026-03-29T08:49:22.992Z</time></trkpt><trkpt lat="43.20900446952094" lon="11.49426846307566"><ele>256.75</ele><time>2026-03-29T08:49:23.992Z</time></trkpt><trkpt lat="43.209060095385716" lon="11.494446301686999"><ele>259.0</ele><time>2026-03-29T08:49:24.992Z</time></trkpt><trkpt lat="43.20910693946665" lon="11.494628350562751"><ele>259.5</ele><time>2026-03-29T08:49:25.992Z</time></trkpt><trkpt lat="43.20914828239212" lon="11.49481363907948"><ele>260.0</ele><time>2026-03-29T08:49:26.992Z</time></trkpt><trkpt lat="43.2091798757714" lon="11.49499147141272"><ele>260.5</ele><time>2026-03-29T08:49:27.992Z</time></trkpt><trkpt lat="43.209204900060975" lon="11.495148687423143"><ele>261.0</ele><time>2026-03-29T08:49:28.992Z</time></trkpt><trkpt lat="43.209214976961924" lon="11.495283127044164"><ele>261.0</ele><time>2026-03-29T08:49:29.992Z</time></trkpt><trkpt lat="43.209228627054465" lon="11.495384186220715"><ele>261.0</ele><time>2026-03-29T08:49:30.992Z</time></trkpt><trkpt lat="43.209249997761326" lon="11.49547823579925"><ele>261.0</ele><time>2026-03-29T08:49:31.992Z</time></trkpt><trkpt lat="43.2092770049627" lon="11.495561631256873"><ele>261.0</ele><time>2026-03-29T08:49:32.992Z</time></trkpt><trkpt lat="43.2093120481306" lon="11.495641253124377"><ele>261.0</ele><time>2026-03-29T08:49:33.992Z</time></trkpt><trkpt lat="43.20935041973744" lon="11.495730849033672"><ele>261.0</ele><time>2026-03-29T08:49:34.992Z</time></trkpt><trkpt lat="43.209399301004254" lon="11.4958174301906"><ele>261.0</ele><time>2026-03-29T08:49:35.992Z</time></trkpt><trkpt lat="43.20943509478294" lon="11.495939021948756"><ele>261.40000000000003</ele><time>2026-03-29T08:49:36.992Z</time></trkpt><trkpt lat="43.20947416685241" lon="11.49606579135244"><ele>261.8</ele><time>2026-03-29T08:49:37.992Z</time></trkpt><trkpt lat="43.209505572427595" lon="11.496191565679382"><ele>262.20000000000005</ele><time>2026-03-29T08:49:38.992Z</time></trkpt><trkpt lat="43.20954220821572" lon="11.496305909662928"><ele>262.6</ele><time>2026-03-29T08:49:39.992Z</time></trkpt><trkpt lat="43.20958970777337" lon="11.496425954377482"><ele>263.0</ele><time>2026-03-29T08:49:40.992Z</time></trkpt><trkpt lat="43.209654007194445" lon="11.496540941852803"><ele>263.4</ele><time>2026-03-29T08:49:41.992Z</time></trkpt><trkpt lat="43.20972588990756" lon="11.496646197669335"><ele>263.8</ele><time>2026-03-29T08:49:42.992Z</time></trkpt><trkpt lat="43.20980360823404" lon="11.496737239814292"><ele>264.2</ele><time>2026-03-29T08:49:43.992Z</time></trkpt><trkpt lat="43.20988858365218" lon="11.496810974249712"><ele>264.6</ele><time>2026-03-29T08:49:44.992Z</time></trkpt><trkpt lat="43.209978310383846" lon="11.496871477227893"><ele>265.0</ele><time>2026-03-29T08:49:45.992Z</time></trkpt><trkpt lat="43.21006136940203" lon="11.496927486428707"><ele>265.0</ele><time>2026-03-29T08:49:46.992Z</time></trkpt><trkpt lat="43.21015632874301" lon="11.496981188243026"><ele>265.0</ele><time>2026-03-29T08:49:47.992Z</time></trkpt><trkpt lat="43.210244136979135" lon="11.497069976142285"><ele>265.0</ele><time>2026-03-29T08:49:48.992Z</time></trkpt><trkpt lat="43.21033196249312" lon="11.497138655797906"><ele>265.0</ele><time>2026-03-29T08:49:49.992Z</time></trkpt><trkpt lat="43.21041696540349" lon="11.497203934136548"><ele>265.0</ele><time>2026-03-29T08:49:50.992Z</time></trkpt><trkpt lat="43.210496302425184" lon="11.497271866320546"><ele>264.8</ele><time>2026-03-29T08:49:51.992Z</time></trkpt><trkpt lat="43.21057842656798" lon="11.497336370615596"><ele>264.6</ele><time>2026-03-29T08:49:52.992Z</time></trkpt><trkpt lat="43.210652813428325" lon="11.497395199693026"><ele>264.4</ele><time>2026-03-29T08:49:53.992Z</time></trkpt><trkpt lat="43.21071514877564" lon="11.497463336806339"><ele>264.2</ele><time>2026-03-29T08:49:54.992Z</time></trkpt><trkpt lat="43.210771006064995" lon="11.49755092965002"><ele>264.0</ele><time>2026-03-29T08:49:55.992Z</time></trkpt><trkpt lat="43.210820831042646" lon="11.497678505015308"><ele>264.0</ele><time>2026-03-29T08:49:56.992Z</time></trkpt><trkpt lat="43.21084931690723" lon="11.497827586710281"><ele>264.0</ele><time>2026-03-29T08:49:57.992Z</time></trkpt><trkpt lat="43.210867656537125" lon="11.497963137992446"><ele>264.0</ele><time>2026-03-29T08:49:58.992Z</time></trkpt><trkpt lat="43.21088369193181" lon="11.498089089611891"><ele>264.0</ele><time>2026-03-29T08:49:59.992Z</time></trkpt><trkpt lat="43.21089888376753" lon="11.498207310973651"><ele>264.0</ele><time>2026-03-29T08:50:00.992Z</time></trkpt><trkpt lat="43.21091936537595" lon="11.49831245272785"><ele>263.1666666666667</ele><time>2026-03-29T08:50:01.992Z</time></trkpt><trkpt lat="43.210951942030725" lon="11.498411349724819"><ele>262.3333333333333</ele><time>2026-03-29T08:50:02.992Z</time></trkpt><trkpt lat="43.21100604039667" lon="11.498506397901338"><ele>261.5</ele><time>2026-03-29T08:50:03.992Z</time></trkpt><trkpt lat="43.21107820241176" lon="11.498582081991152"><ele>260.66666666666663</ele><time>2026-03-29T08:50:04.992Z</time></trkpt><trkpt lat="43.211155797228" lon="11.498639713295196"><ele>259.8333333333333</ele><time>2026-03-29T08:50:05.992Z</time></trkpt><trkpt lat="43.211234348548544" lon="11.498669366123039"><ele>259.0</ele><time>2026-03-29T08:50:06.992Z</time></trkpt><trkpt lat="43.21131387638519" lon="11.498681044320577"><ele>259.0</ele><time>2026-03-29T08:50:07.992Z</time></trkpt><trkpt lat="43.21138795477873" lon="11.498681324769487"><ele>259.0</ele><time>2026-03-29T08:50:08.992Z</time></trkpt><trkpt lat="43.21147136419435" lon="11.498693381972416"><ele>259.0</ele><time>2026-03-29T08:50:09.992Z</time></trkpt><trkpt lat="43.211553554508214" lon="11.49867933410328"><ele>259.0</ele><time>2026-03-29T08:50:10.992Z</time></trkpt><trkpt lat="43.21162971924399" lon="11.498640547242557"><ele>259.0</ele><time>2026-03-29T08:50:11.992Z</time></trkpt><trkpt lat="43.21171021005619" lon="11.498637547263542"><ele>259.0</ele><time>2026-03-29T08:50:12.992Z</time></trkpt><trkpt lat="43.211777764921585" lon="11.49861049121598"><ele>257.2</ele><time>2026-03-29T08:50:13.992Z</time></trkpt><trkpt lat="43.211889648045364" lon="11.498585995580047"><ele>255.39999999999998</ele><time>2026-03-29T08:50:15.992Z</time></trkpt><trkpt lat="43.212006126957284" lon="11.498667219140474"><ele>253.6</ele><time>2026-03-29T08:50:17.992Z</time></trkpt><trkpt lat="43.212059240284546" lon="11.498741574219354"><ele>251.8</ele><time>2026-03-29T08:50:18.992Z</time></trkpt><trkpt lat="43.212112491108044" lon="11.498828825398546"><ele>250.0</ele><time>2026-03-29T08:50:19.992Z</time></trkpt><trkpt lat="43.2121525166522" lon="11.498922546794907"><ele>249.14285714285714</ele><time>2026-03-29T08:50:20.992Z</time></trkpt><trkpt lat="43.21218024021517" lon="11.49902028564295"><ele>248.28571428571428</ele><time>2026-03-29T08:50:21.992Z</time></trkpt><trkpt lat="43.21221094125836" lon="11.499119188745224"><ele>247.42857142857142</ele><time>2026-03-29T08:50:22.992Z</time></trkpt><trkpt lat="43.21221365027441" lon="11.499225310989555"><ele>246.57142857142856</ele><time>2026-03-29T08:50:23.992Z</time></trkpt><trkpt lat="43.21218965365275" lon="11.499321305927849"><ele>245.71428571428572</ele><time>2026-03-29T08:50:24.992Z</time></trkpt><trkpt lat="43.21217655850337" lon="11.499414542014845"><ele>244.85714285714283</ele><time>2026-03-29T08:50:25.992Z</time></trkpt><trkpt lat="43.21213260760046" lon="11.499495260594161"><ele>243.99999999999997</ele><time>2026-03-29T08:50:26.992Z</time></trkpt><trkpt lat="43.212075568116724" lon="11.499555174733866"><ele>243.99999999999997</ele><time>2026-03-29T08:50:27.992Z</time></trkpt><trkpt lat="43.21199244343684" lon="11.499570017300153"><ele>244.0</ele><time>2026-03-29T08:50:28.992Z</time></trkpt><trkpt lat="43.21190379109112" lon="11.499627506621582"><ele>244.0</ele><time>2026-03-29T08:50:29.992Z</time></trkpt><trkpt lat="43.21180595964367" lon="11.49966170033224"><ele>244.0</ele><time>2026-03-29T08:50:30.992Z</time></trkpt><trkpt lat="43.21172956277527" lon="11.49969531124667"><ele>243.99999999999997</ele><time>2026-03-29T08:50:31.992Z</time></trkpt><trkpt lat="43.211662708484425" lon="11.499750370818843"><ele>244.0</ele><time>2026-03-29T08:50:32.992Z</time></trkpt><trkpt lat="43.211605321604715" lon="11.499827221514739"><ele>241.39999999999998</ele><time>2026-03-29T08:50:33.992Z</time></trkpt><trkpt lat="43.211569384150756" lon="11.499923707724632"><ele>238.79999999999998</ele><time>2026-03-29T08:50:34.992Z</time></trkpt><trkpt lat="43.211550625121625" lon="11.500036247414629"><ele>236.20000000000002</ele><time>2026-03-29T08:50:35.993Z</time></trkpt><trkpt lat="43.21152057937191" lon="11.500161227162414"><ele>233.60000000000002</ele><time>2026-03-29T08:50:36.993Z</time></trkpt><trkpt lat="43.21148042223383" lon="11.500293537588703"><ele>231.0</ele><time>2026-03-29T08:50:37.992Z</time></trkpt><trkpt lat="43.21145404959036" lon="11.500443597950465"><ele>228.60000000000002</ele><time>2026-03-29T08:50:38.992Z</time></trkpt><trkpt lat="43.211427946651234" lon="11.50059944843702"><ele>226.20000000000002</ele><time>2026-03-29T08:50:39.992Z</time></trkpt><trkpt lat="43.21140585587279" lon="11.500739199512251"><ele>223.79999999999998</ele><time>2026-03-29T08:50:40.992Z</time></trkpt><trkpt lat="43.211373296779044" lon="11.500852670816029"><ele>221.39999999999998</ele><time>2026-03-29T08:50:41.992Z</time></trkpt><trkpt lat="43.2113012671055" lon="11.500938790376972"><ele>219.0</ele><time>2026-03-29T08:50:42.992Z</time></trkpt><trkpt lat="43.2112346297513" lon="11.501026458044809"><ele>219.0</ele><time>2026-03-29T08:50:43.992Z</time></trkpt><trkpt lat="43.21113145680817" lon="11.501056956135262"><ele>219.0</ele><time>2026-03-29T08:50:44.992Z</time></trkpt><trkpt lat="43.21101254287868" lon="11.501134337838987"><ele>219.0</ele><time>2026-03-29T08:50:45.992Z</time></trkpt><trkpt lat="43.21089115739127" lon="11.501196407030763"><ele>219.0</ele><time>2026-03-29T08:50:46.992Z</time></trkpt><trkpt lat="43.21079524111841" lon="11.501283809376659"><ele>219.2</ele><time>2026-03-29T08:50:47.992Z</time></trkpt><trkpt lat="43.21070657887735" lon="11.501386804647284"><ele>219.39999999999998</ele><time>2026-03-29T08:50:48.992Z</time></trkpt><trkpt lat="43.21062865147971" lon="11.501494203564407"><ele>219.6</ele><time>2026-03-29T08:50:49.992Z</time></trkpt><trkpt lat="43.2105747924513" lon="11.50160701747368"><ele>219.8</ele><time>2026-03-29T08:50:50.992Z</time></trkpt><trkpt lat="43.2105322245675" lon="11.501734556641841"><ele>220.0</ele><time>2026-03-29T08:50:51.992Z</time></trkpt><trkpt lat="43.21048994250634" lon="11.501877285099347"><ele>219.99999999999997</ele><time>2026-03-29T08:50:52.992Z</time></trkpt><trkpt lat="43.21045177726064" lon="11.502010043657462"><ele>220.0</ele><time>2026-03-29T08:50:53.992Z</time></trkpt><trkpt lat="43.21041533436064" lon="11.502125385782918"><ele>220.0</ele><time>2026-03-29T08:50:54.992Z</time></trkpt><trkpt lat="43.21037642991069" lon="11.502225025204273"><ele>220.0</ele><time>2026-03-29T08:50:55.992Z</time></trkpt><trkpt lat="43.21033791096817" lon="11.502302528030883"><ele>219.99999999999997</ele><time>2026-03-29T08:50:56.992Z</time></trkpt><trkpt lat="43.21028093444543" lon="11.502371863393941"><ele>220.0</ele><time>2026-03-29T08:50:57.992Z</time></trkpt><trkpt lat="43.21019400215717" lon="11.502452078747867"><ele>220.75</ele><time>2026-03-29T08:50:58.992Z</time></trkpt><trkpt lat="43.210092945914475" lon="11.50254647818126"><ele>221.5</ele><time>2026-03-29T08:50:59.992Z</time></trkpt><trkpt lat="43.20999272902273" lon="11.502646996062396"><ele>222.25</ele><time>2026-03-29T08:51:00.992Z</time></trkpt><trkpt lat="43.20989456336259" lon="11.502744235191333"><ele>223.0</ele><time>2026-03-29T08:51:01.992Z</time></trkpt><trkpt lat="43.209798340944374" lon="11.50284015118995"><ele>222.0</ele><time>2026-03-29T08:51:02.992Z</time></trkpt><trkpt lat="43.20969631661069" lon="11.502947030501513"><ele>221.0</ele><time>2026-03-29T08:51:03.992Z</time></trkpt><trkpt lat="43.20959774280462" lon="11.503042992305335"><ele>220.0</ele><time>2026-03-29T08:51:04.992Z</time></trkpt><trkpt lat="43.209503584555335" lon="11.503143829510986"><ele>219.0</ele><time>2026-03-29T08:51:05.992Z</time></trkpt><trkpt lat="43.20941298524209" lon="11.503245934344903"><ele>219.0</ele><time>2026-03-29T08:51:06.992Z</time></trkpt><trkpt lat="43.20933304899984" lon="11.503351378037456"><ele>218.99999999999997</ele><time>2026-03-29T08:51:07.992Z</time></trkpt><trkpt lat="43.20925820045847" lon="11.503462476310295"><ele>218.99999999999997</ele><time>2026-03-29T08:51:08.992Z</time></trkpt><trkpt lat="43.209190319171306" lon="11.503574345008813"><ele>219.0</ele><time>2026-03-29T08:51:09.992Z</time></trkpt><trkpt lat="43.20912458713231" lon="11.503693969434323"><ele>219.0</ele><time>2026-03-29T08:51:10.992Z</time></trkpt><trkpt lat="43.20905894842786" lon="11.503817832288245"><ele>216.79999999999998</ele><time>2026-03-29T08:51:11.992Z</time></trkpt><trkpt lat="43.20899332500171" lon="11.503943271389193"><ele>214.59999999999997</ele><time>2026-03-29T08:51:12.992Z</time></trkpt><trkpt lat="43.20893316988137" lon="11.504053329089135"><ele>212.4</ele><time>2026-03-29T08:51:13.992Z</time></trkpt><trkpt lat="43.20887143889422" lon="11.50415543605321"><ele>210.2</ele><time>2026-03-29T08:51:14.992Z</time></trkpt><trkpt lat="43.20881567888113" lon="11.504248424914472"><ele>208.0</ele><time>2026-03-29T08:51:15.992Z</time></trkpt><trkpt lat="43.20876601182149" lon="11.504333304217779"><ele>208.0</ele><time>2026-03-29T08:51:16.992Z</time></trkpt><trkpt lat="43.2087125174319" lon="11.504410934046936"><ele>208.0</ele><time>2026-03-29T08:51:17.992Z</time></trkpt><trkpt lat="43.20863920770967" lon="11.504471882611497"><ele>208.0</ele><time>2026-03-29T08:51:18.992Z</time></trkpt><trkpt lat="43.208551787403195" lon="11.504512539733675"><ele>208.0</ele><time>2026-03-29T08:51:19.992Z</time></trkpt><trkpt lat="43.20844538441618" lon="11.504546855760363"><ele>208.0</ele><time>2026-03-29T08:51:20.992Z</time></trkpt><trkpt lat="43.20834393471328" lon="11.504576332813295"><ele>207.99999999999997</ele><time>2026-03-29T08:51:21.992Z</time></trkpt><trkpt lat="43.208240419238074" lon="11.504575646344009"><ele>208.0</ele><time>2026-03-29T08:51:22.992Z</time></trkpt><trkpt lat="43.20814442042074" lon="11.50458340345472"><ele>208.0</ele><time>2026-03-29T08:51:23.992Z</time></trkpt><trkpt lat="43.20805312433916" lon="11.504580887678289"><ele>208.0</ele><time>2026-03-29T08:51:24.992Z</time></trkpt><trkpt lat="43.20797841940844" lon="11.504563036753868"><ele>207.99999999999997</ele><time>2026-03-29T08:51:25.992Z</time></trkpt><trkpt lat="43.20791277738085" lon="11.504537944261253"><ele>208.0</ele><time>2026-03-29T08:51:26.992Z</time></trkpt><trkpt lat="43.2078085433607" lon="11.504508471362854"><ele>203.66666666666666</ele><time>2026-03-29T08:51:28.992Z</time></trkpt><trkpt lat="43.20775008584389" lon="11.504580127590698"><ele>199.33333333333331</ele><time>2026-03-29T08:51:30.992Z</time></trkpt><trkpt lat="43.20772415315329" lon="11.504669685333251"><ele>195.0</ele><time>2026-03-29T08:51:32.992Z</time></trkpt><trkpt lat="43.207820701314844" lon="11.50476255634992"><ele>190.66666666666666</ele><time>2026-03-29T08:51:34.992Z</time></trkpt><trkpt lat="43.207896712151424" lon="11.504809817932733"><ele>186.33333333333331</ele><time>2026-03-29T08:51:35.992Z</time></trkpt><trkpt lat="43.20797458951128" lon="11.504847443412407"><ele>182.0</ele><time>2026-03-29T08:51:36.992Z</time></trkpt><trkpt lat="43.20806659032586" lon="11.504892374972341"><ele>184.0</ele><time>2026-03-29T08:51:37.992Z</time></trkpt><trkpt lat="43.208169371326726" lon="11.50494334317441"><ele>186.0</ele><time>2026-03-29T08:51:38.992Z</time></trkpt><trkpt lat="43.20826850228905" lon="11.504970260455456"><ele>188.0</ele><time>2026-03-29T08:51:39.992Z</time></trkpt><trkpt lat="43.20835529361716" lon="11.505042374620043"><ele>190.0</ele><time>2026-03-29T08:51:40.992Z</time></trkpt><trkpt lat="43.20845587459" lon="11.505089364703608"><ele>192.0</ele><time>2026-03-29T08:51:41.992Z</time></trkpt><trkpt lat="43.20856062443803" lon="11.505087031115405"><ele>192.0</ele><time>2026-03-29T08:51:42.992Z</time></trkpt><trkpt lat="43.2086639881549" lon="11.505107230358684"><ele>192.0</ele><time>2026-03-29T08:51:43.992Z</time></trkpt><trkpt lat="43.20874988055537" lon="11.505112187530965"><ele>192.0</ele><time>2026-03-29T08:51:44.992Z</time></trkpt><trkpt lat="43.20882866689349" lon="11.505127460241122"><ele>192.0</ele><time>2026-03-29T08:51:45.992Z</time></trkpt><trkpt lat="43.20889687556933" lon="11.505164243805222"><ele>192.0</ele><time>2026-03-29T08:51:46.992Z</time></trkpt><trkpt lat="43.208968549780764" lon="11.50517860209052"><ele>192.0</ele><time>2026-03-29T08:51:47.992Z</time></trkpt><trkpt lat="43.20904869074657" lon="11.505168657448127"><ele>190.99999999999997</ele><time>2026-03-29T08:51:48.992Z</time></trkpt><trkpt lat="43.209120074112064" lon="11.505139163098015"><ele>190.0</ele><time>2026-03-29T08:51:49.992Z</time></trkpt><trkpt lat="43.2091852722963" lon="11.50510640288652"><ele>189.0</ele><time>2026-03-29T08:51:50.992Z</time></trkpt><trkpt lat="43.20925002659646" lon="11.50506261063085"><ele>188.0</ele><time>2026-03-29T08:51:51.992Z</time></trkpt><trkpt lat="43.20930559998579" lon="11.505018119091108"><ele>187.0</ele><time>2026-03-29T08:51:52.992Z</time></trkpt><trkpt lat="43.2093622776758" lon="11.504973975979658"><ele>185.99999999999997</ele><time>2026-03-29T08:51:53.991Z</time></trkpt><trkpt lat="43.20942251494093" lon="11.504944705676678"><ele>185.0</ele><time>2026-03-29T08:51:54.991Z</time></trkpt><trkpt lat="43.20948597857607" lon="11.504934240269089"><ele>185.0</ele><time>2026-03-29T08:51:55.991Z</time></trkpt><trkpt lat="43.209558171030544" lon="11.504928428401088"><ele>185.0</ele><time>2026-03-29T08:51:56.991Z</time></trkpt><trkpt lat="43.20963881430618" lon="11.504942840645503"><ele>185.0</ele><time>2026-03-29T08:51:57.991Z</time></trkpt><trkpt lat="43.209717062432524" lon="11.504983721106429"><ele>185.0</ele><time>2026-03-29T08:51:58.991Z</time></trkpt><trkpt lat="43.209795704367124" lon="11.505037518918579"><ele>185.0</ele><time>2026-03-29T08:51:59.991Z</time></trkpt><trkpt lat="43.20988246344273" lon="11.50510737725098"><ele>185.0</ele><time>2026-03-29T08:52:00.991Z</time></trkpt><trkpt lat="43.20997836378944" lon="11.505190341786339"><ele>183.4</ele><time>2026-03-29T08:52:01.991Z</time></trkpt><trkpt lat="43.21005992844059" lon="11.505270862754085"><ele>181.8</ele><time>2026-03-29T08:52:02.991Z</time></trkpt><trkpt lat="43.21014113551696" lon="11.505338249579696"><ele>180.2</ele><time>2026-03-29T08:52:03.991Z</time></trkpt><trkpt lat="43.210230035891634" lon="11.505391144085456"><ele>178.6</ele><time>2026-03-29T08:52:04.991Z</time></trkpt><trkpt lat="43.21032205056496" lon="11.505419937408691"><ele>177.0</ele><time>2026-03-29T08:52:05.991Z</time></trkpt><trkpt lat="43.21041443430426" lon="11.505431234032676"><ele>174.25</ele><time>2026-03-29T08:52:06.991Z</time></trkpt><trkpt lat="43.21050339720208" lon="11.505468949660823"><ele>171.5</ele><time>2026-03-29T08:52:07.991Z</time></trkpt><trkpt lat="43.21060684875219" lon="11.505487165654937"><ele>168.75</ele><time>2026-03-29T08:52:08.991Z</time></trkpt><trkpt lat="43.210730017377514" lon="11.505475619814865"><ele>166.0</ele><time>2026-03-29T08:52:09.991Z</time></trkpt><trkpt lat="43.21085993060663" lon="11.50543376956521"><ele>165.60000000000002</ele><time>2026-03-29T08:52:10.991Z</time></trkpt><trkpt lat="43.21097496239473" lon="11.505382185499112"><ele>165.2</ele><time>2026-03-29T08:52:11.991Z</time></trkpt><trkpt lat="43.2110732463241" lon="11.505355933378322"><ele>164.8</ele><time>2026-03-29T08:52:12.991Z</time></trkpt><trkpt lat="43.21115899787745" lon="11.505352523199797"><ele>164.39999999999998</ele><time>2026-03-29T08:52:13.991Z</time></trkpt><trkpt lat="43.211228960315985" lon="11.505391371294687"><ele>164.0</ele><time>2026-03-29T08:52:14.991Z</time></trkpt><trkpt lat="43.21129707043426" lon="11.505457408836904"><ele>164.0</ele><time>2026-03-29T08:52:15.991Z</time></trkpt><trkpt lat="43.21135251970839" lon="11.505550500636392"><ele>164.0</ele><time>2026-03-29T08:52:16.991Z</time></trkpt><trkpt lat="43.21139515793038" lon="11.505684726524718"><ele>164.0</ele><time>2026-03-29T08:52:17.991Z</time></trkpt><trkpt lat="43.211441824529985" lon="11.505849662386195"><ele>164.0</ele><time>2026-03-29T08:52:18.991Z</time></trkpt><trkpt lat="43.21150539922547" lon="11.506010578549493"><ele>164.25</ele><time>2026-03-29T08:52:19.991Z</time></trkpt><trkpt lat="43.21153947270429" lon="11.506194741827834"><ele>164.5</ele><time>2026-03-29T08:52:20.991Z</time></trkpt><trkpt lat="43.21159282507039" lon="11.506377845157774"><ele>164.75</ele><time>2026-03-29T08:52:21.991Z</time></trkpt><trkpt lat="43.21164712355229" lon="11.506562393821293"><ele>165.0</ele><time>2026-03-29T08:52:22.991Z</time></trkpt><trkpt lat="43.211703664202794" lon="11.506756535380404"><ele>165.0</ele><time>2026-03-29T08:52:23.991Z</time></trkpt><trkpt lat="43.21175921567364" lon="11.506954952516896"><ele>165.0</ele><time>2026-03-29T08:52:24.991Z</time></trkpt><trkpt lat="43.21181323779912" lon="11.507139647389888"><ele>165.0</ele><time>2026-03-29T08:52:25.991Z</time></trkpt><trkpt lat="43.21185805674323" lon="11.507293536291279"><ele>165.0</ele><time>2026-03-29T08:52:26.991Z</time></trkpt><trkpt lat="43.21189802095246" lon="11.50742233919343"><ele>164.83333333333334</ele><time>2026-03-29T08:52:27.991Z</time></trkpt><trkpt lat="43.21194132966053" lon="11.507532328687377"><ele>164.66666666666666</ele><time>2026-03-29T08:52:28.991Z</time></trkpt><trkpt lat="43.21198959210635" lon="11.507617765263292"><ele>164.5</ele><time>2026-03-29T08:52:29.991Z</time></trkpt><trkpt lat="43.21204561239311" lon="11.507690601385955"><ele>164.33333333333331</ele><time>2026-03-29T08:52:30.991Z</time></trkpt><trkpt lat="43.21212169559992" lon="11.507754460844644"><ele>164.16666666666666</ele><time>2026-03-29T08:52:31.991Z</time></trkpt><trkpt lat="43.212228607274795" lon="11.507800248964928"><ele>164.0</ele><time>2026-03-29T08:52:32.991Z</time></trkpt><trkpt lat="43.21233687331852" lon="11.507877812401746"><ele>163.6</ele><time>2026-03-29T08:52:33.991Z</time></trkpt><trkpt lat="43.21243196220717" lon="11.507949449386802"><ele>163.2</ele><time>2026-03-29T08:52:34.992Z</time></trkpt><trkpt lat="43.21250910622087" lon="11.508022682075856"><ele>162.79999999999998</ele><time>2026-03-29T08:52:35.991Z</time></trkpt><trkpt lat="43.21257532216179" lon="11.508118730909908"><ele>162.39999999999998</ele><time>2026-03-29T08:52:36.991Z</time></trkpt><trkpt lat="43.2126359375258" lon="11.508259000060562"><ele>162.0</ele><time>2026-03-29T08:52:37.992Z</time></trkpt><trkpt lat="43.21272513141159" lon="11.508416152507827"><ele>162.0</ele><time>2026-03-29T08:52:38.992Z</time></trkpt><trkpt lat="43.212793723516434" lon="11.508586135377127"><ele>162.0</ele><time>2026-03-29T08:52:39.992Z</time></trkpt><trkpt lat="43.21286746866784" lon="11.508749353248774"><ele>162.0</ele><time>2026-03-29T08:52:40.992Z</time></trkpt><trkpt lat="43.212951849195896" lon="11.508914876269602"><ele>162.0</ele><time>2026-03-29T08:52:41.992Z</time></trkpt><trkpt lat="43.213028409563755" lon="11.509080947091384"><ele>161.75</ele><time>2026-03-29T08:52:42.992Z</time></trkpt><trkpt lat="43.21310615607396" lon="11.50923943318692"><ele>161.5</ele><time>2026-03-29T08:52:43.992Z</time></trkpt><trkpt lat="43.21319087248096" lon="11.509393419980471"><ele>161.25</ele><time>2026-03-29T08:52:44.992Z</time></trkpt><trkpt lat="43.21326342445032" lon="11.509532058588853"><ele>161.0</ele><time>2026-03-29T08:52:45.992Z</time></trkpt><trkpt lat="43.213335508575256" lon="11.509642157147233"><ele>161.5</ele><time>2026-03-29T08:52:46.992Z</time></trkpt><trkpt lat="43.21341695602223" lon="11.50974544906939"><ele>162.0</ele><time>2026-03-29T08:52:47.992Z</time></trkpt><trkpt lat="43.21351733063329" lon="11.509849747504957"><ele>162.5</ele><time>2026-03-29T08:52:48.992Z</time></trkpt><trkpt lat="43.21362593529176" lon="11.509965555142298"><ele>163.0</ele><time>2026-03-29T08:52:49.992Z</time></trkpt><trkpt lat="43.21373105532673" lon="11.51009723669823"><ele>163.0</ele><time>2026-03-29T08:52:50.992Z</time></trkpt><trkpt lat="43.21383544105787" lon="11.510249840565256"><ele>163.0</ele><time>2026-03-29T08:52:51.992Z</time></trkpt><trkpt lat="43.21392618338973" lon="11.510404520113937"><ele>163.0</ele><time>2026-03-29T08:52:52.992Z</time></trkpt><trkpt lat="43.21400047045009" lon="11.510545562661887"><ele>163.0</ele><time>2026-03-29T08:52:53.992Z</time></trkpt><trkpt lat="43.21406464669765" lon="11.510667381962188"><ele>163.2</ele><time>2026-03-29T08:52:54.992Z</time></trkpt><trkpt lat="43.21410640423246" lon="11.510789365209037"><ele>163.4</ele><time>2026-03-29T08:52:55.992Z</time></trkpt><trkpt lat="43.21415995229445" lon="11.510888027887681"><ele>163.6</ele><time>2026-03-29T08:52:56.992Z</time></trkpt><trkpt lat="43.21420969714802" lon="11.511003212878542"><ele>163.79999999999998</ele><time>2026-03-29T08:52:57.992Z</time></trkpt><trkpt lat="43.21424073361473" lon="11.511138797681257"><ele>164.0</ele><time>2026-03-29T08:52:58.992Z</time></trkpt><trkpt lat="43.21424907060837" lon="11.511287746489673"><ele>164.39999999999998</ele><time>2026-03-29T08:52:59.992Z</time></trkpt><trkpt lat="43.2142303039976" lon="11.511437314720258"><ele>164.8</ele><time>2026-03-29T08:53:00.992Z</time></trkpt><trkpt lat="43.21419347873191" lon="11.511587572113537"><ele>165.2</ele><time>2026-03-29T08:53:01.992Z</time></trkpt><trkpt lat="43.21416619837794" lon="11.511724029399224"><ele>165.60000000000002</ele><time>2026-03-29T08:53:02.992Z</time></trkpt><trkpt lat="43.21416754597921" lon="11.51183357055595"><ele>166.0</ele><time>2026-03-29T08:53:03.992Z</time></trkpt><trkpt lat="43.21418827320109" lon="11.511940639738297"><ele>166.0</ele><time>2026-03-29T08:53:04.992Z</time></trkpt><trkpt lat="43.2142235170299" lon="11.512048315078536"><ele>166.0</ele><time>2026-03-29T08:53:05.992Z</time></trkpt><trkpt lat="43.2142702130128" lon="11.51216387873076"><ele>166.0</ele><time>2026-03-29T08:53:06.992Z</time></trkpt><trkpt lat="43.21432234899438" lon="11.512259554830456"><ele>166.0</ele><time>2026-03-29T08:53:07.992Z</time></trkpt><trkpt lat="43.214397227328114" lon="11.512341949314445"><ele>166.0</ele><time>2026-03-29T08:53:08.992Z</time></trkpt><trkpt lat="43.2144762937499" lon="11.512420354936271"><ele>166.5</ele><time>2026-03-29T08:53:09.992Z</time></trkpt><trkpt lat="43.2145651595699" lon="11.512498228855709"><ele>167.0</ele><time>2026-03-29T08:53:10.992Z</time></trkpt><trkpt lat="43.21466633183564" lon="11.512580028326061"><ele>167.5</ele><time>2026-03-29T08:53:11.991Z</time></trkpt><trkpt lat="43.21476910752491" lon="11.512678674662686"><ele>168.0</ele><time>2026-03-29T08:53:12.991Z</time></trkpt><trkpt lat="43.21487452253984" lon="11.512778617949442"><ele>170.5</ele><time>2026-03-29T08:53:13.991Z</time></trkpt><trkpt lat="43.21498240052738" lon="11.512885914898716"><ele>173.0</ele><time>2026-03-29T08:53:14.991Z</time></trkpt><trkpt lat="43.21508901113788" lon="11.51299597137461"><ele>175.5</ele><time>2026-03-29T08:53:15.991Z</time></trkpt><trkpt lat="43.2151885613224" lon="11.513103526972234"><ele>178.0</ele><time>2026-03-29T08:53:16.991Z</time></trkpt><trkpt lat="43.21527422578267" lon="11.513215008155932"><ele>178.4</ele><time>2026-03-29T08:53:17.991Z</time></trkpt><trkpt lat="43.215349630248674" lon="11.513335713790818"><ele>178.8</ele><time>2026-03-29T08:53:18.991Z</time></trkpt><trkpt lat="43.21541098360575" lon="11.513467960377085"><ele>179.2</ele><time>2026-03-29T08:53:19.991Z</time></trkpt><trkpt lat="43.21545576431718" lon="11.513610081712995"><ele>179.6</ele><time>2026-03-29T08:53:20.991Z</time></trkpt><trkpt lat="43.215485427897704" lon="11.51374563874278"><ele>180.0</ele><time>2026-03-29T08:53:21.991Z</time></trkpt><trkpt lat="43.21550134369864" lon="11.51386450902648"><ele>180.4</ele><time>2026-03-29T08:53:22.991Z</time></trkpt><trkpt lat="43.21551068739927" lon="11.513964112028939"><ele>180.8</ele><time>2026-03-29T08:53:23.991Z</time></trkpt><trkpt lat="43.215530496396994" lon="11.51407739914984"><ele>181.2</ele><time>2026-03-29T08:53:24.991Z</time></trkpt><trkpt lat="43.2155679111337" lon="11.514219154208334"><ele>181.6</ele><time>2026-03-29T08:53:25.991Z</time></trkpt><trkpt lat="43.21560006318677" lon="11.514381225111823"><ele>182.0</ele><time>2026-03-29T08:53:26.991Z</time></trkpt><trkpt lat="43.215661963450245" lon="11.514554021614469"><ele>179.33333333333331</ele><time>2026-03-29T08:53:27.991Z</time></trkpt><trkpt lat="43.215729648220425" lon="11.514737335422298"><ele>176.66666666666666</ele><time>2026-03-29T08:53:28.991Z</time></trkpt><trkpt lat="43.21579623259836" lon="11.51493165097823"><ele>174.0</ele><time>2026-03-29T08:53:29.991Z</time></trkpt><trkpt lat="43.21587171392486" lon="11.515141727337364"><ele>174.0</ele><time>2026-03-29T08:53:30.991Z</time></trkpt><trkpt lat="43.21594296335937" lon="11.515346098446694"><ele>174.0</ele><time>2026-03-29T08:53:31.991Z</time></trkpt><trkpt lat="43.21601921319916" lon="11.515543556846307"><ele>174.0</ele><time>2026-03-29T08:53:32.991Z</time></trkpt><trkpt lat="43.216106858434486" lon="11.51574006587288"><ele>172.0</ele><time>2026-03-29T08:53:33.991Z</time></trkpt><trkpt lat="43.216204551219" lon="11.515939198555051"><ele>170.0</ele><time>2026-03-29T08:53:34.991Z</time></trkpt><trkpt lat="43.21630056029513" lon="11.516136235300808"><ele>168.0</ele><time>2026-03-29T08:53:35.991Z</time></trkpt><trkpt lat="43.21639495330088" lon="11.516323174917448"><ele>168.25</ele><time>2026-03-29T08:53:36.991Z</time></trkpt><trkpt lat="43.21648277082158" lon="11.516496286869412"><ele>168.5</ele><time>2026-03-29T08:53:37.991Z</time></trkpt><trkpt lat="43.216569549570295" lon="11.516661037857839"><ele>168.75</ele><time>2026-03-29T08:53:38.991Z</time></trkpt><trkpt lat="43.21665034596503" lon="11.516822688851795"><ele>169.0</ele><time>2026-03-29T08:53:39.991Z</time></trkpt><trkpt lat="43.21673684912925" lon="11.517001978601096"><ele>169.33333333333334</ele><time>2026-03-29T08:53:40.991Z</time></trkpt><trkpt lat="43.216815447273184" lon="11.517177810512534"><ele>169.66666666666666</ele><time>2026-03-29T08:53:41.991Z</time></trkpt><trkpt lat="43.216890920243834" lon="11.517350883596073"><ele>170.0</ele><time>2026-03-29T08:53:42.991Z</time></trkpt><trkpt lat="43.216967844135986" lon="11.517544748345642"><ele>170.0</ele><time>2026-03-29T08:53:43.991Z</time></trkpt><trkpt lat="43.21703983048991" lon="11.517732662794963"><ele>170.0</ele><time>2026-03-29T08:53:44.991Z</time></trkpt><trkpt lat="43.217104910499565" lon="11.517916121642742"><ele>170.0</ele><time>2026-03-29T08:53:45.991Z</time></trkpt><trkpt lat="43.21717466499605" lon="11.518086755540702"><ele>170.0</ele><time>2026-03-29T08:53:46.991Z</time></trkpt><trkpt lat="43.21724076336015" lon="11.518249838863666"><ele>169.75</ele><time>2026-03-29T08:53:47.991Z</time></trkpt><trkpt lat="43.2173076998883" lon="11.518399428382722"><ele>169.5</ele><time>2026-03-29T08:53:48.991Z</time></trkpt><trkpt lat="43.21735995193019" lon="11.518547452945102"><ele>169.25</ele><time>2026-03-29T08:53:49.991Z</time></trkpt><trkpt lat="43.21739938520976" lon="11.51871328784206"><ele>169.0</ele><time>2026-03-29T08:53:50.991Z</time></trkpt><trkpt lat="43.21743187182203" lon="11.518896068175021"><ele>170.25</ele><time>2026-03-29T08:53:51.991Z</time></trkpt><trkpt lat="43.21746090042046" lon="11.519069084084096"><ele>171.5</ele><time>2026-03-29T08:53:52.991Z</time></trkpt><trkpt lat="43.2174658606761" lon="11.519248816613006"><ele>172.75</ele><time>2026-03-29T08:53:53.991Z</time></trkpt><trkpt lat="43.217456348186765" lon="11.519439171094872"><ele>174.0</ele><time>2026-03-29T08:53:54.991Z</time></trkpt><trkpt lat="43.2174359336754" lon="11.519665746520179"><ele>176.0</ele><time>2026-03-29T08:53:55.991Z</time></trkpt><trkpt lat="43.21741585924869" lon="11.519883320267589"><ele>178.0</ele><time>2026-03-29T08:53:56.991Z</time></trkpt><trkpt lat="43.21740176961147" lon="11.520089382520045"><ele>180.0</ele><time>2026-03-29T08:53:57.991Z</time></trkpt><trkpt lat="43.217392880773254" lon="11.52028789736581"><ele>181.0</ele><time>2026-03-29T08:53:58.991Z</time></trkpt><trkpt lat="43.21738255823493" lon="11.520463756836515"><ele>182.0</ele><time>2026-03-29T08:53:59.991Z</time></trkpt><trkpt lat="43.21738150224547" lon="11.520619845991208"><ele>183.0</ele><time>2026-03-29T08:54:00.991Z</time></trkpt><trkpt lat="43.217384385674" lon="11.520741266526285"><ele>184.0</ele><time>2026-03-29T08:54:01.991Z</time></trkpt><trkpt lat="43.217391730088984" lon="11.520845197473028"><ele>185.0</ele><time>2026-03-29T08:54:02.991Z</time></trkpt><trkpt lat="43.217419502334586" lon="11.52094510368788"><ele>185.0</ele><time>2026-03-29T08:54:03.991Z</time></trkpt><trkpt lat="43.21746168154013" lon="11.521049039353336"><ele>185.0</ele><time>2026-03-29T08:54:04.991Z</time></trkpt><trkpt lat="43.21752704011177" lon="11.521161392917863"><ele>185.0</ele><time>2026-03-29T08:54:05.991Z</time></trkpt><trkpt lat="43.21759277567918" lon="11.52128196970713"><ele>185.0</ele><time>2026-03-29T08:54:06.991Z</time></trkpt><trkpt lat="43.21768701278299" lon="11.521359586213826"><ele>185.0</ele><time>2026-03-29T08:54:07.991Z</time></trkpt><trkpt lat="43.21778379896101" lon="11.521430534250921"><ele>185.4</ele><time>2026-03-29T08:54:08.991Z</time></trkpt><trkpt lat="43.217898096175595" lon="11.52149290128035"><ele>185.8</ele><time>2026-03-29T08:54:09.991Z</time></trkpt><trkpt lat="43.21799699279972" lon="11.521546592633397"><ele>186.2</ele><time>2026-03-29T08:54:10.991Z</time></trkpt><trkpt lat="43.21807314751411" lon="11.521608169378485"><ele>186.6</ele><time>2026-03-29T08:54:11.991Z</time></trkpt><trkpt lat="43.21812651481858" lon="11.52168680744118"><ele>187.0</ele><time>2026-03-29T08:54:12.991Z</time></trkpt><trkpt lat="43.21816398897583" lon="11.521791679422407"><ele>187.0</ele><time>2026-03-29T08:54:13.991Z</time></trkpt><trkpt lat="43.218179700086" lon="11.521922665240993"><ele>187.0</ele><time>2026-03-29T08:54:14.991Z</time></trkpt><trkpt lat="43.218165747280835" lon="11.522078754565216"><ele>187.0</ele><time>2026-03-29T08:54:15.991Z</time></trkpt><trkpt lat="43.218199950363925" lon="11.522236206751066"><ele>187.0</ele><time>2026-03-29T08:54:16.991Z</time></trkpt><trkpt lat="43.21823665722136" lon="11.522384829988782"><ele>187.0</ele><time>2026-03-29T08:54:17.991Z</time></trkpt><trkpt lat="43.21827817636027" lon="11.522540632003146"><ele>185.25</ele><time>2026-03-29T08:54:18.991Z</time></trkpt><trkpt lat="43.21831878048433" lon="11.52269313346697"><ele>183.5</ele><time>2026-03-29T08:54:19.991Z</time></trkpt><trkpt lat="43.21836231116363" lon="11.52284485599436"><ele>181.75</ele><time>2026-03-29T08:54:20.991Z</time></trkpt><trkpt lat="43.21840977556809" lon="11.522984639236995"><ele>180.0</ele><time>2026-03-29T08:54:21.991Z</time></trkpt><trkpt lat="43.21846353284129" lon="11.523115343423541"><ele>178.0</ele><time>2026-03-29T08:54:22.991Z</time></trkpt><trkpt lat="43.21851704249288" lon="11.523263766804899"><ele>176.0</ele><time>2026-03-29T08:54:23.991Z</time></trkpt><trkpt lat="43.21861060488929" lon="11.523412396627103"><ele>174.0</ele><time>2026-03-29T08:54:24.991Z</time></trkpt><trkpt lat="43.21869290287087" lon="11.52359438013631"><ele>172.0</ele><time>2026-03-29T08:54:25.991Z</time></trkpt><trkpt lat="43.21880346440978" lon="11.523785763408029"><ele>172.0</ele><time>2026-03-29T08:54:26.991Z</time></trkpt><trkpt lat="43.21891337664301" lon="11.523977933648947"><ele>172.0</ele><time>2026-03-29T08:54:27.991Z</time></trkpt><trkpt lat="43.21902097707332" lon="11.524158658932"><ele>172.0</ele><time>2026-03-29T08:54:28.991Z</time></trkpt><trkpt lat="43.219128657649726" lon="11.524334934577512"><ele>172.0</ele><time>2026-03-29T08:54:29.991Z</time></trkpt><trkpt lat="43.21922889492222" lon="11.524499691283303"><ele>172.0</ele><time>2026-03-29T08:54:30.991Z</time></trkpt><trkpt lat="43.21932118954341" lon="11.524653515343743"><ele>172.0</ele><time>2026-03-29T08:54:31.991Z</time></trkpt><trkpt lat="43.21941347185232" lon="11.524792271367255"><ele>172.0</ele><time>2026-03-29T08:54:32.991Z</time></trkpt><trkpt lat="43.21950107681298" lon="11.524901901087144"><ele>172.2</ele><time>2026-03-29T08:54:33.991Z</time></trkpt><trkpt lat="43.21958908765649" lon="11.524981879376693"><ele>172.39999999999998</ele><time>2026-03-29T08:54:34.991Z</time></trkpt><trkpt lat="43.219674781332714" lon="11.525006517495783"><ele>172.60000000000002</ele><time>2026-03-29T08:54:35.991Z</time></trkpt><trkpt lat="43.21977434323074" lon="11.525011344307915"><ele>172.8</ele><time>2026-03-29T08:54:36.991Z</time></trkpt><trkpt lat="43.21988387525969" lon="11.524992870100322"><ele>173.0</ele><time>2026-03-29T08:54:37.991Z</time></trkpt><trkpt lat="43.219996626263246" lon="11.52494989379482"><ele>173.0</ele><time>2026-03-29T08:54:38.991Z</time></trkpt><trkpt lat="43.22011731555951" lon="11.524897813327375"><ele>173.0</ele><time>2026-03-29T08:54:39.991Z</time></trkpt><trkpt lat="43.22023222590277" lon="11.524851756198553"><ele>173.0</ele><time>2026-03-29T08:54:40.992Z</time></trkpt><trkpt lat="43.22034613160141" lon="11.524829031738692"><ele>173.0</ele><time>2026-03-29T08:54:41.992Z</time></trkpt><trkpt lat="43.22045913300683" lon="11.524841157269067"><ele>173.0</ele><time>2026-03-29T08:54:42.992Z</time></trkpt><trkpt lat="43.220577888165636" lon="11.524890675358169"><ele>173.0</ele><time>2026-03-29T08:54:43.992Z</time></trkpt><trkpt lat="43.220697559225286" lon="11.524980246195346"><ele>173.0</ele><time>2026-03-29T08:54:44.992Z</time></trkpt><trkpt lat="43.22080457558401" lon="11.525090010076958"><ele>173.0</ele><time>2026-03-29T08:54:45.992Z</time></trkpt><trkpt lat="43.22091045197408" lon="11.525177998926116"><ele>174.25</ele><time>2026-03-29T08:54:46.992Z</time></trkpt><trkpt lat="43.221030418593294" lon="11.525235156286007"><ele>175.5</ele><time>2026-03-29T08:54:47.992Z</time></trkpt><trkpt lat="43.2211674427116" lon="11.52526947681329"><ele>176.75</ele><time>2026-03-29T08:54:48.992Z</time></trkpt><trkpt lat="43.22131311122749" lon="11.525296263385057"><ele>178.0</ele><time>2026-03-29T08:54:49.992Z</time></trkpt><trkpt lat="43.22146375928066" lon="11.525325642597513"><ele>180.0</ele><time>2026-03-29T08:54:50.991Z</time></trkpt><trkpt lat="43.221621236090265" lon="11.52535886554092"><ele>182.0</ele><time>2026-03-29T08:54:51.991Z</time></trkpt><trkpt lat="43.221785568412784" lon="11.525381376778967"><ele>184.0</ele><time>2026-03-29T08:54:52.991Z</time></trkpt><trkpt lat="43.22194291842875" lon="11.525401244098346"><ele>180.75</ele><time>2026-03-29T08:54:53.992Z</time></trkpt><trkpt lat="43.22208818766593" lon="11.525421628583734"><ele>177.5</ele><time>2026-03-29T08:54:54.992Z</time></trkpt><trkpt lat="43.2222220094929" lon="11.525442518253428"><ele>174.25</ele><time>2026-03-29T08:54:55.992Z</time></trkpt><trkpt lat="43.222337311296386" lon="11.525461237551928"><ele>171.0</ele><time>2026-03-29T08:54:56.992Z</time></trkpt><trkpt lat="43.22244535379385" lon="11.525474085501559"><ele>170.5</ele><time>2026-03-29T08:54:57.992Z</time></trkpt><trkpt lat="43.22255694715333" lon="11.525474158680616"><ele>170.0</ele><time>2026-03-29T08:54:58.992Z</time></trkpt><trkpt lat="43.222674606119156" lon="11.525486723629816"><ele>169.5</ele><time>2026-03-29T08:54:59.992Z</time></trkpt><trkpt lat="43.222784075851926" lon="11.525539700537214"><ele>169.0</ele><time>2026-03-29T08:55:00.992Z</time></trkpt><trkpt lat="43.222879557069135" lon="11.525606337324875"><ele>169.0</ele><time>2026-03-29T08:55:01.992Z</time></trkpt><trkpt lat="43.22297400564547" lon="11.525710975579925"><ele>169.0</ele><time>2026-03-29T08:55:02.992Z</time></trkpt><trkpt lat="43.223059852753394" lon="11.525839363990391"><ele>169.0</ele><time>2026-03-29T08:55:03.992Z</time></trkpt><trkpt lat="43.22314561287113" lon="11.525909473615949"><ele>169.0</ele><time>2026-03-29T08:55:04.992Z</time></trkpt><trkpt lat="43.22323201026333" lon="11.525936042456424"><ele>169.0</ele><time>2026-03-29T08:55:05.992Z</time></trkpt><trkpt lat="43.223330999027496" lon="11.525953995329877"><ele>170.75</ele><time>2026-03-29T08:55:06.992Z</time></trkpt><trkpt lat="43.223451642454975" lon="11.525952675129739"><ele>172.5</ele><time>2026-03-29T08:55:07.992Z</time></trkpt><trkpt lat="43.22359283478125" lon="11.525953353193817"><ele>174.25</ele><time>2026-03-29T08:55:08.992Z</time></trkpt><trkpt lat="43.22373489650899" lon="11.525956769022098"><ele>176.0</ele><time>2026-03-29T08:55:09.992Z</time></trkpt><trkpt lat="43.22388202540931" lon="11.525981883120728"><ele>176.25</ele><time>2026-03-29T08:55:10.992Z</time></trkpt><trkpt lat="43.22402543637116" lon="11.525955908631193"><ele>176.5</ele><time>2026-03-29T08:55:11.992Z</time></trkpt><trkpt lat="43.22416349523104" lon="11.525914375602014"><ele>176.75</ele><time>2026-03-29T08:55:12.992Z</time></trkpt><trkpt lat="43.2243121114072" lon="11.52590217448904"><ele>177.0</ele><time>2026-03-29T08:55:13.992Z</time></trkpt><trkpt lat="43.22446430027557" lon="11.525945490957103"><ele>177.0</ele><time>2026-03-29T08:55:14.992Z</time></trkpt><trkpt lat="43.22462653637514" lon="11.525993838423105"><ele>177.0</ele><time>2026-03-29T08:55:15.992Z</time></trkpt><trkpt lat="43.22479244307922" lon="11.526043651032387"><ele>177.0</ele><time>2026-03-29T08:55:16.992Z</time></trkpt><trkpt lat="43.2249424454209" lon="11.526085631655118"><ele>178.0</ele><time>2026-03-29T08:55:17.992Z</time></trkpt><trkpt lat="43.22509581276797" lon="11.526105841536758"><ele>179.0</ele><time>2026-03-29T08:55:18.992Z</time></trkpt><trkpt lat="43.22525254090645" lon="11.526149655132066"><ele>180.0</ele><time>2026-03-29T08:55:19.992Z</time></trkpt><trkpt lat="43.2254066420228" lon="11.526195660864534"><ele>178.75</ele><time>2026-03-29T08:55:20.992Z</time></trkpt><trkpt lat="43.225557899235554" lon="11.526241691605051"><ele>177.5</ele><time>2026-03-29T08:55:21.992Z</time></trkpt><trkpt lat="43.22568880987027" lon="11.526308390918192"><ele>176.25</ele><time>2026-03-29T08:55:22.992Z</time></trkpt><trkpt lat="43.22580286350539" lon="11.526353112857155"><ele>175.0</ele><time>2026-03-29T08:55:23.992Z</time></trkpt><trkpt lat="43.22590394619346" lon="11.526394940001705"><ele>175.0</ele><time>2026-03-29T08:55:24.992Z</time></trkpt><trkpt lat="43.225996630215874" lon="11.526407224576918"><ele>175.0</ele><time>2026-03-29T08:55:25.992Z</time></trkpt><trkpt lat="43.22607868743069" lon="11.526390151953812"><ele>175.0</ele><time>2026-03-29T08:55:26.992Z</time></trkpt><trkpt lat="43.22616641637537" lon="11.526392750466796"><ele>175.0</ele><time>2026-03-29T08:55:27.992Z</time></trkpt><trkpt lat="43.22628742181479" lon="11.526385042637243"><ele>175.0</ele><time>2026-03-29T08:55:28.992Z</time></trkpt><trkpt lat="43.226426448695584" lon="11.526389294700348"><ele>175.5</ele><time>2026-03-29T08:55:29.992Z</time></trkpt><trkpt lat="43.226561588558866" lon="11.52638173176723"><ele>176.0</ele><time>2026-03-29T08:55:30.992Z</time></trkpt><trkpt lat="43.22667852644274" lon="11.526367066392904"><ele>176.5</ele><time>2026-03-29T08:55:31.992Z</time></trkpt><trkpt lat="43.22678390311165" lon="11.52638489515003"><ele>177.0</ele><time>2026-03-29T08:55:32.992Z</time></trkpt><trkpt lat="43.22689941275821" lon="11.526381562238814"><ele>177.0</ele><time>2026-03-29T08:55:33.992Z</time></trkpt><trkpt lat="43.227010879278396" lon="11.5263654517438"><ele>177.0</ele><time>2026-03-29T08:55:34.992Z</time></trkpt><trkpt lat="43.227113877872775" lon="11.526401133985233"><ele>177.0</ele><time>2026-03-29T08:55:35.992Z</time></trkpt><trkpt lat="43.22721291330209" lon="11.52641368195122"><ele>177.0</ele><time>2026-03-29T08:55:36.992Z</time></trkpt><trkpt lat="43.2272884312725" lon="11.526479987721315"><ele>177.0</ele><time>2026-03-29T08:55:37.992Z</time></trkpt><trkpt lat="43.227371100815674" lon="11.526573481068885"><ele>176.0</ele><time>2026-03-29T08:55:38.992Z</time></trkpt><trkpt lat="43.22748894060317" lon="11.526677332539812"><ele>175.0</ele><time>2026-03-29T08:55:39.992Z</time></trkpt><trkpt lat="43.227600676557884" lon="11.526809474986223"><ele>174.0</ele><time>2026-03-29T08:55:40.992Z</time></trkpt><trkpt lat="43.22771707968675" lon="11.526920012442364"><ele>173.0</ele><time>2026-03-29T08:55:41.992Z</time></trkpt><trkpt lat="43.22782395098112" lon="11.527021410150027"><ele>172.75</ele><time>2026-03-29T08:55:42.992Z</time></trkpt><trkpt lat="43.227922817649166" lon="11.527113439690924"><ele>172.5</ele><time>2026-03-29T08:55:43.992Z</time></trkpt><trkpt lat="43.22804167681413" lon="11.527193074260428"><ele>172.25</ele><time>2026-03-29T08:55:44.992Z</time></trkpt><trkpt lat="43.228192223699125" lon="11.527269482117115"><ele>172.0</ele><time>2026-03-29T08:55:45.992Z</time></trkpt><trkpt lat="43.228352923777905" lon="11.527341118766817"><ele>171.0</ele><time>2026-03-29T08:55:46.992Z</time></trkpt><trkpt lat="43.228493891738324" lon="11.527400326514242"><ele>170.0</ele><time>2026-03-29T08:55:47.992Z</time></trkpt><trkpt lat="43.22861330545821" lon="11.527460585907958"><ele>169.0</ele><time>2026-03-29T08:55:48.992Z</time></trkpt><trkpt lat="43.22873251417905" lon="11.527539569755046"><ele>168.0</ele><time>2026-03-29T08:55:49.992Z</time></trkpt><trkpt lat="43.228829434619364" lon="11.52767018296816"><ele>168.0</ele><time>2026-03-29T08:55:50.992Z</time></trkpt><trkpt lat="43.228954836995406" lon="11.527818627351829"><ele>168.0</ele><time>2026-03-29T08:55:51.992Z</time></trkpt><trkpt lat="43.22909690503501" lon="11.527971275847666"><ele>168.0</ele><time>2026-03-29T08:55:52.992Z</time></trkpt><trkpt lat="43.22922060476459" lon="11.528129860922531"><ele>169.2</ele><time>2026-03-29T08:55:53.992Z</time></trkpt><trkpt lat="43.2293296267036" lon="11.528255385228308"><ele>170.4</ele><time>2026-03-29T08:55:54.992Z</time></trkpt><trkpt lat="43.229415961050066" lon="11.528362835909954"><ele>171.6</ele><time>2026-03-29T08:55:55.992Z</time></trkpt><trkpt lat="43.229489021889954" lon="11.528452366089212"><ele>172.79999999999998</ele><time>2026-03-29T08:55:56.992Z</time></trkpt><trkpt lat="43.22955153946187" lon="11.528523912974867"><ele>174.0</ele><time>2026-03-29T08:55:57.992Z</time></trkpt><trkpt lat="43.229613910464636" lon="11.528583873265944"><ele>174.0</ele><time>2026-03-29T08:55:58.992Z</time></trkpt><trkpt lat="43.22970308171749" lon="11.528678772804534"><ele>174.0</ele><time>2026-03-29T08:56:00.992Z</time></trkpt><trkpt lat="43.229786648514946" lon="11.528756271388927"><ele>174.0</ele><time>2026-03-29T08:56:02.992Z</time></trkpt><trkpt lat="43.22985214148451" lon="11.528771553042498"><ele>174.0</ele><time>2026-03-29T08:56:29.992Z</time></trkpt><trkpt lat="43.22992602335661" lon="11.528817214002107"><ele>174.0</ele><time>2026-03-29T08:57:28.992Z</time></trkpt><trkpt lat="43.229994591449305" lon="11.528934735356188"><ele>174.39999999999998</ele><time>2026-03-29T08:57:30.992Z</time></trkpt><trkpt lat="43.23005153096359" lon="11.52901242647593"><ele>174.8</ele><time>2026-03-29T08:57:31.992Z</time></trkpt><trkpt lat="43.2301235960965" lon="11.529078217621514"><ele>175.2</ele><time>2026-03-29T08:57:32.992Z</time></trkpt><trkpt lat="43.23018902202401" lon="11.529171077847236"><ele>175.60000000000002</ele><time>2026-03-29T08:57:33.992Z</time></trkpt><trkpt lat="43.23027194223822" lon="11.529282314298811"><ele>176.0</ele><time>2026-03-29T08:57:34.992Z</time></trkpt><trkpt lat="43.230356121006274" lon="11.529401971450126"><ele>176.0</ele><time>2026-03-29T08:57:35.992Z</time></trkpt><trkpt lat="43.230441291137204" lon="11.52952356281548"><ele>176.0</ele><time>2026-03-29T08:57:36.992Z</time></trkpt><trkpt lat="43.23053079855767" lon="11.529649085745454"><ele>176.0</ele><time>2026-03-29T08:57:37.992Z</time></trkpt><trkpt lat="43.230636429461285" lon="11.529793504979871"><ele>176.0</ele><time>2026-03-29T08:57:38.992Z</time></trkpt><trkpt lat="43.23075083306396" lon="11.529944488999034"><ele>174.66666666666666</ele><time>2026-03-29T08:57:39.992Z</time></trkpt><trkpt lat="43.23087267458197" lon="11.530109391638106"><ele>173.33333333333334</ele><time>2026-03-29T08:57:40.992Z</time></trkpt><trkpt lat="43.230984760926304" lon="11.530255056413266"><ele>172.0</ele><time>2026-03-29T08:57:41.992Z</time></trkpt><trkpt lat="43.23107905781385" lon="11.530413851986635"><ele>171.0</ele><time>2026-03-29T08:57:42.992Z</time></trkpt><trkpt lat="43.231177395962064" lon="11.530558852158721"><ele>170.0</ele><time>2026-03-29T08:57:43.992Z</time></trkpt><trkpt lat="43.23127979278293" lon="11.530723465611503"><ele>169.0</ele><time>2026-03-29T08:57:44.992Z</time></trkpt><trkpt lat="43.23135911683665" lon="11.530940185557073"><ele>169.0</ele><time>2026-03-29T08:57:45.992Z</time></trkpt><trkpt lat="43.23142312934138" lon="11.531183397884838"><ele>169.0</ele><time>2026-03-29T08:57:46.992Z</time></trkpt><trkpt lat="43.23147515639199" lon="11.531445967418977"><ele>169.0</ele><time>2026-03-29T08:57:47.992Z</time></trkpt><trkpt lat="43.23153514312949" lon="11.531738785018142"><ele>169.33333333333334</ele><time>2026-03-29T08:57:48.992Z</time></trkpt><trkpt lat="43.23159201263669" lon="11.532019818622047"><ele>169.66666666666666</ele><time>2026-03-29T08:57:49.992Z</time></trkpt><trkpt lat="43.23164265938835" lon="11.53226920478715"><ele>170.0</ele><time>2026-03-29T08:57:50.992Z</time></trkpt><trkpt lat="43.23169577379425" lon="11.532506898252631"><ele>170.0</ele><time>2026-03-29T08:57:51.992Z</time></trkpt><trkpt lat="43.2317472110186" lon="11.532746141079416"><ele>170.0</ele><time>2026-03-29T08:57:52.992Z</time></trkpt><trkpt lat="43.231793063412226" lon="11.532982403467194"><ele>170.0</ele><time>2026-03-29T08:57:53.992Z</time></trkpt><trkpt lat="43.23183854323583" lon="11.533214249843569"><ele>170.0</ele><time>2026-03-29T08:57:54.992Z</time></trkpt><trkpt lat="43.23188453074058" lon="11.533433586761127"><ele>170.0</ele><time>2026-03-29T08:57:55.992Z</time></trkpt><trkpt lat="43.231925090397084" lon="11.533633265797892"><ele>170.0</ele><time>2026-03-29T08:57:56.991Z</time></trkpt><trkpt lat="43.23197466523461" lon="11.533822575725448"><ele>169.33333333333331</ele><time>2026-03-29T08:57:57.991Z</time></trkpt><trkpt lat="43.23203744324726" lon="11.534019755748282"><ele>168.66666666666666</ele><time>2026-03-29T08:57:58.991Z</time></trkpt><trkpt lat="43.232144877444334" lon="11.534201277248592"><ele>168.0</ele><time>2026-03-29T08:57:59.991Z</time></trkpt><trkpt lat="43.23228053248504" lon="11.534361246783435"><ele>168.66666666666666</ele><time>2026-03-29T08:58:00.991Z</time></trkpt><trkpt lat="43.23244520792672" lon="11.534499860940288"><ele>169.33333333333331</ele><time>2026-03-29T08:58:01.991Z</time></trkpt><trkpt lat="43.23262068708242" lon="11.53463540941985"><ele>170.0</ele><time>2026-03-29T08:58:02.991Z</time></trkpt><trkpt lat="43.23280222198038" lon="11.53474947053729"><ele>170.0</ele><time>2026-03-29T08:58:03.991Z</time></trkpt><trkpt lat="43.232965149763146" lon="11.53489907583096"><ele>170.0</ele><time>2026-03-29T08:58:04.991Z</time></trkpt><trkpt lat="43.23312315414542" lon="11.53502027202427"><ele>170.0</ele><time>2026-03-29T08:58:05.991Z</time></trkpt><trkpt lat="43.233278326525024" lon="11.53514013940457"><ele>169.66666666666666</ele><time>2026-03-29T08:58:06.991Z</time></trkpt><trkpt lat="43.23342563849713" lon="11.53526907462819"><ele>169.33333333333334</ele><time>2026-03-29T08:58:07.991Z</time></trkpt><trkpt lat="43.23357051634172" lon="11.535412355301295"><ele>169.0</ele><time>2026-03-29T08:58:08.991Z</time></trkpt><trkpt lat="43.23369292411211" lon="11.53561979867226"><ele>169.0</ele><time>2026-03-29T08:58:09.991Z</time></trkpt><trkpt lat="43.233822221985335" lon="11.535840305835327"><ele>169.0</ele><time>2026-03-29T08:58:10.991Z</time></trkpt><trkpt lat="43.233945829741955" lon="11.536063834940542"><ele>169.0</ele><time>2026-03-29T08:58:11.991Z</time></trkpt><trkpt lat="43.23406230169497" lon="11.536280202561422"><ele>170.0</ele><time>2026-03-29T08:58:12.991Z</time></trkpt><trkpt lat="43.23417651971318" lon="11.536493164953443"><ele>171.0</ele><time>2026-03-29T08:58:13.991Z</time></trkpt><trkpt lat="43.23428695277472" lon="11.536704247219095"><ele>172.0</ele><time>2026-03-29T08:58:14.991Z</time></trkpt><trkpt lat="43.234395020084776" lon="11.53691255160287"><ele>172.0</ele><time>2026-03-29T08:58:15.991Z</time></trkpt><trkpt lat="43.234501993224015" lon="11.53711376670196"><ele>172.0</ele><time>2026-03-29T08:58:16.991Z</time></trkpt><trkpt lat="43.234609012129276" lon="11.537311177998125"><ele>172.0</ele><time>2026-03-29T08:58:17.991Z</time></trkpt><trkpt lat="43.23471650522923" lon="11.53750755127331"><ele>172.66666666666669</ele><time>2026-03-29T08:58:18.991Z</time></trkpt><trkpt lat="43.2348221321916" lon="11.537706524037134"><ele>173.33333333333334</ele><time>2026-03-29T08:58:19.991Z</time></trkpt><trkpt lat="43.23493098162408" lon="11.537902317761858"><ele>174.0</ele><time>2026-03-29T08:58:20.991Z</time></trkpt><trkpt lat="43.2350386606642" lon="11.538102107025582"><ele>174.0</ele><time>2026-03-29T08:58:21.991Z</time></trkpt><trkpt lat="43.235146849671956" lon="11.538306584673231"><ele>174.0</ele><time>2026-03-29T08:58:22.991Z</time></trkpt><trkpt lat="43.235255286623115" lon="11.53851351393977"><ele>174.0</ele><time>2026-03-29T08:58:23.991Z</time></trkpt><trkpt lat="43.23536261288102" lon="11.538715226417288"><ele>173.66666666666666</ele><time>2026-03-29T08:58:24.991Z</time></trkpt><trkpt lat="43.23547135193515" lon="11.538907288139251"><ele>173.33333333333331</ele><time>2026-03-29T08:58:25.991Z</time></trkpt><trkpt lat="43.235578267022824" lon="11.539091453666293"><ele>173.0</ele><time>2026-03-29T08:58:26.991Z</time></trkpt><trkpt lat="43.235679090583545" lon="11.539280543581256"><ele>173.66666666666666</ele><time>2026-03-29T08:58:27.991Z</time></trkpt><trkpt lat="43.23576984993008" lon="11.539473159480387"><ele>174.33333333333334</ele><time>2026-03-29T08:58:28.991Z</time></trkpt><trkpt lat="43.23582847724305" lon="11.53967564344133"><ele>175.0</ele><time>2026-03-29T08:58:29.991Z</time></trkpt><trkpt lat="43.23585298069997" lon="11.539891648158664"><ele>175.0</ele><time>2026-03-29T08:58:30.991Z</time></trkpt><trkpt lat="43.235837306048836" lon="11.540118544226944"><ele>175.0</ele><time>2026-03-29T08:58:31.991Z</time></trkpt><trkpt lat="43.23580857644768" lon="11.540352755859246"><ele>175.0</ele><time>2026-03-29T08:58:32.991Z</time></trkpt><trkpt lat="43.23581077404952" lon="11.54057975315936"><ele>175.0</ele><time>2026-03-29T08:58:33.991Z</time></trkpt><trkpt lat="43.235800876545554" lon="11.540801115615487"><ele>175.0</ele><time>2026-03-29T08:58:34.991Z</time></trkpt><trkpt lat="43.23578993904009" lon="11.541022786528096"><ele>175.0</ele><time>2026-03-29T08:58:35.991Z</time></trkpt><trkpt lat="43.23578075666438" lon="11.541244138016575"><ele>176.33333333333334</ele><time>2026-03-29T08:58:36.991Z</time></trkpt><trkpt lat="43.235771798728194" lon="11.541466922260986"><ele>177.66666666666666</ele><time>2026-03-29T08:58:37.991Z</time></trkpt><trkpt lat="43.23576167269404" lon="11.54168821330489"><ele>179.0</ele><time>2026-03-29T08:58:38.991Z</time></trkpt><trkpt lat="43.23575187376905" lon="11.541907829189514"><ele>179.0</ele><time>2026-03-29T08:58:39.991Z</time></trkpt><trkpt lat="43.23574233655526" lon="11.542144532507429"><ele>179.0</ele><time>2026-03-29T08:58:40.991Z</time></trkpt><trkpt lat="43.235731816572276" lon="11.54240562709116"><ele>179.0</ele><time>2026-03-29T08:58:41.991Z</time></trkpt><trkpt lat="43.235721341957564" lon="11.542665131582014"><ele>178.66666666666666</ele><time>2026-03-29T08:58:42.991Z</time></trkpt><trkpt lat="43.23571097608368" lon="11.542921710574067"><ele>178.33333333333334</ele><time>2026-03-29T08:58:43.991Z</time></trkpt><trkpt lat="43.235699409350254" lon="11.543208013668854"><ele>178.0</ele><time>2026-03-29T08:58:44.991Z</time></trkpt><trkpt lat="43.23568903203533" lon="11.543464875907663"><ele>177.66666666666669</ele><time>2026-03-29T08:58:45.991Z</time></trkpt><trkpt lat="43.23567885151963" lon="11.543729019666749"><ele>177.33333333333334</ele><time>2026-03-29T08:58:46.991Z</time></trkpt><trkpt lat="43.23566907842767" lon="11.54399272165269"><ele>177.0</ele><time>2026-03-29T08:58:47.991Z</time></trkpt><trkpt lat="43.23565930508487" lon="11.544256430328744"><ele>177.0</ele><time>2026-03-29T08:58:48.991Z</time></trkpt><trkpt lat="43.23565531052441" lon="11.544496724924503"><ele>177.0</ele><time>2026-03-29T08:58:49.991Z</time></trkpt><trkpt lat="43.23565609119069" lon="11.544733906578209"><ele>177.0</ele><time>2026-03-29T08:58:50.991Z</time></trkpt><trkpt lat="43.23568321757127" lon="11.544987264350576"><ele>176.66666666666666</ele><time>2026-03-29T08:58:51.991Z</time></trkpt><trkpt lat="43.23573716060744" lon="11.545248616618691"><ele>176.33333333333331</ele><time>2026-03-29T08:58:52.991Z</time></trkpt><trkpt lat="43.235820987641276" lon="11.54550815843652"><ele>176.0</ele><time>2026-03-29T08:58:53.992Z</time></trkpt><trkpt lat="43.23592783387799" lon="11.545759006556711"><ele>176.0</ele><time>2026-03-29T08:58:54.992Z</time></trkpt><trkpt lat="43.236016977003054" lon="11.546036689845305"><ele>176.0</ele><time>2026-03-29T08:58:55.991Z</time></trkpt><trkpt lat="43.236143306159484" lon="11.54629309369917"><ele>176.0</ele><time>2026-03-29T08:58:56.992Z</time></trkpt><trkpt lat="43.2362879086635" lon="11.546529060429835"><ele>176.66666666666666</ele><time>2026-03-29T08:58:57.992Z</time></trkpt><trkpt lat="43.23642851060099" lon="11.546741141961368"><ele>177.33333333333334</ele><time>2026-03-29T08:58:58.991Z</time></trkpt><trkpt lat="43.23656375884276" lon="11.546942126402591"><ele>178.0</ele><time>2026-03-29T08:58:59.992Z</time></trkpt><trkpt lat="43.23671114277684" lon="11.547150017778426"><ele>176.66666666666669</ele><time>2026-03-29T08:59:00.992Z</time></trkpt><trkpt lat="43.23684404699602" lon="11.547312102391363"><ele>175.33333333333334</ele><time>2026-03-29T08:59:01.991Z</time></trkpt><trkpt lat="43.23696715993236" lon="11.547454154761468"><ele>174.0</ele><time>2026-03-29T08:59:02.991Z</time></trkpt><trkpt lat="43.237078973016665" lon="11.547581540494118"><ele>174.0</ele><time>2026-03-29T08:59:03.991Z</time></trkpt><trkpt lat="43.23722191010463" lon="11.547731371306455"><ele>174.0</ele><time>2026-03-29T08:59:04.991Z</time></trkpt><trkpt lat="43.237369745559995" lon="11.547892250027047"><ele>174.0</ele><time>2026-03-29T08:59:05.992Z</time></trkpt><trkpt lat="43.237502596780786" lon="11.5480549157926"><ele>174.66666666666666</ele><time>2026-03-29T08:59:06.991Z</time></trkpt><trkpt lat="43.23762985087999" lon="11.548218746373701"><ele>175.33333333333331</ele><time>2026-03-29T08:59:07.991Z</time></trkpt><trkpt lat="43.237751395208136" lon="11.548375603548504"><ele>176.0</ele><time>2026-03-29T08:59:08.991Z</time></trkpt><trkpt lat="43.23787203987546" lon="11.548534312017939"><ele>176.0</ele><time>2026-03-29T08:59:09.991Z</time></trkpt><trkpt lat="43.237992789585526" lon="11.548680038025092"><ele>176.0</ele><time>2026-03-29T08:59:10.991Z</time></trkpt><trkpt lat="43.23812621760917" lon="11.548782509708591"><ele>176.0</ele><time>2026-03-29T08:59:11.991Z</time></trkpt><trkpt lat="43.23825137949188" lon="11.548897568260715"><ele>176.0</ele><time>2026-03-29T08:59:12.991Z</time></trkpt><trkpt lat="43.238374644372996" lon="11.54900477981474"><ele>176.0</ele><time>2026-03-29T08:59:13.991Z</time></trkpt><trkpt lat="43.23849402117934" lon="11.54909916817884"><ele>176.0</ele><time>2026-03-29T08:59:14.991Z</time></trkpt><trkpt lat="43.23861602691614" lon="11.549189698059681"><ele>176.0</ele><time>2026-03-29T08:59:15.991Z</time></trkpt><trkpt lat="43.238749135039676" lon="11.549286773870481"><ele>176.0</ele><time>2026-03-29T08:59:16.991Z</time></trkpt><trkpt lat="43.238902770379894" lon="11.549401679168653"><ele>176.0</ele><time>2026-03-29T08:59:17.991Z</time></trkpt><trkpt lat="43.23906777914376" lon="11.549524746731409"><ele>176.0</ele><time>2026-03-29T08:59:18.991Z</time></trkpt><trkpt lat="43.23926626062001" lon="11.54971994565328"><ele>175.5</ele><time>2026-03-29T08:59:19.991Z</time></trkpt><trkpt lat="43.23948836826806" lon="11.549984485889931"><ele>175.0</ele><time>2026-03-29T08:59:20.991Z</time></trkpt><trkpt lat="43.23961202969208" lon="11.550149429552699"><ele>175.0</ele><time>2026-03-29T08:59:21.991Z</time></trkpt><trkpt lat="43.23972928539278" lon="11.550302640451552"><ele>175.0</ele><time>2026-03-29T08:59:22.991Z</time></trkpt><trkpt lat="43.23983234681104" lon="11.550439524370443"><ele>175.0</ele><time>2026-03-29T08:59:23.991Z</time></trkpt><trkpt lat="43.23993435556913" lon="11.550581119218029"><ele>174.5</ele><time>2026-03-29T08:59:24.991Z</time></trkpt><trkpt lat="43.240033829491516" lon="11.550725142053276"><ele>174.0</ele><time>2026-03-29T08:59:25.991Z</time></trkpt><trkpt lat="43.240135064509275" lon="11.55086832186321"><ele>173.5</ele><time>2026-03-29T08:59:26.991Z</time></trkpt><trkpt lat="43.240234653370365" lon="11.551012230225533"><ele>173.0</ele><time>2026-03-29T08:59:27.991Z</time></trkpt><trkpt lat="43.24031369342246" lon="11.55114804278788"><ele>172.66666666666666</ele><time>2026-03-29T08:59:28.991Z</time></trkpt><trkpt lat="43.24039924028242" lon="11.551236932244736"><ele>172.33333333333331</ele><time>2026-03-29T08:59:29.991Z</time></trkpt><trkpt lat="43.240465556250726" lon="11.551328300419891"><ele>172.0</ele><time>2026-03-29T08:59:30.991Z</time></trkpt><trkpt lat="43.24052925998302" lon="11.551416069519266"><ele>171.66666666666666</ele><time>2026-03-29T08:59:31.991Z</time></trkpt><trkpt lat="43.24058565894413" lon="11.551493774306774"><ele>171.33333333333334</ele><time>2026-03-29T08:59:32.991Z</time></trkpt><trkpt lat="43.24062393656041" lon="11.551565282120167"><ele>171.0</ele><time>2026-03-29T08:59:33.991Z</time></trkpt><trkpt lat="43.24077339621253" lon="11.551903855089467"><ele>171.25</ele><time>2026-03-29T08:59:34.991Z</time></trkpt><trkpt lat="43.24068971120231" lon="11.552120405905814"><ele>171.5</ele><time>2026-03-29T08:59:35.991Z</time></trkpt><trkpt lat="43.240644822838156" lon="11.55222993997799"><ele>171.75</ele><time>2026-03-29T08:59:36.991Z</time></trkpt><trkpt lat="43.240602617602875" lon="11.552342487823063"><ele>172.0</ele><time>2026-03-29T08:59:37.991Z</time></trkpt><trkpt lat="43.24051021622704" lon="11.552573938335298"><ele>172.0</ele><time>2026-03-29T08:59:38.991Z</time></trkpt><trkpt lat="43.24044867876818" lon="11.552672046286512"><ele>172.0</ele><time>2026-03-29T08:59:39.991Z</time></trkpt><trkpt lat="43.24040256489875" lon="11.552745564346049"><ele>172.0</ele><time>2026-03-29T08:59:41.991Z</time></trkpt><trkpt lat="43.24031938798351" lon="11.552878147185611"><ele>172.0</ele><time>2026-03-29T08:59:43.991Z</time></trkpt><trkpt lat="43.24027609530086" lon="11.552947068633632"><ele>172.0</ele><time>2026-03-29T08:59:44.991Z</time></trkpt><trkpt lat="43.24021094266142" lon="11.553050791278167"><ele>172.16666666666669</ele><time>2026-03-29T08:59:46.991Z</time></trkpt><trkpt lat="43.240254970717274" lon="11.553126476552736"><ele>172.33333333333334</ele><time>2026-03-29T08:59:49.991Z</time></trkpt><trkpt lat="43.24036880579756" lon="11.553114930972775"><ele>172.5</ele><time>2026-03-29T08:59:51.991Z</time></trkpt><trkpt lat="43.240421986552334" lon="11.553163601006133"><ele>172.66666666666666</ele><time>2026-03-29T08:59:52.991Z</time></trkpt><trkpt lat="43.24048697271356" lon="11.553193921392177"><ele>172.83333333333331</ele><time>2026-03-29T08:59:53.991Z</time></trkpt><trkpt lat="43.24057018253078" lon="11.553237137247738"><ele>173.0</ele><time>2026-03-29T08:59:54.991Z</time></trkpt><trkpt lat="43.240673885170615" lon="11.55327778397711"><ele>173.5</ele><time>2026-03-29T08:59:55.991Z</time></trkpt><trkpt lat="43.24077111334122" lon="11.553357455441834"><ele>174.0</ele><time>2026-03-29T08:59:56.991Z</time></trkpt><trkpt lat="43.24088466857202" lon="11.55343815616953"><ele>174.5</ele><time>2026-03-29T08:59:57.991Z</time></trkpt><trkpt lat="43.24100230784473" lon="11.553530257807699"><ele>175.0</ele><time>2026-03-29T08:59:58.991Z</time></trkpt><trkpt lat="43.24112672773391" lon="11.55363919185267"><ele>174.33333333333334</ele><time>2026-03-29T08:59:59.991Z</time></trkpt><trkpt lat="43.241287385683094" lon="11.553754358857113"><ele>173.66666666666666</ele><time>2026-03-29T09:00:00.991Z</time></trkpt><trkpt lat="43.241456192633" lon="11.553814663795569"><ele>173.0</ele><time>2026-03-29T09:00:01.991Z</time></trkpt><trkpt lat="43.241632638887005" lon="11.553830495410706"><ele>173.0</ele><time>2026-03-29T09:00:02.991Z</time></trkpt><trkpt lat="43.24142776139583" lon="11.553801013633388"><ele>173.0</ele><time>2026-03-29T09:00:03.991Z</time></trkpt><trkpt lat="43.24153115651187" lon="11.55381560347126"><ele>173.0</ele><time>2026-03-29T09:00:04.991Z</time></trkpt><trkpt lat="43.24164365879012" lon="11.553830257541986"><ele>173.0</ele><time>2026-03-29T09:00:05.991Z</time></trkpt><trkpt lat="43.24174893429049" lon="11.553823161452065"><ele>174.25</ele><time>2026-03-29T09:00:06.991Z</time></trkpt><trkpt lat="43.24186451479725" lon="11.553814530858869"><ele>175.5</ele><time>2026-03-29T09:00:07.991Z</time></trkpt><trkpt lat="43.241988277199674" lon="11.553854533485952"><ele>176.75</ele><time>2026-03-29T09:00:08.991Z</time></trkpt><trkpt lat="43.242104884063764" lon="11.553943018631205"><ele>178.0</ele><time>2026-03-29T09:00:09.991Z</time></trkpt><trkpt lat="43.24221978896136" lon="11.55403149617463"><ele>182.0</ele><time>2026-03-29T09:00:10.991Z</time></trkpt><trkpt lat="43.242347644478144" lon="11.554116505164036"><ele>186.0</ele><time>2026-03-29T09:00:11.991Z</time></trkpt><trkpt lat="43.24246594515477" lon="11.554213872723965"><ele>190.0</ele><time>2026-03-29T09:00:12.991Z</time></trkpt><trkpt lat="43.24256748629095" lon="11.5542987837177"><ele>194.0</ele><time>2026-03-29T09:00:13.991Z</time></trkpt><trkpt lat="43.24266642737428" lon="11.554380782918427"><ele>194.0</ele><time>2026-03-29T09:00:14.991Z</time></trkpt><trkpt lat="43.242775898576376" lon="11.554440568214705"><ele>194.0</ele><time>2026-03-29T09:00:15.991Z</time></trkpt><trkpt lat="43.24289539234906" lon="11.554489569967453"><ele>194.0</ele><time>2026-03-29T09:00:16.991Z</time></trkpt><trkpt lat="43.24300866267482" lon="11.554533155920547"><ele>194.0</ele><time>2026-03-29T09:00:17.991Z</time></trkpt><trkpt lat="43.24312649292088" lon="11.55454625996827"><ele>192.5</ele><time>2026-03-29T09:00:18.991Z</time></trkpt><trkpt lat="43.24325614859092" lon="11.554539217950934"><ele>191.0</ele><time>2026-03-29T09:00:19.991Z</time></trkpt><trkpt lat="43.24338674988845" lon="11.55452379211915"><ele>189.5</ele><time>2026-03-29T09:00:20.991Z</time></trkpt><trkpt lat="43.24351907103169" lon="11.554505450465095"><ele>188.0</ele><time>2026-03-29T09:00:21.991Z</time></trkpt><trkpt lat="43.243659624539745" lon="11.554484899289982"><ele>188.5</ele><time>2026-03-29T09:00:22.991Z</time></trkpt><trkpt lat="43.243800516126946" lon="11.554465180750089"><ele>189.0</ele><time>2026-03-29T09:00:23.991Z</time></trkpt><trkpt lat="43.243945275148" lon="11.554443889772568"><ele>189.5</ele><time>2026-03-29T09:00:24.991Z</time></trkpt><trkpt lat="43.24409376470893" lon="11.554419469511673"><ele>190.0</ele><time>2026-03-29T09:00:25.991Z</time></trkpt><trkpt lat="43.244248364201866" lon="11.554404213397236"><ele>190.0</ele><time>2026-03-29T09:00:26.991Z</time></trkpt><trkpt lat="43.24439594021417" lon="11.554384704263931"><ele>190.0</ele><time>2026-03-29T09:00:27.991Z</time></trkpt><trkpt lat="43.24454719784169" lon="11.554362895858777"><ele>190.0</ele><time>2026-03-29T09:00:28.991Z</time></trkpt><trkpt lat="43.24470599783147" lon="11.554348258559614"><ele>189.0</ele><time>2026-03-29T09:00:29.991Z</time></trkpt><trkpt lat="43.24485318820725" lon="11.554328298656227"><ele>188.0</ele><time>2026-03-29T09:00:30.991Z</time></trkpt><trkpt lat="43.24499283581075" lon="11.554306693412325"><ele>187.0</ele><time>2026-03-29T09:00:31.991Z</time></trkpt><trkpt lat="43.245128935732765" lon="11.554286499617257"><ele>186.0</ele><time>2026-03-29T09:00:32.991Z</time></trkpt><trkpt lat="43.245268122673934" lon="11.554260892384537"><ele>186.0</ele><time>2026-03-29T09:00:33.991Z</time></trkpt><trkpt lat="43.24541671235299" lon="11.55423646203246"><ele>186.0</ele><time>2026-03-29T09:00:34.991Z</time></trkpt><trkpt lat="43.245565608819824" lon="11.554213812873014"><ele>186.0</ele><time>2026-03-29T09:00:35.991Z</time></trkpt><trkpt lat="43.24571978128873" lon="11.554190057254404"><ele>183.75</ele><time>2026-03-29T09:00:36.991Z</time></trkpt><trkpt lat="43.24587546461805" lon="11.554168039282475"><ele>181.5</ele><time>2026-03-29T09:00:37.991Z</time></trkpt><trkpt lat="43.24602172347878" lon="11.554149930697715"><ele>179.25</ele><time>2026-03-29T09:00:38.991Z</time></trkpt><trkpt lat="43.24616104359978" lon="11.554153055585077"><ele>177.0</ele><time>2026-03-29T09:00:39.991Z</time></trkpt><trkpt lat="43.24629965059467" lon="11.554120348950432"><ele>177.0</ele><time>2026-03-29T09:00:40.991Z</time></trkpt><trkpt lat="43.24643522014462" lon="11.554115079165056"><ele>177.0</ele><time>2026-03-29T09:00:41.991Z</time></trkpt><trkpt lat="43.24656336884637" lon="11.554117622424819"><ele>177.0</ele><time>2026-03-29T09:00:42.991Z</time></trkpt><trkpt lat="43.24667595764356" lon="11.55414455404655"><ele>177.0</ele><time>2026-03-29T09:00:43.991Z</time></trkpt><trkpt lat="43.24675930477624" lon="11.554186343065977"><ele>175.75</ele><time>2026-03-29T09:00:44.991Z</time></trkpt><trkpt lat="43.24685391035987" lon="11.554250869102773"><ele>174.5</ele><time>2026-03-29T09:00:45.991Z</time></trkpt><trkpt lat="43.24696960063295" lon="11.554319413730191"><ele>173.25</ele><time>2026-03-29T09:00:46.991Z</time></trkpt><trkpt lat="43.24708738265662" lon="11.554395111379872"><ele>172.0</ele><time>2026-03-29T09:00:47.991Z</time></trkpt><trkpt lat="43.247195968592536" lon="11.55447628505525"><ele>173.75</ele><time>2026-03-29T09:00:48.991Z</time></trkpt><trkpt lat="43.24729984880377" lon="11.554562912121094"><ele>175.5</ele><time>2026-03-29T09:00:49.991Z</time></trkpt><trkpt lat="43.247405366466715" lon="11.55464258973771"><ele>177.25</ele><time>2026-03-29T09:00:50.991Z</time></trkpt><trkpt lat="43.24751681685157" lon="11.554727872399674"><ele>179.0</ele><time>2026-03-29T09:00:51.991Z</time></trkpt><trkpt lat="43.247625337785195" lon="11.554809188373996"><ele>179.0</ele><time>2026-03-29T09:00:52.991Z</time></trkpt><trkpt lat="43.24772883714271" lon="11.55488755956606"><ele>179.0</ele><time>2026-03-29T09:00:53.991Z</time></trkpt><trkpt lat="43.247812762402" lon="11.554967623756033"><ele>179.0</ele><time>2026-03-29T09:00:54.991Z</time></trkpt><trkpt lat="43.24788278708546" lon="11.555067938932776"><ele>179.0</ele><time>2026-03-29T09:00:55.991Z</time></trkpt><trkpt lat="43.24792993452232" lon="11.555168737757207"><ele>179.0</ele><time>2026-03-29T09:00:56.991Z</time></trkpt><trkpt lat="43.24797014663429" lon="11.555268710226487"><ele>179.0</ele><time>2026-03-29T09:00:57.991Z</time></trkpt><trkpt lat="43.248021136155764" lon="11.555369081985063"><ele>179.0</ele><time>2026-03-29T09:00:58.991Z</time></trkpt><trkpt lat="43.24808590297753" lon="11.555470638621445"><ele>179.0</ele><time>2026-03-29T09:00:59.991Z</time></trkpt><trkpt lat="43.24817309034125" lon="11.55556314275926"><ele>179.0</ele><time>2026-03-29T09:01:00.991Z</time></trkpt><trkpt lat="43.24827311759315" lon="11.555659743901044"><ele>179.0</ele><time>2026-03-29T09:01:01.991Z</time></trkpt><trkpt lat="43.24836036773199" lon="11.55572785091399"><ele>180.33333333333331</ele><time>2026-03-29T09:01:02.991Z</time></trkpt><trkpt lat="43.2484284270667" lon="11.5557819092368"><ele>181.66666666666666</ele><time>2026-03-29T09:01:03.991Z</time></trkpt><trkpt lat="43.248490358216856" lon="11.555830478869163"><ele>183.0</ele><time>2026-03-29T09:01:04.991Z</time></trkpt><trkpt lat="43.2485503320471" lon="11.555878552034494"><ele>184.33333333333334</ele><time>2026-03-29T09:01:05.991Z</time></trkpt><trkpt lat="43.248606721676836" lon="11.555923143289945"><ele>185.66666666666669</ele><time>2026-03-29T09:01:06.991Z</time></trkpt><trkpt lat="43.24870126798649" lon="11.556003817457484"><ele>187.0</ele><time>2026-03-29T09:01:08.991Z</time></trkpt><trkpt lat="43.24878293439998" lon="11.556045704768243"><ele>187.0</ele><time>2026-03-29T09:01:10.991Z</time></trkpt><trkpt lat="43.24885550112158" lon="11.556091690493242"><ele>187.0</ele><time>2026-03-29T09:01:13.991Z</time></trkpt><trkpt lat="43.24877747811911" lon="11.556120825278025"><ele>187.0</ele><time>2026-03-29T09:01:20.991Z</time></trkpt><trkpt lat="43.24869248676172" lon="11.55596086335036"><ele>187.0</ele><time>2026-03-29T09:01:21.991Z</time></trkpt><trkpt lat="43.24862250128684" lon="11.555914247459642"><ele>187.0</ele><time>2026-03-29T09:01:22.991Z</time></trkpt><trkpt lat="43.248569084395854" lon="11.555856841638485"><ele>187.0</ele><time>2026-03-29T09:01:23.991Z</time></trkpt><trkpt lat="43.24847092688212" lon="11.555776506300287"><ele>187.0</ele><time>2026-03-29T09:01:25.991Z</time></trkpt><trkpt lat="43.24841062056557" lon="11.555725252511037"><ele>187.0</ele><time>2026-03-29T09:01:26.991Z</time></trkpt><trkpt lat="43.24834530671451" lon="11.555673485604238"><ele>187.0</ele><time>2026-03-29T09:01:27.991Z</time></trkpt><trkpt lat="43.248274133552755" lon="11.555613587341496"><ele>187.0</ele><time>2026-03-29T09:01:28.991Z</time></trkpt><trkpt lat="43.24820691758577" lon="11.555553503663843"><ele>187.0</ele><time>2026-03-29T09:01:29.991Z</time></trkpt><trkpt lat="43.24815317032523" lon="11.555493585147186"><ele>185.85714285714286</ele><time>2026-03-29T09:01:30.991Z</time></trkpt><trkpt lat="43.24810596462174" lon="11.55543611930145"><ele>184.71428571428572</ele><time>2026-03-29T09:01:31.991Z</time></trkpt><trkpt lat="43.24805346998667" lon="11.555364700572708"><ele>183.57142857142858</ele><time>2026-03-29T09:01:32.991Z</time></trkpt><trkpt lat="43.24800941394497" lon="11.55529768169505"><ele>182.42857142857144</ele><time>2026-03-29T09:01:33.991Z</time></trkpt><trkpt lat="43.247953248757874" lon="11.555210159674484"><ele>181.28571428571428</ele><time>2026-03-29T09:01:35.991Z</time></trkpt><trkpt lat="43.24791045940593" lon="11.555122697314474"><ele>180.14285714285717</ele><time>2026-03-29T09:01:38.991Z</time></trkpt><trkpt lat="43.24787409890405" lon="11.555032584082927"><ele>179.0</ele><time>2026-03-29T09:01:41.991Z</time></trkpt><trkpt lat="43.24794466013113" lon="11.555186489027257"><ele>179.0</ele><time>2026-03-29T09:02:17.991Z</time></trkpt><trkpt lat="43.24799873780225" lon="11.555287075808211"><ele>179.0</ele><time>2026-03-29T09:02:18.991Z</time></trkpt><trkpt lat="43.24804854494812" lon="11.55537228394577"><ele>179.0</ele><time>2026-03-29T09:02:19.99Z</time></trkpt><trkpt lat="43.24810263715029" lon="11.555442995535195"><ele>179.0</ele><time>2026-03-29T09:02:20.99Z</time></trkpt><trkpt lat="43.24817561785914" lon="11.555553267419969"><ele>179.0</ele><time>2026-03-29T09:02:22.99Z</time></trkpt><trkpt lat="43.24823112330539" lon="11.555609291788146"><ele>179.0</ele><time>2026-03-29T09:02:24.99Z</time></trkpt><trkpt lat="43.24829178127624" lon="11.555661226660394"><ele>180.33333333333331</ele><time>2026-03-29T09:03:06.991Z</time></trkpt><trkpt lat="43.24835630636213" lon="11.555711592573772"><ele>181.66666666666666</ele><time>2026-03-29T09:03:08.991Z</time></trkpt><trkpt lat="43.24841201804678" lon="11.55577462744278"><ele>183.0</ele><time>2026-03-29T09:03:10.991Z</time></trkpt><trkpt lat="43.24849154256786" lon="11.555838018230254"><ele>184.33333333333334</ele><time>2026-03-29T09:03:12.991Z</time></trkpt><trkpt lat="43.24855917317427" lon="11.555885041004558"><ele>185.66666666666669</ele><time>2026-03-29T09:03:13.991Z</time></trkpt><trkpt lat="43.24864526059889" lon="11.555944144238792"><ele>187.0</ele><time>2026-03-29T09:03:14.991Z</time></trkpt><trkpt lat="43.24872464277562" lon="11.556021131372708"><ele>187.0</ele><time>2026-03-29T09:03:15.991Z</time></trkpt><trkpt lat="43.24882321683069" lon="11.556064036484607"><ele>187.0</ele><time>2026-03-29T09:03:16.99Z</time></trkpt><trkpt lat="43.248935392786585" lon="11.556110873903863"><ele>187.0</ele><time>2026-03-29T09:03:17.99Z</time></trkpt><trkpt lat="43.2490623518436" lon="11.556102609385306"><ele>187.0</ele><time>2026-03-29T09:03:18.99Z</time></trkpt><trkpt lat="43.249187116069116" lon="11.556063905481382"><ele>189.25</ele><time>2026-03-29T09:03:19.99Z</time></trkpt><trkpt lat="43.24931910506714" lon="11.556064463397211"><ele>191.5</ele><time>2026-03-29T09:03:20.99Z</time></trkpt><trkpt lat="43.249447360436235" lon="11.556041682673238"><ele>193.75</ele><time>2026-03-29T09:03:21.99Z</time></trkpt><trkpt lat="43.24956553498066" lon="11.556021689774617"><ele>196.0</ele><time>2026-03-29T09:03:22.99Z</time></trkpt><trkpt lat="43.24967750382188" lon="11.556006719778912"><ele>196.75</ele><time>2026-03-29T09:03:23.99Z</time></trkpt><trkpt lat="43.24979379824826" lon="11.555989044457077"><ele>197.5</ele><time>2026-03-29T09:03:24.99Z</time></trkpt><trkpt lat="43.24991000300548" lon="11.555969846955035"><ele>198.25</ele><time>2026-03-29T09:03:25.99Z</time></trkpt><trkpt lat="43.250017225126506" lon="11.555931644228977"><ele>199.0</ele><time>2026-03-29T09:03:26.99Z</time></trkpt><trkpt lat="43.25013029042611" lon="11.555892906931472"><ele>199.0</ele><time>2026-03-29T09:03:27.99Z</time></trkpt><trkpt lat="43.25022847061084" lon="11.55578928271945"><ele>199.0</ele><time>2026-03-29T09:03:28.99Z</time></trkpt><trkpt lat="43.25034063357206" lon="11.555696081934085"><ele>199.0</ele><time>2026-03-29T09:03:29.99Z</time></trkpt><trkpt lat="43.25044833032069" lon="11.555589152949558"><ele>199.0</ele><time>2026-03-29T09:03:30.99Z</time></trkpt><trkpt lat="43.250563972162404" lon="11.555458357775306"><ele>203.0</ele><time>2026-03-29T09:03:31.99Z</time></trkpt><trkpt lat="43.25069117822963" lon="11.555343786353262"><ele>207.0</ele><time>2026-03-29T09:03:32.99Z</time></trkpt><trkpt lat="43.2507983496045" lon="11.555223480064823"><ele>211.0</ele><time>2026-03-29T09:03:33.99Z</time></trkpt><trkpt lat="43.25091020487994" lon="11.555111259444171"><ele>215.0</ele><time>2026-03-29T09:03:34.99Z</time></trkpt><trkpt lat="43.25103020243007" lon="11.55501610503803"><ele>215.0</ele><time>2026-03-29T09:03:35.99Z</time></trkpt><trkpt lat="43.251157589456135" lon="11.554935213905116"><ele>215.0</ele><time>2026-03-29T09:03:36.99Z</time></trkpt><trkpt lat="43.25129424334759" lon="11.55487465446459"><ele>215.0</ele><time>2026-03-29T09:03:37.99Z</time></trkpt><trkpt lat="43.251446356780015" lon="11.554811160485357"><ele>215.0</ele><time>2026-03-29T09:03:38.99Z</time></trkpt><trkpt lat="43.25159831408671" lon="11.554760849216473"><ele>214.5</ele><time>2026-03-29T09:03:39.99Z</time></trkpt><trkpt lat="43.251737925928" lon="11.554706272883898"><ele>214.0</ele><time>2026-03-29T09:03:40.99Z</time></trkpt><trkpt lat="43.25186661131454" lon="11.55466540929617"><ele>213.5</ele><time>2026-03-29T09:03:41.99Z</time></trkpt><trkpt lat="43.25197644048059" lon="11.55463626568108"><ele>213.0</ele><time>2026-03-29T09:03:42.99Z</time></trkpt><trkpt lat="43.25206905274214" lon="11.554617690481052"><ele>213.0</ele><time>2026-03-29T09:03:43.99Z</time></trkpt><trkpt lat="43.252169206691455" lon="11.554617733254101"><ele>213.0</ele><time>2026-03-29T09:03:44.99Z</time></trkpt><trkpt lat="43.252283669565706" lon="11.554642614844282"><ele>213.0</ele><time>2026-03-29T09:03:45.99Z</time></trkpt><trkpt lat="43.252400545916835" lon="11.554678367872949"><ele>213.0</ele><time>2026-03-29T09:03:46.99Z</time></trkpt><trkpt lat="43.252536893203086" lon="11.554713044232491"><ele>213.25</ele><time>2026-03-29T09:03:47.99Z</time></trkpt><trkpt lat="43.252668340865426" lon="11.554719928619239"><ele>213.5</ele><time>2026-03-29T09:03:48.99Z</time></trkpt><trkpt lat="43.252809159283984" lon="11.554731228428425"><ele>213.75</ele><time>2026-03-29T09:03:49.99Z</time></trkpt><trkpt lat="43.25295489979473" lon="11.554709413217237"><ele>214.0</ele><time>2026-03-29T09:03:50.99Z</time></trkpt><trkpt lat="43.25310594469008" lon="11.55467136906981"><ele>216.0</ele><time>2026-03-29T09:03:51.99Z</time></trkpt><trkpt lat="43.25325166304342" lon="11.554606348310136"><ele>218.0</ele><time>2026-03-29T09:03:52.99Z</time></trkpt><trkpt lat="43.25337894125927" lon="11.55453412419948"><ele>220.0</ele><time>2026-03-29T09:03:53.99Z</time></trkpt><trkpt lat="43.253484012412635" lon="11.554434865980449"><ele>222.0</ele><time>2026-03-29T09:03:54.99Z</time></trkpt><trkpt lat="43.25359178877691" lon="11.554355949559953"><ele>224.0</ele><time>2026-03-29T09:03:55.99Z</time></trkpt><trkpt lat="43.25369221981033" lon="11.554297804683149"><ele>226.0</ele><time>2026-03-29T09:03:56.99Z</time></trkpt><trkpt lat="43.25377730462829" lon="11.554220093490772"><ele>228.0</ele><time>2026-03-29T09:03:57.99Z</time></trkpt><trkpt lat="43.25386246545465" lon="11.554121955889515"><ele>230.0</ele><time>2026-03-29T09:03:58.99Z</time></trkpt><trkpt lat="43.253960130509505" lon="11.554018891988111"><ele>232.0</ele><time>2026-03-29T09:03:59.99Z</time></trkpt><trkpt lat="43.25402537123312" lon="11.553859011451523"><ele>235.25</ele><time>2026-03-29T09:04:00.99Z</time></trkpt><trkpt lat="43.25406426845446" lon="11.553684844750569"><ele>238.5</ele><time>2026-03-29T09:04:01.99Z</time></trkpt><trkpt lat="43.25406791953628" lon="11.553502324790498"><ele>241.75</ele><time>2026-03-29T09:04:02.99Z</time></trkpt><trkpt lat="43.254077734173926" lon="11.553333891357553"><ele>245.0</ele><time>2026-03-29T09:04:03.99Z</time></trkpt><trkpt lat="43.25412384230555" lon="11.5531946232084"><ele>245.0</ele><time>2026-03-29T09:04:04.99Z</time></trkpt><trkpt lat="43.254160237237635" lon="11.553068183806854"><ele>245.0</ele><time>2026-03-29T09:04:05.99Z</time></trkpt><trkpt lat="43.25423075180538" lon="11.552989131554488"><ele>245.0</ele><time>2026-03-29T09:04:06.99Z</time></trkpt><trkpt lat="43.2543190859474" lon="11.552969165869477"><ele>245.0</ele><time>2026-03-29T09:04:07.99Z</time></trkpt><trkpt lat="43.25439745153341" lon="11.55295438149936"><ele>245.0</ele><time>2026-03-29T09:04:08.99Z</time></trkpt><trkpt lat="43.25449532818849" lon="11.552923571959663"><ele>245.0</ele><time>2026-03-29T09:04:09.99Z</time></trkpt><trkpt lat="43.25461319643091" lon="11.55292820695324"><ele>245.0</ele><time>2026-03-29T09:04:10.99Z</time></trkpt><trkpt lat="43.254759710477146" lon="11.552922303429662"><ele>245.0</ele><time>2026-03-29T09:04:11.99Z</time></trkpt><trkpt lat="43.25491281533527" lon="11.552912062679349"><ele>245.0</ele><time>2026-03-29T09:04:12.99Z</time></trkpt><trkpt lat="43.25504872521656" lon="11.55290604040404"><ele>245.75</ele><time>2026-03-29T09:04:13.99Z</time></trkpt><trkpt lat="43.25516751162543" lon="11.552899110238448"><ele>246.5</ele><time>2026-03-29T09:04:14.99Z</time></trkpt><trkpt lat="43.25528573022236" lon="11.5528973270596"><ele>247.25</ele><time>2026-03-29T09:04:15.99Z</time></trkpt><trkpt lat="43.25540788263724" lon="11.552899386355538"><ele>248.0</ele><time>2026-03-29T09:04:16.99Z</time></trkpt><trkpt lat="43.255534004774645" lon="11.552917543451306"><ele>249.0</ele><time>2026-03-29T09:04:17.99Z</time></trkpt><trkpt lat="43.25565868847771" lon="11.552963878743235"><ele>250.0</ele><time>2026-03-29T09:04:18.99Z</time></trkpt><trkpt lat="43.255786163175124" lon="11.553052810456135"><ele>251.0</ele><time>2026-03-29T09:04:19.99Z</time></trkpt><trkpt lat="43.25593423359416" lon="11.553127199663676"><ele>252.0</ele><time>2026-03-29T09:04:20.99Z</time></trkpt><trkpt lat="43.25608622905611" lon="11.553226837708321"><ele>252.0</ele><time>2026-03-29T09:04:21.99Z</time></trkpt><trkpt lat="43.25622185225017" lon="11.553315254282133"><ele>252.0</ele><time>2026-03-29T09:04:22.99Z</time></trkpt><trkpt lat="43.2563405629113" lon="11.55342123612043"><ele>252.0</ele><time>2026-03-29T09:04:23.99Z</time></trkpt><trkpt lat="43.256459064626874" lon="11.553501003052935"><ele>252.0</ele><time>2026-03-29T09:04:24.99Z</time></trkpt><trkpt lat="43.25657280332251" lon="11.553575436862557"><ele>251.75</ele><time>2026-03-29T09:04:25.99Z</time></trkpt><trkpt lat="43.25668762105882" lon="11.553646974153667"><ele>251.5</ele><time>2026-03-29T09:04:26.99Z</time></trkpt><trkpt lat="43.25681267334857" lon="11.55370306173308"><ele>251.25</ele><time>2026-03-29T09:04:27.99Z</time></trkpt><trkpt lat="43.25695520801923" lon="11.553733701746031"><ele>251.0</ele><time>2026-03-29T09:04:28.99Z</time></trkpt><trkpt lat="43.257104974027214" lon="11.55372598933819"><ele>251.0</ele><time>2026-03-29T09:04:29.99Z</time></trkpt><trkpt lat="43.257255518087526" lon="11.553689734572862"><ele>251.0</ele><time>2026-03-29T09:04:30.99Z</time></trkpt><trkpt lat="43.2574093270639" lon="11.55364235586328"><ele>251.0</ele><time>2026-03-29T09:04:31.99Z</time></trkpt><trkpt lat="43.25755207638856" lon="11.553587554288828"><ele>251.25</ele><time>2026-03-29T09:04:32.99Z</time></trkpt><trkpt lat="43.25769362208547" lon="11.553524576581122"><ele>251.5</ele><time>2026-03-29T09:04:33.99Z</time></trkpt><trkpt lat="43.2578363920224" lon="11.553452561328507"><ele>251.75</ele><time>2026-03-29T09:04:34.99Z</time></trkpt><trkpt lat="43.257964229261056" lon="11.553385650457338"><ele>252.0</ele><time>2026-03-29T09:04:35.99Z</time></trkpt><trkpt lat="43.2580946870996" lon="11.55333027419789"><ele>252.0</ele><time>2026-03-29T09:04:36.99Z</time></trkpt><trkpt lat="43.25823232116111" lon="11.553293978515663"><ele>252.0</ele><time>2026-03-29T09:04:37.99Z</time></trkpt><trkpt lat="43.25836613802823" lon="11.553263073436192"><ele>252.0</ele><time>2026-03-29T09:04:38.99Z</time></trkpt><trkpt lat="43.25849426875507" lon="11.55323348156309"><ele>252.0</ele><time>2026-03-29T09:04:39.99Z</time></trkpt><trkpt lat="43.25862327904424" lon="11.553203686534875"><ele>252.0</ele><time>2026-03-29T09:04:40.99Z</time></trkpt><trkpt lat="43.25875240408137" lon="11.55316387866316"><ele>252.0</ele><time>2026-03-29T09:04:41.99Z</time></trkpt><trkpt lat="43.258875208140275" lon="11.553114654519836"><ele>252.0</ele><time>2026-03-29T09:04:42.99Z</time></trkpt><trkpt lat="43.25899714982177" lon="11.55303824579904"><ele>252.0</ele><time>2026-03-29T09:04:43.99Z</time></trkpt><trkpt lat="43.259112767237085" lon="11.552938106557413"><ele>250.0</ele><time>2026-03-29T09:04:44.99Z</time></trkpt><trkpt lat="43.25923232143545" lon="11.552809006066365"><ele>248.0</ele><time>2026-03-29T09:04:45.99Z</time></trkpt><trkpt lat="43.25934991429208" lon="11.552662710536287"><ele>246.0</ele><time>2026-03-29T09:04:46.99Z</time></trkpt><trkpt lat="43.25944137154589" lon="11.552501200723214"><ele>246.0</ele><time>2026-03-29T09:04:47.99Z</time></trkpt><trkpt lat="43.259503537962196" lon="11.552334152764724"><ele>246.0</ele><time>2026-03-29T09:04:48.99Z</time></trkpt><trkpt lat="43.25953529426903" lon="11.55216564983423"><ele>246.0</ele><time>2026-03-29T09:04:49.99Z</time></trkpt><trkpt lat="43.259583582147286" lon="11.552021827489469"><ele>246.0</ele><time>2026-03-29T09:04:50.99Z</time></trkpt><trkpt lat="43.25960539419997" lon="11.55189876889417"><ele>246.0</ele><time>2026-03-29T09:04:51.99Z</time></trkpt><trkpt lat="43.25962873699696" lon="11.551780600711236"><ele>246.0</ele><time>2026-03-29T09:04:52.99Z</time></trkpt><trkpt lat="43.25964930470917" lon="11.551673182135609"><ele>246.0</ele><time>2026-03-29T09:04:53.99Z</time></trkpt><trkpt lat="43.25968901785495" lon="11.551551577244481"><ele>246.0</ele><time>2026-03-29T09:04:55.99Z</time></trkpt><trkpt lat="43.25970978916571" lon="11.551443136372155"><ele>246.0</ele><time>2026-03-29T09:05:01.99Z</time></trkpt><trkpt lat="43.25972955726568" lon="11.551357640173721"><ele>246.0</ele><time>2026-03-29T09:05:03.99Z</time></trkpt><trkpt lat="43.259748132945276" lon="11.551262679041177"><ele>246.4</ele><time>2026-03-29T09:05:05.99Z</time></trkpt><trkpt lat="43.25980876740603" lon="11.55114195867431"><ele>246.8</ele><time>2026-03-29T09:05:07.99Z</time></trkpt><trkpt lat="43.25985110991865" lon="11.551047911874464"><ele>247.20000000000002</ele><time>2026-03-29T09:05:08.99Z</time></trkpt><trkpt lat="43.259905104941005" lon="11.550938011181474"><ele>247.60000000000002</ele><time>2026-03-29T09:05:09.991Z</time></trkpt><trkpt lat="43.25995431046877" lon="11.550818245891985"><ele>248.0</ele><time>2026-03-29T09:05:10.99Z</time></trkpt><trkpt lat="43.26002032933124" lon="11.550703751307562"><ele>248.0</ele><time>2026-03-29T09:05:11.99Z</time></trkpt><trkpt lat="43.26008686810393" lon="11.550581462034959"><ele>248.0</ele><time>2026-03-29T09:05:12.99Z</time></trkpt><trkpt lat="43.26015967166713" lon="11.550455284259742"><ele>248.0</ele><time>2026-03-29T09:05:13.991Z</time></trkpt><trkpt lat="43.26023868590951" lon="11.550333741643442"><ele>248.0</ele><time>2026-03-29T09:05:14.991Z</time></trkpt><trkpt lat="43.260316971370585" lon="11.550221338320794"><ele>246.25</ele><time>2026-03-29T09:05:15.99Z</time></trkpt><trkpt lat="43.260397279327044" lon="11.550128551793764"><ele>244.5</ele><time>2026-03-29T09:05:16.991Z</time></trkpt><trkpt lat="43.260497419130985" lon="11.550055271048421"><ele>242.75</ele><time>2026-03-29T09:05:17.991Z</time></trkpt><trkpt lat="43.26062725808678" lon="11.549994719521285"><ele>241.0</ele><time>2026-03-29T09:05:18.991Z</time></trkpt><trkpt lat="43.26077455456583" lon="11.549948167225997"><ele>238.33333333333331</ele><time>2026-03-29T09:05:19.99Z</time></trkpt><trkpt lat="43.260932325315316" lon="11.549928281859188"><ele>235.66666666666669</ele><time>2026-03-29T09:05:20.99Z</time></trkpt><trkpt lat="43.261093702771994" lon="11.549976140931449"><ele>233.0</ele><time>2026-03-29T09:05:21.99Z</time></trkpt><trkpt lat="43.2612451625724" lon="11.54999809573188"><ele>233.0</ele><time>2026-03-29T09:05:22.99Z</time></trkpt><trkpt lat="43.261395800736864" lon="11.549974357445997"><ele>233.0</ele><time>2026-03-29T09:05:23.99Z</time></trkpt><trkpt lat="43.26155858530772" lon="11.549940880559028"><ele>233.0</ele><time>2026-03-29T09:05:24.99Z</time></trkpt><trkpt lat="43.26172370194804" lon="11.549902200750905"><ele>233.66666666666669</ele><time>2026-03-29T09:05:25.99Z</time></trkpt><trkpt lat="43.26187030828804" lon="11.549792866338318"><ele>234.33333333333331</ele><time>2026-03-29T09:05:26.99Z</time></trkpt><trkpt lat="43.26200533828594" lon="11.549673594520268"><ele>235.0</ele><time>2026-03-29T09:05:27.99Z</time></trkpt><trkpt lat="43.2621538985532" lon="11.549539005126368"><ele>238.66666666666666</ele><time>2026-03-29T09:05:28.99Z</time></trkpt><trkpt lat="43.2622887200675" lon="11.549376588771006"><ele>242.33333333333331</ele><time>2026-03-29T09:05:29.99Z</time></trkpt><trkpt lat="43.26242088908802" lon="11.549208591803001"><ele>246.0</ele><time>2026-03-29T09:05:30.99Z</time></trkpt><trkpt lat="43.26255012501242" lon="11.549017594162832"><ele>246.0</ele><time>2026-03-29T09:05:31.99Z</time></trkpt><trkpt lat="43.2626531411988" lon="11.548795322260274"><ele>246.0</ele><time>2026-03-29T09:05:32.99Z</time></trkpt><trkpt lat="43.263003364797726" lon="11.548194313558193"><ele>248.0</ele><time>2026-03-29T09:05:35.99Z</time></trkpt><trkpt lat="43.263062528202965" lon="11.54803349366093"><ele>250.0</ele><time>2026-03-29T09:05:36.99Z</time></trkpt><trkpt lat="43.263130461303014" lon="11.547850879733222"><ele>252.0</ele><time>2026-03-29T09:05:37.99Z</time></trkpt><trkpt lat="43.26318398415102" lon="11.547685973703002"><ele>254.0</ele><time>2026-03-29T09:05:38.99Z</time></trkpt><trkpt lat="43.26325547338723" lon="11.547530120201987"><ele>256.5</ele><time>2026-03-29T09:05:39.99Z</time></trkpt><trkpt lat="43.26334466769284" lon="11.547383563166793"><ele>259.0</ele><time>2026-03-29T09:05:40.99Z</time></trkpt><trkpt lat="43.26343475764683" lon="11.54726221041202"><ele>261.5</ele><time>2026-03-29T09:05:41.99Z</time></trkpt><trkpt lat="43.26353462465325" lon="11.54716054959591"><ele>264.0</ele><time>2026-03-29T09:05:42.99Z</time></trkpt><trkpt lat="43.26364997086683" lon="11.547054156213582"><ele>264.0</ele><time>2026-03-29T09:05:43.99Z</time></trkpt><trkpt lat="43.26377214174415" lon="11.54694566699601"><ele>264.0</ele><time>2026-03-29T09:05:44.99Z</time></trkpt><trkpt lat="43.26388441247741" lon="11.546831849507779"><ele>264.0</ele><time>2026-03-29T09:05:45.99Z</time></trkpt><trkpt lat="43.26399386624922" lon="11.54672828803965"><ele>264.0</ele><time>2026-03-29T09:05:46.99Z</time></trkpt><trkpt lat="43.264092491024044" lon="11.546633671558233"><ele>264.0</ele><time>2026-03-29T09:05:47.99Z</time></trkpt><trkpt lat="43.26417797463803" lon="11.546546549988795"><ele>264.0</ele><time>2026-03-29T09:05:48.99Z</time></trkpt><trkpt lat="43.26425233589692" lon="11.546454427288376"><ele>264.0</ele><time>2026-03-29T09:05:49.99Z</time></trkpt><trkpt lat="43.2643187690888" lon="11.546355852202186"><ele>264.0</ele><time>2026-03-29T09:05:50.99Z</time></trkpt><trkpt lat="43.26439078303502" lon="11.546230114297078"><ele>264.0</ele><time>2026-03-29T09:05:51.99Z</time></trkpt><trkpt lat="43.26445240598938" lon="11.546057423670682"><ele>268.0</ele><time>2026-03-29T09:05:52.99Z</time></trkpt><trkpt lat="43.26450417082055" lon="11.545862284862862"><ele>272.0</ele><time>2026-03-29T09:05:53.99Z</time></trkpt><trkpt lat="43.26454565530575" lon="11.545654919706024"><ele>276.0</ele><time>2026-03-29T09:05:54.99Z</time></trkpt><trkpt lat="43.26457422146815" lon="11.54544971349688"><ele>276.25</ele><time>2026-03-29T09:05:55.99Z</time></trkpt><trkpt lat="43.264618555604464" lon="11.545260546105053"><ele>276.5</ele><time>2026-03-29T09:05:56.99Z</time></trkpt><trkpt lat="43.264646894903684" lon="11.54508734931007"><ele>276.75</ele><time>2026-03-29T09:05:57.99Z</time></trkpt><trkpt lat="43.26466872006819" lon="11.54493635671718"><ele>277.0</ele><time>2026-03-29T09:05:58.99Z</time></trkpt><trkpt lat="43.2646900796417" lon="11.544796116901823"><ele>277.0</ele><time>2026-03-29T09:05:59.99Z</time></trkpt><trkpt lat="43.264728658293485" lon="11.544649046503471"><ele>277.0</ele><time>2026-03-29T09:06:00.99Z</time></trkpt><trkpt lat="43.26478897650296" lon="11.544507838861154"><ele>277.0</ele><time>2026-03-29T09:06:01.99Z</time></trkpt><trkpt lat="43.26485688964194" lon="11.5443675404662"><ele>277.0</ele><time>2026-03-29T09:06:02.99Z</time></trkpt><trkpt lat="43.26493289985236" lon="11.544235764994607"><ele>271.0</ele><time>2026-03-29T09:06:03.99Z</time></trkpt><trkpt lat="43.265014271126354" lon="11.544076262151918"><ele>265.0</ele><time>2026-03-29T09:06:04.99Z</time></trkpt><trkpt lat="43.26509002021437" lon="11.543886948108824"><ele>259.0</ele><time>2026-03-29T09:06:05.99Z</time></trkpt><trkpt lat="43.26515439548939" lon="11.543710293015833"><ele>253.0</ele><time>2026-03-29T09:06:06.99Z</time></trkpt><trkpt lat="43.26520861279261" lon="11.543533815941238"><ele>250.75</ele><time>2026-03-29T09:06:07.99Z</time></trkpt><trkpt lat="43.2652439426596" lon="11.54335603433098"><ele>248.5</ele><time>2026-03-29T09:06:08.99Z</time></trkpt><trkpt lat="43.265250019014466" lon="11.543177685216463"><ele>246.25</ele><time>2026-03-29T09:06:09.99Z</time></trkpt><trkpt lat="43.26521696227062" lon="11.54299590730717"><ele>244.0</ele><time>2026-03-29T09:06:10.99Z</time></trkpt><trkpt lat="43.26521391433212" lon="11.542782110076908"><ele>241.66666666666666</ele><time>2026-03-29T09:06:11.99Z</time></trkpt><trkpt lat="43.265197845081246" lon="11.542559200888848"><ele>239.33333333333331</ele><time>2026-03-29T09:06:12.99Z</time></trkpt><trkpt lat="43.26526060349625" lon="11.542348137316749"><ele>237.0</ele><time>2026-03-29T09:06:13.99Z</time></trkpt><trkpt lat="43.26533340964201" lon="11.54216295603397"><ele>236.0</ele><time>2026-03-29T09:06:14.99Z</time></trkpt><trkpt lat="43.26540408148539" lon="11.541936694367095"><ele>235.0</ele><time>2026-03-29T09:06:15.99Z</time></trkpt><trkpt lat="43.26547252266896" lon="11.541692827946665"><ele>234.0</ele><time>2026-03-29T09:06:16.99Z</time></trkpt><trkpt lat="43.26551710740935" lon="11.54144589777833"><ele>235.33333333333331</ele><time>2026-03-29T09:06:17.99Z</time></trkpt><trkpt lat="43.265544423098966" lon="11.54119622884282"><ele>236.66666666666666</ele><time>2026-03-29T09:06:18.99Z</time></trkpt><trkpt lat="43.265562315275" lon="11.540952449438363"><ele>238.0</ele><time>2026-03-29T09:06:19.99Z</time></trkpt><trkpt lat="43.26558081863824" lon="11.540754667556525"><ele>239.25</ele><time>2026-03-29T09:06:20.99Z</time></trkpt><trkpt lat="43.26561788787924" lon="11.54060197218496"><ele>240.5</ele><time>2026-03-29T09:06:21.99Z</time></trkpt><trkpt lat="43.2656781070341" lon="11.540486994598142"><ele>241.75</ele><time>2026-03-29T09:06:22.99Z</time></trkpt><trkpt lat="43.265759594050095" lon="11.540357982063512"><ele>243.0</ele><time>2026-03-29T09:06:23.99Z</time></trkpt><trkpt lat="43.26586585686058" lon="11.540211936163844"><ele>244.0</ele><time>2026-03-29T09:06:24.99Z</time></trkpt><trkpt lat="43.2659690290813" lon="11.54006328936793"><ele>245.0</ele><time>2026-03-29T09:06:25.99Z</time></trkpt><trkpt lat="43.26605620750682" lon="11.539907839669748"><ele>246.0</ele><time>2026-03-29T09:06:26.99Z</time></trkpt><trkpt lat="43.26615294659741" lon="11.53977121371081"><ele>247.0</ele><time>2026-03-29T09:06:27.99Z</time></trkpt><trkpt lat="43.26624240413585" lon="11.539636307659968"><ele>248.25</ele><time>2026-03-29T09:06:28.99Z</time></trkpt><trkpt lat="43.266320797435256" lon="11.539502089966765"><ele>249.5</ele><time>2026-03-29T09:06:29.99Z</time></trkpt><trkpt lat="43.26639219689749" lon="11.539369133619799"><ele>250.75</ele><time>2026-03-29T09:06:30.99Z</time></trkpt><trkpt lat="43.26646240028119" lon="11.539239657894958"><ele>252.0</ele><time>2026-03-29T09:06:31.99Z</time></trkpt><trkpt lat="43.26652882605484" lon="11.539126371135087"><ele>248.5</ele><time>2026-03-29T09:06:32.99Z</time></trkpt><trkpt lat="43.26661614290417" lon="11.539063478738028"><ele>245.0</ele><time>2026-03-29T09:06:33.99Z</time></trkpt><trkpt lat="43.266716358885326" lon="11.538976551201635"><ele>241.5</ele><time>2026-03-29T09:06:34.99Z</time></trkpt><trkpt lat="43.26686142604611" lon="11.538916573960023"><ele>238.0</ele><time>2026-03-29T09:06:35.99Z</time></trkpt><trkpt lat="43.266994446288756" lon="11.53884603536055"><ele>238.0</ele><time>2026-03-29T09:06:36.99Z</time></trkpt><trkpt lat="43.267122868031166" lon="11.538763417711532"><ele>238.0</ele><time>2026-03-29T09:06:37.99Z</time></trkpt><trkpt lat="43.26724906127572" lon="11.538680241894"><ele>238.0</ele><time>2026-03-29T09:06:38.99Z</time></trkpt><trkpt lat="43.26737573597949" lon="11.538616526372412"><ele>238.0</ele><time>2026-03-29T09:06:39.989Z</time></trkpt><trkpt lat="43.26748207247613" lon="11.538537193340023"><ele>237.0</ele><time>2026-03-29T09:06:40.989Z</time></trkpt><trkpt lat="43.26757933849065" lon="11.538464075046754"><ele>236.0</ele><time>2026-03-29T09:06:41.989Z</time></trkpt><trkpt lat="43.26767270778782" lon="11.538398822411974"><ele>235.0</ele><time>2026-03-29T09:06:42.989Z</time></trkpt><trkpt lat="43.267760363248996" lon="11.538331407240781"><ele>234.0</ele><time>2026-03-29T09:06:43.989Z</time></trkpt><trkpt lat="43.267857516436464" lon="11.538254547517218"><ele>233.0</ele><time>2026-03-29T09:06:44.989Z</time></trkpt><trkpt lat="43.26797902961433" lon="11.53819314105456"><ele>233.0</ele><time>2026-03-29T09:06:45.989Z</time></trkpt><trkpt lat="43.268087920070556" lon="11.538113151976335"><ele>233.0</ele><time>2026-03-29T09:06:46.989Z</time></trkpt><trkpt lat="43.26819996553338" lon="11.538030222429208"><ele>233.0</ele><time>2026-03-29T09:06:47.989Z</time></trkpt><trkpt lat="43.26830044616102" lon="11.537956529760944"><ele>233.0</ele><time>2026-03-29T09:06:48.989Z</time></trkpt><trkpt lat="43.26838940095854" lon="11.537893016581735"><ele>229.8</ele><time>2026-03-29T09:06:49.989Z</time></trkpt><trkpt lat="43.26847715852148" lon="11.53782812279935"><ele>226.60000000000002</ele><time>2026-03-29T09:06:50.989Z</time></trkpt><trkpt lat="43.26856679027801" lon="11.537763337251604"><ele>223.39999999999998</ele><time>2026-03-29T09:06:51.989Z</time></trkpt><trkpt lat="43.268664619666126" lon="11.537710262006279"><ele>220.2</ele><time>2026-03-29T09:06:52.989Z</time></trkpt><trkpt lat="43.26877847161729" lon="11.537694913907128"><ele>217.0</ele><time>2026-03-29T09:06:53.989Z</time></trkpt><trkpt lat="43.268898145611324" lon="11.537735892644879"><ele>214.2</ele><time>2026-03-29T09:06:54.989Z</time></trkpt><trkpt lat="43.26901117486654" lon="11.537789828333537"><ele>211.39999999999998</ele><time>2026-03-29T09:06:55.989Z</time></trkpt><trkpt lat="43.2691131226601" lon="11.537808051353855"><ele>208.60000000000002</ele><time>2026-03-29T09:06:56.989Z</time></trkpt><trkpt lat="43.26921455357765" lon="11.537828298306385"><ele>205.8</ele><time>2026-03-29T09:06:57.989Z</time></trkpt><trkpt lat="43.26933685880156" lon="11.537819443469505"><ele>203.0</ele><time>2026-03-29T09:06:58.989Z</time></trkpt><trkpt lat="43.26947536086826" lon="11.53779361986515"><ele>203.0</ele><time>2026-03-29T09:06:59.989Z</time></trkpt><trkpt lat="43.269600837363775" lon="11.537748443208594"><ele>203.0</ele><time>2026-03-29T09:07:00.989Z</time></trkpt><trkpt lat="43.26972113990832" lon="11.537711081893804"><ele>203.0</ele><time>2026-03-29T09:07:01.989Z</time></trkpt><trkpt lat="43.2698176797386" lon="11.537627424000455"><ele>203.0</ele><time>2026-03-29T09:07:02.989Z</time></trkpt><trkpt lat="43.26992595589461" lon="11.537592999263609"><ele>199.75</ele><time>2026-03-29T09:07:03.989Z</time></trkpt><trkpt lat="43.27003149677269" lon="11.537565123408159"><ele>196.5</ele><time>2026-03-29T09:07:04.989Z</time></trkpt><trkpt lat="43.27015433051529" lon="11.53758312757883"><ele>193.25</ele><time>2026-03-29T09:07:05.989Z</time></trkpt><trkpt lat="43.270295908617236" lon="11.537655260016393"><ele>190.0</ele><time>2026-03-29T09:07:06.989Z</time></trkpt><trkpt lat="43.27043897026724" lon="11.537699898633502"><ele>190.0</ele><time>2026-03-29T09:07:07.989Z</time></trkpt><trkpt lat="43.270560703324286" lon="11.537721325522579"><ele>190.0</ele><time>2026-03-29T09:07:08.989Z</time></trkpt><trkpt lat="43.27066861104941" lon="11.537748704175097"><ele>190.0</ele><time>2026-03-29T09:07:09.989Z</time></trkpt><trkpt lat="43.27078044937596" lon="11.53781618190935"><ele>190.0</ele><time>2026-03-29T09:07:10.989Z</time></trkpt><trkpt lat="43.270893539770604" lon="11.537896576124714"><ele>188.25</ele><time>2026-03-29T09:07:11.989Z</time></trkpt><trkpt lat="43.27100142440874" lon="11.537991816105777"><ele>186.5</ele><time>2026-03-29T09:07:12.989Z</time></trkpt><trkpt lat="43.27108151866907" lon="11.538092867245714"><ele>184.75</ele><time>2026-03-29T09:07:13.989Z</time></trkpt><trkpt lat="43.27116062597735" lon="11.538217671586091"><ele>183.0</ele><time>2026-03-29T09:07:14.989Z</time></trkpt><trkpt lat="43.27124158717525" lon="11.538381762540451"><ele>183.0</ele><time>2026-03-29T09:07:15.99Z</time></trkpt><trkpt lat="43.27132777170679" lon="11.538576200502199"><ele>183.0</ele><time>2026-03-29T09:07:16.99Z</time></trkpt><trkpt lat="43.2714174984412" lon="11.538785469480583"><ele>183.0</ele><time>2026-03-29T09:07:17.99Z</time></trkpt><trkpt lat="43.27151577990586" lon="11.539017460385658"><ele>184.33333333333334</ele><time>2026-03-29T09:07:18.99Z</time></trkpt><trkpt lat="43.27161415082581" lon="11.539256275873695"><ele>185.66666666666669</ele><time>2026-03-29T09:07:19.99Z</time></trkpt><trkpt lat="43.27172252343182" lon="11.539485984765857"><ele>187.0</ele><time>2026-03-29T09:07:20.99Z</time></trkpt><trkpt lat="43.271808495419265" lon="11.53971035282785"><ele>187.66666666666669</ele><time>2026-03-29T09:07:21.99Z</time></trkpt><trkpt lat="43.2718912404732" lon="11.539925033272713"><ele>188.33333333333334</ele><time>2026-03-29T09:07:22.99Z</time></trkpt><trkpt lat="43.27197985763622" lon="11.540146473245528"><ele>189.0</ele><time>2026-03-29T09:07:23.99Z</time></trkpt><trkpt lat="43.27207220360708" lon="11.540367628106587"><ele>189.66666666666666</ele><time>2026-03-29T09:07:24.99Z</time></trkpt><trkpt lat="43.272164451767345" lon="11.5406076750377"><ele>190.33333333333331</ele><time>2026-03-29T09:07:25.99Z</time></trkpt><trkpt lat="43.27225420180789" lon="11.540837664515072"><ele>191.0</ele><time>2026-03-29T09:07:26.99Z</time></trkpt><trkpt lat="43.27233084633816" lon="11.541041517127704"><ele>195.0</ele><time>2026-03-29T09:07:27.99Z</time></trkpt><trkpt lat="43.27239183098025" lon="11.541247310913366"><ele>199.0</ele><time>2026-03-29T09:07:28.99Z</time></trkpt><trkpt lat="43.27244006486124" lon="11.541458477311988"><ele>203.0</ele><time>2026-03-29T09:07:29.99Z</time></trkpt><trkpt lat="43.27247473991483" lon="11.541672943732287"><ele>203.0</ele><time>2026-03-29T09:07:30.99Z</time></trkpt><trkpt lat="43.27249538736858" lon="11.541890273383993"><ele>203.0</ele><time>2026-03-29T09:07:31.99Z</time></trkpt><trkpt lat="43.27251574917048" lon="11.542079617403573"><ele>203.0</ele><time>2026-03-29T09:07:32.99Z</time></trkpt><trkpt lat="43.272532898875724" lon="11.542257927477367"><ele>203.0</ele><time>2026-03-29T09:07:33.99Z</time></trkpt><trkpt lat="43.27255573556445" lon="11.542423428343495"><ele>204.60000000000002</ele><time>2026-03-29T09:07:34.99Z</time></trkpt><trkpt lat="43.27258379126083" lon="11.542575393797254"><ele>206.20000000000002</ele><time>2026-03-29T09:07:35.99Z</time></trkpt><trkpt lat="43.2726105273514" lon="11.54270844802682"><ele>207.8</ele><time>2026-03-29T09:07:36.99Z</time></trkpt><trkpt lat="43.272649055820665" lon="11.542828690943947"><ele>209.4</ele><time>2026-03-29T09:07:37.99Z</time></trkpt><trkpt lat="43.27270819136486" lon="11.542929223694374"><ele>211.0</ele><time>2026-03-29T09:07:38.99Z</time></trkpt><trkpt lat="43.27278806352831" lon="11.542992641853697"><ele>212.49999999999997</ele><time>2026-03-29T09:07:39.99Z</time></trkpt><trkpt lat="43.27287197147421" lon="11.542983904291034"><ele>214.0</ele><time>2026-03-29T09:07:40.99Z</time></trkpt><trkpt lat="43.27294742822572" lon="11.542945018361388"><ele>215.5</ele><time>2026-03-29T09:07:41.99Z</time></trkpt><trkpt lat="43.27302715968334" lon="11.542905316160892"><ele>217.0</ele><time>2026-03-29T09:07:42.99Z</time></trkpt><trkpt lat="43.27310909513787" lon="11.542913583806566"><ele>218.49999999999997</ele><time>2026-03-29T09:07:43.99Z</time></trkpt><trkpt lat="43.27320115095556" lon="11.542952962871562"><ele>220.0</ele><time>2026-03-29T09:07:44.99Z</time></trkpt><trkpt lat="43.27328088544362" lon="11.543015808356966"><ele>222.4</ele><time>2026-03-29T09:07:45.99Z</time></trkpt><trkpt lat="43.2733723058607" lon="11.54309282079982"><ele>224.8</ele><time>2026-03-29T09:07:46.99Z</time></trkpt><trkpt lat="43.273472966817735" lon="11.543194244221873"><ele>227.2</ele><time>2026-03-29T09:07:47.99Z</time></trkpt><trkpt lat="43.273557998876896" lon="11.543297654484267"><ele>229.6</ele><time>2026-03-29T09:07:48.99Z</time></trkpt><trkpt lat="43.27362273302824" lon="11.54338071797216"><ele>232.0</ele><time>2026-03-29T09:07:49.99Z</time></trkpt><trkpt lat="43.27364604830409" lon="11.543507284729467"><ele>232.0</ele><time>2026-03-29T09:07:50.99Z</time></trkpt><trkpt lat="43.273622293672716" lon="11.543640071695497"><ele>232.0</ele><time>2026-03-29T09:07:51.99Z</time></trkpt><trkpt lat="43.273582124447486" lon="11.543748546598842"><ele>232.0</ele><time>2026-03-29T09:07:52.99Z</time></trkpt><trkpt lat="43.27353501538718" lon="11.543839409479217"><ele>232.0</ele><time>2026-03-29T09:07:53.99Z</time></trkpt><trkpt lat="43.27346884003301" lon="11.543935348086347"><ele>232.0</ele><time>2026-03-29T09:07:54.99Z</time></trkpt><trkpt lat="43.27338942696549" lon="11.544058503050092"><ele>234.0</ele><time>2026-03-29T09:07:55.99Z</time></trkpt><trkpt lat="43.27330992737297" lon="11.544206583197385"><ele>236.0</ele><time>2026-03-29T09:07:56.99Z</time></trkpt><trkpt lat="43.27323096752223" lon="11.544351701921771"><ele>238.0</ele><time>2026-03-29T09:07:57.99Z</time></trkpt><trkpt lat="43.273186189118086" lon="11.544495796443448"><ele>240.0</ele><time>2026-03-29T09:07:58.99Z</time></trkpt><trkpt lat="43.273175081060195" lon="11.544647792705206"><ele>241.25</ele><time>2026-03-29T09:07:59.99Z</time></trkpt><trkpt lat="43.27316972550334" lon="11.544825950709178"><ele>242.5</ele><time>2026-03-29T09:08:00.99Z</time></trkpt><trkpt lat="43.27316708113766" lon="11.545031283660588"><ele>243.75</ele><time>2026-03-29T09:08:01.99Z</time></trkpt><trkpt lat="43.27315527046828" lon="11.54524130777637"><ele>245.0</ele><time>2026-03-29T09:08:02.99Z</time></trkpt><trkpt lat="43.27314535139547" lon="11.54546690866439"><ele>247.33333333333334</ele><time>2026-03-29T09:08:03.99Z</time></trkpt><trkpt lat="43.27314971321511" lon="11.54569824522415"><ele>249.66666666666669</ele><time>2026-03-29T09:08:04.99Z</time></trkpt><trkpt lat="43.273168375894926" lon="11.545911641035723"><ele>252.0</ele><time>2026-03-29T09:08:05.99Z</time></trkpt><trkpt lat="43.27320616944298" lon="11.546107368397298"><ele>254.25</ele><time>2026-03-29T09:08:06.99Z</time></trkpt><trkpt lat="43.27325792496506" lon="11.546311993827869"><ele>256.5</ele><time>2026-03-29T09:08:07.99Z</time></trkpt><trkpt lat="43.27331480297761" lon="11.5464975965596"><ele>258.75</ele><time>2026-03-29T09:08:08.99Z</time></trkpt><trkpt lat="43.27338148428316" lon="11.54665989150616"><ele>261.0</ele><time>2026-03-29T09:08:09.99Z</time></trkpt><trkpt lat="43.273457347553034" lon="11.546806161948398"><ele>261.0</ele><time>2026-03-29T09:08:10.99Z</time></trkpt><trkpt lat="43.2735464389213" lon="11.54693457138596"><ele>261.0</ele><time>2026-03-29T09:08:11.99Z</time></trkpt><trkpt lat="43.273654951234896" lon="11.547037200614824"><ele>261.0</ele><time>2026-03-29T09:08:12.99Z</time></trkpt><trkpt lat="43.27377464552928" lon="11.547100243193215"><ele>261.0</ele><time>2026-03-29T09:08:13.99Z</time></trkpt><trkpt lat="43.273907702695396" lon="11.54712578682778"><ele>267.0</ele><time>2026-03-29T09:08:14.99Z</time></trkpt><trkpt lat="43.27406080879844" lon="11.547126612359857"><ele>273.0</ele><time>2026-03-29T09:08:15.99Z</time></trkpt><trkpt lat="43.274223279536024" lon="11.547118192473507"><ele>279.0</ele><time>2026-03-29T09:08:16.99Z</time></trkpt><trkpt lat="43.27437410731173" lon="11.547105273452269"><ele>279.0</ele><time>2026-03-29T09:08:17.99Z</time></trkpt><trkpt lat="43.274502796161386" lon="11.547078635375591"><ele>279.0</ele><time>2026-03-29T09:08:18.99Z</time></trkpt><trkpt lat="43.27461497238345" lon="11.54708312867141"><ele>279.0</ele><time>2026-03-29T09:08:19.99Z</time></trkpt><trkpt lat="43.27470473282407" lon="11.547155197303928"><ele>279.0</ele><time>2026-03-29T09:08:20.99Z</time></trkpt><trkpt lat="43.27481499315111" lon="11.54724868891116"><ele>281.3333333333333</ele><time>2026-03-29T09:08:21.99Z</time></trkpt><trkpt lat="43.27494819444192" lon="11.547357406399362"><ele>283.66666666666663</ele><time>2026-03-29T09:08:22.99Z</time></trkpt><trkpt lat="43.27509955084945" lon="11.547458690995958"><ele>286.0</ele><time>2026-03-29T09:08:23.99Z</time></trkpt><trkpt lat="43.27524407304474" lon="11.547585608980928"><ele>286.0</ele><time>2026-03-29T09:08:24.99Z</time></trkpt><trkpt lat="43.27538476904348" lon="11.547716334298963"><ele>286.0</ele><time>2026-03-29T09:08:25.99Z</time></trkpt><trkpt lat="43.27552638975943" lon="11.547840447767635"><ele>286.0</ele><time>2026-03-29T09:08:26.99Z</time></trkpt><trkpt lat="43.27564992149815" lon="11.547953403572473"><ele>291.0</ele><time>2026-03-29T09:08:27.99Z</time></trkpt><trkpt lat="43.275778829443155" lon="11.548012640927613"><ele>296.0</ele><time>2026-03-29T09:08:28.99Z</time></trkpt><trkpt lat="43.27591688174879" lon="11.54807672121979"><ele>301.0</ele><time>2026-03-29T09:08:29.99Z</time></trkpt><trkpt lat="43.276079749581804" lon="11.548139706102003"><ele>301.0</ele><time>2026-03-29T09:08:30.99Z</time></trkpt><trkpt lat="43.27622154897708" lon="11.54818056633008"><ele>301.0</ele><time>2026-03-29T09:08:31.99Z</time></trkpt><trkpt lat="43.2763428032694" lon="11.548226152787413"><ele>301.0</ele><time>2026-03-29T09:08:32.99Z</time></trkpt><trkpt lat="43.276457541912094" lon="11.548272005253828"><ele>301.0</ele><time>2026-03-29T09:08:33.99Z</time></trkpt><trkpt lat="43.27656544743072" lon="11.548327448619316"><ele>301.5</ele><time>2026-03-29T09:08:34.99Z</time></trkpt><trkpt lat="43.27666117488204" lon="11.548407874837249"><ele>302.0</ele><time>2026-03-29T09:08:35.99Z</time></trkpt><trkpt lat="43.2767633016443" lon="11.548488868097593"><ele>302.5</ele><time>2026-03-29T09:08:36.99Z</time></trkpt><trkpt lat="43.27687998696101" lon="11.548592749014166"><ele>303.0</ele><time>2026-03-29T09:08:37.99Z</time></trkpt><trkpt lat="43.27700845298772" lon="11.5487192487709"><ele>303.0</ele><time>2026-03-29T09:08:38.99Z</time></trkpt><trkpt lat="43.277122086530326" lon="11.548825739741838"><ele>303.0</ele><time>2026-03-29T09:08:39.99Z</time></trkpt><trkpt lat="43.277223149711936" lon="11.548920784203368"><ele>303.0</ele><time>2026-03-29T09:08:40.99Z</time></trkpt><trkpt lat="43.2773233862797" lon="11.549004964026853"><ele>303.0</ele><time>2026-03-29T09:08:41.99Z</time></trkpt><trkpt lat="43.2774265762123" lon="11.54908381704118"><ele>299.5</ele><time>2026-03-29T09:08:42.99Z</time></trkpt><trkpt lat="43.27752071035927" lon="11.54916188073497"><ele>296.0</ele><time>2026-03-29T09:08:43.99Z</time></trkpt><trkpt lat="43.27761821889105" lon="11.549243977036712"><ele>292.5</ele><time>2026-03-29T09:08:44.99Z</time></trkpt><trkpt lat="43.27771272915365" lon="11.549346492901105"><ele>289.0</ele><time>2026-03-29T09:08:45.99Z</time></trkpt><trkpt lat="43.27782895102234" lon="11.549413787075313"><ele>289.0</ele><time>2026-03-29T09:08:46.99Z</time></trkpt><trkpt lat="43.27796405613627" lon="11.549443178655544"><ele>289.0</ele><time>2026-03-29T09:08:47.99Z</time></trkpt><trkpt lat="43.278111550193636" lon="11.549440521831588"><ele>289.0</ele><time>2026-03-29T09:08:48.99Z</time></trkpt><trkpt lat="43.27827116595503" lon="11.549436913174686"><ele>289.0</ele><time>2026-03-29T09:08:49.99Z</time></trkpt><trkpt lat="43.27843548958803" lon="11.549437984959749"><ele>285.25</ele><time>2026-03-29T09:08:50.99Z</time></trkpt><trkpt lat="43.278594887503424" lon="11.549447116504822"><ele>281.5</ele><time>2026-03-29T09:08:51.99Z</time></trkpt><trkpt lat="43.2787295940875" lon="11.549461267825526"><ele>277.75</ele><time>2026-03-29T09:08:52.99Z</time></trkpt><trkpt lat="43.278849698053826" lon="11.549484465101465"><ele>274.0</ele><time>2026-03-29T09:08:53.99Z</time></trkpt><trkpt lat="43.278972476967915" lon="11.549543569607119"><ele>273.5</ele><time>2026-03-29T09:08:54.99Z</time></trkpt><trkpt lat="43.27909088655549" lon="11.549624743749213"><ele>273.0</ele><time>2026-03-29T09:08:55.99Z</time></trkpt><trkpt lat="43.279219171276516" lon="11.549724000467828"><ele>272.5</ele><time>2026-03-29T09:08:56.99Z</time></trkpt><trkpt lat="43.279340166389" lon="11.549804506877402"><ele>272.0</ele><time>2026-03-29T09:08:57.99Z</time></trkpt><trkpt lat="43.27946280456567" lon="11.549877145559877"><ele>272.0</ele><time>2026-03-29T09:08:58.99Z</time></trkpt><trkpt lat="43.2795963560392" lon="11.54992125810152"><ele>272.0</ele><time>2026-03-29T09:08:59.99Z</time></trkpt><trkpt lat="43.27974312264391" lon="11.549934643110149"><ele>272.0</ele><time>2026-03-29T09:09:00.99Z</time></trkpt><trkpt lat="43.279895211305046" lon="11.549938855951336"><ele>272.0</ele><time>2026-03-29T09:09:01.99Z</time></trkpt><trkpt lat="43.28004394999146" lon="11.549901107514408"><ele>271.0</ele><time>2026-03-29T09:09:02.99Z</time></trkpt><trkpt lat="43.28019221978045" lon="11.549830930615295"><ele>270.0</ele><time>2026-03-29T09:09:03.99Z</time></trkpt><trkpt lat="43.280340425797014" lon="11.54973904794491"><ele>269.0</ele><time>2026-03-29T09:09:04.99Z</time></trkpt><trkpt lat="43.28047945817283" lon="11.549641993675934"><ele>273.0</ele><time>2026-03-29T09:09:05.99Z</time></trkpt><trkpt lat="43.280611460529784" lon="11.549534430666549"><ele>277.0</ele><time>2026-03-29T09:09:06.99Z</time></trkpt><trkpt lat="43.280727005597576" lon="11.549392729379235"><ele>281.0</ele><time>2026-03-29T09:09:07.99Z</time></trkpt><trkpt lat="43.28081138578125" lon="11.549212742865773"><ele>281.0</ele><time>2026-03-29T09:09:08.99Z</time></trkpt><trkpt lat="43.28089841658405" lon="11.549047933147056"><ele>281.0</ele><time>2026-03-29T09:09:09.99Z</time></trkpt><trkpt lat="43.28100010824066" lon="11.548898211797871"><ele>281.0</ele><time>2026-03-29T09:09:10.99Z</time></trkpt><trkpt lat="43.28111087569859" lon="11.548769170893888"><ele>281.0</ele><time>2026-03-29T09:09:11.99Z</time></trkpt><trkpt lat="43.28122558273586" lon="11.548666700712436"><ele>280.75</ele><time>2026-03-29T09:09:12.99Z</time></trkpt><trkpt lat="43.281343159784164" lon="11.548543357923787"><ele>280.5</ele><time>2026-03-29T09:09:13.99Z</time></trkpt><trkpt lat="43.2814634327984" lon="11.548412902279292"><ele>280.25</ele><time>2026-03-29T09:09:14.99Z</time></trkpt><trkpt lat="43.281575350391144" lon="11.548293406029993"><ele>280.0</ele><time>2026-03-29T09:09:15.99Z</time></trkpt><trkpt lat="43.28166993794468" lon="11.548183557767418"><ele>284.2</ele><time>2026-03-29T09:09:16.99Z</time></trkpt><trkpt lat="43.28177715308829" lon="11.548143229619312"><ele>288.4</ele><time>2026-03-29T09:09:17.99Z</time></trkpt><trkpt lat="43.281860485608775" lon="11.548132775586394"><ele>292.6</ele><time>2026-03-29T09:09:18.99Z</time></trkpt><trkpt lat="43.28196073659645" lon="11.548142491277183"><ele>296.8</ele><time>2026-03-29T09:09:19.99Z</time></trkpt><trkpt lat="43.28207746747192" lon="11.548146769826616"><ele>301.0</ele><time>2026-03-29T09:09:20.99Z</time></trkpt><trkpt lat="43.28219265434668" lon="11.548137221157491"><ele>302.75</ele><time>2026-03-29T09:09:21.989Z</time></trkpt><trkpt lat="43.28231516645333" lon="11.548149431704271"><ele>304.5</ele><time>2026-03-29T09:09:22.99Z</time></trkpt><trkpt lat="43.282433812908494" lon="11.548160561061744"><ele>306.25</ele><time>2026-03-29T09:09:23.99Z</time></trkpt><trkpt lat="43.2825575882829" lon="11.548175606127337"><ele>308.0</ele><time>2026-03-29T09:09:24.99Z</time></trkpt><trkpt lat="43.282686403886686" lon="11.548195951661345"><ele>308.0</ele><time>2026-03-29T09:09:25.99Z</time></trkpt><trkpt lat="43.282802956653825" lon="11.548258237726671"><ele>308.0</ele><time>2026-03-29T09:09:26.99Z</time></trkpt><trkpt lat="43.28292140831432" lon="11.548324797971292"><ele>308.0</ele><time>2026-03-29T09:09:27.99Z</time></trkpt><trkpt lat="43.283049294818426" lon="11.54841009652749"><ele>308.0</ele><time>2026-03-29T09:09:28.99Z</time></trkpt><trkpt lat="43.28318465904835" lon="11.548515568705493"><ele>310.0</ele><time>2026-03-29T09:09:29.99Z</time></trkpt><trkpt lat="43.28331004749588" lon="11.548622639500726"><ele>312.0</ele><time>2026-03-29T09:09:30.99Z</time></trkpt><trkpt lat="43.283423655035655" lon="11.54871357014747"><ele>314.0</ele><time>2026-03-29T09:09:31.989Z</time></trkpt><trkpt lat="43.28353512609303" lon="11.548757754706822"><ele>316.0</ele><time>2026-03-29T09:09:32.989Z</time></trkpt><trkpt lat="43.28365768928902" lon="11.548816441186116"><ele>316.0</ele><time>2026-03-29T09:09:33.989Z</time></trkpt><trkpt lat="43.28378012029497" lon="11.548846975284404"><ele>316.0</ele><time>2026-03-29T09:09:34.99Z</time></trkpt><trkpt lat="43.283883684862175" lon="11.548851991297697"><ele>316.0</ele><time>2026-03-29T09:09:35.99Z</time></trkpt><trkpt lat="43.28397667838387" lon="11.548846756760323"><ele>316.0</ele><time>2026-03-29T09:09:36.99Z</time></trkpt><trkpt lat="43.284084216895394" lon="11.548833938337514"><ele>316.0</ele><time>2026-03-29T09:09:37.99Z</time></trkpt><trkpt lat="43.28419800940585" lon="11.54879317125805"><ele>310.75</ele><time>2026-03-29T09:09:38.99Z</time></trkpt><trkpt lat="43.28430695723905" lon="11.548690256250124"><ele>305.5</ele><time>2026-03-29T09:09:39.989Z</time></trkpt><trkpt lat="43.28438839298893" lon="11.548541774309193"><ele>300.25</ele><time>2026-03-29T09:09:40.989Z</time></trkpt><trkpt lat="43.284454878613126" lon="11.54838284196864"><ele>295.0</ele><time>2026-03-29T09:09:41.989Z</time></trkpt><trkpt lat="43.284518031704714" lon="11.548202183870567"><ele>295.0</ele><time>2026-03-29T09:09:42.989Z</time></trkpt><trkpt lat="43.28458734579811" lon="11.548015789934649"><ele>295.0</ele><time>2026-03-29T09:09:43.989Z</time></trkpt><trkpt lat="43.28467715453136" lon="11.547823359766795"><ele>295.0</ele><time>2026-03-29T09:09:44.989Z</time></trkpt><trkpt lat="43.28472905440629" lon="11.54761129220319"><ele>292.5</ele><time>2026-03-29T09:09:45.989Z</time></trkpt><trkpt lat="43.28475398685909" lon="11.547412197630036"><ele>290.0</ele><time>2026-03-29T09:09:46.989Z</time></trkpt><trkpt lat="43.28476083487226" lon="11.547236503928948"><ele>287.5</ele><time>2026-03-29T09:09:47.989Z</time></trkpt><trkpt lat="43.28478518926671" lon="11.547066993533138"><ele>285.0</ele><time>2026-03-29T09:09:48.989Z</time></trkpt><trkpt lat="43.28482717957156" lon="11.546921688093208"><ele>291.25</ele><time>2026-03-29T09:09:49.989Z</time></trkpt><trkpt lat="43.2848900174791" lon="11.546801236301272"><ele>297.5</ele><time>2026-03-29T09:09:50.989Z</time></trkpt><trkpt lat="43.284989112009846" lon="11.546695920474985"><ele>303.75</ele><time>2026-03-29T09:09:51.989Z</time></trkpt><trkpt lat="43.28508859612693" lon="11.546609573171622"><ele>310.0</ele><time>2026-03-29T09:09:52.989Z</time></trkpt><trkpt lat="43.285201409361235" lon="11.546550849835294"><ele>310.0</ele><time>2026-03-29T09:09:53.989Z</time></trkpt><trkpt lat="43.285317903308126" lon="11.546486838176458"><ele>310.0</ele><time>2026-03-29T09:09:54.989Z</time></trkpt><trkpt lat="43.28542966724414" lon="11.546440197835627"><ele>310.0</ele><time>2026-03-29T09:09:55.989Z</time></trkpt><trkpt lat="43.285536951682516" lon="11.546394580165233"><ele>310.0</ele><time>2026-03-29T09:09:56.989Z</time></trkpt><trkpt lat="43.28566189274623" lon="11.546335933791969"><ele>309.6</ele><time>2026-03-29T09:09:57.989Z</time></trkpt><trkpt lat="43.28576975062306" lon="11.546263102936381"><ele>309.2</ele><time>2026-03-29T09:09:58.989Z</time></trkpt><trkpt lat="43.28586997677656" lon="11.546173175751287"><ele>308.8</ele><time>2026-03-29T09:09:59.989Z</time></trkpt><trkpt lat="43.28596331036998" lon="11.54608504514347"><ele>308.4</ele><time>2026-03-29T09:10:00.987Z</time></trkpt><trkpt lat="43.28604509777967" lon="11.54601593718896"><ele>308.0</ele><time>2026-03-29T09:10:01.985Z</time></trkpt><trkpt lat="43.286125552562375" lon="11.545954182918878"><ele>308.8</ele><time>2026-03-29T09:10:02.983Z</time></trkpt><trkpt lat="43.286208416426035" lon="11.545904948688461"><ele>309.6</ele><time>2026-03-29T09:10:03.981Z</time></trkpt><trkpt lat="43.286303706128635" lon="11.545865443389886"><ele>310.4</ele><time>2026-03-29T09:10:04.98Z</time></trkpt><trkpt lat="43.28640996256406" lon="11.545858837739388"><ele>311.2</ele><time>2026-03-29T09:10:05.978Z</time></trkpt><trkpt lat="43.28650043727534" lon="11.5459349785507"><ele>312.0</ele><time>2026-03-29T09:10:06.977Z</time></trkpt><trkpt lat="43.28660883402307" lon="11.546017219016196"><ele>312.0</ele><time>2026-03-29T09:10:07.975Z</time></trkpt><trkpt lat="43.28672952695406" lon="11.546088101804987"><ele>312.0</ele><time>2026-03-29T09:10:08.974Z</time></trkpt><trkpt lat="43.28681349062694" lon="11.546139694403047"><ele>312.0</ele><time>2026-03-29T09:10:09.973Z</time></trkpt><trkpt lat="43.28691439124128" lon="11.546176709650446"><ele>312.0</ele><time>2026-03-29T09:10:10.971Z</time></trkpt><trkpt lat="43.28702801647558" lon="11.54615258401497"><ele>312.0</ele><time>2026-03-29T09:10:11.97Z</time></trkpt><trkpt lat="43.28713231124389" lon="11.546107162273708"><ele>312.0</ele><time>2026-03-29T09:10:12.969Z</time></trkpt><trkpt lat="43.287214575789946" lon="11.546030277555644"><ele>312.0</ele><time>2026-03-29T09:10:13.968Z</time></trkpt><trkpt lat="43.287266542279774" lon="11.545862307572817"><ele>312.0</ele><time>2026-03-29T09:10:14.967Z</time></trkpt><trkpt lat="43.28730665607719" lon="11.545693480623832"><ele>312.0</ele><time>2026-03-29T09:10:15.966Z</time></trkpt><trkpt lat="43.28733722414323" lon="11.545501903931235"><ele>309.25</ele><time>2026-03-29T09:10:16.966Z</time></trkpt><trkpt lat="43.28735048560537" lon="11.545317042928689"><ele>306.5</ele><time>2026-03-29T09:10:17.965Z</time></trkpt><trkpt lat="43.28738328197675" lon="11.545147514520309"><ele>303.75</ele><time>2026-03-29T09:10:18.964Z</time></trkpt><trkpt lat="43.28738658571408" lon="11.544985443081805"><ele>301.0</ele><time>2026-03-29T09:10:19.963Z</time></trkpt><trkpt lat="43.287400129347866" lon="11.54481162407484"><ele>301.0</ele><time>2026-03-29T09:10:20.963Z</time></trkpt><trkpt lat="43.2874207921423" lon="11.544626978059945"><ele>301.0</ele><time>2026-03-29T09:10:21.962Z</time></trkpt><trkpt lat="43.287465838773244" lon="11.54443679985"><ele>301.0</ele><time>2026-03-29T09:10:22.962Z</time></trkpt><trkpt lat="43.287512942472944" lon="11.544261369781582"><ele>301.0</ele><time>2026-03-29T09:10:23.961Z</time></trkpt><trkpt lat="43.2875632492474" lon="11.544135998089102"><ele>300.5</ele><time>2026-03-29T09:10:24.961Z</time></trkpt><trkpt lat="43.28760798105308" lon="11.544028108718917"><ele>300.0</ele><time>2026-03-29T09:10:25.96Z</time></trkpt><trkpt lat="43.287631688145254" lon="11.543900731143522"><ele>299.5</ele><time>2026-03-29T09:10:26.96Z</time></trkpt><trkpt lat="43.28763090542106" lon="11.543723390285013"><ele>299.0</ele><time>2026-03-29T09:10:27.959Z</time></trkpt><trkpt lat="43.28762330846893" lon="11.5435125668853"><ele>297.33333333333337</ele><time>2026-03-29T09:10:28.959Z</time></trkpt><trkpt lat="43.28763284816986" lon="11.543281290567505"><ele>295.6666666666667</ele><time>2026-03-29T09:10:29.959Z</time></trkpt><trkpt lat="43.28769026942987" lon="11.543076916142066"><ele>294.0</ele><time>2026-03-29T09:10:30.958Z</time></trkpt><trkpt lat="43.28772580464998" lon="11.542863261690005"><ele>291.0</ele><time>2026-03-29T09:10:31.958Z</time></trkpt><trkpt lat="43.28778677573691" lon="11.542673476954777"><ele>288.0</ele><time>2026-03-29T09:10:32.958Z</time></trkpt><trkpt lat="43.28786284747133" lon="11.542535151987483"><ele>285.0</ele><time>2026-03-29T09:10:33.957Z</time></trkpt><trkpt lat="43.28794903871734" lon="11.542387031650835"><ele>282.0</ele><time>2026-03-29T09:10:34.957Z</time></trkpt><trkpt lat="43.288051643572" lon="11.542205130795827"><ele>288.6666666666667</ele><time>2026-03-29T09:10:35.957Z</time></trkpt><trkpt lat="43.288135895213074" lon="11.541994778737097"><ele>295.33333333333337</ele><time>2026-03-29T09:10:36.957Z</time></trkpt><trkpt lat="43.28821562591469" lon="11.541803018285217"><ele>302.0</ele><time>2026-03-29T09:10:37.956Z</time></trkpt><trkpt lat="43.288272111275035" lon="11.541635030466018"><ele>302.0</ele><time>2026-03-29T09:10:38.956Z</time></trkpt><trkpt lat="43.288320019480075" lon="11.541511209649922"><ele>302.0</ele><time>2026-03-29T09:10:39.956Z</time></trkpt><trkpt lat="43.28840397869353" lon="11.541435871467552"><ele>302.0</ele><time>2026-03-29T09:10:40.956Z</time></trkpt><trkpt lat="43.288499845165326" lon="11.541349786537621"><ele>302.0</ele><time>2026-03-29T09:10:41.956Z</time></trkpt><trkpt lat="43.28861592588429" lon="11.541284511632698"><ele>302.0</ele><time>2026-03-29T09:10:42.956Z</time></trkpt><trkpt lat="43.28875666298681" lon="11.541239188278263"><ele>302.0</ele><time>2026-03-29T09:10:43.955Z</time></trkpt><trkpt lat="43.288931330400096" lon="11.541189343013126"><ele>302.0</ele><time>2026-03-29T09:10:44.955Z</time></trkpt><trkpt lat="43.28907926679536" lon="11.541124021229573"><ele>302.0</ele><time>2026-03-29T09:10:45.955Z</time></trkpt><trkpt lat="43.28920656382101" lon="11.541089785355426"><ele>302.0</ele><time>2026-03-29T09:10:46.955Z</time></trkpt><trkpt lat="43.28933233215009" lon="11.541080626990693"><ele>302.0</ele><time>2026-03-29T09:10:47.955Z</time></trkpt><trkpt lat="43.289449618880646" lon="11.541141063231516"><ele>302.0</ele><time>2026-03-29T09:10:48.955Z</time></trkpt><trkpt lat="43.289594195237456" lon="11.541197184566288"><ele>302.0</ele><time>2026-03-29T09:10:49.955Z</time></trkpt><trkpt lat="43.28975444979364" lon="11.541208263747412"><ele>302.0</ele><time>2026-03-29T09:10:50.954Z</time></trkpt><trkpt lat="43.28990111982331" lon="11.541221629453414"><ele>302.0</ele><time>2026-03-29T09:10:51.954Z</time></trkpt><trkpt lat="43.29003577452825" lon="11.541199905771547"><ele>302.0</ele><time>2026-03-29T09:10:52.954Z</time></trkpt><trkpt lat="43.29016393938772" lon="11.541208093084478"><ele>302.0</ele><time>2026-03-29T09:10:53.954Z</time></trkpt><trkpt lat="43.290275576248916" lon="11.541193854154995"><ele>304.0</ele><time>2026-03-29T09:10:54.954Z</time></trkpt><trkpt lat="43.29040430241786" lon="11.541249925573343"><ele>306.0</ele><time>2026-03-29T09:10:55.954Z</time></trkpt><trkpt lat="43.290523993833105" lon="11.54129033605003"><ele>308.0</ele><time>2026-03-29T09:10:56.954Z</time></trkpt><trkpt lat="43.29063625895999" lon="11.541341066710862"><ele>310.0</ele><time>2026-03-29T09:10:57.954Z</time></trkpt><trkpt lat="43.29074163385563" lon="11.5413735195143"><ele>310.0</ele><time>2026-03-29T09:10:58.954Z</time></trkpt><trkpt lat="43.2908453825314" lon="11.541390152675538"><ele>310.0</ele><time>2026-03-29T09:10:59.954Z</time></trkpt><trkpt lat="43.29095371050517" lon="11.54138590237784"><ele>310.0</ele><time>2026-03-29T09:11:00.954Z</time></trkpt><trkpt lat="43.291057934109325" lon="11.541334536437601"><ele>310.0</ele><time>2026-03-29T09:11:01.954Z</time></trkpt><trkpt lat="43.29114233671443" lon="11.541261919574161"><ele>310.0</ele><time>2026-03-29T09:11:02.954Z</time></trkpt><trkpt lat="43.29122420845133" lon="11.541191125910132"><ele>308.5</ele><time>2026-03-29T09:11:03.954Z</time></trkpt><trkpt lat="43.29130346222589" lon="11.541078564789403"><ele>307.0</ele><time>2026-03-29T09:11:04.953Z</time></trkpt><trkpt lat="43.2913602510999" lon="11.540940433070828"><ele>305.5</ele><time>2026-03-29T09:11:05.953Z</time></trkpt><trkpt lat="43.291334725207655" lon="11.54077620844077"><ele>304.0</ele><time>2026-03-29T09:11:06.953Z</time></trkpt><trkpt lat="43.29133462090592" lon="11.5406241867492"><ele>304.0</ele><time>2026-03-29T09:11:07.953Z</time></trkpt><trkpt lat="43.29132380108512" lon="11.540471290014807"><ele>304.0</ele><time>2026-03-29T09:11:08.953Z</time></trkpt><trkpt lat="43.291316907433234" lon="11.540323586447906"><ele>304.0</ele><time>2026-03-29T09:11:09.953Z</time></trkpt><trkpt lat="43.29132812745503" lon="11.540201925032408"><ele>304.0</ele><time>2026-03-29T09:11:10.953Z</time></trkpt><trkpt lat="43.29135112331258" lon="11.54007939655"><ele>304.0</ele><time>2026-03-29T09:11:11.953Z</time></trkpt><trkpt lat="43.291385176715266" lon="11.539945335210682"><ele>304.75</ele><time>2026-03-29T09:11:12.953Z</time></trkpt><trkpt lat="43.29143595653192" lon="11.539801080041181"><ele>305.5</ele><time>2026-03-29T09:11:13.953Z</time></trkpt><trkpt lat="43.29148864260056" lon="11.53965350725282"><ele>306.25</ele><time>2026-03-29T09:11:14.953Z</time></trkpt><trkpt lat="43.29154064829979" lon="11.539505712236167"><ele>307.0</ele><time>2026-03-29T09:11:15.953Z</time></trkpt><trkpt lat="43.29158866441407" lon="11.539360942549608"><ele>309.0</ele><time>2026-03-29T09:11:16.953Z</time></trkpt><trkpt lat="43.29164327228802" lon="11.539213539697707"><ele>311.0</ele><time>2026-03-29T09:11:17.953Z</time></trkpt><trkpt lat="43.291701611883866" lon="11.53906525617719"><ele>313.0</ele><time>2026-03-29T09:11:18.953Z</time></trkpt><trkpt lat="43.29177123869566" lon="11.538948700991778"><ele>315.0</ele><time>2026-03-29T09:11:19.953Z</time></trkpt><trkpt lat="43.29183058303975" lon="11.5388523148145"><ele>317.0</ele><time>2026-03-29T09:11:20.953Z</time></trkpt><trkpt lat="43.29191862888075" lon="11.53878842141728"><ele>317.0</ele><time>2026-03-29T09:11:21.953Z</time></trkpt><trkpt lat="43.29203132106044" lon="11.53880973209223"><ele>317.0</ele><time>2026-03-29T09:11:22.953Z</time></trkpt><trkpt lat="43.29214178021732" lon="11.538843572301227"><ele>317.0</ele><time>2026-03-29T09:11:23.953Z</time></trkpt><trkpt lat="43.29226358511248" lon="11.538890504195074"><ele>317.0</ele><time>2026-03-29T09:11:24.953Z</time></trkpt><trkpt lat="43.29237821824895" lon="11.53891991287752"><ele>317.0</ele><time>2026-03-29T09:11:25.953Z</time></trkpt><trkpt lat="43.29250055513977" lon="11.538941722580608"><ele>317.0</ele><time>2026-03-29T09:11:26.953Z</time></trkpt><trkpt lat="43.292618542632255" lon="11.538932082976997"><ele>317.0</ele><time>2026-03-29T09:11:27.954Z</time></trkpt><trkpt lat="43.29272456721688" lon="11.538891440016195"><ele>317.0</ele><time>2026-03-29T09:11:28.953Z</time></trkpt><trkpt lat="43.29283040958623" lon="11.538808419094362"><ele>315.33333333333337</ele><time>2026-03-29T09:11:29.953Z</time></trkpt><trkpt lat="43.29293616320343" lon="11.53869283583834"><ele>313.6666666666667</ele><time>2026-03-29T09:11:30.953Z</time></trkpt><trkpt lat="43.293073823691586" lon="11.538554673941809"><ele>312.0</ele><time>2026-03-29T09:11:31.954Z</time></trkpt><trkpt lat="43.293232694900375" lon="11.538405252395675"><ele>312.0</ele><time>2026-03-29T09:11:32.954Z</time></trkpt><trkpt lat="43.29340781269613" lon="11.53825016409635"><ele>312.0</ele><time>2026-03-29T09:11:33.954Z</time></trkpt><trkpt lat="43.29359124647759" lon="11.538107659665508"><ele>312.0</ele><time>2026-03-29T09:11:34.953Z</time></trkpt><trkpt lat="43.29376472746194" lon="11.53794874978703"><ele>312.3333333333333</ele><time>2026-03-29T09:11:35.953Z</time></trkpt><trkpt lat="43.29392888486513" lon="11.537800940459803"><ele>312.66666666666663</ele><time>2026-03-29T09:11:36.953Z</time></trkpt><trkpt lat="43.29407607721279" lon="11.537643510343564"><ele>313.0</ele><time>2026-03-29T09:11:37.953Z</time></trkpt><trkpt lat="43.29420713806533" lon="11.537454665256316"><ele>313.0</ele><time>2026-03-29T09:11:38.953Z</time></trkpt><trkpt lat="43.29433033411403" lon="11.537298975891343"><ele>313.0</ele><time>2026-03-29T09:11:39.953Z</time></trkpt><trkpt lat="43.29445225840661" lon="11.537180162795396"><ele>313.0</ele><time>2026-03-29T09:11:40.953Z</time></trkpt><trkpt lat="43.294558137300285" lon="11.537077781935976"><ele>313.0</ele><time>2026-03-29T09:11:41.953Z</time></trkpt><trkpt lat="43.294653803344616" lon="11.537013785576374"><ele>311.5</ele><time>2026-03-29T09:11:42.953Z</time></trkpt><trkpt lat="43.29475347763981" lon="11.5369548742484"><ele>310.0</ele><time>2026-03-29T09:11:43.953Z</time></trkpt><trkpt lat="43.294865980520576" lon="11.536888509602495"><ele>308.5</ele><time>2026-03-29T09:11:44.953Z</time></trkpt><trkpt lat="43.29497811340908" lon="11.53682315727038"><ele>307.0</ele><time>2026-03-29T09:11:45.953Z</time></trkpt><trkpt lat="43.295088528172535" lon="11.53680357932037"><ele>307.0</ele><time>2026-03-29T09:11:46.953Z</time></trkpt><trkpt lat="43.29521608613216" lon="11.536796761840588"><ele>307.0</ele><time>2026-03-29T09:11:47.953Z</time></trkpt><trkpt lat="43.29532691959141" lon="11.536757098289836"><ele>307.0</ele><time>2026-03-29T09:11:48.953Z</time></trkpt><trkpt lat="43.295431240714" lon="11.536664064338071"><ele>307.0</ele><time>2026-03-29T09:11:49.953Z</time></trkpt><trkpt lat="43.29551983741287" lon="11.536533495944905"><ele>309.0</ele><time>2026-03-29T09:11:50.953Z</time></trkpt><trkpt lat="43.2955934406111" lon="11.536351972483343"><ele>311.0</ele><time>2026-03-29T09:11:51.953Z</time></trkpt><trkpt lat="43.29567008528534" lon="11.536140210462738"><ele>313.0</ele><time>2026-03-29T09:11:52.953Z</time></trkpt><trkpt lat="43.29574102140564" lon="11.535929905562615"><ele>315.5</ele><time>2026-03-29T09:11:53.953Z</time></trkpt><trkpt lat="43.295796882231464" lon="11.535733664914675"><ele>318.0</ele><time>2026-03-29T09:11:54.953Z</time></trkpt><trkpt lat="43.295811889149064" lon="11.535550600600446"><ele>320.5</ele><time>2026-03-29T09:11:55.953Z</time></trkpt><trkpt lat="43.295822836535564" lon="11.535377249537788"><ele>323.0</ele><time>2026-03-29T09:11:56.953Z</time></trkpt><trkpt lat="43.295828359846695" lon="11.535204522604733"><ele>323.79999999999995</ele><time>2026-03-29T09:11:57.953Z</time></trkpt><trkpt lat="43.295844184539654" lon="11.535049225135552"><ele>324.6</ele><time>2026-03-29T09:11:58.953Z</time></trkpt><trkpt lat="43.29585345768105" lon="11.534909585065991"><ele>325.4</ele><time>2026-03-29T09:11:59.953Z</time></trkpt><trkpt lat="43.29584405282519" lon="11.53478233508986"><ele>326.20000000000005</ele><time>2026-03-29T09:12:00.953Z</time></trkpt><trkpt lat="43.29579539814891" lon="11.534676864371262"><ele>327.0</ele><time>2026-03-29T09:12:01.953Z</time></trkpt><trkpt lat="43.29572801531842" lon="11.53458599091257"><ele>327.25</ele><time>2026-03-29T09:12:02.953Z</time></trkpt><trkpt lat="43.2956302614987" lon="11.53452202261712"><ele>327.5</ele><time>2026-03-29T09:12:03.953Z</time></trkpt><trkpt lat="43.29550308302378" lon="11.534442000875586"><ele>327.75</ele><time>2026-03-29T09:12:04.953Z</time></trkpt><trkpt lat="43.29537084684234" lon="11.534337940820775"><ele>328.0</ele><time>2026-03-29T09:12:05.953Z</time></trkpt><trkpt lat="43.295268294896445" lon="11.534219738500791"><ele>328.5</ele><time>2026-03-29T09:12:06.953Z</time></trkpt><trkpt lat="43.29517401599835" lon="11.534121813014801"><ele>329.0</ele><time>2026-03-29T09:12:07.953Z</time></trkpt><trkpt lat="43.29511049328612" lon="11.534004175095967"><ele>329.5</ele><time>2026-03-29T09:12:08.953Z</time></trkpt><trkpt lat="43.29501527488626" lon="11.533895209197802"><ele>330.0</ele><time>2026-03-29T09:12:09.953Z</time></trkpt><trkpt lat="43.29488048543376" lon="11.533814230924897"><ele>328.25</ele><time>2026-03-29T09:12:10.953Z</time></trkpt><trkpt lat="43.29474258392283" lon="11.533752363285648"><ele>326.5</ele><time>2026-03-29T09:12:11.953Z</time></trkpt><trkpt lat="43.29461937714686" lon="11.533692617708573"><ele>324.75</ele><time>2026-03-29T09:12:12.953Z</time></trkpt><trkpt lat="43.29454211507551" lon="11.533591292013897"><ele>323.0</ele><time>2026-03-29T09:12:13.953Z</time></trkpt><trkpt lat="43.294495730389684" lon="11.533496689965471"><ele>323.0</ele><time>2026-03-29T09:12:14.953Z</time></trkpt><trkpt lat="43.29447181531647" lon="11.533364156598203"><ele>323.0</ele><time>2026-03-29T09:12:15.953Z</time></trkpt><trkpt lat="43.29441442579085" lon="11.53318430800839"><ele>323.0</ele><time>2026-03-29T09:12:16.953Z</time></trkpt><trkpt lat="43.294479993424176" lon="11.532951100266997"><ele>323.0</ele><time>2026-03-29T09:12:17.953Z</time></trkpt><trkpt lat="43.2944639385632" lon="11.532758353768035"><ele>323.5</ele><time>2026-03-29T09:12:18.953Z</time></trkpt><trkpt lat="43.29446745245136" lon="11.532580017157926"><ele>324.0</ele><time>2026-03-29T09:12:19.953Z</time></trkpt><trkpt lat="43.29449402356563" lon="11.53241381081133"><ele>324.5</ele><time>2026-03-29T09:12:20.953Z</time></trkpt><trkpt lat="43.294539624268225" lon="11.532243654656288"><ele>325.0</ele><time>2026-03-29T09:12:21.953Z</time></trkpt><trkpt lat="43.294594765928565" lon="11.53207726337438"><ele>325.5</ele><time>2026-03-29T09:12:22.953Z</time></trkpt><trkpt lat="43.294665425496355" lon="11.531917851290212"><ele>326.0</ele><time>2026-03-29T09:12:23.953Z</time></trkpt><trkpt lat="43.294744164655334" lon="11.531754017343923"><ele>326.5</ele><time>2026-03-29T09:12:24.953Z</time></trkpt><trkpt lat="43.2948276473338" lon="11.531590679372878"><ele>327.0</ele><time>2026-03-29T09:12:25.953Z</time></trkpt><trkpt lat="43.294897000832734" lon="11.531422611936602"><ele>325.25</ele><time>2026-03-29T09:12:26.953Z</time></trkpt><trkpt lat="43.294971855623004" lon="11.531281970377458"><ele>323.5</ele><time>2026-03-29T09:12:27.953Z</time></trkpt><trkpt lat="43.295046769702374" lon="11.531154436648047"><ele>321.75</ele><time>2026-03-29T09:12:28.952Z</time></trkpt><trkpt lat="43.295132773134995" lon="11.531034699044794"><ele>320.0</ele><time>2026-03-29T09:12:29.952Z</time></trkpt><trkpt lat="43.29523511334154" lon="11.530931389304035"><ele>320.0</ele><time>2026-03-29T09:12:30.952Z</time></trkpt><trkpt lat="43.295357925465396" lon="11.530848694318394"><ele>320.0</ele><time>2026-03-29T09:12:31.952Z</time></trkpt><trkpt lat="43.295483700976995" lon="11.530757898554238"><ele>320.0</ele><time>2026-03-29T09:12:32.952Z</time></trkpt><trkpt lat="43.2956105321774" lon="11.530677914338325"><ele>320.0</ele><time>2026-03-29T09:12:33.952Z</time></trkpt><trkpt lat="43.295726108813845" lon="11.53059071669264"><ele>317.0</ele><time>2026-03-29T09:12:34.952Z</time></trkpt><trkpt lat="43.29584764735359" lon="11.530532836539535"><ele>314.0</ele><time>2026-03-29T09:12:35.952Z</time></trkpt><trkpt lat="43.295972813647445" lon="11.530483702300842"><ele>311.0</ele><time>2026-03-29T09:12:36.952Z</time></trkpt><trkpt lat="43.29609537894583" lon="11.530435031963025"><ele>308.0</ele><time>2026-03-29T09:12:37.952Z</time></trkpt><trkpt lat="43.29621228181888" lon="11.530387354075737"><ele>308.0</ele><time>2026-03-29T09:12:38.952Z</time></trkpt><trkpt lat="43.29631801537687" lon="11.53034170411151"><ele>308.0</ele><time>2026-03-29T09:12:39.952Z</time></trkpt><trkpt lat="43.296414592318676" lon="11.530303546143008"><ele>308.0</ele><time>2026-03-29T09:12:40.952Z</time></trkpt><trkpt lat="43.296509952957166" lon="11.530282277777781"><ele>308.0</ele><time>2026-03-29T09:12:41.952Z</time></trkpt><trkpt lat="43.29658092056617" lon="11.53022977552271"><ele>308.0</ele><time>2026-03-29T09:12:42.952Z</time></trkpt><trkpt lat="43.29663382873944" lon="11.530153325848236"><ele>308.0</ele><time>2026-03-29T09:12:43.952Z</time></trkpt><trkpt lat="43.296655824587454" lon="11.530055040610145"><ele>308.0</ele><time>2026-03-29T09:12:44.952Z</time></trkpt><trkpt lat="43.29664790015549" lon="11.529946691952548"><ele>308.0</ele><time>2026-03-29T09:12:45.952Z</time></trkpt><trkpt lat="43.29660219657367" lon="11.529846019691067"><ele>308.0</ele><time>2026-03-29T09:12:46.952Z</time></trkpt><trkpt lat="43.29653308709891" lon="11.529776895451224"><ele>308.0</ele><time>2026-03-29T09:12:47.952Z</time></trkpt><trkpt lat="43.29644261086324" lon="11.529721656635298"><ele>308.0</ele><time>2026-03-29T09:12:48.952Z</time></trkpt><trkpt lat="43.296319486528944" lon="11.529675565351962"><ele>308.0</ele><time>2026-03-29T09:12:49.952Z</time></trkpt><trkpt lat="43.29618305404794" lon="11.529625025095864"><ele>308.0</ele><time>2026-03-29T09:12:50.952Z</time></trkpt><trkpt lat="43.29605778451599" lon="11.529590665558816"><ele>308.0</ele><time>2026-03-29T09:12:51.952Z</time></trkpt><trkpt lat="43.2959436935066" lon="11.529577733080512"><ele>308.0</ele><time>2026-03-29T09:12:52.952Z</time></trkpt><trkpt lat="43.295843713384514" lon="11.529493617249893"><ele>305.25</ele><time>2026-03-29T09:12:53.952Z</time></trkpt><trkpt lat="43.295726086787056" lon="11.529397796519115"><ele>302.5</ele><time>2026-03-29T09:12:54.952Z</time></trkpt><trkpt lat="43.29559397716409" lon="11.529329482837323"><ele>299.75</ele><time>2026-03-29T09:12:55.952Z</time></trkpt><trkpt lat="43.29548932712003" lon="11.529287511019"><ele>297.0</ele><time>2026-03-29T09:12:56.952Z</time></trkpt><trkpt lat="43.2954135862244" lon="11.52923831054577"><ele>297.0</ele><time>2026-03-29T09:12:57.952Z</time></trkpt><trkpt lat="43.2953535313142" lon="11.529194796449957"><ele>297.0</ele><time>2026-03-29T09:12:58.952Z</time></trkpt><trkpt lat="43.29530014655947" lon="11.529042930614393"><ele>297.0</ele><time>2026-03-29T09:13:00.952Z</time></trkpt><trkpt lat="43.29533017655462" lon="11.528954596646878"><ele>297.0</ele><time>2026-03-29T09:13:01.952Z</time></trkpt><trkpt lat="43.295403082646054" lon="11.528901392020167"><ele>297.0</ele><time>2026-03-29T09:13:02.952Z</time></trkpt><trkpt lat="43.29548329483239" lon="11.528848465857417"><ele>297.0</ele><time>2026-03-29T09:13:03.952Z</time></trkpt><trkpt lat="43.29558579243921" lon="11.528774287522355"><ele>296.0</ele><time>2026-03-29T09:13:04.952Z</time></trkpt><trkpt lat="43.29568677276243" lon="11.528666715593937"><ele>295.0</ele><time>2026-03-29T09:13:05.952Z</time></trkpt><trkpt lat="43.29577030711155" lon="11.528587310800692"><ele>294.0</ele><time>2026-03-29T09:13:06.952Z</time></trkpt><trkpt lat="43.29583856292604" lon="11.528490695007562"><ele>293.0</ele><time>2026-03-29T09:13:07.952Z</time></trkpt><trkpt lat="43.2958876334095" lon="11.528363049060504"><ele>292.0</ele><time>2026-03-29T09:13:08.952Z</time></trkpt><trkpt lat="43.295919636658255" lon="11.528205346105771"><ele>292.0</ele><time>2026-03-29T09:13:09.952Z</time></trkpt><trkpt lat="43.295933647171715" lon="11.528005989550456"><ele>292.0</ele><time>2026-03-29T09:13:10.952Z</time></trkpt><trkpt lat="43.295955648241346" lon="11.527790545418993"><ele>292.0</ele><time>2026-03-29T09:13:11.952Z</time></trkpt><trkpt lat="43.29599874220459" lon="11.527561201735661"><ele>292.0</ele><time>2026-03-29T09:13:12.952Z</time></trkpt><trkpt lat="43.29602906532335" lon="11.527346245231389"><ele>292.0</ele><time>2026-03-29T09:13:13.952Z</time></trkpt><trkpt lat="43.29606136438625" lon="11.527165567969988"><ele>292.0</ele><time>2026-03-29T09:13:14.952Z</time></trkpt><trkpt lat="43.29612367337475" lon="11.52698349360216"><ele>292.0</ele><time>2026-03-29T09:13:15.952Z</time></trkpt><trkpt lat="43.29624066675915" lon="11.526812489217283"><ele>291.0</ele><time>2026-03-29T09:13:16.952Z</time></trkpt><trkpt lat="43.296349751697306" lon="11.526599679334371"><ele>290.0</ele><time>2026-03-29T09:13:17.952Z</time></trkpt><trkpt lat="43.296463202963956" lon="11.526433336276966"><ele>289.0</ele><time>2026-03-29T09:13:18.952Z</time></trkpt><trkpt lat="43.296558278096036" lon="11.52629048826952"><ele>289.0</ele><time>2026-03-29T09:13:19.952Z</time></trkpt><trkpt lat="43.29665542194209" lon="11.526206975372366"><ele>289.0</ele><time>2026-03-29T09:13:20.952Z</time></trkpt><trkpt lat="43.29672572215981" lon="11.526116681362765"><ele>289.0</ele><time>2026-03-29T09:13:21.952Z</time></trkpt><trkpt lat="43.29677925646672" lon="11.52603231494814"><ele>289.0</ele><time>2026-03-29T09:13:22.952Z</time></trkpt><trkpt lat="43.29679587660265" lon="11.525914128091827"><ele>289.0</ele><time>2026-03-29T09:13:23.952Z</time></trkpt><trkpt lat="43.29678175644598" lon="11.52575986296048"><ele>289.0</ele><time>2026-03-29T09:13:24.952Z</time></trkpt><trkpt lat="43.29675582589126" lon="11.5255887670213"><ele>289.0</ele><time>2026-03-29T09:13:25.952Z</time></trkpt><trkpt lat="43.29674388031636" lon="11.525399032174462"><ele>289.0</ele><time>2026-03-29T09:13:26.952Z</time></trkpt><trkpt lat="43.296778464118205" lon="11.525212742460408"><ele>289.0</ele><time>2026-03-29T09:13:27.952Z</time></trkpt><trkpt lat="43.29678271327256" lon="11.525017775462"><ele>290.0</ele><time>2026-03-29T09:13:28.951Z</time></trkpt><trkpt lat="43.296734355898465" lon="11.52482637032729"><ele>291.0</ele><time>2026-03-29T09:13:29.951Z</time></trkpt><trkpt lat="43.29666119921909" lon="11.524639853315286"><ele>292.0</ele><time>2026-03-29T09:13:30.951Z</time></trkpt><trkpt lat="43.29659192570681" lon="11.52444977173513"><ele>295.3333333333333</ele><time>2026-03-29T09:13:31.951Z</time></trkpt><trkpt lat="43.29655617328999" lon="11.52425916631437"><ele>298.6666666666667</ele><time>2026-03-29T09:13:32.951Z</time></trkpt><trkpt lat="43.2965428589659" lon="11.524031277333995"><ele>302.0</ele><time>2026-03-29T09:13:33.952Z</time></trkpt><trkpt lat="43.296497659697025" lon="11.523810511200496"><ele>303.6666666666667</ele><time>2026-03-29T09:13:34.952Z</time></trkpt><trkpt lat="43.29647467357916" lon="11.523584969813584"><ele>305.3333333333333</ele><time>2026-03-29T09:13:35.952Z</time></trkpt><trkpt lat="43.296447530825596" lon="11.523389245796887"><ele>307.0</ele><time>2026-03-29T09:13:36.952Z</time></trkpt><trkpt lat="43.29642882602583" lon="11.523188056723534"><ele>307.0</ele><time>2026-03-29T09:13:37.952Z</time></trkpt><trkpt lat="43.296420277886426" lon="11.522980652604506"><ele>307.0</ele><time>2026-03-29T09:13:38.952Z</time></trkpt><trkpt lat="43.296440947277986" lon="11.522812050820301"><ele>307.0</ele><time>2026-03-29T09:13:39.951Z</time></trkpt><trkpt lat="43.296449163508505" lon="11.522651987005654"><ele>307.0</ele><time>2026-03-29T09:13:40.951Z</time></trkpt><trkpt lat="43.2965034810128" lon="11.52249261415482"><ele>306.75</ele><time>2026-03-29T09:13:41.951Z</time></trkpt><trkpt lat="43.296612970476346" lon="11.522359344981128"><ele>306.5</ele><time>2026-03-29T09:13:42.952Z</time></trkpt><trkpt lat="43.29667950919179" lon="11.522183795677158"><ele>306.25</ele><time>2026-03-29T09:13:43.952Z</time></trkpt><trkpt lat="43.296715040390836" lon="11.522006549273994"><ele>306.0</ele><time>2026-03-29T09:13:44.952Z</time></trkpt><trkpt lat="43.29673790077915" lon="11.521843943421583"><ele>304.0</ele><time>2026-03-29T09:13:45.952Z</time></trkpt><trkpt lat="43.29675977725322" lon="11.521721388807098"><ele>302.0</ele><time>2026-03-29T09:13:46.951Z</time></trkpt><trkpt lat="43.296800652005416" lon="11.521615989635857"><ele>300.0</ele><time>2026-03-29T09:13:47.951Z</time></trkpt><trkpt lat="43.2968754880015" lon="11.521518220012235"><ele>298.0</ele><time>2026-03-29T09:13:48.951Z</time></trkpt><trkpt lat="43.2970015687664" lon="11.521477684813487"><ele>296.0</ele><time>2026-03-29T09:13:49.951Z</time></trkpt><trkpt lat="43.29712884301083" lon="11.521414909286985"><ele>296.0</ele><time>2026-03-29T09:13:50.951Z</time></trkpt><trkpt lat="43.29725173701962" lon="11.521371591212455"><ele>296.0</ele><time>2026-03-29T09:13:51.951Z</time></trkpt><trkpt lat="43.297379759812586" lon="11.521347169705162"><ele>296.0</ele><time>2026-03-29T09:13:52.951Z</time></trkpt><trkpt lat="43.29749434761218" lon="11.521378822124117"><ele>296.0</ele><time>2026-03-29T09:13:53.951Z</time></trkpt><trkpt lat="43.2976065678046" lon="11.521438915367622"><ele>298.0</ele><time>2026-03-29T09:13:54.951Z</time></trkpt><trkpt lat="43.2976983255335" lon="11.52153279999237"><ele>300.0</ele><time>2026-03-29T09:13:55.951Z</time></trkpt><trkpt lat="43.297793252775854" lon="11.521631654329067"><ele>302.0</ele><time>2026-03-29T09:13:56.951Z</time></trkpt><trkpt lat="43.297875619818235" lon="11.521725870732222"><ele>304.0</ele><time>2026-03-29T09:13:57.951Z</time></trkpt><trkpt lat="43.29796803646176" lon="11.521815479276688"><ele>304.0</ele><time>2026-03-29T09:13:58.951Z</time></trkpt><trkpt lat="43.29803915794295" lon="11.521950508458204"><ele>304.0</ele><time>2026-03-29T09:13:59.951Z</time></trkpt><trkpt lat="43.2981038758485" lon="11.522084940430338"><ele>304.0</ele><time>2026-03-29T09:14:00.951Z</time></trkpt><trkpt lat="43.298156640577886" lon="11.522196205039588"><ele>304.0</ele><time>2026-03-29T09:14:01.951Z</time></trkpt><trkpt lat="43.29822207297329" lon="11.5222738711852"><ele>304.0</ele><time>2026-03-29T09:14:02.951Z</time></trkpt><trkpt lat="43.2983184686727" lon="11.5223448982579"><ele>304.2</ele><time>2026-03-29T09:14:03.951Z</time></trkpt><trkpt lat="43.298444063102735" lon="11.522304450790458"><ele>304.4</ele><time>2026-03-29T09:14:04.951Z</time></trkpt><trkpt lat="43.2985538262533" lon="11.522257285592023"><ele>304.6</ele><time>2026-03-29T09:14:05.951Z</time></trkpt><trkpt lat="43.298638613193766" lon="11.522243013315952"><ele>304.8</ele><time>2026-03-29T09:14:06.951Z</time></trkpt><trkpt lat="43.29871250091336" lon="11.522268305621123"><ele>305.0</ele><time>2026-03-29T09:14:07.951Z</time></trkpt><trkpt lat="43.298782027336024" lon="11.522356240819311"><ele>305.0</ele><time>2026-03-29T09:14:08.951Z</time></trkpt><trkpt lat="43.29886214615434" lon="11.522467999241272"><ele>305.0</ele><time>2026-03-29T09:14:09.951Z</time></trkpt><trkpt lat="43.29897208233782" lon="11.522535953633586"><ele>305.0</ele><time>2026-03-29T09:14:10.951Z</time></trkpt><trkpt lat="43.29911496631796" lon="11.52254394483833"><ele>305.0</ele><time>2026-03-29T09:14:11.951Z</time></trkpt><trkpt lat="43.29924237875672" lon="11.52252964378322"><ele>303.6</ele><time>2026-03-29T09:14:12.951Z</time></trkpt><trkpt lat="43.29935317120081" lon="11.522508775635652"><ele>302.2</ele><time>2026-03-29T09:14:13.951Z</time></trkpt><trkpt lat="43.29946120073998" lon="11.522472087281924"><ele>300.8</ele><time>2026-03-29T09:14:14.951Z</time></trkpt><trkpt lat="43.29955348923272" lon="11.522383319913745"><ele>299.4</ele><time>2026-03-29T09:14:15.951Z</time></trkpt><trkpt lat="43.29964585550213" lon="11.522338166142628"><ele>298.0</ele><time>2026-03-29T09:14:16.951Z</time></trkpt><trkpt lat="43.29973498745095" lon="11.522283337488606"><ele>298.25</ele><time>2026-03-29T09:14:17.951Z</time></trkpt><trkpt lat="43.29983713650779" lon="11.52224933160691"><ele>298.5</ele><time>2026-03-29T09:14:18.951Z</time></trkpt><trkpt lat="43.29995790480908" lon="11.522235689135632"><ele>298.75</ele><time>2026-03-29T09:14:19.951Z</time></trkpt><trkpt lat="43.30009149100085" lon="11.522256366505774"><ele>299.0</ele><time>2026-03-29T09:14:20.951Z</time></trkpt><trkpt lat="43.30021721490386" lon="11.522287165674435"><ele>299.0</ele><time>2026-03-29T09:14:21.951Z</time></trkpt><trkpt lat="43.30034563985006" lon="11.522338177547912"><ele>299.0</ele><time>2026-03-29T09:14:22.951Z</time></trkpt><trkpt lat="43.30046396419957" lon="11.522397939680586"><ele>299.0</ele><time>2026-03-29T09:14:23.951Z</time></trkpt><trkpt lat="43.30060909011065" lon="11.522445025349471"><ele>299.0</ele><time>2026-03-29T09:14:24.951Z</time></trkpt><trkpt lat="43.30077086508183" lon="11.52251679413741"><ele>297.75</ele><time>2026-03-29T09:14:25.951Z</time></trkpt><trkpt lat="43.300929576382025" lon="11.522556049992009"><ele>296.5</ele><time>2026-03-29T09:14:26.951Z</time></trkpt><trkpt lat="43.301076267689425" lon="11.52260413049153"><ele>295.25</ele><time>2026-03-29T09:14:27.951Z</time></trkpt><trkpt lat="43.301192921247875" lon="11.52268539372946"><ele>294.0</ele><time>2026-03-29T09:14:28.95Z</time></trkpt><trkpt lat="43.30131275149245" lon="11.522739391687528"><ele>293.0</ele><time>2026-03-29T09:14:29.95Z</time></trkpt><trkpt lat="43.30142349897964" lon="11.522813278367119"><ele>292.0</ele><time>2026-03-29T09:14:30.95Z</time></trkpt><trkpt lat="43.301552995021765" lon="11.522871386635002"><ele>291.0</ele><time>2026-03-29T09:14:31.95Z</time></trkpt><trkpt lat="43.30169456082656" lon="11.522896516968878"><ele>290.0</ele><time>2026-03-29T09:14:32.95Z</time></trkpt><trkpt lat="43.30183448620848" lon="11.522920866373985"><ele>290.5</ele><time>2026-03-29T09:14:33.95Z</time></trkpt><trkpt lat="43.3019594263533" lon="11.52293650068291"><ele>291.0</ele><time>2026-03-29T09:14:34.95Z</time></trkpt><trkpt lat="43.30207122519466" lon="11.522948686604794"><ele>291.5</ele><time>2026-03-29T09:14:35.95Z</time></trkpt><trkpt lat="43.30219285072614" lon="11.522935010124709"><ele>292.0</ele><time>2026-03-29T09:14:36.95Z</time></trkpt><trkpt lat="43.30232522557111" lon="11.522882886213557"><ele>292.0</ele><time>2026-03-29T09:14:37.95Z</time></trkpt><trkpt lat="43.30247712566016" lon="11.522845993307051"><ele>292.0</ele><time>2026-03-29T09:14:38.95Z</time></trkpt><trkpt lat="43.302614695250824" lon="11.522785906277857"><ele>292.0</ele><time>2026-03-29T09:14:39.95Z</time></trkpt><trkpt lat="43.302746175118784" lon="11.52273955052135"><ele>292.0</ele><time>2026-03-29T09:14:40.95Z</time></trkpt><trkpt lat="43.30287646734418" lon="11.52271320676145"><ele>292.0</ele><time>2026-03-29T09:14:41.95Z</time></trkpt><trkpt lat="43.303003627159434" lon="11.52269826725882"><ele>292.0</ele><time>2026-03-29T09:14:42.95Z</time></trkpt><trkpt lat="43.30312883066343" lon="11.522710006351957"><ele>292.0</ele><time>2026-03-29T09:14:43.95Z</time></trkpt><trkpt lat="43.30324168687806" lon="11.522733658794936"><ele>292.0</ele><time>2026-03-29T09:14:44.95Z</time></trkpt><trkpt lat="43.30333712439791" lon="11.522780325533402"><ele>291.25</ele><time>2026-03-29T09:14:45.95Z</time></trkpt><trkpt lat="43.303418784399376" lon="11.522856873506388"><ele>290.5</ele><time>2026-03-29T09:14:46.95Z</time></trkpt><trkpt lat="43.30348028862676" lon="11.522982856719082"><ele>289.75</ele><time>2026-03-29T09:14:47.95Z</time></trkpt><trkpt lat="43.30357238914746" lon="11.523103823980739"><ele>289.0</ele><time>2026-03-29T09:14:48.95Z</time></trkpt><trkpt lat="43.30364958987483" lon="11.523249753431337"><ele>290.25</ele><time>2026-03-29T09:14:49.95Z</time></trkpt><trkpt lat="43.30373392330694" lon="11.523403914740953"><ele>291.5</ele><time>2026-03-29T09:14:50.95Z</time></trkpt><trkpt lat="43.30380464975537" lon="11.523532841610695"><ele>292.75</ele><time>2026-03-29T09:14:51.95Z</time></trkpt><trkpt lat="43.30386567586244" lon="11.523647216158004"><ele>294.0</ele><time>2026-03-29T09:14:52.95Z</time></trkpt><trkpt lat="43.303937990427265" lon="11.52374208310224"><ele>294.0</ele><time>2026-03-29T09:14:53.95Z</time></trkpt><trkpt lat="43.304020263031376" lon="11.523813298761192"><ele>294.0</ele><time>2026-03-29T09:14:54.95Z</time></trkpt><trkpt lat="43.304116628736736" lon="11.523870421481904"><ele>294.0</ele><time>2026-03-29T09:14:55.95Z</time></trkpt><trkpt lat="43.30422175789558" lon="11.52387089932744"><ele>294.0</ele><time>2026-03-29T09:14:56.95Z</time></trkpt><trkpt lat="43.30432544310544" lon="11.523812586669543"><ele>294.0</ele><time>2026-03-29T09:14:57.95Z</time></trkpt><trkpt lat="43.304419627268445" lon="11.523738072587928"><ele>294.0</ele><time>2026-03-29T09:14:58.95Z</time></trkpt><trkpt lat="43.304492974486614" lon="11.523634564308823"><ele>294.0</ele><time>2026-03-29T09:14:59.95Z</time></trkpt><trkpt lat="43.304567266237655" lon="11.52350580021572"><ele>294.0</ele><time>2026-03-29T09:15:00.95Z</time></trkpt><trkpt lat="43.30465024406812" lon="11.523376504355602"><ele>294.0</ele><time>2026-03-29T09:15:01.95Z</time></trkpt><trkpt lat="43.30475006331773" lon="11.523271632769635"><ele>297.0</ele><time>2026-03-29T09:15:02.95Z</time></trkpt><trkpt lat="43.304862562125514" lon="11.523192845397764"><ele>300.0</ele><time>2026-03-29T09:15:03.95Z</time></trkpt><trkpt lat="43.30499842927877" lon="11.523095714879922"><ele>303.0</ele><time>2026-03-29T09:15:04.95Z</time></trkpt><trkpt lat="43.30514590815583" lon="11.523002911523577"><ele>306.0</ele><time>2026-03-29T09:15:05.95Z</time></trkpt><trkpt lat="43.305300464357764" lon="11.522928832104588"><ele>305.0</ele><time>2026-03-29T09:15:06.95Z</time></trkpt><trkpt lat="43.30544901142883" lon="11.522858111136307"><ele>304.0</ele><time>2026-03-29T09:15:07.95Z</time></trkpt><trkpt lat="43.305570577030515" lon="11.522814974206439"><ele>303.0</ele><time>2026-03-29T09:15:08.95Z</time></trkpt><trkpt lat="43.305669325055" lon="11.522798620593704"><ele>302.0</ele><time>2026-03-29T09:15:09.95Z</time></trkpt><trkpt lat="43.305758652507436" lon="11.522808749558951"><ele>305.0</ele><time>2026-03-29T09:15:10.95Z</time></trkpt><trkpt lat="43.30585638807382" lon="11.522850620315502"><ele>308.0</ele><time>2026-03-29T09:15:11.95Z</time></trkpt><trkpt lat="43.305981678168656" lon="11.522907117570583"><ele>311.0</ele><time>2026-03-29T09:15:12.95Z</time></trkpt><trkpt lat="43.30611951584146" lon="11.522966874089073"><ele>314.0</ele><time>2026-03-29T09:15:13.95Z</time></trkpt><trkpt lat="43.306262939017536" lon="11.52300897145881"><ele>317.6666666666667</ele><time>2026-03-29T09:15:14.95Z</time></trkpt><trkpt lat="43.30641960703085" lon="11.523062799989722"><ele>321.3333333333333</ele><time>2026-03-29T09:15:15.95Z</time></trkpt><trkpt lat="43.3065918568281" lon="11.523081635901328"><ele>325.0</ele><time>2026-03-29T09:15:16.95Z</time></trkpt><trkpt lat="43.30676478715349" lon="11.523108149605749"><ele>325.0</ele><time>2026-03-29T09:15:17.95Z</time></trkpt><trkpt lat="43.306928092470024" lon="11.52312120656126"><ele>325.0</ele><time>2026-03-29T09:15:18.95Z</time></trkpt><trkpt lat="43.30708681789258" lon="11.523116591294242"><ele>325.0</ele><time>2026-03-29T09:15:19.95Z</time></trkpt><trkpt lat="43.30722562549057" lon="11.523108418232377"><ele>325.2</ele><time>2026-03-29T09:15:20.95Z</time></trkpt><trkpt lat="43.30734453695354" lon="11.523117701525749"><ele>325.4</ele><time>2026-03-29T09:15:21.95Z</time></trkpt><trkpt lat="43.307450681031234" lon="11.523145548850785"><ele>325.6</ele><time>2026-03-29T09:15:22.95Z</time></trkpt><trkpt lat="43.30753516222655" lon="11.523198396996229"><ele>325.8</ele><time>2026-03-29T09:15:23.95Z</time></trkpt><trkpt lat="43.30758230989457" lon="11.52330154744533"><ele>326.0</ele><time>2026-03-29T09:15:24.95Z</time></trkpt><trkpt lat="43.3076587951765" lon="11.523379018610134"><ele>326.0</ele><time>2026-03-29T09:15:25.95Z</time></trkpt><trkpt lat="43.307745835211946" lon="11.523479175394941"><ele>326.0</ele><time>2026-03-29T09:15:26.95Z</time></trkpt><trkpt lat="43.30787449167374" lon="11.523580389140433"><ele>326.0</ele><time>2026-03-29T09:15:27.95Z</time></trkpt><trkpt lat="43.30798775662127" lon="11.52367103797468"><ele>326.0</ele><time>2026-03-29T09:15:28.95Z</time></trkpt><trkpt lat="43.30808560730439" lon="11.523747977278259"><ele>326.0</ele><time>2026-03-29T09:15:29.949Z</time></trkpt><trkpt lat="43.30817504825003" lon="11.523813982590056"><ele>326.0</ele><time>2026-03-29T09:15:30.949Z</time></trkpt><trkpt lat="43.308268065019554" lon="11.523880256585443"><ele>326.0</ele><time>2026-03-29T09:15:31.949Z</time></trkpt><trkpt lat="43.30835517758057" lon="11.523936910304334"><ele>326.0</ele><time>2026-03-29T09:15:32.949Z</time></trkpt><trkpt lat="43.30843194217697" lon="11.523992257277362"><ele>326.0</ele><time>2026-03-29T09:15:33.949Z</time></trkpt><trkpt lat="43.30849280534569" lon="11.524058558327988"><ele>326.0</ele><time>2026-03-29T09:15:34.949Z</time></trkpt><trkpt lat="43.30853123061338" lon="11.524150203345801"><ele>326.0</ele><time>2026-03-29T09:15:35.949Z</time></trkpt><trkpt lat="43.308575599315006" lon="11.524226657722314"><ele>326.0</ele><time>2026-03-29T09:15:36.949Z</time></trkpt><trkpt lat="43.308633131264216" lon="11.524338942268413"><ele>326.0</ele><time>2026-03-29T09:15:38.949Z</time></trkpt><trkpt lat="43.30867636234915" lon="11.52442222494843"><ele>326.0</ele><time>2026-03-29T09:15:40.95Z</time></trkpt><trkpt lat="43.30873471776313" lon="11.52449284834335"><ele>326.0</ele><time>2026-03-29T09:17:07.949Z</time></trkpt><trkpt lat="43.30878899615507" lon="11.524553247560773"><ele>326.0</ele><time>2026-03-29T09:31:02.944Z</time></trkpt><trkpt lat="43.30881447807463" lon="11.524473640219822"><ele>326.0</ele><time>2026-03-29T09:31:07.944Z</time></trkpt><trkpt lat="43.30886882465878" lon="11.524418205491454"><ele>326.0</ele><time>2026-03-29T09:31:19.944Z</time></trkpt><trkpt lat="43.30881753685657" lon="11.524501157819836"><ele>326.0</ele><time>2026-03-29T09:33:20.943Z</time></trkpt><trkpt lat="43.30876897772963" lon="11.524564011258656"><ele>326.0</ele><time>2026-03-29T09:33:29.943Z</time></trkpt><trkpt lat="43.30882295327068" lon="11.52456095441416"><ele>326.0</ele><time>2026-03-29T09:41:32Z</time></trkpt><trkpt lat="43.30881117146276" lon="11.52447482213056"><ele>326.0</ele><time>2026-03-29T09:41:37Z</time></trkpt><trkpt lat="43.30881451775116" lon="11.524377330518181"><ele>326.0</ele><time>2026-03-29T09:41:46Z</time></trkpt><trkpt lat="43.30883964411226" lon="11.524263604322773"><ele>326.0</ele><time>2026-03-29T09:41:48Z</time></trkpt><trkpt lat="43.30886984664255" lon="11.52411278548072"><ele>326.0</ele><time>2026-03-29T09:41:50Z</time></trkpt><trkpt lat="43.30889413139758" lon="11.523945274247275"><ele>326.0</ele><time>2026-03-29T09:41:52Z</time></trkpt><trkpt lat="43.308897431815986" lon="11.52385003482461"><ele>326.0</ele><time>2026-03-29T09:41:53Z</time></trkpt><trkpt lat="43.30889572381832" lon="11.523750931848827"><ele>326.20000000000005</ele><time>2026-03-29T09:41:54Z</time></trkpt><trkpt lat="43.30888078021552" lon="11.52364363035449"><ele>326.40000000000003</ele><time>2026-03-29T09:41:55Z</time></trkpt><trkpt lat="43.30886140754424" lon="11.523537838257035"><ele>326.6</ele><time>2026-03-29T09:41:56Z</time></trkpt><trkpt lat="43.30885021131254" lon="11.52343610850993"><ele>326.8</ele><time>2026-03-29T09:41:57Z</time></trkpt><trkpt lat="43.30885898402917" lon="11.523253448171713"><ele>327.0</ele><time>2026-03-29T09:41:59Z</time></trkpt><trkpt lat="43.308907883304315" lon="11.523155543328203"><ele>324.8</ele><time>2026-03-29T09:42:00Z</time></trkpt><trkpt lat="43.30898250079467" lon="11.523066121542284"><ele>322.6</ele><time>2026-03-29T09:42:01Z</time></trkpt><trkpt lat="43.30906032793339" lon="11.522974320829622"><ele>320.40000000000003</ele><time>2026-03-29T09:42:02Z</time></trkpt><trkpt lat="43.30914180321189" lon="11.522892384230328"><ele>318.20000000000005</ele><time>2026-03-29T09:42:03Z</time></trkpt><trkpt lat="43.30922058037768" lon="11.522794551151629"><ele>316.0</ele><time>2026-03-29T09:42:04Z</time></trkpt><trkpt lat="43.309321468089806" lon="11.522729918749635"><ele>314.5</ele><time>2026-03-29T09:42:05Z</time></trkpt><trkpt lat="43.3094236283708" lon="11.522669932104064"><ele>313.0</ele><time>2026-03-29T09:42:06Z</time></trkpt><trkpt lat="43.309532972739206" lon="11.522598612570263"><ele>311.5</ele><time>2026-03-29T09:42:07Z</time></trkpt><trkpt lat="43.309628867600985" lon="11.522522678914731"><ele>310.0</ele><time>2026-03-29T09:42:08Z</time></trkpt><trkpt lat="43.30971994555514" lon="11.522436830965976"><ele>309.25</ele><time>2026-03-29T09:42:09Z</time></trkpt><trkpt lat="43.309790992531916" lon="11.522314316404525"><ele>308.5</ele><time>2026-03-29T09:42:10Z</time></trkpt><trkpt lat="43.30984772438377" lon="11.522166361659316"><ele>307.75</ele><time>2026-03-29T09:42:11Z</time></trkpt><trkpt lat="43.30987769085708" lon="11.522013093646766"><ele>307.0</ele><time>2026-03-29T09:42:12Z</time></trkpt><trkpt lat="43.30988175342041" lon="11.521847114901554"><ele>306.5</ele><time>2026-03-29T09:42:13Z</time></trkpt><trkpt lat="43.30986060997979" lon="11.52167898403473"><ele>306.0</ele><time>2026-03-29T09:42:14Z</time></trkpt><trkpt lat="43.309820700299" lon="11.521519286758723"><ele>305.5</ele><time>2026-03-29T09:42:15Z</time></trkpt><trkpt lat="43.30976063907452" lon="11.521352929177645"><ele>305.0</ele><time>2026-03-29T09:42:16Z</time></trkpt><trkpt lat="43.30971270678311" lon="11.521174277803176"><ele>300.75</ele><time>2026-03-29T09:42:17Z</time></trkpt><trkpt lat="43.30970532196421" lon="11.520984195210017"><ele>296.5</ele><time>2026-03-29T09:42:18Z</time></trkpt><trkpt lat="43.30967985477109" lon="11.52080649586457"><ele>292.25</ele><time>2026-03-29T09:42:19Z</time></trkpt><trkpt lat="43.30967852748916" lon="11.520626210416713"><ele>288.0</ele><time>2026-03-29T09:42:20Z</time></trkpt><trkpt lat="43.309671292776564" lon="11.52044204819907"><ele>290.0</ele><time>2026-03-29T09:42:21Z</time></trkpt><trkpt lat="43.30965749249642" lon="11.52025898265695"><ele>292.0</ele><time>2026-03-29T09:42:22Z</time></trkpt><trkpt lat="43.30964723635962" lon="11.520091997961485"><ele>294.0</ele><time>2026-03-29T09:42:23Z</time></trkpt><trkpt lat="43.30964193132191" lon="11.51991761062735"><ele>296.0</ele><time>2026-03-29T09:42:24Z</time></trkpt><trkpt lat="43.30967283882543" lon="11.519768970382605"><ele>296.0</ele><time>2026-03-29T09:42:25Z</time></trkpt><trkpt lat="43.30971799357503" lon="11.519609630058575"><ele>296.0</ele><time>2026-03-29T09:42:26Z</time></trkpt><trkpt lat="43.30976693283253" lon="11.51943203463233"><ele>296.0</ele><time>2026-03-29T09:42:27Z</time></trkpt><trkpt lat="43.30983236018843" lon="11.51926712934583"><ele>296.0</ele><time>2026-03-29T09:42:28Z</time></trkpt><trkpt lat="43.30989124861586" lon="11.519113494273975"><ele>296.0</ele><time>2026-03-29T09:42:29Z</time></trkpt><trkpt lat="43.30993300336758" lon="11.51895492721131"><ele>296.0</ele><time>2026-03-29T09:42:30Z</time></trkpt><trkpt lat="43.309950376584474" lon="11.518777600752884"><ele>296.0</ele><time>2026-03-29T09:42:31Z</time></trkpt><trkpt lat="43.309942044077495" lon="11.518593358889827"><ele>296.0</ele><time>2026-03-29T09:42:32Z</time></trkpt><trkpt lat="43.30990880732088" lon="11.518412011277587"><ele>295.75</ele><time>2026-03-29T09:42:33Z</time></trkpt><trkpt lat="43.309861204126236" lon="11.518235230302714"><ele>295.5</ele><time>2026-03-29T09:42:34Z</time></trkpt><trkpt lat="43.309798124177725" lon="11.518079582764187"><ele>295.25</ele><time>2026-03-29T09:42:35Z</time></trkpt><trkpt lat="43.30973730237747" lon="11.517942364759195"><ele>295.0</ele><time>2026-03-29T09:42:36Z</time></trkpt><trkpt lat="43.309675258841445" lon="11.517818762630434"><ele>293.75</ele><time>2026-03-29T09:42:37Z</time></trkpt><trkpt lat="43.309596661178716" lon="11.51771280793633"><ele>292.5</ele><time>2026-03-29T09:42:38Z</time></trkpt><trkpt lat="43.309520652379405" lon="11.517601719389406"><ele>291.25</ele><time>2026-03-29T09:42:39Z</time></trkpt><trkpt lat="43.309439636014204" lon="11.517483100420145"><ele>290.0</ele><time>2026-03-29T09:42:40Z</time></trkpt><trkpt lat="43.309352625688845" lon="11.517374251784354"><ele>290.0</ele><time>2026-03-29T09:42:41Z</time></trkpt><trkpt lat="43.3092703086459" lon="11.517257744580316"><ele>290.0</ele><time>2026-03-29T09:42:42Z</time></trkpt><trkpt lat="43.30919972875402" lon="11.517117366181044"><ele>290.0</ele><time>2026-03-29T09:42:43Z</time></trkpt><trkpt lat="43.30915927239813" lon="11.516955271157078"><ele>290.0</ele><time>2026-03-29T09:42:44Z</time></trkpt><trkpt lat="43.30916841948311" lon="11.516806778252139"><ele>290.8</ele><time>2026-03-29T09:42:45Z</time></trkpt><trkpt lat="43.30917205093806" lon="11.516674434333577"><ele>291.6</ele><time>2026-03-29T09:42:46Z</time></trkpt><trkpt lat="43.3092569838848" lon="11.516588551346238"><ele>292.4</ele><time>2026-03-29T09:42:47Z</time></trkpt><trkpt lat="43.3093284770034" lon="11.516495735960882"><ele>293.2</ele><time>2026-03-29T09:42:48Z</time></trkpt><trkpt lat="43.309405293773004" lon="11.516371394950193"><ele>294.0</ele><time>2026-03-29T09:42:49Z</time></trkpt><trkpt lat="43.30950637073301" lon="11.516250756952111"><ele>295.0</ele><time>2026-03-29T09:42:50Z</time></trkpt><trkpt lat="43.30960942712364" lon="11.51611934313466"><ele>296.0</ele><time>2026-03-29T09:42:51Z</time></trkpt><trkpt lat="43.30972014182977" lon="11.51598499923413"><ele>297.0</ele><time>2026-03-29T09:42:52Z</time></trkpt><trkpt lat="43.309826585222474" lon="11.51584392862068"><ele>298.0</ele><time>2026-03-29T09:42:53Z</time></trkpt><trkpt lat="43.30992875055397" lon="11.515716876882024"><ele>295.75</ele><time>2026-03-29T09:42:54Z</time></trkpt><trkpt lat="43.3100347422626" lon="11.515604068032669"><ele>293.5</ele><time>2026-03-29T09:42:55Z</time></trkpt><trkpt lat="43.31014862199895" lon="11.515496119399145"><ele>291.25</ele><time>2026-03-29T09:42:56Z</time></trkpt><trkpt lat="43.310281319514715" lon="11.515427662549444"><ele>289.0</ele><time>2026-03-29T09:42:57Z</time></trkpt><trkpt lat="43.31041910936405" lon="11.515361825180705"><ele>287.0</ele><time>2026-03-29T09:42:58Z</time></trkpt><trkpt lat="43.31056163427084" lon="11.515308717390122"><ele>285.0</ele><time>2026-03-29T09:42:59Z</time></trkpt><trkpt lat="43.310712126488525" lon="11.51525791079794"><ele>283.0</ele><time>2026-03-29T09:43:00Z</time></trkpt><trkpt lat="43.31086788664389" lon="11.515215743107731"><ele>283.0</ele><time>2026-03-29T09:43:01Z</time></trkpt><trkpt lat="43.31103036816704" lon="11.515187677909825"><ele>283.0</ele><time>2026-03-29T09:43:02Z</time></trkpt><trkpt lat="43.31120411627998" lon="11.515152440124922"><ele>283.0</ele><time>2026-03-29T09:43:03Z</time></trkpt><trkpt lat="43.31138002425727" lon="11.515174038566643"><ele>285.0</ele><time>2026-03-29T09:43:04Z</time></trkpt><trkpt lat="43.311528773081335" lon="11.515179027735947"><ele>287.0</ele><time>2026-03-29T09:43:05Z</time></trkpt><trkpt lat="43.31166679175665" lon="11.51517841357243"><ele>289.0</ele><time>2026-03-29T09:43:06Z</time></trkpt><trkpt lat="43.31178220860642" lon="11.515153665680957"><ele>291.0</ele><time>2026-03-29T09:43:07Z</time></trkpt><trkpt lat="43.31189857228317" lon="11.515129088336035"><ele>291.0</ele><time>2026-03-29T09:43:08Z</time></trkpt><trkpt lat="43.312008604137496" lon="11.515061853473352"><ele>291.0</ele><time>2026-03-29T09:43:09Z</time></trkpt><trkpt lat="43.31210060949674" lon="11.51495036055623"><ele>291.0</ele><time>2026-03-29T09:43:10Z</time></trkpt><trkpt lat="43.31217279371942" lon="11.514816069262748"><ele>291.0</ele><time>2026-03-29T09:43:11Z</time></trkpt><trkpt lat="43.31223844725198" lon="11.514658030264846"><ele>292.5</ele><time>2026-03-29T09:43:12Z</time></trkpt><trkpt lat="43.312303058897534" lon="11.514491165323214"><ele>294.0</ele><time>2026-03-29T09:43:13Z</time></trkpt><trkpt lat="43.312379748978024" lon="11.514336741545243"><ele>295.5</ele><time>2026-03-29T09:43:14Z</time></trkpt><trkpt lat="43.3124716452947" lon="11.514204879195795"><ele>297.0</ele><time>2026-03-29T09:43:15Z</time></trkpt><trkpt lat="43.31258575196024" lon="11.51409151744024"><ele>297.0</ele><time>2026-03-29T09:43:16Z</time></trkpt><trkpt lat="43.312724891623866" lon="11.513990104252715"><ele>297.0</ele><time>2026-03-29T09:43:17Z</time></trkpt><trkpt lat="43.31287081819408" lon="11.51390321509003"><ele>297.0</ele><time>2026-03-29T09:43:18Z</time></trkpt><trkpt lat="43.3130000049352" lon="11.513832698932484"><ele>297.5</ele><time>2026-03-29T09:43:19Z</time></trkpt><trkpt lat="43.31313446012175" lon="11.513846218964192"><ele>298.0</ele><time>2026-03-29T09:43:20Z</time></trkpt><trkpt lat="43.31326098163009" lon="11.513865787906916"><ele>298.5</ele><time>2026-03-29T09:43:21Z</time></trkpt><trkpt lat="43.31339149172906" lon="11.513923846366264"><ele>299.0</ele><time>2026-03-29T09:43:22Z</time></trkpt><trkpt lat="43.3135269522762" lon="11.51401291360703"><ele>299.0</ele><time>2026-03-29T09:43:23Z</time></trkpt><trkpt lat="43.31365572716266" lon="11.51411034637722"><ele>299.0</ele><time>2026-03-29T09:43:24Z</time></trkpt><trkpt lat="43.313788846872775" lon="11.514208310961818"><ele>299.0</ele><time>2026-03-29T09:43:25Z</time></trkpt><trkpt lat="43.31388831416228" lon="11.514344246263265"><ele>299.0</ele><time>2026-03-29T09:43:26Z</time></trkpt><trkpt lat="43.31397523895523" lon="11.514460688604839"><ele>299.0</ele><time>2026-03-29T09:43:27Z</time></trkpt><trkpt lat="43.314058876679454" lon="11.514564897971292"><ele>299.0</ele><time>2026-03-29T09:43:28Z</time></trkpt><trkpt lat="43.3141504352592" lon="11.514631531935144"><ele>299.0</ele><time>2026-03-29T09:43:29Z</time></trkpt><trkpt lat="43.31423488337546" lon="11.514698154936232"><ele>299.0</ele><time>2026-03-29T09:43:30Z</time></trkpt><trkpt lat="43.314338118715995" lon="11.514655157103181"><ele>299.0</ele><time>2026-03-29T09:43:31Z</time></trkpt><trkpt lat="43.314434877797694" lon="11.514597655651878"><ele>299.25</ele><time>2026-03-29T09:43:32Z</time></trkpt><trkpt lat="43.31452335992988" lon="11.514505462286515"><ele>299.5</ele><time>2026-03-29T09:43:33Z</time></trkpt><trkpt lat="43.314608481684736" lon="11.514380330847992"><ele>299.75</ele><time>2026-03-29T09:43:34Z</time></trkpt><trkpt lat="43.31467234230903" lon="11.514228464448284"><ele>300.0</ele><time>2026-03-29T09:43:35Z</time></trkpt><trkpt lat="43.314730282912684" lon="11.514083547252543"><ele>300.8</ele><time>2026-03-29T09:43:36Z</time></trkpt><trkpt lat="43.31479913088892" lon="11.513965877681626"><ele>301.6</ele><time>2026-03-29T09:43:37Z</time></trkpt><trkpt lat="43.31489938291489" lon="11.513923437569646"><ele>302.4</ele><time>2026-03-29T09:43:38Z</time></trkpt><trkpt lat="43.31500382218286" lon="11.513901587334603"><ele>303.2</ele><time>2026-03-29T09:43:39Z</time></trkpt><trkpt lat="43.315122764045924" lon="11.51389060689125"><ele>304.0</ele><time>2026-03-29T09:43:40Z</time></trkpt><trkpt lat="43.31524249002086" lon="11.513886997961094"><ele>304.0</ele><time>2026-03-29T09:43:41Z</time></trkpt><trkpt lat="43.315348778461214" lon="11.513892398642971"><ele>304.0</ele><time>2026-03-29T09:43:42Z</time></trkpt><trkpt lat="43.31543704360366" lon="11.513914758248317"><ele>304.0</ele><time>2026-03-29T09:43:43Z</time></trkpt><trkpt lat="43.315499830117325" lon="11.513972552381272"><ele>304.0</ele><time>2026-03-29T09:43:44Z</time></trkpt><trkpt lat="43.315550316407766" lon="11.514050973227178"><ele>304.0</ele><time>2026-03-29T09:43:45Z</time></trkpt><trkpt lat="43.31554950419359" lon="11.514175212932964"><ele>304.0</ele><time>2026-03-29T09:43:46Z</time></trkpt><trkpt lat="43.31556947048476" lon="11.51432417466911"><ele>302.75</ele><time>2026-03-29T09:43:47Z</time></trkpt><trkpt lat="43.31557823477955" lon="11.51449223182475"><ele>301.5</ele><time>2026-03-29T09:43:48Z</time></trkpt><trkpt lat="43.31559844314181" lon="11.514667494996766"><ele>300.25</ele><time>2026-03-29T09:43:49Z</time></trkpt><trkpt lat="43.315639459365705" lon="11.51484316016505"><ele>299.0</ele><time>2026-03-29T09:43:50Z</time></trkpt><trkpt lat="43.31570774419471" lon="11.515004093608107"><ele>299.0</ele><time>2026-03-29T09:43:51Z</time></trkpt><trkpt lat="43.31581397681695" lon="11.515146738215778"><ele>299.0</ele><time>2026-03-29T09:43:52Z</time></trkpt><trkpt lat="43.31593885385795" lon="11.515239324363039"><ele>299.0</ele><time>2026-03-29T09:43:53Z</time></trkpt><trkpt lat="43.31607012016544" lon="11.51528877944183"><ele>299.0</ele><time>2026-03-29T09:43:54Z</time></trkpt><trkpt lat="43.31620990821246" lon="11.515283259972474"><ele>299.0</ele><time>2026-03-29T09:43:55Z</time></trkpt><trkpt lat="43.31636347810556" lon="11.515246229406378"><ele>299.0</ele><time>2026-03-29T09:43:56Z</time></trkpt><trkpt lat="43.31652063989019" lon="11.515180040122281"><ele>299.0</ele><time>2026-03-29T09:43:57Z</time></trkpt><trkpt lat="43.31668908581688" lon="11.515141634476016"><ele>299.33333333333337</ele><time>2026-03-29T09:43:58Z</time></trkpt><trkpt lat="43.3168454017904" lon="11.51507589017691"><ele>299.6666666666667</ele><time>2026-03-29T09:43:59Z</time></trkpt><trkpt lat="43.31700456605436" lon="11.514999054584875"><ele>300.0</ele><time>2026-03-29T09:44:00Z</time></trkpt><trkpt lat="43.31715096560093" lon="11.514934970099953"><ele>300.25</ele><time>2026-03-29T09:44:01Z</time></trkpt><trkpt lat="43.31728777022332" lon="11.514875798652096"><ele>300.5</ele><time>2026-03-29T09:44:02Z</time></trkpt><trkpt lat="43.317404281706146" lon="11.514798858573837"><ele>300.75</ele><time>2026-03-29T09:44:03Z</time></trkpt><trkpt lat="43.31750811441098" lon="11.514669888029522"><ele>301.0</ele><time>2026-03-29T09:44:04Z</time></trkpt><trkpt lat="43.31759525883975" lon="11.514500899398744"><ele>301.0</ele><time>2026-03-29T09:44:05Z</time></trkpt><trkpt lat="43.31765732536129" lon="11.514297553701034"><ele>301.0</ele><time>2026-03-29T09:44:06Z</time></trkpt><trkpt lat="43.317699249449085" lon="11.514086380670705"><ele>301.0</ele><time>2026-03-29T09:44:07Z</time></trkpt><trkpt lat="43.31773696542574" lon="11.513891224248134"><ele>300.25</ele><time>2026-03-29T09:44:08Z</time></trkpt><trkpt lat="43.317781682138545" lon="11.513712129490447"><ele>299.5</ele><time>2026-03-29T09:44:09Z</time></trkpt><trkpt lat="43.317856992121726" lon="11.513574486711038"><ele>298.75</ele><time>2026-03-29T09:44:10Z</time></trkpt><trkpt lat="43.31795402140525" lon="11.51347939272129"><ele>298.0</ele><time>2026-03-29T09:44:11Z</time></trkpt><trkpt lat="43.318078048087024" lon="11.51342353426272"><ele>298.0</ele><time>2026-03-29T09:44:12Z</time></trkpt><trkpt lat="43.31821947132475" lon="11.513391967267676"><ele>298.0</ele><time>2026-03-29T09:44:13Z</time></trkpt><trkpt lat="43.31835600614481" lon="11.513385769018099"><ele>298.0</ele><time>2026-03-29T09:44:14Z</time></trkpt><trkpt lat="43.31848039535489" lon="11.513421644781635"><ele>298.0</ele><time>2026-03-29T09:44:15Z</time></trkpt><trkpt lat="43.318591041864" lon="11.51349518810063"><ele>298.0</ele><time>2026-03-29T09:44:16Z</time></trkpt><trkpt lat="43.31867921165031" lon="11.513608322916735"><ele>298.0</ele><time>2026-03-29T09:44:17Z</time></trkpt><trkpt lat="43.318725803297305" lon="11.513766962711001"><ele>298.0</ele><time>2026-03-29T09:44:18Z</time></trkpt><trkpt lat="43.31874202753914" lon="11.513929042537589"><ele>298.0</ele><time>2026-03-29T09:44:19Z</time></trkpt><trkpt lat="43.31875826292133" lon="11.514092936203017"><ele>298.0</ele><time>2026-03-29T09:44:20Z</time></trkpt><trkpt lat="43.318702442511615" lon="11.514248031409222"><ele>298.0</ele><time>2026-03-29T09:44:21Z</time></trkpt><trkpt lat="43.318621811859394" lon="11.514393961136554"><ele>298.0</ele><time>2026-03-29T09:44:22Z</time></trkpt><trkpt lat="43.318524397375974" lon="11.514499060192342"><ele>298.0</ele><time>2026-03-29T09:44:23Z</time></trkpt><trkpt lat="43.31842847255017" lon="11.51459447417818"><ele>298.0</ele><time>2026-03-29T09:44:24Z</time></trkpt><trkpt lat="43.318361732667846" lon="11.51469989702852"><ele>298.0</ele><time>2026-03-29T09:44:25Z</time></trkpt><trkpt lat="43.318335847565926" lon="11.514812597657022"><ele>298.0</ele><time>2026-03-29T09:44:26Z</time></trkpt><trkpt lat="43.31833595161302" lon="11.514915939552676"><ele>298.0</ele><time>2026-03-29T09:44:27Z</time></trkpt><trkpt lat="43.31837097676218" lon="11.515000859410028"><ele>298.0</ele><time>2026-03-29T09:44:28Z</time></trkpt><trkpt lat="43.31842717122805" lon="11.515053926332177"><ele>298.0</ele><time>2026-03-29T09:44:29Z</time></trkpt><trkpt lat="43.31849787190127" lon="11.515051087481027"><ele>298.0</ele><time>2026-03-29T09:44:30Z</time></trkpt><trkpt lat="43.31855933134874" lon="11.515002970584694"><ele>298.0</ele><time>2026-03-29T09:44:31Z</time></trkpt><trkpt lat="43.31859754276154" lon="11.514898437930844"><ele>298.0</ele><time>2026-03-29T09:44:32Z</time></trkpt><trkpt lat="43.318658251476464" lon="11.514804051883669"><ele>298.0</ele><time>2026-03-29T09:44:33Z</time></trkpt><trkpt lat="43.318716244355" lon="11.514684285527432"><ele>298.0</ele><time>2026-03-29T09:44:34Z</time></trkpt><trkpt lat="43.31879017175503" lon="11.514563274847978"><ele>298.5</ele><time>2026-03-29T09:44:35Z</time></trkpt><trkpt lat="43.31886603792558" lon="11.514439319575853"><ele>299.0</ele><time>2026-03-29T09:44:36Z</time></trkpt><trkpt lat="43.31893815495793" lon="11.51431121821223"><ele>299.5</ele><time>2026-03-29T09:44:37Z</time></trkpt><trkpt lat="43.318991085699395" lon="11.5141663979169"><ele>300.0</ele><time>2026-03-29T09:44:38Z</time></trkpt><trkpt lat="43.31900887728455" lon="11.514009532127838"><ele>298.25</ele><time>2026-03-29T09:44:39Z</time></trkpt><trkpt lat="43.31900407388613" lon="11.513829414245732"><ele>296.5</ele><time>2026-03-29T09:44:40Z</time></trkpt><trkpt lat="43.31899425630918" lon="11.51364257931409"><ele>294.75</ele><time>2026-03-29T09:44:41Z</time></trkpt><trkpt lat="43.31899796665013" lon="11.513462389893757"><ele>293.0</ele><time>2026-03-29T09:44:42Z</time></trkpt><trkpt lat="43.31903458933315" lon="11.513290399969579"><ele>292.25</ele><time>2026-03-29T09:44:43Z</time></trkpt><trkpt lat="43.319098744751635" lon="11.513133489044826"><ele>291.5</ele><time>2026-03-29T09:44:44Z</time></trkpt><trkpt lat="43.31916971878947" lon="11.512983132493131"><ele>290.75</ele><time>2026-03-29T09:44:45Z</time></trkpt><trkpt lat="43.31922280741836" lon="11.512823369887764"><ele>290.0</ele><time>2026-03-29T09:44:46Z</time></trkpt><trkpt lat="43.31925276999575" lon="11.512645895984717"><ele>287.75</ele><time>2026-03-29T09:44:47Z</time></trkpt><trkpt lat="43.31926003963212" lon="11.512461777015915"><ele>285.5</ele><time>2026-03-29T09:44:48Z</time></trkpt><trkpt lat="43.31925799248075" lon="11.512264675961996"><ele>283.25</ele><time>2026-03-29T09:44:49Z</time></trkpt><trkpt lat="43.31924608762748" lon="11.512053271032622"><ele>281.0</ele><time>2026-03-29T09:44:50Z</time></trkpt><trkpt lat="43.31922144229742" lon="11.511839161436466"><ele>278.33333333333337</ele><time>2026-03-29T09:44:51Z</time></trkpt><trkpt lat="43.31918552036895" lon="11.511621862453135"><ele>275.6666666666667</ele><time>2026-03-29T09:44:52Z</time></trkpt><trkpt lat="43.31915038048113" lon="11.511417890927325"><ele>273.0</ele><time>2026-03-29T09:44:53Z</time></trkpt><trkpt lat="43.319120460992266" lon="11.51121033896872"><ele>270.0</ele><time>2026-03-29T09:44:54Z</time></trkpt><trkpt lat="43.31911544546834" lon="11.511001431693442"><ele>267.0</ele><time>2026-03-29T09:44:55Z</time></trkpt><trkpt lat="43.31914342568757" lon="11.51079581651681"><ele>264.0</ele><time>2026-03-29T09:44:56Z</time></trkpt><trkpt lat="43.319193772047605" lon="11.510603563296042"><ele>264.0</ele><time>2026-03-29T09:44:57Z</time></trkpt><trkpt lat="43.31926878264412" lon="11.510429339626496"><ele>264.0</ele><time>2026-03-29T09:44:58Z</time></trkpt><trkpt lat="43.319366285140966" lon="11.510279869443403"><ele>264.0</ele><time>2026-03-29T09:44:59Z</time></trkpt><trkpt lat="43.31946521112713" lon="11.510135258806839"><ele>264.0</ele><time>2026-03-29T09:45:00Z</time></trkpt><trkpt lat="43.319553727887445" lon="11.509988527080596"><ele>261.5</ele><time>2026-03-29T09:45:01Z</time></trkpt><trkpt lat="43.3196389307564" lon="11.509833324550051"><ele>259.0</ele><time>2026-03-29T09:45:02Z</time></trkpt><trkpt lat="43.3197159545257" lon="11.509677101896735"><ele>256.5</ele><time>2026-03-29T09:45:03Z</time></trkpt><trkpt lat="43.31977513223291" lon="11.509511433485471"><ele>254.0</ele><time>2026-03-29T09:45:04Z</time></trkpt><trkpt lat="43.319815184526846" lon="11.509335076728135"><ele>252.25</ele><time>2026-03-29T09:45:05Z</time></trkpt><trkpt lat="43.31984068234491" lon="11.509155781479095"><ele>250.5</ele><time>2026-03-29T09:45:06Z</time></trkpt><trkpt lat="43.31985993384054" lon="11.5089739304441"><ele>248.75</ele><time>2026-03-29T09:45:07Z</time></trkpt><trkpt lat="43.31986927545312" lon="11.508784716883113"><ele>247.0</ele><time>2026-03-29T09:45:08Z</time></trkpt><trkpt lat="43.31987007300607" lon="11.508597041660607"><ele>247.0</ele><time>2026-03-29T09:45:09Z</time></trkpt><trkpt lat="43.31985842638188" lon="11.508401371262224"><ele>247.0</ele><time>2026-03-29T09:45:10Z</time></trkpt><trkpt lat="43.319840597018505" lon="11.508208900482124"><ele>247.0</ele><time>2026-03-29T09:45:10.999Z</time></trkpt><trkpt lat="43.319819879199045" lon="11.508025453031914"><ele>247.0</ele><time>2026-03-29T09:45:11.999Z</time></trkpt><trkpt lat="43.319805233846395" lon="11.507842452296359"><ele>246.75</ele><time>2026-03-29T09:45:12.999Z</time></trkpt><trkpt lat="43.31979025578377" lon="11.507652644607367"><ele>246.5</ele><time>2026-03-29T09:45:13.999Z</time></trkpt><trkpt lat="43.31977620958564" lon="11.507451860981673"><ele>246.25</ele><time>2026-03-29T09:45:14.999Z</time></trkpt><trkpt lat="43.3197620768669" lon="11.507241836159046"><ele>246.0</ele><time>2026-03-29T09:45:15.999Z</time></trkpt><trkpt lat="43.31974601919159" lon="11.507019267895682"><ele>249.25</ele><time>2026-03-29T09:45:16.999Z</time></trkpt><trkpt lat="43.31972488815483" lon="11.506801305374916"><ele>252.5</ele><time>2026-03-29T09:45:17.999Z</time></trkpt><trkpt lat="43.31970812152141" lon="11.50660660854441"><ele>255.75</ele><time>2026-03-29T09:45:18.999Z</time></trkpt><trkpt lat="43.31969902494304" lon="11.506445650605228"><ele>259.0</ele><time>2026-03-29T09:45:19.999Z</time></trkpt><trkpt lat="43.31973048927263" lon="11.506300901698147"><ele>255.25</ele><time>2026-03-29T09:45:20.999Z</time></trkpt><trkpt lat="43.31977348887231" lon="11.506152986998595"><ele>251.5</ele><time>2026-03-29T09:45:21.999Z</time></trkpt><trkpt lat="43.319858717471774" lon="11.50605153109877"><ele>247.75</ele><time>2026-03-29T09:45:22.999Z</time></trkpt><trkpt lat="43.31996734915279" lon="11.50603642843513"><ele>244.0</ele><time>2026-03-29T09:45:23.999Z</time></trkpt><trkpt lat="43.32009520781912" lon="11.505970806451522"><ele>244.0</ele><time>2026-03-29T09:45:24.999Z</time></trkpt><trkpt lat="43.32024491427717" lon="11.505935386823204"><ele>244.0</ele><time>2026-03-29T09:45:25.999Z</time></trkpt><trkpt lat="43.32038696814211" lon="11.505884520819823"><ele>244.0</ele><time>2026-03-29T09:45:26.999Z</time></trkpt><trkpt lat="43.32053155527192" lon="11.505827501154682"><ele>244.0</ele><time>2026-03-29T09:45:27.999Z</time></trkpt><trkpt lat="43.320679713621104" lon="11.505766604001526"><ele>244.75</ele><time>2026-03-29T09:45:28.999Z</time></trkpt><trkpt lat="43.32082518228803" lon="11.505715102565627"><ele>245.5</ele><time>2026-03-29T09:45:29.999Z</time></trkpt><trkpt lat="43.320965672761005" lon="11.505676397210756"><ele>246.25</ele><time>2026-03-29T09:45:30.999Z</time></trkpt><trkpt lat="43.321110870176156" lon="11.505690424139088"><ele>247.0</ele><time>2026-03-29T09:45:31.999Z</time></trkpt><trkpt lat="43.32125969719284" lon="11.50573417411643"><ele>250.0</ele><time>2026-03-29T09:45:32.999Z</time></trkpt><trkpt lat="43.321400270644645" lon="11.505818883751894"><ele>253.0</ele><time>2026-03-29T09:45:33.999Z</time></trkpt><trkpt lat="43.321527449058344" lon="11.505956988505355"><ele>256.0</ele><time>2026-03-29T09:45:34.999Z</time></trkpt><trkpt lat="43.321644590054746" lon="11.506127166011535"><ele>255.66666666666666</ele><time>2026-03-29T09:45:35.999Z</time></trkpt><trkpt lat="43.3217685221015" lon="11.506318246690622"><ele>255.33333333333331</ele><time>2026-03-29T09:45:36.999Z</time></trkpt><trkpt lat="43.321902455792795" lon="11.506518356185051"><ele>255.0</ele><time>2026-03-29T09:45:37.999Z</time></trkpt><trkpt lat="43.32203864109832" lon="11.506715193054651"><ele>255.0</ele><time>2026-03-29T09:45:38.999Z</time></trkpt><trkpt lat="43.32216073857032" lon="11.506899921751138"><ele>255.0</ele><time>2026-03-29T09:45:39.999Z</time></trkpt><trkpt lat="43.322276379426896" lon="11.507064742438917"><ele>255.0</ele><time>2026-03-29T09:45:40.999Z</time></trkpt><trkpt lat="43.32238157771745" lon="11.5072162726938"><ele>258.5</ele><time>2026-03-29T09:45:41.999Z</time></trkpt><trkpt lat="43.32248086427187" lon="11.507359335864413"><ele>262.0</ele><time>2026-03-29T09:45:42.999Z</time></trkpt><trkpt lat="43.322571401866284" lon="11.50748152838118"><ele>265.5</ele><time>2026-03-29T09:45:43.999Z</time></trkpt><trkpt lat="43.32268721902098" lon="11.5075798283401"><ele>269.0</ele><time>2026-03-29T09:45:44.999Z</time></trkpt><trkpt lat="43.322835023403464" lon="11.507640118931896"><ele>269.0</ele><time>2026-03-29T09:45:45.999Z</time></trkpt><trkpt lat="43.32299779657038" lon="11.50766507325853"><ele>269.0</ele><time>2026-03-29T09:45:46.999Z</time></trkpt><trkpt lat="43.32316757315759" lon="11.507670796599461"><ele>269.0</ele><time>2026-03-29T09:45:47.999Z</time></trkpt><trkpt lat="43.323342051276256" lon="11.507667978626387"><ele>271.0</ele><time>2026-03-29T09:45:48.999Z</time></trkpt><trkpt lat="43.32350507227525" lon="11.507669329802647"><ele>273.0</ele><time>2026-03-29T09:45:49.999Z</time></trkpt><trkpt lat="43.32366171458754" lon="11.507692334532807"><ele>275.0</ele><time>2026-03-29T09:45:50.999Z</time></trkpt><trkpt lat="43.32381071996059" lon="11.507757931859274"><ele>274.33333333333337</ele><time>2026-03-29T09:45:51.999Z</time></trkpt><trkpt lat="43.32394961565143" lon="11.50786801635093"><ele>273.6666666666667</ele><time>2026-03-29T09:45:52.999Z</time></trkpt><trkpt lat="43.324049837139235" lon="11.508042553691169"><ele>273.0</ele><time>2026-03-29T09:45:53.999Z</time></trkpt><trkpt lat="43.324142888723244" lon="11.508251036347545"><ele>276.6666666666667</ele><time>2026-03-29T09:45:54.999Z</time></trkpt><trkpt lat="43.324247344772445" lon="11.50847055614329"><ele>280.33333333333337</ele><time>2026-03-29T09:45:55.999Z</time></trkpt><trkpt lat="43.32433213558341" lon="11.508706681193708"><ele>284.0</ele><time>2026-03-29T09:45:56.999Z</time></trkpt><trkpt lat="43.32441325874525" lon="11.50892339597792"><ele>286.6666666666667</ele><time>2026-03-29T09:45:57.999Z</time></trkpt><trkpt lat="43.32449658992379" lon="11.509116367757438"><ele>289.3333333333333</ele><time>2026-03-29T09:45:58.999Z</time></trkpt><trkpt lat="43.32458764634821" lon="11.509280382628807"><ele>292.0</ele><time>2026-03-29T09:45:59.999Z</time></trkpt><trkpt lat="43.324709546196594" lon="11.509403640052398"><ele>291.0</ele><time>2026-03-29T09:46:00.999Z</time></trkpt><trkpt lat="43.32484980202832" lon="11.509489578062041"><ele>290.0</ele><time>2026-03-29T09:46:01.999Z</time></trkpt><trkpt lat="43.32499866914561" lon="11.50952104510436"><ele>289.0</ele><time>2026-03-29T09:46:02.999Z</time></trkpt><trkpt lat="43.32515756711935" lon="11.50950214314796"><ele>289.0</ele><time>2026-03-29T09:46:03.999Z</time></trkpt><trkpt lat="43.325327245715854" lon="11.509441334716973"><ele>289.0</ele><time>2026-03-29T09:46:04.999Z</time></trkpt><trkpt lat="43.32550713535348" lon="11.509360972657033"><ele>289.0</ele><time>2026-03-29T09:46:05.999Z</time></trkpt><trkpt lat="43.32569637836092" lon="11.50927824775696"><ele>289.3333333333333</ele><time>2026-03-29T09:46:06.999Z</time></trkpt><trkpt lat="43.325888382240606" lon="11.509194008968"><ele>289.6666666666667</ele><time>2026-03-29T09:46:07.999Z</time></trkpt><trkpt lat="43.326079521992014" lon="11.50909993233768"><ele>290.0</ele><time>2026-03-29T09:46:08.999Z</time></trkpt><trkpt lat="43.32627489245866" lon="11.509032605513058"><ele>291.0</ele><time>2026-03-29T09:46:09.999Z</time></trkpt><trkpt lat="43.32645495492219" lon="11.508919695404414"><ele>292.0</ele><time>2026-03-29T09:46:10.999Z</time></trkpt><trkpt lat="43.32663774161881" lon="11.508821965414318"><ele>293.0</ele><time>2026-03-29T09:46:11.999Z</time></trkpt><trkpt lat="43.326816752037935" lon="11.508720270149722"><ele>293.6666666666667</ele><time>2026-03-29T09:46:12.999Z</time></trkpt><trkpt lat="43.32699226424135" lon="11.50861519592199"><ele>294.3333333333333</ele><time>2026-03-29T09:46:13.999Z</time></trkpt><trkpt lat="43.327170966233226" lon="11.508497822820289"><ele>295.0</ele><time>2026-03-29T09:46:14.999Z</time></trkpt><trkpt lat="43.32735065632054" lon="11.508382613436456"><ele>296.3333333333333</ele><time>2026-03-29T09:46:15.999Z</time></trkpt><trkpt lat="43.32752862500775" lon="11.508268456106938"><ele>297.6666666666667</ele><time>2026-03-29T09:46:16.999Z</time></trkpt><trkpt lat="43.327709484862304" lon="11.508171445465539"><ele>299.0</ele><time>2026-03-29T09:46:17.999Z</time></trkpt><trkpt lat="43.327889606456004" lon="11.508041767841387"><ele>299.6666666666667</ele><time>2026-03-29T09:46:18.999Z</time></trkpt><trkpt lat="43.328061540144446" lon="11.507922828919417"><ele>300.3333333333333</ele><time>2026-03-29T09:46:19.999Z</time></trkpt><trkpt lat="43.32824463757306" lon="11.507829461956874"><ele>301.0</ele><time>2026-03-29T09:46:20.999Z</time></trkpt><trkpt lat="43.32839877144128" lon="11.507711047502367"><ele>301.66666666666663</ele><time>2026-03-29T09:46:21.999Z</time></trkpt><trkpt lat="43.3285453513858" lon="11.507634300920168"><ele>302.3333333333333</ele><time>2026-03-29T09:46:22.999Z</time></trkpt><trkpt lat="43.32869284160655" lon="11.507546520003302"><ele>303.0</ele><time>2026-03-29T09:46:23.999Z</time></trkpt><trkpt lat="43.32883382866315" lon="11.507455177548502"><ele>304.3333333333333</ele><time>2026-03-29T09:46:24.999Z</time></trkpt><trkpt lat="43.328977003017286" lon="11.50737056961034"><ele>305.66666666666663</ele><time>2026-03-29T09:46:25.999Z</time></trkpt><trkpt lat="43.329122724174866" lon="11.507287905843866"><ele>307.0</ele><time>2026-03-29T09:46:26.999Z</time></trkpt><trkpt lat="43.32927888486709" lon="11.507228062973045"><ele>307.0</ele><time>2026-03-29T09:46:27.999Z</time></trkpt><trkpt lat="43.32943471783654" lon="11.507188410943161"><ele>307.0</ele><time>2026-03-29T09:46:28.999Z</time></trkpt><trkpt lat="43.32959786044527" lon="11.507155330866205"><ele>307.0</ele><time>2026-03-29T09:46:29.999Z</time></trkpt><trkpt lat="43.32976317210018" lon="11.507118320912015"><ele>307.0</ele><time>2026-03-29T09:46:30.999Z</time></trkpt><trkpt lat="43.32993079138205" lon="11.507082510684164"><ele>307.0</ele><time>2026-03-29T09:46:31.999Z</time></trkpt><trkpt lat="43.33009696233838" lon="11.50705537369246"><ele>307.0</ele><time>2026-03-29T09:46:32.999Z</time></trkpt><trkpt lat="43.33026338331839" lon="11.507020709050863"><ele>307.0</ele><time>2026-03-29T09:46:33.999Z</time></trkpt><trkpt lat="43.33043222237212" lon="11.506989225196572"><ele>307.0</ele><time>2026-03-29T09:46:34.999Z</time></trkpt><trkpt lat="43.33060227297608" lon="11.506959848943573"><ele>307.0</ele><time>2026-03-29T09:46:35.999Z</time></trkpt><trkpt lat="43.3307702002666" lon="11.5069264469579"><ele>308.3333333333333</ele><time>2026-03-29T09:46:36.999Z</time></trkpt><trkpt lat="43.33094066152036" lon="11.506896489254002"><ele>309.6666666666667</ele><time>2026-03-29T09:46:37.999Z</time></trkpt><trkpt lat="43.331118421841374" lon="11.50685635391125"><ele>311.0</ele><time>2026-03-29T09:46:38.999Z</time></trkpt><trkpt lat="43.331296943724" lon="11.50679528666816"><ele>312.0</ele><time>2026-03-29T09:46:39.999Z</time></trkpt><trkpt lat="43.331476760010865" lon="11.506707658739208"><ele>313.0</ele><time>2026-03-29T09:46:40.999Z</time></trkpt><trkpt lat="43.33164975962666" lon="11.506600212489367"><ele>314.0</ele><time>2026-03-29T09:46:41.999Z</time></trkpt><trkpt lat="43.33181231568304" lon="11.506483206846784"><ele>314.0</ele><time>2026-03-29T09:46:42.999Z</time></trkpt><trkpt lat="43.33197326118426" lon="11.506371701608817"><ele>314.0</ele><time>2026-03-29T09:46:43.999Z</time></trkpt><trkpt lat="43.332129531105295" lon="11.50625954170152"><ele>314.0</ele><time>2026-03-29T09:46:44.999Z</time></trkpt><trkpt lat="43.33228660275613" lon="11.506150909625386"><ele>314.6666666666667</ele><time>2026-03-29T09:46:45.999Z</time></trkpt><trkpt lat="43.332443409318465" lon="11.506047338769136"><ele>315.3333333333333</ele><time>2026-03-29T09:46:46.999Z</time></trkpt><trkpt lat="43.33259617785264" lon="11.505958290303356"><ele>316.0</ele><time>2026-03-29T09:46:47.999Z</time></trkpt><trkpt lat="43.33275022246499" lon="11.505899650758915"><ele>316.0</ele><time>2026-03-29T09:46:48.999Z</time></trkpt><trkpt lat="43.332912905591364" lon="11.50585465226122"><ele>316.0</ele><time>2026-03-29T09:46:49.999Z</time></trkpt><trkpt lat="43.33309182943471" lon="11.505809736987457"><ele>316.0</ele><time>2026-03-29T09:46:50.999Z</time></trkpt><trkpt lat="43.33327686258653" lon="11.505767107613487"><ele>316.0</ele><time>2026-03-29T09:46:51.999Z</time></trkpt><trkpt lat="43.333462247483006" lon="11.505733112317817"><ele>316.0</ele><time>2026-03-29T09:46:52.999Z</time></trkpt><trkpt lat="43.333649220873994" lon="11.505699651429586"><ele>316.0</ele><time>2026-03-29T09:46:53.999Z</time></trkpt><trkpt lat="43.33383906095685" lon="11.505659562233125"><ele>315.66666666666663</ele><time>2026-03-29T09:46:54.999Z</time></trkpt><trkpt lat="43.33403072356191" lon="11.505622719131944"><ele>315.3333333333333</ele><time>2026-03-29T09:46:55.999Z</time></trkpt><trkpt lat="43.33421655572748" lon="11.50558557793426"><ele>315.0</ele><time>2026-03-29T09:46:56.999Z</time></trkpt><trkpt lat="43.33439986081958" lon="11.505543131960076"><ele>315.0</ele><time>2026-03-29T09:46:57.999Z</time></trkpt><trkpt lat="43.3345823117658" lon="11.50550333341412"><ele>315.0</ele><time>2026-03-29T09:46:58.999Z</time></trkpt><trkpt lat="43.33476718707426" lon="11.505484368179937"><ele>315.0</ele><time>2026-03-29T09:46:59.999Z</time></trkpt><trkpt lat="43.33494411568634" lon="11.505444797206229"><ele>317.0</ele><time>2026-03-29T09:47:00.999Z</time></trkpt><trkpt lat="43.335119871796905" lon="11.505405284001148"><ele>319.0</ele><time>2026-03-29T09:47:01.999Z</time></trkpt><trkpt lat="43.33529431712885" lon="11.505370105942184"><ele>321.0</ele><time>2026-03-29T09:47:02.999Z</time></trkpt><trkpt lat="43.335470629530406" lon="11.505335510113458"><ele>320.0</ele><time>2026-03-29T09:47:03.999Z</time></trkpt><trkpt lat="43.335651842682616" lon="11.505300291277306"><ele>319.0</ele><time>2026-03-29T09:47:04.999Z</time></trkpt><trkpt lat="43.33583546143022" lon="11.505267198676828"><ele>318.0</ele><time>2026-03-29T09:47:05.999Z</time></trkpt><trkpt lat="43.33602336235698" lon="11.505234519158945"><ele>318.0</ele><time>2026-03-29T09:47:06.999Z</time></trkpt><trkpt lat="43.336212352045386" lon="11.505198653144127"><ele>318.0</ele><time>2026-03-29T09:47:07.999Z</time></trkpt><trkpt lat="43.33640117281877" lon="11.505152043471938"><ele>318.0</ele><time>2026-03-29T09:47:08.999Z</time></trkpt><trkpt lat="43.33658957490705" lon="11.505111026303373"><ele>320.0</ele><time>2026-03-29T09:47:09.999Z</time></trkpt><trkpt lat="43.336774811872516" lon="11.50508808829866"><ele>322.0</ele><time>2026-03-29T09:47:10.999Z</time></trkpt><trkpt lat="43.33695544157795" lon="11.505094612564767"><ele>324.0</ele><time>2026-03-29T09:47:11.999Z</time></trkpt><trkpt lat="43.33712630241459" lon="11.505128761854204"><ele>324.3333333333333</ele><time>2026-03-29T09:47:12.999Z</time></trkpt><trkpt lat="43.337293512400144" lon="11.505190781372223"><ele>324.66666666666663</ele><time>2026-03-29T09:47:13.999Z</time></trkpt><trkpt lat="43.337457924150286" lon="11.505279405993225"><ele>325.0</ele><time>2026-03-29T09:47:14.999Z</time></trkpt><trkpt lat="43.33762115320708" lon="11.505381719401749"><ele>326.3333333333333</ele><time>2026-03-29T09:47:15.999Z</time></trkpt><trkpt lat="43.33778341877267" lon="11.505490824521463"><ele>327.6666666666667</ele><time>2026-03-29T09:47:16.999Z</time></trkpt><trkpt lat="43.33794704699764" lon="11.505603823778248"><ele>329.0</ele><time>2026-03-29T09:47:17.999Z</time></trkpt><trkpt lat="43.33811140429604" lon="11.505713804057839"><ele>330.0</ele><time>2026-03-29T09:47:18.999Z</time></trkpt><trkpt lat="43.33828491712535" lon="11.505811815935475"><ele>331.0</ele><time>2026-03-29T09:47:19.999Z</time></trkpt><trkpt lat="43.338466221641646" lon="11.505881089739685"><ele>332.0</ele><time>2026-03-29T09:47:20.999Z</time></trkpt><trkpt lat="43.33865414632239" lon="11.505920811283996"><ele>332.0</ele><time>2026-03-29T09:47:21.999Z</time></trkpt><trkpt lat="43.33883175892306" lon="11.50591951774385"><ele>332.0</ele><time>2026-03-29T09:47:22.999Z</time></trkpt><trkpt lat="43.3390061088267" lon="11.505887898701728"><ele>332.0</ele><time>2026-03-29T09:47:23.999Z</time></trkpt><trkpt lat="43.339176293162396" lon="11.505840525335408"><ele>333.0</ele><time>2026-03-29T09:47:24.999Z</time></trkpt><trkpt lat="43.339332116909844" lon="11.50578348196091"><ele>334.0</ele><time>2026-03-29T09:47:25.999Z</time></trkpt><trkpt lat="43.33947689545988" lon="11.50573327807489"><ele>335.0</ele><time>2026-03-29T09:47:26.999Z</time></trkpt><trkpt lat="43.33961083689332" lon="11.505689113509215"><ele>336.0</ele><time>2026-03-29T09:47:27.999Z</time></trkpt><trkpt lat="43.339742550382184" lon="11.505652415211065"><ele>336.0</ele><time>2026-03-29T09:47:28.999Z</time></trkpt><trkpt lat="43.33987177685344" lon="11.505608731422724"><ele>336.0</ele><time>2026-03-29T09:47:29.999Z</time></trkpt><trkpt lat="43.34000281153319" lon="11.505564738743843"><ele>336.0</ele><time>2026-03-29T09:47:30.999Z</time></trkpt><trkpt lat="43.34012443262445" lon="11.505516039679522"><ele>336.0</ele><time>2026-03-29T09:47:31.999Z</time></trkpt><trkpt lat="43.34023644654855" lon="11.505472282085364"><ele>336.0</ele><time>2026-03-29T09:47:32.999Z</time></trkpt><trkpt lat="43.34034565075036" lon="11.505425113572755"><ele>336.0</ele><time>2026-03-29T09:47:33.999Z</time></trkpt><trkpt lat="43.34044814064134" lon="11.505380375274573"><ele>336.0</ele><time>2026-03-29T09:47:34.999Z</time></trkpt><trkpt lat="43.34054242861991" lon="11.505357313444618"><ele>336.0</ele><time>2026-03-29T09:47:35.999Z</time></trkpt><trkpt lat="43.34062098387992" lon="11.505355883722023"><ele>336.0</ele><time>2026-03-29T09:47:36.999Z</time></trkpt><trkpt lat="43.340686190258126" lon="11.505380269524109"><ele>335.8</ele><time>2026-03-29T09:47:37.999Z</time></trkpt><trkpt lat="43.340762408348056" lon="11.505393364420321"><ele>335.6</ele><time>2026-03-29T09:47:38.999Z</time></trkpt><trkpt lat="43.34089056803548" lon="11.505281981474258"><ele>335.4</ele><time>2026-03-29T09:47:40.999Z</time></trkpt><trkpt lat="43.3409874848644" lon="11.505232106902485"><ele>335.2</ele><time>2026-03-29T09:47:41.999Z</time></trkpt><trkpt lat="43.34109645407127" lon="11.505178756898852"><ele>335.0</ele><time>2026-03-29T09:47:42.999Z</time></trkpt><trkpt lat="43.341198508509365" lon="11.50511553844088"><ele>335.0</ele><time>2026-03-29T09:47:43.999Z</time></trkpt><trkpt lat="43.3413077110474" lon="11.505100522199964"><ele>335.0</ele><time>2026-03-29T09:47:44.999Z</time></trkpt><trkpt lat="43.341410255949796" lon="11.505050976571845"><ele>335.0</ele><time>2026-03-29T09:47:45.999Z</time></trkpt><trkpt lat="43.34151272079339" lon="11.505032436788062"><ele>335.0</ele><time>2026-03-29T09:47:46.999Z</time></trkpt><trkpt lat="43.34160975058396" lon="11.505018037470366"><ele>335.0</ele><time>2026-03-29T09:47:47.999Z</time></trkpt><trkpt lat="43.34170762845081" lon="11.5050056422469"><ele>335.0</ele><time>2026-03-29T09:47:48.999Z</time></trkpt><trkpt lat="43.34180752488363" lon="11.504985649184649"><ele>335.0</ele><time>2026-03-29T09:47:49.999Z</time></trkpt><trkpt lat="43.34190869791255" lon="11.504963443236365"><ele>335.0</ele><time>2026-03-29T09:47:50.999Z</time></trkpt><trkpt lat="43.342014231404825" lon="11.504945343713244"><ele>335.0</ele><time>2026-03-29T09:47:51.999Z</time></trkpt><trkpt lat="43.34212169359048" lon="11.504926273631174"><ele>335.0</ele><time>2026-03-29T09:47:52.999Z</time></trkpt><trkpt lat="43.34222655835837" lon="11.504900194373253"><ele>335.75</ele><time>2026-03-29T09:47:53.999Z</time></trkpt><trkpt lat="43.342329476131674" lon="11.504869163452593"><ele>336.5</ele><time>2026-03-29T09:47:54.999Z</time></trkpt><trkpt lat="43.34244307557615" lon="11.50484910757001"><ele>337.25</ele><time>2026-03-29T09:47:55.999Z</time></trkpt><trkpt lat="43.34255571874856" lon="11.504846459615917"><ele>338.0</ele><time>2026-03-29T09:47:56.999Z</time></trkpt><trkpt lat="43.34267939821867" lon="11.50481642199277"><ele>338.0</ele><time>2026-03-29T09:47:57.999Z</time></trkpt><trkpt lat="43.34279959215211" lon="11.504797444536937"><ele>338.0</ele><time>2026-03-29T09:47:58.999Z</time></trkpt><trkpt lat="43.34292144322547" lon="11.50477768919293"><ele>338.0</ele><time>2026-03-29T09:47:59.999Z</time></trkpt><trkpt lat="43.34304825546249" lon="11.504754398854912"><ele>338.0</ele><time>2026-03-29T09:48:00.999Z</time></trkpt><trkpt lat="43.343182211387365" lon="11.504724388843934"><ele>338.0</ele><time>2026-03-29T09:48:01.999Z</time></trkpt><trkpt lat="43.34331095364443" lon="11.504692016678286"><ele>338.0</ele><time>2026-03-29T09:48:02.999Z</time></trkpt><trkpt lat="43.34345117456389" lon="11.504684120284756"><ele>338.0</ele><time>2026-03-29T09:48:03.999Z</time></trkpt><trkpt lat="43.343584700792334" lon="11.504651077228036"><ele>338.0</ele><time>2026-03-29T09:48:04.999Z</time></trkpt><trkpt lat="43.34372534285837" lon="11.504622958446712"><ele>338.0</ele><time>2026-03-29T09:48:05.999Z</time></trkpt><trkpt lat="43.34386657100633" lon="11.504599863406975"><ele>338.0</ele><time>2026-03-29T09:48:06.999Z</time></trkpt><trkpt lat="43.34402495903121" lon="11.504570115103814"><ele>338.0</ele><time>2026-03-29T09:48:07.999Z</time></trkpt><trkpt lat="43.34418276760331" lon="11.504540475623726"><ele>337.59999999999997</ele><time>2026-03-29T09:48:08.999Z</time></trkpt><trkpt lat="43.34404617951153" lon="11.504556735919548"><ele>337.2</ele><time>2026-03-29T09:48:09.999Z</time></trkpt><trkpt lat="43.34413265534431" lon="11.50453881122585"><ele>336.8</ele><time>2026-03-29T09:48:10.999Z</time></trkpt><trkpt lat="43.34422897520262" lon="11.504521605456954"><ele>336.4</ele><time>2026-03-29T09:48:11.999Z</time></trkpt><trkpt lat="43.34433224181905" lon="11.504504470123772"><ele>336.0</ele><time>2026-03-29T09:48:12.999Z</time></trkpt><trkpt lat="43.34442436189389" lon="11.504489200295748"><ele>336.0</ele><time>2026-03-29T09:48:13.999Z</time></trkpt><trkpt lat="43.3445057794134" lon="11.504479066552735"><ele>336.0</ele><time>2026-03-29T09:48:14.999Z</time></trkpt><trkpt lat="43.344581085233536" lon="11.50446881152501"><ele>336.0</ele><time>2026-03-29T09:48:15.999Z</time></trkpt><trkpt lat="43.34465085966532" lon="11.504459535559274"><ele>336.0</ele><time>2026-03-29T09:48:16.999Z</time></trkpt><trkpt lat="43.34475006456297" lon="11.504486000649507"><ele>336.0</ele><time>2026-03-29T09:48:18.999Z</time></trkpt><trkpt lat="43.344820778756365" lon="11.504306743728616"><ele>337.0</ele><time>2026-03-29T09:48:21.999Z</time></trkpt><trkpt lat="43.34484780700138" lon="11.504217575384686"><ele>338.0</ele><time>2026-03-29T09:48:22.999Z</time></trkpt><trkpt lat="43.34489197723985" lon="11.504125902590529"><ele>339.0</ele><time>2026-03-29T09:48:23.999Z</time></trkpt><trkpt lat="43.344931374434594" lon="11.5040484144958"><ele>340.0</ele><time>2026-03-29T09:48:24.999Z</time></trkpt><trkpt lat="43.34496243740281" lon="11.503972717686501"><ele>341.0</ele><time>2026-03-29T09:48:25.999Z</time></trkpt><trkpt lat="43.34499943406285" lon="11.503899574140027"><ele>342.0</ele><time>2026-03-29T09:48:26.999Z</time></trkpt><trkpt lat="43.345021878688755" lon="11.503811935474662"><ele>343.0</ele><time>2026-03-29T09:48:27.999Z</time></trkpt><trkpt lat="43.345063294011815" lon="11.503676767700496"><ele>343.0</ele><time>2026-03-29T09:48:29.999Z</time></trkpt><trkpt lat="43.345093393289815" lon="11.50353593769057"><ele>343.0</ele><time>2026-03-29T09:48:31.999Z</time></trkpt><trkpt lat="43.345000887926425" lon="11.503445753182458"><ele>343.0</ele><time>2026-03-29T09:48:32.999Z</time></trkpt><trkpt lat="43.34494132515581" lon="11.503361520837139"><ele>343.0</ele><time>2026-03-29T09:48:33.999Z</time></trkpt><trkpt lat="43.344908871220056" lon="11.503276699323818"><ele>343.0</ele><time>2026-03-29T09:48:34.999Z</time></trkpt><trkpt lat="43.34489193464099" lon="11.5031929132357"><ele>343.0</ele><time>2026-03-29T09:48:35.999Z</time></trkpt><trkpt lat="43.344883158151504" lon="11.503023909479936"><ele>343.0</ele><time>2026-03-29T09:48:37.999Z</time></trkpt><trkpt lat="43.34489090973703" lon="11.50292296262951"><ele>343.0</ele><time>2026-03-29T09:48:38.999Z</time></trkpt><trkpt lat="43.34490682220141" lon="11.502804184149431"><ele>343.0</ele><time>2026-03-29T09:48:39.999Z</time></trkpt><trkpt lat="43.34493210628406" lon="11.502677194485136"><ele>343.0</ele><time>2026-03-29T09:48:40.999Z</time></trkpt><trkpt lat="43.344965684737524" lon="11.502552960509199"><ele>343.0</ele><time>2026-03-29T09:48:41.999Z</time></trkpt><trkpt lat="43.34500329705743" lon="11.502441330255099"><ele>343.0</ele><time>2026-03-29T09:48:42.999Z</time></trkpt><trkpt lat="43.34504962096394" lon="11.502338068533266"><ele>343.16666666666663</ele><time>2026-03-29T09:48:43.999Z</time></trkpt><trkpt lat="43.345089970411955" lon="11.502232534608622"><ele>343.3333333333333</ele><time>2026-03-29T09:48:44.999Z</time></trkpt><trkpt lat="43.34512791650817" lon="11.502124742139452"><ele>343.5</ele><time>2026-03-29T09:48:45.999Z</time></trkpt><trkpt lat="43.34515850510036" lon="11.502020434143882"><ele>343.6666666666667</ele><time>2026-03-29T09:48:46.999Z</time></trkpt><trkpt lat="43.34519784376461" lon="11.501920626761764"><ele>343.83333333333337</ele><time>2026-03-29T09:48:47.999Z</time></trkpt><trkpt lat="43.34521528306553" lon="11.501834234471556"><ele>344.0</ele><time>2026-03-29T09:48:48.999Z</time></trkpt><trkpt lat="43.345238257786505" lon="11.501675521210961"><ele>342.4</ele><time>2026-03-29T09:48:50.999Z</time></trkpt><trkpt lat="43.345229855564625" lon="11.501499477162238"><ele>340.79999999999995</ele><time>2026-03-29T09:48:52.999Z</time></trkpt><trkpt lat="43.34517397668217" lon="11.501334230827892"><ele>339.20000000000005</ele><time>2026-03-29T09:48:54.999Z</time></trkpt><trkpt lat="43.34513620067613" lon="11.501246057371366"><ele>337.6</ele><time>2026-03-29T09:48:55.999Z</time></trkpt><trkpt lat="43.34508488559538" lon="11.50114398910102"><ele>336.0</ele><time>2026-03-29T09:48:56.999Z</time></trkpt><trkpt lat="43.34503055345023" lon="11.501045030134517"><ele>335.8333333333333</ele><time>2026-03-29T09:48:57.999Z</time></trkpt><trkpt lat="43.344983698114554" lon="11.500947493701275"><ele>335.6666666666667</ele><time>2026-03-29T09:48:58.999Z</time></trkpt><trkpt lat="43.34494349133632" lon="11.500861317150202"><ele>335.5</ele><time>2026-03-29T09:48:59.999Z</time></trkpt><trkpt lat="43.34491743611885" lon="11.500777843342775"><ele>335.33333333333337</ele><time>2026-03-29T09:49:00.999Z</time></trkpt><trkpt lat="43.344941453983466" lon="11.500655073294718"><ele>335.1666666666667</ele><time>2026-03-29T09:49:02.999Z</time></trkpt><trkpt lat="43.345002857784095" lon="11.500599792745506"><ele>335.0</ele><time>2026-03-29T09:49:04.999Z</time></trkpt><trkpt lat="43.3449970253815" lon="11.500370406124926"><ele>335.0</ele><time>2026-03-29T09:49:16.999Z</time></trkpt><trkpt lat="43.34496190552193" lon="11.500276776457026"><ele>335.0</ele><time>2026-03-29T09:49:17.999Z</time></trkpt><trkpt lat="43.34491408719612" lon="11.500155360254114"><ele>335.0</ele><time>2026-03-29T09:49:18.999Z</time></trkpt><trkpt lat="43.34487849492811" lon="11.500012654508254"><ele>335.0</ele><time>2026-03-29T09:49:19.999Z</time></trkpt><trkpt lat="43.344829440608855" lon="11.49987987796284"><ele>335.0</ele><time>2026-03-29T09:49:20.999Z</time></trkpt><trkpt lat="43.344774183801924" lon="11.499733144880368"><ele>335.0</ele><time>2026-03-29T09:49:21.999Z</time></trkpt><trkpt lat="43.344703929425165" lon="11.499594405797362"><ele>335.0</ele><time>2026-03-29T09:49:22.999Z</time></trkpt><trkpt lat="43.34466928170099" lon="11.499446573066367"><ele>335.0</ele><time>2026-03-29T09:49:23.999Z</time></trkpt><trkpt lat="43.34461809450808" lon="11.499322646435909"><ele>335.0</ele><time>2026-03-29T09:49:24.999Z</time></trkpt><trkpt lat="43.34456871280799" lon="11.49919417835603"><ele>335.0</ele><time>2026-03-29T09:49:25.999Z</time></trkpt><trkpt lat="43.34452160469404" lon="11.499067786120298"><ele>335.2</ele><time>2026-03-29T09:49:26.999Z</time></trkpt><trkpt lat="43.344476060391806" lon="11.498947657531174"><ele>335.4</ele><time>2026-03-29T09:49:27.999Z</time></trkpt><trkpt lat="43.34443572665605" lon="11.498819564754086"><ele>335.6</ele><time>2026-03-29T09:49:28.999Z</time></trkpt><trkpt lat="43.34439842607304" lon="11.498683374267001"><ele>335.8</ele><time>2026-03-29T09:49:29.999Z</time></trkpt><trkpt lat="43.34435402260651" lon="11.498546535887908"><ele>336.0</ele><time>2026-03-29T09:49:30.999Z</time></trkpt><trkpt lat="43.34431248746091" lon="11.498414303617286"><ele>336.20000000000005</ele><time>2026-03-29T09:49:31.999Z</time></trkpt><trkpt lat="43.344266999800105" lon="11.498283796333936"><ele>336.40000000000003</ele><time>2026-03-29T09:49:32.999Z</time></trkpt><trkpt lat="43.34422323822168" lon="11.498157702705319"><ele>336.6</ele><time>2026-03-29T09:49:33.999Z</time></trkpt><trkpt lat="43.344176646704625" lon="11.498038441138432"><ele>336.8</ele><time>2026-03-29T09:49:34.999Z</time></trkpt><trkpt lat="43.34413948501021" lon="11.497912803766319"><ele>337.0</ele><time>2026-03-29T09:49:35.999Z</time></trkpt><trkpt lat="43.344095650859984" lon="11.497794125318462"><ele>337.0</ele><time>2026-03-29T09:49:36.999Z</time></trkpt><trkpt lat="43.344048664500114" lon="11.497674944843729"><ele>337.0</ele><time>2026-03-29T09:49:37.999Z</time></trkpt><trkpt lat="43.344005371125604" lon="11.4975574566228"><ele>337.0</ele><time>2026-03-29T09:49:38.999Z</time></trkpt><trkpt lat="43.34396778046659" lon="11.497441901345574"><ele>337.0</ele><time>2026-03-29T09:49:39.999Z</time></trkpt><trkpt lat="43.34391631302402" lon="11.497342511159538"><ele>337.0</ele><time>2026-03-29T09:49:40.999Z</time></trkpt><trkpt lat="43.34387936349047" lon="11.497248022396176"><ele>336.40000000000003</ele><time>2026-03-29T09:49:41.999Z</time></trkpt><trkpt lat="43.343842575671225" lon="11.497163664300055"><ele>335.8</ele><time>2026-03-29T09:49:42.999Z</time></trkpt><trkpt lat="43.34377160139255" lon="11.497031733177264"><ele>335.2</ele><time>2026-03-29T09:49:44.999Z</time></trkpt><trkpt lat="43.34368172024839" lon="11.496901196890368"><ele>334.6</ele><time>2026-03-29T09:49:46.999Z</time></trkpt><trkpt lat="43.3436303616376" lon="11.496835245102316"><ele>334.0</ele><time>2026-03-29T09:49:47.999Z</time></trkpt><trkpt lat="43.34356288640698" lon="11.49674521664611"><ele>334.0</ele><time>2026-03-29T09:49:48.999Z</time></trkpt><trkpt lat="43.34347765494971" lon="11.496656845194366"><ele>334.0</ele><time>2026-03-29T09:49:49.999Z</time></trkpt><trkpt lat="43.34339147519859" lon="11.496550349119557"><ele>334.0</ele><time>2026-03-29T09:49:50.999Z</time></trkpt><trkpt lat="43.34330171072236" lon="11.496439241893203"><ele>334.0</ele><time>2026-03-29T09:49:51.999Z</time></trkpt><trkpt lat="43.34321812784492" lon="11.496313422087939"><ele>333.25</ele><time>2026-03-29T09:49:52.999Z</time></trkpt><trkpt lat="43.34312321870662" lon="11.496191513332565"><ele>332.5</ele><time>2026-03-29T09:49:53.999Z</time></trkpt><trkpt lat="43.34303092701351" lon="11.496077132756463"><ele>331.75</ele><time>2026-03-29T09:49:54.999Z</time></trkpt><trkpt lat="43.34293191420133" lon="11.495954160054689"><ele>331.0</ele><time>2026-03-29T09:49:55.999Z</time></trkpt><trkpt lat="43.342828050841455" lon="11.495823971266786"><ele>331.0</ele><time>2026-03-29T09:49:56.999Z</time></trkpt><trkpt lat="43.34272186780186" lon="11.495685081610056"><ele>331.0</ele><time>2026-03-29T09:49:57.999Z</time></trkpt><trkpt lat="43.34261055036555" lon="11.495540492015627"><ele>331.0</ele><time>2026-03-29T09:49:58.999Z</time></trkpt><trkpt lat="43.34248983632628" lon="11.495404863462165"><ele>328.3333333333333</ele><time>2026-03-29T09:49:59.999Z</time></trkpt><trkpt lat="43.34236664494977" lon="11.495255456314098"><ele>325.6666666666667</ele><time>2026-03-29T09:50:00.999Z</time></trkpt><trkpt lat="43.342235118943066" lon="11.49510193635455"><ele>323.0</ele><time>2026-03-29T09:50:01.999Z</time></trkpt><trkpt lat="43.34209297466332" lon="11.494956850143346"><ele>320.6666666666667</ele><time>2026-03-29T09:50:02.999Z</time></trkpt><trkpt lat="43.341959624975296" lon="11.494797580796707"><ele>318.3333333333333</ele><time>2026-03-29T09:50:03.999Z</time></trkpt><trkpt lat="43.34181973794807" lon="11.494648233905508"><ele>316.0</ele><time>2026-03-29T09:50:04.999Z</time></trkpt><trkpt lat="43.34168883779814" lon="11.494489347588708"><ele>315.0</ele><time>2026-03-29T09:50:05.999Z</time></trkpt><trkpt lat="43.34154887490083" lon="11.494329028501983"><ele>314.0</ele><time>2026-03-29T09:50:06.999Z</time></trkpt><trkpt lat="43.34141153604964" lon="11.49416562103115"><ele>313.0</ele><time>2026-03-29T09:50:07.999Z</time></trkpt><trkpt lat="43.34127424959084" lon="11.494011089158878"><ele>312.0</ele><time>2026-03-29T09:50:08.999Z</time></trkpt><trkpt lat="43.34113540451843" lon="11.49385344115736"><ele>311.0</ele><time>2026-03-29T09:50:09.999Z</time></trkpt><trkpt lat="43.34100547371247" lon="11.493693127775938"><ele>310.0</ele><time>2026-03-29T09:50:10.999Z</time></trkpt><trkpt lat="43.34087505552085" lon="11.493541998173095"><ele>310.0</ele><time>2026-03-29T09:50:11.999Z</time></trkpt><trkpt lat="43.34074327016471" lon="11.493388709288787"><ele>310.0</ele><time>2026-03-29T09:50:12.999Z</time></trkpt><trkpt lat="43.34061110741162" lon="11.493231383356349"><ele>310.0</ele><time>2026-03-29T09:50:13.999Z</time></trkpt><trkpt lat="43.3404802544237" lon="11.493069569124382"><ele>310.3333333333333</ele><time>2026-03-29T09:50:14.999Z</time></trkpt><trkpt lat="43.34034925284316" lon="11.49290207047432"><ele>310.6666666666667</ele><time>2026-03-29T09:50:15.999Z</time></trkpt><trkpt lat="43.34021588491388" lon="11.492733821514957"><ele>311.0</ele><time>2026-03-29T09:50:16.999Z</time></trkpt><trkpt lat="43.340096606053216" lon="11.492560826223174"><ele>311.0</ele><time>2026-03-29T09:50:17.999Z</time></trkpt><trkpt lat="43.339977660244166" lon="11.492374456407717"><ele>311.0</ele><time>2026-03-29T09:50:18.999Z</time></trkpt><trkpt lat="43.33985025421004" lon="11.492211230497098"><ele>311.0</ele><time>2026-03-29T09:50:19.999Z</time></trkpt><trkpt lat="43.33974110115364" lon="11.492018505671169"><ele>309.6666666666667</ele><time>2026-03-29T09:50:20.999Z</time></trkpt><trkpt lat="43.3396113121507" lon="11.491845759269834"><ele>308.3333333333333</ele><time>2026-03-29T09:50:21.999Z</time></trkpt><trkpt lat="43.339494943210994" lon="11.491660572336105"><ele>307.0</ele><time>2026-03-29T09:50:22.999Z</time></trkpt><trkpt lat="43.339376513701964" lon="11.49147498519237"><ele>307.0</ele><time>2026-03-29T09:50:23.999Z</time></trkpt><trkpt lat="43.33926088430571" lon="11.491294671703239"><ele>307.0</ele><time>2026-03-29T09:50:24.999Z</time></trkpt><trkpt lat="43.339145206034864" lon="11.491120526533841"><ele>307.0</ele><time>2026-03-29T09:50:25.999Z</time></trkpt><trkpt lat="43.33902368427855" lon="11.490953797178086"><ele>305.0</ele><time>2026-03-29T09:50:26.999Z</time></trkpt><trkpt lat="43.33888037878024" lon="11.49079795512775"><ele>303.0</ele><time>2026-03-29T09:50:27.999Z</time></trkpt><trkpt lat="43.33873017381823" lon="11.490658851783502"><ele>301.0</ele><time>2026-03-29T09:50:28.999Z</time></trkpt><trkpt lat="43.338590365864505" lon="11.490518871968462"><ele>301.66666666666663</ele><time>2026-03-29T09:50:29.999Z</time></trkpt><trkpt lat="43.338457159495384" lon="11.49037880350725"><ele>302.3333333333333</ele><time>2026-03-29T09:50:30.999Z</time></trkpt><trkpt lat="43.338329711499306" lon="11.490238552679834"><ele>303.0</ele><time>2026-03-29T09:50:31.999Z</time></trkpt><trkpt lat="43.33819621418223" lon="11.49009787739642"><ele>303.0</ele><time>2026-03-29T09:50:32.999Z</time></trkpt><trkpt lat="43.338061136596316" lon="11.489949950713347"><ele>303.0</ele><time>2026-03-29T09:50:33.999Z</time></trkpt><trkpt lat="43.33792669745066" lon="11.489798896446644"><ele>303.0</ele><time>2026-03-29T09:50:34.999Z</time></trkpt><trkpt lat="43.33778330754891" lon="11.48965364627351"><ele>301.0</ele><time>2026-03-29T09:50:35.999Z</time></trkpt><trkpt lat="43.33764148079948" lon="11.48950559056077"><ele>299.0</ele><time>2026-03-29T09:50:36.999Z</time></trkpt><trkpt lat="43.33749399464133" lon="11.489363191322177"><ele>297.0</ele><time>2026-03-29T09:50:37.999Z</time></trkpt><trkpt lat="43.33734854665599" lon="11.489219475287197"><ele>297.6666666666667</ele><time>2026-03-29T09:50:38.999Z</time></trkpt><trkpt lat="43.33721142865276" lon="11.489072286641175"><ele>298.33333333333337</ele><time>2026-03-29T09:50:39.999Z</time></trkpt><trkpt lat="43.33705686310111" lon="11.488948964678448"><ele>299.0</ele><time>2026-03-29T09:50:40.999Z</time></trkpt><trkpt lat="43.336898156682636" lon="11.488851019596288"><ele>299.0</ele><time>2026-03-29T09:50:41.999Z</time></trkpt><trkpt lat="43.336740950922795" lon="11.488763715942186"><ele>299.0</ele><time>2026-03-29T09:50:42.999Z</time></trkpt><trkpt lat="43.33658897942572" lon="11.488668605293856"><ele>299.0</ele><time>2026-03-29T09:50:43.999Z</time></trkpt><trkpt lat="43.33646046231614" lon="11.488537594465488"><ele>299.0</ele><time>2026-03-29T09:50:44.999Z</time></trkpt><trkpt lat="43.33635511724905" lon="11.488374055944083"><ele>299.0</ele><time>2026-03-29T09:50:45.999Z</time></trkpt><trkpt lat="43.33626368965733" lon="11.48819450085188"><ele>299.0</ele><time>2026-03-29T09:50:46.999Z</time></trkpt><trkpt lat="43.33616084686164" lon="11.488030921485056"><ele>296.33333333333337</ele><time>2026-03-29T09:50:47.999Z</time></trkpt><trkpt lat="43.336037323226826" lon="11.487885537149221"><ele>293.6666666666667</ele><time>2026-03-29T09:50:48.999Z</time></trkpt><trkpt lat="43.3359087205599" lon="11.487741059566863"><ele>291.0</ele><time>2026-03-29T09:50:49.999Z</time></trkpt><trkpt lat="43.33578577743674" lon="11.487581140443945"><ele>291.0</ele><time>2026-03-29T09:50:50.999Z</time></trkpt><trkpt lat="43.33566709160229" lon="11.487411165956134"><ele>291.0</ele><time>2026-03-29T09:50:51.999Z</time></trkpt><trkpt lat="43.33555861752235" lon="11.487227930999463"><ele>291.0</ele><time>2026-03-29T09:50:52.999Z</time></trkpt><trkpt lat="43.33546370036773" lon="11.487024672376823"><ele>292.0</ele><time>2026-03-29T09:50:53.999Z</time></trkpt><trkpt lat="43.33537596900279" lon="11.486816723995245"><ele>293.0</ele><time>2026-03-29T09:50:54.999Z</time></trkpt><trkpt lat="43.33529223552843" lon="11.486604271957303"><ele>294.0</ele><time>2026-03-29T09:50:55.999Z</time></trkpt><trkpt lat="43.33520833619227" lon="11.486400465819512"><ele>291.0</ele><time>2026-03-29T09:50:56.999Z</time></trkpt><trkpt lat="43.33512452153468" lon="11.486194404406184"><ele>288.0</ele><time>2026-03-29T09:50:57.999Z</time></trkpt><trkpt lat="43.33504246801287" lon="11.485984954897443"><ele>285.0</ele><time>2026-03-29T09:50:58.999Z</time></trkpt><trkpt lat="43.33497089414905" lon="11.48576732905469"><ele>285.0</ele><time>2026-03-29T09:50:59.999Z</time></trkpt><trkpt lat="43.334937980077626" lon="11.485528781882573"><ele>285.0</ele><time>2026-03-29T09:51:00.999Z</time></trkpt><trkpt lat="43.33488987208326" lon="11.485298532610713"><ele>285.0</ele><time>2026-03-29T09:51:01.999Z</time></trkpt><trkpt lat="43.33486691452529" lon="11.485062990035278"><ele>283.0</ele><time>2026-03-29T09:51:02.999Z</time></trkpt><trkpt lat="43.334836257437644" lon="11.484825666240194"><ele>281.0</ele><time>2026-03-29T09:51:03.999Z</time></trkpt><trkpt lat="43.33480467938089" lon="11.484589884856026"><ele>279.0</ele><time>2026-03-29T09:51:04.999Z</time></trkpt><trkpt lat="43.334778701046176" lon="11.484351664475842"><ele>277.6666666666667</ele><time>2026-03-29T09:51:05.999Z</time></trkpt><trkpt lat="43.334758612104004" lon="11.484110830493565"><ele>276.33333333333337</ele><time>2026-03-29T09:51:06.999Z</time></trkpt><trkpt lat="43.33473804947305" lon="11.483874103453902"><ele>275.0</ele><time>2026-03-29T09:51:07.999Z</time></trkpt><trkpt lat="43.33471961715738" lon="11.48364574582728"><ele>278.0</ele><time>2026-03-29T09:51:08.999Z</time></trkpt><trkpt lat="43.33470481964441" lon="11.483421517364595"><ele>281.0</ele><time>2026-03-29T09:51:09.999Z</time></trkpt><trkpt lat="43.33468495149311" lon="11.483194022419493"><ele>284.0</ele><time>2026-03-29T09:51:10.999Z</time></trkpt><trkpt lat="43.33466073852121" lon="11.482975858479847"><ele>283.25</ele><time>2026-03-29T09:51:11.999Z</time></trkpt><trkpt lat="43.33464321488894" lon="11.482787177145136"><ele>282.5</ele><time>2026-03-29T09:51:12.999Z</time></trkpt><trkpt lat="43.334620234899496" lon="11.48259882406256"><ele>281.75</ele><time>2026-03-29T09:51:13.999Z</time></trkpt><trkpt lat="43.3345940205711" lon="11.482421340792971"><ele>281.0</ele><time>2026-03-29T09:51:14.999Z</time></trkpt><trkpt lat="43.334588135181995" lon="11.482238503963496"><ele>279.25</ele><time>2026-03-29T09:51:15.999Z</time></trkpt><trkpt lat="43.33460841077421" lon="11.48204869364775"><ele>277.5</ele><time>2026-03-29T09:51:16.999Z</time></trkpt><trkpt lat="43.334666415841085" lon="11.481861741415655"><ele>275.75</ele><time>2026-03-29T09:51:17.999Z</time></trkpt><trkpt lat="43.33475055909513" lon="11.481698393700631"><ele>274.0</ele><time>2026-03-29T09:51:18.999Z</time></trkpt><trkpt lat="43.33484361166857" lon="11.481538979996861"><ele>273.5</ele><time>2026-03-29T09:51:19.999Z</time></trkpt><trkpt lat="43.33493458618537" lon="11.48138168140294"><ele>273.0</ele><time>2026-03-29T09:51:20.999Z</time></trkpt><trkpt lat="43.33501651348556" lon="11.481238021236104"><ele>272.5</ele><time>2026-03-29T09:51:21.999Z</time></trkpt><trkpt lat="43.33509487663586" lon="11.481100990931992"><ele>272.0</ele><time>2026-03-29T09:51:22.999Z</time></trkpt><trkpt lat="43.33518093933659" lon="11.480968756210462"><ele>273.75</ele><time>2026-03-29T09:51:23.999Z</time></trkpt><trkpt lat="43.335262124636" lon="11.48082859062168"><ele>275.5</ele><time>2026-03-29T09:51:24.999Z</time></trkpt><trkpt lat="43.335346519330464" lon="11.480693851274175"><ele>277.25</ele><time>2026-03-29T09:51:25.999Z</time></trkpt><trkpt lat="43.33543360559535" lon="11.480565760485277"><ele>279.0</ele><time>2026-03-29T09:51:26.999Z</time></trkpt><trkpt lat="43.33554210558856" lon="11.480442892093075"><ele>279.3333333333333</ele><time>2026-03-29T09:51:27.999Z</time></trkpt><trkpt lat="43.33566659891371" lon="11.480319986294674"><ele>279.66666666666663</ele><time>2026-03-29T09:51:28.999Z</time></trkpt><trkpt lat="43.33580335542856" lon="11.480217341890192"><ele>280.0</ele><time>2026-03-29T09:51:29.999Z</time></trkpt><trkpt lat="43.33592350717638" lon="11.480107232400622"><ele>280.0</ele><time>2026-03-29T09:51:30.999Z</time></trkpt><trkpt lat="43.336031027964204" lon="11.479983167489536"><ele>280.0</ele><time>2026-03-29T09:51:31.999Z</time></trkpt><trkpt lat="43.33615509414702" lon="11.4798822129232"><ele>280.0</ele><time>2026-03-29T09:51:32.999Z</time></trkpt><trkpt lat="43.33628087227186" lon="11.479767499031036"><ele>280.0</ele><time>2026-03-29T09:51:33.999Z</time></trkpt><trkpt lat="43.33640234176143" lon="11.479659594091759"><ele>279.0</ele><time>2026-03-29T09:51:34.999Z</time></trkpt><trkpt lat="43.33651253966513" lon="11.479561008842527"><ele>278.0</ele><time>2026-03-29T09:51:35.999Z</time></trkpt><trkpt lat="43.33662969741129" lon="11.479474790385904"><ele>277.0</ele><time>2026-03-29T09:51:36.999Z</time></trkpt><trkpt lat="43.3367509769126" lon="11.479394149889032"><ele>276.0</ele><time>2026-03-29T09:51:37.999Z</time></trkpt><trkpt lat="43.33687495952047" lon="11.479327628095357"><ele>276.0</ele><time>2026-03-29T09:51:38.999Z</time></trkpt><trkpt lat="43.33700140586928" lon="11.479292107569385"><ele>276.0</ele><time>2026-03-29T09:51:39.999Z</time></trkpt><trkpt lat="43.33712767707519" lon="11.479288745144746"><ele>276.0</ele><time>2026-03-29T09:51:40.999Z</time></trkpt><trkpt lat="43.33725612516216" lon="11.479286097380879"><ele>276.0</ele><time>2026-03-29T09:51:41.999Z</time></trkpt><trkpt lat="43.33738512850729" lon="11.479277603595074"><ele>275.5</ele><time>2026-03-29T09:51:42.999Z</time></trkpt><trkpt lat="43.337508873136784" lon="11.479266512554002"><ele>275.0</ele><time>2026-03-29T09:51:43.999Z</time></trkpt><trkpt lat="43.33762694324511" lon="11.47927315495834"><ele>274.5</ele><time>2026-03-29T09:51:44.999Z</time></trkpt><trkpt lat="43.33773356073555" lon="11.479229832972916"><ele>274.0</ele><time>2026-03-29T09:51:45.999Z</time></trkpt><trkpt lat="43.3378228354599" lon="11.479148840993112"><ele>274.0</ele><time>2026-03-29T09:51:46.999Z</time></trkpt><trkpt lat="43.337884560632205" lon="11.479038126461369"><ele>274.0</ele><time>2026-03-29T09:51:47.999Z</time></trkpt><trkpt lat="43.3379235307913" lon="11.478895512491825"><ele>274.0</ele><time>2026-03-29T09:51:48.999Z</time></trkpt><trkpt lat="43.33792866451684" lon="11.47872503038768"><ele>274.0</ele><time>2026-03-29T09:51:49.999Z</time></trkpt><trkpt lat="43.337896191041544" lon="11.478543674753887"><ele>273.0</ele><time>2026-03-29T09:51:50.999Z</time></trkpt><trkpt lat="43.337849798455984" lon="11.478346876364972"><ele>272.0</ele><time>2026-03-29T09:51:51.999Z</time></trkpt><trkpt lat="43.33780949548115" lon="11.47813422579228"><ele>271.0</ele><time>2026-03-29T09:51:52.999Z</time></trkpt><trkpt lat="43.33776466566326" lon="11.47792418212953"><ele>269.3333333333333</ele><time>2026-03-29T09:51:53.999Z</time></trkpt><trkpt lat="43.33771183014333" lon="11.477705844457201"><ele>267.6666666666667</ele><time>2026-03-29T09:51:54.999Z</time></trkpt><trkpt lat="43.337665734063876" lon="11.477472949471743"><ele>266.0</ele><time>2026-03-29T09:51:55.999Z</time></trkpt><trkpt lat="43.337619021049264" lon="11.477242227066933"><ele>265.0</ele><time>2026-03-29T09:51:56.999Z</time></trkpt><trkpt lat="43.33756984252207" lon="11.477017384431456"><ele>264.0</ele><time>2026-03-29T09:51:57.999Z</time></trkpt><trkpt lat="43.337532521945114" lon="11.476791369603324"><ele>263.0</ele><time>2026-03-29T09:51:58.999Z</time></trkpt><trkpt lat="43.33752367317998" lon="11.476565479440437"><ele>263.0</ele><time>2026-03-29T09:51:59.999Z</time></trkpt><trkpt lat="43.3375545677065" lon="11.476342103606385"><ele>263.0</ele><time>2026-03-29T09:52:00.999Z</time></trkpt><trkpt lat="43.33761129429329" lon="11.476117559089925"><ele>263.0</ele><time>2026-03-29T09:52:01.999Z</time></trkpt><trkpt lat="43.33767898224447" lon="11.475891683631772"><ele>262.33333333333337</ele><time>2026-03-29T09:52:02.999Z</time></trkpt><trkpt lat="43.337736373648525" lon="11.475652550694242"><ele>261.6666666666667</ele><time>2026-03-29T09:52:03.999Z</time></trkpt><trkpt lat="43.33776478971766" lon="11.475424425955428"><ele>261.0</ele><time>2026-03-29T09:52:04.999Z</time></trkpt><trkpt lat="43.33779527593306" lon="11.475190804944022"><ele>258.3333333333333</ele><time>2026-03-29T09:52:05.999Z</time></trkpt><trkpt lat="43.33782374267712" lon="11.474943373660123"><ele>255.66666666666666</ele><time>2026-03-29T09:52:06.999Z</time></trkpt><trkpt lat="43.33787876091046" lon="11.474723893229998"><ele>253.0</ele><time>2026-03-29T09:52:07.999Z</time></trkpt><trkpt lat="43.33793123808659" lon="11.4745252132898"><ele>252.0</ele><time>2026-03-29T09:52:08.999Z</time></trkpt><trkpt lat="43.33799005306495" lon="11.474341871844095"><ele>251.0</ele><time>2026-03-29T09:52:09.999Z</time></trkpt><trkpt lat="43.33808967609458" lon="11.474172993809887"><ele>250.0</ele><time>2026-03-29T09:52:10.999Z</time></trkpt><trkpt lat="43.33821480943925" lon="11.474063206270348"><ele>250.0</ele><time>2026-03-29T09:52:11.999Z</time></trkpt><trkpt lat="43.33835406039839" lon="11.473979447295537"><ele>250.0</ele><time>2026-03-29T09:52:12.999Z</time></trkpt><trkpt lat="43.33850364981289" lon="11.47394116812687"><ele>250.0</ele><time>2026-03-29T09:52:13.999Z</time></trkpt><trkpt lat="43.33866777073637" lon="11.473926015454945"><ele>250.0</ele><time>2026-03-29T09:52:14.999Z</time></trkpt><trkpt lat="43.33882006467225" lon="11.473909312064562"><ele>250.0</ele><time>2026-03-29T09:52:15.999Z</time></trkpt><trkpt lat="43.338963902493816" lon="11.473860326178956"><ele>250.0</ele><time>2026-03-29T09:52:16.999Z</time></trkpt><trkpt lat="43.3390994234002" lon="11.473760218418917"><ele>245.66666666666666</ele><time>2026-03-29T09:52:17.999Z</time></trkpt><trkpt lat="43.33921603322738" lon="11.473611123528269"><ele>241.33333333333331</ele><time>2026-03-29T09:52:18.999Z</time></trkpt><trkpt lat="43.339324698756336" lon="11.473426786143262"><ele>237.0</ele><time>2026-03-29T09:52:19.999Z</time></trkpt><trkpt lat="43.33942157962207" lon="11.47322391233196"><ele>237.0</ele><time>2026-03-29T09:52:20.999Z</time></trkpt><trkpt lat="43.339521470081806" lon="11.47300881157809"><ele>237.0</ele><time>2026-03-29T09:52:21.999Z</time></trkpt><trkpt lat="43.33962823077068" lon="11.472802074521498"><ele>237.0</ele><time>2026-03-29T09:52:22.999Z</time></trkpt><trkpt lat="43.33973845525458" lon="11.472593201701727"><ele>234.66666666666669</ele><time>2026-03-29T09:52:23.999Z</time></trkpt><trkpt lat="43.33985615661547" lon="11.472415205365813"><ele>232.33333333333334</ele><time>2026-03-29T09:52:24.999Z</time></trkpt><trkpt lat="43.33994427193294" lon="11.472218770750494"><ele>230.0</ele><time>2026-03-29T09:52:25.999Z</time></trkpt><trkpt lat="43.34002948461478" lon="11.472028240467688"><ele>230.0</ele><time>2026-03-29T09:52:26.999Z</time></trkpt><trkpt lat="43.340084306126236" lon="11.471815807643335"><ele>230.0</ele><time>2026-03-29T09:52:27.999Z</time></trkpt><trkpt lat="43.34010052033349" lon="11.47158910365511"><ele>230.0</ele><time>2026-03-29T09:52:28.999Z</time></trkpt><trkpt lat="43.34008461174261" lon="11.471355652854003"><ele>231.0</ele><time>2026-03-29T09:52:29.999Z</time></trkpt><trkpt lat="43.340032155614246" lon="11.47112209036453"><ele>232.0</ele><time>2026-03-29T09:52:30.999Z</time></trkpt><trkpt lat="43.33995591686006" lon="11.470893524421514"><ele>233.0</ele><time>2026-03-29T09:52:31.999Z</time></trkpt><trkpt lat="43.33987975991341" lon="11.470684333351787"><ele>233.0</ele><time>2026-03-29T09:52:32.999Z</time></trkpt><trkpt lat="43.33984943475669" lon="11.47046930552346"><ele>233.0</ele><time>2026-03-29T09:52:33.999Z</time></trkpt><trkpt lat="43.33984720886476" lon="11.470263470899344"><ele>233.0</ele><time>2026-03-29T09:52:34.999Z</time></trkpt><trkpt lat="43.3398707508961" lon="11.470053284673154"><ele>232.66666666666669</ele><time>2026-03-29T09:52:35.999Z</time></trkpt><trkpt lat="43.339923491682626" lon="11.469848827842783"><ele>232.33333333333331</ele><time>2026-03-29T09:52:36.999Z</time></trkpt><trkpt lat="43.340007327763026" lon="11.469648843550617"><ele>232.0</ele><time>2026-03-29T09:52:37.999Z</time></trkpt><trkpt lat="43.34010226026001" lon="11.469441993669372"><ele>232.0</ele><time>2026-03-29T09:52:38.999Z</time></trkpt><trkpt lat="43.34023329670254" lon="11.46929516258961"><ele>232.0</ele><time>2026-03-29T09:52:39.999Z</time></trkpt><trkpt lat="43.34037720842237" lon="11.469205396097857"><ele>232.0</ele><time>2026-03-29T09:52:40.999Z</time></trkpt><trkpt lat="43.34052352405495" lon="11.46919507305184"><ele>234.0</ele><time>2026-03-29T09:52:41.999Z</time></trkpt><trkpt lat="43.3406614263631" lon="11.469229399845744"><ele>236.0</ele><time>2026-03-29T09:52:42.999Z</time></trkpt><trkpt lat="43.34081097369678" lon="11.469289464051318"><ele>238.0</ele><time>2026-03-29T09:52:43.999Z</time></trkpt><trkpt lat="43.34097055326346" lon="11.469362651056157"><ele>238.0</ele><time>2026-03-29T09:52:44.999Z</time></trkpt><trkpt lat="43.34113174531776" lon="11.469390063754167"><ele>238.0</ele><time>2026-03-29T09:52:45.999Z</time></trkpt><trkpt lat="43.34128995868397" lon="11.46941526015942"><ele>238.0</ele><time>2026-03-29T09:52:46.999Z</time></trkpt><trkpt lat="43.341448196678414" lon="11.469343379171232"><ele>239.33333333333331</ele><time>2026-03-29T09:52:47.999Z</time></trkpt><trkpt lat="43.34159841144566" lon="11.469254654944669"><ele>240.66666666666669</ele><time>2026-03-29T09:52:48.999Z</time></trkpt><trkpt lat="43.34173639488132" lon="11.469147460964837"><ele>242.0</ele><time>2026-03-29T09:52:49.999Z</time></trkpt><trkpt lat="43.34180702752138" lon="11.468966520141306"><ele>242.0</ele><time>2026-03-29T09:52:50.999Z</time></trkpt><trkpt lat="43.34185542831532" lon="11.468788138994345"><ele>242.0</ele><time>2026-03-29T09:52:51.999Z</time></trkpt><trkpt lat="43.341868718461456" lon="11.468583504768233"><ele>242.0</ele><time>2026-03-29T09:52:52.999Z</time></trkpt><trkpt lat="43.3418507512389" lon="11.468352884864998"><ele>241.66666666666669</ele><time>2026-03-29T09:52:53.999Z</time></trkpt><trkpt lat="43.34185264763781" lon="11.468098882915047"><ele>241.33333333333331</ele><time>2026-03-29T09:52:54.999Z</time></trkpt><trkpt lat="43.34184153787526" lon="11.467845756996207"><ele>241.0</ele><time>2026-03-29T09:52:55.999Z</time></trkpt><trkpt lat="43.34183186236536" lon="11.467596952651128"><ele>243.0</ele><time>2026-03-29T09:52:56.999Z</time></trkpt><trkpt lat="43.34182246114963" lon="11.467339504323304"><ele>245.0</ele><time>2026-03-29T09:52:57.999Z</time></trkpt><trkpt lat="43.3418133935111" lon="11.467091190698282"><ele>247.0</ele><time>2026-03-29T09:52:58.999Z</time></trkpt><trkpt lat="43.34180333687677" lon="11.466850043015572"><ele>249.0</ele><time>2026-03-29T09:52:59.999Z</time></trkpt><trkpt lat="43.341776320424046" lon="11.466603809021105"><ele>251.0</ele><time>2026-03-29T09:53:00.999Z</time></trkpt><trkpt lat="43.34174149833876" lon="11.46636186187596"><ele>253.0</ele><time>2026-03-29T09:53:01.999Z</time></trkpt><trkpt lat="43.34165616683127" lon="11.466111341767082"><ele>253.66666666666666</ele><time>2026-03-29T09:53:02.999Z</time></trkpt><trkpt lat="43.34157451735621" lon="11.465881703449647"><ele>254.33333333333331</ele><time>2026-03-29T09:53:03.999Z</time></trkpt><trkpt lat="43.34148829230725" lon="11.465689481323224"><ele>255.0</ele><time>2026-03-29T09:53:04.999Z</time></trkpt><trkpt lat="43.34143168409651" lon="11.465514214514185"><ele>255.5</ele><time>2026-03-29T09:53:05.999Z</time></trkpt><trkpt lat="43.341428628791206" lon="11.465348204804341"><ele>256.0</ele><time>2026-03-29T09:53:06.999Z</time></trkpt><trkpt lat="43.34147181685811" lon="11.465180848463383"><ele>256.5</ele><time>2026-03-29T09:53:07.999Z</time></trkpt><trkpt lat="43.34156010241858" lon="11.465044441779732"><ele>257.0</ele><time>2026-03-29T09:53:08.999Z</time></trkpt><trkpt lat="43.34168678347457" lon="11.464952500910602"><ele>257.0</ele><time>2026-03-29T09:53:09.999Z</time></trkpt><trkpt lat="43.341819913772945" lon="11.464928116092164"><ele>257.0</ele><time>2026-03-29T09:53:10.999Z</time></trkpt><trkpt lat="43.341954698963036" lon="11.464980693670316"><ele>257.0</ele><time>2026-03-29T09:53:11.999Z</time></trkpt><trkpt lat="43.34208315770794" lon="11.46510188873255"><ele>257.0</ele><time>2026-03-29T09:53:12.999Z</time></trkpt><trkpt lat="43.342215137124796" lon="11.465253548047494"><ele>258.0</ele><time>2026-03-29T09:53:13.999Z</time></trkpt><trkpt lat="43.342355059928" lon="11.465428102152462"><ele>259.0</ele><time>2026-03-29T09:53:14.999Z</time></trkpt><trkpt lat="43.342492273158186" lon="11.465576380462725"><ele>260.0</ele><time>2026-03-29T09:53:15.999Z</time></trkpt><trkpt lat="43.34263132785081" lon="11.465673625997281"><ele>260.0</ele><time>2026-03-29T09:53:16.999Z</time></trkpt><trkpt lat="43.34277796214207" lon="11.465702555340897"><ele>260.0</ele><time>2026-03-29T09:53:17.999Z</time></trkpt><trkpt lat="43.34294002350014" lon="11.465671270365803"><ele>260.0</ele><time>2026-03-29T09:53:18.999Z</time></trkpt><trkpt lat="43.3431095585089" lon="11.465586153726965"><ele>260.6666666666667</ele><time>2026-03-29T09:53:19.999Z</time></trkpt><trkpt lat="43.34327881155191" lon="11.465468777855438"><ele>261.3333333333333</ele><time>2026-03-29T09:53:20.999Z</time></trkpt><trkpt lat="43.343458305534234" lon="11.465385567174582"><ele>262.0</ele><time>2026-03-29T09:53:21.999Z</time></trkpt><trkpt lat="43.34365456656769" lon="11.465384729502658"><ele>262.66666666666663</ele><time>2026-03-29T09:53:22.999Z</time></trkpt><trkpt lat="43.34385858440024" lon="11.46544294438527"><ele>263.3333333333333</ele><time>2026-03-29T09:53:23.999Z</time></trkpt><trkpt lat="43.344050316185694" lon="11.4655083049755"><ele>264.0</ele><time>2026-03-29T09:53:24.999Z</time></trkpt><trkpt lat="43.34423315211538" lon="11.4655507675852"><ele>264.0</ele><time>2026-03-29T09:53:25.999Z</time></trkpt><trkpt lat="43.34441232942424" lon="11.465585760846194"><ele>264.0</ele><time>2026-03-29T09:53:26.999Z</time></trkpt><trkpt lat="43.344592284339775" lon="11.465629461468305"><ele>264.0</ele><time>2026-03-29T09:53:27.999Z</time></trkpt><trkpt lat="43.344764554158566" lon="11.4656699134941"><ele>266.6666666666667</ele><time>2026-03-29T09:53:28.999Z</time></trkpt><trkpt lat="43.34493000452388" lon="11.465717592411702"><ele>269.33333333333337</ele><time>2026-03-29T09:53:29.999Z</time></trkpt><trkpt lat="43.34508515986987" lon="11.465795515575582"><ele>272.0</ele><time>2026-03-29T09:53:30.999Z</time></trkpt><trkpt lat="43.3452284125107" lon="11.465888416666635"><ele>272.0</ele><time>2026-03-29T09:53:31.999Z</time></trkpt><trkpt lat="43.345359063387754" lon="11.465977609591773"><ele>272.0</ele><time>2026-03-29T09:53:32.999Z</time></trkpt><trkpt lat="43.3454798726419" lon="11.46603172463687"><ele>272.0</ele><time>2026-03-29T09:53:33.999Z</time></trkpt><trkpt lat="43.345598647125506" lon="11.466032958067272"><ele>272.0</ele><time>2026-03-29T09:53:34.999Z</time></trkpt><trkpt lat="43.34571867069488" lon="11.466006335410228"><ele>273.25</ele><time>2026-03-29T09:53:35.999Z</time></trkpt><trkpt lat="43.34583955960799" lon="11.465963247917985"><ele>274.5</ele><time>2026-03-29T09:53:36.999Z</time></trkpt><trkpt lat="43.345963158537224" lon="11.465923887448294"><ele>275.75</ele><time>2026-03-29T09:53:37.999Z</time></trkpt><trkpt lat="43.34609337471913" lon="11.465905865971314"><ele>277.0</ele><time>2026-03-29T09:53:38.999Z</time></trkpt><trkpt lat="43.346234177436436" lon="11.46590551212545"><ele>277.0</ele><time>2026-03-29T09:53:39.999Z</time></trkpt><trkpt lat="43.34637498406776" lon="11.465911053468634"><ele>277.0</ele><time>2026-03-29T09:53:40.999Z</time></trkpt><trkpt lat="43.34652206290279" lon="11.46590277203808"><ele>277.0</ele><time>2026-03-29T09:53:41.999Z</time></trkpt><trkpt lat="43.34668149232689" lon="11.465889482142135"><ele>277.0</ele><time>2026-03-29T09:53:42.999Z</time></trkpt><trkpt lat="43.3468294867628" lon="11.465797978840074"><ele>276.66666666666663</ele><time>2026-03-29T09:53:43.999Z</time></trkpt><trkpt lat="43.34695397586213" lon="11.465636470815436"><ele>276.3333333333333</ele><time>2026-03-29T09:53:44.999Z</time></trkpt><trkpt lat="43.3470767410435" lon="11.46546835248667"><ele>276.0</ele><time>2026-03-29T09:53:45.999Z</time></trkpt><trkpt lat="43.34720301505562" lon="11.465286205635941"><ele>279.6666666666667</ele><time>2026-03-29T09:53:46.999Z</time></trkpt><trkpt lat="43.347333559829885" lon="11.465097836071251"><ele>283.33333333333337</ele><time>2026-03-29T09:53:47.999Z</time></trkpt><trkpt lat="43.34746208777617" lon="11.464907891430911"><ele>287.0</ele><time>2026-03-29T09:53:48.999Z</time></trkpt><trkpt lat="43.34757640053148" lon="11.464744122301939"><ele>287.0</ele><time>2026-03-29T09:53:49.999Z</time></trkpt><trkpt lat="43.3476993250907" lon="11.464619076585887"><ele>287.0</ele><time>2026-03-29T09:53:50.999Z</time></trkpt><trkpt lat="43.3478500744904" lon="11.464537370336428"><ele>287.0</ele><time>2026-03-29T09:53:51.999Z</time></trkpt><trkpt lat="43.34802171155074" lon="11.464494354230695"><ele>286.6666666666667</ele><time>2026-03-29T09:53:52.999Z</time></trkpt><trkpt lat="43.3482091447365" lon="11.46450366381558"><ele>286.3333333333333</ele><time>2026-03-29T09:53:53.999Z</time></trkpt><trkpt lat="43.348401670221214" lon="11.46448703459876"><ele>286.0</ele><time>2026-03-29T09:53:54.999Z</time></trkpt><trkpt lat="43.34858740627714" lon="11.464475644726996"><ele>286.0</ele><time>2026-03-29T09:53:55.999Z</time></trkpt><trkpt lat="43.34875801540163" lon="11.464474095589964"><ele>286.0</ele><time>2026-03-29T09:53:56.999Z</time></trkpt><trkpt lat="43.348918712413465" lon="11.464514034478992"><ele>286.0</ele><time>2026-03-29T09:53:57.999Z</time></trkpt><trkpt lat="43.34907435278341" lon="11.464612738192262"><ele>292.0</ele><time>2026-03-29T09:53:58.999Z</time></trkpt><trkpt lat="43.34921563521738" lon="11.464756341212874"><ele>298.0</ele><time>2026-03-29T09:53:59.999Z</time></trkpt><trkpt lat="43.34936988906525" lon="11.464913636208237"><ele>304.0</ele><time>2026-03-29T09:54:00.999Z</time></trkpt><trkpt lat="43.34951271715022" lon="11.46501282417707"><ele>304.0</ele><time>2026-03-29T09:54:01.999Z</time></trkpt><trkpt lat="43.349682769137985" lon="11.465052649256808"><ele>304.0</ele><time>2026-03-29T09:54:02.999Z</time></trkpt><trkpt lat="43.349854064192826" lon="11.465002883148179"><ele>304.0</ele><time>2026-03-29T09:54:03.999Z</time></trkpt><trkpt lat="43.349973896832864" lon="11.464882211029009"><ele>303.5</ele><time>2026-03-29T09:54:04.999Z</time></trkpt><trkpt lat="43.35005665640413" lon="11.464719317555973"><ele>303.0</ele><time>2026-03-29T09:54:05.999Z</time></trkpt><trkpt lat="43.350102780700226" lon="11.464541520241811"><ele>302.5</ele><time>2026-03-29T09:54:06.999Z</time></trkpt><trkpt lat="43.35012935523016" lon="11.464339965522838"><ele>302.0</ele><time>2026-03-29T09:54:07.999Z</time></trkpt><trkpt lat="43.350157720948246" lon="11.464148444307463"><ele>302.0</ele><time>2026-03-29T09:54:08.999Z</time></trkpt><trkpt lat="43.35026188249423" lon="11.46402199016745"><ele>302.0</ele><time>2026-03-29T09:54:09.999Z</time></trkpt><trkpt lat="43.35039407204926" lon="11.463918720310419"><ele>302.0</ele><time>2026-03-29T09:54:10.999Z</time></trkpt><trkpt lat="43.350500880339176" lon="11.463790064967867"><ele>302.0</ele><time>2026-03-29T09:54:11.999Z</time></trkpt><trkpt lat="43.35054334936678" lon="11.463626285958043"><ele>301.25</ele><time>2026-03-29T09:54:12.999Z</time></trkpt><trkpt lat="43.350545382743036" lon="11.463465217677419"><ele>300.5</ele><time>2026-03-29T09:54:13.999Z</time></trkpt><trkpt lat="43.350491405156646" lon="11.463282524330861"><ele>299.75</ele><time>2026-03-29T09:54:14.999Z</time></trkpt><trkpt lat="43.35039545713204" lon="11.463110611229697"><ele>299.0</ele><time>2026-03-29T09:54:15.999Z</time></trkpt><trkpt lat="43.350270777268456" lon="11.462974612323094"><ele>300.59999999999997</ele><time>2026-03-29T09:54:16.999Z</time></trkpt><trkpt lat="43.35016643060792" lon="11.462859245877155"><ele>302.2</ele><time>2026-03-29T09:54:17.999Z</time></trkpt><trkpt lat="43.35011314367985" lon="11.462734507608056"><ele>303.79999999999995</ele><time>2026-03-29T09:54:18.999Z</time></trkpt><trkpt lat="43.350110494636645" lon="11.462608259387705"><ele>305.4</ele><time>2026-03-29T09:54:19.999Z</time></trkpt><trkpt lat="43.350146717002644" lon="11.462514551331804"><ele>307.0</ele><time>2026-03-29T09:54:20.999Z</time></trkpt><trkpt lat="43.35021580344647" lon="11.46244024832311"><ele>307.0</ele><time>2026-03-29T09:54:21.999Z</time></trkpt><trkpt lat="43.35033212924573" lon="11.462407786895936"><ele>307.0</ele><time>2026-03-29T09:54:22.999Z</time></trkpt><trkpt lat="43.35047171302145" lon="11.462323229726039"><ele>307.0</ele><time>2026-03-29T09:54:23.999Z</time></trkpt><trkpt lat="43.35063547677567" lon="11.462278280667764"><ele>307.0</ele><time>2026-03-29T09:54:24.999Z</time></trkpt><trkpt lat="43.35080982806214" lon="11.46219306575666"><ele>307.0</ele><time>2026-03-29T09:54:25.999Z</time></trkpt><trkpt lat="43.35098334949833" lon="11.462056663570015"><ele>307.0</ele><time>2026-03-29T09:54:26.999Z</time></trkpt><trkpt lat="43.35113381891067" lon="11.46193781043954"><ele>307.0</ele><time>2026-03-29T09:54:27.999Z</time></trkpt><trkpt lat="43.35126402582965" lon="11.461842591244974"><ele>308.5</ele><time>2026-03-29T09:54:28.999Z</time></trkpt><trkpt lat="43.35139293164818" lon="11.461791666762126"><ele>310.0</ele><time>2026-03-29T09:54:29.999Z</time></trkpt><trkpt lat="43.35153196029099" lon="11.461810708845366"><ele>311.5</ele><time>2026-03-29T09:54:30.999Z</time></trkpt><trkpt lat="43.351668250134296" lon="11.46189107385858"><ele>313.0</ele><time>2026-03-29T09:54:31.999Z</time></trkpt><trkpt lat="43.35179428594103" lon="11.461949183593145"><ele>313.0</ele><time>2026-03-29T09:54:32.999Z</time></trkpt><trkpt lat="43.3519348304812" lon="11.461927820854928"><ele>313.0</ele><time>2026-03-29T09:54:33.999Z</time></trkpt><trkpt lat="43.352070391133765" lon="11.461852624188756"><ele>313.0</ele><time>2026-03-29T09:54:34.999Z</time></trkpt><trkpt lat="43.352201636911296" lon="11.461743465389949"><ele>313.0</ele><time>2026-03-29T09:54:35.999Z</time></trkpt><trkpt lat="43.35232192139221" lon="11.461673010679291"><ele>314.0</ele><time>2026-03-29T09:54:36.999Z</time></trkpt><trkpt lat="43.35246082553465" lon="11.461654868850854"><ele>315.0</ele><time>2026-03-29T09:54:37.999Z</time></trkpt><trkpt lat="43.352593062130396" lon="11.461631911501698"><ele>316.0</ele><time>2026-03-29T09:54:38.999Z</time></trkpt><trkpt lat="43.35269678448194" lon="11.461596816539934"><ele>317.0</ele><time>2026-03-29T09:54:39.999Z</time></trkpt><trkpt lat="43.35277392835445" lon="11.461519681169305"><ele>317.0</ele><time>2026-03-29T09:54:40.999Z</time></trkpt><trkpt lat="43.35284684244547" lon="11.461432994616805"><ele>317.0</ele><time>2026-03-29T09:54:41.999Z</time></trkpt><trkpt lat="43.35288609025829" lon="11.461262542048683"><ele>317.0</ele><time>2026-03-29T09:54:42.999Z</time></trkpt><trkpt lat="43.35289229207504" lon="11.461114654091553"><ele>317.0</ele><time>2026-03-29T09:54:43.999Z</time></trkpt><trkpt lat="43.35290230884031" lon="11.460972394058224"><ele>317.0</ele><time>2026-03-29T09:54:44.999Z</time></trkpt><trkpt lat="43.352943345178375" lon="11.460826598251296"><ele>315.6666666666667</ele><time>2026-03-29T09:54:45.999Z</time></trkpt><trkpt lat="43.35306765705991" lon="11.460696177573189"><ele>314.3333333333333</ele><time>2026-03-29T09:54:46.999Z</time></trkpt><trkpt lat="43.35323194356979" lon="11.460655335623477"><ele>313.0</ele><time>2026-03-29T09:54:47.999Z</time></trkpt><trkpt lat="43.35337124675275" lon="11.460662676764105"><ele>313.0</ele><time>2026-03-29T09:54:48.999Z</time></trkpt><trkpt lat="43.3535002318233" lon="11.4606688043805"><ele>313.0</ele><time>2026-03-29T09:54:49.999Z</time></trkpt><trkpt lat="43.35360957566321" lon="11.460657590663434"><ele>313.0</ele><time>2026-03-29T09:54:50.999Z</time></trkpt><trkpt lat="43.35369029350817" lon="11.460573327228097"><ele>313.0</ele><time>2026-03-29T09:54:51.999Z</time></trkpt><trkpt lat="43.35376322122727" lon="11.460455040508798"><ele>309.5</ele><time>2026-03-29T09:54:52.999Z</time></trkpt><trkpt lat="43.35379230065906" lon="11.46027776150385"><ele>306.0</ele><time>2026-03-29T09:54:53.999Z</time></trkpt><trkpt lat="43.353735284646" lon="11.46011136213216"><ele>302.5</ele><time>2026-03-29T09:54:54.999Z</time></trkpt><trkpt lat="43.353641128402465" lon="11.45997833707943"><ele>299.0</ele><time>2026-03-29T09:54:55.999Z</time></trkpt><trkpt lat="43.35354247971428" lon="11.459842225399106"><ele>299.0</ele><time>2026-03-29T09:54:56.999Z</time></trkpt><trkpt lat="43.35342714887728" lon="11.459705860496776"><ele>299.0</ele><time>2026-03-29T09:54:57.999Z</time></trkpt><trkpt lat="43.35332830732739" lon="11.459524931707335"><ele>299.0</ele><time>2026-03-29T09:54:58.999Z</time></trkpt><trkpt lat="43.35322142620988" lon="11.459356240396513"><ele>299.0</ele><time>2026-03-29T09:54:59.999Z</time></trkpt><trkpt lat="43.353109769457234" lon="11.459170417222959"><ele>299.0</ele><time>2026-03-29T09:55:00.999Z</time></trkpt><trkpt lat="43.35300882083658" lon="11.458951741064292"><ele>299.0</ele><time>2026-03-29T09:55:01.999Z</time></trkpt><trkpt lat="43.352903563160645" lon="11.45873745370515"><ele>294.0</ele><time>2026-03-29T09:55:02.999Z</time></trkpt><trkpt lat="43.35281290173858" lon="11.458510165121343"><ele>289.0</ele><time>2026-03-29T09:55:03.999Z</time></trkpt><trkpt lat="43.35272137804471" lon="11.458280420574212"><ele>284.0</ele><time>2026-03-29T09:55:04.999Z</time></trkpt><trkpt lat="43.35263511878084" lon="11.45806389113677"><ele>283.6666666666667</ele><time>2026-03-29T09:55:05.999Z</time></trkpt><trkpt lat="43.35255374235469" lon="11.45785344720617"><ele>283.3333333333333</ele><time>2026-03-29T09:55:06.999Z</time></trkpt><trkpt lat="43.35249203053018" lon="11.457648392023682"><ele>283.0</ele><time>2026-03-29T09:55:07.999Z</time></trkpt><trkpt lat="43.35242742587405" lon="11.457443162522702"><ele>283.0</ele><time>2026-03-29T09:55:08.999Z</time></trkpt><trkpt lat="43.35236828518989" lon="11.457248297686652"><ele>283.0</ele><time>2026-03-29T09:55:09.999Z</time></trkpt><trkpt lat="43.35231394784512" lon="11.45706550191825"><ele>283.0</ele><time>2026-03-29T09:55:10.999Z</time></trkpt><trkpt lat="43.35226090361091" lon="11.456903422966125"><ele>283.0</ele><time>2026-03-29T09:55:11.999Z</time></trkpt><trkpt lat="43.35221690195875" lon="11.456756249491235"><ele>281.25</ele><time>2026-03-29T09:55:12.999Z</time></trkpt><trkpt lat="43.352206524052946" lon="11.456589914035556"><ele>279.5</ele><time>2026-03-29T09:55:13.999Z</time></trkpt><trkpt lat="43.352236543108376" lon="11.456420599992116"><ele>277.75</ele><time>2026-03-29T09:55:14.999Z</time></trkpt><trkpt lat="43.35230495140133" lon="11.456252200362343"><ele>276.0</ele><time>2026-03-29T09:55:15.999Z</time></trkpt><trkpt lat="43.352391045658486" lon="11.45614416751418"><ele>274.0</ele><time>2026-03-29T09:55:16.999Z</time></trkpt><trkpt lat="43.352485559949336" lon="11.45609710253958"><ele>272.0</ele><time>2026-03-29T09:55:17.999Z</time></trkpt><trkpt lat="43.35260384684481" lon="11.456110240468586"><ele>270.0</ele><time>2026-03-29T09:55:18.999Z</time></trkpt><trkpt lat="43.35272562339442" lon="11.456164113959039"><ele>268.0</ele><time>2026-03-29T09:55:19.999Z</time></trkpt><trkpt lat="43.352854974042735" lon="11.45617285110553"><ele>268.0</ele><time>2026-03-29T09:55:20.999Z</time></trkpt><trkpt lat="43.35297671914927" lon="11.456115769898789"><ele>268.0</ele><time>2026-03-29T09:55:21.999Z</time></trkpt><trkpt lat="43.353078382276195" lon="11.456000403824456"><ele>268.0</ele><time>2026-03-29T09:55:22.999Z</time></trkpt><trkpt lat="43.353147908361855" lon="11.455836905688097"><ele>268.0</ele><time>2026-03-29T09:55:23.999Z</time></trkpt><trkpt lat="43.35322098420021" lon="11.45564811454888"><ele>268.0</ele><time>2026-03-29T09:55:24.999Z</time></trkpt><trkpt lat="43.3532805978626" lon="11.455463033751172"><ele>268.0</ele><time>2026-03-29T09:55:25.999Z</time></trkpt><trkpt lat="43.35332810047272" lon="11.455325167960863"><ele>268.0</ele><time>2026-03-29T09:55:26.999Z</time></trkpt><trkpt lat="43.353379609202065" lon="11.45521088024359"><ele>268.0</ele><time>2026-03-29T09:55:27.999Z</time></trkpt><trkpt lat="43.35344139910743" lon="11.455158189100045"><ele>268.0</ele><time>2026-03-29T09:55:28.999Z</time></trkpt><trkpt lat="43.35354860713275" lon="11.455109809350388"><ele>268.66666666666663</ele><time>2026-03-29T09:55:29.998Z</time></trkpt><trkpt lat="43.353694428068046" lon="11.455208629561357"><ele>269.3333333333333</ele><time>2026-03-29T09:55:30.998Z</time></trkpt><trkpt lat="43.35381094792001" lon="11.455382221721948"><ele>270.0</ele><time>2026-03-29T09:55:31.998Z</time></trkpt><trkpt lat="43.353884091757536" lon="11.455530273452062"><ele>270.0</ele><time>2026-03-29T09:55:32.998Z</time></trkpt><trkpt lat="43.35394304271541" lon="11.455610647776679"><ele>270.0</ele><time>2026-03-29T09:55:33.998Z</time></trkpt><trkpt lat="43.35410203291355" lon="11.455607739011011"><ele>270.0</ele><time>2026-03-29T09:55:35.998Z</time></trkpt><trkpt lat="43.35416731377853" lon="11.455520463287538"><ele>270.0</ele><time>2026-03-29T09:55:36.998Z</time></trkpt><trkpt lat="43.35416761645165" lon="11.45538821966687"><ele>270.0</ele><time>2026-03-29T09:55:37.998Z</time></trkpt><trkpt lat="43.354112691178415" lon="11.45520569157308"><ele>267.0</ele><time>2026-03-29T09:55:38.998Z</time></trkpt><trkpt lat="43.354048887750544" lon="11.455015976232305"><ele>264.0</ele><time>2026-03-29T09:55:39.998Z</time></trkpt><trkpt lat="43.35400391344362" lon="11.45480992495335"><ele>261.0</ele><time>2026-03-29T09:55:40.998Z</time></trkpt><trkpt lat="43.35395443727466" lon="11.45458738886312"><ele>258.6666666666667</ele><time>2026-03-29T09:55:41.998Z</time></trkpt><trkpt lat="43.35389666532238" lon="11.454351071725076"><ele>256.33333333333337</ele><time>2026-03-29T09:55:42.998Z</time></trkpt><trkpt lat="43.35381256760632" lon="11.454117611623042"><ele>254.0</ele><time>2026-03-29T09:55:43.998Z</time></trkpt><trkpt lat="43.35370586238557" lon="11.45389582698809"><ele>252.66666666666669</ele><time>2026-03-29T09:55:44.998Z</time></trkpt><trkpt lat="43.35358568105558" lon="11.453687447651696"><ele>251.33333333333331</ele><time>2026-03-29T09:55:45.998Z</time></trkpt><trkpt lat="43.353489978518475" lon="11.453476185176907"><ele>250.0</ele><time>2026-03-29T09:55:46.998Z</time></trkpt><trkpt lat="43.35337608229613" lon="11.453281873765581"><ele>250.0</ele><time>2026-03-29T09:55:47.998Z</time></trkpt><trkpt lat="43.3532403482421" lon="11.453125318372562"><ele>250.0</ele><time>2026-03-29T09:55:48.998Z</time></trkpt><trkpt lat="43.35312718720884" lon="11.452948587112276"><ele>250.0</ele><time>2026-03-29T09:55:49.998Z</time></trkpt><trkpt lat="43.353003587426855" lon="11.452772800764858"><ele>246.0</ele><time>2026-03-29T09:55:50.998Z</time></trkpt><trkpt lat="43.35289632243893" lon="11.452578190199816"><ele>242.0</ele><time>2026-03-29T09:55:51.998Z</time></trkpt><trkpt lat="43.35281491654555" lon="11.452368741725046"><ele>238.0</ele><time>2026-03-29T09:55:52.998Z</time></trkpt><trkpt lat="43.35274284008524" lon="11.452155402136842"><ele>235.66666666666666</ele><time>2026-03-29T09:55:53.998Z</time></trkpt><trkpt lat="43.35269103735516" lon="11.45193956306519"><ele>233.33333333333331</ele><time>2026-03-29T09:55:54.998Z</time></trkpt><trkpt lat="43.352679335352846" lon="11.451704242027937"><ele>231.0</ele><time>2026-03-29T09:55:55.998Z</time></trkpt><trkpt lat="43.352710370389126" lon="11.451454117798077"><ele>229.66666666666669</ele><time>2026-03-29T09:55:56.998Z</time></trkpt><trkpt lat="43.35272259748113" lon="11.45118151866739"><ele>228.33333333333334</ele><time>2026-03-29T09:55:57.998Z</time></trkpt><trkpt lat="43.35275809171457" lon="11.450910917748926"><ele>227.0</ele><time>2026-03-29T09:55:58.998Z</time></trkpt><trkpt lat="43.35278548246593" lon="11.450653315218212"><ele>226.66666666666669</ele><time>2026-03-29T09:55:59.998Z</time></trkpt><trkpt lat="43.352810953752744" lon="11.450415067622107"><ele>226.33333333333331</ele><time>2026-03-29T09:56:00.998Z</time></trkpt><trkpt lat="43.352840113260854" lon="11.45018878392042"><ele>226.0</ele><time>2026-03-29T09:56:01.998Z</time></trkpt><trkpt lat="43.352863551006564" lon="11.449969202732706"><ele>226.0</ele><time>2026-03-29T09:56:02.998Z</time></trkpt><trkpt lat="43.352878087639" lon="11.449756060284656"><ele>226.0</ele><time>2026-03-29T09:56:03.998Z</time></trkpt><trkpt lat="43.35286426660417" lon="11.449554732598004"><ele>226.0</ele><time>2026-03-29T09:56:04.998Z</time></trkpt><trkpt lat="43.35281052178306" lon="11.44935618400986"><ele>228.0</ele><time>2026-03-29T09:56:05.998Z</time></trkpt><trkpt lat="43.35272170155432" lon="11.449175775791824"><ele>230.0</ele><time>2026-03-29T09:56:06.998Z</time></trkpt><trkpt lat="43.35259724223277" lon="11.449028855272193"><ele>232.0</ele><time>2026-03-29T09:56:07.998Z</time></trkpt><trkpt lat="43.35244751276608" lon="11.44892416674442"><ele>232.0</ele><time>2026-03-29T09:56:08.998Z</time></trkpt><trkpt lat="43.3522829952175" lon="11.448830131263437"><ele>232.0</ele><time>2026-03-29T09:56:10.002Z</time></trkpt><trkpt lat="43.352133576228134" lon="11.448728357129706"><ele>232.0</ele><time>2026-03-29T09:56:11.002Z</time></trkpt><trkpt lat="43.35200711192269" lon="11.448608431493861"><ele>232.66666666666666</ele><time>2026-03-29T09:56:12.002Z</time></trkpt><trkpt lat="43.351910277210415" lon="11.448450723155371"><ele>233.33333333333331</ele><time>2026-03-29T09:56:13.002Z</time></trkpt><trkpt lat="43.351847591036154" lon="11.44825329921338"><ele>234.0</ele><time>2026-03-29T09:56:14.002Z</time></trkpt><trkpt lat="43.35181801960562" lon="11.44802786593457"><ele>234.0</ele><time>2026-03-29T09:56:15.002Z</time></trkpt><trkpt lat="43.351812556617965" lon="11.447788206101135"><ele>234.0</ele><time>2026-03-29T09:56:16.002Z</time></trkpt><trkpt lat="43.351807132895374" lon="11.447540650457839"><ele>234.0</ele><time>2026-03-29T09:56:17.002Z</time></trkpt><trkpt lat="43.35180595452029" lon="11.44729117910737"><ele>234.33333333333331</ele><time>2026-03-29T09:56:18.002Z</time></trkpt><trkpt lat="43.35180821448608" lon="11.44703716441847"><ele>234.66666666666666</ele><time>2026-03-29T09:56:19.002Z</time></trkpt><trkpt lat="43.351810823617626" lon="11.44678767671687"><ele>235.0</ele><time>2026-03-29T09:56:20.002Z</time></trkpt><trkpt lat="43.35181244689179" lon="11.446538746551582"><ele>236.66666666666666</ele><time>2026-03-29T09:56:21.002Z</time></trkpt><trkpt lat="43.35180489462066" lon="11.446283054974472"><ele>238.33333333333331</ele><time>2026-03-29T09:56:22.002Z</time></trkpt><trkpt lat="43.35179623164818" lon="11.44602860973829"><ele>240.0</ele><time>2026-03-29T09:56:23.002Z</time></trkpt><trkpt lat="43.35178963668734" lon="11.445770854898617"><ele>240.0</ele><time>2026-03-29T09:56:24.002Z</time></trkpt><trkpt lat="43.351783556636775" lon="11.445515992274073"><ele>240.0</ele><time>2026-03-29T09:56:25.002Z</time></trkpt><trkpt lat="43.351775356867904" lon="11.44526549981047"><ele>240.0</ele><time>2026-03-29T09:56:26.002Z</time></trkpt><trkpt lat="43.35175975091195" lon="11.445031726411093"><ele>241.33333333333331</ele><time>2026-03-29T09:56:27.002Z</time></trkpt><trkpt lat="43.35172261820023" lon="11.444802279659337"><ele>242.66666666666666</ele><time>2026-03-29T09:56:28.002Z</time></trkpt><trkpt lat="43.35167292560619" lon="11.444588619361522"><ele>244.0</ele><time>2026-03-29T09:56:29.002Z</time></trkpt><trkpt lat="43.35162187763376" lon="11.444394674789711"><ele>244.5</ele><time>2026-03-29T09:56:30.002Z</time></trkpt><trkpt lat="43.35158023549968" lon="11.44420597578322"><ele>245.0</ele><time>2026-03-29T09:56:31.002Z</time></trkpt><trkpt lat="43.351551138333996" lon="11.444007053462308"><ele>245.5</ele><time>2026-03-29T09:56:32.002Z</time></trkpt><trkpt lat="43.351533909695114" lon="11.443815771912757"><ele>246.0</ele><time>2026-03-29T09:56:33.002Z</time></trkpt><trkpt lat="43.35152707594426" lon="11.443632934968857"><ele>244.25</ele><time>2026-03-29T09:56:34.002Z</time></trkpt><trkpt lat="43.351550991430805" lon="11.443456173356731"><ele>242.5</ele><time>2026-03-29T09:56:35.002Z</time></trkpt><trkpt lat="43.35162398652108" lon="11.443313610333309"><ele>240.75</ele><time>2026-03-29T09:56:36.002Z</time></trkpt><trkpt lat="43.35174328833524" lon="11.443207459599703"><ele>239.0</ele><time>2026-03-29T09:56:37.002Z</time></trkpt><trkpt lat="43.35189860437801" lon="11.443134441587292"><ele>239.0</ele><time>2026-03-29T09:56:38.002Z</time></trkpt><trkpt lat="43.352050862105735" lon="11.443075298504182"><ele>239.0</ele><time>2026-03-29T09:56:39.002Z</time></trkpt><trkpt lat="43.35220185224129" lon="11.443040953029499"><ele>239.0</ele><time>2026-03-29T09:56:40.002Z</time></trkpt><trkpt lat="43.35235468936201" lon="11.443009249120518"><ele>239.5</ele><time>2026-03-29T09:56:41.002Z</time></trkpt><trkpt lat="43.35249834183381" lon="11.442976162944538"><ele>240.0</ele><time>2026-03-29T09:56:42.002Z</time></trkpt><trkpt lat="43.35262929956563" lon="11.442928675783026"><ele>240.5</ele><time>2026-03-29T09:56:43.002Z</time></trkpt><trkpt lat="43.35272909130937" lon="11.442847004605289"><ele>241.0</ele><time>2026-03-29T09:56:44.002Z</time></trkpt><trkpt lat="43.352798958665765" lon="11.44272219054339"><ele>240.75</ele><time>2026-03-29T09:56:45.002Z</time></trkpt><trkpt lat="43.35283079282922" lon="11.442567149483711"><ele>240.5</ele><time>2026-03-29T09:56:46.002Z</time></trkpt><trkpt lat="43.35282302431552" lon="11.44238483834471"><ele>240.25</ele><time>2026-03-29T09:56:47.002Z</time></trkpt><trkpt lat="43.352789291665616" lon="11.442181548482795"><ele>240.0</ele><time>2026-03-29T09:56:48.002Z</time></trkpt><trkpt lat="43.35274122401586" lon="11.441982194571493"><ele>240.0</ele><time>2026-03-29T09:56:49.002Z</time></trkpt><trkpt lat="43.352670394884186" lon="11.441787888836156"><ele>240.0</ele><time>2026-03-29T09:56:50.002Z</time></trkpt><trkpt lat="43.35256642466231" lon="11.441607983547518"><ele>240.0</ele><time>2026-03-29T09:56:51.002Z</time></trkpt><trkpt lat="43.35243932519516" lon="11.441439747340716"><ele>240.0</ele><time>2026-03-29T09:56:52.002Z</time></trkpt><trkpt lat="43.3522911521765" lon="11.441307590057782"><ele>240.0</ele><time>2026-03-29T09:56:53.002Z</time></trkpt><trkpt lat="43.35212753993901" lon="11.441220621709013"><ele>240.0</ele><time>2026-03-29T09:56:54.002Z</time></trkpt><trkpt lat="43.35195579814584" lon="11.441168761846077"><ele>241.25</ele><time>2026-03-29T09:56:55.002Z</time></trkpt><trkpt lat="43.351795721615076" lon="11.441151078886078"><ele>242.5</ele><time>2026-03-29T09:56:56.002Z</time></trkpt><trkpt lat="43.35165340291089" lon="11.441133169512383"><ele>243.75</ele><time>2026-03-29T09:56:57.003Z</time></trkpt><trkpt lat="43.35153724992085" lon="11.44106863424447"><ele>245.0</ele><time>2026-03-29T09:56:58.002Z</time></trkpt><trkpt lat="43.35146297964681" lon="11.440915491549312"><ele>245.0</ele><time>2026-03-29T09:56:59.002Z</time></trkpt><trkpt lat="43.351414631908064" lon="11.440745180788904"><ele>245.0</ele><time>2026-03-29T09:57:00.002Z</time></trkpt><trkpt lat="43.351394470610636" lon="11.44056980202219"><ele>245.0</ele><time>2026-03-29T09:57:01.002Z</time></trkpt><trkpt lat="43.35139551334492" lon="11.44037874300777"><ele>245.0</ele><time>2026-03-29T09:57:02.002Z</time></trkpt><trkpt lat="43.35140607506579" lon="11.440202956230522"><ele>246.00000000000003</ele><time>2026-03-29T09:57:03.002Z</time></trkpt><trkpt lat="43.35140862203295" lon="11.440054673087186"><ele>247.0</ele><time>2026-03-29T09:57:04.002Z</time></trkpt><trkpt lat="43.35143629809766" lon="11.43993294005827"><ele>248.0</ele><time>2026-03-29T09:57:05.002Z</time></trkpt><trkpt lat="43.35146434399836" lon="11.439847040454634"><ele>249.0</ele><time>2026-03-29T09:57:06.002Z</time></trkpt><trkpt lat="43.351505050951666" lon="11.439771860552165"><ele>250.00000000000003</ele><time>2026-03-29T09:57:07.002Z</time></trkpt><trkpt lat="43.35157240168073" lon="11.439688791371726"><ele>251.0</ele><time>2026-03-29T09:57:08.002Z</time></trkpt><trkpt lat="43.35165919905449" lon="11.439605310418694"><ele>251.0</ele><time>2026-03-29T09:57:09.002Z</time></trkpt><trkpt lat="43.351766084803145" lon="11.439523797346878"><ele>251.0</ele><time>2026-03-29T09:57:10.002Z</time></trkpt><trkpt lat="43.351883453060836" lon="11.439453439302978"><ele>251.0</ele><time>2026-03-29T09:57:11.002Z</time></trkpt><trkpt lat="43.352008849563866" lon="11.439402155641988"><ele>251.0</ele><time>2026-03-29T09:57:12.002Z</time></trkpt><trkpt lat="43.352138780577015" lon="11.439370730940817"><ele>252.75</ele><time>2026-03-29T09:57:13.002Z</time></trkpt><trkpt lat="43.352268111753915" lon="11.43934481064156"><ele>254.5</ele><time>2026-03-29T09:57:14.002Z</time></trkpt><trkpt lat="43.35238882679414" lon="11.439261487417262"><ele>256.25</ele><time>2026-03-29T09:57:15.002Z</time></trkpt><trkpt lat="43.35250349292626" lon="11.439131966397222"><ele>258.0</ele><time>2026-03-29T09:57:16.002Z</time></trkpt><trkpt lat="43.352607389966174" lon="11.438982547885857"><ele>258.0</ele><time>2026-03-29T09:57:17.002Z</time></trkpt><trkpt lat="43.352717185304336" lon="11.438850837656052"><ele>258.0</ele><time>2026-03-29T09:57:18.002Z</time></trkpt><trkpt lat="43.352833084763596" lon="11.438741010990446"><ele>258.0</ele><time>2026-03-29T09:57:19.002Z</time></trkpt><trkpt lat="43.3529562667454" lon="11.438641967229977"><ele>258.0</ele><time>2026-03-29T09:57:20.002Z</time></trkpt><trkpt lat="43.353080754343836" lon="11.438550833495427"><ele>259.75</ele><time>2026-03-29T09:57:21.002Z</time></trkpt><trkpt lat="43.35320504675407" lon="11.438471757864848"><ele>261.5</ele><time>2026-03-29T09:57:22.002Z</time></trkpt><trkpt lat="43.35333310073319" lon="11.438414301686032"><ele>263.25</ele><time>2026-03-29T09:57:23.002Z</time></trkpt><trkpt lat="43.353465334772615" lon="11.438370125449115"><ele>265.0</ele><time>2026-03-29T09:57:24.002Z</time></trkpt><trkpt lat="43.35359790967066" lon="11.438334572905623"><ele>265.0</ele><time>2026-03-29T09:57:25.002Z</time></trkpt><trkpt lat="43.35373232103365" lon="11.438299831941483"><ele>265.0</ele><time>2026-03-29T09:57:26.002Z</time></trkpt><trkpt lat="43.353865225463636" lon="11.438264309739164"><ele>265.0</ele><time>2026-03-29T09:57:27.002Z</time></trkpt><trkpt lat="43.35400512034395" lon="11.438250497260126"><ele>265.0</ele><time>2026-03-29T09:57:28.002Z</time></trkpt><trkpt lat="43.35413487003142" lon="11.438190602682331"><ele>265.25</ele><time>2026-03-29T09:57:29.002Z</time></trkpt><trkpt lat="43.35426846168375" lon="11.438157305081436"><ele>265.5</ele><time>2026-03-29T09:57:30.002Z</time></trkpt><trkpt lat="43.354402505205414" lon="11.438153516318993"><ele>265.75</ele><time>2026-03-29T09:57:31.002Z</time></trkpt><trkpt lat="43.35453325049685" lon="11.438146767540886"><ele>266.0</ele><time>2026-03-29T09:57:32.002Z</time></trkpt><trkpt lat="43.35466282485848" lon="11.438147845772958"><ele>266.5</ele><time>2026-03-29T09:57:33.002Z</time></trkpt><trkpt lat="43.35479523968926" lon="11.438158892209733"><ele>267.0</ele><time>2026-03-29T09:57:34.002Z</time></trkpt><trkpt lat="43.35492277122926" lon="11.438178304357455"><ele>267.5</ele><time>2026-03-29T09:57:35.002Z</time></trkpt><trkpt lat="43.35505359847706" lon="11.438201734877422"><ele>268.0</ele><time>2026-03-29T09:57:36.002Z</time></trkpt><trkpt lat="43.35519536805193" lon="11.438235937113888"><ele>268.0</ele><time>2026-03-29T09:57:37.002Z</time></trkpt><trkpt lat="43.35533483731541" lon="11.438262533159214"><ele>268.0</ele><time>2026-03-29T09:57:38.002Z</time></trkpt><trkpt lat="43.35547214174727" lon="11.43829197978958"><ele>268.0</ele><time>2026-03-29T09:57:39.002Z</time></trkpt><trkpt lat="43.35560866923693" lon="11.438319472848923"><ele>268.0</ele><time>2026-03-29T09:57:40.002Z</time></trkpt><trkpt lat="43.35574188058126" lon="11.438352917642767"><ele>267.5</ele><time>2026-03-29T09:57:41.002Z</time></trkpt><trkpt lat="43.35586770428998" lon="11.438378978371322"><ele>267.0</ele><time>2026-03-29T09:57:42.002Z</time></trkpt><trkpt lat="43.35599162837131" lon="11.43839738298236"><ele>266.5</ele><time>2026-03-29T09:57:43.002Z</time></trkpt><trkpt lat="43.35611927958887" lon="11.438421238377964"><ele>266.0</ele><time>2026-03-29T09:57:44.002Z</time></trkpt><trkpt lat="43.35624992923282" lon="11.43845310115582"><ele>265.75</ele><time>2026-03-29T09:57:45.002Z</time></trkpt><trkpt lat="43.35638601036066" lon="11.43848678803331"><ele>265.5</ele><time>2026-03-29T09:57:46.002Z</time></trkpt><trkpt lat="43.356524061990726" lon="11.4385208495524"><ele>265.25</ele><time>2026-03-29T09:57:47.002Z</time></trkpt><trkpt lat="43.3566632346895" lon="11.438552282111758"><ele>265.0</ele><time>2026-03-29T09:57:48.002Z</time></trkpt><trkpt lat="43.35680478970823" lon="11.438580532834933"><ele>265.0</ele><time>2026-03-29T09:57:49.002Z</time></trkpt><trkpt lat="43.3569456343692" lon="11.43860067846254"><ele>265.0</ele><time>2026-03-29T09:57:50.002Z</time></trkpt><trkpt lat="43.357083370640154" lon="11.438606042158442"><ele>265.0</ele><time>2026-03-29T09:57:51.002Z</time></trkpt><trkpt lat="43.35722402908329" lon="11.438577551332"><ele>265.0</ele><time>2026-03-29T09:57:52.002Z</time></trkpt><trkpt lat="43.35736821259345" lon="11.43853979575902"><ele>265.0</ele><time>2026-03-29T09:57:53.002Z</time></trkpt><trkpt lat="43.35750820787772" lon="11.438498687008096"><ele>265.0</ele><time>2026-03-29T09:57:54.002Z</time></trkpt><trkpt lat="43.357645714180165" lon="11.438448553069575"><ele>265.0</ele><time>2026-03-29T09:57:55.002Z</time></trkpt><trkpt lat="43.35778802592988" lon="11.438402160823442"><ele>265.0</ele><time>2026-03-29T09:57:56.002Z</time></trkpt><trkpt lat="43.357932452259774" lon="11.438355827309586"><ele>265.5</ele><time>2026-03-29T09:57:57.002Z</time></trkpt><trkpt lat="43.35805997961929" lon="11.438301666541381"><ele>266.0</ele><time>2026-03-29T09:57:58.002Z</time></trkpt><trkpt lat="43.358179034603495" lon="11.438203492729674"><ele>266.5</ele><time>2026-03-29T09:57:59.002Z</time></trkpt><trkpt lat="43.35827953614735" lon="11.438059750729744"><ele>267.0</ele><time>2026-03-29T09:58:00.002Z</time></trkpt><trkpt lat="43.358354179602976" lon="11.43788289039623"><ele>267.6666666666667</ele><time>2026-03-29T09:58:01.002Z</time></trkpt><trkpt lat="43.358398646940685" lon="11.43768250198766"><ele>268.33333333333337</ele><time>2026-03-29T09:58:02.002Z</time></trkpt><trkpt lat="43.35841333278516" lon="11.437470735574376"><ele>269.0</ele><time>2026-03-29T09:58:03.002Z</time></trkpt><trkpt lat="43.35839882471027" lon="11.43725856368057"><ele>269.0</ele><time>2026-03-29T09:58:04.002Z</time></trkpt><trkpt lat="43.3583711437839" lon="11.437065497054288"><ele>269.0</ele><time>2026-03-29T09:58:05.002Z</time></trkpt><trkpt lat="43.35835161319465" lon="11.436878540159853"><ele>269.0</ele><time>2026-03-29T09:58:06.002Z</time></trkpt><trkpt lat="43.35835356483097" lon="11.436689638869714"><ele>269.0</ele><time>2026-03-29T09:58:07.002Z</time></trkpt><trkpt lat="43.35837913717598" lon="11.436503798035607"><ele>269.0</ele><time>2026-03-29T09:58:08.002Z</time></trkpt><trkpt lat="43.358409918068325" lon="11.436317919423203"><ele>269.0</ele><time>2026-03-29T09:58:09.002Z</time></trkpt><trkpt lat="43.35844461887461" lon="11.43613919295916"><ele>269.0</ele><time>2026-03-29T09:58:10.002Z</time></trkpt><trkpt lat="43.358479572795126" lon="11.43595375721623"><ele>269.0</ele><time>2026-03-29T09:58:11.002Z</time></trkpt><trkpt lat="43.35851638163703" lon="11.435764822539321"><ele>269.0</ele><time>2026-03-29T09:58:12.002Z</time></trkpt><trkpt lat="43.35856670409939" lon="11.435577229207208"><ele>269.0</ele><time>2026-03-29T09:58:13.002Z</time></trkpt><trkpt lat="43.3586338163172" lon="11.435387729075579"><ele>269.0</ele><time>2026-03-29T09:58:14.002Z</time></trkpt><trkpt lat="43.358705925991984" lon="11.435195556387923"><ele>269.6666666666667</ele><time>2026-03-29T09:58:15.002Z</time></trkpt><trkpt lat="43.358786162902064" lon="11.434994300078078"><ele>270.3333333333333</ele><time>2026-03-29T09:58:16.002Z</time></trkpt><trkpt lat="43.35886201544931" lon="11.434779075336209"><ele>271.0</ele><time>2026-03-29T09:58:17.001Z</time></trkpt><trkpt lat="43.35892247081303" lon="11.43454826725195"><ele>268.3333333333333</ele><time>2026-03-29T09:58:18.001Z</time></trkpt><trkpt lat="43.35895398687921" lon="11.434320102805868"><ele>265.6666666666667</ele><time>2026-03-29T09:58:19.001Z</time></trkpt><trkpt lat="43.358963461591195" lon="11.43407658948746"><ele>263.0</ele><time>2026-03-29T09:58:20.001Z</time></trkpt><trkpt lat="43.358966930304355" lon="11.433825119965315"><ele>263.33333333333337</ele><time>2026-03-29T09:58:21.001Z</time></trkpt><trkpt lat="43.35893156015186" lon="11.433568500754511"><ele>263.6666666666667</ele><time>2026-03-29T09:58:22.001Z</time></trkpt><trkpt lat="43.35889404880232" lon="11.433305453025245"><ele>264.0</ele><time>2026-03-29T09:58:23.001Z</time></trkpt><trkpt lat="43.35886565718757" lon="11.43303918936608"><ele>263.6666666666667</ele><time>2026-03-29T09:58:24.001Z</time></trkpt><trkpt lat="43.35885094066873" lon="11.432779928340468"><ele>263.33333333333337</ele><time>2026-03-29T09:58:25.001Z</time></trkpt><trkpt lat="43.35884785102502" lon="11.432531494636136"><ele>263.0</ele><time>2026-03-29T09:58:26.001Z</time></trkpt><trkpt lat="43.358864470821096" lon="11.432282292233964"><ele>262.33333333333337</ele><time>2026-03-29T09:58:27.001Z</time></trkpt><trkpt lat="43.35890464499427" lon="11.432046583501076"><ele>261.6666666666667</ele><time>2026-03-29T09:58:28.001Z</time></trkpt><trkpt lat="43.35895415251715" lon="11.431803992959125"><ele>261.0</ele><time>2026-03-29T09:58:29.001Z</time></trkpt><trkpt lat="43.35900401321851" lon="11.431562514074766"><ele>261.0</ele><time>2026-03-29T09:58:30.001Z</time></trkpt><trkpt lat="43.35905316635771" lon="11.431327809335194"><ele>261.0</ele><time>2026-03-29T09:58:31.001Z</time></trkpt><trkpt lat="43.35906204526816" lon="11.431083397104567"><ele>261.0</ele><time>2026-03-29T09:58:32.001Z</time></trkpt><trkpt lat="43.35909885462763" lon="11.43086547206803"><ele>262.0</ele><time>2026-03-29T09:58:33.001Z</time></trkpt><trkpt lat="43.35913217398329" lon="11.430647903277125"><ele>263.0</ele><time>2026-03-29T09:58:34.001Z</time></trkpt><trkpt lat="43.35915255098069" lon="11.430430609663135"><ele>264.0</ele><time>2026-03-29T09:58:35.001Z</time></trkpt><trkpt lat="43.359211068345175" lon="11.430207049136099"><ele>264.3333333333333</ele><time>2026-03-29T09:58:36.001Z</time></trkpt><trkpt lat="43.35920094354336" lon="11.429975419359634"><ele>264.66666666666663</ele><time>2026-03-29T09:58:37.001Z</time></trkpt><trkpt lat="43.35917533564432" lon="11.429740874454078"><ele>265.0</ele><time>2026-03-29T09:58:38.001Z</time></trkpt><trkpt lat="43.35914147556776" lon="11.429504539762657"><ele>263.0</ele><time>2026-03-29T09:58:39.001Z</time></trkpt><trkpt lat="43.35909530322626" lon="11.429285422253779"><ele>261.0</ele><time>2026-03-29T09:58:40.001Z</time></trkpt><trkpt lat="43.359030578278535" lon="11.429064188149017"><ele>259.0</ele><time>2026-03-29T09:58:41.001Z</time></trkpt><trkpt lat="43.35894552100971" lon="11.428852636463539"><ele>261.66666666666663</ele><time>2026-03-29T09:58:42.001Z</time></trkpt><trkpt lat="43.358829800492124" lon="11.428654719579084"><ele>264.3333333333333</ele><time>2026-03-29T09:58:43.001Z</time></trkpt><trkpt lat="43.35868814383893" lon="11.428476821755666"><ele>267.0</ele><time>2026-03-29T09:58:44.001Z</time></trkpt><trkpt lat="43.358555036166145" lon="11.42828379721256"><ele>267.0</ele><time>2026-03-29T09:58:45.001Z</time></trkpt><trkpt lat="43.35841643872943" lon="11.428071175604636"><ele>267.0</ele><time>2026-03-29T09:58:46.001Z</time></trkpt><trkpt lat="43.35828934774578" lon="11.427835680109881"><ele>267.0</ele><time>2026-03-29T09:58:47.001Z</time></trkpt><trkpt lat="43.35816627495219" lon="11.427617109735394"><ele>265.6666666666667</ele><time>2026-03-29T09:58:48.001Z</time></trkpt><trkpt lat="43.35804250028941" lon="11.427413520106398"><ele>264.33333333333337</ele><time>2026-03-29T09:58:49.001Z</time></trkpt><trkpt lat="43.357889804740054" lon="11.427225478110339"><ele>263.0</ele><time>2026-03-29T09:58:50.001Z</time></trkpt><trkpt lat="43.357711085885626" lon="11.427100657822248"><ele>260.6666666666667</ele><time>2026-03-29T09:58:51.001Z</time></trkpt><trkpt lat="43.35754752516563" lon="11.426976369947157"><ele>258.3333333333333</ele><time>2026-03-29T09:58:52.001Z</time></trkpt><trkpt lat="43.3573707501393" lon="11.426870566573667"><ele>256.0</ele><time>2026-03-29T09:58:53.001Z</time></trkpt><trkpt lat="43.35719387667224" lon="11.426759710452947"><ele>256.0</ele><time>2026-03-29T09:58:54.001Z</time></trkpt><trkpt lat="43.35701520796359" lon="11.42664404273856"><ele>256.0</ele><time>2026-03-29T09:58:55.001Z</time></trkpt><trkpt lat="43.35684133107418" lon="11.426526839932329"><ele>256.0</ele><time>2026-03-29T09:58:56.001Z</time></trkpt><trkpt lat="43.35667490575633" lon="11.42638578810413"><ele>252.66666666666666</ele><time>2026-03-29T09:58:57.001Z</time></trkpt><trkpt lat="43.35651931960269" lon="11.426232179084993"><ele>249.33333333333331</ele><time>2026-03-29T09:58:58.001Z</time></trkpt><trkpt lat="43.35636699859051" lon="11.42603901911457"><ele>246.0</ele><time>2026-03-29T09:58:59.001Z</time></trkpt><trkpt lat="43.35620932463492" lon="11.425832335255816"><ele>246.0</ele><time>2026-03-29T09:59:00.001Z</time></trkpt><trkpt lat="43.35606154743109" lon="11.425633932476059"><ele>246.0</ele><time>2026-03-29T09:59:01.001Z</time></trkpt><trkpt lat="43.35591850110926" lon="11.42543793200418"><ele>246.0</ele><time>2026-03-29T09:59:02.001Z</time></trkpt><trkpt lat="43.35577354315888" lon="11.425245006036395"><ele>244.0</ele><time>2026-03-29T09:59:03.002Z</time></trkpt><trkpt lat="43.355626670320866" lon="11.425057169779118"><ele>242.0</ele><time>2026-03-29T09:59:04.003Z</time></trkpt><trkpt lat="43.355493229124185" lon="11.424882235367123"><ele>240.0</ele><time>2026-03-29T09:59:05.003Z</time></trkpt><trkpt lat="43.35536676997091" lon="11.424715313140231"><ele>239.0</ele><time>2026-03-29T09:59:06.002Z</time></trkpt><trkpt lat="43.35525162580519" lon="11.424563490020955"><ele>238.0</ele><time>2026-03-29T09:59:07.002Z</time></trkpt><trkpt lat="43.35515039196387" lon="11.42442967082329"><ele>237.0</ele><time>2026-03-29T09:59:08.002Z</time></trkpt><trkpt lat="43.35506244161764" lon="11.424298992590746"><ele>236.0</ele><time>2026-03-29T09:59:09.002Z</time></trkpt><trkpt lat="43.35499657455152" lon="11.424145337870227"><ele>236.0</ele><time>2026-03-29T09:59:10.003Z</time></trkpt><trkpt lat="43.35496828383195" lon="11.423952655679324"><ele>236.0</ele><time>2026-03-29T09:59:11.003Z</time></trkpt><trkpt lat="43.354990946863005" lon="11.423742448518073"><ele>236.0</ele><time>2026-03-29T09:59:12.002Z</time></trkpt><trkpt lat="43.35504585994905" lon="11.423531159176004"><ele>234.66666666666669</ele><time>2026-03-29T09:59:13.002Z</time></trkpt><trkpt lat="43.35510636974854" lon="11.423305256809389"><ele>233.33333333333331</ele><time>2026-03-29T09:59:14.002Z</time></trkpt><trkpt lat="43.35516548088534" lon="11.423081162493244"><ele>232.0</ele><time>2026-03-29T09:59:15.002Z</time></trkpt><trkpt lat="43.355214501780104" lon="11.422866910177248"><ele>229.66666666666666</ele><time>2026-03-29T09:59:16.002Z</time></trkpt><trkpt lat="43.35525529825164" lon="11.422645990315718"><ele>227.33333333333331</ele><time>2026-03-29T09:59:17.002Z</time></trkpt><trkpt lat="43.35528360094108" lon="11.42242401219532"><ele>225.0</ele><time>2026-03-29T09:59:18.002Z</time></trkpt><trkpt lat="43.35530521411658" lon="11.42220009793248"><ele>222.66666666666669</ele><time>2026-03-29T09:59:19.002Z</time></trkpt><trkpt lat="43.35532028728897" lon="11.421975236915738"><ele>220.33333333333334</ele><time>2026-03-29T09:59:20.002Z</time></trkpt><trkpt lat="43.35533573348067" lon="11.421751084224304"><ele>218.0</ele><time>2026-03-29T09:59:21.002Z</time></trkpt><trkpt lat="43.35535371719314" lon="11.421542367959024"><ele>218.0</ele><time>2026-03-29T09:59:22.002Z</time></trkpt><trkpt lat="43.35537178433819" lon="11.421352958365093"><ele>218.0</ele><time>2026-03-29T09:59:23.002Z</time></trkpt><trkpt lat="43.35539121699135" lon="11.421172772051523"><ele>218.0</ele><time>2026-03-29T09:59:24.002Z</time></trkpt><trkpt lat="43.355419001111045" lon="11.421004727913662"><ele>218.0</ele><time>2026-03-29T09:59:25.002Z</time></trkpt><trkpt lat="43.35545039084323" lon="11.420851132001438"><ele>217.75</ele><time>2026-03-29T09:59:26.002Z</time></trkpt><trkpt lat="43.35548267591131" lon="11.420708999853497"><ele>217.5</ele><time>2026-03-29T09:59:27.002Z</time></trkpt><trkpt lat="43.35551437328308" lon="11.42056116730337"><ele>217.25</ele><time>2026-03-29T09:59:28.002Z</time></trkpt><trkpt lat="43.35553497439366" lon="11.42039500984676"><ele>217.0</ele><time>2026-03-29T09:59:29.002Z</time></trkpt><trkpt lat="43.355558797903356" lon="11.420231739772758"><ele>217.0</ele><time>2026-03-29T09:59:30.002Z</time></trkpt><trkpt lat="43.35560457835258" lon="11.420066242956956"><ele>217.0</ele><time>2026-03-29T09:59:31.002Z</time></trkpt><trkpt lat="43.35563976335376" lon="11.419899495212217"><ele>217.0</ele><time>2026-03-29T09:59:32.002Z</time></trkpt><trkpt lat="43.35567746144676" lon="11.419736098154463"><ele>217.0</ele><time>2026-03-29T09:59:33.002Z</time></trkpt><trkpt lat="43.355742560795946" lon="11.419587803646682"><ele>216.75</ele><time>2026-03-29T09:59:34.002Z</time></trkpt><trkpt lat="43.3557895800827" lon="11.419430801827032"><ele>216.5</ele><time>2026-03-29T09:59:35.002Z</time></trkpt><trkpt lat="43.355852933674626" lon="11.419289071458513"><ele>216.25</ele><time>2026-03-29T09:59:36.002Z</time></trkpt><trkpt lat="43.35591776937256" lon="11.41914795966576"><ele>216.0</ele><time>2026-03-29T09:59:37.002Z</time></trkpt><trkpt lat="43.35598078009591" lon="11.419008494270543"><ele>216.0</ele><time>2026-03-29T09:59:38.002Z</time></trkpt><trkpt lat="43.35604709603667" lon="11.418867868979685"><ele>216.0</ele><time>2026-03-29T09:59:39.002Z</time></trkpt><trkpt lat="43.356114405391594" lon="11.41872330891047"><ele>216.0</ele><time>2026-03-29T09:59:40.002Z</time></trkpt><trkpt lat="43.35618658259796" lon="11.418579680223836"><ele>216.0</ele><time>2026-03-29T09:59:41.002Z</time></trkpt><trkpt lat="43.35626090666412" lon="11.418434589273087"><ele>216.25</ele><time>2026-03-29T09:59:42.002Z</time></trkpt><trkpt lat="43.3563358538276" lon="11.418285738240117"><ele>216.5</ele><time>2026-03-29T09:59:43.002Z</time></trkpt><trkpt lat="43.356410054689704" lon="11.41813296622484"><ele>216.75</ele><time>2026-03-29T09:59:44.002Z</time></trkpt><trkpt lat="43.35648393307662" lon="11.41798263287721"><ele>217.0</ele><time>2026-03-29T09:59:45.002Z</time></trkpt><trkpt lat="43.35655648785563" lon="11.417833338805163"><ele>217.5</ele><time>2026-03-29T09:59:46.002Z</time></trkpt><trkpt lat="43.3566263460359" lon="11.417685678313925"><ele>218.0</ele><time>2026-03-29T09:59:47.002Z</time></trkpt><trkpt lat="43.35669411995775" lon="11.41753950886874"><ele>218.5</ele><time>2026-03-29T09:59:48.002Z</time></trkpt><trkpt lat="43.3567596160154" lon="11.417399166032475"><ele>219.0</ele><time>2026-03-29T09:59:49.002Z</time></trkpt><trkpt lat="43.356815499504066" lon="11.417253649219704"><ele>219.0</ele><time>2026-03-29T09:59:50.002Z</time></trkpt><trkpt lat="43.356841053118224" lon="11.417117370495536"><ele>219.0</ele><time>2026-03-29T09:59:51.002Z</time></trkpt><trkpt lat="43.35685155048774" lon="11.416988254544414"><ele>219.0</ele><time>2026-03-29T09:59:52.002Z</time></trkpt><trkpt lat="43.35686815916513" lon="11.416899768034218"><ele>219.0</ele><time>2026-03-29T09:59:53.002Z</time></trkpt><trkpt lat="43.356880502520355" lon="11.416809131048968"><ele>219.0</ele><time>2026-03-29T09:59:56.002Z</time></trkpt><trkpt lat="43.356880615421154" lon="11.416702037941995"><ele>219.0</ele><time>2026-03-29T10:00:04.002Z</time></trkpt><trkpt lat="43.35681356506474" lon="11.416541936290235"><ele>219.0</ele><time>2026-03-29T10:00:06.002Z</time></trkpt><trkpt lat="43.35675649558157" lon="11.41644760837117"><ele>218.99999999999997</ele><time>2026-03-29T10:00:07.002Z</time></trkpt><trkpt lat="43.356685619878476" lon="11.416351783583167"><ele>218.99999999999997</ele><time>2026-03-29T10:00:08.002Z</time></trkpt><trkpt lat="43.35661656272334" lon="11.416233898207564"><ele>219.0</ele><time>2026-03-29T10:00:09.002Z</time></trkpt><trkpt lat="43.35654709480444" lon="11.41611369590015"><ele>219.0</ele><time>2026-03-29T10:00:10.002Z</time></trkpt><trkpt lat="43.35647608190158" lon="11.416000349676064"><ele>219.39999999999998</ele><time>2026-03-29T10:00:11.002Z</time></trkpt><trkpt lat="43.35640258469398" lon="11.415902910191246"><ele>219.79999999999998</ele><time>2026-03-29T10:00:12.002Z</time></trkpt><trkpt lat="43.35632168052221" lon="11.415845420313959"><ele>220.20000000000002</ele><time>2026-03-29T10:00:13.002Z</time></trkpt><trkpt lat="43.35622421853034" lon="11.415828740230555"><ele>220.60000000000002</ele><time>2026-03-29T10:00:14.002Z</time></trkpt><trkpt lat="43.35612047383313" lon="11.415849020798104"><ele>221.0</ele><time>2026-03-29T10:00:15.002Z</time></trkpt><trkpt lat="43.35602028555705" lon="11.415899361068695"><ele>221.20000000000002</ele><time>2026-03-29T10:00:16.002Z</time></trkpt><trkpt lat="43.35592361469978" lon="11.415942484867143"><ele>221.40000000000003</ele><time>2026-03-29T10:00:17.002Z</time></trkpt><trkpt lat="43.3558293617252" lon="11.415997408842747"><ele>221.6</ele><time>2026-03-29T10:00:18.002Z</time></trkpt><trkpt lat="43.35573896016464" lon="11.416067250073644"><ele>221.8</ele><time>2026-03-29T10:00:19.002Z</time></trkpt><trkpt lat="43.355646259219114" lon="11.416147121361199"><ele>222.0</ele><time>2026-03-29T10:00:20.002Z</time></trkpt><trkpt lat="43.35554253216739" lon="11.416208126151966"><ele>223.0</ele><time>2026-03-29T10:00:21.002Z</time></trkpt><trkpt lat="43.355439283023614" lon="11.416248694366296"><ele>224.0</ele><time>2026-03-29T10:00:22.002Z</time></trkpt><trkpt lat="43.355334365771164" lon="11.416239345066291"><ele>225.0</ele><time>2026-03-29T10:00:23.002Z</time></trkpt><trkpt lat="43.35522444986394" lon="11.416244329874145"><ele>226.0</ele><time>2026-03-29T10:00:24.002Z</time></trkpt><trkpt lat="43.35510849906781" lon="11.416209490205196"><ele>227.0</ele><time>2026-03-29T10:00:25.002Z</time></trkpt><trkpt lat="43.35499131860047" lon="11.416192303209092"><ele>227.0</ele><time>2026-03-29T10:00:26.002Z</time></trkpt><trkpt lat="43.35486817135568" lon="11.416180407972675"><ele>227.0</ele><time>2026-03-29T10:00:27.002Z</time></trkpt><trkpt lat="43.354746225921055" lon="11.416165671614879"><ele>227.0</ele><time>2026-03-29T10:00:28.002Z</time></trkpt><trkpt lat="43.354619670900384" lon="11.416156167127282"><ele>227.0</ele><time>2026-03-29T10:00:29.002Z</time></trkpt><trkpt lat="43.35448490577698" lon="11.416146676131614"><ele>226.5</ele><time>2026-03-29T10:00:30.002Z</time></trkpt><trkpt lat="43.35435484225642" lon="11.416128327904532"><ele>226.0</ele><time>2026-03-29T10:00:31.002Z</time></trkpt><trkpt lat="43.35422759451237" lon="11.41611301673596"><ele>225.5</ele><time>2026-03-29T10:00:32.002Z</time></trkpt><trkpt lat="43.354096612179085" lon="11.416104028375036"><ele>225.0</ele><time>2026-03-29T10:00:33.002Z</time></trkpt><trkpt lat="43.353960482031866" lon="11.416110406282785"><ele>224.5</ele><time>2026-03-29T10:00:34.002Z</time></trkpt><trkpt lat="43.35383075785577" lon="11.416061714975953"><ele>224.0</ele><time>2026-03-29T10:00:35.002Z</time></trkpt><trkpt lat="43.3537099369519" lon="11.416041227213826"><ele>223.5</ele><time>2026-03-29T10:00:36.002Z</time></trkpt><trkpt lat="43.35359082491428" lon="11.416012207495495"><ele>223.0</ele><time>2026-03-29T10:00:37.002Z</time></trkpt><trkpt lat="43.35347590558592" lon="11.415981709518942"><ele>223.0</ele><time>2026-03-29T10:00:38.002Z</time></trkpt><trkpt lat="43.35336775254033" lon="11.415950782512128"><ele>223.0</ele><time>2026-03-29T10:00:39.002Z</time></trkpt><trkpt lat="43.35325117873395" lon="11.415917447522899"><ele>223.0</ele><time>2026-03-29T10:00:40.002Z</time></trkpt><trkpt lat="43.353128443663685" lon="11.415881462932484"><ele>223.0</ele><time>2026-03-29T10:00:41.002Z</time></trkpt><trkpt lat="43.353001173755075" lon="11.41584389983327"><ele>223.0</ele><time>2026-03-29T10:00:42.002Z</time></trkpt><trkpt lat="43.35287381334848" lon="11.415806310016631"><ele>223.0</ele><time>2026-03-29T10:00:43.002Z</time></trkpt><trkpt lat="43.35275322493826" lon="11.415777927129831"><ele>223.0</ele><time>2026-03-29T10:00:44.002Z</time></trkpt><trkpt lat="43.352639852991906" lon="11.4157533569371"><ele>223.0</ele><time>2026-03-29T10:00:45.002Z</time></trkpt><trkpt lat="43.35252966722224" lon="11.41570357249159"><ele>223.0</ele><time>2026-03-29T10:00:46.002Z</time></trkpt><trkpt lat="43.35241727471005" lon="11.415670544525517"><ele>223.0</ele><time>2026-03-29T10:00:47.002Z</time></trkpt><trkpt lat="43.35230940254174" lon="11.415638844877483"><ele>223.0</ele><time>2026-03-29T10:00:48.002Z</time></trkpt><trkpt lat="43.35220995483667" lon="11.415609620909626"><ele>223.0</ele><time>2026-03-29T10:00:49.002Z</time></trkpt><trkpt lat="43.35212058801686" lon="11.415584068649414"><ele>223.0</ele><time>2026-03-29T10:00:50.002Z</time></trkpt><trkpt lat="43.352037484541334" lon="11.415561641302016"><ele>222.60000000000002</ele><time>2026-03-29T10:00:51.002Z</time></trkpt><trkpt lat="43.351940030230196" lon="11.415566001788783"><ele>222.20000000000002</ele><time>2026-03-29T10:00:52.002Z</time></trkpt><trkpt lat="43.35184071154615" lon="11.415534485845019"><ele>221.8</ele><time>2026-03-29T10:00:53.002Z</time></trkpt><trkpt lat="43.35172816998081" lon="11.415509281048989"><ele>221.4</ele><time>2026-03-29T10:00:54.002Z</time></trkpt><trkpt lat="43.351617156582044" lon="11.415476109900942"><ele>221.0</ele><time>2026-03-29T10:00:55.002Z</time></trkpt><trkpt lat="43.351505322761" lon="11.415438920193278"><ele>221.0</ele><time>2026-03-29T10:00:56.002Z</time></trkpt><trkpt lat="43.351385840183326" lon="11.415398861520936"><ele>221.0</ele><time>2026-03-29T10:00:57.002Z</time></trkpt><trkpt lat="43.35126152342638" lon="11.415358413088683"><ele>221.0</ele><time>2026-03-29T10:00:58.002Z</time></trkpt><trkpt lat="43.35113292899027" lon="11.415318178355344"><ele>221.0</ele><time>2026-03-29T10:00:59.002Z</time></trkpt><trkpt lat="43.35099260540872" lon="11.41527638245294"><ele>220.66666666666669</ele><time>2026-03-29T10:01:00.002Z</time></trkpt><trkpt lat="43.35083903019486" lon="11.415235352761666"><ele>220.33333333333331</ele><time>2026-03-29T10:01:01.002Z</time></trkpt><trkpt lat="43.35068318718253" lon="11.415192108868702"><ele>220.0</ele><time>2026-03-29T10:01:02.002Z</time></trkpt><trkpt lat="43.35052850849756" lon="11.415147544823935"><ele>221.5</ele><time>2026-03-29T10:01:03.002Z</time></trkpt><trkpt lat="43.35038356474945" lon="11.415099279808501"><ele>223.0</ele><time>2026-03-29T10:01:04.002Z</time></trkpt><trkpt lat="43.35024675658436" lon="11.415024553788752"><ele>224.5</ele><time>2026-03-29T10:01:05.002Z</time></trkpt><trkpt lat="43.35011832506847" lon="11.414924804340655"><ele>226.0</ele><time>2026-03-29T10:01:06.002Z</time></trkpt><trkpt lat="43.350012745561024" lon="11.414778897331715"><ele>226.33333333333331</ele><time>2026-03-29T10:01:07.002Z</time></trkpt><trkpt lat="43.349912481187886" lon="11.414604538490341"><ele>226.66666666666669</ele><time>2026-03-29T10:01:08.002Z</time></trkpt><trkpt lat="43.349802423423306" lon="11.414425100649842"><ele>227.0</ele><time>2026-03-29T10:01:09.002Z</time></trkpt><trkpt lat="43.34968270060911" lon="11.414221760992124"><ele>227.0</ele><time>2026-03-29T10:01:10.003Z</time></trkpt><trkpt lat="43.34958903473201" lon="11.413986115373342"><ele>227.0</ele><time>2026-03-29T10:01:11.003Z</time></trkpt><trkpt lat="43.349491114766145" lon="11.413761014716513"><ele>227.0</ele><time>2026-03-29T10:01:12.002Z</time></trkpt><trkpt lat="43.34940976395879" lon="11.413527571318745"><ele>227.0</ele><time>2026-03-29T10:01:13.003Z</time></trkpt><trkpt lat="43.34932289073899" lon="11.413308802784885"><ele>227.0</ele><time>2026-03-29T10:01:14.003Z</time></trkpt><trkpt lat="43.34922010568424" lon="11.413108853041699"><ele>227.0</ele><time>2026-03-29T10:01:15.002Z</time></trkpt><trkpt lat="43.3490997618311" lon="11.412932194018719"><ele>226.33333333333334</ele><time>2026-03-29T10:01:16.002Z</time></trkpt><trkpt lat="43.34897049365467" lon="11.412758948236483"><ele>225.66666666666669</ele><time>2026-03-29T10:01:17.002Z</time></trkpt><trkpt lat="43.34884900808449" lon="11.412571773204984"><ele>225.0</ele><time>2026-03-29T10:01:18.002Z</time></trkpt><trkpt lat="43.34874699408091" lon="11.412360117602907"><ele>227.33333333333331</ele><time>2026-03-29T10:01:19.003Z</time></trkpt><trkpt lat="43.34866414899279" lon="11.412136455426971"><ele>229.66666666666666</ele><time>2026-03-29T10:01:20.003Z</time></trkpt><trkpt lat="43.348598504984196" lon="11.411903287616816"><ele>232.0</ele><time>2026-03-29T10:01:21.003Z</time></trkpt><trkpt lat="43.34855236470874" lon="11.4116610318672"><ele>232.0</ele><time>2026-03-29T10:01:22.002Z</time></trkpt><trkpt lat="43.34852965575977" lon="11.411407886111627"><ele>232.0</ele><time>2026-03-29T10:01:23.002Z</time></trkpt><trkpt lat="43.348510752542886" lon="11.411137038037513"><ele>232.0</ele><time>2026-03-29T10:01:24.002Z</time></trkpt><trkpt lat="43.34848385381157" lon="11.41086017222355"><ele>234.0</ele><time>2026-03-29T10:01:25.002Z</time></trkpt><trkpt lat="43.3484417403443" lon="11.410582311972469"><ele>236.0</ele><time>2026-03-29T10:01:26.002Z</time></trkpt><trkpt lat="43.34838082290525" lon="11.410301680479806"><ele>238.0</ele><time>2026-03-29T10:01:27.002Z</time></trkpt><trkpt lat="43.34830876994065" lon="11.410014553857952"><ele>238.66666666666666</ele><time>2026-03-29T10:01:28.002Z</time></trkpt><trkpt lat="43.34823390122919" lon="11.409727193726269"><ele>239.33333333333331</ele><time>2026-03-29T10:01:29.002Z</time></trkpt><trkpt lat="43.34816960732614" lon="11.409453333967226"><ele>240.0</ele><time>2026-03-29T10:01:30.002Z</time></trkpt><trkpt lat="43.34810549231615" lon="11.409189490666988"><ele>240.0</ele><time>2026-03-29T10:01:31.002Z</time></trkpt><trkpt lat="43.348060052873656" lon="11.408926727155983"><ele>240.0</ele><time>2026-03-29T10:01:32.002Z</time></trkpt><trkpt lat="43.348049795393834" lon="11.408643304593188"><ele>240.0</ele><time>2026-03-29T10:01:33.002Z</time></trkpt><trkpt lat="43.348033992919426" lon="11.408361026153862"><ele>248.0</ele><time>2026-03-29T10:01:34.002Z</time></trkpt><trkpt lat="43.34802111782107" lon="11.408098726141066"><ele>256.0</ele><time>2026-03-29T10:01:35.002Z</time></trkpt><trkpt lat="43.34802288008949" lon="11.407839566694351"><ele>264.0</ele><time>2026-03-29T10:01:36.002Z</time></trkpt><trkpt lat="43.348029812981196" lon="11.407575504649092"><ele>266.0</ele><time>2026-03-29T10:01:37.002Z</time></trkpt><trkpt lat="43.348042785712444" lon="11.40731491405901"><ele>268.0</ele><time>2026-03-29T10:01:38.002Z</time></trkpt><trkpt lat="43.34805475772806" lon="11.40706150603687"><ele>270.0</ele><time>2026-03-29T10:01:39.002Z</time></trkpt><trkpt lat="43.348066122523164" lon="11.40681366470883"><ele>265.3333333333333</ele><time>2026-03-29T10:01:40.002Z</time></trkpt><trkpt lat="43.348093072929096" lon="11.406572135789093"><ele>260.66666666666663</ele><time>2026-03-29T10:01:41.002Z</time></trkpt><trkpt lat="43.34815585426211" lon="11.4063471346363"><ele>256.0</ele><time>2026-03-29T10:01:42.002Z</time></trkpt><trkpt lat="43.34822258349574" lon="11.406115381998383"><ele>256.0</ele><time>2026-03-29T10:01:43.002Z</time></trkpt><trkpt lat="43.34829710525826" lon="11.405878003504839"><ele>256.0</ele><time>2026-03-29T10:01:44.002Z</time></trkpt><trkpt lat="43.348360064934845" lon="11.405644166652348"><ele>256.0</ele><time>2026-03-29T10:01:45.002Z</time></trkpt><trkpt lat="43.3484124320134" lon="11.405397299955963"><ele>259.66666666666663</ele><time>2026-03-29T10:01:46.002Z</time></trkpt><trkpt lat="43.34844628090067" lon="11.405129947817777"><ele>263.3333333333333</ele><time>2026-03-29T10:01:47.002Z</time></trkpt><trkpt lat="43.34847219526592" lon="11.404874948482243"><ele>267.0</ele><time>2026-03-29T10:01:48.002Z</time></trkpt><trkpt lat="43.34850377008488" lon="11.40465403177108"><ele>267.6666666666667</ele><time>2026-03-29T10:01:49.002Z</time></trkpt><trkpt lat="43.348557902586776" lon="11.40446484466972"><ele>268.33333333333337</ele><time>2026-03-29T10:01:50.002Z</time></trkpt><trkpt lat="43.34863355569916" lon="11.404277740705837"><ele>269.0</ele><time>2026-03-29T10:01:51.002Z</time></trkpt><trkpt lat="43.3487394667803" lon="11.4041020603581"><ele>269.0</ele><time>2026-03-29T10:01:52.002Z</time></trkpt><trkpt lat="43.34885175206593" lon="11.40394489361981"><ele>269.0</ele><time>2026-03-29T10:01:53.002Z</time></trkpt><trkpt lat="43.348958741052876" lon="11.40377833744415"><ele>269.0</ele><time>2026-03-29T10:01:54.002Z</time></trkpt><trkpt lat="43.34905492522721" lon="11.403573722746671"><ele>270.0</ele><time>2026-03-29T10:01:55.002Z</time></trkpt><trkpt lat="43.349112011643854" lon="11.403332008475969"><ele>271.0</ele><time>2026-03-29T10:01:56.002Z</time></trkpt><trkpt lat="43.349138584817304" lon="11.403072835078232"><ele>272.0</ele><time>2026-03-29T10:01:57.002Z</time></trkpt><trkpt lat="43.34915904089509" lon="11.402818383109928"><ele>274.33333333333337</ele><time>2026-03-29T10:01:58.002Z</time></trkpt><trkpt lat="43.349179966184245" lon="11.402558474822632"><ele>276.6666666666667</ele><time>2026-03-29T10:01:59.002Z</time></trkpt><trkpt lat="43.34920317209106" lon="11.402308251791569"><ele>279.0</ele><time>2026-03-29T10:02:00.002Z</time></trkpt><trkpt lat="43.34921527022812" lon="11.402072829738167"><ele>281.0</ele><time>2026-03-29T10:02:01.002Z</time></trkpt><trkpt lat="43.349270417199236" lon="11.401892557676302"><ele>283.0</ele><time>2026-03-29T10:02:02.002Z</time></trkpt><trkpt lat="43.34931595433647" lon="11.401733402400946"><ele>285.0</ele><time>2026-03-29T10:02:03.002Z</time></trkpt><trkpt lat="43.34940664965445" lon="11.40160964365634"><ele>287.0</ele><time>2026-03-29T10:02:04.002Z</time></trkpt><trkpt lat="43.34952377776502" lon="11.401545833973476"><ele>287.0</ele><time>2026-03-29T10:02:05.002Z</time></trkpt><trkpt lat="43.34965296054366" lon="11.401546614872707"><ele>287.0</ele><time>2026-03-29T10:02:06.002Z</time></trkpt><trkpt lat="43.34978725549692" lon="11.4015971791347"><ele>287.0</ele><time>2026-03-29T10:02:07.002Z</time></trkpt><trkpt lat="43.349912911624536" lon="11.401658743836656"><ele>287.0</ele><time>2026-03-29T10:02:08.002Z</time></trkpt><trkpt lat="43.350024310928355" lon="11.401676650228563"><ele>285.75</ele><time>2026-03-29T10:02:09.002Z</time></trkpt><trkpt lat="43.35012448882768" lon="11.401630484485082"><ele>284.5</ele><time>2026-03-29T10:02:10.002Z</time></trkpt><trkpt lat="43.350213348507054" lon="11.401540985083447"><ele>283.25</ele><time>2026-03-29T10:02:11.002Z</time></trkpt><trkpt lat="43.35025802809906" lon="11.401396708243889"><ele>282.0</ele><time>2026-03-29T10:02:12.002Z</time></trkpt><trkpt lat="43.35021389718405" lon="11.40123805828072"><ele>284.5</ele><time>2026-03-29T10:02:13.002Z</time></trkpt><trkpt lat="43.350149050728824" lon="11.40109897181388"><ele>287.0</ele><time>2026-03-29T10:02:14.002Z</time></trkpt><trkpt lat="43.35005235210084" lon="11.400966860526198"><ele>289.5</ele><time>2026-03-29T10:02:15.002Z</time></trkpt><trkpt lat="43.349937735973555" lon="11.400835375173752"><ele>292.0</ele><time>2026-03-29T10:02:16.002Z</time></trkpt><trkpt lat="43.34981461845716" lon="11.400704226381299"><ele>292.66666666666663</ele><time>2026-03-29T10:02:17.002Z</time></trkpt><trkpt lat="43.349671233984026" lon="11.400630599838546"><ele>293.3333333333333</ele><time>2026-03-29T10:02:18.002Z</time></trkpt><trkpt lat="43.34952253540888" lon="11.400624521185104"><ele>294.0</ele><time>2026-03-29T10:02:19.002Z</time></trkpt><trkpt lat="43.34936256313448" lon="11.400678160605981"><ele>294.0</ele><time>2026-03-29T10:02:20.002Z</time></trkpt><trkpt lat="43.34920055866221" lon="11.400771494188009"><ele>294.0</ele><time>2026-03-29T10:02:21.002Z</time></trkpt><trkpt lat="43.34904417608765" lon="11.400874865566808"><ele>294.0</ele><time>2026-03-29T10:02:22.002Z</time></trkpt><trkpt lat="43.34890946913881" lon="11.400972269814515"><ele>295.2</ele><time>2026-03-29T10:02:23.002Z</time></trkpt><trkpt lat="43.34880295049187" lon="11.4010454564882"><ele>296.4</ele><time>2026-03-29T10:02:24.002Z</time></trkpt><trkpt lat="43.348704833300204" lon="11.401055110804352"><ele>297.6</ele><time>2026-03-29T10:02:25.002Z</time></trkpt><trkpt lat="43.34861344576128" lon="11.401033741101678"><ele>298.8</ele><time>2026-03-29T10:02:26.002Z</time></trkpt><trkpt lat="43.34852062674565" lon="11.40096712194416"><ele>300.0</ele><time>2026-03-29T10:02:27.002Z</time></trkpt><trkpt lat="43.34841014982517" lon="11.40086794909932"><ele>300.0</ele><time>2026-03-29T10:02:28.002Z</time></trkpt><trkpt lat="43.34829866856727" lon="11.400732334798"><ele>300.0</ele><time>2026-03-29T10:02:29.002Z</time></trkpt><trkpt lat="43.34816523190466" lon="11.400586806131267"><ele>300.0</ele><time>2026-03-29T10:02:30.002Z</time></trkpt><trkpt lat="43.34802857344198" lon="11.400452638114562"><ele>301.75</ele><time>2026-03-29T10:02:31.002Z</time></trkpt><trkpt lat="43.34789241432331" lon="11.400350693607617"><ele>303.5</ele><time>2026-03-29T10:02:32.002Z</time></trkpt><trkpt lat="43.34775910144897" lon="11.400274705021014"><ele>305.25</ele><time>2026-03-29T10:02:33.002Z</time></trkpt><trkpt lat="43.34763407299478" lon="11.40020179458283"><ele>307.0</ele><time>2026-03-29T10:02:34.002Z</time></trkpt><trkpt lat="43.347526469998805" lon="11.40010396555978"><ele>307.0</ele><time>2026-03-29T10:02:35.002Z</time></trkpt><trkpt lat="43.347450581000366" lon="11.399983500839163"><ele>307.0</ele><time>2026-03-29T10:02:36.002Z</time></trkpt><trkpt lat="43.347418635985214" lon="11.399833718212237"><ele>307.0</ele><time>2026-03-29T10:02:37.002Z</time></trkpt><trkpt lat="43.34739295945597" lon="11.399720781417127"><ele>307.0</ele><time>2026-03-29T10:02:38.002Z</time></trkpt><trkpt lat="43.34742610416481" lon="11.399613837417352"><ele>307.0</ele><time>2026-03-29T10:02:39.002Z</time></trkpt><trkpt lat="43.347488434566245" lon="11.399519741394815"><ele>307.2</ele><time>2026-03-29T10:02:40.002Z</time></trkpt><trkpt lat="43.34754565685672" lon="11.399425809904656"><ele>307.4</ele><time>2026-03-29T10:02:41.002Z</time></trkpt><trkpt lat="43.347614965169846" lon="11.399346203255636"><ele>307.6</ele><time>2026-03-29T10:02:42.002Z</time></trkpt><trkpt lat="43.347696545423354" lon="11.399286845150435"><ele>307.8</ele><time>2026-03-29T10:02:43.002Z</time></trkpt><trkpt lat="43.34778395902478" lon="11.39920172413996"><ele>308.0</ele><time>2026-03-29T10:02:44.002Z</time></trkpt><trkpt lat="43.347894815677726" lon="11.39914126314905"><ele>308.0</ele><time>2026-03-29T10:02:45.002Z</time></trkpt><trkpt lat="43.34802684672044" lon="11.399087703618772"><ele>308.0</ele><time>2026-03-29T10:02:46.002Z</time></trkpt><trkpt lat="43.348141990709024" lon="11.399048342242658"><ele>308.0</ele><time>2026-03-29T10:02:47.002Z</time></trkpt><trkpt lat="43.34824857940173" lon="11.399020808025181"><ele>308.0</ele><time>2026-03-29T10:02:48.002Z</time></trkpt><trkpt lat="43.348352904834286" lon="11.39902945043003"><ele>308.5</ele><time>2026-03-29T10:02:49.002Z</time></trkpt><trkpt lat="43.348414081981346" lon="11.399005813862484"><ele>309.0</ele><time>2026-03-29T10:02:50.002Z</time></trkpt><trkpt lat="43.34835716337406" lon="11.39872067724744"><ele>309.5</ele><time>2026-03-29T10:03:36.002Z</time></trkpt><trkpt lat="43.348287355162576" lon="11.398579745651565"><ele>310.0</ele><time>2026-03-29T10:03:38.002Z</time></trkpt><trkpt lat="43.34819518635488" lon="11.398495982212118"><ele>309.0</ele><time>2026-03-29T10:03:40.002Z</time></trkpt><trkpt lat="43.34812485724208" lon="11.398458269305628"><ele>308.0</ele><time>2026-03-29T10:03:41.002Z</time></trkpt><trkpt lat="43.34801908685661" lon="11.398475927445773"><ele>307.0</ele><time>2026-03-29T10:03:42.002Z</time></trkpt><trkpt lat="43.347927058954205" lon="11.398524968808676"><ele>306.0</ele><time>2026-03-29T10:03:43.002Z</time></trkpt><trkpt lat="43.34782471369998" lon="11.39858083329266"><ele>305.0</ele><time>2026-03-29T10:03:44.002Z</time></trkpt><trkpt lat="43.347716090158485" lon="11.398640379415522"><ele>303.5</ele><time>2026-03-29T10:03:45.002Z</time></trkpt><trkpt lat="43.34759138855112" lon="11.39866399887518"><ele>302.0</ele><time>2026-03-29T10:03:46.002Z</time></trkpt><trkpt lat="43.347462413216704" lon="11.398686654405141"><ele>300.5</ele><time>2026-03-29T10:03:47.002Z</time></trkpt><trkpt lat="43.34733043640661" lon="11.398681964276518"><ele>299.0</ele><time>2026-03-29T10:03:48.002Z</time></trkpt><trkpt lat="43.34721378058475" lon="11.398707269988707"><ele>299.59999999999997</ele><time>2026-03-29T10:03:49.002Z</time></trkpt><trkpt lat="43.34709594219672" lon="11.39873636435186"><ele>300.2</ele><time>2026-03-29T10:03:50.002Z</time></trkpt><trkpt lat="43.34698803522891" lon="11.398767725228353"><ele>300.79999999999995</ele><time>2026-03-29T10:03:51.002Z</time></trkpt><trkpt lat="43.34688859575011" lon="11.39882568383225"><ele>301.4</ele><time>2026-03-29T10:03:52.002Z</time></trkpt><trkpt lat="43.34680196783598" lon="11.398909278364254"><ele>302.0</ele><time>2026-03-29T10:03:53.002Z</time></trkpt><trkpt lat="43.346708077332735" lon="11.398992993240064"><ele>302.0</ele><time>2026-03-29T10:03:54.002Z</time></trkpt><trkpt lat="43.34661564015321" lon="11.399126690131547"><ele>302.0</ele><time>2026-03-29T10:03:55.002Z</time></trkpt><trkpt lat="43.346518231026856" lon="11.399278025834484"><ele>302.0</ele><time>2026-03-29T10:03:56.002Z</time></trkpt><trkpt lat="43.34642286817003" lon="11.399430225043906"><ele>302.0</ele><time>2026-03-29T10:03:57.002Z</time></trkpt><trkpt lat="43.346333879520685" lon="11.399572014346745"><ele>301.25</ele><time>2026-03-29T10:03:58.002Z</time></trkpt><trkpt lat="43.34624991877681" lon="11.399704813856285"><ele>300.5</ele><time>2026-03-29T10:03:59.002Z</time></trkpt><trkpt lat="43.346163388555475" lon="11.399840088551231"><ele>299.75</ele><time>2026-03-29T10:04:00.002Z</time></trkpt><trkpt lat="43.34607441273935" lon="11.399978025150094"><ele>299.0</ele><time>2026-03-29T10:04:01.002Z</time></trkpt><trkpt lat="43.34598780564206" lon="11.400112289802184"><ele>299.0</ele><time>2026-03-29T10:04:02.002Z</time></trkpt><trkpt lat="43.345897827619346" lon="11.400251779974647"><ele>299.0</ele><time>2026-03-29T10:04:03.002Z</time></trkpt><trkpt lat="43.345810368064186" lon="11.400387365866274"><ele>299.0</ele><time>2026-03-29T10:04:04.002Z</time></trkpt><trkpt lat="43.34572332456555" lon="11.400518888669415"><ele>299.0</ele><time>2026-03-29T10:04:05.002Z</time></trkpt><trkpt lat="43.345645912404706" lon="11.40063578440127"><ele>299.0</ele><time>2026-03-29T10:04:06.002Z</time></trkpt><trkpt lat="43.345573533675086" lon="11.40074733672751"><ele>299.0</ele><time>2026-03-29T10:04:07.002Z</time></trkpt><trkpt lat="43.34550675000881" lon="11.400850278731609"><ele>299.0</ele><time>2026-03-29T10:04:08.002Z</time></trkpt><trkpt lat="43.34543941613711" lon="11.400942668117336"><ele>299.0</ele><time>2026-03-29T10:04:09.002Z</time></trkpt><trkpt lat="43.345350308390636" lon="11.401020378046812"><ele>299.0</ele><time>2026-03-29T10:04:10.002Z</time></trkpt><trkpt lat="43.34524562227017" lon="11.401100311625834"><ele>299.0</ele><time>2026-03-29T10:04:11.002Z</time></trkpt><trkpt lat="43.34510817893325" lon="11.401173613826836"><ele>299.0</ele><time>2026-03-29T10:04:12.002Z</time></trkpt><trkpt lat="43.34496946409886" lon="11.401232696089473"><ele>299.0</ele><time>2026-03-29T10:04:13.002Z</time></trkpt><trkpt lat="43.34482509407251" lon="11.401283405442317"><ele>299.0</ele><time>2026-03-29T10:04:14.002Z</time></trkpt><trkpt lat="43.34467958836917" lon="11.401317965480484"><ele>298.33333333333337</ele><time>2026-03-29T10:04:15.002Z</time></trkpt><trkpt lat="43.34452952054955" lon="11.401328728278084"><ele>297.6666666666667</ele><time>2026-03-29T10:04:16.002Z</time></trkpt><trkpt lat="43.344362698012354" lon="11.4013146001836"><ele>297.0</ele><time>2026-03-29T10:04:17.002Z</time></trkpt><trkpt lat="43.344224576225955" lon="11.401322131849987"><ele>296.0</ele><time>2026-03-29T10:04:18.002Z</time></trkpt><trkpt lat="43.34408314577971" lon="11.40135227998599"><ele>295.0</ele><time>2026-03-29T10:04:19.002Z</time></trkpt><trkpt lat="43.343956479433395" lon="11.40141341016674"><ele>294.0</ele><time>2026-03-29T10:04:20.002Z</time></trkpt><trkpt lat="43.343805675409335" lon="11.401499737957034"><ele>293.0</ele><time>2026-03-29T10:04:21.002Z</time></trkpt><trkpt lat="43.34365390631433" lon="11.40158059998452"><ele>292.75</ele><time>2026-03-29T10:04:22.002Z</time></trkpt><trkpt lat="43.34351626219373" lon="11.401669918473765"><ele>292.5</ele><time>2026-03-29T10:04:23.002Z</time></trkpt><trkpt lat="43.34339116135718" lon="11.40177506060542"><ele>292.25</ele><time>2026-03-29T10:04:24.002Z</time></trkpt><trkpt lat="43.343279145966726" lon="11.401909093346946"><ele>292.0</ele><time>2026-03-29T10:04:25.002Z</time></trkpt><trkpt lat="43.343179670892255" lon="11.402040408719795"><ele>291.25</ele><time>2026-03-29T10:04:26.002Z</time></trkpt><trkpt lat="43.34313275338444" lon="11.402227982467807"><ele>290.5</ele><time>2026-03-29T10:04:27.002Z</time></trkpt><trkpt lat="43.34308969731768" lon="11.402414162231143"><ele>289.75</ele><time>2026-03-29T10:04:28.002Z</time></trkpt><trkpt lat="43.343067366628816" lon="11.402600638003692"><ele>289.0</ele><time>2026-03-29T10:04:29.002Z</time></trkpt><trkpt lat="43.343062135013604" lon="11.402773872504579"><ele>289.0</ele><time>2026-03-29T10:04:30.002Z</time></trkpt><trkpt lat="43.343031344348695" lon="11.402922927137"><ele>289.0</ele><time>2026-03-29T10:04:31.002Z</time></trkpt><trkpt lat="43.34299427279338" lon="11.403069972568565"><ele>289.0</ele><time>2026-03-29T10:04:32.002Z</time></trkpt><trkpt lat="43.342930466245484" lon="11.403187232219262"><ele>289.0</ele><time>2026-03-29T10:04:33.002Z</time></trkpt><trkpt lat="43.342849270049555" lon="11.403270890493664"><ele>289.0</ele><time>2026-03-29T10:04:34.002Z</time></trkpt><trkpt lat="43.34274047387434" lon="11.403295215385544"><ele>289.0</ele><time>2026-03-29T10:04:35.002Z</time></trkpt><trkpt lat="43.34263328652955" lon="11.403304099649553"><ele>289.0</ele><time>2026-03-29T10:04:36.002Z</time></trkpt><trkpt lat="43.34251239576233" lon="11.40332556465122"><ele>289.0</ele><time>2026-03-29T10:04:37.002Z</time></trkpt><trkpt lat="43.342399013063755" lon="11.40340151713233"><ele>289.0</ele><time>2026-03-29T10:04:38.002Z</time></trkpt><trkpt lat="43.34227689335841" lon="11.40346709867472"><ele>287.3333333333333</ele><time>2026-03-29T10:04:39.002Z</time></trkpt><trkpt lat="43.34216090979984" lon="11.403587896905288"><ele>285.6666666666667</ele><time>2026-03-29T10:04:40.002Z</time></trkpt><trkpt lat="43.342044863203235" lon="11.403755969329877"><ele>284.0</ele><time>2026-03-29T10:04:41.002Z</time></trkpt><trkpt lat="43.341918563998036" lon="11.403897069517468"><ele>284.0</ele><time>2026-03-29T10:04:42.002Z</time></trkpt><trkpt lat="43.34178942558229" lon="11.404026578511639"><ele>284.0</ele><time>2026-03-29T10:04:43.002Z</time></trkpt><trkpt lat="43.34167054528694" lon="11.404162709768153"><ele>284.0</ele><time>2026-03-29T10:04:44.002Z</time></trkpt><trkpt lat="43.34155822948593" lon="11.404292328317018"><ele>284.0</ele><time>2026-03-29T10:04:45.002Z</time></trkpt><trkpt lat="43.34144965584912" lon="11.404417602718183"><ele>284.0</ele><time>2026-03-29T10:04:46.002Z</time></trkpt><trkpt lat="43.341349477887874" lon="11.40455480823665"><ele>284.0</ele><time>2026-03-29T10:04:47.002Z</time></trkpt><trkpt lat="43.341256262934024" lon="11.404705445051139"><ele>284.0</ele><time>2026-03-29T10:04:48.002Z</time></trkpt><trkpt lat="43.34116295290111" lon="11.404865533688229"><ele>285.5</ele><time>2026-03-29T10:04:49.002Z</time></trkpt><trkpt lat="43.341067272372" lon="11.405024057599583"><ele>287.0</ele><time>2026-03-29T10:04:50.002Z</time></trkpt><trkpt lat="43.34096907774332" lon="11.405161189833375"><ele>288.5</ele><time>2026-03-29T10:04:51.002Z</time></trkpt><trkpt lat="43.34084755105719" lon="11.40525935987404"><ele>290.0</ele><time>2026-03-29T10:04:52.002Z</time></trkpt><trkpt lat="43.34072488185034" lon="11.40537900704932"><ele>290.0</ele><time>2026-03-29T10:04:53.002Z</time></trkpt><trkpt lat="43.34058296094107" lon="11.405460916074029"><ele>290.0</ele><time>2026-03-29T10:04:54.002Z</time></trkpt><trkpt lat="43.34042512373506" lon="11.405553006689724"><ele>290.0</ele><time>2026-03-29T10:04:55.002Z</time></trkpt><trkpt lat="43.34027303545983" lon="11.405638757529239"><ele>290.0</ele><time>2026-03-29T10:04:56.002Z</time></trkpt><trkpt lat="43.34011944585131" lon="11.405728627338961"><ele>290.0</ele><time>2026-03-29T10:04:57.002Z</time></trkpt><trkpt lat="43.33997900449546" lon="11.405819377867285"><ele>290.0</ele><time>2026-03-29T10:04:58.002Z</time></trkpt><trkpt lat="43.33985422300652" lon="11.405902932421121"><ele>290.0</ele><time>2026-03-29T10:04:59.002Z</time></trkpt><trkpt lat="43.33974654034677" lon="11.405967953397887"><ele>290.0</ele><time>2026-03-29T10:05:00.002Z</time></trkpt><trkpt lat="43.33964805964176" lon="11.406039678934283"><ele>290.0</ele><time>2026-03-29T10:05:01.002Z</time></trkpt><trkpt lat="43.33957488197459" lon="11.406133342553328"><ele>290.0</ele><time>2026-03-29T10:05:02.002Z</time></trkpt><trkpt lat="43.33951882107202" lon="11.406248640799756"><ele>290.0</ele><time>2026-03-29T10:05:03.002Z</time></trkpt><trkpt lat="43.33948035892299" lon="11.406396613447122"><ele>289.25</ele><time>2026-03-29T10:05:04.002Z</time></trkpt><trkpt lat="43.33941062413986" lon="11.406555340519756"><ele>288.5</ele><time>2026-03-29T10:05:05.002Z</time></trkpt><trkpt lat="43.33931036439689" lon="11.406704688123549"><ele>287.75</ele><time>2026-03-29T10:05:06.002Z</time></trkpt><trkpt lat="43.33918917589684" lon="11.406852930791228"><ele>287.0</ele><time>2026-03-29T10:05:07.002Z</time></trkpt><trkpt lat="43.339057706892206" lon="11.40699142686295"><ele>287.0</ele><time>2026-03-29T10:05:08.002Z</time></trkpt><trkpt lat="43.33894419664597" lon="11.407137488530113"><ele>287.0</ele><time>2026-03-29T10:05:09.002Z</time></trkpt><trkpt lat="43.338824571365585" lon="11.407282336092841"><ele>287.0</ele><time>2026-03-29T10:05:10.002Z</time></trkpt><trkpt lat="43.3387117822365" lon="11.407424029232297"><ele>287.5</ele><time>2026-03-29T10:05:11.002Z</time></trkpt><trkpt lat="43.33859688065379" lon="11.407540611487807"><ele>288.0</ele><time>2026-03-29T10:05:12.002Z</time></trkpt><trkpt lat="43.338476793261925" lon="11.407642099440677"><ele>288.5</ele><time>2026-03-29T10:05:13.002Z</time></trkpt><trkpt lat="43.33835798749667" lon="11.407732516729173"><ele>289.0</ele><time>2026-03-29T10:05:14.002Z</time></trkpt><trkpt lat="43.338255344487145" lon="11.407796558037798"><ele>289.0</ele><time>2026-03-29T10:05:15.002Z</time></trkpt><trkpt lat="43.33816511611329" lon="11.40783030882482"><ele>289.0</ele><time>2026-03-29T10:05:16.002Z</time></trkpt><trkpt lat="43.33808245927965" lon="11.407831530802566"><ele>289.0</ele><time>2026-03-29T10:05:17.002Z</time></trkpt><trkpt lat="43.338002333816014" lon="11.407787342146301"><ele>289.0</ele><time>2026-03-29T10:05:18.002Z</time></trkpt><trkpt lat="43.33791802931717" lon="11.407675893222814"><ele>289.0</ele><time>2026-03-29T10:05:19.002Z</time></trkpt><trkpt lat="43.33780124942018" lon="11.40758185696214"><ele>289.66666666666663</ele><time>2026-03-29T10:05:20.003Z</time></trkpt><trkpt lat="43.337680207647" lon="11.407448036351857"><ele>290.3333333333333</ele><time>2026-03-29T10:05:21.003Z</time></trkpt><trkpt lat="43.337543033440355" lon="11.407321346691898"><ele>291.0</ele><time>2026-03-29T10:05:22.003Z</time></trkpt><trkpt lat="43.33742389473525" lon="11.407188532485932"><ele>290.75</ele><time>2026-03-29T10:05:23.003Z</time></trkpt><trkpt lat="43.33731136505947" lon="11.407089553077984"><ele>290.5</ele><time>2026-03-29T10:05:24.003Z</time></trkpt><trkpt lat="43.33719718963965" lon="11.406995917353747"><ele>290.25</ele><time>2026-03-29T10:05:25.003Z</time></trkpt><trkpt lat="43.337062458956574" lon="11.406924905433518"><ele>290.0</ele><time>2026-03-29T10:05:26.003Z</time></trkpt><trkpt lat="43.33690821730448" lon="11.406854443762887"><ele>290.6666666666667</ele><time>2026-03-29T10:05:27.003Z</time></trkpt><trkpt lat="43.3367479532357" lon="11.40679195346335"><ele>291.3333333333333</ele><time>2026-03-29T10:05:28.003Z</time></trkpt><trkpt lat="43.33660087703972" lon="11.406734324045154"><ele>292.0</ele><time>2026-03-29T10:05:29.002Z</time></trkpt><trkpt lat="43.33646451413862" lon="11.406679186523384"><ele>293.75</ele><time>2026-03-29T10:05:30.003Z</time></trkpt><trkpt lat="43.33633293746994" lon="11.406649707970551"><ele>295.5</ele><time>2026-03-29T10:05:31.003Z</time></trkpt><trkpt lat="43.336215550051975" lon="11.406646207108615"><ele>297.25</ele><time>2026-03-29T10:05:32.003Z</time></trkpt><trkpt lat="43.33611185052126" lon="11.406676960591613"><ele>299.0</ele><time>2026-03-29T10:05:33.003Z</time></trkpt><trkpt lat="43.33601289873986" lon="11.406731213635583"><ele>299.0</ele><time>2026-03-29T10:05:34.003Z</time></trkpt><trkpt lat="43.33593169635545" lon="11.406814425131818"><ele>299.0</ele><time>2026-03-29T10:05:35.003Z</time></trkpt><trkpt lat="43.335850118293116" lon="11.406901508786262"><ele>299.0</ele><time>2026-03-29T10:05:36.003Z</time></trkpt><trkpt lat="43.33576421627547" lon="11.406993772154891"><ele>299.0</ele><time>2026-03-29T10:05:37.003Z</time></trkpt><trkpt lat="43.33567539998537" lon="11.407117094684725"><ele>299.0</ele><time>2026-03-29T10:05:38.003Z</time></trkpt><trkpt lat="43.335593398445816" lon="11.40721465774651"><ele>298.59999999999997</ele><time>2026-03-29T10:05:39.003Z</time></trkpt><trkpt lat="43.33550910663622" lon="11.407295480554664"><ele>298.2</ele><time>2026-03-29T10:05:40.003Z</time></trkpt><trkpt lat="43.335434952348976" lon="11.407350139075389"><ele>297.79999999999995</ele><time>2026-03-29T10:05:41.003Z</time></trkpt><trkpt lat="43.335346535813564" lon="11.407389440858172"><ele>297.4</ele><time>2026-03-29T10:05:42.003Z</time></trkpt><trkpt lat="43.33525438627113" lon="11.407399218310708"><ele>297.0</ele><time>2026-03-29T10:05:43.003Z</time></trkpt><trkpt lat="43.33514880944" lon="11.407389348061718"><ele>297.0</ele><time>2026-03-29T10:05:44.003Z</time></trkpt><trkpt lat="43.33504893735554" lon="11.40741626662866"><ele>297.0</ele><time>2026-03-29T10:05:45.003Z</time></trkpt><trkpt lat="43.334949395679025" lon="11.407442934683141"><ele>297.0</ele><time>2026-03-29T10:05:46.003Z</time></trkpt><trkpt lat="43.334854553005776" lon="11.407468060363462"><ele>297.0</ele><time>2026-03-29T10:05:47.003Z</time></trkpt><trkpt lat="43.33475119249208" lon="11.40746196068852"><ele>297.0</ele><time>2026-03-29T10:05:48.003Z</time></trkpt><trkpt lat="43.33465411419067" lon="11.407465137815338"><ele>295.6</ele><time>2026-03-29T10:05:49.003Z</time></trkpt><trkpt lat="43.334552777882536" lon="11.407468436538704"><ele>294.2</ele><time>2026-03-29T10:05:50.003Z</time></trkpt><trkpt lat="43.33446833368838" lon="11.407480731399106"><ele>292.8</ele><time>2026-03-29T10:05:51.003Z</time></trkpt><trkpt lat="43.33439831069793" lon="11.407467311850684"><ele>291.4</ele><time>2026-03-29T10:05:52.003Z</time></trkpt><trkpt lat="43.33433772013733" lon="11.40743446984363"><ele>290.0</ele><time>2026-03-29T10:05:53.003Z</time></trkpt><trkpt lat="43.334273333956915" lon="11.407271254807501"><ele>290.0</ele><time>2026-03-29T10:05:55.003Z</time></trkpt><trkpt lat="43.3342565060549" lon="11.407161481895846"><ele>290.0</ele><time>2026-03-29T10:05:56.003Z</time></trkpt><trkpt lat="43.334249029366376" lon="11.407034795846771"><ele>290.0</ele><time>2026-03-29T10:05:57.003Z</time></trkpt><trkpt lat="43.33424210123377" lon="11.40690132917278"><ele>290.0</ele><time>2026-03-29T10:05:58.003Z</time></trkpt><trkpt lat="43.33422184544868" lon="11.406756883691052"><ele>290.0</ele><time>2026-03-29T10:05:59.003Z</time></trkpt><trkpt lat="43.334194434407586" lon="11.406598257755192"><ele>289.75</ele><time>2026-03-29T10:06:00.003Z</time></trkpt><trkpt lat="43.33417018973815" lon="11.406431061096349"><ele>289.5</ele><time>2026-03-29T10:06:01.003Z</time></trkpt><trkpt lat="43.33414206381314" lon="11.406254439346244"><ele>289.25</ele><time>2026-03-29T10:06:02.003Z</time></trkpt><trkpt lat="43.33411131192337" lon="11.406083703767948"><ele>289.0</ele><time>2026-03-29T10:06:03.003Z</time></trkpt><trkpt lat="43.33409587010587" lon="11.405924416182456"><ele>288.25</ele><time>2026-03-29T10:06:04.003Z</time></trkpt><trkpt lat="43.334097318992505" lon="11.405765888442945"><ele>287.5</ele><time>2026-03-29T10:06:05.003Z</time></trkpt><trkpt lat="43.33411196763871" lon="11.405575998113743"><ele>286.75</ele><time>2026-03-29T10:06:06.003Z</time></trkpt><trkpt lat="43.33413402605726" lon="11.4053505789261"><ele>286.0</ele><time>2026-03-29T10:06:07.003Z</time></trkpt><trkpt lat="43.33415467865559" lon="11.405129724588871"><ele>285.0</ele><time>2026-03-29T10:06:08.003Z</time></trkpt><trkpt lat="43.334172155950135" lon="11.40491878462443"><ele>284.0</ele><time>2026-03-29T10:06:09.003Z</time></trkpt><trkpt lat="43.334190443575" lon="11.404721825765272"><ele>283.0</ele><time>2026-03-29T10:06:10.003Z</time></trkpt><trkpt lat="43.334208409356165" lon="11.404533896617194"><ele>282.0</ele><time>2026-03-29T10:06:11.003Z</time></trkpt><trkpt lat="43.33421832947445" lon="11.40436886396619"><ele>282.0</ele><time>2026-03-29T10:06:12.003Z</time></trkpt><trkpt lat="43.3342259610252" lon="11.404238994305203"><ele>282.0</ele><time>2026-03-29T10:06:13.003Z</time></trkpt><trkpt lat="43.33422456290447" lon="11.404138292426273"><ele>282.0</ele><time>2026-03-29T10:06:14.003Z</time></trkpt><trkpt lat="43.33415421584681" lon="11.404012287825745"><ele>282.0</ele><time>2026-03-29T10:06:16.003Z</time></trkpt><trkpt lat="43.33401541093439" lon="11.403983504593125"><ele>282.0</ele><time>2026-03-29T10:06:18.003Z</time></trkpt><trkpt lat="43.333928995563575" lon="11.404074583494001"><ele>281.5</ele><time>2026-03-29T10:06:19.003Z</time></trkpt><trkpt lat="43.33382464370564" lon="11.404116161508556"><ele>281.0</ele><time>2026-03-29T10:06:20.003Z</time></trkpt><trkpt lat="43.33370560558106" lon="11.404177317750985"><ele>280.5</ele><time>2026-03-29T10:06:21.003Z</time></trkpt><trkpt lat="43.33357662140217" lon="11.404242600754708"><ele>280.0</ele><time>2026-03-29T10:06:22.003Z</time></trkpt><trkpt lat="43.33344656362083" lon="11.40431485089165"><ele>280.0</ele><time>2026-03-29T10:06:23.003Z</time></trkpt><trkpt lat="43.33331061305625" lon="11.404382644548354"><ele>280.0</ele><time>2026-03-29T10:06:24.003Z</time></trkpt><trkpt lat="43.3331811150274" lon="11.40444905803858"><ele>280.0</ele><time>2026-03-29T10:06:25.003Z</time></trkpt><trkpt lat="43.3330529360348" lon="11.40451454438071"><ele>280.0</ele><time>2026-03-29T10:06:26.003Z</time></trkpt><trkpt lat="43.33292146358492" lon="11.404582465776212"><ele>280.25</ele><time>2026-03-29T10:06:27.003Z</time></trkpt><trkpt lat="43.33278813010142" lon="11.404652469903507"><ele>280.5</ele><time>2026-03-29T10:06:28.003Z</time></trkpt><trkpt lat="43.3326592748996" lon="11.404727384869844"><ele>280.75</ele><time>2026-03-29T10:06:29.003Z</time></trkpt><trkpt lat="43.332535622709756" lon="11.40478797354464"><ele>281.0</ele><time>2026-03-29T10:06:30.003Z</time></trkpt><trkpt lat="43.33241598373032" lon="11.404852661531548"><ele>280.25</ele><time>2026-03-29T10:06:31.003Z</time></trkpt><trkpt lat="43.332287478620984" lon="11.404922143352385"><ele>279.5</ele><time>2026-03-29T10:06:32.003Z</time></trkpt><trkpt lat="43.3321617789996" lon="11.404989185759359"><ele>278.75</ele><time>2026-03-29T10:06:33.003Z</time></trkpt><trkpt lat="43.33204576783139" lon="11.405074115948779"><ele>278.0</ele><time>2026-03-29T10:06:34.003Z</time></trkpt><trkpt lat="43.331924384976595" lon="11.405107467325566"><ele>278.0</ele><time>2026-03-29T10:06:35.003Z</time></trkpt><trkpt lat="43.331815924793396" lon="11.405171132900305"><ele>278.0</ele><time>2026-03-29T10:06:36.003Z</time></trkpt><trkpt lat="43.331706243564106" lon="11.405219993940433"><ele>278.0</ele><time>2026-03-29T10:06:37.003Z</time></trkpt><trkpt lat="43.33157909954019" lon="11.405242115023992"><ele>278.0</ele><time>2026-03-29T10:06:38.003Z</time></trkpt><trkpt lat="43.331453823146965" lon="11.40527206914453"><ele>276.5</ele><time>2026-03-29T10:06:39.003Z</time></trkpt><trkpt lat="43.33133262713315" lon="11.40529302320172"><ele>275.0</ele><time>2026-03-29T10:06:40.003Z</time></trkpt><trkpt lat="43.33120157596706" lon="11.405318976471069"><ele>273.5</ele><time>2026-03-29T10:06:41.003Z</time></trkpt><trkpt lat="43.331065389690266" lon="11.405354402509436"><ele>272.0</ele><time>2026-03-29T10:06:42.003Z</time></trkpt><trkpt lat="43.3309345670584" lon="11.40539329453458"><ele>272.0</ele><time>2026-03-29T10:06:43.003Z</time></trkpt><trkpt lat="43.330805295559855" lon="11.405426959713205"><ele>272.0</ele><time>2026-03-29T10:06:44.003Z</time></trkpt><trkpt lat="43.33068507353329" lon="11.405465201894042"><ele>272.0</ele><time>2026-03-29T10:06:45.003Z</time></trkpt><trkpt lat="43.330557003572906" lon="11.40551251684693"><ele>272.0</ele><time>2026-03-29T10:06:46.003Z</time></trkpt><trkpt lat="43.33043399175962" lon="11.40555703889646"><ele>270.0</ele><time>2026-03-29T10:06:47.003Z</time></trkpt><trkpt lat="43.33030547881848" lon="11.40561690066909"><ele>268.0</ele><time>2026-03-29T10:06:48.003Z</time></trkpt><trkpt lat="43.33017455864223" lon="11.405685299627915"><ele>266.0</ele><time>2026-03-29T10:06:49.003Z</time></trkpt><trkpt lat="43.33003879055885" lon="11.405752271636254"><ele>264.0</ele><time>2026-03-29T10:06:50.003Z</time></trkpt><trkpt lat="43.329905614940444" lon="11.405834599611355"><ele>264.0</ele><time>2026-03-29T10:06:51.003Z</time></trkpt><trkpt lat="43.32977585955921" lon="11.405937258289455"><ele>264.0</ele><time>2026-03-29T10:06:52.003Z</time></trkpt><trkpt lat="43.329651371446545" lon="11.406041336577644"><ele>264.0</ele><time>2026-03-29T10:06:53.003Z</time></trkpt><trkpt lat="43.32953681465531" lon="11.40615186397066"><ele>264.0</ele><time>2026-03-29T10:06:54.003Z</time></trkpt><trkpt lat="43.329421844180125" lon="11.406266357328974"><ele>262.0</ele><time>2026-03-29T10:06:55.003Z</time></trkpt><trkpt lat="43.32930299100343" lon="11.406418569044147"><ele>260.0</ele><time>2026-03-29T10:06:56.003Z</time></trkpt><trkpt lat="43.32918041388266" lon="11.406576490885406"><ele>258.0</ele><time>2026-03-29T10:06:57.003Z</time></trkpt><trkpt lat="43.32904475587085" lon="11.40671223506569"><ele>258.0</ele><time>2026-03-29T10:06:58.003Z</time></trkpt><trkpt lat="43.32891591941207" lon="11.40686480327029"><ele>258.0</ele><time>2026-03-29T10:06:59.003Z</time></trkpt><trkpt lat="43.32879044867891" lon="11.407014714927367"><ele>258.0</ele><time>2026-03-29T10:07:00.003Z</time></trkpt><trkpt lat="43.32866813110949" lon="11.407160598895237"><ele>256.3333333333333</ele><time>2026-03-29T10:07:01.003Z</time></trkpt><trkpt lat="43.32855104194573" lon="11.407330302078657"><ele>254.66666666666666</ele><time>2026-03-29T10:07:02.003Z</time></trkpt><trkpt lat="43.32840068069732" lon="11.407479320917922"><ele>253.0</ele><time>2026-03-29T10:07:03.003Z</time></trkpt><trkpt lat="43.328259889060575" lon="11.407647103142915"><ele>253.0</ele><time>2026-03-29T10:07:04.003Z</time></trkpt><trkpt lat="43.32812839671626" lon="11.407804543279978"><ele>253.0</ele><time>2026-03-29T10:07:05.003Z</time></trkpt><trkpt lat="43.32800826786707" lon="11.40797596283533"><ele>253.0</ele><time>2026-03-29T10:07:06.003Z</time></trkpt><trkpt lat="43.32787463428762" lon="11.408109099820221"><ele>253.0</ele><time>2026-03-29T10:07:07.003Z</time></trkpt><trkpt lat="43.32774656788523" lon="11.408257387218317"><ele>253.0</ele><time>2026-03-29T10:07:08.003Z</time></trkpt><trkpt lat="43.32761630511641" lon="11.408404713651693"><ele>253.0</ele><time>2026-03-29T10:07:09.003Z</time></trkpt><trkpt lat="43.327494135112495" lon="11.408542919512884"><ele>253.0</ele><time>2026-03-29T10:07:10.003Z</time></trkpt><trkpt lat="43.32737732823849" lon="11.408675819333979"><ele>253.0</ele><time>2026-03-29T10:07:11.003Z</time></trkpt><trkpt lat="43.32726301881005" lon="11.408805877661848"><ele>253.0</ele><time>2026-03-29T10:07:12.003Z</time></trkpt><trkpt lat="43.32715349866759" lon="11.40893179137949"><ele>253.0</ele><time>2026-03-29T10:07:13.003Z</time></trkpt><trkpt lat="43.32705791717304" lon="11.409052291862146"><ele>251.25</ele><time>2026-03-29T10:07:14.003Z</time></trkpt><trkpt lat="43.32698791087747" lon="11.409192193772787"><ele>249.5</ele><time>2026-03-29T10:07:15.003Z</time></trkpt><trkpt lat="43.32690252133788" lon="11.409315839750487"><ele>247.75</ele><time>2026-03-29T10:07:16.003Z</time></trkpt><trkpt lat="43.32681610628645" lon="11.409452552719388"><ele>246.0</ele><time>2026-03-29T10:07:17.003Z</time></trkpt><trkpt lat="43.32673295119979" lon="11.409589599088342"><ele>245.25</ele><time>2026-03-29T10:07:18.003Z</time></trkpt><trkpt lat="43.32662880987403" lon="11.409698660051633"><ele>244.5</ele><time>2026-03-29T10:07:19.003Z</time></trkpt><trkpt lat="43.326519090869134" lon="11.409812311444977"><ele>243.75</ele><time>2026-03-29T10:07:20.003Z</time></trkpt><trkpt lat="43.32641888978645" lon="11.409919335547103"><ele>243.0</ele><time>2026-03-29T10:07:21.003Z</time></trkpt><trkpt lat="43.32632463617348" lon="11.410023698317506"><ele>243.0</ele><time>2026-03-29T10:07:22.003Z</time></trkpt><trkpt lat="43.32623452073439" lon="11.410125118522767"><ele>243.0</ele><time>2026-03-29T10:07:23.003Z</time></trkpt><trkpt lat="43.32615565547919" lon="11.410215749836322"><ele>243.0</ele><time>2026-03-29T10:07:24.003Z</time></trkpt><trkpt lat="43.326090685226355" lon="11.410291355432582"><ele>243.0</ele><time>2026-03-29T10:07:25.003Z</time></trkpt><trkpt lat="43.32599627980463" lon="11.410348052305146"><ele>243.0</ele><time>2026-03-29T10:07:27.003Z</time></trkpt><trkpt lat="43.32591637679516" lon="11.41018564051697"><ele>243.0</ele><time>2026-03-29T10:07:29.003Z</time></trkpt><trkpt lat="43.32585902657315" lon="11.41006688492693"><ele>243.0</ele><time>2026-03-29T10:07:30.003Z</time></trkpt><trkpt lat="43.32582060218034" lon="11.40989770645217"><ele>243.0</ele><time>2026-03-29T10:07:31.003Z</time></trkpt><trkpt lat="43.325801505786195" lon="11.409697853700024"><ele>243.0</ele><time>2026-03-29T10:07:32.003Z</time></trkpt><trkpt lat="43.32583468415735" lon="11.409466869035198"><ele>240.33333333333331</ele><time>2026-03-29T10:07:33.003Z</time></trkpt><trkpt lat="43.32585135196405" lon="11.409178860299884"><ele>237.66666666666666</ele><time>2026-03-29T10:07:34.003Z</time></trkpt><trkpt lat="43.32582875958866" lon="11.408873679339267"><ele>235.0</ele><time>2026-03-29T10:07:35.003Z</time></trkpt><trkpt lat="43.32578952730866" lon="11.408518779919108"><ele>233.0</ele><time>2026-03-29T10:07:36.003Z</time></trkpt><trkpt lat="43.32574009132846" lon="11.40818094650588"><ele>231.0</ele><time>2026-03-29T10:07:37.003Z</time></trkpt><trkpt lat="43.32570420813273" lon="11.4078567284631"><ele>229.66666666666669</ele><time>2026-03-29T10:07:38.003Z</time></trkpt><trkpt lat="43.32567594390006" lon="11.407547630985182"><ele>228.33333333333334</ele><time>2026-03-29T10:07:39.003Z</time></trkpt><trkpt lat="43.32564277826965" lon="11.407252478614033"><ele>227.0</ele><time>2026-03-29T10:07:40.003Z</time></trkpt><trkpt lat="43.32560256596967" lon="11.406962530973901"><ele>225.66666666666669</ele><time>2026-03-29T10:07:41.003Z</time></trkpt><trkpt lat="43.32554749454428" lon="11.406689631987595"><ele>224.33333333333331</ele><time>2026-03-29T10:07:42.003Z</time></trkpt><trkpt lat="43.32545386669012" lon="11.406431160933865"><ele>223.0</ele><time>2026-03-29T10:07:43.003Z</time></trkpt><trkpt lat="43.32533641750744" lon="11.406186849839354"><ele>221.0</ele><time>2026-03-29T10:07:44.003Z</time></trkpt><trkpt lat="43.32522599157741" lon="11.405953051809721"><ele>219.0</ele><time>2026-03-29T10:07:45.003Z</time></trkpt><trkpt lat="43.32512623095329" lon="11.405724971870471"><ele>217.0</ele><time>2026-03-29T10:07:46.003Z</time></trkpt><trkpt lat="43.32505571873271" lon="11.40548331184757"><ele>216.33333333333331</ele><time>2026-03-29T10:07:47.003Z</time></trkpt><trkpt lat="43.325005377679766" lon="11.405253585251796"><ele>215.66666666666669</ele><time>2026-03-29T10:07:48.003Z</time></trkpt><trkpt lat="43.32497264376098" lon="11.405008816396228"><ele>215.0</ele><time>2026-03-29T10:07:49.003Z</time></trkpt><trkpt lat="43.32495844797986" lon="11.404733135283118"><ele>214.66666666666669</ele><time>2026-03-29T10:07:50.003Z</time></trkpt><trkpt lat="43.324956805371016" lon="11.404467505751239"><ele>214.33333333333331</ele><time>2026-03-29T10:07:51.003Z</time></trkpt><trkpt lat="43.324952477130694" lon="11.40421966823864"><ele>214.0</ele><time>2026-03-29T10:07:52.003Z</time></trkpt><trkpt lat="43.32495109043039" lon="11.40398873809029"><ele>213.33333333333331</ele><time>2026-03-29T10:07:53.003Z</time></trkpt><trkpt lat="43.32494978176718" lon="11.403766713067526"><ele>212.66666666666669</ele><time>2026-03-29T10:07:54.003Z</time></trkpt><trkpt lat="43.32495547338559" lon="11.403531595600585"><ele>212.0</ele><time>2026-03-29T10:07:55.003Z</time></trkpt><trkpt lat="43.32497211303808" lon="11.403286747519713"><ele>212.0</ele><time>2026-03-29T10:07:56.003Z</time></trkpt><trkpt lat="43.32499717873719" lon="11.403029827916043"><ele>212.0</ele><time>2026-03-29T10:07:57.003Z</time></trkpt><trkpt lat="43.3250221466416" lon="11.402766333458727"><ele>212.0</ele><time>2026-03-29T10:07:58.003Z</time></trkpt><trkpt lat="43.325046734485845" lon="11.402501904278116"><ele>213.33333333333334</ele><time>2026-03-29T10:07:59.003Z</time></trkpt><trkpt lat="43.32507139742726" lon="11.402237610841844"><ele>214.66666666666669</ele><time>2026-03-29T10:08:00.003Z</time></trkpt><trkpt lat="43.325092184487204" lon="11.401972381952083"><ele>216.0</ele><time>2026-03-29T10:08:01.003Z</time></trkpt><trkpt lat="43.325096905597825" lon="11.401716105031285"><ele>219.33333333333331</ele><time>2026-03-29T10:08:02.003Z</time></trkpt><trkpt lat="43.32509408907707" lon="11.401467190863151"><ele>222.66666666666666</ele><time>2026-03-29T10:08:03.003Z</time></trkpt><trkpt lat="43.32508514965791" lon="11.40121942567649"><ele>226.0</ele><time>2026-03-29T10:08:04.003Z</time></trkpt><trkpt lat="43.32507884234851" lon="11.400988638108169"><ele>227.66666666666666</ele><time>2026-03-29T10:08:05.003Z</time></trkpt><trkpt lat="43.325079437645954" lon="11.400783658586198"><ele>229.33333333333331</ele><time>2026-03-29T10:08:06.003Z</time></trkpt><trkpt lat="43.32509556897295" lon="11.400577686987534"><ele>231.0</ele><time>2026-03-29T10:08:07.003Z</time></trkpt><trkpt lat="43.3251261815683" lon="11.400364146901689"><ele>232.66666666666669</ele><time>2026-03-29T10:08:08.002Z</time></trkpt><trkpt lat="43.3251614578689" lon="11.40014344596629"><ele>234.33333333333334</ele><time>2026-03-29T10:08:09.002Z</time></trkpt><trkpt lat="43.32517913181042" lon="11.399915630433723"><ele>236.0</ele><time>2026-03-29T10:08:10.002Z</time></trkpt><trkpt lat="43.32516912681963" lon="11.39967585188646"><ele>237.66666666666669</ele><time>2026-03-29T10:08:11.002Z</time></trkpt><trkpt lat="43.32514460986708" lon="11.399429592483932"><ele>239.33333333333331</ele><time>2026-03-29T10:08:12.002Z</time></trkpt><trkpt lat="43.325121974028995" lon="11.399181630608863"><ele>241.0</ele><time>2026-03-29T10:08:13.002Z</time></trkpt><trkpt lat="43.32510650248425" lon="11.398926048827008"><ele>243.0</ele><time>2026-03-29T10:08:14.002Z</time></trkpt><trkpt lat="43.32509394942632" lon="11.398676123520488"><ele>245.0</ele><time>2026-03-29T10:08:15.002Z</time></trkpt><trkpt lat="43.32508206069491" lon="11.398441669112357"><ele>247.0</ele><time>2026-03-29T10:08:16.002Z</time></trkpt><trkpt lat="43.325084198376985" lon="11.39821227103788"><ele>247.0</ele><time>2026-03-29T10:08:17.002Z</time></trkpt><trkpt lat="43.32507651500721" lon="11.398007613272975"><ele>247.0</ele><time>2026-03-29T10:08:18.002Z</time></trkpt><trkpt lat="43.32508056827601" lon="11.397817577077323"><ele>247.0</ele><time>2026-03-29T10:08:19.002Z</time></trkpt><trkpt lat="43.3251426953116" lon="11.397658432152438"><ele>247.0</ele><time>2026-03-29T10:08:20.002Z</time></trkpt><trkpt lat="43.32520763832329" lon="11.397487665651274"><ele>247.0</ele><time>2026-03-29T10:08:21.002Z</time></trkpt><trkpt lat="43.32528229200861" lon="11.397289226598307"><ele>247.0</ele><time>2026-03-29T10:08:22.002Z</time></trkpt><trkpt lat="43.32535038541976" lon="11.397038899672228"><ele>247.0</ele><time>2026-03-29T10:08:23.002Z</time></trkpt><trkpt lat="43.325419121728416" lon="11.396796907880105"><ele>247.0</ele><time>2026-03-29T10:08:24.002Z</time></trkpt><trkpt lat="43.32549799956971" lon="11.396563465315852"><ele>247.0</ele><time>2026-03-29T10:08:25.002Z</time></trkpt><trkpt lat="43.3255644315931" lon="11.396352130810197"><ele>247.0</ele><time>2026-03-29T10:08:26.002Z</time></trkpt><trkpt lat="43.32562551318715" lon="11.396147141422933"><ele>248.0</ele><time>2026-03-29T10:08:27.002Z</time></trkpt><trkpt lat="43.32567858051854" lon="11.39594476106033"><ele>249.0</ele><time>2026-03-29T10:08:28.002Z</time></trkpt><trkpt lat="43.32571014348062" lon="11.395716687793655"><ele>250.0</ele><time>2026-03-29T10:08:29.002Z</time></trkpt><trkpt lat="43.32571022642521" lon="11.395454397505755"><ele>250.66666666666666</ele><time>2026-03-29T10:08:30.002Z</time></trkpt><trkpt lat="43.32570254777086" lon="11.395200284459468"><ele>251.33333333333331</ele><time>2026-03-29T10:08:31.002Z</time></trkpt><trkpt lat="43.325683670858496" lon="11.394959835647784"><ele>252.0</ele><time>2026-03-29T10:08:32.002Z</time></trkpt><trkpt lat="43.325695806664406" lon="11.394720666368508"><ele>253.0</ele><time>2026-03-29T10:08:33.002Z</time></trkpt><trkpt lat="43.32566163248513" lon="11.394462948601133"><ele>254.0</ele><time>2026-03-29T10:08:34.002Z</time></trkpt><trkpt lat="43.325596043056194" lon="11.394207818151257"><ele>255.0</ele><time>2026-03-29T10:08:35.002Z</time></trkpt><trkpt lat="43.325504392316205" lon="11.393960338213871"><ele>256.6666666666667</ele><time>2026-03-29T10:08:36.002Z</time></trkpt><trkpt lat="43.32543179712671" lon="11.393701314668785"><ele>258.33333333333337</ele><time>2026-03-29T10:08:37.002Z</time></trkpt><trkpt lat="43.32535635824211" lon="11.39344391405746"><ele>260.0</ele><time>2026-03-29T10:08:38.002Z</time></trkpt><trkpt lat="43.32527741206937" lon="11.39320954759805"><ele>261.0</ele><time>2026-03-29T10:08:39.002Z</time></trkpt><trkpt lat="43.325209951828214" lon="11.392995017333265"><ele>262.0</ele><time>2026-03-29T10:08:40.002Z</time></trkpt><trkpt lat="43.32515291826324" lon="11.392816739197576"><ele>263.0</ele><time>2026-03-29T10:08:41.002Z</time></trkpt><trkpt lat="43.32510024643424" lon="11.392664004009793"><ele>264.0</ele><time>2026-03-29T10:08:42.002Z</time></trkpt><trkpt lat="43.325056845472425" lon="11.39255277429726"><ele>264.0</ele><time>2026-03-29T10:08:43.002Z</time></trkpt><trkpt lat="43.32496596213098" lon="11.392491066403528"><ele>264.0</ele><time>2026-03-29T10:08:44.002Z</time></trkpt><trkpt lat="43.324841541304565" lon="11.392516765443588"><ele>264.0</ele><time>2026-03-29T10:08:45.002Z</time></trkpt><trkpt lat="43.32470401306281" lon="11.39255239025386"><ele>264.0</ele><time>2026-03-29T10:08:46.002Z</time></trkpt><trkpt lat="43.32456208428556" lon="11.392549397867588"><ele>264.25</ele><time>2026-03-29T10:08:47.002Z</time></trkpt><trkpt lat="43.324439068283496" lon="11.392549075190182"><ele>264.5</ele><time>2026-03-29T10:08:48.002Z</time></trkpt><trkpt lat="43.324321460293284" lon="11.392460638190915"><ele>264.75</ele><time>2026-03-29T10:08:49.002Z</time></trkpt><trkpt lat="43.32419397772908" lon="11.392423685296427"><ele>265.0</ele><time>2026-03-29T10:08:50.002Z</time></trkpt><trkpt lat="43.3240772267222" lon="11.392371875468122"><ele>265.0</ele><time>2026-03-29T10:08:51.002Z</time></trkpt><trkpt lat="43.32395817202755" lon="11.39233320076709"><ele>265.0</ele><time>2026-03-29T10:08:52.002Z</time></trkpt><trkpt lat="43.32384168719438" lon="11.392301014084934"><ele>265.0</ele><time>2026-03-29T10:08:53.002Z</time></trkpt><trkpt lat="43.32372914928221" lon="11.392267941817057"><ele>265.0</ele><time>2026-03-29T10:08:54.002Z</time></trkpt><trkpt lat="43.32362547721267" lon="11.392231614442927"><ele>264.8</ele><time>2026-03-29T10:08:55.002Z</time></trkpt><trkpt lat="43.32352899799945" lon="11.392202481755369"><ele>264.6</ele><time>2026-03-29T10:08:56.002Z</time></trkpt><trkpt lat="43.32343792863458" lon="11.392186872473633"><ele>264.4</ele><time>2026-03-29T10:08:57.002Z</time></trkpt><trkpt lat="43.323346096200034" lon="11.392169670421708"><ele>264.2</ele><time>2026-03-29T10:08:58.002Z</time></trkpt><trkpt lat="43.323251842112924" lon="11.392152828408491"><ele>264.0</ele><time>2026-03-29T10:08:59.002Z</time></trkpt><trkpt lat="43.323153703606366" lon="11.392110666512291"><ele>262.59999999999997</ele><time>2026-03-29T10:09:00.002Z</time></trkpt><trkpt lat="43.323050736040074" lon="11.392083613034044"><ele>261.2</ele><time>2026-03-29T10:09:01.002Z</time></trkpt><trkpt lat="43.3229507530164" lon="11.392053994539372"><ele>259.79999999999995</ele><time>2026-03-29T10:09:02.002Z</time></trkpt><trkpt lat="43.32286351356745" lon="11.392019630697835"><ele>258.4</ele><time>2026-03-29T10:09:03.002Z</time></trkpt><trkpt lat="43.322777496232646" lon="11.391987528876216"><ele>257.0</ele><time>2026-03-29T10:09:04.002Z</time></trkpt><trkpt lat="43.3227013607442" lon="11.391952422201435"><ele>257.0</ele><time>2026-03-29T10:09:05.002Z</time></trkpt><trkpt lat="43.3226172140885" lon="11.39194503184813"><ele>257.0</ele><time>2026-03-29T10:09:06.002Z</time></trkpt><trkpt lat="43.32255024194735" lon="11.391925019667983"><ele>257.0</ele><time>2026-03-29T10:09:07.002Z</time></trkpt><trkpt lat="43.32246935177926" lon="11.391900848597825"><ele>257.0</ele><time>2026-03-29T10:09:08.002Z</time></trkpt><trkpt lat="43.322367271313695" lon="11.391872291114874"><ele>257.0</ele><time>2026-03-29T10:09:09.002Z</time></trkpt><trkpt lat="43.32224230190976" lon="11.391842304793146"><ele>255.66666666666669</ele><time>2026-03-29T10:09:10.002Z</time></trkpt><trkpt lat="43.322077754723274" lon="11.391802023698249"><ele>254.33333333333331</ele><time>2026-03-29T10:09:11.002Z</time></trkpt><trkpt lat="43.32193125897385" lon="11.391755969413545"><ele>253.0</ele><time>2026-03-29T10:09:12.002Z</time></trkpt><trkpt lat="43.3217953160957" lon="11.391714511473609"><ele>253.0</ele><time>2026-03-29T10:09:13.002Z</time></trkpt><trkpt lat="43.32160637186615" lon="11.391650971387746"><ele>253.0</ele><time>2026-03-29T10:09:14.002Z</time></trkpt><trkpt lat="43.321426637419925" lon="11.391543539830241"><ele>253.0</ele><time>2026-03-29T10:09:15.002Z</time></trkpt><trkpt lat="43.32127123978933" lon="11.39143219917504"><ele>251.0</ele><time>2026-03-29T10:09:16.002Z</time></trkpt><trkpt lat="43.321108838135274" lon="11.391315275977153"><ele>249.0</ele><time>2026-03-29T10:09:17.002Z</time></trkpt><trkpt lat="43.32094673942595" lon="11.39120394195019"><ele>247.0</ele><time>2026-03-29T10:09:18.002Z</time></trkpt><trkpt lat="43.320792465305125" lon="11.39109892035992"><ele>247.0</ele><time>2026-03-29T10:09:19.002Z</time></trkpt><trkpt lat="43.32064568289628" lon="11.391007606214401"><ele>247.0</ele><time>2026-03-29T10:09:20.002Z</time></trkpt><trkpt lat="43.320514584580835" lon="11.390945104586944"><ele>247.0</ele><time>2026-03-29T10:09:21.002Z</time></trkpt><trkpt lat="43.32038558257726" lon="11.390916730005806"><ele>247.0</ele><time>2026-03-29T10:09:22.002Z</time></trkpt><trkpt lat="43.32027733893108" lon="11.390898093426133"><ele>247.0</ele><time>2026-03-29T10:09:23.002Z</time></trkpt><trkpt lat="43.32018151525979" lon="11.390861314318443"><ele>247.0</ele><time>2026-03-29T10:09:24.002Z</time></trkpt><trkpt lat="43.32012237746705" lon="11.390743185354582"><ele>247.0</ele><time>2026-03-29T10:09:25.002Z</time></trkpt><trkpt lat="43.32008866824942" lon="11.390619005091839"><ele>247.0</ele><time>2026-03-29T10:09:26.002Z</time></trkpt><trkpt lat="43.32006565320535" lon="11.390476391773712"><ele>247.0</ele><time>2026-03-29T10:09:27.002Z</time></trkpt><trkpt lat="43.32003915719795" lon="11.390305387185695"><ele>247.0</ele><time>2026-03-29T10:09:28.002Z</time></trkpt><trkpt lat="43.320003960262824" lon="11.390092266371218"><ele>247.0</ele><time>2026-03-29T10:09:29.002Z</time></trkpt><trkpt lat="43.3199605169291" lon="11.389864582269679"><ele>247.0</ele><time>2026-03-29T10:09:30.002Z</time></trkpt><trkpt lat="43.319906632689154" lon="11.389644917445578"><ele>245.66666666666666</ele><time>2026-03-29T10:09:31.003Z</time></trkpt><trkpt lat="43.3198442113688" lon="11.389446447644225"><ele>244.33333333333331</ele><time>2026-03-29T10:09:32.003Z</time></trkpt><trkpt lat="43.31978026918098" lon="11.389231935201725"><ele>243.0</ele><time>2026-03-29T10:09:33.003Z</time></trkpt><trkpt lat="43.319738009146675" lon="11.389051717468881"><ele>240.75</ele><time>2026-03-29T10:09:34.003Z</time></trkpt><trkpt lat="43.31969331508609" lon="11.388849047822672"><ele>238.5</ele><time>2026-03-29T10:09:35.004Z</time></trkpt><trkpt lat="43.319648231986584" lon="11.38865910816862"><ele>236.25</ele><time>2026-03-29T10:09:36.004Z</time></trkpt><trkpt lat="43.319605901796386" lon="11.38847147682894"><ele>234.0</ele><time>2026-03-29T10:09:37.003Z</time></trkpt><trkpt lat="43.31956907887325" lon="11.388280690702622"><ele>232.75</ele><time>2026-03-29T10:09:38.003Z</time></trkpt><trkpt lat="43.31953714118871" lon="11.388100944889889"><ele>231.5</ele><time>2026-03-29T10:09:39.003Z</time></trkpt><trkpt lat="43.31950894492419" lon="11.387932193337434"><ele>230.25</ele><time>2026-03-29T10:09:40.003Z</time></trkpt><trkpt lat="43.31948091752984" lon="11.38775623745999"><ele>229.0</ele><time>2026-03-29T10:09:41.003Z</time></trkpt><trkpt lat="43.31944060961816" lon="11.387597697856135"><ele>229.0</ele><time>2026-03-29T10:09:42.003Z</time></trkpt><trkpt lat="43.31937216949289" lon="11.387464638589032"><ele>229.0</ele><time>2026-03-29T10:09:43.003Z</time></trkpt><trkpt lat="43.319254929216925" lon="11.387401188564017"><ele>229.0</ele><time>2026-03-29T10:09:44.003Z</time></trkpt><trkpt lat="43.31914443991758" lon="11.387347778558674"><ele>229.0</ele><time>2026-03-29T10:09:45.003Z</time></trkpt><trkpt lat="43.31906872025465" lon="11.387261074694015"><ele>228.5</ele><time>2026-03-29T10:09:46.003Z</time></trkpt><trkpt lat="43.319016923987725" lon="11.387152278009376"><ele>228.0</ele><time>2026-03-29T10:09:47.003Z</time></trkpt><trkpt lat="43.319026324406195" lon="11.386991903295673"><ele>227.5</ele><time>2026-03-29T10:09:48.003Z</time></trkpt><trkpt lat="43.319071233573545" lon="11.38682216688598"><ele>227.0</ele><time>2026-03-29T10:09:49.003Z</time></trkpt><trkpt lat="43.3191209831984" lon="11.386678372210726"><ele>227.0</ele><time>2026-03-29T10:09:50.003Z</time></trkpt><trkpt lat="43.31917984298627" lon="11.386552172924903"><ele>227.0</ele><time>2026-03-29T10:09:51.003Z</time></trkpt><trkpt lat="43.31927079212826" lon="11.386484222143485"><ele>227.0</ele><time>2026-03-29T10:09:52.003Z</time></trkpt><trkpt lat="43.31937170624199" lon="11.386413511098642"><ele>227.0</ele><time>2026-03-29T10:09:53.003Z</time></trkpt><trkpt lat="43.31949723808819" lon="11.3863401328654"><ele>226.0</ele><time>2026-03-29T10:09:54.003Z</time></trkpt><trkpt lat="43.31962320718201" lon="11.386268169952327"><ele>225.0</ele><time>2026-03-29T10:09:55.003Z</time></trkpt><trkpt lat="43.31974098561536" lon="11.386199270892194"><ele>224.0</ele><time>2026-03-29T10:09:56.003Z</time></trkpt><trkpt lat="43.31985196749945" lon="11.386127423835328"><ele>223.0</ele><time>2026-03-29T10:09:57.003Z</time></trkpt><trkpt lat="43.31993766440512" lon="11.386016087219248"><ele>222.75</ele><time>2026-03-29T10:09:58.003Z</time></trkpt><trkpt lat="43.32002011746485" lon="11.385908423590253"><ele>222.5</ele><time>2026-03-29T10:09:59.003Z</time></trkpt><trkpt lat="43.32007877710914" lon="11.385780799788622"><ele>222.25</ele><time>2026-03-29T10:10:00.003Z</time></trkpt><trkpt lat="43.320108944524726" lon="11.38563461924335"><ele>222.0</ele><time>2026-03-29T10:10:01.003Z</time></trkpt><trkpt lat="43.32010737329249" lon="11.385464213353183"><ele>220.75</ele><time>2026-03-29T10:10:02.003Z</time></trkpt><trkpt lat="43.320114730868454" lon="11.38528122544173"><ele>219.5</ele><time>2026-03-29T10:10:03.003Z</time></trkpt><trkpt lat="43.320126388219386" lon="11.385115787581256"><ele>218.25</ele><time>2026-03-29T10:10:04.003Z</time></trkpt><trkpt lat="43.32016126463626" lon="11.384979601231496"><ele>217.0</ele><time>2026-03-29T10:10:05.003Z</time></trkpt><trkpt lat="43.32021562474022" lon="11.384852316509681"><ele>217.0</ele><time>2026-03-29T10:10:06.003Z</time></trkpt><trkpt lat="43.32028412456418" lon="11.384748391248458"><ele>217.0</ele><time>2026-03-29T10:10:07.003Z</time></trkpt><trkpt lat="43.32036464224807" lon="11.384645702496702"><ele>217.0</ele><time>2026-03-29T10:10:08.003Z</time></trkpt><trkpt lat="43.32043821212455" lon="11.384562027414228"><ele>217.0</ele><time>2026-03-29T10:10:09.003Z</time></trkpt><trkpt lat="43.320544727844315" lon="11.3844383394465"><ele>217.0</ele><time>2026-03-29T10:10:10.003Z</time></trkpt><trkpt lat="43.320731922810126" lon="11.384197889593953"><ele>215.25</ele><time>2026-03-29T10:10:11.003Z</time></trkpt><trkpt lat="43.32076603439681" lon="11.384038861938462"><ele>213.5</ele><time>2026-03-29T10:10:12.003Z</time></trkpt><trkpt lat="43.3207723876624" lon="11.383856989866771"><ele>211.75</ele><time>2026-03-29T10:10:13.003Z</time></trkpt><trkpt lat="43.32074686028048" lon="11.383692599563842"><ele>210.0</ele><time>2026-03-29T10:10:14.003Z</time></trkpt><trkpt lat="43.32070568619555" lon="11.383550574790638"><ele>208.0</ele><time>2026-03-29T10:10:15.003Z</time></trkpt><trkpt lat="43.320668528668214" lon="11.38340108016387"><ele>206.0</ele><time>2026-03-29T10:10:16.003Z</time></trkpt><trkpt lat="43.32062771895821" lon="11.38321828328481"><ele>204.0</ele><time>2026-03-29T10:10:17.003Z</time></trkpt><trkpt lat="43.32060203978566" lon="11.383006406007672"><ele>202.0</ele><time>2026-03-29T10:10:18.003Z</time></trkpt><trkpt lat="43.320579428411584" lon="11.382760828459435"><ele>201.0</ele><time>2026-03-29T10:10:19.003Z</time></trkpt><trkpt lat="43.32054993193325" lon="11.382502447276455"><ele>200.0</ele><time>2026-03-29T10:10:20.003Z</time></trkpt><trkpt lat="43.32051430739287" lon="11.382259081652915"><ele>199.0</ele><time>2026-03-29T10:10:21.003Z</time></trkpt><trkpt lat="43.320478414340194" lon="11.38202554857293"><ele>198.66666666666666</ele><time>2026-03-29T10:10:22.003Z</time></trkpt><trkpt lat="43.32044061622608" lon="11.381794795420879"><ele>198.33333333333331</ele><time>2026-03-29T10:10:23.003Z</time></trkpt><trkpt lat="43.32040232334132" lon="11.381569272270454"><ele>198.0</ele><time>2026-03-29T10:10:24.003Z</time></trkpt><trkpt lat="43.320366699471805" lon="11.381349960142705"><ele>197.66666666666669</ele><time>2026-03-29T10:10:25.003Z</time></trkpt><trkpt lat="43.32033322722028" lon="11.381134800146063"><ele>197.33333333333334</ele><time>2026-03-29T10:10:26.003Z</time></trkpt><trkpt lat="43.320314743077944" lon="11.38092242385659"><ele>197.0</ele><time>2026-03-29T10:10:27.003Z</time></trkpt><trkpt lat="43.32033175137882" lon="11.380709618199045"><ele>197.0</ele><time>2026-03-29T10:10:28.003Z</time></trkpt><trkpt lat="43.3203604891699" lon="11.380499295410653"><ele>197.0</ele><time>2026-03-29T10:10:29.003Z</time></trkpt><trkpt lat="43.3203906054285" lon="11.380292851846214"><ele>197.0</ele><time>2026-03-29T10:10:30.003Z</time></trkpt><trkpt lat="43.32041871127281" lon="11.380089078091913"><ele>197.0</ele><time>2026-03-29T10:10:31.003Z</time></trkpt><trkpt lat="43.320445405124524" lon="11.379886661852986"><ele>197.0</ele><time>2026-03-29T10:10:32.003Z</time></trkpt><trkpt lat="43.32047232381905" lon="11.3796751882236"><ele>197.0</ele><time>2026-03-29T10:10:33.003Z</time></trkpt><trkpt lat="43.320501882926145" lon="11.379442982620493"><ele>198.0</ele><time>2026-03-29T10:10:34.003Z</time></trkpt><trkpt lat="43.320531282524215" lon="11.379214050339673"><ele>199.0</ele><time>2026-03-29T10:10:35.003Z</time></trkpt><trkpt lat="43.32056152713334" lon="11.378978541427841"><ele>200.0</ele><time>2026-03-29T10:10:36.003Z</time></trkpt><trkpt lat="43.32058976935581" lon="11.37873152370426"><ele>202.0</ele><time>2026-03-29T10:10:37.003Z</time></trkpt><trkpt lat="43.320596451308305" lon="11.37847582042641"><ele>204.0</ele><time>2026-03-29T10:10:38.003Z</time></trkpt><trkpt lat="43.32058530220942" lon="11.37822705535701"><ele>206.0</ele><time>2026-03-29T10:10:39.003Z</time></trkpt><trkpt lat="43.32056302733984" lon="11.378014505711912"><ele>208.0</ele><time>2026-03-29T10:10:40.003Z</time></trkpt><trkpt lat="43.320541869959065" lon="11.377825321938543"><ele>210.0</ele><time>2026-03-29T10:10:41.003Z</time></trkpt><trkpt lat="43.320516817695996" lon="11.377607164927454"><ele>212.0</ele><time>2026-03-29T10:10:42.003Z</time></trkpt><trkpt lat="43.32049483681269" lon="11.377442284606296"><ele>214.0</ele><time>2026-03-29T10:10:43.003Z</time></trkpt><trkpt lat="43.32047008185879" lon="11.377277875671009"><ele>216.5</ele><time>2026-03-29T10:10:44.003Z</time></trkpt><trkpt lat="43.32044720914091" lon="11.37708297484154"><ele>219.0</ele><time>2026-03-29T10:10:45.003Z</time></trkpt><trkpt lat="43.320434278404" lon="11.376885291640122"><ele>221.5</ele><time>2026-03-29T10:10:46.003Z</time></trkpt><trkpt lat="43.320436107769986" lon="11.376686648374648"><ele>224.0</ele><time>2026-03-29T10:10:47.003Z</time></trkpt><trkpt lat="43.320450955936785" lon="11.376467680786783"><ele>223.0</ele><time>2026-03-29T10:10:48.003Z</time></trkpt><trkpt lat="43.320469559912056" lon="11.37625223929017"><ele>222.0</ele><time>2026-03-29T10:10:49.003Z</time></trkpt><trkpt lat="43.32050478431673" lon="11.376040687308267"><ele>221.0</ele><time>2026-03-29T10:10:50.003Z</time></trkpt><trkpt lat="43.32051151452662" lon="11.375845329329325"><ele>221.0</ele><time>2026-03-29T10:10:51.003Z</time></trkpt><trkpt lat="43.32050745529812" lon="11.375682066416148"><ele>221.0</ele><time>2026-03-29T10:10:52.003Z</time></trkpt><trkpt lat="43.3205076132758" lon="11.37553362778398"><ele>221.0</ele><time>2026-03-29T10:10:53.003Z</time></trkpt><trkpt lat="43.320454851884584" lon="11.375383270788154"><ele>221.0</ele><time>2026-03-29T10:10:54.003Z</time></trkpt><trkpt lat="43.32035048582661" lon="11.375275679663194"><ele>221.0</ele><time>2026-03-29T10:10:55.003Z</time></trkpt><trkpt lat="43.32027904603789" lon="11.375168290451759"><ele>221.00000000000003</ele><time>2026-03-29T10:10:56.003Z</time></trkpt><trkpt lat="43.32023565487546" lon="11.375043436395098"><ele>221.00000000000003</ele><time>2026-03-29T10:10:57.003Z</time></trkpt><trkpt lat="43.32024670437159" lon="11.374892167120542"><ele>221.0</ele><time>2026-03-29T10:10:58.003Z</time></trkpt><trkpt lat="43.3202919873966" lon="11.374751471836628"><ele>221.0</ele><time>2026-03-29T10:10:59.003Z</time></trkpt><trkpt lat="43.320301240217695" lon="11.37454849166355"><ele>221.0</ele><time>2026-03-29T10:11:00.003Z</time></trkpt><trkpt lat="43.32034075821157" lon="11.374370955849233"><ele>221.0</ele><time>2026-03-29T10:11:01.003Z</time></trkpt><trkpt lat="43.32039495223712" lon="11.374182695995568"><ele>221.0</ele><time>2026-03-29T10:11:02.003Z</time></trkpt><trkpt lat="43.3204515021866" lon="11.373988359159146"><ele>221.0</ele><time>2026-03-29T10:11:03.003Z</time></trkpt><trkpt lat="43.320513817518425" lon="11.37379502905763"><ele>223.66666666666669</ele><time>2026-03-29T10:11:04.003Z</time></trkpt><trkpt lat="43.320588171889625" lon="11.373595673122422"><ele>226.33333333333331</ele><time>2026-03-29T10:11:05.003Z</time></trkpt><trkpt lat="43.32067725240178" lon="11.373399216338354"><ele>229.0</ele><time>2026-03-29T10:11:06.003Z</time></trkpt><trkpt lat="43.32076810729945" lon="11.373202919531296"><ele>229.0</ele><time>2026-03-29T10:11:07.003Z</time></trkpt><trkpt lat="43.3208596305186" lon="11.373022513968152"><ele>229.0</ele><time>2026-03-29T10:11:08.003Z</time></trkpt><trkpt lat="43.320940270021" lon="11.372869332004214"><ele>229.0</ele><time>2026-03-29T10:11:09.003Z</time></trkpt><trkpt lat="43.32100112005494" lon="11.372707097516049"><ele>229.0</ele><time>2026-03-29T10:11:10.003Z</time></trkpt><trkpt lat="43.321038320542485" lon="11.37251309034353"><ele>231.25</ele><time>2026-03-29T10:11:11.003Z</time></trkpt><trkpt lat="43.321068343804086" lon="11.372309817188182"><ele>233.5</ele><time>2026-03-29T10:11:12.003Z</time></trkpt><trkpt lat="43.321098647174786" lon="11.372113929781024"><ele>235.75</ele><time>2026-03-29T10:11:13.003Z</time></trkpt><trkpt lat="43.32112531703933" lon="11.371926979511688"><ele>238.0</ele><time>2026-03-29T10:11:14.003Z</time></trkpt><trkpt lat="43.321149540455686" lon="11.371725611229518"><ele>241.0</ele><time>2026-03-29T10:11:15.003Z</time></trkpt><trkpt lat="43.321174513377116" lon="11.371512069271999"><ele>244.0</ele><time>2026-03-29T10:11:16.003Z</time></trkpt><trkpt lat="43.321201962279815" lon="11.371284221740643"><ele>247.0</ele><time>2026-03-29T10:11:17.003Z</time></trkpt><trkpt lat="43.321242210436054" lon="11.371057838863969"><ele>248.66666666666666</ele><time>2026-03-29T10:11:18.003Z</time></trkpt><trkpt lat="43.3212983327683" lon="11.370848281991165"><ele>250.33333333333331</ele><time>2026-03-29T10:11:19.003Z</time></trkpt><trkpt lat="43.32137469809805" lon="11.37065241657257"><ele>252.0</ele><time>2026-03-29T10:11:20.003Z</time></trkpt><trkpt lat="43.32143972452131" lon="11.37044434199428"><ele>252.0</ele><time>2026-03-29T10:11:21.003Z</time></trkpt><trkpt lat="43.32153039408135" lon="11.37026632324153"><ele>252.0</ele><time>2026-03-29T10:11:22.003Z</time></trkpt><trkpt lat="43.32160387351008" lon="11.370073659085937"><ele>252.0</ele><time>2026-03-29T10:11:23.003Z</time></trkpt><trkpt lat="43.32168520477158" lon="11.36988174256033"><ele>252.0</ele><time>2026-03-29T10:11:24.003Z</time></trkpt><trkpt lat="43.32175201318056" lon="11.369725579592775"><ele>252.0</ele><time>2026-03-29T10:11:25.003Z</time></trkpt><trkpt lat="43.32181927479296" lon="11.369591678098027"><ele>252.0</ele><time>2026-03-29T10:11:26.003Z</time></trkpt><trkpt lat="43.3218864761043" lon="11.369478648187133"><ele>252.0</ele><time>2026-03-29T10:11:27.003Z</time></trkpt><trkpt lat="43.321934468575435" lon="11.369373272571618"><ele>252.0</ele><time>2026-03-29T10:11:28.003Z</time></trkpt><trkpt lat="43.32202567695889" lon="11.369306710524535"><ele>254.25</ele><time>2026-03-29T10:11:29.003Z</time></trkpt><trkpt lat="43.32198664516892" lon="11.369141084015654"><ele>256.5</ele><time>2026-03-29T10:11:30.003Z</time></trkpt><trkpt lat="43.32185918895802" lon="11.369090120516228"><ele>258.75</ele><time>2026-03-29T10:11:31.003Z</time></trkpt><trkpt lat="43.321750987767984" lon="11.36920559994531"><ele>261.0</ele><time>2026-03-29T10:11:32.003Z</time></trkpt><trkpt lat="43.32167650116344" lon="11.369284680092854"><ele>261.0</ele><time>2026-03-29T10:11:33.003Z</time></trkpt><trkpt lat="43.32158819287828" lon="11.369390040511071"><ele>261.0</ele><time>2026-03-29T10:11:34.003Z</time></trkpt><trkpt lat="43.3214937237104" lon="11.369440644128536"><ele>261.0</ele><time>2026-03-29T10:11:35.003Z</time></trkpt><trkpt lat="43.32139693658119" lon="11.369406041571454"><ele>261.0</ele><time>2026-03-29T10:11:36.003Z</time></trkpt><trkpt lat="43.32132870235174" lon="11.369318123066133"><ele>261.0</ele><time>2026-03-29T10:11:37.004Z</time></trkpt><trkpt lat="43.32123307595168" lon="11.369213899689308"><ele>261.40000000000003</ele><time>2026-03-29T10:11:38.004Z</time></trkpt><trkpt lat="43.3211198355971" lon="11.369084178869112"><ele>261.8</ele><time>2026-03-29T10:11:39.004Z</time></trkpt><trkpt lat="43.32101970053701" lon="11.368972183576421"><ele>262.20000000000005</ele><time>2026-03-29T10:11:40.004Z</time></trkpt><trkpt lat="43.320959899248464" lon="11.368881555207762"><ele>262.6</ele><time>2026-03-29T10:11:41.003Z</time></trkpt><trkpt lat="43.320934824867216" lon="11.368799736246455"><ele>263.0</ele><time>2026-03-29T10:11:42.003Z</time></trkpt><trkpt lat="43.32098611131622" lon="11.368578852852815"><ele>263.0</ele><time>2026-03-29T10:11:44.003Z</time></trkpt><trkpt lat="43.32102749656129" lon="11.368408082139347"><ele>263.0</ele><time>2026-03-29T10:11:45.003Z</time></trkpt><trkpt lat="43.32106603067565" lon="11.368208851739597"><ele>263.0</ele><time>2026-03-29T10:11:46.003Z</time></trkpt><trkpt lat="43.321084912993165" lon="11.367978190623832"><ele>264.33333333333337</ele><time>2026-03-29T10:11:47.003Z</time></trkpt><trkpt lat="43.321084527266564" lon="11.367755779605613"><ele>265.6666666666667</ele><time>2026-03-29T10:11:48.003Z</time></trkpt><trkpt lat="43.32109703451459" lon="11.36750841070275"><ele>267.0</ele><time>2026-03-29T10:11:49.003Z</time></trkpt><trkpt lat="43.32111503582211" lon="11.367281677280504"><ele>268.3333333333333</ele><time>2026-03-29T10:11:50.004Z</time></trkpt><trkpt lat="43.32111585927946" lon="11.36705296043039"><ele>269.66666666666663</ele><time>2026-03-29T10:11:51.004Z</time></trkpt><trkpt lat="43.321109425290345" lon="11.366832168355026"><ele>271.0</ele><time>2026-03-29T10:11:52.004Z</time></trkpt><trkpt lat="43.32109732050988" lon="11.36661031373983"><ele>271.0</ele><time>2026-03-29T10:11:53.004Z</time></trkpt><trkpt lat="43.32105903557643" lon="11.366401645256504"><ele>271.0</ele><time>2026-03-29T10:11:54.004Z</time></trkpt><trkpt lat="43.3210397615381" lon="11.366219574930648"><ele>271.0</ele><time>2026-03-29T10:11:55.004Z</time></trkpt><trkpt lat="43.32101261189969" lon="11.366082002522818"><ele>271.0</ele><time>2026-03-29T10:11:56.004Z</time></trkpt><trkpt lat="43.32099495489023" lon="11.365969107645752"><ele>271.0</ele><time>2026-03-29T10:11:57.004Z</time></trkpt><trkpt lat="43.32097949008769" lon="11.365841979937404"><ele>271.0</ele><time>2026-03-29T10:11:58.004Z</time></trkpt><trkpt lat="43.320941247823555" lon="11.365678649159904"><ele>271.0</ele><time>2026-03-29T10:11:59.004Z</time></trkpt><trkpt lat="43.32089069134947" lon="11.365517391058194"><ele>271.0</ele><time>2026-03-29T10:12:00.004Z</time></trkpt><trkpt lat="43.32084549528227" lon="11.365392144520982"><ele>271.0</ele><time>2026-03-29T10:12:01.004Z</time></trkpt><trkpt lat="43.32079939256635" lon="11.365250942822641"><ele>271.2</ele><time>2026-03-29T10:12:02.004Z</time></trkpt><trkpt lat="43.32074750810323" lon="11.36511202827101"><ele>271.40000000000003</ele><time>2026-03-29T10:12:03.004Z</time></trkpt><trkpt lat="43.32070140707336" lon="11.364984703131693"><ele>271.6</ele><time>2026-03-29T10:12:04.004Z</time></trkpt><trkpt lat="43.3206549156066" lon="11.364856791613342"><ele>271.8</ele><time>2026-03-29T10:12:05.004Z</time></trkpt><trkpt lat="43.32060225878427" lon="11.364745072856849"><ele>272.0</ele><time>2026-03-29T10:12:06.004Z</time></trkpt><trkpt lat="43.32055256530117" lon="11.36464778888711"><ele>272.4</ele><time>2026-03-29T10:12:07.004Z</time></trkpt><trkpt lat="43.320498734346494" lon="11.364583724444104"><ele>272.79999999999995</ele><time>2026-03-29T10:12:08.004Z</time></trkpt><trkpt lat="43.32042117105608" lon="11.364446658129832"><ele>273.2</ele><time>2026-03-29T10:12:10.004Z</time></trkpt><trkpt lat="43.32036863419351" lon="11.364357548411995"><ele>273.59999999999997</ele><time>2026-03-29T10:12:11.004Z</time></trkpt><trkpt lat="43.32030892006349" lon="11.364256265252404"><ele>274.0</ele><time>2026-03-29T10:12:12.004Z</time></trkpt><trkpt lat="43.32023389773792" lon="11.364129021362574"><ele>274.0</ele><time>2026-03-29T10:12:13.004Z</time></trkpt><trkpt lat="43.320155091760036" lon="11.364000608185998"><ele>274.0</ele><time>2026-03-29T10:12:14.004Z</time></trkpt><trkpt lat="43.320060345081565" lon="11.363848380945907"><ele>274.0</ele><time>2026-03-29T10:12:15.004Z</time></trkpt><trkpt lat="43.319939779787205" lon="11.363658533355384"><ele>274.75</ele><time>2026-03-29T10:12:16.004Z</time></trkpt><trkpt lat="43.319828306328596" lon="11.36350280131011"><ele>275.5</ele><time>2026-03-29T10:12:17.004Z</time></trkpt><trkpt lat="43.31972214489611" lon="11.36336201336124"><ele>276.25</ele><time>2026-03-29T10:12:18.004Z</time></trkpt><trkpt lat="43.31963759655135" lon="11.363250871528383"><ele>277.0</ele><time>2026-03-29T10:12:19.004Z</time></trkpt><trkpt lat="43.31957161361835" lon="11.363149695764355"><ele>277.0</ele><time>2026-03-29T10:12:20.004Z</time></trkpt><trkpt lat="43.31952059828522" lon="11.363044617270596"><ele>277.0</ele><time>2026-03-29T10:12:21.004Z</time></trkpt><trkpt lat="43.319474132425576" lon="11.362905957354965"><ele>277.0</ele><time>2026-03-29T10:12:22.004Z</time></trkpt><trkpt lat="43.31944046347685" lon="11.362770887205244"><ele>277.0</ele><time>2026-03-29T10:12:23.004Z</time></trkpt><trkpt lat="43.31940770295037" lon="11.362646911450566"><ele>277.0</ele><time>2026-03-29T10:12:24.004Z</time></trkpt><trkpt lat="43.319372951019545" lon="11.362541660397241"><ele>275.6</ele><time>2026-03-29T10:12:25.004Z</time></trkpt><trkpt lat="43.319317352066314" lon="11.362450817377953"><ele>274.2</ele><time>2026-03-29T10:12:27.004Z</time></trkpt><trkpt lat="43.31922318681881" lon="11.362325311808119"><ele>272.8</ele><time>2026-03-29T10:12:29.003Z</time></trkpt><trkpt lat="43.31917750389478" lon="11.362207046255918"><ele>271.4</ele><time>2026-03-29T10:12:30.003Z</time></trkpt><trkpt lat="43.31913572581545" lon="11.362138355344925"><ele>270.0</ele><time>2026-03-29T10:12:31.003Z</time></trkpt><trkpt lat="43.319108100949485" lon="11.362036296782799"><ele>266.0</ele><time>2026-03-29T10:12:32.003Z</time></trkpt><trkpt lat="43.31925576787211" lon="11.361731655287722"><ele>262.0</ele><time>2026-03-29T10:12:33.003Z</time></trkpt><trkpt lat="43.3192142271308" lon="11.361615907869055"><ele>258.0</ele><time>2026-03-29T10:12:34.003Z</time></trkpt><trkpt lat="43.31913165130617" lon="11.36149908918933"><ele>258.0</ele><time>2026-03-29T10:12:35.003Z</time></trkpt><trkpt lat="43.31894281784186" lon="11.361352117778953"><ele>258.0</ele><time>2026-03-29T10:12:36.003Z</time></trkpt><trkpt lat="43.31879318576529" lon="11.361190686433202"><ele>258.0</ele><time>2026-03-29T10:12:37.003Z</time></trkpt><trkpt lat="43.31856897402633" lon="11.361045721024448"><ele>258.0</ele><time>2026-03-29T10:12:38.003Z</time></trkpt><trkpt lat="43.31850964375927" lon="11.360872104054483"><ele>258.0</ele><time>2026-03-29T10:12:39.003Z</time></trkpt><trkpt lat="43.31844394268988" lon="11.360733246502756"><ele>258.0</ele><time>2026-03-29T10:12:40.003Z</time></trkpt><trkpt lat="43.31838128470777" lon="11.360571196160144"><ele>258.0</ele><time>2026-03-29T10:12:41.003Z</time></trkpt><trkpt lat="43.31830210039255" lon="11.360437083983932"><ele>256.25</ele><time>2026-03-29T10:12:42.003Z</time></trkpt><trkpt lat="43.31822241200196" lon="11.360291836524889"><ele>254.5</ele><time>2026-03-29T10:12:43.003Z</time></trkpt><trkpt lat="43.3181432396739" lon="11.360147041837978"><ele>252.75</ele><time>2026-03-29T10:12:44.003Z</time></trkpt><trkpt lat="43.31805914703064" lon="11.36001642085813"><ele>251.0</ele><time>2026-03-29T10:12:45.003Z</time></trkpt><trkpt lat="43.317971792358335" lon="11.359880318621466"><ele>251.0</ele><time>2026-03-29T10:12:46.003Z</time></trkpt><trkpt lat="43.31789352624437" lon="11.359717530319879"><ele>251.0</ele><time>2026-03-29T10:12:47.003Z</time></trkpt><trkpt lat="43.317840785534756" lon="11.35955508074303"><ele>251.0</ele><time>2026-03-29T10:12:48.003Z</time></trkpt><trkpt lat="43.31779373788247" lon="11.359399123784195"><ele>251.0</ele><time>2026-03-29T10:12:49.003Z</time></trkpt><trkpt lat="43.31776010336173" lon="11.359247654674373"><ele>248.5</ele><time>2026-03-29T10:12:50.003Z</time></trkpt><trkpt lat="43.31773961242252" lon="11.359073864517343"><ele>246.0</ele><time>2026-03-29T10:12:51.003Z</time></trkpt><trkpt lat="43.31771475961144" lon="11.358902693081966"><ele>243.5</ele><time>2026-03-29T10:12:52.003Z</time></trkpt><trkpt lat="43.31767562867045" lon="11.358730894361841"><ele>241.0</ele><time>2026-03-29T10:12:53.003Z</time></trkpt><trkpt lat="43.31761645190018" lon="11.358599288383292"><ele>240.0</ele><time>2026-03-29T10:12:54.003Z</time></trkpt><trkpt lat="43.317550683569735" lon="11.358498659020869"><ele>239.0</ele><time>2026-03-29T10:12:55.003Z</time></trkpt><trkpt lat="43.31745104175001" lon="11.358407636388662"><ele>238.0</ele><time>2026-03-29T10:12:56.003Z</time></trkpt><trkpt lat="43.31733768731388" lon="11.358333867612236"><ele>237.0</ele><time>2026-03-29T10:12:57.003Z</time></trkpt><trkpt lat="43.31721508731643" lon="11.35829688087726"><ele>235.6</ele><time>2026-03-29T10:12:58.003Z</time></trkpt><trkpt lat="43.31709650335448" lon="11.35829155358651"><ele>234.2</ele><time>2026-03-29T10:12:59.003Z</time></trkpt><trkpt lat="43.316977884217614" lon="11.358304584391686"><ele>232.8</ele><time>2026-03-29T10:13:00.003Z</time></trkpt><trkpt lat="43.3168625540437" lon="11.358285788990017"><ele>231.4</ele><time>2026-03-29T10:13:01.003Z</time></trkpt><trkpt lat="43.31676869908621" lon="11.358270661233625"><ele>230.0</ele><time>2026-03-29T10:13:02.003Z</time></trkpt><trkpt lat="43.31668680238346" lon="11.35820899261014"><ele>230.0</ele><time>2026-03-29T10:13:03.003Z</time></trkpt><trkpt lat="43.316623589849684" lon="11.358111346792317"><ele>230.0</ele><time>2026-03-29T10:13:04.003Z</time></trkpt><trkpt lat="43.31656530793565" lon="11.358001524979766"><ele>230.0</ele><time>2026-03-29T10:13:05.003Z</time></trkpt><trkpt lat="43.31650111457177" lon="11.3578879303375"><ele>230.0</ele><time>2026-03-29T10:13:06.003Z</time></trkpt><trkpt lat="43.31642883274663" lon="11.35776781494594"><ele>230.0</ele><time>2026-03-29T10:13:07.003Z</time></trkpt><trkpt lat="43.31635539827551" lon="11.357656518628383"><ele>229.4</ele><time>2026-03-29T10:13:08.003Z</time></trkpt><trkpt lat="43.31628633714284" lon="11.357554208284654"><ele>228.8</ele><time>2026-03-29T10:13:09.003Z</time></trkpt><trkpt lat="43.31622368617432" lon="11.357453889061325"><ele>228.2</ele><time>2026-03-29T10:13:10.003Z</time></trkpt><trkpt lat="43.31615797828911" lon="11.357350974066524"><ele>227.6</ele><time>2026-03-29T10:13:11.003Z</time></trkpt><trkpt lat="43.316123445629096" lon="11.357238321649154"><ele>227.0</ele><time>2026-03-29T10:13:12.003Z</time></trkpt><trkpt lat="43.31609984352414" lon="11.357130792649306"><ele>226.83333333333334</ele><time>2026-03-29T10:13:13.003Z</time></trkpt><trkpt lat="43.31607467535465" lon="11.357033458653094"><ele>226.66666666666669</ele><time>2026-03-29T10:13:14.003Z</time></trkpt><trkpt lat="43.31605720080846" lon="11.356927305804046"><ele>226.5</ele><time>2026-03-29T10:13:15.003Z</time></trkpt><trkpt lat="43.316048930798146" lon="11.356817655345909"><ele>226.33333333333331</ele><time>2026-03-29T10:13:16.003Z</time></trkpt><trkpt lat="43.31603307123577" lon="11.356721967688587"><ele>226.16666666666666</ele><time>2026-03-29T10:13:17.003Z</time></trkpt><trkpt lat="43.31602908609864" lon="11.356610838213614"><ele>226.0</ele><time>2026-03-29T10:13:18.003Z</time></trkpt><trkpt lat="43.31604059894108" lon="11.3564947671875"><ele>226.0</ele><time>2026-03-29T10:13:19.003Z</time></trkpt><trkpt lat="43.316019642164925" lon="11.356384036754628"><ele>226.00000000000003</ele><time>2026-03-29T10:13:20.003Z</time></trkpt><trkpt lat="43.31601829269414" lon="11.356289347807987"><ele>226.00000000000003</ele><time>2026-03-29T10:13:21.003Z</time></trkpt><trkpt lat="43.316003069989556" lon="11.356140238321165"><ele>226.0</ele><time>2026-03-29T10:13:23.003Z</time></trkpt><trkpt lat="43.31607334210813" lon="11.356048403821475"><ele>226.0</ele><time>2026-03-29T10:13:26.003Z</time></trkpt><trkpt lat="43.31617988940689" lon="11.35592264022862"><ele>225.83333333333331</ele><time>2026-03-29T10:13:28.003Z</time></trkpt><trkpt lat="43.31621250251103" lon="11.3558396951568"><ele>225.66666666666666</ele><time>2026-03-29T10:13:29.003Z</time></trkpt><trkpt lat="43.31625790653097" lon="11.355777890917544"><ele>225.5</ele><time>2026-03-29T10:13:30.003Z</time></trkpt><trkpt lat="43.31630747355126" lon="11.35571308080372"><ele>225.33333333333331</ele><time>2026-03-29T10:13:31.003Z</time></trkpt><trkpt lat="43.31635462555644" lon="11.35562002333599"><ele>225.16666666666666</ele><time>2026-03-29T10:13:32.003Z</time></trkpt><trkpt lat="43.316388720265834" lon="11.355508093653494"><ele>225.0</ele><time>2026-03-29T10:13:33.003Z</time></trkpt><trkpt lat="43.31639730063223" lon="11.355401549326313"><ele>225.33333333333334</ele><time>2026-03-29T10:13:34.003Z</time></trkpt><trkpt lat="43.31637382054584" lon="11.35531746742197"><ele>225.66666666666669</ele><time>2026-03-29T10:13:35.003Z</time></trkpt><trkpt lat="43.31633207545898" lon="11.355252586891451"><ele>226.0</ele><time>2026-03-29T10:13:36.003Z</time></trkpt><trkpt lat="43.31626498617225" lon="11.355210425806574"><ele>226.33333333333334</ele><time>2026-03-29T10:13:37.003Z</time></trkpt><trkpt lat="43.31619360119321" lon="11.355194169562191"><ele>226.66666666666669</ele><time>2026-03-29T10:13:38.003Z</time></trkpt><trkpt lat="43.31608943847346" lon="11.355184100470876"><ele>227.0</ele><time>2026-03-29T10:13:39.003Z</time></trkpt><trkpt lat="43.31602507527651" lon="11.355131413357753"><ele>227.00000000000003</ele><time>2026-03-29T10:13:40.003Z</time></trkpt><trkpt lat="43.315974873905034" lon="11.355044570911025"><ele>227.0</ele><time>2026-03-29T10:13:41.003Z</time></trkpt><trkpt lat="43.3159463342719" lon="11.35494198558151"><ele>227.0</ele><time>2026-03-29T10:13:42.003Z</time></trkpt><trkpt lat="43.31592049387256" lon="11.354835732777271"><ele>227.0</ele><time>2026-03-29T10:13:43.003Z</time></trkpt><trkpt lat="43.3158969721822" lon="11.354722464270592"><ele>227.00000000000003</ele><time>2026-03-29T10:13:44.003Z</time></trkpt><trkpt lat="43.31587267770956" lon="11.354599763494644"><ele>227.0</ele><time>2026-03-29T10:13:45.003Z</time></trkpt><trkpt lat="43.31584136257956" lon="11.354477240212619"><ele>227.8</ele><time>2026-03-29T10:13:46.004Z</time></trkpt><trkpt lat="43.31580969782429" lon="11.354355251922646"><ele>228.6</ele><time>2026-03-29T10:13:47.004Z</time></trkpt><trkpt lat="43.31577933602656" lon="11.354231891267245"><ele>229.40000000000003</ele><time>2026-03-29T10:13:48.003Z</time></trkpt><trkpt lat="43.31574720059726" lon="11.35410092663656"><ele>230.20000000000002</ele><time>2026-03-29T10:13:49.003Z</time></trkpt><trkpt lat="43.31571466108265" lon="11.353983479098629"><ele>231.0</ele><time>2026-03-29T10:13:50.003Z</time></trkpt><trkpt lat="43.31568237059599" lon="11.353872510044784"><ele>231.5</ele><time>2026-03-29T10:13:51.004Z</time></trkpt><trkpt lat="43.31565273060913" lon="11.353759940527844"><ele>232.0</ele><time>2026-03-29T10:13:52.003Z</time></trkpt><trkpt lat="43.31562042577988" lon="11.353655227017025"><ele>232.5</ele><time>2026-03-29T10:13:53.003Z</time></trkpt><trkpt lat="43.31559363832989" lon="11.353542055751321"><ele>233.0</ele><time>2026-03-29T10:13:54.004Z</time></trkpt><trkpt lat="43.31556734930816" lon="11.353424430924434"><ele>233.5</ele><time>2026-03-29T10:13:55.003Z</time></trkpt><trkpt lat="43.315535979372434" lon="11.353312323907597"><ele>234.0</ele><time>2026-03-29T10:13:56.003Z</time></trkpt><trkpt lat="43.31550937600109" lon="11.353203135509991"><ele>234.0</ele><time>2026-03-29T10:13:57.003Z</time></trkpt><trkpt lat="43.31548399783335" lon="11.353097733770284"><ele>234.0</ele><time>2026-03-29T10:13:58.003Z</time></trkpt><trkpt lat="43.31545340859312" lon="11.352992105130264"><ele>234.0</ele><time>2026-03-29T10:13:59.003Z</time></trkpt><trkpt lat="43.315423661728104" lon="11.352884143177906"><ele>234.0</ele><time>2026-03-29T10:14:00.003Z</time></trkpt><trkpt lat="43.31539510937871" lon="11.352770290806308"><ele>234.0</ele><time>2026-03-29T10:14:01.003Z</time></trkpt><trkpt lat="43.315361862196966" lon="11.35265654401048"><ele>234.0</ele><time>2026-03-29T10:14:02.003Z</time></trkpt><trkpt lat="43.31533001627903" lon="11.352535790865332"><ele>234.75</ele><time>2026-03-29T10:14:03.003Z</time></trkpt><trkpt lat="43.31529124324789" lon="11.352404514706814"><ele>235.5</ele><time>2026-03-29T10:14:04.003Z</time></trkpt><trkpt lat="43.315255356720776" lon="11.352256865991722"><ele>236.25</ele><time>2026-03-29T10:14:05.003Z</time></trkpt><trkpt lat="43.315210126894314" lon="11.352087816954851"><ele>237.0</ele><time>2026-03-29T10:14:06.003Z</time></trkpt><trkpt lat="43.315158793568266" lon="11.351914027541325"><ele>238.75</ele><time>2026-03-29T10:14:07.003Z</time></trkpt><trkpt lat="43.31510655464036" lon="11.351743395951713"><ele>240.5</ele><time>2026-03-29T10:14:08.003Z</time></trkpt><trkpt lat="43.315047791159586" lon="11.351581708025043"><ele>242.25</ele><time>2026-03-29T10:14:09.003Z</time></trkpt><trkpt lat="43.314968795053005" lon="11.351420763745404"><ele>244.0</ele><time>2026-03-29T10:14:10.003Z</time></trkpt><trkpt lat="43.31488931210877" lon="11.351295036406587"><ele>243.75</ele><time>2026-03-29T10:14:11.003Z</time></trkpt><trkpt lat="43.31481497642264" lon="11.351147706688048"><ele>243.5</ele><time>2026-03-29T10:14:12.003Z</time></trkpt><trkpt lat="43.31473456629952" lon="11.351015567594306"><ele>243.25</ele><time>2026-03-29T10:14:13.003Z</time></trkpt><trkpt lat="43.31465665639486" lon="11.35088310972085"><ele>243.0</ele><time>2026-03-29T10:14:14.003Z</time></trkpt><trkpt lat="43.31456964343626" lon="11.35075669281199"><ele>243.0</ele><time>2026-03-29T10:14:15.003Z</time></trkpt><trkpt lat="43.31448307945018" lon="11.350630255697828"><ele>243.0</ele><time>2026-03-29T10:14:16.003Z</time></trkpt><trkpt lat="43.31441470697754" lon="11.350493723363543"><ele>243.0</ele><time>2026-03-29T10:14:17.003Z</time></trkpt><trkpt lat="43.314371758851046" lon="11.35035769107338"><ele>243.0</ele><time>2026-03-29T10:14:18.003Z</time></trkpt><trkpt lat="43.314381930671075" lon="11.350213033635795"><ele>243.60000000000002</ele><time>2026-03-29T10:14:19.003Z</time></trkpt><trkpt lat="43.31440286870278" lon="11.350083064590951"><ele>244.20000000000002</ele><time>2026-03-29T10:14:20.003Z</time></trkpt><trkpt lat="43.31445471666668" lon="11.349950746878294"><ele>244.8</ele><time>2026-03-29T10:14:21.003Z</time></trkpt><trkpt lat="43.31452166871593" lon="11.349866300913996"><ele>245.4</ele><time>2026-03-29T10:14:22.003Z</time></trkpt><trkpt lat="43.31460394554732" lon="11.349811502076616"><ele>246.0</ele><time>2026-03-29T10:14:23.003Z</time></trkpt><trkpt lat="43.31474281620908" lon="11.349866257346237"><ele>249.75</ele><time>2026-03-29T10:14:24.003Z</time></trkpt><trkpt lat="43.314868866616905" lon="11.3498659070859"><ele>253.5</ele><time>2026-03-29T10:14:25.003Z</time></trkpt><trkpt lat="43.314972265900614" lon="11.349846901171274"><ele>257.25</ele><time>2026-03-29T10:14:26.003Z</time></trkpt><trkpt lat="43.31505367587923" lon="11.349753630082764"><ele>261.0</ele><time>2026-03-29T10:14:27.003Z</time></trkpt><trkpt lat="43.31511729054789" lon="11.349620439292446"><ele>261.6</ele><time>2026-03-29T10:14:28.003Z</time></trkpt><trkpt lat="43.31514477835908" lon="11.349470734089538"><ele>262.20000000000005</ele><time>2026-03-29T10:14:29.003Z</time></trkpt><trkpt lat="43.315135607838386" lon="11.3493157924186"><ele>262.79999999999995</ele><time>2026-03-29T10:14:30.003Z</time></trkpt><trkpt lat="43.315093943878935" lon="11.349172933987838"><ele>263.4</ele><time>2026-03-29T10:14:31.003Z</time></trkpt><trkpt lat="43.31503145462968" lon="11.34904878260657"><ele>264.0</ele><time>2026-03-29T10:14:32.003Z</time></trkpt><trkpt lat="43.314948782917924" lon="11.34896249597047"><ele>264.0</ele><time>2026-03-29T10:14:33.003Z</time></trkpt><trkpt lat="43.31481575499055" lon="11.348922158500665"><ele>264.0</ele><time>2026-03-29T10:14:34.003Z</time></trkpt><trkpt lat="43.31472570814764" lon="11.348863203704703"><ele>264.0</ele><time>2026-03-29T10:14:35.003Z</time></trkpt><trkpt lat="43.31463888434555" lon="11.348786194885804"><ele>264.0</ele><time>2026-03-29T10:14:36.003Z</time></trkpt><trkpt lat="43.3145774329615" lon="11.348681698413003"><ele>264.0</ele><time>2026-03-29T10:14:37.003Z</time></trkpt><trkpt lat="43.314554435162144" lon="11.348524519934095"><ele>262.2</ele><time>2026-03-29T10:14:38.003Z</time></trkpt><trkpt lat="43.314553472477606" lon="11.348379799885471"><ele>260.4</ele><time>2026-03-29T10:14:39.003Z</time></trkpt><trkpt lat="43.31457525526206" lon="11.348229303434895"><ele>258.6</ele><time>2026-03-29T10:14:40.003Z</time></trkpt><trkpt lat="43.31461537705289" lon="11.348098717632205"><ele>256.8</ele><time>2026-03-29T10:14:41.003Z</time></trkpt><trkpt lat="43.31466579495342" lon="11.347969423113154"><ele>255.0</ele><time>2026-03-29T10:14:42.003Z</time></trkpt><trkpt lat="43.31472695177107" lon="11.34785340861829"><ele>258.2</ele><time>2026-03-29T10:14:43.003Z</time></trkpt><trkpt lat="43.31479588769763" lon="11.347754272151155"><ele>261.4</ele><time>2026-03-29T10:14:44.003Z</time></trkpt><trkpt lat="43.31486551569057" lon="11.347658187440349"><ele>264.6</ele><time>2026-03-29T10:14:45.003Z</time></trkpt><trkpt lat="43.314938419543886" lon="11.347557445319936"><ele>267.8</ele><time>2026-03-29T10:14:46.003Z</time></trkpt><trkpt lat="43.31499382409005" lon="11.347458035267326"><ele>271.0</ele><time>2026-03-29T10:14:47.003Z</time></trkpt><trkpt lat="43.315062992147986" lon="11.347352976396651"><ele>271.0</ele><time>2026-03-29T10:14:48.003Z</time></trkpt><trkpt lat="43.315137705901634" lon="11.34724226024721"><ele>271.0</ele><time>2026-03-29T10:14:49.003Z</time></trkpt><trkpt lat="43.31519883947561" lon="11.347097882776412"><ele>271.0</ele><time>2026-03-29T10:14:50.003Z</time></trkpt><trkpt lat="43.31527442875541" lon="11.346974272521493"><ele>271.0</ele><time>2026-03-29T10:14:51.003Z</time></trkpt><trkpt lat="43.31534620573798" lon="11.346850683933969"><ele>270.25</ele><time>2026-03-29T10:14:52.003Z</time></trkpt><trkpt lat="43.31542411384563" lon="11.34672985243702"><ele>269.5</ele><time>2026-03-29T10:14:53.003Z</time></trkpt><trkpt lat="43.31550564101946" lon="11.346598105414605"><ele>268.75</ele><time>2026-03-29T10:14:54.003Z</time></trkpt><trkpt lat="43.315587448140505" lon="11.34648925463555"><ele>268.0</ele><time>2026-03-29T10:14:55.003Z</time></trkpt><trkpt lat="43.315666731533696" lon="11.346365458077624"><ele>270.4</ele><time>2026-03-29T10:14:56.003Z</time></trkpt><trkpt lat="43.31573683965156" lon="11.346246454802227"><ele>272.8</ele><time>2026-03-29T10:14:57.003Z</time></trkpt><trkpt lat="43.31580826572146" lon="11.346123005534926"><ele>275.2</ele><time>2026-03-29T10:14:58.003Z</time></trkpt><trkpt lat="43.315874419555925" lon="11.346006559804133"><ele>277.6</ele><time>2026-03-29T10:14:59.003Z</time></trkpt><trkpt lat="43.3159408168175" lon="11.345888613227702"><ele>280.0</ele><time>2026-03-29T10:15:00.003Z</time></trkpt><trkpt lat="43.31601508691197" lon="11.345770541890158"><ele>280.0</ele><time>2026-03-29T10:15:01.003Z</time></trkpt><trkpt lat="43.3160902482448" lon="11.345655174312764"><ele>280.0</ele><time>2026-03-29T10:15:02.003Z</time></trkpt><trkpt lat="43.31615165784048" lon="11.34553825167683"><ele>280.0</ele><time>2026-03-29T10:15:03.003Z</time></trkpt><trkpt lat="43.31622312544197" lon="11.345442472034742"><ele>280.0</ele><time>2026-03-29T10:15:04.003Z</time></trkpt><trkpt lat="43.316278287543156" lon="11.34531691560265"><ele>280.0</ele><time>2026-03-29T10:15:05.003Z</time></trkpt><trkpt lat="43.31635236026477" lon="11.34520263884845"><ele>281.5</ele><time>2026-03-29T10:15:06.003Z</time></trkpt><trkpt lat="43.316421186796745" lon="11.345084045811072"><ele>283.0</ele><time>2026-03-29T10:15:07.003Z</time></trkpt><trkpt lat="43.31649081473893" lon="11.344961708239808"><ele>284.5</ele><time>2026-03-29T10:15:08.003Z</time></trkpt><trkpt lat="43.31656310123539" lon="11.344838166529536"><ele>286.0</ele><time>2026-03-29T10:15:09.003Z</time></trkpt><trkpt lat="43.316633580165266" lon="11.3447197392143"><ele>285.6</ele><time>2026-03-29T10:15:10.003Z</time></trkpt><trkpt lat="43.316699780402374" lon="11.34459801293345"><ele>285.20000000000005</ele><time>2026-03-29T10:15:11.003Z</time></trkpt><trkpt lat="43.31677569683951" lon="11.344481379618708"><ele>284.79999999999995</ele><time>2026-03-29T10:15:12.003Z</time></trkpt><trkpt lat="43.316841632646046" lon="11.34435547841524"><ele>284.4</ele><time>2026-03-29T10:15:13.003Z</time></trkpt><trkpt lat="43.31689789967876" lon="11.344231623262253"><ele>284.0</ele><time>2026-03-29T10:15:14.003Z</time></trkpt><trkpt lat="43.31694083629915" lon="11.344104925659789"><ele>284.0</ele><time>2026-03-29T10:15:15.003Z</time></trkpt><trkpt lat="43.316980588444785" lon="11.343997659230409"><ele>284.0</ele><time>2026-03-29T10:15:16.003Z</time></trkpt><trkpt lat="43.3170151637605" lon="11.343887861225511"><ele>284.0</ele><time>2026-03-29T10:15:17.003Z</time></trkpt><trkpt lat="43.31705484708493" lon="11.343773403014996"><ele>284.0</ele><time>2026-03-29T10:15:18.003Z</time></trkpt><trkpt lat="43.31709456005257" lon="11.343657838928456"><ele>284.0</ele><time>2026-03-29T10:15:19.003Z</time></trkpt><trkpt lat="43.31712395617275" lon="11.343548663596847"><ele>284.0</ele><time>2026-03-29T10:15:20.003Z</time></trkpt><trkpt lat="43.317143835652054" lon="11.343440354402267"><ele>283.6666666666667</ele><time>2026-03-29T10:15:21.003Z</time></trkpt><trkpt lat="43.31716037671998" lon="11.343334252421062"><ele>283.33333333333337</ele><time>2026-03-29T10:15:22.003Z</time></trkpt><trkpt lat="43.31718199327979" lon="11.343244580936414"><ele>283.0</ele><time>2026-03-29T10:15:23.003Z</time></trkpt><trkpt lat="43.31720784306798" lon="11.343160541281547"><ele>282.6666666666667</ele><time>2026-03-29T10:15:24.003Z</time></trkpt><trkpt lat="43.31722289584199" lon="11.343071737097278"><ele>282.3333333333333</ele><time>2026-03-29T10:15:25.003Z</time></trkpt><trkpt lat="43.317269444145765" lon="11.342926759193373"><ele>282.0</ele><time>2026-03-29T10:15:27.003Z</time></trkpt><trkpt lat="43.31732025511066" lon="11.34279861556496"><ele>284.4</ele><time>2026-03-29T10:15:29.003Z</time></trkpt><trkpt lat="43.3173758763949" lon="11.342727913716091"><ele>286.79999999999995</ele><time>2026-03-29T10:15:31.003Z</time></trkpt><trkpt lat="43.31746879012306" lon="11.342657037846372"><ele>289.2</ele><time>2026-03-29T10:15:33.003Z</time></trkpt><trkpt lat="43.31751994206585" lon="11.342604680363891"><ele>291.59999999999997</ele><time>2026-03-29T10:15:34.003Z</time></trkpt><trkpt lat="43.317634544727916" lon="11.342498954833188"><ele>294.0</ele><time>2026-03-29T10:15:36.003Z</time></trkpt><trkpt lat="43.3176992816375" lon="11.342451131093036"><ele>294.0</ele><time>2026-03-29T10:15:37.003Z</time></trkpt><trkpt lat="43.31776364710562" lon="11.342409823606904"><ele>294.0</ele><time>2026-03-29T10:15:38.003Z</time></trkpt><trkpt lat="43.31782915176925" lon="11.342378863817501"><ele>294.0</ele><time>2026-03-29T10:15:39.003Z</time></trkpt><trkpt lat="43.31790736091531" lon="11.342356025693533"><ele>294.0</ele><time>2026-03-29T10:15:40.003Z</time></trkpt><trkpt lat="43.31799503234341" lon="11.342328873830754"><ele>294.0</ele><time>2026-03-29T10:15:41.003Z</time></trkpt><trkpt lat="43.318066948367424" lon="11.342307169073116"><ele>294.0</ele><time>2026-03-29T10:15:42.003Z</time></trkpt><trkpt lat="43.31812972362936" lon="11.342285196817015"><ele>294.0</ele><time>2026-03-29T10:15:43.003Z</time></trkpt><trkpt lat="43.31819819639539" lon="11.342257335209975"><ele>294.1666666666667</ele><time>2026-03-29T10:15:44.003Z</time></trkpt><trkpt lat="43.31827995782614" lon="11.342236373728824"><ele>294.3333333333333</ele><time>2026-03-29T10:15:45.003Z</time></trkpt><trkpt lat="43.31836585871071" lon="11.342213201901759"><ele>294.5</ele><time>2026-03-29T10:15:46.003Z</time></trkpt><trkpt lat="43.31845323742589" lon="11.342192629509125"><ele>294.66666666666663</ele><time>2026-03-29T10:15:47.003Z</time></trkpt><trkpt lat="43.31854066329217" lon="11.342173679734168"><ele>294.8333333333333</ele><time>2026-03-29T10:15:48.004Z</time></trkpt><trkpt lat="43.31862948047959" lon="11.342160276927618"><ele>295.0</ele><time>2026-03-29T10:15:49.003Z</time></trkpt><trkpt lat="43.31871872018313" lon="11.34217329272471"><ele>295.66666666666663</ele><time>2026-03-29T10:15:50.003Z</time></trkpt><trkpt lat="43.31879795638152" lon="11.342145651237809"><ele>296.3333333333333</ele><time>2026-03-29T10:15:51.003Z</time></trkpt><trkpt lat="43.318873193625535" lon="11.342121417046135"><ele>297.0</ele><time>2026-03-29T10:15:52.004Z</time></trkpt><trkpt lat="43.3189477938743" lon="11.342093945790218"><ele>297.6666666666667</ele><time>2026-03-29T10:15:53.004Z</time></trkpt><trkpt lat="43.31902921083362" lon="11.342061523472847"><ele>298.33333333333337</ele><time>2026-03-29T10:15:54.004Z</time></trkpt><trkpt lat="43.31909941567178" lon="11.34198968507443"><ele>299.0</ele><time>2026-03-29T10:15:55.003Z</time></trkpt><trkpt lat="43.319153260427555" lon="11.341878205384319"><ele>299.0</ele><time>2026-03-29T10:15:56.003Z</time></trkpt><trkpt lat="43.31917161798081" lon="11.341750884302689"><ele>299.0</ele><time>2026-03-29T10:15:57.004Z</time></trkpt><trkpt lat="43.31915830089053" lon="11.341623074115324"><ele>299.0</ele><time>2026-03-29T10:15:58.004Z</time></trkpt><trkpt lat="43.319128601691546" lon="11.341525787173932"><ele>299.0</ele><time>2026-03-29T10:15:59.004Z</time></trkpt><trkpt lat="43.31906755228016" lon="11.341446958554783"><ele>299.0</ele><time>2026-03-29T10:16:00.003Z</time></trkpt><trkpt lat="43.319024725864736" lon="11.34135573039663"><ele>299.0</ele><time>2026-03-29T10:16:01.004Z</time></trkpt><trkpt lat="43.31897619910693" lon="11.341273881907814"><ele>299.6666666666667</ele><time>2026-03-29T10:16:02.004Z</time></trkpt><trkpt lat="43.318926072520036" lon="11.341185976861798"><ele>300.33333333333337</ele><time>2026-03-29T10:16:03.004Z</time></trkpt><trkpt lat="43.318898833040706" lon="11.341058823602099"><ele>301.0</ele><time>2026-03-29T10:16:04.004Z</time></trkpt><trkpt lat="43.31884981031843" lon="11.340975457065717"><ele>301.6666666666667</ele><time>2026-03-29T10:16:05.004Z</time></trkpt><trkpt lat="43.318797224583655" lon="11.34088399969907"><ele>302.3333333333333</ele><time>2026-03-29T10:16:06.004Z</time></trkpt><trkpt lat="43.318739013310534" lon="11.340797344237323"><ele>303.0</ele><time>2026-03-29T10:16:07.004Z</time></trkpt><trkpt lat="43.31868388643473" lon="11.340698309090609"><ele>303.0</ele><time>2026-03-29T10:16:08.004Z</time></trkpt><trkpt lat="43.31862543116605" lon="11.340608755194783"><ele>303.0</ele><time>2026-03-29T10:16:09.004Z</time></trkpt><trkpt lat="43.318573231576785" lon="11.34052012221919"><ele>303.0</ele><time>2026-03-29T10:16:10.004Z</time></trkpt><trkpt lat="43.318527402644406" lon="11.340426198776836"><ele>303.0</ele><time>2026-03-29T10:16:11.004Z</time></trkpt><trkpt lat="43.318489957521855" lon="11.34032025046616"><ele>303.0</ele><time>2026-03-29T10:16:12.004Z</time></trkpt><trkpt lat="43.318457143159854" lon="11.340199763347758"><ele>303.0</ele><time>2026-03-29T10:16:13.004Z</time></trkpt><trkpt lat="43.31844239775658" lon="11.340058982299688"><ele>303.5</ele><time>2026-03-29T10:16:14.004Z</time></trkpt><trkpt lat="43.31844131846746" lon="11.339900386924187"><ele>304.0</ele><time>2026-03-29T10:16:15.004Z</time></trkpt><trkpt lat="43.31846269710369" lon="11.33974079497931"><ele>304.5</ele><time>2026-03-29T10:16:16.004Z</time></trkpt><trkpt lat="43.31850454675633" lon="11.339599365350853"><ele>305.0</ele><time>2026-03-29T10:16:17.004Z</time></trkpt><trkpt lat="43.31858034419974" lon="11.339489244385247"><ele>305.0</ele><time>2026-03-29T10:16:18.004Z</time></trkpt><trkpt lat="43.31867881553012" lon="11.339429097977908"><ele>305.0</ele><time>2026-03-29T10:16:19.004Z</time></trkpt><trkpt lat="43.31878764805415" lon="11.339405293510183"><ele>305.0</ele><time>2026-03-29T10:16:20.004Z</time></trkpt><trkpt lat="43.318902069649184" lon="11.33938671126395"><ele>305.0</ele><time>2026-03-29T10:16:21.004Z</time></trkpt><trkpt lat="43.31902276363353" lon="11.339393544978316"><ele>300.75</ele><time>2026-03-29T10:16:22.004Z</time></trkpt><trkpt lat="43.319136061237195" lon="11.339376848698361"><ele>296.5</ele><time>2026-03-29T10:16:23.004Z</time></trkpt><trkpt lat="43.319252295839675" lon="11.339338986481389"><ele>292.25</ele><time>2026-03-29T10:16:24.004Z</time></trkpt><trkpt lat="43.31937760611012" lon="11.339312233041037"><ele>288.0</ele><time>2026-03-29T10:16:25.004Z</time></trkpt><trkpt lat="43.31950370429294" lon="11.339289806096806"><ele>288.0</ele><time>2026-03-29T10:16:26.004Z</time></trkpt><trkpt lat="43.31962793133585" lon="11.33926659215512"><ele>288.0</ele><time>2026-03-29T10:16:27.004Z</time></trkpt><trkpt lat="43.31974904860062" lon="11.339267818958943"><ele>288.0</ele><time>2026-03-29T10:16:28.004Z</time></trkpt><trkpt lat="43.31986417454943" lon="11.339250321247338"><ele>288.0</ele><time>2026-03-29T10:16:29.004Z</time></trkpt><trkpt lat="43.319949964931354" lon="11.339230873860146"><ele>288.0</ele><time>2026-03-29T10:16:30.004Z</time></trkpt><trkpt lat="43.32001461701796" lon="11.339098219272103"><ele>286.6666666666667</ele><time>2026-03-29T10:16:32.004Z</time></trkpt><trkpt lat="43.320007218690094" lon="11.339002407274862"><ele>285.3333333333333</ele><time>2026-03-29T10:16:33.004Z</time></trkpt><trkpt lat="43.31996421445348" lon="11.338891008874576"><ele>284.0</ele><time>2026-03-29T10:16:34.004Z</time></trkpt><trkpt lat="43.319919019209934" lon="11.338774139220845"><ele>282.66666666666663</ele><time>2026-03-29T10:16:35.004Z</time></trkpt><trkpt lat="43.319881111038825" lon="11.338651262810172"><ele>281.3333333333333</ele><time>2026-03-29T10:16:36.004Z</time></trkpt><trkpt lat="43.31985634417936" lon="11.338529669049569"><ele>280.0</ele><time>2026-03-29T10:16:37.004Z</time></trkpt><trkpt lat="43.319849502503665" lon="11.33840063931365"><ele>280.0</ele><time>2026-03-29T10:16:38.004Z</time></trkpt><trkpt lat="43.319846435665355" lon="11.33827286587441"><ele>280.0</ele><time>2026-03-29T10:16:39.004Z</time></trkpt><trkpt lat="43.31987543495272" lon="11.338158608586077"><ele>280.0</ele><time>2026-03-29T10:16:40.004Z</time></trkpt><trkpt lat="43.31994267749387" lon="11.338048468908905"><ele>280.0</ele><time>2026-03-29T10:16:41.004Z</time></trkpt><trkpt lat="43.320029787647" lon="11.337959068773907"><ele>280.0</ele><time>2026-03-29T10:16:42.004Z</time></trkpt><trkpt lat="43.320112800880125" lon="11.337889191123322"><ele>280.0</ele><time>2026-03-29T10:16:43.004Z</time></trkpt><trkpt lat="43.320201086415985" lon="11.337838755906624"><ele>280.0</ele><time>2026-03-29T10:16:44.004Z</time></trkpt><trkpt lat="43.32029246939778" lon="11.33784472621201"><ele>280.0</ele><time>2026-03-29T10:16:45.004Z</time></trkpt><trkpt lat="43.320373569888815" lon="11.337919249511351"><ele>280.0</ele><time>2026-03-29T10:16:46.004Z</time></trkpt><trkpt lat="43.320467054543094" lon="11.33798905828908"><ele>280.0</ele><time>2026-03-29T10:16:47.004Z</time></trkpt><trkpt lat="43.32055735232008" lon="11.338096484787856"><ele>279.0</ele><time>2026-03-29T10:16:48.004Z</time></trkpt><trkpt lat="43.32065920015149" lon="11.338198809459943"><ele>278.0</ele><time>2026-03-29T10:16:49.004Z</time></trkpt><trkpt lat="43.320770111554744" lon="11.338296294078045"><ele>277.0</ele><time>2026-03-29T10:16:50.004Z</time></trkpt><trkpt lat="43.32087175094616" lon="11.338402816047"><ele>276.0</ele><time>2026-03-29T10:16:51.004Z</time></trkpt><trkpt lat="43.32097896686643" lon="11.338470761659266"><ele>276.0</ele><time>2026-03-29T10:16:52.004Z</time></trkpt><trkpt lat="43.3210838842807" lon="11.338509153346518"><ele>276.0</ele><time>2026-03-29T10:16:53.004Z</time></trkpt><trkpt lat="43.321184238458216" lon="11.33851664308843"><ele>276.0</ele><time>2026-03-29T10:16:54.004Z</time></trkpt><trkpt lat="43.32128621362497" lon="11.338484745994467"><ele>276.0</ele><time>2026-03-29T10:16:55.004Z</time></trkpt><trkpt lat="43.3213801716057" lon="11.338491824499794"><ele>276.0</ele><time>2026-03-29T10:16:56.004Z</time></trkpt><trkpt lat="43.32147340548145" lon="11.338479541790774"><ele>276.2</ele><time>2026-03-29T10:16:57.004Z</time></trkpt><trkpt lat="43.321574194037666" lon="11.338422920440252"><ele>276.40000000000003</ele><time>2026-03-29T10:16:58.004Z</time></trkpt><trkpt lat="43.321665795578696" lon="11.338350729866624"><ele>276.6</ele><time>2026-03-29T10:16:59.004Z</time></trkpt><trkpt lat="43.32175029257541" lon="11.33824137844204"><ele>276.8</ele><time>2026-03-29T10:17:00.004Z</time></trkpt><trkpt lat="43.3218224182943" lon="11.33812094260024"><ele>277.0</ele><time>2026-03-29T10:17:01.004Z</time></trkpt><trkpt lat="43.321895576943" lon="11.337990333596565"><ele>280.75</ele><time>2026-03-29T10:17:02.004Z</time></trkpt><trkpt lat="43.321958950012124" lon="11.337854544884365"><ele>284.5</ele><time>2026-03-29T10:17:03.004Z</time></trkpt><trkpt lat="43.32201028213131" lon="11.337703634022661"><ele>288.25</ele><time>2026-03-29T10:17:04.004Z</time></trkpt><trkpt lat="43.322066927253715" lon="11.337562043745217"><ele>292.0</ele><time>2026-03-29T10:17:05.004Z</time></trkpt><trkpt lat="43.322124102095344" lon="11.337429993496375"><ele>292.0</ele><time>2026-03-29T10:17:06.004Z</time></trkpt><trkpt lat="43.32220221910156" lon="11.33732541439162"><ele>292.0</ele><time>2026-03-29T10:17:07.004Z</time></trkpt><trkpt lat="43.32227664184918" lon="11.337240728024863"><ele>292.0</ele><time>2026-03-29T10:17:08.004Z</time></trkpt><trkpt lat="43.32236693770418" lon="11.337173748348242"><ele>292.0</ele><time>2026-03-29T10:17:09.004Z</time></trkpt><trkpt lat="43.32246065178519" lon="11.33710926239102"><ele>292.0</ele><time>2026-03-29T10:17:10.004Z</time></trkpt><trkpt lat="43.32255909970294" lon="11.337043180303798"><ele>292.0</ele><time>2026-03-29T10:17:11.004Z</time></trkpt><trkpt lat="43.3226472670526" lon="11.336983208900445"><ele>292.0</ele><time>2026-03-29T10:17:12.004Z</time></trkpt><trkpt lat="43.322735172716946" lon="11.336883421585462"><ele>292.0</ele><time>2026-03-29T10:17:13.004Z</time></trkpt><trkpt lat="43.32282930084657" lon="11.336802575566768"><ele>292.0</ele><time>2026-03-29T10:17:14.004Z</time></trkpt><trkpt lat="43.32291737142543" lon="11.336709132888357"><ele>292.0</ele><time>2026-03-29T10:17:15.004Z</time></trkpt><trkpt lat="43.322992972387276" lon="11.336598783380188"><ele>292.0</ele><time>2026-03-29T10:17:16.004Z</time></trkpt><trkpt lat="43.32307028735583" lon="11.336490263614902"><ele>292.0</ele><time>2026-03-29T10:17:17.004Z</time></trkpt><trkpt lat="43.323146941564154" lon="11.336382024701463"><ele>292.0</ele><time>2026-03-29T10:17:18.004Z</time></trkpt><trkpt lat="43.323210581095864" lon="11.336258369693402"><ele>292.0</ele><time>2026-03-29T10:17:19.004Z</time></trkpt><trkpt lat="43.32327227036427" lon="11.336139101800121"><ele>292.0</ele><time>2026-03-29T10:17:20.004Z</time></trkpt><trkpt lat="43.323323289322715" lon="11.33601410612884"><ele>292.0</ele><time>2026-03-29T10:17:21.004Z</time></trkpt><trkpt lat="43.32336747876021" lon="11.335893092671913"><ele>292.0</ele><time>2026-03-29T10:17:22.004Z</time></trkpt><trkpt lat="43.3234111590083" lon="11.33577298518626"><ele>292.0</ele><time>2026-03-29T10:17:23.004Z</time></trkpt><trkpt lat="43.323438353740144" lon="11.335637129821235"><ele>292.0</ele><time>2026-03-29T10:17:24.004Z</time></trkpt><trkpt lat="43.32345970565875" lon="11.33549712497636"><ele>292.0</ele><time>2026-03-29T10:17:25.004Z</time></trkpt><trkpt lat="43.32348305354357" lon="11.335365178772998"><ele>293.8</ele><time>2026-03-29T10:17:26.004Z</time></trkpt><trkpt lat="43.32350618795766" lon="11.335224781966305"><ele>295.6</ele><time>2026-03-29T10:17:27.004Z</time></trkpt><trkpt lat="43.323521707916484" lon="11.335080221110307"><ele>297.40000000000003</ele><time>2026-03-29T10:17:28.004Z</time></trkpt><trkpt lat="43.3235405003134" lon="11.33493699454899"><ele>299.2</ele><time>2026-03-29T10:17:29.004Z</time></trkpt><trkpt lat="43.3235612302755" lon="11.334795347979066"><ele>301.0</ele><time>2026-03-29T10:17:30.004Z</time></trkpt><trkpt lat="43.32357515296618" lon="11.334649356149743"><ele>301.5</ele><time>2026-03-29T10:17:31.004Z</time></trkpt><trkpt lat="43.32358781153796" lon="11.334498725060488"><ele>302.0</ele><time>2026-03-29T10:17:32.003Z</time></trkpt><trkpt lat="43.32359818028068" lon="11.33433730821654"><ele>302.5</ele><time>2026-03-29T10:17:33.003Z</time></trkpt><trkpt lat="43.323594947774794" lon="11.334165169839697"><ele>303.0</ele><time>2026-03-29T10:17:34.003Z</time></trkpt><trkpt lat="43.32360304845222" lon="11.334001163208415"><ele>303.0</ele><time>2026-03-29T10:17:35.003Z</time></trkpt><trkpt lat="43.32361261997388" lon="11.333835871985247"><ele>303.0</ele><time>2026-03-29T10:17:36.003Z</time></trkpt><trkpt lat="43.323619426135004" lon="11.33367697259605"><ele>303.0</ele><time>2026-03-29T10:17:37.002Z</time></trkpt><trkpt lat="43.32363188800998" lon="11.333546920838865"><ele>303.0</ele><time>2026-03-29T10:17:38.002Z</time></trkpt><trkpt lat="43.32365513029615" lon="11.33343357150533"><ele>303.0</ele><time>2026-03-29T10:17:39.002Z</time></trkpt><trkpt lat="43.32369567799853" lon="11.333345560515987"><ele>303.0</ele><time>2026-03-29T10:17:40.002Z</time></trkpt><trkpt lat="43.323759627800726" lon="11.333224515846798"><ele>303.0</ele><time>2026-03-29T10:17:42.002Z</time></trkpt><trkpt lat="43.323824119129355" lon="11.333117962242774"><ele>303.0</ele><time>2026-03-29T10:17:45.002Z</time></trkpt><trkpt lat="43.32377608781132" lon="11.333013690748873"><ele>303.0</ele><time>2026-03-29T10:17:46.001Z</time></trkpt><trkpt lat="43.323743863445664" lon="11.332921276026491"><ele>303.0</ele><time>2026-03-29T10:18:05.999Z</time></trkpt><trkpt lat="43.323718700314835" lon="11.332824440399587"><ele>303.0</ele><time>2026-03-29T10:18:08.999Z</time></trkpt><trkpt lat="43.3236947871728" lon="11.332743077358105"><ele>303.0</ele><time>2026-03-29T10:18:20.999Z</time></trkpt><trkpt lat="43.32366797116435" lon="11.332662641746104"><ele>303.0</ele><time>2026-03-29T10:18:25.999Z</time></trkpt><trkpt lat="43.32362832829046" lon="11.332592915543685"><ele>303.0</ele><time>2026-03-29T10:18:30.999Z</time></trkpt><trkpt lat="43.323587129674024" lon="11.332498673010303"><ele>303.0</ele><time>2026-03-29T10:18:32.999Z</time></trkpt><trkpt lat="43.32354984759471" lon="11.33241659711612"><ele>303.0</ele><time>2026-03-29T10:18:37.999Z</time></trkpt><trkpt lat="43.32350842780691" lon="11.332342081828223"><ele>303.0</ele><time>2026-03-29T10:18:50.999Z</time></trkpt><trkpt lat="43.323573522105264" lon="11.33224480429259"><ele>303.0</ele><time>2026-03-29T10:18:51.999Z</time></trkpt><trkpt lat="43.32363133102434" lon="11.332083744352994"><ele>303.0</ele><time>2026-03-29T10:18:53.999Z</time></trkpt><trkpt lat="43.32367063563499" lon="11.33200710006959"><ele>303.0</ele><time>2026-03-29T10:18:54.999Z</time></trkpt><trkpt lat="43.32370814173343" lon="11.331925926503336"><ele>303.0</ele><time>2026-03-29T10:18:55.999Z</time></trkpt><trkpt lat="43.32374870152192" lon="11.331769066115951"><ele>303.0</ele><time>2026-03-29T10:18:57.999Z</time></trkpt><trkpt lat="43.323736990601525" lon="11.331613591025517"><ele>303.0</ele><time>2026-03-29T10:18:59.999Z</time></trkpt><trkpt lat="43.32371736270053" lon="11.331527838251418"><ele>303.0</ele><time>2026-03-29T10:19:00.999Z</time></trkpt><trkpt lat="43.32370042357067" lon="11.331441111574643"><ele>303.6666666666667</ele><time>2026-03-29T10:19:01.999Z</time></trkpt><trkpt lat="43.323664709832975" lon="11.331357459137745"><ele>304.3333333333333</ele><time>2026-03-29T10:19:02.999Z</time></trkpt><trkpt lat="43.323631651992606" lon="11.331283572207923"><ele>305.0</ele><time>2026-03-29T10:19:03.999Z</time></trkpt><trkpt lat="43.323577603197876" lon="11.33123533587802"><ele>305.66666666666663</ele><time>2026-03-29T10:19:04.999Z</time></trkpt><trkpt lat="43.32350281934041" lon="11.33115863479575"><ele>306.3333333333333</ele><time>2026-03-29T10:19:06.999Z</time></trkpt><trkpt lat="43.32339815766013" lon="11.331085098756022"><ele>307.0</ele><time>2026-03-29T10:19:08.999Z</time></trkpt><trkpt lat="43.3233412594227" lon="11.331153402089434"><ele>307.0</ele><time>2026-03-29T10:19:09.999Z</time></trkpt><trkpt lat="43.323254553065155" lon="11.331186522898175"><ele>307.0</ele><time>2026-03-29T10:19:11.999Z</time></trkpt><trkpt lat="43.32316570827828" lon="11.331235360051284"><ele>307.0</ele><time>2026-03-29T10:19:13.999Z</time></trkpt><trkpt lat="43.32309961974108" lon="11.331236645680656"><ele>307.0</ele><time>2026-03-29T10:19:14.999Z</time></trkpt><trkpt lat="43.323030827776755" lon="11.331223430949706"><ele>307.0</ele><time>2026-03-29T10:19:15.999Z</time></trkpt><trkpt lat="43.322966126083095" lon="11.331192174246446"><ele>307.0</ele><time>2026-03-29T10:19:16.999Z</time></trkpt><trkpt lat="43.322914018292664" lon="11.33113489895945"><ele>309.16666666666663</ele><time>2026-03-29T10:19:17.999Z</time></trkpt><trkpt lat="43.32286888033388" lon="11.331070146593165"><ele>311.3333333333333</ele><time>2026-03-29T10:19:18.999Z</time></trkpt><trkpt lat="43.32280987192824" lon="11.331026189796443"><ele>313.5</ele><time>2026-03-29T10:19:19.999Z</time></trkpt><trkpt lat="43.32275891884059" lon="11.330895507143225"><ele>315.6666666666667</ele><time>2026-03-29T10:19:21.999Z</time></trkpt><trkpt lat="43.322767070083486" lon="11.330775101632339"><ele>317.83333333333337</ele><time>2026-03-29T10:19:23.999Z</time></trkpt><trkpt lat="43.3228129076769" lon="11.330664306959989"><ele>320.0</ele><time>2026-03-29T10:19:25.999Z</time></trkpt><trkpt lat="43.322889593480895" lon="11.330612746647892"><ele>319.6666666666667</ele><time>2026-03-29T10:19:27.999Z</time></trkpt><trkpt lat="43.322957121078986" lon="11.330552087307817"><ele>319.33333333333337</ele><time>2026-03-29T10:19:30.999Z</time></trkpt><trkpt lat="43.32301553362189" lon="11.3304962235757"><ele>319.0</ele><time>2026-03-29T10:19:32.999Z</time></trkpt><trkpt lat="43.32307766933773" lon="11.330407258019365"><ele>318.6666666666667</ele><time>2026-03-29T10:19:34.999Z</time></trkpt><trkpt lat="43.32313496203939" lon="11.330348336847901"><ele>318.3333333333333</ele><time>2026-03-29T10:19:36.999Z</time></trkpt><trkpt lat="43.323209606670986" lon="11.330275517212328"><ele>318.0</ele><time>2026-03-29T10:19:38.999Z</time></trkpt><trkpt lat="43.323299791558476" lon="11.330207769718914"><ele>318.0</ele><time>2026-03-29T10:19:40.999Z</time></trkpt></trkseg></trk></gpx>